<?xml version='1.0' encoding='UTF-8'?><gpx version="1.1" creator="JPX - https://github.com/jenetics/jpx" xmlns="http://www.topografix.com/GPX/1/1"><trk><trkseg><trkpt lat="45.10757750112706" lon="10.076790182635687"><ele>40.0</ele><time>2026-04-12T06:04:30.99Z</time></trkpt><trkpt lat="45.107619788543914" lon="10.076721494220912"><ele>40.0</ele><time>2026-04-12T06:04:31.991Z</time></trkpt><trkpt lat="45.107667268354646" lon="10.076657171462058"><ele>40.0</ele><time>2026-04-12T06:04:32.992Z</time></trkpt><trkpt lat="45.10772051972524" lon="10.076589991802361"><ele>40.0</ele><time>2026-04-12T06:04:33.992Z</time></trkpt><trkpt lat="45.1077718074116" lon="10.076533845226262"><ele>40.0</ele><time>2026-04-12T06:04:34.993Z</time></trkpt><trkpt lat="45.10783011608676" lon="10.076472723653811"><ele>40.0</ele><time>2026-04-12T06:04:35.993Z</time></trkpt><trkpt lat="45.10788527615665" lon="10.076420645881413"><ele>40.0</ele><time>2026-04-12T06:04:36.994Z</time></trkpt><trkpt lat="45.1079482587414" lon="10.076371441867671"><ele>40.0</ele><time>2026-04-12T06:04:37.994Z</time></trkpt><trkpt lat="45.10801094229476" lon="10.076328708054652"><ele>40.0</ele><time>2026-04-12T06:04:38.994Z</time></trkpt><trkpt lat="45.10807034116841" lon="10.076286820985976"><ele>40.0</ele><time>2026-04-12T06:04:39.995Z</time></trkpt><trkpt lat="45.10813293390481" lon="10.076246524186573"><ele>40.0</ele><time>2026-04-12T06:04:40.995Z</time></trkpt><trkpt lat="45.10819782690192" lon="10.076210252648428"><ele>40.0</ele><time>2026-04-12T06:04:41.995Z</time></trkpt><trkpt lat="45.10826194918981" lon="10.07617325790194"><ele>40.0</ele><time>2026-04-12T06:04:42.996Z</time></trkpt><trkpt lat="45.108325659215176" lon="10.076137941595581"><ele>40.0</ele><time>2026-04-12T06:04:43.996Z</time></trkpt><trkpt lat="45.108386716914524" lon="10.07609910942469"><ele>40.0</ele><time>2026-04-12T06:04:44.996Z</time></trkpt><trkpt lat="45.108447543704564" lon="10.076066620750787"><ele>40.0</ele><time>2026-04-12T06:04:45.996Z</time></trkpt><trkpt lat="45.108508281814494" lon="10.076028777440678"><ele>40.0</ele><time>2026-04-12T06:04:46.997Z</time></trkpt><trkpt lat="45.10856743386213" lon="10.075991896690356"><ele>40.0</ele><time>2026-04-12T06:04:47.997Z</time></trkpt><trkpt lat="45.108632708381805" lon="10.075956027655785"><ele>40.0</ele><time>2026-04-12T06:04:48.997Z</time></trkpt><trkpt lat="45.10868773692395" lon="10.075905499975693"><ele>40.0</ele><time>2026-04-12T06:04:49.997Z</time></trkpt><trkpt lat="45.10873671189702" lon="10.075840279758435"><ele>40.0</ele><time>2026-04-12T06:04:50.997Z</time></trkpt><trkpt lat="45.10878100546001" lon="10.07576776875099"><ele>39.57142857142857</ele><time>2026-04-12T06:04:51.998Z</time></trkpt><trkpt lat="45.10882169129125" lon="10.075693380075185"><ele>39.142857142857146</ele><time>2026-04-12T06:04:52.998Z</time></trkpt><trkpt lat="45.10885738438473" lon="10.07561723314218"><ele>38.714285714285715</ele><time>2026-04-12T06:04:53.998Z</time></trkpt><trkpt lat="45.10889170466383" lon="10.075538034912801"><ele>38.285714285714285</ele><time>2026-04-12T06:04:54.998Z</time></trkpt><trkpt lat="45.10892349330723" lon="10.075451026799584"><ele>37.857142857142854</ele><time>2026-04-12T06:04:55.998Z</time></trkpt><trkpt lat="45.10895159450332" lon="10.075360703017266"><ele>37.42857142857143</ele><time>2026-04-12T06:04:56.998Z</time></trkpt><trkpt lat="45.10897691958406" lon="10.07526942072693"><ele>37.0</ele><time>2026-04-12T06:04:57.998Z</time></trkpt><trkpt lat="45.109001949685506" lon="10.075173182280155"><ele>37.0</ele><time>2026-04-12T06:04:58.998Z</time></trkpt><trkpt lat="45.109029832228025" lon="10.075083222827368"><ele>37.0</ele><time>2026-04-12T06:04:59.998Z</time></trkpt><trkpt lat="45.109053524219384" lon="10.07498399477025"><ele>37.0</ele><time>2026-04-12T06:05:00.999Z</time></trkpt><trkpt lat="45.10907841437756" lon="10.074881975770229"><ele>37.0</ele><time>2026-04-12T06:05:01.999Z</time></trkpt><trkpt lat="45.109103134566475" lon="10.07477975478184"><ele>37.0</ele><time>2026-04-12T06:05:02.999Z</time></trkpt><trkpt lat="45.10913501416812" lon="10.074682422359519"><ele>37.0</ele><time>2026-04-12T06:05:03.999Z</time></trkpt><trkpt lat="45.10916129586772" lon="10.074585888089183"><ele>37.0</ele><time>2026-04-12T06:05:04.999Z</time></trkpt><trkpt lat="45.10919093466865" lon="10.074483753998718"><ele>37.285714285714285</ele><time>2026-04-12T06:05:05.999Z</time></trkpt><trkpt lat="45.10922203064619" lon="10.074388833723567"><ele>37.57142857142857</ele><time>2026-04-12T06:05:06.999Z</time></trkpt><trkpt lat="45.109262329304286" lon="10.07429730633051"><ele>37.85714285714286</ele><time>2026-04-12T06:05:07.999Z</time></trkpt><trkpt lat="45.10930678008204" lon="10.074219105162825"><ele>38.14285714285714</ele><time>2026-04-12T06:05:08.999Z</time></trkpt><trkpt lat="45.109350474441165" lon="10.07413414106056"><ele>38.42857142857142</ele><time>2026-04-12T06:05:09.999Z</time></trkpt><trkpt lat="45.10939292541453" lon="10.074046737532523"><ele>38.714285714285715</ele><time>2026-04-12T06:05:10.999Z</time></trkpt><trkpt lat="45.109435903424504" lon="10.073960398416775"><ele>39.0</ele><time>2026-04-12T06:05:11.999Z</time></trkpt><trkpt lat="45.10948440206234" lon="10.07387905607079"><ele>39.333333333333336</ele><time>2026-04-12T06:05:12.999Z</time></trkpt><trkpt lat="45.10953380790176" lon="10.073790527908564"><ele>39.666666666666664</ele><time>2026-04-12T06:05:13.999Z</time></trkpt><trkpt lat="45.10957803631939" lon="10.073698361573793"><ele>40.0</ele><time>2026-04-12T06:05:14.999Z</time></trkpt><trkpt lat="45.10962492880037" lon="10.073610005654926"><ele>40.33333333333333</ele><time>2026-04-12T06:05:15.999Z</time></trkpt><trkpt lat="45.109672253134484" lon="10.073521910341674"><ele>40.666666666666664</ele><time>2026-04-12T06:05:16.999Z</time></trkpt><trkpt lat="45.10972327573969" lon="10.073436976778666"><ele>41.0</ele><time>2026-04-12T06:05:17.999Z</time></trkpt><trkpt lat="45.1097735773948" lon="10.073352323487082"><ele>41.0</ele><time>2026-04-12T06:05:18.999Z</time></trkpt><trkpt lat="45.109824485168346" lon="10.073264119271379"><ele>41.0</ele><time>2026-04-12T06:05:19.999Z</time></trkpt><trkpt lat="45.10987285930344" lon="10.07317767652213"><ele>41.0</ele><time>2026-04-12T06:05:20.999Z</time></trkpt><trkpt lat="45.109922924128725" lon="10.07309166897948"><ele>41.0</ele><time>2026-04-12T06:05:21.999Z</time></trkpt><trkpt lat="45.10997258837381" lon="10.073006670361757"><ele>41.0</ele><time>2026-04-12T06:05:22.999Z</time></trkpt><trkpt lat="45.11001894685862" lon="10.072916053945288"><ele>41.0</ele><time>2026-04-12T06:05:23.999Z</time></trkpt><trkpt lat="45.110067287884895" lon="10.072825020306746"><ele>41.0</ele><time>2026-04-12T06:05:24.999Z</time></trkpt><trkpt lat="45.11011548097745" lon="10.072731687203353"><ele>41.0</ele><time>2026-04-12T06:05:25.999Z</time></trkpt><trkpt lat="45.11016278132615" lon="10.07263963046096"><ele>41.0</ele><time>2026-04-12T06:05:26.999Z</time></trkpt><trkpt lat="45.11021017065174" lon="10.072549783738152"><ele>41.0</ele><time>2026-04-12T06:05:27.999Z</time></trkpt><trkpt lat="45.110258267012405" lon="10.072463434873155"><ele>41.0</ele><time>2026-04-12T06:05:28.999Z</time></trkpt><trkpt lat="45.11029785007298" lon="10.072366188881064"><ele>41.0</ele><time>2026-04-12T06:05:29.999Z</time></trkpt><trkpt lat="45.11033219411824" lon="10.072266731678642"><ele>41.0</ele><time>2026-04-12T06:05:30.999Z</time></trkpt><trkpt lat="45.110364650611466" lon="10.072166122278718"><ele>41.0</ele><time>2026-04-12T06:05:31.999Z</time></trkpt><trkpt lat="45.11040173827767" lon="10.072066667196818"><ele>41.0</ele><time>2026-04-12T06:05:32.999Z</time></trkpt><trkpt lat="45.11043474926856" lon="10.07196787082241"><ele>41.0</ele><time>2026-04-12T06:05:33.999Z</time></trkpt><trkpt lat="45.110468924540235" lon="10.071868561523495"><ele>41.0</ele><time>2026-04-12T06:05:34.999Z</time></trkpt><trkpt lat="45.110503433828995" lon="10.071765239183332"><ele>41.0</ele><time>2026-04-12T06:05:35.999Z</time></trkpt><trkpt lat="45.11053950152125" lon="10.071660477145604"><ele>41.0</ele><time>2026-04-12T06:05:36.999Z</time></trkpt><trkpt lat="45.11057476483089" lon="10.071557835230498"><ele>41.0</ele><time>2026-04-12T06:05:37.999Z</time></trkpt><trkpt lat="45.110608767645545" lon="10.071455861340393"><ele>41.0</ele><time>2026-04-12T06:05:38.999Z</time></trkpt><trkpt lat="45.11064621967844" lon="10.071358781537207"><ele>41.0</ele><time>2026-04-12T06:05:39.999Z</time></trkpt><trkpt lat="45.110684626853796" lon="10.071265675602127"><ele>41.0</ele><time>2026-04-12T06:05:40.999Z</time></trkpt><trkpt lat="45.110722453529746" lon="10.071176908458758"><ele>41.0</ele><time>2026-04-12T06:05:41.999Z</time></trkpt><trkpt lat="45.110768102465144" lon="10.071023572371406"><ele>41.5</ele><time>2026-04-12T06:05:43.999Z</time></trkpt><trkpt lat="45.110703336461285" lon="10.070878306349195"><ele>42.0</ele><time>2026-04-12T06:05:45.999Z</time></trkpt><trkpt lat="45.11062916499596" lon="10.07082895548926"><ele>42.5</ele><time>2026-04-12T06:05:46.999Z</time></trkpt><trkpt lat="45.110555656844845" lon="10.070790859213853"><ele>43.0</ele><time>2026-04-12T06:05:47.999Z</time></trkpt><trkpt lat="45.11048362694094" lon="10.070749247681222"><ele>43.5</ele><time>2026-04-12T06:05:48.999Z</time></trkpt><trkpt lat="45.1104044294236" lon="10.070695597803944"><ele>44.0</ele><time>2026-04-12T06:05:49.999Z</time></trkpt><trkpt lat="45.11033190313952" lon="10.070645041579967"><ele>42.83333333333333</ele><time>2026-04-12T06:05:50.999Z</time></trkpt><trkpt lat="45.110267157320905" lon="10.070608181445534"><ele>41.666666666666664</ele><time>2026-04-12T06:05:53.999Z</time></trkpt><trkpt lat="45.11033926362318" lon="10.070670667392804"><ele>40.5</ele><time>2026-04-12T06:05:58.999Z</time></trkpt><trkpt lat="45.11041111101381" lon="10.070726235084798"><ele>39.333333333333336</ele><time>2026-04-12T06:06:01.999Z</time></trkpt><trkpt lat="45.11034643166917" lon="10.070685490996961"><ele>38.16666666666667</ele><time>2026-04-12T06:06:25.001Z</time></trkpt><trkpt lat="45.11024251341126" lon="10.070601855237282"><ele>37.0</ele><time>2026-04-12T06:06:27.001Z</time></trkpt><trkpt lat="45.110187297631356" lon="10.070552268492799"><ele>37.0</ele><time>2026-04-12T06:06:28.001Z</time></trkpt><trkpt lat="45.11013462004338" lon="10.070480291695384"><ele>37.0</ele><time>2026-04-12T06:06:29.001Z</time></trkpt><trkpt lat="45.11008187652454" lon="10.070390326789509"><ele>37.0</ele><time>2026-04-12T06:06:30.001Z</time></trkpt><trkpt lat="45.11003795799459" lon="10.070290186397653"><ele>37.0</ele><time>2026-04-12T06:06:31Z</time></trkpt><trkpt lat="45.110002091426395" lon="10.070182338803138"><ele>37.0</ele><time>2026-04-12T06:06:32.001Z</time></trkpt><trkpt lat="45.109964125395614" lon="10.070071569364954"><ele>37.0</ele><time>2026-04-12T06:06:33.001Z</time></trkpt><trkpt lat="45.109925663700444" lon="10.069965429838643"><ele>36.333333333333336</ele><time>2026-04-12T06:06:34.001Z</time></trkpt><trkpt lat="45.10988853680895" lon="10.069857895797199"><ele>35.66666666666667</ele><time>2026-04-12T06:06:35Z</time></trkpt><trkpt lat="45.109854351680916" lon="10.069749653820896"><ele>35.0</ele><time>2026-04-12T06:06:36Z</time></trkpt><trkpt lat="45.10981834419559" lon="10.069643719059162"><ele>34.333333333333336</ele><time>2026-04-12T06:06:37Z</time></trkpt><trkpt lat="45.10978140538253" lon="10.069542353417818"><ele>33.666666666666664</ele><time>2026-04-12T06:06:38Z</time></trkpt><trkpt lat="45.10974356286809" lon="10.069439425734918"><ele>33.0</ele><time>2026-04-12T06:06:39Z</time></trkpt><trkpt lat="45.1097051099027" lon="10.069339065573258"><ele>33.0</ele><time>2026-04-12T06:06:40Z</time></trkpt><trkpt lat="45.10966503954297" lon="10.069241961340536"><ele>33.0</ele><time>2026-04-12T06:06:41Z</time></trkpt><trkpt lat="45.10962439485847" lon="10.069143143698508"><ele>33.0</ele><time>2026-04-12T06:06:42Z</time></trkpt><trkpt lat="45.10957749349498" lon="10.069051698046737"><ele>33.0</ele><time>2026-04-12T06:06:43Z</time></trkpt><trkpt lat="45.109527476991154" lon="10.068963354297347"><ele>33.0</ele><time>2026-04-12T06:06:44Z</time></trkpt><trkpt lat="45.109476658171204" lon="10.068874281087304"><ele>33.0</ele><time>2026-04-12T06:06:45Z</time></trkpt><trkpt lat="45.109425941590516" lon="10.068788509858122"><ele>33.0</ele><time>2026-04-12T06:06:46Z</time></trkpt><trkpt lat="45.10937646929684" lon="10.068700743566064"><ele>33.0</ele><time>2026-04-12T06:06:47Z</time></trkpt><trkpt lat="45.109324440124524" lon="10.068615714563478"><ele>33.0</ele><time>2026-04-12T06:06:48Z</time></trkpt><trkpt lat="45.10927487093973" lon="10.06852841473331"><ele>33.0</ele><time>2026-04-12T06:06:49Z</time></trkpt><trkpt lat="45.109224522766894" lon="10.068442901334945"><ele>33.0</ele><time>2026-04-12T06:06:50Z</time></trkpt><trkpt lat="45.10917372946214" lon="10.068355849213953"><ele>33.0</ele><time>2026-04-12T06:06:51Z</time></trkpt><trkpt lat="45.10912082587722" lon="10.068271107939747"><ele>33.166666666666664</ele><time>2026-04-12T06:06:52Z</time></trkpt><trkpt lat="45.10906931343193" lon="10.068184523149043"><ele>33.333333333333336</ele><time>2026-04-12T06:06:53Z</time></trkpt><trkpt lat="45.10901732315656" lon="10.068099439613954"><ele>33.5</ele><time>2026-04-12T06:06:54Z</time></trkpt><trkpt lat="45.108965618176995" lon="10.068014960938026"><ele>33.66666666666667</ele><time>2026-04-12T06:06:55Z</time></trkpt><trkpt lat="45.108914537255046" lon="10.067930472424884"><ele>33.833333333333336</ele><time>2026-04-12T06:06:56Z</time></trkpt><trkpt lat="45.10886325181429" lon="10.067842944613506"><ele>34.0</ele><time>2026-04-12T06:06:57Z</time></trkpt><trkpt lat="45.1088127973306" lon="10.067758415511873"><ele>34.0</ele><time>2026-04-12T06:06:58Z</time></trkpt><trkpt lat="45.10876217842001" lon="10.067669923155867"><ele>34.0</ele><time>2026-04-12T06:06:59Z</time></trkpt><trkpt lat="45.108710917749214" lon="10.067585547000029"><ele>34.0</ele><time>2026-04-12T06:07:00Z</time></trkpt><trkpt lat="45.10865835944316" lon="10.067498245912297"><ele>34.0</ele><time>2026-04-12T06:07:01Z</time></trkpt><trkpt lat="45.10860626597325" lon="10.067413874536904"><ele>34.0</ele><time>2026-04-12T06:07:02Z</time></trkpt><trkpt lat="45.10855432655092" lon="10.067325574436722"><ele>34.0</ele><time>2026-04-12T06:07:03Z</time></trkpt><trkpt lat="45.108502227026555" lon="10.067240548309094"><ele>33.833333333333336</ele><time>2026-04-12T06:07:04Z</time></trkpt><trkpt lat="45.1084497191458" lon="10.067154675519122"><ele>33.66666666666667</ele><time>2026-04-12T06:07:05Z</time></trkpt><trkpt lat="45.108397293545146" lon="10.06706796244088"><ele>33.5</ele><time>2026-04-12T06:07:06Z</time></trkpt><trkpt lat="45.10834533548691" lon="10.066982012307692"><ele>33.333333333333336</ele><time>2026-04-12T06:07:07Z</time></trkpt><trkpt lat="45.10829357014039" lon="10.0668950693742"><ele>33.166666666666664</ele><time>2026-04-12T06:07:07.999Z</time></trkpt><trkpt lat="45.10824215322085" lon="10.066807748019087"><ele>33.0</ele><time>2026-04-12T06:07:08.999Z</time></trkpt><trkpt lat="45.1081897725368" lon="10.066719669907314"><ele>33.0</ele><time>2026-04-12T06:07:09.999Z</time></trkpt><trkpt lat="45.10813815614952" lon="10.06663211874938"><ele>33.0</ele><time>2026-04-12T06:07:10.999Z</time></trkpt><trkpt lat="45.10808806611789" lon="10.066544819019228"><ele>33.0</ele><time>2026-04-12T06:07:11.999Z</time></trkpt><trkpt lat="45.10803724571906" lon="10.066458869231887"><ele>33.0</ele><time>2026-04-12T06:07:12.999Z</time></trkpt><trkpt lat="45.10798364103079" lon="10.066374130389654"><ele>33.0</ele><time>2026-04-12T06:07:13.999Z</time></trkpt><trkpt lat="45.10792923205043" lon="10.066291485250517"><ele>33.0</ele><time>2026-04-12T06:07:14.999Z</time></trkpt><trkpt lat="45.107880578847904" lon="10.066205060501876"><ele>33.0</ele><time>2026-04-12T06:07:15.999Z</time></trkpt><trkpt lat="45.10783178256468" lon="10.066120279180613"><ele>33.0</ele><time>2026-04-12T06:07:16.999Z</time></trkpt><trkpt lat="45.10778216279625" lon="10.066034533488127"><ele>33.0</ele><time>2026-04-12T06:07:17.999Z</time></trkpt><trkpt lat="45.107729451759695" lon="10.065951627833316"><ele>33.0</ele><time>2026-04-12T06:07:18.999Z</time></trkpt><trkpt lat="45.10767548378488" lon="10.065872331545004"><ele>33.0</ele><time>2026-04-12T06:07:19.999Z</time></trkpt><trkpt lat="45.10762384851554" lon="10.06578849216963"><ele>33.0</ele><time>2026-04-12T06:07:20.999Z</time></trkpt><trkpt lat="45.107570755522076" lon="10.065707232456987"><ele>33.0</ele><time>2026-04-12T06:07:21.999Z</time></trkpt><trkpt lat="45.10751856241226" lon="10.065620940360848"><ele>33.0</ele><time>2026-04-12T06:07:22.999Z</time></trkpt><trkpt lat="45.10746660369689" lon="10.065535080497677"><ele>33.0</ele><time>2026-04-12T06:07:23.999Z</time></trkpt><trkpt lat="45.10741428591103" lon="10.065449286129457"><ele>33.0</ele><time>2026-04-12T06:07:24.999Z</time></trkpt><trkpt lat="45.1073614365505" lon="10.065364686162207"><ele>33.0</ele><time>2026-04-12T06:07:25.999Z</time></trkpt><trkpt lat="45.10730831966793" lon="10.065280202031346"><ele>33.0</ele><time>2026-04-12T06:07:26.999Z</time></trkpt><trkpt lat="45.10725769723757" lon="10.065195840992136"><ele>33.0</ele><time>2026-04-12T06:07:27.999Z</time></trkpt><trkpt lat="45.10720479355559" lon="10.065109715693543"><ele>33.0</ele><time>2026-04-12T06:07:28.999Z</time></trkpt><trkpt lat="45.10715274910234" lon="10.06502779052494"><ele>33.0</ele><time>2026-04-12T06:07:29.999Z</time></trkpt><trkpt lat="45.1070995264187" lon="10.064945123666872"><ele>33.0</ele><time>2026-04-12T06:07:30.999Z</time></trkpt><trkpt lat="45.10704815918042" lon="10.064861122603995"><ele>33.0</ele><time>2026-04-12T06:07:31.999Z</time></trkpt><trkpt lat="45.106992258652475" lon="10.064776092964628"><ele>33.0</ele><time>2026-04-12T06:07:32.999Z</time></trkpt><trkpt lat="45.10693973787414" lon="10.064693797638533"><ele>33.0</ele><time>2026-04-12T06:07:33.999Z</time></trkpt><trkpt lat="45.10688643497249" lon="10.064608508030364"><ele>33.0</ele><time>2026-04-12T06:07:34.999Z</time></trkpt><trkpt lat="45.10683388632199" lon="10.064523976912005"><ele>33.0</ele><time>2026-04-12T06:07:35.999Z</time></trkpt><trkpt lat="45.10678024589784" lon="10.064441397410151"><ele>33.0</ele><time>2026-04-12T06:07:36.999Z</time></trkpt><trkpt lat="45.10672644260644" lon="10.064353348111895"><ele>33.0</ele><time>2026-04-12T06:07:37.999Z</time></trkpt><trkpt lat="45.1066755587984" lon="10.064269627019092"><ele>33.0</ele><time>2026-04-12T06:07:38.999Z</time></trkpt><trkpt lat="45.106625303139815" lon="10.064180847693663"><ele>33.333333333333336</ele><time>2026-04-12T06:07:39.999Z</time></trkpt><trkpt lat="45.10657416892088" lon="10.064097151378"><ele>33.666666666666664</ele><time>2026-04-12T06:07:40.999Z</time></trkpt><trkpt lat="45.10652439444109" lon="10.064014426624027"><ele>34.0</ele><time>2026-04-12T06:07:41.999Z</time></trkpt><trkpt lat="45.10647199439096" lon="10.063935032286572"><ele>34.33333333333333</ele><time>2026-04-12T06:07:42.999Z</time></trkpt><trkpt lat="45.10642364801536" lon="10.06385644715637"><ele>34.666666666666664</ele><time>2026-04-12T06:07:43.999Z</time></trkpt><trkpt lat="45.106376996864235" lon="10.063776990668549"><ele>35.0</ele><time>2026-04-12T06:07:44.999Z</time></trkpt><trkpt lat="45.10632668707239" lon="10.063700301976523"><ele>35.0</ele><time>2026-04-12T06:07:45.999Z</time></trkpt><trkpt lat="45.10627822686273" lon="10.063622779394644"><ele>35.0</ele><time>2026-04-12T06:07:46.999Z</time></trkpt><trkpt lat="45.10622813438831" lon="10.063548215890927"><ele>35.0</ele><time>2026-04-12T06:07:47.999Z</time></trkpt><trkpt lat="45.10617892394931" lon="10.063470325791911"><ele>35.0</ele><time>2026-04-12T06:07:48.999Z</time></trkpt><trkpt lat="45.106131700489584" lon="10.063393345881032"><ele>35.0</ele><time>2026-04-12T06:07:49.999Z</time></trkpt><trkpt lat="45.10608210869314" lon="10.063315641013379"><ele>35.0</ele><time>2026-04-12T06:07:50.999Z</time></trkpt><trkpt lat="45.10603489377452" lon="10.063236071508662"><ele>35.0</ele><time>2026-04-12T06:07:51.999Z</time></trkpt><trkpt lat="45.10598773245696" lon="10.063156675691234"><ele>34.83333333333333</ele><time>2026-04-12T06:07:52.999Z</time></trkpt><trkpt lat="45.105938175809435" lon="10.06307549237766"><ele>34.666666666666664</ele><time>2026-04-12T06:07:53.999Z</time></trkpt><trkpt lat="45.10588858662031" lon="10.062995045655684"><ele>34.5</ele><time>2026-04-12T06:07:54.999Z</time></trkpt><trkpt lat="45.10583592233934" lon="10.06291440330797"><ele>34.333333333333336</ele><time>2026-04-12T06:07:55.999Z</time></trkpt><trkpt lat="45.10578254034955" lon="10.06283298060344"><ele>34.16666666666667</ele><time>2026-04-12T06:07:56.999Z</time></trkpt><trkpt lat="45.105725690998234" lon="10.06274905552844"><ele>34.0</ele><time>2026-04-12T06:07:57.999Z</time></trkpt><trkpt lat="45.105670325258004" lon="10.062660741762816"><ele>34.0</ele><time>2026-04-12T06:07:58.999Z</time></trkpt><trkpt lat="45.1056111961508" lon="10.062571024190694"><ele>34.0</ele><time>2026-04-12T06:07:59.999Z</time></trkpt><trkpt lat="45.105551721140735" lon="10.062479499618064"><ele>34.0</ele><time>2026-04-12T06:08:00.999Z</time></trkpt><trkpt lat="45.10548835732787" lon="10.062387416978037"><ele>34.0</ele><time>2026-04-12T06:08:01.999Z</time></trkpt><trkpt lat="45.10541994586699" lon="10.062298890745726"><ele>34.0</ele><time>2026-04-12T06:08:02.999Z</time></trkpt><trkpt lat="45.10534459159055" lon="10.062219629536198"><ele>33.66666666666667</ele><time>2026-04-12T06:08:03.999Z</time></trkpt><trkpt lat="45.105265871738155" lon="10.062153326624774"><ele>33.333333333333336</ele><time>2026-04-12T06:08:04.999Z</time></trkpt><trkpt lat="45.1051833195471" lon="10.06209743930355"><ele>33.0</ele><time>2026-04-12T06:08:05.999Z</time></trkpt><trkpt lat="45.10510352295633" lon="10.062051749346299"><ele>32.666666666666664</ele><time>2026-04-12T06:08:06.998Z</time></trkpt><trkpt lat="45.105029462489085" lon="10.061985877332237"><ele>32.33333333333333</ele><time>2026-04-12T06:08:07.998Z</time></trkpt><trkpt lat="45.10495003839918" lon="10.06195775198492"><ele>32.0</ele><time>2026-04-12T06:08:08.998Z</time></trkpt><trkpt lat="45.10487112050702" lon="10.06196386506757"><ele>31.999999999999996</ele><time>2026-04-12T06:08:09.998Z</time></trkpt><trkpt lat="45.10479546949819" lon="10.061965640051358"><ele>32.0</ele><time>2026-04-12T06:08:10.998Z</time></trkpt><trkpt lat="45.104720005389" lon="10.06198509395016"><ele>32.0</ele><time>2026-04-12T06:08:11.998Z</time></trkpt><trkpt lat="45.10464124478538" lon="10.061994836952882"><ele>32.0</ele><time>2026-04-12T06:08:12.998Z</time></trkpt><trkpt lat="45.10456805624842" lon="10.06203071073141"><ele>31.999999999999996</ele><time>2026-04-12T06:08:13.998Z</time></trkpt><trkpt lat="45.10449736780305" lon="10.062069094251283"><ele>32.0</ele><time>2026-04-12T06:08:14.998Z</time></trkpt><trkpt lat="45.104427285056225" lon="10.062108471995963"><ele>31.999999999999996</ele><time>2026-04-12T06:08:15.998Z</time></trkpt><trkpt lat="45.10435782547197" lon="10.062147887644702"><ele>32.0</ele><time>2026-04-12T06:08:16.998Z</time></trkpt><trkpt lat="45.104288773862514" lon="10.062187890931156"><ele>32.0</ele><time>2026-04-12T06:08:17.998Z</time></trkpt><trkpt lat="45.104218679842425" lon="10.062228498110631"><ele>32.0</ele><time>2026-04-12T06:08:18.998Z</time></trkpt><trkpt lat="45.10414778697725" lon="10.062269568083225"><ele>31.999999999999996</ele><time>2026-04-12T06:08:19.998Z</time></trkpt><trkpt lat="45.104076921664664" lon="10.062310622093591"><ele>32.0</ele><time>2026-04-12T06:08:20.998Z</time></trkpt><trkpt lat="45.10400663725344" lon="10.062351339572434"><ele>32.33333333333333</ele><time>2026-04-12T06:08:21.998Z</time></trkpt><trkpt lat="45.103936155640675" lon="10.062392171294565"><ele>32.666666666666664</ele><time>2026-04-12T06:08:22.998Z</time></trkpt><trkpt lat="45.103865312728125" lon="10.062432934395892"><ele>33.0</ele><time>2026-04-12T06:08:23.998Z</time></trkpt><trkpt lat="45.103794411325765" lon="10.062473257721384"><ele>33.333333333333336</ele><time>2026-04-12T06:08:24.998Z</time></trkpt><trkpt lat="45.10372418440979" lon="10.062513197452809"><ele>33.66666666666667</ele><time>2026-04-12T06:08:25.998Z</time></trkpt><trkpt lat="45.103654660122025" lon="10.062552737581354"><ele>34.0</ele><time>2026-04-12T06:08:26.998Z</time></trkpt><trkpt lat="45.103584501739654" lon="10.062592766436737"><ele>33.99999999999999</ele><time>2026-04-12T06:08:27.998Z</time></trkpt><trkpt lat="45.10351466406667" lon="10.06263284462765"><ele>34.0</ele><time>2026-04-12T06:08:28.998Z</time></trkpt><trkpt lat="45.103451839376525" lon="10.062691453350558"><ele>34.0</ele><time>2026-04-12T06:08:30Z</time></trkpt><trkpt lat="45.10338130889718" lon="10.062723418733981"><ele>34.0</ele><time>2026-04-12T06:08:31Z</time></trkpt><trkpt lat="45.10331160762884" lon="10.06272590588809"><ele>34.0</ele><time>2026-04-12T06:08:32Z</time></trkpt><trkpt lat="45.10325603695019" lon="10.062676188651086"><ele>33.99999999999999</ele><time>2026-04-12T06:08:33Z</time></trkpt><trkpt lat="45.10323188426233" lon="10.062570223271505"><ele>34.0</ele><time>2026-04-12T06:08:34Z</time></trkpt><trkpt lat="45.103249861779325" lon="10.062458858740825"><ele>34.16666666666667</ele><time>2026-04-12T06:08:35Z</time></trkpt><trkpt lat="45.10326632772238" lon="10.062355400910983"><ele>34.333333333333336</ele><time>2026-04-12T06:08:36Z</time></trkpt><trkpt lat="45.1032729912401" lon="10.062249498368008"><ele>34.5</ele><time>2026-04-12T06:08:37Z</time></trkpt><trkpt lat="45.103278373320386" lon="10.062141221390826"><ele>34.666666666666664</ele><time>2026-04-12T06:08:38Z</time></trkpt><trkpt lat="45.10328819779721" lon="10.062031853668376"><ele>34.83333333333333</ele><time>2026-04-12T06:08:39Z</time></trkpt><trkpt lat="45.103292850593384" lon="10.061922325937864"><ele>35.0</ele><time>2026-04-12T06:08:40Z</time></trkpt><trkpt lat="45.10328855151586" lon="10.061809898668347"><ele>35.0</ele><time>2026-04-12T06:08:41Z</time></trkpt><trkpt lat="45.103287591761905" lon="10.061699603456521"><ele>35.0</ele><time>2026-04-12T06:08:42Z</time></trkpt><trkpt lat="45.103291576208065" lon="10.061589588473288"><ele>35.0</ele><time>2026-04-12T06:08:43Z</time></trkpt><trkpt lat="45.10329300559165" lon="10.061479890891185"><ele>35.0</ele><time>2026-04-12T06:08:44Z</time></trkpt><trkpt lat="45.1032951514384" lon="10.061368336309405"><ele>35.0</ele><time>2026-04-12T06:08:45Z</time></trkpt><trkpt lat="45.10329382946966" lon="10.061257382395755"><ele>35.0</ele><time>2026-04-12T06:08:46Z</time></trkpt><trkpt lat="45.1032942996957" lon="10.061150744783161"><ele>35.166666666666664</ele><time>2026-04-12T06:08:47Z</time></trkpt><trkpt lat="45.10329748053646" lon="10.061040167704206"><ele>35.33333333333333</ele><time>2026-04-12T06:08:48Z</time></trkpt><trkpt lat="45.103300062961196" lon="10.06093062175559"><ele>35.5</ele><time>2026-04-12T06:08:49Z</time></trkpt><trkpt lat="45.10330445577855" lon="10.060822369390754"><ele>35.666666666666664</ele><time>2026-04-12T06:08:50Z</time></trkpt><trkpt lat="45.10331003854523" lon="10.06071136794815"><ele>35.833333333333336</ele><time>2026-04-12T06:08:51Z</time></trkpt><trkpt lat="45.10331262741911" lon="10.060601163739273"><ele>36.0</ele><time>2026-04-12T06:08:52Z</time></trkpt><trkpt lat="45.103313110533534" lon="10.060491729915604"><ele>35.833333333333336</ele><time>2026-04-12T06:08:53Z</time></trkpt><trkpt lat="45.10331559280504" lon="10.060382276472899"><ele>35.666666666666664</ele><time>2026-04-12T06:08:54Z</time></trkpt><trkpt lat="45.103318366576474" lon="10.060272392346802"><ele>35.5</ele><time>2026-04-12T06:08:55Z</time></trkpt><trkpt lat="45.103319027350146" lon="10.060161393229434"><ele>35.33333333333333</ele><time>2026-04-12T06:08:56Z</time></trkpt><trkpt lat="45.10331938270103" lon="10.060046581926777"><ele>35.166666666666664</ele><time>2026-04-12T06:08:57Z</time></trkpt><trkpt lat="45.10331907961836" lon="10.059935197704634"><ele>35.0</ele><time>2026-04-12T06:08:58Z</time></trkpt><trkpt lat="45.103323296900584" lon="10.059822120901783"><ele>35.0</ele><time>2026-04-12T06:08:59Z</time></trkpt><trkpt lat="45.103329396314486" lon="10.059710971124721"><ele>35.0</ele><time>2026-04-12T06:09:00Z</time></trkpt><trkpt lat="45.10333366687593" lon="10.059598493533901"><ele>35.0</ele><time>2026-04-12T06:09:01Z</time></trkpt><trkpt lat="45.10332862490273" lon="10.059486591836022"><ele>35.0</ele><time>2026-04-12T06:09:02Z</time></trkpt><trkpt lat="45.103312310445446" lon="10.059379109947828"><ele>35.0</ele><time>2026-04-12T06:09:03Z</time></trkpt><trkpt lat="45.1032759943771" lon="10.059278772598748"><ele>35.0</ele><time>2026-04-12T06:09:04Z</time></trkpt><trkpt lat="45.10321897503018" lon="10.059198869196111"><ele>35.166666666666664</ele><time>2026-04-12T06:09:05Z</time></trkpt><trkpt lat="45.10314481018153" lon="10.059146695057583"><ele>35.33333333333333</ele><time>2026-04-12T06:09:06Z</time></trkpt><trkpt lat="45.10306512954103" lon="10.059127227079236"><ele>35.5</ele><time>2026-04-12T06:09:06.999Z</time></trkpt><trkpt lat="45.10299131695548" lon="10.05909248697679"><ele>35.666666666666664</ele><time>2026-04-12T06:09:07.999Z</time></trkpt><trkpt lat="45.10292178511587" lon="10.059077051846561"><ele>35.833333333333336</ele><time>2026-04-12T06:09:08.999Z</time></trkpt><trkpt lat="45.102856788570314" lon="10.059061541859927"><ele>36.0</ele><time>2026-04-12T06:09:09.999Z</time></trkpt><trkpt lat="45.10280656735045" lon="10.058979230298883"><ele>36.166666666666664</ele><time>2026-04-12T06:09:10.999Z</time></trkpt><trkpt lat="45.10277934576397" lon="10.058873160293423"><ele>36.333333333333336</ele><time>2026-04-12T06:09:11.999Z</time></trkpt><trkpt lat="45.10276782730645" lon="10.058759040288273"><ele>36.5</ele><time>2026-04-12T06:09:12.999Z</time></trkpt><trkpt lat="45.102753894968586" lon="10.058651075121098"><ele>36.66666666666667</ele><time>2026-04-12T06:09:13.999Z</time></trkpt><trkpt lat="45.10273672188636" lon="10.058539810593977"><ele>36.833333333333336</ele><time>2026-04-12T06:09:14.999Z</time></trkpt><trkpt lat="45.10271907269812" lon="10.058429837324981"><ele>37.0</ele><time>2026-04-12T06:09:15.999Z</time></trkpt><trkpt lat="45.10270406568115" lon="10.05831847665425"><ele>37.5</ele><time>2026-04-12T06:09:16.999Z</time></trkpt><trkpt lat="45.10268228473727" lon="10.058208812295735"><ele>38.0</ele><time>2026-04-12T06:09:17.999Z</time></trkpt><trkpt lat="45.102656794965995" lon="10.058106096583423"><ele>38.5</ele><time>2026-04-12T06:09:18.999Z</time></trkpt><trkpt lat="45.10263267016518" lon="10.057998430121193"><ele>39.0</ele><time>2026-04-12T06:09:19.999Z</time></trkpt><trkpt lat="45.102603510450315" lon="10.057891906188381"><ele>39.5</ele><time>2026-04-12T06:09:20.999Z</time></trkpt><trkpt lat="45.10257539097224" lon="10.057786012006876"><ele>40.0</ele><time>2026-04-12T06:09:21.999Z</time></trkpt><trkpt lat="45.10254452612068" lon="10.05768402884887"><ele>40.0</ele><time>2026-04-12T06:09:22.999Z</time></trkpt><trkpt lat="45.10252037174328" lon="10.057580851546529"><ele>40.0</ele><time>2026-04-12T06:09:23.999Z</time></trkpt><trkpt lat="45.10249030104498" lon="10.057476917589506"><ele>40.0</ele><time>2026-04-12T06:09:24.999Z</time></trkpt><trkpt lat="45.10245514039057" lon="10.057372679311053"><ele>40.0</ele><time>2026-04-12T06:09:25.999Z</time></trkpt><trkpt lat="45.1024164495386" lon="10.057268176248797"><ele>40.0</ele><time>2026-04-12T06:09:26.999Z</time></trkpt><trkpt lat="45.10238167496652" lon="10.05716510278398"><ele>40.0</ele><time>2026-04-12T06:09:27.999Z</time></trkpt><trkpt lat="45.10234467319331" lon="10.057064104511984"><ele>39.66666666666667</ele><time>2026-04-12T06:09:28.999Z</time></trkpt><trkpt lat="45.10231109520783" lon="10.056959969813269"><ele>39.333333333333336</ele><time>2026-04-12T06:09:29.999Z</time></trkpt><trkpt lat="45.10227723321196" lon="10.056857249166773"><ele>39.0</ele><time>2026-04-12T06:09:30.999Z</time></trkpt><trkpt lat="45.10224334724938" lon="10.056754031266582"><ele>38.666666666666664</ele><time>2026-04-12T06:09:31.999Z</time></trkpt><trkpt lat="45.10220903758097" lon="10.056649852118392"><ele>38.33333333333333</ele><time>2026-04-12T06:09:32.999Z</time></trkpt><trkpt lat="45.10217309247243" lon="10.05654943521254"><ele>38.0</ele><time>2026-04-12T06:09:33.999Z</time></trkpt><trkpt lat="45.10213901587139" lon="10.056446126741923"><ele>37.666666666666664</ele><time>2026-04-12T06:09:34.999Z</time></trkpt><trkpt lat="45.10210436168565" lon="10.056343824122685"><ele>37.33333333333333</ele><time>2026-04-12T06:09:35.999Z</time></trkpt><trkpt lat="45.10207078366665" lon="10.056241779176055"><ele>37.0</ele><time>2026-04-12T06:09:36.999Z</time></trkpt><trkpt lat="45.10203612055449" lon="10.056140400949287"><ele>36.666666666666664</ele><time>2026-04-12T06:09:37.999Z</time></trkpt><trkpt lat="45.10200064621396" lon="10.056035887498005"><ele>36.333333333333336</ele><time>2026-04-12T06:09:38.999Z</time></trkpt><trkpt lat="45.101964578663136" lon="10.055937554073132"><ele>36.0</ele><time>2026-04-12T06:09:39.999Z</time></trkpt><trkpt lat="45.10192768205484" lon="10.055835012361067"><ele>35.666666666666664</ele><time>2026-04-12T06:09:40.999Z</time></trkpt><trkpt lat="45.1018955744754" lon="10.05573118497443"><ele>35.333333333333336</ele><time>2026-04-12T06:09:41.999Z</time></trkpt><trkpt lat="45.10185873084593" lon="10.05562705521867"><ele>35.0</ele><time>2026-04-12T06:09:42.999Z</time></trkpt><trkpt lat="45.1018260665543" lon="10.055524781373913"><ele>34.66666666666667</ele><time>2026-04-12T06:09:43.999Z</time></trkpt><trkpt lat="45.10178937085124" lon="10.055420878657625"><ele>34.333333333333336</ele><time>2026-04-12T06:09:44.999Z</time></trkpt><trkpt lat="45.10175148872292" lon="10.055319227693625"><ele>34.0</ele><time>2026-04-12T06:09:45.999Z</time></trkpt><trkpt lat="45.101714702722084" lon="10.055217606439566"><ele>34.0</ele><time>2026-04-12T06:09:46.999Z</time></trkpt><trkpt lat="45.10167931114599" lon="10.055116322165626"><ele>34.0</ele><time>2026-04-12T06:09:47.999Z</time></trkpt><trkpt lat="45.101645179279686" lon="10.05500974453376"><ele>34.0</ele><time>2026-04-12T06:09:48.999Z</time></trkpt><trkpt lat="45.10161138439707" lon="10.054906255982507"><ele>34.0</ele><time>2026-04-12T06:09:49.999Z</time></trkpt><trkpt lat="45.10157877268982" lon="10.054802618199986"><ele>34.0</ele><time>2026-04-12T06:09:50.999Z</time></trkpt><trkpt lat="45.10154467148833" lon="10.054697166294218"><ele>34.0</ele><time>2026-04-12T06:09:51.999Z</time></trkpt><trkpt lat="45.101511606462566" lon="10.054590717822455"><ele>34.16666666666667</ele><time>2026-04-12T06:09:52.999Z</time></trkpt><trkpt lat="45.10148054133644" lon="10.054486084301505"><ele>34.333333333333336</ele><time>2026-04-12T06:09:53.999Z</time></trkpt><trkpt lat="45.10144867639174" lon="10.054377451219715"><ele>34.5</ele><time>2026-04-12T06:09:54.999Z</time></trkpt><trkpt lat="45.101420486555234" lon="10.054267838620758"><ele>34.666666666666664</ele><time>2026-04-12T06:09:55.999Z</time></trkpt><trkpt lat="45.101395056282755" lon="10.054157381884568"><ele>34.83333333333333</ele><time>2026-04-12T06:09:56.999Z</time></trkpt><trkpt lat="45.101377167977404" lon="10.054043051799855"><ele>35.0</ele><time>2026-04-12T06:09:57.999Z</time></trkpt><trkpt lat="45.10138015652433" lon="10.053926819036446"><ele>35.0</ele><time>2026-04-12T06:09:58.999Z</time></trkpt><trkpt lat="45.101396050515625" lon="10.053812863513196"><ele>35.0</ele><time>2026-04-12T06:09:59.999Z</time></trkpt><trkpt lat="45.10140627804142" lon="10.05369734169359"><ele>35.0</ele><time>2026-04-12T06:10:00.999Z</time></trkpt><trkpt lat="45.10141018710049" lon="10.053582655055363"><ele>35.0</ele><time>2026-04-12T06:10:01.998Z</time></trkpt><trkpt lat="45.10141330611565" lon="10.05346749868833"><ele>35.0</ele><time>2026-04-12T06:10:02.998Z</time></trkpt><trkpt lat="45.10142076478319" lon="10.053350982166224"><ele>35.0</ele><time>2026-04-12T06:10:03.998Z</time></trkpt><trkpt lat="45.10142905729686" lon="10.053236896772141"><ele>35.0</ele><time>2026-04-12T06:10:04.998Z</time></trkpt><trkpt lat="45.10143489559941" lon="10.053122238582029"><ele>35.0</ele><time>2026-04-12T06:10:05.998Z</time></trkpt><trkpt lat="45.10144486654567" lon="10.053008283188678"><ele>35.0</ele><time>2026-04-12T06:10:06.998Z</time></trkpt><trkpt lat="45.10145807991401" lon="10.052892404830752"><ele>35.0</ele><time>2026-04-12T06:10:07.998Z</time></trkpt><trkpt lat="45.101468469558355" lon="10.052775061138915"><ele>35.0</ele><time>2026-04-12T06:10:08.998Z</time></trkpt><trkpt lat="45.10147562214219" lon="10.052659291548757"><ele>35.0</ele><time>2026-04-12T06:10:09.998Z</time></trkpt><trkpt lat="45.1014842340678" lon="10.052543919434758"><ele>35.166666666666664</ele><time>2026-04-12T06:10:10.998Z</time></trkpt><trkpt lat="45.101493496789004" lon="10.052427735861556"><ele>35.33333333333333</ele><time>2026-04-12T06:10:11.998Z</time></trkpt><trkpt lat="45.10150370559842" lon="10.052311187783484"><ele>35.5</ele><time>2026-04-12T06:10:12.998Z</time></trkpt><trkpt lat="45.10151322967866" lon="10.05219514949469"><ele>35.666666666666664</ele><time>2026-04-12T06:10:13.998Z</time></trkpt><trkpt lat="45.10152248991975" lon="10.052078809009458"><ele>35.833333333333336</ele><time>2026-04-12T06:10:14.998Z</time></trkpt><trkpt lat="45.10153123784004" lon="10.051961210881105"><ele>36.0</ele><time>2026-04-12T06:10:15.998Z</time></trkpt><trkpt lat="45.10153992434095" lon="10.051845635088632"><ele>36.0</ele><time>2026-04-12T06:10:16.998Z</time></trkpt><trkpt lat="45.10154609949521" lon="10.051730782014968"><ele>36.0</ele><time>2026-04-12T06:10:17.998Z</time></trkpt><trkpt lat="45.101551773841905" lon="10.051616404094677"><ele>36.0</ele><time>2026-04-12T06:10:18.998Z</time></trkpt><trkpt lat="45.10155880761106" lon="10.051504124899528"><ele>36.0</ele><time>2026-04-12T06:10:19.998Z</time></trkpt><trkpt lat="45.10156609039016" lon="10.051393772112915"><ele>36.0</ele><time>2026-04-12T06:10:20.998Z</time></trkpt><trkpt lat="45.10157366665152" lon="10.05128472328677"><ele>36.0</ele><time>2026-04-12T06:10:21.998Z</time></trkpt><trkpt lat="45.101590103034354" lon="10.051181739465141"><ele>36.166666666666664</ele><time>2026-04-12T06:10:22.998Z</time></trkpt><trkpt lat="45.10162528017763" lon="10.051089874891348"><ele>36.333333333333336</ele><time>2026-04-12T06:10:23.998Z</time></trkpt><trkpt lat="45.10168540029486" lon="10.051026585503767"><ele>36.5</ele><time>2026-04-12T06:10:24.998Z</time></trkpt><trkpt lat="45.10176307102474" lon="10.051018214277123"><ele>36.66666666666667</ele><time>2026-04-12T06:10:25.998Z</time></trkpt><trkpt lat="45.101844226150725" lon="10.051045638308304"><ele>36.833333333333336</ele><time>2026-04-12T06:10:26.998Z</time></trkpt><trkpt lat="45.10192221476245" lon="10.051073716512231"><ele>37.0</ele><time>2026-04-12T06:10:27.998Z</time></trkpt><trkpt lat="45.10200177492142" lon="10.051088901468262"><ele>37.0</ele><time>2026-04-12T06:10:28.998Z</time></trkpt><trkpt lat="45.102083165842224" lon="10.051095279084555"><ele>37.0</ele><time>2026-04-12T06:10:29.998Z</time></trkpt><trkpt lat="45.102164861306605" lon="10.0510991091869"><ele>37.0</ele><time>2026-04-12T06:10:30.998Z</time></trkpt><trkpt lat="45.10224510166666" lon="10.051099845077179"><ele>37.0</ele><time>2026-04-12T06:10:31.998Z</time></trkpt><trkpt lat="45.102326134016266" lon="10.051107348351"><ele>37.0</ele><time>2026-04-12T06:10:32.998Z</time></trkpt><trkpt lat="45.102405497533056" lon="10.051114768243707"><ele>37.0</ele><time>2026-04-12T06:10:33.998Z</time></trkpt><trkpt lat="45.10248819859462" lon="10.051126405196188"><ele>36.66666666666667</ele><time>2026-04-12T06:10:35Z</time></trkpt><trkpt lat="45.10257149260689" lon="10.051134219116198"><ele>36.333333333333336</ele><time>2026-04-12T06:10:36Z</time></trkpt><trkpt lat="45.10265508747143" lon="10.05114178349289"><ele>36.0</ele><time>2026-04-12T06:10:37Z</time></trkpt><trkpt lat="45.10273668440484" lon="10.051152689628534"><ele>35.666666666666664</ele><time>2026-04-12T06:10:38Z</time></trkpt><trkpt lat="45.10282172171649" lon="10.051161649123985"><ele>35.33333333333333</ele><time>2026-04-12T06:10:39Z</time></trkpt><trkpt lat="45.10290474822613" lon="10.051172153287949"><ele>35.0</ele><time>2026-04-12T06:10:40Z</time></trkpt><trkpt lat="45.10298854360144" lon="10.05118225400606"><ele>35.0</ele><time>2026-04-12T06:10:41Z</time></trkpt><trkpt lat="45.10307024971606" lon="10.05119499000719"><ele>35.0</ele><time>2026-04-12T06:10:42Z</time></trkpt><trkpt lat="45.10315128442857" lon="10.051206911090471"><ele>35.0</ele><time>2026-04-12T06:10:43Z</time></trkpt><trkpt lat="45.103233269088975" lon="10.051220942427886"><ele>35.0</ele><time>2026-04-12T06:10:44Z</time></trkpt><trkpt lat="45.10331582880924" lon="10.051235823413124"><ele>35.0</ele><time>2026-04-12T06:10:45Z</time></trkpt><trkpt lat="45.10339714054305" lon="10.051251887225558"><ele>35.0</ele><time>2026-04-12T06:10:46Z</time></trkpt><trkpt lat="45.10347723255399" lon="10.051266671406813"><ele>34.83333333333333</ele><time>2026-04-12T06:10:47Z</time></trkpt><trkpt lat="45.10355632187401" lon="10.051282703395092"><ele>34.666666666666664</ele><time>2026-04-12T06:10:48Z</time></trkpt><trkpt lat="45.10363725347429" lon="10.05129388707569"><ele>34.5</ele><time>2026-04-12T06:10:49Z</time></trkpt><trkpt lat="45.10371760970503" lon="10.051312040113796"><ele>34.333333333333336</ele><time>2026-04-12T06:10:50Z</time></trkpt><trkpt lat="45.10379482766186" lon="10.051326471733892"><ele>34.16666666666667</ele><time>2026-04-12T06:10:51Z</time></trkpt><trkpt lat="45.10388007130967" lon="10.051339738367892"><ele>34.0</ele><time>2026-04-12T06:10:52Z</time></trkpt><trkpt lat="45.10396279282945" lon="10.051350020740628"><ele>34.0</ele><time>2026-04-12T06:10:53Z</time></trkpt><trkpt lat="45.10404108243397" lon="10.051365112345627"><ele>34.0</ele><time>2026-04-12T06:10:54Z</time></trkpt><trkpt lat="45.10412137850624" lon="10.051381881637877"><ele>34.0</ele><time>2026-04-12T06:10:55Z</time></trkpt><trkpt lat="45.104201217332395" lon="10.05140040944343"><ele>34.0</ele><time>2026-04-12T06:10:56Z</time></trkpt><trkpt lat="45.10428254660727" lon="10.05142051532555"><ele>34.0</ele><time>2026-04-12T06:10:57Z</time></trkpt><trkpt lat="45.10436234250468" lon="10.051433897525202"><ele>34.0</ele><time>2026-04-12T06:10:58Z</time></trkpt><trkpt lat="45.10444286956265" lon="10.051450166810321"><ele>33.833333333333336</ele><time>2026-04-12T06:10:59Z</time></trkpt><trkpt lat="45.10452474843868" lon="10.051466892269207"><ele>33.66666666666667</ele><time>2026-04-12T06:11:00Z</time></trkpt><trkpt lat="45.10460347045572" lon="10.051480974843646"><ele>33.5</ele><time>2026-04-12T06:11:01Z</time></trkpt><trkpt lat="45.10468329394248" lon="10.051483046447638"><ele>33.333333333333336</ele><time>2026-04-12T06:11:02Z</time></trkpt><trkpt lat="45.10476378820226" lon="10.05149211791951"><ele>33.166666666666664</ele><time>2026-04-12T06:11:03Z</time></trkpt><trkpt lat="45.104843161075" lon="10.051493382861064"><ele>33.0</ele><time>2026-04-12T06:11:04Z</time></trkpt><trkpt lat="45.10492051188021" lon="10.051494627968387"><ele>33.0</ele><time>2026-04-12T06:11:05Z</time></trkpt><trkpt lat="45.104998622153666" lon="10.051498749184788"><ele>33.0</ele><time>2026-04-12T06:11:06Z</time></trkpt><trkpt lat="45.105073190397164" lon="10.051494613001543"><ele>33.0</ele><time>2026-04-12T06:11:06.999Z</time></trkpt><trkpt lat="45.10514120529925" lon="10.051476969678736"><ele>33.0</ele><time>2026-04-12T06:11:07.999Z</time></trkpt><trkpt lat="45.10519798617495" lon="10.05141750039802"><ele>33.0</ele><time>2026-04-12T06:11:08.999Z</time></trkpt><trkpt lat="45.10525295486479" lon="10.051344537342347"><ele>33.0</ele><time>2026-04-12T06:11:09.999Z</time></trkpt><trkpt lat="45.10524351465821" lon="10.051205039846504"><ele>33.0</ele><time>2026-04-12T06:11:10.999Z</time></trkpt><trkpt lat="45.105239460480576" lon="10.05108944175505"><ele>33.0</ele><time>2026-04-12T06:11:11.999Z</time></trkpt><trkpt lat="45.10523256992485" lon="10.050970179886804"><ele>33.0</ele><time>2026-04-12T06:11:12.999Z</time></trkpt><trkpt lat="45.10522832944717" lon="10.05085076791477"><ele>33.0</ele><time>2026-04-12T06:11:13.999Z</time></trkpt><trkpt lat="45.10522960717437" lon="10.050732802178423"><ele>33.0</ele><time>2026-04-12T06:11:14.999Z</time></trkpt><trkpt lat="45.10522874240795" lon="10.05061267125579"><ele>33.0</ele><time>2026-04-12T06:11:15.999Z</time></trkpt><trkpt lat="45.10522943438672" lon="10.050496608822431"><ele>33.0</ele><time>2026-04-12T06:11:16.999Z</time></trkpt><trkpt lat="45.10523018263791" lon="10.050381335578049"><ele>33.0</ele><time>2026-04-12T06:11:17.999Z</time></trkpt><trkpt lat="45.10523035753024" lon="10.050265577030752"><ele>33.0</ele><time>2026-04-12T06:11:18.999Z</time></trkpt><trkpt lat="45.105230445285635" lon="10.050149209760995"><ele>33.0</ele><time>2026-04-12T06:11:19.999Z</time></trkpt><trkpt lat="45.10523183930805" lon="10.050032811519097"><ele>33.0</ele><time>2026-04-12T06:11:20.999Z</time></trkpt><trkpt lat="45.105233318253184" lon="10.049916361843758"><ele>33.0</ele><time>2026-04-12T06:11:21.999Z</time></trkpt><trkpt lat="45.105233930466945" lon="10.049800242271097"><ele>33.0</ele><time>2026-04-12T06:11:22.999Z</time></trkpt><trkpt lat="45.10523054294564" lon="10.04968317038785"><ele>33.0</ele><time>2026-04-12T06:11:23.999Z</time></trkpt><trkpt lat="45.105224373281196" lon="10.049564862153291"><ele>33.0</ele><time>2026-04-12T06:11:24.999Z</time></trkpt><trkpt lat="45.10522021923221" lon="10.04944865984405"><ele>33.0</ele><time>2026-04-12T06:11:25.999Z</time></trkpt><trkpt lat="45.10521324797492" lon="10.049333427102352"><ele>33.0</ele><time>2026-04-12T06:11:26.999Z</time></trkpt><trkpt lat="45.10520323656805" lon="10.049217832048436"><ele>33.0</ele><time>2026-04-12T06:11:27.999Z</time></trkpt><trkpt lat="45.10519643899893" lon="10.049102321491013"><ele>33.333333333333336</ele><time>2026-04-12T06:11:28.999Z</time></trkpt><trkpt lat="45.1051889671311" lon="10.048985809253931"><ele>33.666666666666664</ele><time>2026-04-12T06:11:29.999Z</time></trkpt><trkpt lat="45.105179820840405" lon="10.048869612068454"><ele>34.0</ele><time>2026-04-12T06:11:30.999Z</time></trkpt><trkpt lat="45.105169117748034" lon="10.048755064896003"><ele>34.33333333333333</ele><time>2026-04-12T06:11:31.999Z</time></trkpt><trkpt lat="45.10515579675646" lon="10.048638811932625"><ele>34.666666666666664</ele><time>2026-04-12T06:11:32.999Z</time></trkpt><trkpt lat="45.10514289307062" lon="10.04852229545194"><ele>35.0</ele><time>2026-04-12T06:11:33.999Z</time></trkpt><trkpt lat="45.1051306510811" lon="10.048406599172981"><ele>35.0</ele><time>2026-04-12T06:11:34.999Z</time></trkpt><trkpt lat="45.10511802865882" lon="10.04829154744955"><ele>35.0</ele><time>2026-04-12T06:11:35.999Z</time></trkpt><trkpt lat="45.10510447051008" lon="10.048174679707946"><ele>35.0</ele><time>2026-04-12T06:11:36.999Z</time></trkpt><trkpt lat="45.10509072520029" lon="10.048061149183079"><ele>35.0</ele><time>2026-04-12T06:11:37.999Z</time></trkpt><trkpt lat="45.105074480772" lon="10.047948316140669"><ele>35.0</ele><time>2026-04-12T06:11:38.999Z</time></trkpt><trkpt lat="45.10505693453501" lon="10.047835370829532"><ele>35.0</ele><time>2026-04-12T06:11:39.999Z</time></trkpt><trkpt lat="45.10503508509873" lon="10.04772647804307"><ele>35.0</ele><time>2026-04-12T06:11:40.999Z</time></trkpt><trkpt lat="45.10500737998054" lon="10.04762125724154"><ele>35.0</ele><time>2026-04-12T06:11:41.999Z</time></trkpt><trkpt lat="45.10498061860126" lon="10.047517325615734"><ele>35.0</ele><time>2026-04-12T06:11:42.999Z</time></trkpt><trkpt lat="45.10495332301198" lon="10.047413939418856"><ele>35.0</ele><time>2026-04-12T06:11:43.999Z</time></trkpt><trkpt lat="45.1049296321046" lon="10.047310003193562"><ele>35.0</ele><time>2026-04-12T06:11:44.999Z</time></trkpt><trkpt lat="45.10490647503414" lon="10.047203454609615"><ele>35.0</ele><time>2026-04-12T06:11:45.999Z</time></trkpt><trkpt lat="45.10488044145082" lon="10.047099339382566"><ele>34.666666666666664</ele><time>2026-04-12T06:11:46.999Z</time></trkpt><trkpt lat="45.10485709110102" lon="10.04698931155194"><ele>34.33333333333333</ele><time>2026-04-12T06:11:47.999Z</time></trkpt><trkpt lat="45.10483331232032" lon="10.046879407049882"><ele>34.0</ele><time>2026-04-12T06:11:48.999Z</time></trkpt><trkpt lat="45.10480926535166" lon="10.04676916452695"><ele>33.666666666666664</ele><time>2026-04-12T06:11:49.999Z</time></trkpt><trkpt lat="45.10478501442668" lon="10.046656477066552"><ele>33.333333333333336</ele><time>2026-04-12T06:11:50.999Z</time></trkpt><trkpt lat="45.10475835498843" lon="10.04654725907064"><ele>33.0</ele><time>2026-04-12T06:11:51.999Z</time></trkpt><trkpt lat="45.10473149765548" lon="10.046437504718988"><ele>33.0</ele><time>2026-04-12T06:11:52.999Z</time></trkpt><trkpt lat="45.10470636872691" lon="10.046325262274193"><ele>33.0</ele><time>2026-04-12T06:11:53.999Z</time></trkpt><trkpt lat="45.104678818710944" lon="10.046214729929353"><ele>33.0</ele><time>2026-04-12T06:11:54.999Z</time></trkpt><trkpt lat="45.1046523880851" lon="10.046104052846433"><ele>33.0</ele><time>2026-04-12T06:11:55.999Z</time></trkpt><trkpt lat="45.104627309702806" lon="10.045993382311229"><ele>33.0</ele><time>2026-04-12T06:11:56.999Z</time></trkpt><trkpt lat="45.10460391578802" lon="10.045883473642176"><ele>33.0</ele><time>2026-04-12T06:11:57.999Z</time></trkpt><trkpt lat="45.1045795255249" lon="10.045772544547985"><ele>33.333333333333336</ele><time>2026-04-12T06:11:58.999Z</time></trkpt><trkpt lat="45.104553944183756" lon="10.045663049954738"><ele>33.666666666666664</ele><time>2026-04-12T06:11:59.998Z</time></trkpt><trkpt lat="45.10452799912233" lon="10.045554949798046"><ele>34.0</ele><time>2026-04-12T06:12:00.998Z</time></trkpt><trkpt lat="45.104502974890764" lon="10.045445463552285"><ele>34.33333333333333</ele><time>2026-04-12T06:12:01.998Z</time></trkpt><trkpt lat="45.10447643686741" lon="10.045337952509698"><ele>34.666666666666664</ele><time>2026-04-12T06:12:02.998Z</time></trkpt><trkpt lat="45.104452603816846" lon="10.045231925426"><ele>35.0</ele><time>2026-04-12T06:12:03.998Z</time></trkpt><trkpt lat="45.10442964259958" lon="10.045122794585975"><ele>35.0</ele><time>2026-04-12T06:12:04.998Z</time></trkpt><trkpt lat="45.10440591670887" lon="10.045015150754946"><ele>35.0</ele><time>2026-04-12T06:12:05.998Z</time></trkpt><trkpt lat="45.104381862960274" lon="10.044908272874888"><ele>35.0</ele><time>2026-04-12T06:12:06.998Z</time></trkpt><trkpt lat="45.10435775726449" lon="10.044803423565194"><ele>35.0</ele><time>2026-04-12T06:12:07.998Z</time></trkpt><trkpt lat="45.10433466264492" lon="10.044698974823875"><ele>35.0</ele><time>2026-04-12T06:12:08.998Z</time></trkpt><trkpt lat="45.10431197203035" lon="10.044597043847942"><ele>35.0</ele><time>2026-04-12T06:12:09.998Z</time></trkpt><trkpt lat="45.10428962916427" lon="10.044492012817473"><ele>35.166666666666664</ele><time>2026-04-12T06:12:10.998Z</time></trkpt><trkpt lat="45.10426436872792" lon="10.044387443756138"><ele>35.33333333333333</ele><time>2026-04-12T06:12:11.998Z</time></trkpt><trkpt lat="45.10423868597724" lon="10.044285544365716"><ele>35.5</ele><time>2026-04-12T06:12:12.998Z</time></trkpt><trkpt lat="45.104212406053875" lon="10.044185914328517"><ele>35.666666666666664</ele><time>2026-04-12T06:12:13.998Z</time></trkpt><trkpt lat="45.10418286653554" lon="10.044089543124812"><ele>35.833333333333336</ele><time>2026-04-12T06:12:14.998Z</time></trkpt><trkpt lat="45.10415244877663" lon="10.043993586156859"><ele>36.0</ele><time>2026-04-12T06:12:15.998Z</time></trkpt><trkpt lat="45.10411957951134" lon="10.043902254639105"><ele>36.0</ele><time>2026-04-12T06:12:16.998Z</time></trkpt><trkpt lat="45.104088321425735" lon="10.043810614749537"><ele>36.0</ele><time>2026-04-12T06:12:17.998Z</time></trkpt><trkpt lat="45.10405682924412" lon="10.043726161438148"><ele>36.0</ele><time>2026-04-12T06:12:18.998Z</time></trkpt><trkpt lat="45.10402468415008" lon="10.043645487860744"><ele>36.0</ele><time>2026-04-12T06:12:19.998Z</time></trkpt><trkpt lat="45.10396371755168" lon="10.043496246529736"><ele>36.0</ele><time>2026-04-12T06:12:21.998Z</time></trkpt><trkpt lat="45.10392285557651" lon="10.043344081636176"><ele>36.0</ele><time>2026-04-12T06:12:23.998Z</time></trkpt><trkpt lat="45.10398272480159" lon="10.04318525923793"><ele>36.00000000000001</ele><time>2026-04-12T06:12:25.998Z</time></trkpt><trkpt lat="45.10402859278563" lon="10.04311916224967"><ele>36.0</ele><time>2026-04-12T06:12:26.998Z</time></trkpt><trkpt lat="45.104073587059574" lon="10.0430562806646"><ele>36.0</ele><time>2026-04-12T06:12:27.998Z</time></trkpt><trkpt lat="45.104118594304005" lon="10.042987818828266"><ele>36.0</ele><time>2026-04-12T06:12:28.998Z</time></trkpt><trkpt lat="45.10416510521156" lon="10.042914266659459"><ele>36.0</ele><time>2026-04-12T06:12:29.998Z</time></trkpt><trkpt lat="45.10420976903795" lon="10.042832954065842"><ele>36.00000000000001</ele><time>2026-04-12T06:12:30.998Z</time></trkpt><trkpt lat="45.104252621586625" lon="10.042753071362636"><ele>36.0</ele><time>2026-04-12T06:12:31.998Z</time></trkpt><trkpt lat="45.104293509387" lon="10.042672971330044"><ele>36.142857142857146</ele><time>2026-04-12T06:12:32.998Z</time></trkpt><trkpt lat="45.10433863873704" lon="10.042598717126463"><ele>36.285714285714285</ele><time>2026-04-12T06:12:33.998Z</time></trkpt><trkpt lat="45.10438257492759" lon="10.042523982638452"><ele>36.42857142857143</ele><time>2026-04-12T06:12:34.998Z</time></trkpt><trkpt lat="45.10443006050555" lon="10.04244499436768"><ele>36.57142857142857</ele><time>2026-04-12T06:12:35.998Z</time></trkpt><trkpt lat="45.104478001556366" lon="10.042363524635372"><ele>36.714285714285715</ele><time>2026-04-12T06:12:36.998Z</time></trkpt><trkpt lat="45.104526043901856" lon="10.04228231455632"><ele>36.85714285714286</ele><time>2026-04-12T06:12:37.998Z</time></trkpt><trkpt lat="45.10457723783473" lon="10.042199495552834"><ele>37.0</ele><time>2026-04-12T06:12:38.998Z</time></trkpt><trkpt lat="45.10462438586833" lon="10.042114177947191"><ele>37.0</ele><time>2026-04-12T06:12:39.998Z</time></trkpt><trkpt lat="45.10467518383378" lon="10.042033066511694"><ele>37.0</ele><time>2026-04-12T06:12:41Z</time></trkpt><trkpt lat="45.10472568518744" lon="10.041951186531183"><ele>37.0</ele><time>2026-04-12T06:12:42Z</time></trkpt><trkpt lat="45.104773588031144" lon="10.041865962621072"><ele>37.0</ele><time>2026-04-12T06:12:43Z</time></trkpt><trkpt lat="45.10481964180876" lon="10.041782069592902"><ele>37.0</ele><time>2026-04-12T06:12:44Z</time></trkpt><trkpt lat="45.10486539487299" lon="10.041696872645238"><ele>37.0</ele><time>2026-04-12T06:12:45Z</time></trkpt><trkpt lat="45.10491127944501" lon="10.041616686617735"><ele>37.142857142857146</ele><time>2026-04-12T06:12:46Z</time></trkpt><trkpt lat="45.10495598275078" lon="10.041541055951289"><ele>37.285714285714285</ele><time>2026-04-12T06:12:47Z</time></trkpt><trkpt lat="45.10500093596261" lon="10.0414700802712"><ele>37.42857142857143</ele><time>2026-04-12T06:12:48Z</time></trkpt><trkpt lat="45.10504025304997" lon="10.04140030343523"><ele>37.57142857142857</ele><time>2026-04-12T06:12:49Z</time></trkpt><trkpt lat="45.10507894810396" lon="10.041329429170618"><ele>37.714285714285715</ele><time>2026-04-12T06:12:50Z</time></trkpt><trkpt lat="45.10512320796694" lon="10.041256813284228"><ele>37.857142857142854</ele><time>2026-04-12T06:12:51Z</time></trkpt><trkpt lat="45.105169914240186" lon="10.041183908280264"><ele>38.0</ele><time>2026-04-12T06:12:52Z</time></trkpt><trkpt lat="45.10523443359277" lon="10.041063824195897"><ele>38.0</ele><time>2026-04-12T06:12:54Z</time></trkpt><trkpt lat="45.105091123634786" lon="10.040940354578108"><ele>38.0</ele><time>2026-04-12T06:12:56Z</time></trkpt><trkpt lat="45.10503163428244" lon="10.040904467296862"><ele>38.0</ele><time>2026-04-12T06:12:57Z</time></trkpt><trkpt lat="45.10496724082389" lon="10.040874950759171"><ele>38.0</ele><time>2026-04-12T06:12:58Z</time></trkpt><trkpt lat="45.10490045987923" lon="10.040850156192024"><ele>38.0</ele><time>2026-04-12T06:12:59Z</time></trkpt><trkpt lat="45.1048302549052" lon="10.040824090276088"><ele>38.0</ele><time>2026-04-12T06:13:00Z</time></trkpt><trkpt lat="45.10475918251702" lon="10.040801510858433"><ele>38.14285714285714</ele><time>2026-04-12T06:13:01Z</time></trkpt><trkpt lat="45.104686810476146" lon="10.040776728531844"><ele>38.28571428571429</ele><time>2026-04-12T06:13:02Z</time></trkpt><trkpt lat="45.104613619585464" lon="10.040751665807646"><ele>38.42857142857143</ele><time>2026-04-12T06:13:03Z</time></trkpt><trkpt lat="45.10454539518596" lon="10.040728264736908"><ele>38.57142857142857</ele><time>2026-04-12T06:13:04Z</time></trkpt><trkpt lat="45.10447535266509" lon="10.040703719093736"><ele>38.71428571428571</ele><time>2026-04-12T06:13:05Z</time></trkpt><trkpt lat="45.104404740190596" lon="10.040678973711044"><ele>38.85714285714286</ele><time>2026-04-12T06:13:06Z</time></trkpt><trkpt lat="45.10433668894586" lon="10.04065512588706"><ele>39.0</ele><time>2026-04-12T06:13:07Z</time></trkpt><trkpt lat="45.10426721264152" lon="10.040630778665616"><ele>39.0</ele><time>2026-04-12T06:13:07.999Z</time></trkpt><trkpt lat="45.10419730358145" lon="10.040606279789802"><ele>39.0</ele><time>2026-04-12T06:13:08.999Z</time></trkpt><trkpt lat="45.10412569423642" lon="10.040581185067248"><ele>39.0</ele><time>2026-04-12T06:13:09.999Z</time></trkpt><trkpt lat="45.1040519368973" lon="10.040556298269658"><ele>39.0</ele><time>2026-04-12T06:13:10.999Z</time></trkpt><trkpt lat="45.10397938892632" lon="10.040531935511517"><ele>39.0</ele><time>2026-04-12T06:13:11.999Z</time></trkpt><trkpt lat="45.10390163328814" lon="10.04052983673022"><ele>39.0</ele><time>2026-04-12T06:13:12.999Z</time></trkpt><trkpt lat="45.103830071500944" lon="10.040498948213402"><ele>39.0</ele><time>2026-04-12T06:13:13.999Z</time></trkpt><trkpt lat="45.10375552854849" lon="10.040472735994598"><ele>38.666666666666664</ele><time>2026-04-12T06:13:14.999Z</time></trkpt><trkpt lat="45.10368118043012" lon="10.040450443341541"><ele>38.333333333333336</ele><time>2026-04-12T06:13:15.999Z</time></trkpt><trkpt lat="45.10360769156077" lon="10.040425032521856"><ele>38.0</ele><time>2026-04-12T06:13:16.999Z</time></trkpt><trkpt lat="45.10353446746931" lon="10.040400621327965"><ele>37.66666666666667</ele><time>2026-04-12T06:13:17.999Z</time></trkpt><trkpt lat="45.103460671683436" lon="10.04037988861101"><ele>37.333333333333336</ele><time>2026-04-12T06:13:18.999Z</time></trkpt><trkpt lat="45.103386218883884" lon="10.040361118584078"><ele>37.0</ele><time>2026-04-12T06:13:19.999Z</time></trkpt><trkpt lat="45.10331645728783" lon="10.040316094448507"><ele>36.66666666666667</ele><time>2026-04-12T06:13:20.999Z</time></trkpt><trkpt lat="45.10324383575221" lon="10.040289440800088"><ele>36.333333333333336</ele><time>2026-04-12T06:13:21.999Z</time></trkpt><trkpt lat="45.10317133238962" lon="10.04026058679206"><ele>36.0</ele><time>2026-04-12T06:13:22.999Z</time></trkpt><trkpt lat="45.10309537577531" lon="10.040248985131308"><ele>35.666666666666664</ele><time>2026-04-12T06:13:23.999Z</time></trkpt><trkpt lat="45.10302269188523" lon="10.04021221698467"><ele>35.33333333333333</ele><time>2026-04-12T06:13:24.999Z</time></trkpt><trkpt lat="45.10295071695759" lon="10.040175783329987"><ele>35.0</ele><time>2026-04-12T06:13:25.999Z</time></trkpt><trkpt lat="45.10287874818481" lon="10.040140745907017"><ele>35.0</ele><time>2026-04-12T06:13:26.999Z</time></trkpt><trkpt lat="45.10280401384441" lon="10.04011144612785"><ele>35.0</ele><time>2026-04-12T06:13:27.999Z</time></trkpt><trkpt lat="45.10272949920919" lon="10.040082893820848"><ele>35.0</ele><time>2026-04-12T06:13:28.999Z</time></trkpt><trkpt lat="45.102655925920075" lon="10.040048059333575"><ele>35.0</ele><time>2026-04-12T06:13:29.999Z</time></trkpt><trkpt lat="45.10258334248923" lon="10.040011848056853"><ele>35.0</ele><time>2026-04-12T06:13:30.999Z</time></trkpt><trkpt lat="45.10250929928106" lon="10.039978746196216"><ele>35.0</ele><time>2026-04-12T06:13:31.999Z</time></trkpt><trkpt lat="45.10243567676754" lon="10.03994603007581"><ele>35.166666666666664</ele><time>2026-04-12T06:13:32.999Z</time></trkpt><trkpt lat="45.1023614940702" lon="10.03990824169025"><ele>35.33333333333333</ele><time>2026-04-12T06:13:33.999Z</time></trkpt><trkpt lat="45.102287327986566" lon="10.039870296878702"><ele>35.5</ele><time>2026-04-12T06:13:34.999Z</time></trkpt><trkpt lat="45.102210803146335" lon="10.039836848080663"><ele>35.666666666666664</ele><time>2026-04-12T06:13:35.999Z</time></trkpt><trkpt lat="45.10213410670299" lon="10.039806101957767"><ele>35.833333333333336</ele><time>2026-04-12T06:13:36.999Z</time></trkpt><trkpt lat="45.102060981012954" lon="10.039764879495538"><ele>36.0</ele><time>2026-04-12T06:13:37.999Z</time></trkpt><trkpt lat="45.10198799032346" lon="10.039721650964987"><ele>36.0</ele><time>2026-04-12T06:13:38.999Z</time></trkpt><trkpt lat="45.10191972099098" lon="10.039675577320226"><ele>36.0</ele><time>2026-04-12T06:13:39.999Z</time></trkpt><trkpt lat="45.10185026184773" lon="10.039623485324237"><ele>36.0</ele><time>2026-04-12T06:13:40.999Z</time></trkpt><trkpt lat="45.101776747059475" lon="10.039584449916422"><ele>36.0</ele><time>2026-04-12T06:13:41.999Z</time></trkpt><trkpt lat="45.10171547208594" lon="10.039536680314818"><ele>36.0</ele><time>2026-04-12T06:13:42.999Z</time></trkpt><trkpt lat="45.101636603296676" lon="10.039490387185985"><ele>36.0</ele><time>2026-04-12T06:13:43.999Z</time></trkpt><trkpt lat="45.10156300035286" lon="10.039445301775084"><ele>36.166666666666664</ele><time>2026-04-12T06:13:44.999Z</time></trkpt><trkpt lat="45.101487380195124" lon="10.039408573162158"><ele>36.333333333333336</ele><time>2026-04-12T06:13:45.999Z</time></trkpt><trkpt lat="45.10141509397577" lon="10.039361075124805"><ele>36.5</ele><time>2026-04-12T06:13:46.999Z</time></trkpt><trkpt lat="45.10134223688206" lon="10.039316061559408"><ele>36.66666666666667</ele><time>2026-04-12T06:13:47.999Z</time></trkpt><trkpt lat="45.101270716691495" lon="10.039268348894364"><ele>36.833333333333336</ele><time>2026-04-12T06:13:48.999Z</time></trkpt><trkpt lat="45.1011974065876" lon="10.039229066152808"><ele>37.0</ele><time>2026-04-12T06:13:49.999Z</time></trkpt><trkpt lat="45.10112424203722" lon="10.039185302053513"><ele>37.0</ele><time>2026-04-12T06:13:50.999Z</time></trkpt><trkpt lat="45.10105302552583" lon="10.039145359417793"><ele>37.0</ele><time>2026-04-12T06:13:51.999Z</time></trkpt><trkpt lat="45.10097954185837" lon="10.039101901445916"><ele>37.0</ele><time>2026-04-12T06:13:52.999Z</time></trkpt><trkpt lat="45.100908541966845" lon="10.039060560679767"><ele>37.0</ele><time>2026-04-12T06:13:53.999Z</time></trkpt><trkpt lat="45.100840365884096" lon="10.039013244743705"><ele>37.0</ele><time>2026-04-12T06:13:54.999Z</time></trkpt><trkpt lat="45.10076647693284" lon="10.038963714251002"><ele>37.0</ele><time>2026-04-12T06:13:55.999Z</time></trkpt><trkpt lat="45.1006968734108" lon="10.038919096012059"><ele>37.16666666666667</ele><time>2026-04-12T06:13:56.999Z</time></trkpt><trkpt lat="45.10062682984852" lon="10.038870066883518"><ele>37.333333333333336</ele><time>2026-04-12T06:13:57.999Z</time></trkpt><trkpt lat="45.10055499414524" lon="10.03882321819714"><ele>37.5</ele><time>2026-04-12T06:13:58.999Z</time></trkpt><trkpt lat="45.10048103698584" lon="10.03878740026703"><ele>37.666666666666664</ele><time>2026-04-12T06:13:59.999Z</time></trkpt><trkpt lat="45.1004082291631" lon="10.038744649273559"><ele>37.83333333333333</ele><time>2026-04-12T06:14:00.998Z</time></trkpt><trkpt lat="45.10034128241783" lon="10.038703802125642"><ele>38.0</ele><time>2026-04-12T06:14:01.998Z</time></trkpt><trkpt lat="45.10027564981075" lon="10.038654992479008"><ele>38.0</ele><time>2026-04-12T06:14:02.998Z</time></trkpt><trkpt lat="45.10021208507877" lon="10.038602423394071"><ele>38.0</ele><time>2026-04-12T06:14:03.998Z</time></trkpt><trkpt lat="45.10014513434872" lon="10.038547323756877"><ele>38.0</ele><time>2026-04-12T06:14:04.998Z</time></trkpt><trkpt lat="45.100074049141185" lon="10.038490406538541"><ele>38.0</ele><time>2026-04-12T06:14:05.998Z</time></trkpt><trkpt lat="45.1000031156633" lon="10.038431198461623"><ele>38.0</ele><time>2026-04-12T06:14:06.998Z</time></trkpt><trkpt lat="45.09993481928383" lon="10.038370600172692"><ele>38.0</ele><time>2026-04-12T06:14:07.998Z</time></trkpt><trkpt lat="45.0998659478217" lon="10.03831006129527"><ele>37.666666666666664</ele><time>2026-04-12T06:14:08.998Z</time></trkpt><trkpt lat="45.09979571938296" lon="10.038253174694638"><ele>37.33333333333333</ele><time>2026-04-12T06:14:09.998Z</time></trkpt><trkpt lat="45.099729401350544" lon="10.03819715781183"><ele>37.0</ele><time>2026-04-12T06:14:10.998Z</time></trkpt><trkpt lat="45.099659867748635" lon="10.038143368160139"><ele>36.666666666666664</ele><time>2026-04-12T06:14:11.998Z</time></trkpt><trkpt lat="45.09959354815765" lon="10.038086153039782"><ele>36.333333333333336</ele><time>2026-04-12T06:14:12.998Z</time></trkpt><trkpt lat="45.09952953636295" lon="10.038021713662898"><ele>36.0</ele><time>2026-04-12T06:14:13.998Z</time></trkpt><trkpt lat="45.0994629513515" lon="10.037966424020109"><ele>36.0</ele><time>2026-04-12T06:14:14.998Z</time></trkpt><trkpt lat="45.0993968292928" lon="10.03791060223581"><ele>36.0</ele><time>2026-04-12T06:14:15.998Z</time></trkpt><trkpt lat="45.099329551922565" lon="10.037857701548337"><ele>36.0</ele><time>2026-04-12T06:14:16.998Z</time></trkpt><trkpt lat="45.09926338895217" lon="10.037800739230823"><ele>36.0</ele><time>2026-04-12T06:14:17.998Z</time></trkpt><trkpt lat="45.099200549961175" lon="10.037739743636472"><ele>36.0</ele><time>2026-04-12T06:14:18.998Z</time></trkpt><trkpt lat="45.09913887589809" lon="10.037675678684906"><ele>36.0</ele><time>2026-04-12T06:14:19.998Z</time></trkpt><trkpt lat="45.09907764301794" lon="10.037609255893438"><ele>35.666666666666664</ele><time>2026-04-12T06:14:20.998Z</time></trkpt><trkpt lat="45.099018696350846" lon="10.037538565042702"><ele>35.333333333333336</ele><time>2026-04-12T06:14:21.998Z</time></trkpt><trkpt lat="45.09896135387498" lon="10.037467671787159"><ele>35.0</ele><time>2026-04-12T06:14:22.998Z</time></trkpt><trkpt lat="45.09890234956445" lon="10.037397417263142"><ele>34.66666666666667</ele><time>2026-04-12T06:14:23.998Z</time></trkpt><trkpt lat="45.09884299498618" lon="10.037325836017125"><ele>34.333333333333336</ele><time>2026-04-12T06:14:24.998Z</time></trkpt><trkpt lat="45.098783843699046" lon="10.037256291550738"><ele>34.0</ele><time>2026-04-12T06:14:25.998Z</time></trkpt><trkpt lat="45.09872346113896" lon="10.03719176108659"><ele>34.0</ele><time>2026-04-12T06:14:26.998Z</time></trkpt><trkpt lat="45.09866329318085" lon="10.037126002498375"><ele>34.0</ele><time>2026-04-12T06:14:27.998Z</time></trkpt><trkpt lat="45.09860375866273" lon="10.037057390501431"><ele>34.0</ele><time>2026-04-12T06:14:28.998Z</time></trkpt><trkpt lat="45.09854562549642" lon="10.036989760968643"><ele>34.0</ele><time>2026-04-12T06:14:29.998Z</time></trkpt><trkpt lat="45.09848673826287" lon="10.03692038519074"><ele>34.0</ele><time>2026-04-12T06:14:30.998Z</time></trkpt><trkpt lat="45.09842875909907" lon="10.036853992252407"><ele>34.0</ele><time>2026-04-12T06:14:31.998Z</time></trkpt><trkpt lat="45.09836733854505" lon="10.036792527408755"><ele>33.99999999999999</ele><time>2026-04-12T06:14:32.998Z</time></trkpt><trkpt lat="45.09830295422765" lon="10.036731647407121"><ele>34.0</ele><time>2026-04-12T06:14:33.998Z</time></trkpt><trkpt lat="45.09823642392944" lon="10.036681993800716"><ele>34.0</ele><time>2026-04-12T06:14:34.998Z</time></trkpt><trkpt lat="45.098171386218375" lon="10.036635913738646"><ele>34.0</ele><time>2026-04-12T06:14:35.998Z</time></trkpt><trkpt lat="45.09810382213108" lon="10.036591222782622"><ele>34.0</ele><time>2026-04-12T06:14:36.998Z</time></trkpt><trkpt lat="45.098035867114106" lon="10.036551966823211"><ele>33.99999999999999</ele><time>2026-04-12T06:14:37.998Z</time></trkpt><trkpt lat="45.09796959322983" lon="10.036515066088178"><ele>34.0</ele><time>2026-04-12T06:14:38.998Z</time></trkpt><trkpt lat="45.097904391781434" lon="10.036474193677646"><ele>34.57142857142857</ele><time>2026-04-12T06:14:39.998Z</time></trkpt><trkpt lat="45.09783758735063" lon="10.03642783542536"><ele>35.14285714285714</ele><time>2026-04-12T06:14:40.998Z</time></trkpt><trkpt lat="45.097777746754936" lon="10.036369008070555"><ele>35.71428571428571</ele><time>2026-04-12T06:14:41.998Z</time></trkpt><trkpt lat="45.097722924516674" lon="10.036297792921667"><ele>36.285714285714285</ele><time>2026-04-12T06:14:42.998Z</time></trkpt><trkpt lat="45.097672054399254" lon="10.036219791683438"><ele>36.85714285714286</ele><time>2026-04-12T06:14:43.998Z</time></trkpt><trkpt lat="45.097619193636575" lon="10.036143787471232"><ele>37.42857142857142</ele><time>2026-04-12T06:14:44.998Z</time></trkpt><trkpt lat="45.097564926874476" lon="10.036072646282262"><ele>38.0</ele><time>2026-04-12T06:14:46Z</time></trkpt><trkpt lat="45.09750934667858" lon="10.036002404551985"><ele>38.0</ele><time>2026-04-12T06:14:47Z</time></trkpt><trkpt lat="45.097458215880266" lon="10.035926545826477"><ele>38.0</ele><time>2026-04-12T06:14:48Z</time></trkpt><trkpt lat="45.09740490304022" lon="10.035848403039068"><ele>38.0</ele><time>2026-04-12T06:14:49Z</time></trkpt><trkpt lat="45.097355254000114" lon="10.035769088211161"><ele>38.0</ele><time>2026-04-12T06:14:50Z</time></trkpt><trkpt lat="45.097307233668154" lon="10.035686677857107"><ele>38.0</ele><time>2026-04-12T06:14:51Z</time></trkpt><trkpt lat="45.09726332107527" lon="10.035605892587386"><ele>38.0</ele><time>2026-04-12T06:14:52Z</time></trkpt><trkpt lat="45.09722442753235" lon="10.035518940654024"><ele>38.0</ele><time>2026-04-12T06:14:53Z</time></trkpt><trkpt lat="45.09719074331913" lon="10.035436961659975"><ele>37.6</ele><time>2026-04-12T06:14:54Z</time></trkpt><trkpt lat="45.09715485536093" lon="10.03535525451121"><ele>37.199999999999996</ele><time>2026-04-12T06:14:55Z</time></trkpt><trkpt lat="45.097089573842275" lon="10.035204378067002"><ele>36.8</ele><time>2026-04-12T06:14:57Z</time></trkpt><trkpt lat="45.09707154067492" lon="10.0350736760943"><ele>36.4</ele><time>2026-04-12T06:14:59Z</time></trkpt><trkpt lat="45.09715952995493" lon="10.034967172216863"><ele>36.0</ele><time>2026-04-12T06:15:02Z</time></trkpt><trkpt lat="45.097270386939094" lon="10.034995044471454"><ele>36.0</ele><time>2026-04-12T06:15:04Z</time></trkpt><trkpt lat="45.09737642704926" lon="10.034971621962443"><ele>36.0</ele><time>2026-04-12T06:15:06Z</time></trkpt><trkpt lat="45.097502845718445" lon="10.034943285093679"><ele>36.0</ele><time>2026-04-12T06:15:08Z</time></trkpt><trkpt lat="45.097571147677655" lon="10.034934609251081"><ele>36.0</ele><time>2026-04-12T06:15:09Z</time></trkpt><trkpt lat="45.09763942483577" lon="10.034927830397278"><ele>36.0</ele><time>2026-04-12T06:15:09.999Z</time></trkpt><trkpt lat="45.097711508259096" lon="10.03491938468497"><ele>36.0</ele><time>2026-04-12T06:15:10.999Z</time></trkpt><trkpt lat="45.097785328087994" lon="10.034907776072073"><ele>36.00000000000001</ele><time>2026-04-12T06:15:11.999Z</time></trkpt><trkpt lat="45.09785451470191" lon="10.03489803195846"><ele>36.0</ele><time>2026-04-12T06:15:12.999Z</time></trkpt><trkpt lat="45.09792305732992" lon="10.034891046665923"><ele>36.0</ele><time>2026-04-12T06:15:13.999Z</time></trkpt><trkpt lat="45.097994078511135" lon="10.0348838651854"><ele>36.0</ele><time>2026-04-12T06:15:14.999Z</time></trkpt><trkpt lat="45.09806473185848" lon="10.03484812542297"><ele>36.0</ele><time>2026-04-12T06:15:15.999Z</time></trkpt><trkpt lat="45.098138578395584" lon="10.034859509957725"><ele>36.00000000000001</ele><time>2026-04-12T06:15:16.999Z</time></trkpt><trkpt lat="45.098211670979836" lon="10.034852323698232"><ele>36.0</ele><time>2026-04-12T06:15:17.999Z</time></trkpt><trkpt lat="45.0982871812789" lon="10.034842171163728"><ele>35.5</ele><time>2026-04-12T06:15:18.999Z</time></trkpt><trkpt lat="45.09836223813447" lon="10.034839297597285"><ele>35.0</ele><time>2026-04-12T06:15:19.999Z</time></trkpt><trkpt lat="45.09843828171197" lon="10.034836204896697"><ele>34.5</ele><time>2026-04-12T06:15:20.999Z</time></trkpt><trkpt lat="45.098509279100895" lon="10.034803336136758"><ele>34.0</ele><time>2026-04-12T06:15:21.999Z</time></trkpt><trkpt lat="45.09858851499806" lon="10.034816476370011"><ele>33.5</ele><time>2026-04-12T06:15:22.999Z</time></trkpt><trkpt lat="45.09866376588278" lon="10.034802727816956"><ele>33.0</ele><time>2026-04-12T06:15:23.999Z</time></trkpt><trkpt lat="45.09873691426664" lon="10.034784797495082"><ele>33.0</ele><time>2026-04-12T06:15:24.999Z</time></trkpt><trkpt lat="45.09881122320014" lon="10.034768734150969"><ele>33.0</ele><time>2026-04-12T06:15:25.999Z</time></trkpt><trkpt lat="45.09888512867767" lon="10.034758247983591"><ele>33.0</ele><time>2026-04-12T06:15:26.999Z</time></trkpt><trkpt lat="45.098960248620834" lon="10.034746878249885"><ele>33.0</ele><time>2026-04-12T06:15:27.999Z</time></trkpt><trkpt lat="45.09903710148192" lon="10.034737199751497"><ele>33.0</ele><time>2026-04-12T06:15:28.999Z</time></trkpt><trkpt lat="45.09911338030648" lon="10.034721997663937"><ele>33.0</ele><time>2026-04-12T06:15:29.999Z</time></trkpt><trkpt lat="45.09918941529875" lon="10.034713663052376"><ele>32.666666666666664</ele><time>2026-04-12T06:15:30.999Z</time></trkpt><trkpt lat="45.099266442264145" lon="10.034704023981634"><ele>32.333333333333336</ele><time>2026-04-12T06:15:31.999Z</time></trkpt><trkpt lat="45.099343708855336" lon="10.034692680305671"><ele>32.0</ele><time>2026-04-12T06:15:32.999Z</time></trkpt><trkpt lat="45.099419482530436" lon="10.034681347930604"><ele>31.666666666666668</ele><time>2026-04-12T06:15:33.999Z</time></trkpt><trkpt lat="45.09949632013599" lon="10.034669310056213"><ele>31.333333333333336</ele><time>2026-04-12T06:15:34.999Z</time></trkpt><trkpt lat="45.0995738019877" lon="10.034657652487986"><ele>31.0</ele><time>2026-04-12T06:15:35.999Z</time></trkpt><trkpt lat="45.09965078619723" lon="10.034641538836366"><ele>31.000000000000004</ele><time>2026-04-12T06:15:36.999Z</time></trkpt><trkpt lat="45.09972693949521" lon="10.034622235763981"><ele>31.0</ele><time>2026-04-12T06:15:37.999Z</time></trkpt><trkpt lat="45.09980168630341" lon="10.034598175860602"><ele>31.0</ele><time>2026-04-12T06:15:38.999Z</time></trkpt><trkpt lat="45.09987652927401" lon="10.03456306589706"><ele>31.0</ele><time>2026-04-12T06:15:39.999Z</time></trkpt><trkpt lat="45.099948351649054" lon="10.034513603999958"><ele>31.000000000000004</ele><time>2026-04-12T06:15:40.999Z</time></trkpt><trkpt lat="45.100017934542954" lon="10.034458070460438"><ele>31.0</ele><time>2026-04-12T06:15:41.999Z</time></trkpt><trkpt lat="45.10009107299007" lon="10.034409533277419"><ele>31.333333333333336</ele><time>2026-04-12T06:15:42.999Z</time></trkpt><trkpt lat="45.10016276150086" lon="10.034366153887133"><ele>31.666666666666668</ele><time>2026-04-12T06:15:43.999Z</time></trkpt><trkpt lat="45.10023602915906" lon="10.034320328655399"><ele>32.0</ele><time>2026-04-12T06:15:44.999Z</time></trkpt><trkpt lat="45.10030887756879" lon="10.034274116039152"><ele>32.333333333333336</ele><time>2026-04-12T06:15:45.999Z</time></trkpt><trkpt lat="45.10038114526107" lon="10.034227454926741"><ele>32.666666666666664</ele><time>2026-04-12T06:15:46.999Z</time></trkpt><trkpt lat="45.100453260250106" lon="10.034180225186361"><ele>33.0</ele><time>2026-04-12T06:15:47.999Z</time></trkpt><trkpt lat="45.10052430879206" lon="10.034135692745545"><ele>33.0</ele><time>2026-04-12T06:15:48.999Z</time></trkpt><trkpt lat="45.100597732960345" lon="10.034089090314376"><ele>33.0</ele><time>2026-04-12T06:15:49.999Z</time></trkpt><trkpt lat="45.10066850092311" lon="10.03404399550387"><ele>33.0</ele><time>2026-04-12T06:15:50.999Z</time></trkpt><trkpt lat="45.10074049282407" lon="10.033999268689513"><ele>33.0</ele><time>2026-04-12T06:15:51.999Z</time></trkpt><trkpt lat="45.10081132349849" lon="10.033952267481371"><ele>33.0</ele><time>2026-04-12T06:15:52.999Z</time></trkpt><trkpt lat="45.100882857272644" lon="10.03390631976061"><ele>33.0</ele><time>2026-04-12T06:15:53.999Z</time></trkpt><trkpt lat="45.10095535898105" lon="10.033864006267809"><ele>33.0</ele><time>2026-04-12T06:15:54.999Z</time></trkpt><trkpt lat="45.10102653876009" lon="10.033821089810282"><ele>33.0</ele><time>2026-04-12T06:15:55.999Z</time></trkpt><trkpt lat="45.10110140725808" lon="10.03377618121869"><ele>33.0</ele><time>2026-04-12T06:15:56.999Z</time></trkpt><trkpt lat="45.10117338422138" lon="10.033730925053604"><ele>33.0</ele><time>2026-04-12T06:15:57.999Z</time></trkpt><trkpt lat="45.10124654223749" lon="10.033686378822086"><ele>33.0</ele><time>2026-04-12T06:15:58.999Z</time></trkpt><trkpt lat="45.10131983111428" lon="10.033643089330981"><ele>33.0</ele><time>2026-04-12T06:15:59.999Z</time></trkpt><trkpt lat="45.10139282660627" lon="10.033598017882234"><ele>33.0</ele><time>2026-04-12T06:16:00.999Z</time></trkpt><trkpt lat="45.10146542438939" lon="10.033554018011886"><ele>33.0</ele><time>2026-04-12T06:16:01.999Z</time></trkpt><trkpt lat="45.10153896905753" lon="10.033506911671754"><ele>33.0</ele><time>2026-04-12T06:16:02.999Z</time></trkpt><trkpt lat="45.101611623867484" lon="10.033462125499621"><ele>33.0</ele><time>2026-04-12T06:16:03.998Z</time></trkpt><trkpt lat="45.101684648423436" lon="10.033417407115266"><ele>33.0</ele><time>2026-04-12T06:16:04.998Z</time></trkpt><trkpt lat="45.10175846322755" lon="10.033371989200875"><ele>33.0</ele><time>2026-04-12T06:16:05.998Z</time></trkpt><trkpt lat="45.101830420452266" lon="10.033327807140664"><ele>33.0</ele><time>2026-04-12T06:16:06.998Z</time></trkpt><trkpt lat="45.101903613794946" lon="10.033282856462517"><ele>33.0</ele><time>2026-04-12T06:16:07.998Z</time></trkpt><trkpt lat="45.10197463288857" lon="10.033234935315503"><ele>33.0</ele><time>2026-04-12T06:16:08.998Z</time></trkpt><trkpt lat="45.102047223524714" lon="10.03318698709573"><ele>33.0</ele><time>2026-04-12T06:16:09.998Z</time></trkpt><trkpt lat="45.10211897119084" lon="10.033135362247501"><ele>33.0</ele><time>2026-04-12T06:16:10.998Z</time></trkpt><trkpt lat="45.10218838044412" lon="10.03307745370494"><ele>33.0</ele><time>2026-04-12T06:16:11.998Z</time></trkpt><trkpt lat="45.10225492987424" lon="10.033015435846071"><ele>33.0</ele><time>2026-04-12T06:16:12.998Z</time></trkpt><trkpt lat="45.102318327182445" lon="10.032942162054495"><ele>33.0</ele><time>2026-04-12T06:16:13.998Z</time></trkpt><trkpt lat="45.10237582397821" lon="10.032860914785818"><ele>33.0</ele><time>2026-04-12T06:16:14.998Z</time></trkpt><trkpt lat="45.10242952253238" lon="10.032777400007456"><ele>33.0</ele><time>2026-04-12T06:16:15.998Z</time></trkpt><trkpt lat="45.10248161019884" lon="10.032691019141064"><ele>33.0</ele><time>2026-04-12T06:16:16.998Z</time></trkpt><trkpt lat="45.1025350489757" lon="10.032603984380138"><ele>33.0</ele><time>2026-04-12T06:16:17.998Z</time></trkpt><trkpt lat="45.102586665252566" lon="10.032519806283482"><ele>33.166666666666664</ele><time>2026-04-12T06:16:18.998Z</time></trkpt><trkpt lat="45.102640747629465" lon="10.032434347985307"><ele>33.333333333333336</ele><time>2026-04-12T06:16:19.998Z</time></trkpt><trkpt lat="45.10269265927382" lon="10.032349420663435"><ele>33.5</ele><time>2026-04-12T06:16:20.998Z</time></trkpt><trkpt lat="45.10274660607585" lon="10.032266327391683"><ele>33.66666666666667</ele><time>2026-04-12T06:16:21.998Z</time></trkpt><trkpt lat="45.10281169083988" lon="10.032196788872996"><ele>33.833333333333336</ele><time>2026-04-12T06:16:22.998Z</time></trkpt><trkpt lat="45.10286425520923" lon="10.032112958579928"><ele>34.0</ele><time>2026-04-12T06:16:23.998Z</time></trkpt><trkpt lat="45.10291616948945" lon="10.032026434425557"><ele>34.0</ele><time>2026-04-12T06:16:24.998Z</time></trkpt><trkpt lat="45.10296524837545" lon="10.031933651585266"><ele>34.0</ele><time>2026-04-12T06:16:25.998Z</time></trkpt><trkpt lat="45.10299973684643" lon="10.031828118721116"><ele>34.0</ele><time>2026-04-12T06:16:26.998Z</time></trkpt><trkpt lat="45.10305358604244" lon="10.03174544838194"><ele>34.0</ele><time>2026-04-12T06:16:27.998Z</time></trkpt><trkpt lat="45.10310916892071" lon="10.031660372363776"><ele>34.0</ele><time>2026-04-12T06:16:28.998Z</time></trkpt><trkpt lat="45.10315814785016" lon="10.031572139199067"><ele>34.0</ele><time>2026-04-12T06:16:29.998Z</time></trkpt><trkpt lat="45.10321099633397" lon="10.031486561375297"><ele>34.333333333333336</ele><time>2026-04-12T06:16:30.998Z</time></trkpt><trkpt lat="45.103261779855494" lon="10.031397064002194"><ele>34.66666666666667</ele><time>2026-04-12T06:16:31.998Z</time></trkpt><trkpt lat="45.10331390575982" lon="10.031304930541323"><ele>35.0</ele><time>2026-04-12T06:16:32.998Z</time></trkpt><trkpt lat="45.10336758909304" lon="10.031210672582052"><ele>35.333333333333336</ele><time>2026-04-12T06:16:33.998Z</time></trkpt><trkpt lat="45.10342138323278" lon="10.03111275420967"><ele>35.666666666666664</ele><time>2026-04-12T06:16:34.998Z</time></trkpt><trkpt lat="45.10347585579885" lon="10.031013850761047"><ele>36.0</ele><time>2026-04-12T06:16:35.998Z</time></trkpt><trkpt lat="45.103534868790625" lon="10.030915126103526"><ele>36.0</ele><time>2026-04-12T06:16:36.998Z</time></trkpt><trkpt lat="45.10360073289899" lon="10.030821917506293"><ele>36.0</ele><time>2026-04-12T06:16:37.998Z</time></trkpt><trkpt lat="45.10368468453557" lon="10.030756618863409"><ele>36.0</ele><time>2026-04-12T06:16:38.998Z</time></trkpt><trkpt lat="45.10376874353679" lon="10.030698530639127"><ele>36.0</ele><time>2026-04-12T06:16:39.998Z</time></trkpt><trkpt lat="45.103852793111905" lon="10.03063139280062"><ele>36.0</ele><time>2026-04-12T06:16:40.998Z</time></trkpt><trkpt lat="45.103941738004565" lon="10.030558749575215"><ele>36.333333333333336</ele><time>2026-04-12T06:16:41.998Z</time></trkpt><trkpt lat="45.10401843015773" lon="10.030488772130946"><ele>36.666666666666664</ele><time>2026-04-12T06:16:42.998Z</time></trkpt><trkpt lat="45.10409536192273" lon="10.030403261454452"><ele>37.0</ele><time>2026-04-12T06:16:43.998Z</time></trkpt><trkpt lat="45.10416046721966" lon="10.030317779695352"><ele>37.33333333333333</ele><time>2026-04-12T06:16:44.998Z</time></trkpt><trkpt lat="45.1042034709842" lon="10.030232352499972"><ele>37.666666666666664</ele><time>2026-04-12T06:16:45.998Z</time></trkpt><trkpt lat="45.104245476964365" lon="10.030135368600648"><ele>38.0</ele><time>2026-04-12T06:16:46.998Z</time></trkpt><trkpt lat="45.10426202147983" lon="10.030023600314907"><ele>38.0</ele><time>2026-04-12T06:16:47.998Z</time></trkpt><trkpt lat="45.10426998246219" lon="10.029909679636312"><ele>38.0</ele><time>2026-04-12T06:16:48.998Z</time></trkpt><trkpt lat="45.10427188307761" lon="10.029798097319361"><ele>38.0</ele><time>2026-04-12T06:16:49.998Z</time></trkpt><trkpt lat="45.10427315241212" lon="10.02969315772453"><ele>38.0</ele><time>2026-04-12T06:16:51Z</time></trkpt><trkpt lat="45.104276516183695" lon="10.029584925851664"><ele>38.0</ele><time>2026-04-12T06:16:52Z</time></trkpt><trkpt lat="45.10428014211523" lon="10.029481341518581"><ele>38.0</ele><time>2026-04-12T06:16:53Z</time></trkpt><trkpt lat="45.10429259908707" lon="10.029379806804133"><ele>38.0</ele><time>2026-04-12T06:16:54Z</time></trkpt><trkpt lat="45.104308665870434" lon="10.029280962582604"><ele>38.0</ele><time>2026-04-12T06:16:55Z</time></trkpt><trkpt lat="45.10432911213893" lon="10.029184142101183"><ele>38.0</ele><time>2026-04-12T06:16:56Z</time></trkpt><trkpt lat="45.10435302839924" lon="10.02909460788434"><ele>38.0</ele><time>2026-04-12T06:16:57Z</time></trkpt><trkpt lat="45.10438380059245" lon="10.029009081748754"><ele>38.0</ele><time>2026-04-12T06:16:58Z</time></trkpt><trkpt lat="45.10442776929851" lon="10.028931222743855"><ele>38.0</ele><time>2026-04-12T06:16:59Z</time></trkpt><trkpt lat="45.104495654157915" lon="10.02889733730551"><ele>38.0</ele><time>2026-04-12T06:17:00Z</time></trkpt><trkpt lat="45.10455982112631" lon="10.028845022131584"><ele>37.83333333333333</ele><time>2026-04-12T06:17:01Z</time></trkpt><trkpt lat="45.10460807670074" lon="10.028750410744918"><ele>37.666666666666664</ele><time>2026-04-12T06:17:02Z</time></trkpt><trkpt lat="45.10467840920038" lon="10.028697090279664"><ele>37.5</ele><time>2026-04-12T06:17:03Z</time></trkpt><trkpt lat="45.10474227435094" lon="10.02864483098374"><ele>37.333333333333336</ele><time>2026-04-12T06:17:04Z</time></trkpt><trkpt lat="45.104823153028555" lon="10.02862986905146"><ele>37.16666666666667</ele><time>2026-04-12T06:17:05Z</time></trkpt><trkpt lat="45.10489175255246" lon="10.028577182596187"><ele>37.0</ele><time>2026-04-12T06:17:06Z</time></trkpt><trkpt lat="45.104962195986836" lon="10.028525958367677"><ele>36.66666666666667</ele><time>2026-04-12T06:17:07Z</time></trkpt><trkpt lat="45.1050334869286" lon="10.028478407325725"><ele>36.333333333333336</ele><time>2026-04-12T06:17:08Z</time></trkpt><trkpt lat="45.105106641519036" lon="10.02843158830865"><ele>36.0</ele><time>2026-04-12T06:17:09Z</time></trkpt><trkpt lat="45.10518011353437" lon="10.028391723537473"><ele>35.666666666666664</ele><time>2026-04-12T06:17:10Z</time></trkpt><trkpt lat="45.105255301614974" lon="10.028349947214053"><ele>35.33333333333333</ele><time>2026-04-12T06:17:11Z</time></trkpt><trkpt lat="45.105330329080175" lon="10.028309683011392"><ele>35.0</ele><time>2026-04-12T06:17:12Z</time></trkpt><trkpt lat="45.10540669309339" lon="10.028268727081974"><ele>34.666666666666664</ele><time>2026-04-12T06:17:12.999Z</time></trkpt><trkpt lat="45.10548174202045" lon="10.028228476482083"><ele>34.33333333333333</ele><time>2026-04-12T06:17:13.999Z</time></trkpt><trkpt lat="45.105547392339496" lon="10.028147558223845"><ele>34.0</ele><time>2026-04-12T06:17:14.999Z</time></trkpt><trkpt lat="45.105625524695526" lon="10.02810959859346"><ele>33.666666666666664</ele><time>2026-04-12T06:17:15.999Z</time></trkpt><trkpt lat="45.105702642473005" lon="10.028072055728114"><ele>33.333333333333336</ele><time>2026-04-12T06:17:16.999Z</time></trkpt><trkpt lat="45.10577917440357" lon="10.028035938982613"><ele>33.0</ele><time>2026-04-12T06:17:17.999Z</time></trkpt><trkpt lat="45.10585693235191" lon="10.028000119531603"><ele>33.0</ele><time>2026-04-12T06:17:18.999Z</time></trkpt><trkpt lat="45.10593400804363" lon="10.027968491464732"><ele>33.0</ele><time>2026-04-12T06:17:19.999Z</time></trkpt><trkpt lat="45.106013592528875" lon="10.027946418511402"><ele>33.0</ele><time>2026-04-12T06:17:20.999Z</time></trkpt><trkpt lat="45.10609405151275" lon="10.02793550507935"><ele>33.0</ele><time>2026-04-12T06:17:21.999Z</time></trkpt><trkpt lat="45.10617687805951" lon="10.027936013792102"><ele>33.0</ele><time>2026-04-12T06:17:22.999Z</time></trkpt><trkpt lat="45.1062595369843" lon="10.027940631229077"><ele>33.0</ele><time>2026-04-12T06:17:23.999Z</time></trkpt><trkpt lat="45.106340091193815" lon="10.02794102762602"><ele>33.0</ele><time>2026-04-12T06:17:24.999Z</time></trkpt><trkpt lat="45.10642224915262" lon="10.027940091182877"><ele>33.0</ele><time>2026-04-12T06:17:25.999Z</time></trkpt><trkpt lat="45.106502254131634" lon="10.027941454186273"><ele>33.0</ele><time>2026-04-12T06:17:26.999Z</time></trkpt><trkpt lat="45.10658179051162" lon="10.027995451010906"><ele>33.0</ele><time>2026-04-12T06:17:27.999Z</time></trkpt><trkpt lat="45.106662265966975" lon="10.027999162562361"><ele>33.0</ele><time>2026-04-12T06:17:28.999Z</time></trkpt><trkpt lat="45.10674357559827" lon="10.028002376838513"><ele>33.0</ele><time>2026-04-12T06:17:29.999Z</time></trkpt><trkpt lat="45.10682440407658" lon="10.028005536961436"><ele>33.333333333333336</ele><time>2026-04-12T06:17:30.999Z</time></trkpt><trkpt lat="45.10690638065054" lon="10.028008741972178"><ele>33.666666666666664</ele><time>2026-04-12T06:17:31.999Z</time></trkpt><trkpt lat="45.10698845663982" lon="10.028011950867977"><ele>34.0</ele><time>2026-04-12T06:17:32.999Z</time></trkpt><trkpt lat="45.107071744137194" lon="10.028015208999271"><ele>34.33333333333333</ele><time>2026-04-12T06:17:33.999Z</time></trkpt><trkpt lat="45.10715408648002" lon="10.02801793957988"><ele>34.666666666666664</ele><time>2026-04-12T06:17:34.999Z</time></trkpt><trkpt lat="45.10723714026207" lon="10.028020644833825"><ele>35.0</ele><time>2026-04-12T06:17:35.999Z</time></trkpt><trkpt lat="45.10732016417039" lon="10.028023349113182"><ele>35.0</ele><time>2026-04-12T06:17:36.999Z</time></trkpt><trkpt lat="45.10740268663552" lon="10.028026037058835"><ele>35.0</ele><time>2026-04-12T06:17:37.999Z</time></trkpt><trkpt lat="45.107483375185204" lon="10.02802821523623"><ele>35.0</ele><time>2026-04-12T06:17:38.999Z</time></trkpt><trkpt lat="45.10756556221933" lon="10.028030403166005"><ele>35.0</ele><time>2026-04-12T06:17:39.999Z</time></trkpt><trkpt lat="45.107646511755725" lon="10.028032558153393"><ele>35.0</ele><time>2026-04-12T06:17:40.999Z</time></trkpt><trkpt lat="45.10772805506562" lon="10.028034728945928"><ele>35.0</ele><time>2026-04-12T06:17:41.999Z</time></trkpt><trkpt lat="45.107811758105164" lon="10.028036957234686"><ele>34.666666666666664</ele><time>2026-04-12T06:17:42.999Z</time></trkpt><trkpt lat="45.10789248220987" lon="10.028039106220374"><ele>34.33333333333333</ele><time>2026-04-12T06:17:43.999Z</time></trkpt><trkpt lat="45.10797368393874" lon="10.028041267918914"><ele>34.0</ele><time>2026-04-12T06:17:44.999Z</time></trkpt><trkpt lat="45.10805500925901" lon="10.028043432909522"><ele>33.666666666666664</ele><time>2026-04-12T06:17:45.999Z</time></trkpt><trkpt lat="45.10813784344145" lon="10.028045299526335"><ele>33.333333333333336</ele><time>2026-04-12T06:17:46.999Z</time></trkpt><trkpt lat="45.10821983801748" lon="10.028046314695"><ele>33.0</ele><time>2026-04-12T06:17:47.999Z</time></trkpt><trkpt lat="45.10830299598" lon="10.028043747637602"><ele>33.0</ele><time>2026-04-12T06:17:48.999Z</time></trkpt><trkpt lat="45.108383877055736" lon="10.028040571450616"><ele>33.0</ele><time>2026-04-12T06:17:49.999Z</time></trkpt><trkpt lat="45.10846976366124" lon="10.028025167152913"><ele>33.0</ele><time>2026-04-12T06:17:50.999Z</time></trkpt><trkpt lat="45.108550465088435" lon="10.02800791747323"><ele>33.0</ele><time>2026-04-12T06:17:51.999Z</time></trkpt><trkpt lat="45.10863244339795" lon="10.0279862230062"><ele>33.0</ele><time>2026-04-12T06:17:52.999Z</time></trkpt><trkpt lat="45.10871536921199" lon="10.02796193074735"><ele>33.0</ele><time>2026-04-12T06:17:53.999Z</time></trkpt><trkpt lat="45.10879485728095" lon="10.027937872046275"><ele>33.0</ele><time>2026-04-12T06:17:54.999Z</time></trkpt><trkpt lat="45.10887582365814" lon="10.027912715432732"><ele>33.0</ele><time>2026-04-12T06:17:55.999Z</time></trkpt><trkpt lat="45.10895586124697" lon="10.02788748666014"><ele>33.0</ele><time>2026-04-12T06:17:56.999Z</time></trkpt><trkpt lat="45.109035573204864" lon="10.02786198249338"><ele>33.0</ele><time>2026-04-12T06:17:57.999Z</time></trkpt><trkpt lat="45.10911675602479" lon="10.027834869186941"><ele>33.0</ele><time>2026-04-12T06:17:58.999Z</time></trkpt><trkpt lat="45.10919621317181" lon="10.027808332223916"><ele>33.0</ele><time>2026-04-12T06:17:59.999Z</time></trkpt><trkpt lat="45.10927389890022" lon="10.027782386858187"><ele>32.833333333333336</ele><time>2026-04-12T06:18:00.999Z</time></trkpt><trkpt lat="45.10935349839163" lon="10.027755802356916"><ele>32.666666666666664</ele><time>2026-04-12T06:18:01.999Z</time></trkpt><trkpt lat="45.10943296400965" lon="10.02772926257395"><ele>32.5</ele><time>2026-04-12T06:18:02.999Z</time></trkpt><trkpt lat="45.10951271620922" lon="10.02770262705671"><ele>32.33333333333333</ele><time>2026-04-12T06:18:03.999Z</time></trkpt><trkpt lat="45.109591936744884" lon="10.027676169122097"><ele>32.166666666666664</ele><time>2026-04-12T06:18:04.999Z</time></trkpt><trkpt lat="45.10967010869112" lon="10.02765006138294"><ele>32.0</ele><time>2026-04-12T06:18:05.998Z</time></trkpt><trkpt lat="45.10974850072568" lon="10.027623880145203"><ele>31.999999999999996</ele><time>2026-04-12T06:18:06.998Z</time></trkpt><trkpt lat="45.109826313124664" lon="10.02759770062723"><ele>32.0</ele><time>2026-04-12T06:18:07.998Z</time></trkpt><trkpt lat="45.10990341202991" lon="10.027571535184613"><ele>32.0</ele><time>2026-04-12T06:18:08.998Z</time></trkpt><trkpt lat="45.10998114672815" lon="10.02754515397409"><ele>32.0</ele><time>2026-04-12T06:18:09.998Z</time></trkpt><trkpt lat="45.11005845589721" lon="10.027518917163624"><ele>31.999999999999996</ele><time>2026-04-12T06:18:10.998Z</time></trkpt><trkpt lat="45.11013637286087" lon="10.027491706927643"><ele>32.0</ele><time>2026-04-12T06:18:11.998Z</time></trkpt><trkpt lat="45.11021175698648" lon="10.027463848405613"><ele>32.166666666666664</ele><time>2026-04-12T06:18:12.998Z</time></trkpt><trkpt lat="45.11028856853483" lon="10.02743546236554"><ele>32.33333333333333</ele><time>2026-04-12T06:18:13.998Z</time></trkpt><trkpt lat="45.110364543178726" lon="10.02740634158728"><ele>32.5</ele><time>2026-04-12T06:18:14.998Z</time></trkpt><trkpt lat="45.11044017413894" lon="10.027376919394838"><ele>32.666666666666664</ele><time>2026-04-12T06:18:15.998Z</time></trkpt><trkpt lat="45.11051747406496" lon="10.027346847932082"><ele>32.833333333333336</ele><time>2026-04-12T06:18:16.998Z</time></trkpt><trkpt lat="45.110593699631885" lon="10.027317194425915"><ele>33.0</ele><time>2026-04-12T06:18:17.998Z</time></trkpt><trkpt lat="45.11067014454486" lon="10.027285284850294"><ele>33.333333333333336</ele><time>2026-04-12T06:18:18.998Z</time></trkpt><trkpt lat="45.110746866438916" lon="10.027250779585705"><ele>33.666666666666664</ele><time>2026-04-12T06:18:19.998Z</time></trkpt><trkpt lat="45.11082370938211" lon="10.027214463944143"><ele>34.0</ele><time>2026-04-12T06:18:20.998Z</time></trkpt><trkpt lat="45.11090029575162" lon="10.02717607890158"><ele>34.33333333333333</ele><time>2026-04-12T06:18:21.998Z</time></trkpt><trkpt lat="45.11097755780738" lon="10.027136282040225"><ele>34.666666666666664</ele><time>2026-04-12T06:18:22.998Z</time></trkpt><trkpt lat="45.111055181900625" lon="10.027095712347053"><ele>35.0</ele><time>2026-04-12T06:18:23.998Z</time></trkpt><trkpt lat="45.11113208067838" lon="10.027055247407976"><ele>35.0</ele><time>2026-04-12T06:18:24.998Z</time></trkpt><trkpt lat="45.111211007353425" lon="10.027013715373565"><ele>35.0</ele><time>2026-04-12T06:18:25.998Z</time></trkpt><trkpt lat="45.11128931404025" lon="10.026972075735882"><ele>35.0</ele><time>2026-04-12T06:18:26.998Z</time></trkpt><trkpt lat="45.11136615496659" lon="10.026930736484225"><ele>35.0</ele><time>2026-04-12T06:18:27.998Z</time></trkpt><trkpt lat="45.11144400044386" lon="10.026888856786446"><ele>35.0</ele><time>2026-04-12T06:18:28.998Z</time></trkpt><trkpt lat="45.111522531603335" lon="10.026846608193296"><ele>35.0</ele><time>2026-04-12T06:18:29.998Z</time></trkpt><trkpt lat="45.11159935382521" lon="10.02680489090287"><ele>34.5</ele><time>2026-04-12T06:18:30.998Z</time></trkpt><trkpt lat="45.11167660358707" lon="10.026762583648049"><ele>34.0</ele><time>2026-04-12T06:18:31.998Z</time></trkpt><trkpt lat="45.11175327654681" lon="10.026720592306113"><ele>33.5</ele><time>2026-04-12T06:18:32.998Z</time></trkpt><trkpt lat="45.111829829339214" lon="10.026678292904542"><ele>33.0</ele><time>2026-04-12T06:18:33.998Z</time></trkpt><trkpt lat="45.11190673107219" lon="10.026635154765328"><ele>32.5</ele><time>2026-04-12T06:18:34.998Z</time></trkpt><trkpt lat="45.11198387346061" lon="10.02659188164389"><ele>32.0</ele><time>2026-04-12T06:18:35.998Z</time></trkpt><trkpt lat="45.1120605128907" lon="10.026548890627389"><ele>31.999999999999996</ele><time>2026-04-12T06:18:36.998Z</time></trkpt><trkpt lat="45.1121370990917" lon="10.026505931347263"><ele>32.0</ele><time>2026-04-12T06:18:37.998Z</time></trkpt><trkpt lat="45.112216108818586" lon="10.026461610740473"><ele>32.0</ele><time>2026-04-12T06:18:38.998Z</time></trkpt><trkpt lat="45.112292148040126" lon="10.026418956311515"><ele>32.0</ele><time>2026-04-12T06:18:39.998Z</time></trkpt><trkpt lat="45.11236874742696" lon="10.02637726792835"><ele>31.999999999999996</ele><time>2026-04-12T06:18:40.998Z</time></trkpt><trkpt lat="45.112446288339456" lon="10.02633535694159"><ele>32.0</ele><time>2026-04-12T06:18:41.998Z</time></trkpt><trkpt lat="45.112523841087416" lon="10.026293700966406"><ele>31.999999999999996</ele><time>2026-04-12T06:18:42.998Z</time></trkpt><trkpt lat="45.112601138102555" lon="10.026254861708725"><ele>32.0</ele><time>2026-04-12T06:18:43.998Z</time></trkpt><trkpt lat="45.112679382724565" lon="10.026219156421208"><ele>32.0</ele><time>2026-04-12T06:18:44.998Z</time></trkpt><trkpt lat="45.112758058031275" lon="10.026188315783125"><ele>32.0</ele><time>2026-04-12T06:18:45.998Z</time></trkpt><trkpt lat="45.11283819054037" lon="10.026157763465587"><ele>31.999999999999996</ele><time>2026-04-12T06:18:46.998Z</time></trkpt><trkpt lat="45.112916347566376" lon="10.026131059452428"><ele>32.0</ele><time>2026-04-12T06:18:47.998Z</time></trkpt><trkpt lat="45.11299734346607" lon="10.026102948333246"><ele>31.999999999999996</ele><time>2026-04-12T06:18:48.998Z</time></trkpt><trkpt lat="45.113076714656195" lon="10.026076591452497"><ele>32.0</ele><time>2026-04-12T06:18:49.998Z</time></trkpt><trkpt lat="45.113156101560264" lon="10.02605056671938"><ele>32.0</ele><time>2026-04-12T06:18:50.998Z</time></trkpt><trkpt lat="45.113234283853345" lon="10.026026411943938"><ele>32.0</ele><time>2026-04-12T06:18:51.998Z</time></trkpt><trkpt lat="45.11331501608851" lon="10.026001425189262"><ele>31.999999999999996</ele><time>2026-04-12T06:18:52.998Z</time></trkpt><trkpt lat="45.113394942386854" lon="10.025977107670986"><ele>32.0</ele><time>2026-04-12T06:18:53.998Z</time></trkpt><trkpt lat="45.11347425763433" lon="10.025953914518855"><ele>32.166666666666664</ele><time>2026-04-12T06:18:54.998Z</time></trkpt><trkpt lat="45.11355445105495" lon="10.025930464598547"><ele>32.33333333333333</ele><time>2026-04-12T06:18:55.998Z</time></trkpt><trkpt lat="45.113630556631456" lon="10.025905692803141"><ele>32.5</ele><time>2026-04-12T06:18:57Z</time></trkpt><trkpt lat="45.113705501806564" lon="10.025879927383073"><ele>32.666666666666664</ele><time>2026-04-12T06:18:58Z</time></trkpt><trkpt lat="45.11378341181625" lon="10.025854476548119"><ele>32.833333333333336</ele><time>2026-04-12T06:18:59Z</time></trkpt><trkpt lat="45.11386457761926" lon="10.025828950210077"><ele>33.0</ele><time>2026-04-12T06:19:00Z</time></trkpt><trkpt lat="45.113946966360416" lon="10.025803039282572"><ele>33.0</ele><time>2026-04-12T06:19:01Z</time></trkpt><trkpt lat="45.114029477711064" lon="10.025777089752935"><ele>33.0</ele><time>2026-04-12T06:19:02Z</time></trkpt><trkpt lat="45.1141112221556" lon="10.025751381420443"><ele>33.0</ele><time>2026-04-12T06:19:03Z</time></trkpt><trkpt lat="45.11419437436002" lon="10.025725230361667"><ele>33.0</ele><time>2026-04-12T06:19:04Z</time></trkpt><trkpt lat="45.1142759335431" lon="10.025699580274853"><ele>33.0</ele><time>2026-04-12T06:19:05Z</time></trkpt><trkpt lat="45.11435766937614" lon="10.025673874677047"><ele>33.0</ele><time>2026-04-12T06:19:06Z</time></trkpt><trkpt lat="45.11444037855178" lon="10.025647862948611"><ele>32.666666666666664</ele><time>2026-04-12T06:19:07Z</time></trkpt><trkpt lat="45.11452240237483" lon="10.02562206675821"><ele>32.333333333333336</ele><time>2026-04-12T06:19:08Z</time></trkpt><trkpt lat="45.11460342972344" lon="10.025596583935334"><ele>32.0</ele><time>2026-04-12T06:19:09Z</time></trkpt><trkpt lat="45.1146853468549" lon="10.025568768648125"><ele>31.666666666666668</ele><time>2026-04-12T06:19:10Z</time></trkpt><trkpt lat="45.11476611925444" lon="10.02553996872793"><ele>31.333333333333336</ele><time>2026-04-12T06:19:11Z</time></trkpt><trkpt lat="45.114846826499374" lon="10.02550990015119"><ele>31.0</ele><time>2026-04-12T06:19:12Z</time></trkpt><trkpt lat="45.11492887883328" lon="10.02547879829433"><ele>31.000000000000004</ele><time>2026-04-12T06:19:13Z</time></trkpt><trkpt lat="45.1150079962034" lon="10.025448281596368"><ele>31.0</ele><time>2026-04-12T06:19:14Z</time></trkpt><trkpt lat="45.115088698201" lon="10.025417153692565"><ele>31.0</ele><time>2026-04-12T06:19:15Z</time></trkpt><trkpt lat="45.11517059232028" lon="10.02538556596307"><ele>31.0</ele><time>2026-04-12T06:19:16Z</time></trkpt><trkpt lat="45.115250112016255" lon="10.025354894062664"><ele>31.000000000000004</ele><time>2026-04-12T06:19:16.999Z</time></trkpt><trkpt lat="45.11533014840673" lon="10.025324022898875"><ele>31.0</ele><time>2026-04-12T06:19:17.999Z</time></trkpt><trkpt lat="45.115412953794845" lon="10.025292083659197"><ele>31.000000000000004</ele><time>2026-04-12T06:19:18.999Z</time></trkpt><trkpt lat="45.11549366385861" lon="10.025259205981955"><ele>31.0</ele><time>2026-04-12T06:19:19.999Z</time></trkpt><trkpt lat="45.115574121343734" lon="10.025224485067495"><ele>31.0</ele><time>2026-04-12T06:19:20.999Z</time></trkpt><trkpt lat="45.11565477533597" lon="10.02518423785227"><ele>31.0</ele><time>2026-04-12T06:19:21.999Z</time></trkpt><trkpt lat="45.11573085246571" lon="10.025124344281817"><ele>31.000000000000004</ele><time>2026-04-12T06:19:22.999Z</time></trkpt><trkpt lat="45.11579017366676" lon="10.025035426796615"><ele>31.0</ele><time>2026-04-12T06:19:23.999Z</time></trkpt><trkpt lat="45.115853241081254" lon="10.024949354612279"><ele>31.166666666666668</ele><time>2026-04-12T06:19:24.999Z</time></trkpt><trkpt lat="45.115904582592336" lon="10.024854774795179"><ele>31.333333333333336</ele><time>2026-04-12T06:19:25.999Z</time></trkpt><trkpt lat="45.11594705276288" lon="10.024749043923158"><ele>31.5</ele><time>2026-04-12T06:19:26.999Z</time></trkpt><trkpt lat="45.11598268913433" lon="10.024638251490032"><ele>31.666666666666664</ele><time>2026-04-12T06:19:27.999Z</time></trkpt><trkpt lat="45.11603678732908" lon="10.024540969354064"><ele>31.833333333333332</ele><time>2026-04-12T06:19:28.999Z</time></trkpt><trkpt lat="45.1160763877358" lon="10.024434366532954"><ele>32.0</ele><time>2026-04-12T06:19:29.999Z</time></trkpt><trkpt lat="45.11611623349065" lon="10.024327102988906"><ele>31.999999999999996</ele><time>2026-04-12T06:19:30.999Z</time></trkpt><trkpt lat="45.11615577931873" lon="10.02422064696322"><ele>32.0</ele><time>2026-04-12T06:19:31.999Z</time></trkpt><trkpt lat="45.11619571101015" lon="10.024113152226205"><ele>32.0</ele><time>2026-04-12T06:19:32.999Z</time></trkpt><trkpt lat="45.11622064400265" lon="10.023998087948216"><ele>32.0</ele><time>2026-04-12T06:19:33.999Z</time></trkpt><trkpt lat="45.11626046183241" lon="10.023890653886351"><ele>31.999999999999996</ele><time>2026-04-12T06:19:34.999Z</time></trkpt><trkpt lat="45.11631410891506" lon="10.023796762579982"><ele>32.0</ele><time>2026-04-12T06:19:35.999Z</time></trkpt><trkpt lat="45.116355150161944" lon="10.023692136243799"><ele>31.999999999999996</ele><time>2026-04-12T06:19:36.999Z</time></trkpt><trkpt lat="45.1163839494768" lon="10.0235779479252"><ele>32.0</ele><time>2026-04-12T06:19:37.999Z</time></trkpt><trkpt lat="45.11642874890109" lon="10.023479147425617"><ele>32.0</ele><time>2026-04-12T06:19:38.999Z</time></trkpt><trkpt lat="45.11647291923845" lon="10.023379159119798"><ele>32.0</ele><time>2026-04-12T06:19:39.999Z</time></trkpt><trkpt lat="45.11653921337603" lon="10.023300447724823"><ele>31.999999999999996</ele><time>2026-04-12T06:19:40.999Z</time></trkpt><trkpt lat="45.11658945550162" lon="10.023208671939333"><ele>32.0</ele><time>2026-04-12T06:19:41.999Z</time></trkpt><trkpt lat="45.116641170419385" lon="10.023115738569121"><ele>32.166666666666664</ele><time>2026-04-12T06:19:42.999Z</time></trkpt><trkpt lat="45.116692423711775" lon="10.023023634792992"><ele>32.33333333333333</ele><time>2026-04-12T06:19:43.999Z</time></trkpt><trkpt lat="45.11672855898926" lon="10.02291198131581"><ele>32.5</ele><time>2026-04-12T06:19:44.999Z</time></trkpt><trkpt lat="45.116794834232095" lon="10.022840271094653"><ele>32.666666666666664</ele><time>2026-04-12T06:19:45.999Z</time></trkpt><trkpt lat="45.11684831387698" lon="10.022748477201139"><ele>32.833333333333336</ele><time>2026-04-12T06:19:46.999Z</time></trkpt><trkpt lat="45.11690327207512" lon="10.022660562750467"><ele>33.0</ele><time>2026-04-12T06:19:47.999Z</time></trkpt><trkpt lat="45.11696000238113" lon="10.022577626787793"><ele>33.0</ele><time>2026-04-12T06:19:48.999Z</time></trkpt><trkpt lat="45.11702107043129" lon="10.022496199185392"><ele>33.0</ele><time>2026-04-12T06:19:49.999Z</time></trkpt><trkpt lat="45.1170836141986" lon="10.022419255892274"><ele>33.0</ele><time>2026-04-12T06:19:50.999Z</time></trkpt><trkpt lat="45.11714946193884" lon="10.022343878964385"><ele>33.0</ele><time>2026-04-12T06:19:51.999Z</time></trkpt><trkpt lat="45.1172151313531" lon="10.02226870614342"><ele>33.0</ele><time>2026-04-12T06:19:52.999Z</time></trkpt><trkpt lat="45.11728075908937" lon="10.022192242702449"><ele>33.0</ele><time>2026-04-12T06:19:53.999Z</time></trkpt><trkpt lat="45.11734583658752" lon="10.022115319825692"><ele>33.0</ele><time>2026-04-12T06:19:54.999Z</time></trkpt><trkpt lat="45.1174112736208" lon="10.022037971960836"><ele>33.0</ele><time>2026-04-12T06:19:55.999Z</time></trkpt><trkpt lat="45.117475649575475" lon="10.021961877981878"><ele>33.0</ele><time>2026-04-12T06:19:56.999Z</time></trkpt><trkpt lat="45.11754037330376" lon="10.021885373281956"><ele>33.0</ele><time>2026-04-12T06:19:57.999Z</time></trkpt><trkpt lat="45.11760529262554" lon="10.021808637547522"><ele>33.0</ele><time>2026-04-12T06:19:58.999Z</time></trkpt><trkpt lat="45.11766948545111" lon="10.021732760329666"><ele>33.0</ele><time>2026-04-12T06:19:59.999Z</time></trkpt><trkpt lat="45.117734578643876" lon="10.021656669728014"><ele>32.833333333333336</ele><time>2026-04-12T06:20:00.999Z</time></trkpt><trkpt lat="45.11779961562894" lon="10.021581207943834"><ele>32.666666666666664</ele><time>2026-04-12T06:20:01.999Z</time></trkpt><trkpt lat="45.11786534838078" lon="10.021505695251967"><ele>32.5</ele><time>2026-04-12T06:20:02.999Z</time></trkpt><trkpt lat="45.1179309211387" lon="10.021430435620442"><ele>32.33333333333333</ele><time>2026-04-12T06:20:03.999Z</time></trkpt><trkpt lat="45.11799537409475" lon="10.021355081684655"><ele>32.166666666666664</ele><time>2026-04-12T06:20:04.999Z</time></trkpt><trkpt lat="45.11806144324989" lon="10.021276321935876"><ele>32.0</ele><time>2026-04-12T06:20:05.999Z</time></trkpt><trkpt lat="45.118124351169804" lon="10.02119922935643"><ele>31.999999999999996</ele><time>2026-04-12T06:20:06.999Z</time></trkpt><trkpt lat="45.118188763887254" lon="10.021119243981145"><ele>32.0</ele><time>2026-04-12T06:20:07.999Z</time></trkpt><trkpt lat="45.118251508990305" lon="10.021039543869227"><ele>32.0</ele><time>2026-04-12T06:20:08.999Z</time></trkpt><trkpt lat="45.11830362949156" lon="10.02094091053189"><ele>32.0</ele><time>2026-04-12T06:20:09.998Z</time></trkpt><trkpt lat="45.118363746597645" lon="10.02085783712638"><ele>31.999999999999996</ele><time>2026-04-12T06:20:10.998Z</time></trkpt><trkpt lat="45.118423364491065" lon="10.020771775419067"><ele>32.0</ele><time>2026-04-12T06:20:11.998Z</time></trkpt><trkpt lat="45.118492337536836" lon="10.020701034175314"><ele>32.166666666666664</ele><time>2026-04-12T06:20:12.998Z</time></trkpt><trkpt lat="45.118551841869916" lon="10.02061386193374"><ele>32.33333333333333</ele><time>2026-04-12T06:20:13.998Z</time></trkpt><trkpt lat="45.118610908793414" lon="10.02052716547971"><ele>32.5</ele><time>2026-04-12T06:20:14.998Z</time></trkpt><trkpt lat="45.11866951468601" lon="10.020441143730991"><ele>32.666666666666664</ele><time>2026-04-12T06:20:15.998Z</time></trkpt><trkpt lat="45.11872861279517" lon="10.020354239328578"><ele>32.833333333333336</ele><time>2026-04-12T06:20:16.998Z</time></trkpt><trkpt lat="45.11878691660523" lon="10.020268503081347"><ele>33.0</ele><time>2026-04-12T06:20:17.998Z</time></trkpt><trkpt lat="45.1188469559489" lon="10.02018021466345"><ele>33.0</ele><time>2026-04-12T06:20:18.998Z</time></trkpt><trkpt lat="45.1189048274786" lon="10.020095114029457"><ele>33.0</ele><time>2026-04-12T06:20:19.998Z</time></trkpt><trkpt lat="45.11896374787339" lon="10.020008471015624"><ele>33.0</ele><time>2026-04-12T06:20:20.998Z</time></trkpt><trkpt lat="45.11902133075962" lon="10.0199213198716"><ele>33.0</ele><time>2026-04-12T06:20:21.998Z</time></trkpt><trkpt lat="45.11907937687755" lon="10.019832717070766"><ele>33.0</ele><time>2026-04-12T06:20:22.998Z</time></trkpt><trkpt lat="45.119123219958716" lon="10.01972970347613"><ele>33.0</ele><time>2026-04-12T06:20:23.998Z</time></trkpt><trkpt lat="45.11918093471023" lon="10.01963972872284"><ele>33.0</ele><time>2026-04-12T06:20:24.998Z</time></trkpt><trkpt lat="45.119245554296064" lon="10.019562653108029"><ele>33.0</ele><time>2026-04-12T06:20:25.998Z</time></trkpt><trkpt lat="45.11928479852662" lon="10.01945282438608"><ele>33.0</ele><time>2026-04-12T06:20:26.998Z</time></trkpt><trkpt lat="45.119344582939874" lon="10.019364500985944"><ele>33.0</ele><time>2026-04-12T06:20:27.998Z</time></trkpt><trkpt lat="45.11939015365577" lon="10.019263610930796"><ele>33.0</ele><time>2026-04-12T06:20:28.998Z</time></trkpt><trkpt lat="45.11943412042667" lon="10.01915913508204"><ele>33.0</ele><time>2026-04-12T06:20:29.998Z</time></trkpt><trkpt lat="45.119461477498675" lon="10.019046715568317"><ele>32.833333333333336</ele><time>2026-04-12T06:20:30.998Z</time></trkpt><trkpt lat="45.11950475701072" lon="10.018942737861911"><ele>32.666666666666664</ele><time>2026-04-12T06:20:31.998Z</time></trkpt><trkpt lat="45.119561300246204" lon="10.018852212607834"><ele>32.5</ele><time>2026-04-12T06:20:32.998Z</time></trkpt><trkpt lat="45.11960412122894" lon="10.018750978698812"><ele>32.33333333333333</ele><time>2026-04-12T06:20:33.998Z</time></trkpt><trkpt lat="45.11964855348875" lon="10.0186459080918"><ele>32.166666666666664</ele><time>2026-04-12T06:20:34.998Z</time></trkpt><trkpt lat="45.11969154978431" lon="10.018544233314174"><ele>32.0</ele><time>2026-04-12T06:20:35.998Z</time></trkpt><trkpt lat="45.11973474864443" lon="10.018442079240055"><ele>31.999999999999996</ele><time>2026-04-12T06:20:36.998Z</time></trkpt><trkpt lat="45.11977767683245" lon="10.018340029542186"><ele>32.0</ele><time>2026-04-12T06:20:37.998Z</time></trkpt><trkpt lat="45.11982177872247" lon="10.018236842500981"><ele>32.0</ele><time>2026-04-12T06:20:38.998Z</time></trkpt><trkpt lat="45.11986560949809" lon="10.018134799014126"><ele>32.0</ele><time>2026-04-12T06:20:39.998Z</time></trkpt><trkpt lat="45.119909521270166" lon="10.018031613573823"><ele>31.999999999999996</ele><time>2026-04-12T06:20:40.998Z</time></trkpt><trkpt lat="45.119952849536084" lon="10.017929799452823"><ele>32.0</ele><time>2026-04-12T06:20:41.998Z</time></trkpt><trkpt lat="45.11999673630499" lon="10.017826672803539"><ele>32.33333333333333</ele><time>2026-04-12T06:20:42.998Z</time></trkpt><trkpt lat="45.12003966521207" lon="10.017725797019054"><ele>32.666666666666664</ele><time>2026-04-12T06:20:43.998Z</time></trkpt><trkpt lat="45.1200831594365" lon="10.01762376196543"><ele>33.0</ele><time>2026-04-12T06:20:44.998Z</time></trkpt><trkpt lat="45.12012675792436" lon="10.01752121351588"><ele>33.333333333333336</ele><time>2026-04-12T06:20:45.998Z</time></trkpt><trkpt lat="45.1201706328776" lon="10.017418014697613"><ele>33.66666666666667</ele><time>2026-04-12T06:20:46.998Z</time></trkpt><trkpt lat="45.12021448003692" lon="10.017314887289938"><ele>34.0</ele><time>2026-04-12T06:20:47.998Z</time></trkpt><trkpt lat="45.12025874026928" lon="10.01721082988609"><ele>34.0</ele><time>2026-04-12T06:20:48.998Z</time></trkpt><trkpt lat="45.12030259351792" lon="10.017107729568185"><ele>34.0</ele><time>2026-04-12T06:20:49.998Z</time></trkpt><trkpt lat="45.12034642103238" lon="10.017004689616611"><ele>34.0</ele><time>2026-04-12T06:20:50.998Z</time></trkpt><trkpt lat="45.12039077202376" lon="10.016900419141434"><ele>34.0</ele><time>2026-04-12T06:20:51.998Z</time></trkpt><trkpt lat="45.1204350991174" lon="10.016798686368888"><ele>34.0</ele><time>2026-04-12T06:20:52.998Z</time></trkpt><trkpt lat="45.12048009178825" lon="10.016696386046748"><ele>34.0</ele><time>2026-04-12T06:20:53.998Z</time></trkpt><trkpt lat="45.12052449211109" lon="10.01659543246668"><ele>33.833333333333336</ele><time>2026-04-12T06:20:54.998Z</time></trkpt><trkpt lat="45.12056955016218" lon="10.016492983451993"><ele>33.66666666666667</ele><time>2026-04-12T06:20:55.998Z</time></trkpt><trkpt lat="45.1206141512227" lon="10.016392592040729"><ele>33.5</ele><time>2026-04-12T06:20:56.998Z</time></trkpt><trkpt lat="45.12066164214482" lon="10.016293981592906"><ele>33.333333333333336</ele><time>2026-04-12T06:20:57.998Z</time></trkpt><trkpt lat="45.12069321189282" lon="10.016178292923474"><ele>33.166666666666664</ele><time>2026-04-12T06:20:58.998Z</time></trkpt><trkpt lat="45.120747459541086" lon="10.016086047989834"><ele>33.0</ele><time>2026-04-12T06:20:59.998Z</time></trkpt><trkpt lat="45.12079920589483" lon="10.015988915255035"><ele>33.0</ele><time>2026-04-12T06:21:00.998Z</time></trkpt><trkpt lat="45.12084997079892" lon="10.015893060515808"><ele>33.0</ele><time>2026-04-12T06:21:01.998Z</time></trkpt><trkpt lat="45.120902316247886" lon="10.01579403454188"><ele>33.0</ele><time>2026-04-12T06:21:03Z</time></trkpt><trkpt lat="45.12095519693648" lon="10.015701462176551"><ele>33.0</ele><time>2026-04-12T06:21:04Z</time></trkpt><trkpt lat="45.12100870804579" lon="10.015607027739847"><ele>33.0</ele><time>2026-04-12T06:21:05Z</time></trkpt><trkpt lat="45.121061875132774" lon="10.015514890855973"><ele>33.0</ele><time>2026-04-12T06:21:06Z</time></trkpt><trkpt lat="45.121115298121936" lon="10.015418648217036"><ele>33.166666666666664</ele><time>2026-04-12T06:21:07Z</time></trkpt><trkpt lat="45.12116714973761" lon="10.015324743815002"><ele>33.333333333333336</ele><time>2026-04-12T06:21:08Z</time></trkpt><trkpt lat="45.12121926201224" lon="10.015231133287745"><ele>33.5</ele><time>2026-04-12T06:21:09Z</time></trkpt><trkpt lat="45.12126972382187" lon="10.015136093620647"><ele>33.66666666666667</ele><time>2026-04-12T06:21:10Z</time></trkpt><trkpt lat="45.12132288619347" lon="10.015039056777624"><ele>33.833333333333336</ele><time>2026-04-12T06:21:11Z</time></trkpt><trkpt lat="45.1213767980998" lon="10.01494872816562"><ele>34.0</ele><time>2026-04-12T06:21:12Z</time></trkpt><trkpt lat="45.121427315099304" lon="10.014855571095987"><ele>34.0</ele><time>2026-04-12T06:21:13Z</time></trkpt><trkpt lat="45.12148375069473" lon="10.01476665310797"><ele>34.0</ele><time>2026-04-12T06:21:14Z</time></trkpt><trkpt lat="45.12154101021054" lon="10.014676636540802"><ele>34.0</ele><time>2026-04-12T06:21:15Z</time></trkpt><trkpt lat="45.12159728830535" lon="10.014587703596385"><ele>34.0</ele><time>2026-04-12T06:21:16Z</time></trkpt><trkpt lat="45.121653445192905" lon="10.014498666311352"><ele>34.0</ele><time>2026-04-12T06:21:17Z</time></trkpt><trkpt lat="45.12171081263183" lon="10.01441183787121"><ele>34.0</ele><time>2026-04-12T06:21:18Z</time></trkpt><trkpt lat="45.12176446987656" lon="10.014320184604587"><ele>33.66666666666667</ele><time>2026-04-12T06:21:19Z</time></trkpt><trkpt lat="45.12181811848934" lon="10.01422769952484"><ele>33.333333333333336</ele><time>2026-04-12T06:21:20Z</time></trkpt><trkpt lat="45.121874649765225" lon="10.014140267857327"><ele>33.0</ele><time>2026-04-12T06:21:20.999Z</time></trkpt><trkpt lat="45.121928406705386" lon="10.014048727339086"><ele>32.666666666666664</ele><time>2026-04-12T06:21:21.999Z</time></trkpt><trkpt lat="45.121984224686784" lon="10.013960030704391"><ele>32.33333333333333</ele><time>2026-04-12T06:21:22.999Z</time></trkpt><trkpt lat="45.122038148064" lon="10.013870967930874"><ele>32.0</ele><time>2026-04-12T06:21:23.999Z</time></trkpt><trkpt lat="45.12209262097786" lon="10.013777684092355"><ele>31.999999999999996</ele><time>2026-04-12T06:21:24.999Z</time></trkpt><trkpt lat="45.122148252098775" lon="10.013689158703311"><ele>32.0</ele><time>2026-04-12T06:21:25.999Z</time></trkpt><trkpt lat="45.122218017810184" lon="10.013616665532698"><ele>32.0</ele><time>2026-04-12T06:21:26.999Z</time></trkpt><trkpt lat="45.122272988061376" lon="10.013528908990462"><ele>32.0</ele><time>2026-04-12T06:21:27.999Z</time></trkpt><trkpt lat="45.12232768261928" lon="10.013441592741145"><ele>31.999999999999996</ele><time>2026-04-12T06:21:28.999Z</time></trkpt><trkpt lat="45.12238474688923" lon="10.013348505434763"><ele>32.0</ele><time>2026-04-12T06:21:29.999Z</time></trkpt><trkpt lat="45.12243806280115" lon="10.013258644774917"><ele>31.833333333333332</ele><time>2026-04-12T06:21:30.999Z</time></trkpt><trkpt lat="45.122491636066606" lon="10.013166431389788"><ele>31.666666666666664</ele><time>2026-04-12T06:21:31.999Z</time></trkpt><trkpt lat="45.122544507904934" lon="10.013069783621678"><ele>31.5</ele><time>2026-04-12T06:21:32.999Z</time></trkpt><trkpt lat="45.12259149211678" lon="10.012969628657867"><ele>31.333333333333336</ele><time>2026-04-12T06:21:33.999Z</time></trkpt><trkpt lat="45.12263418177221" lon="10.012865766790366"><ele>31.166666666666668</ele><time>2026-04-12T06:21:34.999Z</time></trkpt><trkpt lat="45.122677648260506" lon="10.012761340332005"><ele>31.0</ele><time>2026-04-12T06:21:35.999Z</time></trkpt><trkpt lat="45.122719159643566" lon="10.012659465138384"><ele>31.6</ele><time>2026-04-12T06:21:36.999Z</time></trkpt><trkpt lat="45.122798459366884" lon="10.01245464381331"><ele>32.2</ele><time>2026-04-12T06:21:38.999Z</time></trkpt><trkpt lat="45.1228344968169" lon="10.012351563185051"><ele>32.8</ele><time>2026-04-12T06:21:39.999Z</time></trkpt><trkpt lat="45.122868883331016" lon="10.012248584624887"><ele>33.4</ele><time>2026-04-12T06:21:40.999Z</time></trkpt><trkpt lat="45.12290317325573" lon="10.012144449768176"><ele>34.0</ele><time>2026-04-12T06:21:41.999Z</time></trkpt><trkpt lat="45.122936936121725" lon="10.012042646930995"><ele>34.0</ele><time>2026-04-12T06:21:42.999Z</time></trkpt><trkpt lat="45.12297093100695" lon="10.011941005542452"><ele>34.0</ele><time>2026-04-12T06:21:43.999Z</time></trkpt><trkpt lat="45.12300471597168" lon="10.011839991963457"><ele>34.0</ele><time>2026-04-12T06:21:44.999Z</time></trkpt><trkpt lat="45.123038330852026" lon="10.011739487060439"><ele>34.0</ele><time>2026-04-12T06:21:45.999Z</time></trkpt><trkpt lat="45.12307211885062" lon="10.011638471191862"><ele>34.0</ele><time>2026-04-12T06:21:46.999Z</time></trkpt><trkpt lat="45.12310546839026" lon="10.011538862485342"><ele>34.0</ele><time>2026-04-12T06:21:47.999Z</time></trkpt><trkpt lat="45.12313894938092" lon="10.011438903989125"><ele>34.0</ele><time>2026-04-12T06:21:48.999Z</time></trkpt><trkpt lat="45.12317274304471" lon="10.011338056521481"><ele>34.0</ele><time>2026-04-12T06:21:49.999Z</time></trkpt><trkpt lat="45.123206273334574" lon="10.01123799572158"><ele>34.0</ele><time>2026-04-12T06:21:50.999Z</time></trkpt><trkpt lat="45.12323934069462" lon="10.011139315691597"><ele>34.0</ele><time>2026-04-12T06:21:51.999Z</time></trkpt><trkpt lat="45.12325770677825" lon="10.011030399424584"><ele>34.0</ele><time>2026-04-12T06:21:52.999Z</time></trkpt><trkpt lat="45.12330590368418" lon="10.010940678191595"><ele>34.0</ele><time>2026-04-12T06:21:53.999Z</time></trkpt><trkpt lat="45.12333895571512" lon="10.010842043948033"><ele>34.0</ele><time>2026-04-12T06:21:54.999Z</time></trkpt><trkpt lat="45.12335606202756" lon="10.01073611043191"><ele>34.0</ele><time>2026-04-12T06:21:55.999Z</time></trkpt><trkpt lat="45.12339038921849" lon="10.0106411093911"><ele>34.0</ele><time>2026-04-12T06:21:56.999Z</time></trkpt><trkpt lat="45.12342397500036" lon="10.010543879704008"><ele>34.0</ele><time>2026-04-12T06:21:57.999Z</time></trkpt><trkpt lat="45.123456643623946" lon="10.01044827749437"><ele>34.0</ele><time>2026-04-12T06:21:58.999Z</time></trkpt><trkpt lat="45.123488379358626" lon="10.01034879599698"><ele>34.0</ele><time>2026-04-12T06:21:59.999Z</time></trkpt><trkpt lat="45.12353458678127" lon="10.01025738168395"><ele>33.99999999999999</ele><time>2026-04-12T06:22:00.999Z</time></trkpt><trkpt lat="45.12356644364865" lon="10.010161699680808"><ele>34.0</ele><time>2026-04-12T06:22:01.999Z</time></trkpt><trkpt lat="45.12359846899461" lon="10.01006551154488"><ele>34.0</ele><time>2026-04-12T06:22:02.999Z</time></trkpt><trkpt lat="45.12361671527648" lon="10.0099640960596"><ele>34.0</ele><time>2026-04-12T06:22:03.999Z</time></trkpt><trkpt lat="45.12364845028826" lon="10.009874862374685"><ele>34.0</ele><time>2026-04-12T06:22:04.999Z</time></trkpt><trkpt lat="45.12367633610992" lon="10.009784343485036"><ele>33.99999999999999</ele><time>2026-04-12T06:22:05.999Z</time></trkpt><trkpt lat="45.12370549461861" lon="10.00969666089074"><ele>34.0</ele><time>2026-04-12T06:22:06.999Z</time></trkpt><trkpt lat="45.12373546917728" lon="10.009611395454298"><ele>34.0</ele><time>2026-04-12T06:22:07.999Z</time></trkpt><trkpt lat="45.12376331373113" lon="10.009526807096654"><ele>34.0</ele><time>2026-04-12T06:22:08.999Z</time></trkpt><trkpt lat="45.12381011722776" lon="10.009384356118481"><ele>34.0</ele><time>2026-04-12T06:22:10.999Z</time></trkpt><trkpt lat="45.12386852944146" lon="10.009260128732766"><ele>34.0</ele><time>2026-04-12T06:22:12.999Z</time></trkpt><trkpt lat="45.12390018925542" lon="10.009119234576225"><ele>34.0</ele><time>2026-04-12T06:22:14.998Z</time></trkpt><trkpt lat="45.12395435049725" lon="10.008999272906202"><ele>34.0</ele><time>2026-04-12T06:22:16.998Z</time></trkpt><trkpt lat="45.1239950609278" lon="10.00887529288992"><ele>34.0</ele><time>2026-04-12T06:22:18.998Z</time></trkpt><trkpt lat="45.12403774604092" lon="10.00874922763056"><ele>34.0</ele><time>2026-04-12T06:22:20.998Z</time></trkpt><trkpt lat="45.12408472493779" lon="10.008613068934327"><ele>34.0</ele><time>2026-04-12T06:22:22.998Z</time></trkpt><trkpt lat="45.124130636748696" lon="10.008480507692383"><ele>34.0</ele><time>2026-04-12T06:22:24.998Z</time></trkpt><trkpt lat="45.12415124939511" lon="10.008344012534192"><ele>34.6</ele><time>2026-04-12T06:22:26.998Z</time></trkpt><trkpt lat="45.12419324950023" lon="10.008226480502218"><ele>35.2</ele><time>2026-04-12T06:22:28.998Z</time></trkpt><trkpt lat="45.124234209013224" lon="10.008100390218944"><ele>35.800000000000004</ele><time>2026-04-12T06:22:30.998Z</time></trkpt><trkpt lat="45.12427536812937" lon="10.007961368645367"><ele>36.4</ele><time>2026-04-12T06:22:32.998Z</time></trkpt><trkpt lat="45.12434490478273" lon="10.007838690883574"><ele>37.0</ele><time>2026-04-12T06:22:34.998Z</time></trkpt><trkpt lat="45.124372297272615" lon="10.007696734839481"><ele>37.0</ele><time>2026-04-12T06:22:36.998Z</time></trkpt><trkpt lat="45.12441797193749" lon="10.007568578663538"><ele>37.0</ele><time>2026-04-12T06:22:38.998Z</time></trkpt><trkpt lat="45.124457973972596" lon="10.007443030563588"><ele>37.0</ele><time>2026-04-12T06:22:40.998Z</time></trkpt><trkpt lat="45.124498563956465" lon="10.007321275962978"><ele>37.0</ele><time>2026-04-12T06:22:42.998Z</time></trkpt><trkpt lat="45.12453601084827" lon="10.007206263648774"><ele>37.0</ele><time>2026-04-12T06:22:44.998Z</time></trkpt><trkpt lat="45.124563924175035" lon="10.007121386954472"><ele>37.0</ele><time>2026-04-12T06:22:46.998Z</time></trkpt><trkpt lat="45.12461874982768" lon="10.007048999986582"><ele>37.66666666666667</ele><time>2026-04-12T06:24:14.999Z</time></trkpt><trkpt lat="45.12460390848174" lon="10.006956597014614"><ele>38.333333333333336</ele><time>2026-04-12T06:24:18.998Z</time></trkpt><trkpt lat="45.12454892702832" lon="10.006909086568424"><ele>39.0</ele><time>2026-04-12T06:24:20.998Z</time></trkpt><trkpt lat="45.12446951535075" lon="10.00683082100977"><ele>39.666666666666664</ele><time>2026-04-12T06:24:23.998Z</time></trkpt><trkpt lat="45.12440536408748" lon="10.006760005756028"><ele>40.33333333333333</ele><time>2026-04-12T06:24:25.998Z</time></trkpt><trkpt lat="45.12432982440415" lon="10.006675726987092"><ele>41.0</ele><time>2026-04-12T06:24:27.998Z</time></trkpt><trkpt lat="45.12424714811333" lon="10.006580557245561"><ele>41.0</ele><time>2026-04-12T06:24:29.998Z</time></trkpt><trkpt lat="45.124160438550184" lon="10.006500078874451"><ele>41.0</ele><time>2026-04-12T06:24:31.998Z</time></trkpt><trkpt lat="45.124074284625834" lon="10.00639345810891"><ele>41.0</ele><time>2026-04-12T06:24:33.998Z</time></trkpt><trkpt lat="45.12398139439484" lon="10.006296636765011"><ele>41.0</ele><time>2026-04-12T06:24:35.998Z</time></trkpt><trkpt lat="45.12388694700851" lon="10.006200141868172"><ele>41.5</ele><time>2026-04-12T06:24:37.998Z</time></trkpt><trkpt lat="45.12379386596897" lon="10.00609614971852"><ele>42.0</ele><time>2026-04-12T06:24:39.998Z</time></trkpt><trkpt lat="45.12370049182944" lon="10.005994894781312"><ele>42.5</ele><time>2026-04-12T06:24:41.998Z</time></trkpt><trkpt lat="45.123605887824645" lon="10.005894323051972"><ele>43.0</ele><time>2026-04-12T06:24:43.998Z</time></trkpt><trkpt lat="45.12352176470616" lon="10.005793283045968"><ele>43.0</ele><time>2026-04-12T06:24:45.998Z</time></trkpt><trkpt lat="45.12343697128937" lon="10.005698550845464"><ele>43.0</ele><time>2026-04-12T06:24:47.998Z</time></trkpt><trkpt lat="45.12335499601844" lon="10.00560722343097"><ele>43.0</ele><time>2026-04-12T06:24:49.998Z</time></trkpt><trkpt lat="45.12326240457581" lon="10.0055173796192"><ele>43.0</ele><time>2026-04-12T06:24:51.998Z</time></trkpt><trkpt lat="45.123172923708346" lon="10.005425523650045"><ele>43.0</ele><time>2026-04-12T06:24:53.998Z</time></trkpt><trkpt lat="45.12308149989082" lon="10.005337816117006"><ele>42.0</ele><time>2026-04-12T06:24:55.998Z</time></trkpt><trkpt lat="45.1229917362083" lon="10.005271500663689"><ele>41.0</ele><time>2026-04-12T06:24:57.998Z</time></trkpt><trkpt lat="45.12298772532683" lon="10.005110416392364"><ele>40.0</ele><time>2026-04-12T06:24:59.998Z</time></trkpt><trkpt lat="45.12303874012581" lon="10.004997147185437"><ele>39.0</ele><time>2026-04-12T06:25:01.998Z</time></trkpt><trkpt lat="45.123119949910276" lon="10.004911397354231"><ele>38.0</ele><time>2026-04-12T06:25:03.998Z</time></trkpt><trkpt lat="45.12319712054099" lon="10.004809022104919"><ele>38.25</ele><time>2026-04-12T06:25:05.998Z</time></trkpt><trkpt lat="45.12328038108954" lon="10.004706326845477"><ele>38.5</ele><time>2026-04-12T06:25:07.998Z</time></trkpt><trkpt lat="45.12336740338651" lon="10.00459924521312"><ele>38.75</ele><time>2026-04-12T06:25:09.998Z</time></trkpt><trkpt lat="45.12346704285927" lon="10.004506545956753"><ele>39.0</ele><time>2026-04-12T06:25:11.997Z</time></trkpt><trkpt lat="45.12355871108286" lon="10.004405269342069"><ele>39.0</ele><time>2026-04-12T06:25:13.997Z</time></trkpt><trkpt lat="45.12365255034675" lon="10.004294617466346"><ele>39.0</ele><time>2026-04-12T06:25:16Z</time></trkpt><trkpt lat="45.12370931910709" lon="10.004231101061846"><ele>39.0</ele><time>2026-04-12T06:25:17Z</time></trkpt><trkpt lat="45.12379537331765" lon="10.004132661187084"><ele>39.0</ele><time>2026-04-12T06:25:19Z</time></trkpt><trkpt lat="45.123887211550176" lon="10.00402044144374"><ele>39.0</ele><time>2026-04-12T06:25:21Z</time></trkpt><trkpt lat="45.12397703363413" lon="10.003912509089819"><ele>38.4</ele><time>2026-04-12T06:25:23Z</time></trkpt><trkpt lat="45.12407034507751" lon="10.003816193917546"><ele>37.8</ele><time>2026-04-12T06:25:25Z</time></trkpt><trkpt lat="45.124160612757166" lon="10.00370522535853"><ele>37.2</ele><time>2026-04-12T06:25:27Z</time></trkpt><trkpt lat="45.12425140934822" lon="10.003598301532719"><ele>36.6</ele><time>2026-04-12T06:25:28.999Z</time></trkpt><trkpt lat="45.12430070079846" lon="10.00354152376524"><ele>36.0</ele><time>2026-04-12T06:25:29.999Z</time></trkpt><trkpt lat="45.124387244779456" lon="10.003424733216596"><ele>36.0</ele><time>2026-04-12T06:25:31.999Z</time></trkpt><trkpt lat="45.12443120947354" lon="10.003358605408074"><ele>36.0</ele><time>2026-04-12T06:25:32.999Z</time></trkpt><trkpt lat="45.12447376967846" lon="10.003292790878504"><ele>36.0</ele><time>2026-04-12T06:25:33.999Z</time></trkpt><trkpt lat="45.12455578540892" lon="10.003159505627623"><ele>36.0</ele><time>2026-04-12T06:25:35.999Z</time></trkpt><trkpt lat="45.124597886880835" lon="10.003092187163777"><ele>36.0</ele><time>2026-04-12T06:25:36.999Z</time></trkpt><trkpt lat="45.12463944819875" lon="10.003024259570399"><ele>36.0</ele><time>2026-04-12T06:25:37.999Z</time></trkpt><trkpt lat="45.12472037016867" lon="10.002891844735254"><ele>36.4</ele><time>2026-04-12T06:25:39.999Z</time></trkpt><trkpt lat="45.12476323475833" lon="10.002825981567147"><ele>36.8</ele><time>2026-04-12T06:25:40.999Z</time></trkpt><trkpt lat="45.12484334423684" lon="10.002689194551943"><ele>37.199999999999996</ele><time>2026-04-12T06:25:42.999Z</time></trkpt><trkpt lat="45.12492811559709" lon="10.002555849063517"><ele>37.6</ele><time>2026-04-12T06:25:44.999Z</time></trkpt><trkpt lat="45.12501357833126" lon="10.002429672332061"><ele>38.0</ele><time>2026-04-12T06:25:46.999Z</time></trkpt><trkpt lat="45.12510135693367" lon="10.002309482191981"><ele>36.8</ele><time>2026-04-12T06:25:48.999Z</time></trkpt><trkpt lat="45.12515089545747" lon="10.002248025373476"><ele>35.599999999999994</ele><time>2026-04-12T06:25:49.999Z</time></trkpt><trkpt lat="45.12524456645295" lon="10.002134303282993"><ele>34.400000000000006</ele><time>2026-04-12T06:25:52Z</time></trkpt><trkpt lat="45.125337279499995" lon="10.002013747898356"><ele>33.2</ele><time>2026-04-12T06:25:54Z</time></trkpt><trkpt lat="45.12543164916645" lon="10.001902026101606"><ele>32.0</ele><time>2026-04-12T06:25:56Z</time></trkpt><trkpt lat="45.12553063217364" lon="10.001801742285517"><ele>32.0</ele><time>2026-04-12T06:25:58Z</time></trkpt><trkpt lat="45.12562321857257" lon="10.00169402128146"><ele>32.0</ele><time>2026-04-12T06:26:00Z</time></trkpt><trkpt lat="45.12567035927829" lon="10.00163309524515"><ele>32.0</ele><time>2026-04-12T06:26:01Z</time></trkpt><trkpt lat="45.12576395174154" lon="10.001520361690586"><ele>32.0</ele><time>2026-04-12T06:26:03Z</time></trkpt><trkpt lat="45.125861098537705" lon="10.001422047724876"><ele>32.0</ele><time>2026-04-12T06:26:05Z</time></trkpt><trkpt lat="45.12595616215799" lon="10.001317967289925"><ele>31.25</ele><time>2026-04-12T06:26:07Z</time></trkpt><trkpt lat="45.12604574549895" lon="10.001207052858348"><ele>30.5</ele><time>2026-04-12T06:26:09Z</time></trkpt><trkpt lat="45.12613075923942" lon="10.001095547343656"><ele>29.75</ele><time>2026-04-12T06:26:11Z</time></trkpt><trkpt lat="45.12621226239052" lon="10.000987201802928"><ele>29.0</ele><time>2026-04-12T06:26:13Z</time></trkpt><trkpt lat="45.1262925943146" lon="10.000883788535958"><ele>29.0</ele><time>2026-04-12T06:26:15Z</time></trkpt><trkpt lat="45.126372724905785" lon="10.000784901179815"><ele>29.0</ele><time>2026-04-12T06:26:17Z</time></trkpt><trkpt lat="45.12646303980317" lon="10.000691882336122"><ele>29.0</ele><time>2026-04-12T06:26:19Z</time></trkpt><trkpt lat="45.12654921221373" lon="10.000582441719013"><ele>29.0</ele><time>2026-04-12T06:26:21Z</time></trkpt><trkpt lat="45.126644185211774" lon="10.000475712924006"><ele>29.0</ele><time>2026-04-12T06:26:22.999Z</time></trkpt><trkpt lat="45.12674176243398" lon="10.000373616904753"><ele>29.0</ele><time>2026-04-12T06:26:24.999Z</time></trkpt><trkpt lat="45.12684371155231" lon="10.000272976488331"><ele>29.0</ele><time>2026-04-12T06:26:26.999Z</time></trkpt><trkpt lat="45.12694599557064" lon="10.000173503206105"><ele>29.0</ele><time>2026-04-12T06:26:28.999Z</time></trkpt><trkpt lat="45.12705590111709" lon="10.00007696816652"><ele>29.0</ele><time>2026-04-12T06:26:30.999Z</time></trkpt><trkpt lat="45.12716267992385" lon="9.999985066932535"><ele>29.0</ele><time>2026-04-12T06:26:32.999Z</time></trkpt><trkpt lat="45.12727396219137" lon="9.999912928002338"><ele>29.0</ele><time>2026-04-12T06:26:34.999Z</time></trkpt><trkpt lat="45.127386040232636" lon="9.999845236675228"><ele>29.0</ele><time>2026-04-12T06:26:36.999Z</time></trkpt><trkpt lat="45.12750245914405" lon="9.999798514242766"><ele>31.0</ele><time>2026-04-12T06:26:38.999Z</time></trkpt><trkpt lat="45.127624752379326" lon="9.999789928171964"><ele>33.0</ele><time>2026-04-12T06:26:40.999Z</time></trkpt><trkpt lat="45.12774159569937" lon="9.999836998409744"><ele>35.0</ele><time>2026-04-12T06:26:42.999Z</time></trkpt><trkpt lat="45.12785477932887" lon="9.999913284651527"><ele>37.0</ele><time>2026-04-12T06:26:44.999Z</time></trkpt><trkpt lat="45.12791225159664" lon="9.999953580312885"><ele>39.0</ele><time>2026-04-12T06:26:45.999Z</time></trkpt><trkpt lat="45.12796824695403" lon="9.999994582136479"><ele>39.0</ele><time>2026-04-12T06:26:46.999Z</time></trkpt><trkpt lat="45.128025241508375" lon="10.00003556600343"><ele>39.0</ele><time>2026-04-12T06:26:47.999Z</time></trkpt><trkpt lat="45.12808234395065" lon="10.000074669558385"><ele>39.0</ele><time>2026-04-12T06:26:48.999Z</time></trkpt><trkpt lat="45.128139814063125" lon="10.000113797907643"><ele>39.0</ele><time>2026-04-12T06:26:49.999Z</time></trkpt><trkpt lat="45.12819760766239" lon="10.000152100015766"><ele>39.0</ele><time>2026-04-12T06:26:50.999Z</time></trkpt><trkpt lat="45.12830899212175" lon="10.000235322172879"><ele>39.0</ele><time>2026-04-12T06:26:52.999Z</time></trkpt><trkpt lat="45.12842138749819" lon="10.000314652454993"><ele>39.0</ele><time>2026-04-12T06:26:54.999Z</time></trkpt><trkpt lat="45.12853385014069" lon="10.000394310917779"><ele>39.0</ele><time>2026-04-12T06:26:56.999Z</time></trkpt><trkpt lat="45.12859134737518" lon="10.00043155927645"><ele>39.0</ele><time>2026-04-12T06:26:57.999Z</time></trkpt><trkpt lat="45.12870212081439" lon="10.000507518484634"><ele>39.0</ele><time>2026-04-12T06:26:59.999Z</time></trkpt><trkpt lat="45.12881190845783" lon="10.000585173092174"><ele>39.0</ele><time>2026-04-12T06:27:01.999Z</time></trkpt><trkpt lat="45.12892040419357" lon="10.000661140903468"><ele>39.0</ele><time>2026-04-12T06:27:03.999Z</time></trkpt><trkpt lat="45.12902988340107" lon="10.000736426166599"><ele>39.0</ele><time>2026-04-12T06:27:05.999Z</time></trkpt><trkpt lat="45.12913631730882" lon="10.000811038655785"><ele>39.0</ele><time>2026-04-12T06:27:07.999Z</time></trkpt><trkpt lat="45.12924286420656" lon="10.000879922348506"><ele>39.0</ele><time>2026-04-12T06:27:09.999Z</time></trkpt><trkpt lat="45.12934653002555" lon="10.000950525961056"><ele>39.0</ele><time>2026-04-12T06:27:11.999Z</time></trkpt><trkpt lat="45.1294459318237" lon="10.0010206651704"><ele>39.0</ele><time>2026-04-12T06:27:13.999Z</time></trkpt><trkpt lat="45.12954099134659" lon="10.001087549394306"><ele>39.0</ele><time>2026-04-12T06:27:15.998Z</time></trkpt><trkpt lat="45.12963242812856" lon="10.00114875525763"><ele>39.0</ele><time>2026-04-12T06:27:17.998Z</time></trkpt><trkpt lat="45.12971686989615" lon="10.001216665189487"><ele>39.0</ele><time>2026-04-12T06:27:19.998Z</time></trkpt><trkpt lat="45.12980140646207" lon="10.001277337236605"><ele>39.0</ele><time>2026-04-12T06:27:22.001Z</time></trkpt><trkpt lat="45.129882463719824" lon="10.001328878163452"><ele>39.0</ele><time>2026-04-12T06:27:24Z</time></trkpt><trkpt lat="45.12994857624027" lon="10.00138618883171"><ele>39.0</ele><time>2026-04-12T06:27:26Z</time></trkpt><trkpt lat="45.13000921896157" lon="10.001416440784732"><ele>39.0</ele><time>2026-04-12T06:27:28Z</time></trkpt><trkpt lat="45.130083704660166" lon="10.001356338825975"><ele>39.0</ele><time>2026-04-12T06:31:07.999Z</time></trkpt><trkpt lat="45.130150521674025" lon="10.00129579052653"><ele>39.0</ele><time>2026-04-12T06:31:09.999Z</time></trkpt><trkpt lat="45.13020751998145" lon="10.001228669720726"><ele>39.2</ele><time>2026-04-12T06:31:11.999Z</time></trkpt><trkpt lat="45.130250941543295" lon="10.001120863560235"><ele>39.4</ele><time>2026-04-12T06:31:13.999Z</time></trkpt><trkpt lat="45.13029789309027" lon="10.001002974240887"><ele>39.6</ele><time>2026-04-12T06:31:15.999Z</time></trkpt><trkpt lat="45.130346046551665" lon="10.000888461370698"><ele>39.8</ele><time>2026-04-12T06:31:17.999Z</time></trkpt><trkpt lat="45.13038597424974" lon="10.000768940889223"><ele>40.0</ele><time>2026-04-12T06:31:19.999Z</time></trkpt><trkpt lat="45.13042168040832" lon="10.00064495387462"><ele>40.2</ele><time>2026-04-12T06:31:21.999Z</time></trkpt><trkpt lat="45.1304418702758" lon="10.000514512055977"><ele>40.4</ele><time>2026-04-12T06:31:23.998Z</time></trkpt><trkpt lat="45.130449565143394" lon="10.000382037969713"><ele>40.599999999999994</ele><time>2026-04-12T06:31:25.998Z</time></trkpt><trkpt lat="45.130446823299344" lon="10.000246653198516"><ele>40.8</ele><time>2026-04-12T06:31:27.998Z</time></trkpt><trkpt lat="45.130428665669996" lon="10.000110010107544"><ele>41.0</ele><time>2026-04-12T06:31:29.998Z</time></trkpt><trkpt lat="45.1304155937851" lon="9.999973889371427"><ele>41.0</ele><time>2026-04-12T06:31:31.998Z</time></trkpt><trkpt lat="45.130400010919494" lon="9.999835238674693"><ele>41.0</ele><time>2026-04-12T06:31:34Z</time></trkpt><trkpt lat="45.13038324813913" lon="9.999691310112183"><ele>41.0</ele><time>2026-04-12T06:31:36Z</time></trkpt><trkpt lat="45.130414795261785" lon="9.999539838091664"><ele>41.0</ele><time>2026-04-12T06:31:38Z</time></trkpt><trkpt lat="45.13039883783005" lon="9.99939328538876"><ele>41.0</ele><time>2026-04-12T06:31:40Z</time></trkpt><trkpt lat="45.1303375402105" lon="9.999256779570423"><ele>41.0</ele><time>2026-04-12T06:31:42Z</time></trkpt><trkpt lat="45.13031860509317" lon="9.999109707018466"><ele>41.0</ele><time>2026-04-12T06:31:44Z</time></trkpt><trkpt lat="45.13029985461196" lon="9.998963055007367"><ele>41.0</ele><time>2026-04-12T06:31:46Z</time></trkpt><trkpt lat="45.13028297229395" lon="9.998813750997385"><ele>41.0</ele><time>2026-04-12T06:31:48Z</time></trkpt><trkpt lat="45.13026894987604" lon="9.998665717011816"><ele>41.0</ele><time>2026-04-12T06:31:50Z</time></trkpt><trkpt lat="45.13031021730553" lon="9.99858123392773"><ele>41.0</ele><time>2026-04-12T06:31:51Z</time></trkpt><trkpt lat="45.130293581586926" lon="9.998427898489405"><ele>41.0</ele><time>2026-04-12T06:31:53Z</time></trkpt><trkpt lat="45.13027669726185" lon="9.998272473606649"><ele>41.0</ele><time>2026-04-12T06:31:55Z</time></trkpt><trkpt lat="45.13026007406838" lon="9.998119452480758"><ele>41.0</ele><time>2026-04-12T06:31:57Z</time></trkpt><trkpt lat="45.130243662251814" lon="9.997968279001334"><ele>41.0</ele><time>2026-04-12T06:31:59Z</time></trkpt><trkpt lat="45.1302272010228" lon="9.99781612575763"><ele>40.8</ele><time>2026-04-12T06:32:01Z</time></trkpt><trkpt lat="45.13021015605338" lon="9.997658576920685"><ele>40.599999999999994</ele><time>2026-04-12T06:32:03Z</time></trkpt><trkpt lat="45.130193187532896" lon="9.997501427975944"><ele>40.4</ele><time>2026-04-12T06:32:05Z</time></trkpt><trkpt lat="45.13017658548942" lon="9.997347090461716"><ele>40.2</ele><time>2026-04-12T06:32:07Z</time></trkpt><trkpt lat="45.1301604801997" lon="9.997197370920214"><ele>40.0</ele><time>2026-04-12T06:32:09Z</time></trkpt><trkpt lat="45.130079274654214" lon="9.997057234791184"><ele>40.0</ele><time>2026-04-12T06:32:11Z</time></trkpt><trkpt lat="45.130057864533974" lon="9.996896215756502"><ele>40.0</ele><time>2026-04-12T06:32:13Z</time></trkpt><trkpt lat="45.13003805646472" lon="9.996738437676028"><ele>40.0</ele><time>2026-04-12T06:32:15Z</time></trkpt><trkpt lat="45.13001613125097" lon="9.99658129862104"><ele>40.0</ele><time>2026-04-12T06:32:17Z</time></trkpt><trkpt lat="45.1299894211657" lon="9.996421687864267"><ele>39.6</ele><time>2026-04-12T06:32:19Z</time></trkpt><trkpt lat="45.12993988484669" lon="9.996277533099128"><ele>39.2</ele><time>2026-04-12T06:32:21Z</time></trkpt><trkpt lat="45.12987524558143" lon="9.996150990554401"><ele>38.8</ele><time>2026-04-12T06:32:23Z</time></trkpt><trkpt lat="45.12980482689445" lon="9.99603838107672"><ele>38.4</ele><time>2026-04-12T06:32:25Z</time></trkpt><trkpt lat="45.129718316617414" lon="9.995951842596499"><ele>38.0</ele><time>2026-04-12T06:32:27Z</time></trkpt><trkpt lat="45.12963199267107" lon="9.995885665041666"><ele>37.4</ele><time>2026-04-12T06:32:29Z</time></trkpt><trkpt lat="45.12954460227078" lon="9.995814187538217"><ele>36.8</ele><time>2026-04-12T06:32:31Z</time></trkpt><trkpt lat="45.129448453967676" lon="9.995735906124493"><ele>36.2</ele><time>2026-04-12T06:32:33Z</time></trkpt><trkpt lat="45.129435692890226" lon="9.995606515882821"><ele>35.6</ele><time>2026-04-12T06:32:34Z</time></trkpt><trkpt lat="45.1293388164133" lon="9.995523433905834"><ele>35.0</ele><time>2026-04-12T06:32:35.999Z</time></trkpt><trkpt lat="45.12924070022525" lon="9.995439288733287"><ele>35.0</ele><time>2026-04-12T06:32:37.999Z</time></trkpt><trkpt lat="45.129142986501506" lon="9.995355488724305"><ele>35.0</ele><time>2026-04-12T06:32:39.999Z</time></trkpt><trkpt lat="45.12904389062497" lon="9.99527050333536"><ele>35.0</ele><time>2026-04-12T06:32:41.999Z</time></trkpt><trkpt lat="45.12894272557441" lon="9.995183743473282"><ele>35.0</ele><time>2026-04-12T06:32:43.999Z</time></trkpt><trkpt lat="45.12884404632294" lon="9.995099115424868"><ele>34.5</ele><time>2026-04-12T06:32:45.999Z</time></trkpt><trkpt lat="45.12874158017404" lon="9.99501123971984"><ele>34.0</ele><time>2026-04-12T06:32:47.999Z</time></trkpt><trkpt lat="45.128640283016196" lon="9.994923343892502"><ele>33.5</ele><time>2026-04-12T06:32:49.999Z</time></trkpt><trkpt lat="45.12853925959521" lon="9.99483556774093"><ele>33.0</ele><time>2026-04-12T06:32:51.999Z</time></trkpt><trkpt lat="45.1284371823087" lon="9.994746875881377"><ele>31.75</ele><time>2026-04-12T06:32:53.999Z</time></trkpt><trkpt lat="45.12833837375328" lon="9.994661117763656"><ele>30.5</ele><time>2026-04-12T06:32:55.999Z</time></trkpt><trkpt lat="45.12824055194917" lon="9.994576925735284"><ele>29.25</ele><time>2026-04-12T06:32:57.999Z</time></trkpt><trkpt lat="45.128144550816394" lon="9.994494300630132"><ele>28.0</ele><time>2026-04-12T06:32:59.999Z</time></trkpt><trkpt lat="45.128046084186515" lon="9.994409553644092"><ele>28.0</ele><time>2026-04-12T06:33:01.999Z</time></trkpt><trkpt lat="45.12794907475526" lon="9.99432618778449"><ele>28.0</ele><time>2026-04-12T06:33:03.999Z</time></trkpt><trkpt lat="45.127853182745376" lon="9.99424387335859"><ele>28.0</ele><time>2026-04-12T06:33:05.999Z</time></trkpt><trkpt lat="45.12775727574783" lon="9.994161322902306"><ele>28.0</ele><time>2026-04-12T06:33:07.999Z</time></trkpt><trkpt lat="45.127660271832255" lon="9.994077666663307"><ele>28.0</ele><time>2026-04-12T06:33:09.999Z</time></trkpt><trkpt lat="45.12756152248308" lon="9.993992505099875"><ele>28.0</ele><time>2026-04-12T06:33:11.999Z</time></trkpt><trkpt lat="45.12746248034592" lon="9.99390709114036"><ele>28.0</ele><time>2026-04-12T06:33:13.999Z</time></trkpt><trkpt lat="45.12736340843064" lon="9.993821651458196"><ele>28.0</ele><time>2026-04-12T06:33:15.999Z</time></trkpt><trkpt lat="45.12726410397488" lon="9.993736011220475"><ele>30.25</ele><time>2026-04-12T06:33:17.999Z</time></trkpt><trkpt lat="45.127163876244865" lon="9.993649574681406"><ele>32.5</ele><time>2026-04-12T06:33:19.999Z</time></trkpt><trkpt lat="45.12706693555523" lon="9.993566275976255"><ele>34.75</ele><time>2026-04-12T06:33:21.999Z</time></trkpt><trkpt lat="45.12696670248662" lon="9.99348016695717"><ele>37.0</ele><time>2026-04-12T06:33:23.999Z</time></trkpt><trkpt lat="45.126867370410174" lon="9.993394536580132"><ele>37.5</ele><time>2026-04-12T06:33:25.999Z</time></trkpt><trkpt lat="45.126766591143955" lon="9.993307235687249"><ele>38.0</ele><time>2026-04-12T06:33:27.999Z</time></trkpt><trkpt lat="45.12666744152566" lon="9.993221346494009"><ele>38.5</ele><time>2026-04-12T06:33:29.998Z</time></trkpt><trkpt lat="45.12656767469212" lon="9.993134922687787"><ele>39.0</ele><time>2026-04-12T06:33:31.998Z</time></trkpt><trkpt lat="45.126468899478404" lon="9.99304984346405"><ele>39.0</ele><time>2026-04-12T06:33:33.998Z</time></trkpt><trkpt lat="45.12636875246307" lon="9.992964106217133"><ele>39.0</ele><time>2026-04-12T06:33:35.998Z</time></trkpt><trkpt lat="45.12626708526431" lon="9.992877067485699"><ele>39.0</ele><time>2026-04-12T06:33:37.998Z</time></trkpt><trkpt lat="45.12616361692621" lon="9.992788486840682"><ele>39.0</ele><time>2026-04-12T06:33:40Z</time></trkpt><trkpt lat="45.12606252717558" lon="9.992701942535941"><ele>39.0</ele><time>2026-04-12T06:33:42Z</time></trkpt><trkpt lat="45.12596070046189" lon="9.992614480526218"><ele>39.0</ele><time>2026-04-12T06:33:44Z</time></trkpt><trkpt lat="45.12585857572373" lon="9.992526530212192"><ele>39.0</ele><time>2026-04-12T06:33:46Z</time></trkpt><trkpt lat="45.12575448362599" lon="9.992436885704008"><ele>39.0</ele><time>2026-04-12T06:33:48Z</time></trkpt><trkpt lat="45.12564825277336" lon="9.992346154439577"><ele>39.5</ele><time>2026-04-12T06:33:50Z</time></trkpt><trkpt lat="45.12554473904399" lon="9.992258128403284"><ele>40.0</ele><time>2026-04-12T06:33:52Z</time></trkpt><trkpt lat="45.125442186705065" lon="9.992169900109936"><ele>40.5</ele><time>2026-04-12T06:33:54Z</time></trkpt><trkpt lat="45.12534015306172" lon="9.992080484668483"><ele>41.0</ele><time>2026-04-12T06:33:56Z</time></trkpt><trkpt lat="45.12523978922311" lon="9.991992532457308"><ele>41.0</ele><time>2026-04-12T06:33:58Z</time></trkpt><trkpt lat="45.12513592966931" lon="9.991902458500395"><ele>41.0</ele><time>2026-04-12T06:34:00Z</time></trkpt><trkpt lat="45.12503229428918" lon="9.991813780807867"><ele>41.0</ele><time>2026-04-12T06:34:02Z</time></trkpt><trkpt lat="45.12492996317372" lon="9.991726219129806"><ele>41.0</ele><time>2026-04-12T06:34:04Z</time></trkpt><trkpt lat="45.12482877574175" lon="9.991639019017256"><ele>40.5</ele><time>2026-04-12T06:34:06Z</time></trkpt><trkpt lat="45.12473079385127" lon="9.991553749565618"><ele>40.0</ele><time>2026-04-12T06:34:08Z</time></trkpt><trkpt lat="45.12463184656447" lon="9.991467640048125"><ele>39.5</ele><time>2026-04-12T06:34:10Z</time></trkpt><trkpt lat="45.124530574182025" lon="9.991380411620911"><ele>39.0</ele><time>2026-04-12T06:34:12Z</time></trkpt><trkpt lat="45.12442778781666" lon="9.991291935518046"><ele>39.0</ele><time>2026-04-12T06:34:14Z</time></trkpt><trkpt lat="45.12432514833611" lon="9.991203585827751"><ele>39.0</ele><time>2026-04-12T06:34:16Z</time></trkpt><trkpt lat="45.12422247294407" lon="9.991115205216392"><ele>39.0</ele><time>2026-04-12T06:34:18Z</time></trkpt><trkpt lat="45.1241206880799" lon="9.991027591135348"><ele>39.0</ele><time>2026-04-12T06:34:20Z</time></trkpt><trkpt lat="45.124019540307486" lon="9.990940525487817"><ele>39.25</ele><time>2026-04-12T06:34:22Z</time></trkpt><trkpt lat="45.12391722053312" lon="9.990852451057595"><ele>39.5</ele><time>2026-04-12T06:34:24Z</time></trkpt><trkpt lat="45.12381488236677" lon="9.990764360693252"><ele>39.75</ele><time>2026-04-12T06:34:26Z</time></trkpt><trkpt lat="45.123712076218446" lon="9.990675867563029"><ele>40.0</ele><time>2026-04-12T06:34:28Z</time></trkpt><trkpt lat="45.12360997922519" lon="9.990587984829348"><ele>40.0</ele><time>2026-04-12T06:34:30Z</time></trkpt><trkpt lat="45.12350741310893" lon="9.990499053015066"><ele>40.0</ele><time>2026-04-12T06:34:32Z</time></trkpt><trkpt lat="45.12340454414792" lon="9.9904098175663"><ele>40.0</ele><time>2026-04-12T06:34:34Z</time></trkpt><trkpt lat="45.1233005626558" lon="9.990319617031309"><ele>40.0</ele><time>2026-04-12T06:34:36Z</time></trkpt><trkpt lat="45.1231967729138" lon="9.990229583077648"><ele>40.0</ele><time>2026-04-12T06:34:38Z</time></trkpt><trkpt lat="45.12309142547246" lon="9.99013819777902"><ele>40.0</ele><time>2026-04-12T06:34:39.999Z</time></trkpt><trkpt lat="45.12298729796039" lon="9.99004787086638"><ele>40.0</ele><time>2026-04-12T06:34:41.999Z</time></trkpt><trkpt lat="45.12288426751749" lon="9.989958946993227"><ele>40.0</ele><time>2026-04-12T06:34:43.999Z</time></trkpt><trkpt lat="45.1227818805684" lon="9.989870889398501"><ele>40.0</ele><time>2026-04-12T06:34:45.999Z</time></trkpt><trkpt lat="45.12268042480636" lon="9.989783634044478"><ele>40.0</ele><time>2026-04-12T06:34:47.999Z</time></trkpt><trkpt lat="45.12257947074274" lon="9.989696808622044"><ele>40.0</ele><time>2026-04-12T06:34:49.999Z</time></trkpt><trkpt lat="45.12247738340299" lon="9.9896086632538"><ele>40.0</ele><time>2026-04-12T06:34:51.999Z</time></trkpt><trkpt lat="45.122379330957216" lon="9.989522188681887"><ele>39.25</ele><time>2026-04-12T06:34:53.999Z</time></trkpt><trkpt lat="45.122278344351734" lon="9.989434200227386"><ele>38.5</ele><time>2026-04-12T06:34:55.999Z</time></trkpt><trkpt lat="45.122175085207616" lon="9.989352609139747"><ele>37.75</ele><time>2026-04-12T06:34:57.999Z</time></trkpt><trkpt lat="45.122080217913954" lon="9.989282151475939"><ele>37.0</ele><time>2026-04-12T06:34:59.999Z</time></trkpt><trkpt lat="45.12196796640083" lon="9.989209526971619"><ele>36.833333333333336</ele><time>2026-04-12T06:35:01.999Z</time></trkpt><trkpt lat="45.12185021673351" lon="9.989169845566147"><ele>36.66666666666667</ele><time>2026-04-12T06:35:03.999Z</time></trkpt><trkpt lat="45.12172581103052" lon="9.989153513468485"><ele>36.5</ele><time>2026-04-12T06:35:05.999Z</time></trkpt><trkpt lat="45.12166154789947" lon="9.989156409487284"><ele>36.333333333333336</ele><time>2026-04-12T06:35:06.999Z</time></trkpt><trkpt lat="45.12159680609168" lon="9.989166726291526"><ele>36.166666666666664</ele><time>2026-04-12T06:35:07.999Z</time></trkpt><trkpt lat="45.121528650859425" lon="9.98919450346921"><ele>36.0</ele><time>2026-04-12T06:35:08.999Z</time></trkpt><trkpt lat="45.121468219561685" lon="9.989223584387432"><ele>36.0</ele><time>2026-04-12T06:35:09.999Z</time></trkpt><trkpt lat="45.121356312490846" lon="9.989287853379683"><ele>36.0</ele><time>2026-04-12T06:35:11.999Z</time></trkpt><trkpt lat="45.121250122004255" lon="9.989350478554867"><ele>36.0</ele><time>2026-04-12T06:35:13.999Z</time></trkpt><trkpt lat="45.12114431517066" lon="9.98941415573393"><ele>36.0</ele><time>2026-04-12T06:35:15.999Z</time></trkpt><trkpt lat="45.12104185684342" lon="9.98947637913637"><ele>36.0</ele><time>2026-04-12T06:35:17.999Z</time></trkpt><trkpt lat="45.12094218655433" lon="9.989536909331342"><ele>36.0</ele><time>2026-04-12T06:35:19.999Z</time></trkpt><trkpt lat="45.120846452630964" lon="9.989595048601926"><ele>36.0</ele><time>2026-04-12T06:35:21.999Z</time></trkpt><trkpt lat="45.12075197167494" lon="9.989651350198821"><ele>36.0</ele><time>2026-04-12T06:35:23.999Z</time></trkpt><trkpt lat="45.12064196090961" lon="9.98970758957027"><ele>36.0</ele><time>2026-04-12T06:35:25.999Z</time></trkpt><trkpt lat="45.12057995930929" lon="9.989737765699001"><ele>36.42857142857143</ele><time>2026-04-12T06:35:26.999Z</time></trkpt><trkpt lat="45.12051614406069" lon="9.989769937594266"><ele>36.85714285714286</ele><time>2026-04-12T06:35:27.999Z</time></trkpt><trkpt lat="45.120456530955096" lon="9.989801505576015"><ele>37.28571428571429</ele><time>2026-04-12T06:35:28.999Z</time></trkpt><trkpt lat="45.12039613641216" lon="9.989837868082272"><ele>37.714285714285715</ele><time>2026-04-12T06:35:29.999Z</time></trkpt><trkpt lat="45.120334634180175" lon="9.989879541369001"><ele>38.14285714285714</ele><time>2026-04-12T06:35:30.999Z</time></trkpt><trkpt lat="45.120275959921514" lon="9.989917169666407"><ele>38.57142857142858</ele><time>2026-04-12T06:35:31.999Z</time></trkpt><trkpt lat="45.12021250328287" lon="9.989953203961871"><ele>39.0</ele><time>2026-04-12T06:35:32.998Z</time></trkpt><trkpt lat="45.1201472656768" lon="9.989994712574411"><ele>39.0</ele><time>2026-04-12T06:35:33.998Z</time></trkpt><trkpt lat="45.120081686655915" lon="9.990036655754208"><ele>39.0</ele><time>2026-04-12T06:35:34.998Z</time></trkpt><trkpt lat="45.12001340585924" lon="9.990074460955348"><ele>39.0</ele><time>2026-04-12T06:35:35.998Z</time></trkpt><trkpt lat="45.119946065601155" lon="9.990113486939622"><ele>39.0</ele><time>2026-04-12T06:35:36.998Z</time></trkpt><trkpt lat="45.1198784437406" lon="9.990155562902181"><ele>39.0</ele><time>2026-04-12T06:35:37.998Z</time></trkpt><trkpt lat="45.11980850265837" lon="9.990198264574518"><ele>39.0</ele><time>2026-04-12T06:35:38.998Z</time></trkpt><trkpt lat="45.11973902644454" lon="9.990238157875066"><ele>39.0</ele><time>2026-04-12T06:35:39.998Z</time></trkpt><trkpt lat="45.119669800093" lon="9.990278630191929"><ele>38.5</ele><time>2026-04-12T06:35:40.998Z</time></trkpt><trkpt lat="45.11959963512287" lon="9.990320782212514"><ele>38.0</ele><time>2026-04-12T06:35:41.998Z</time></trkpt><trkpt lat="45.11953036897032" lon="9.990365960235204"><ele>37.5</ele><time>2026-04-12T06:35:42.998Z</time></trkpt><trkpt lat="45.11946012896518" lon="9.990408700857142"><ele>37.0</ele><time>2026-04-12T06:35:44Z</time></trkpt><trkpt lat="45.11938999168666" lon="9.990451168973134"><ele>36.5</ele><time>2026-04-12T06:35:45Z</time></trkpt><trkpt lat="45.1193210002465" lon="9.990495257718887"><ele>36.0</ele><time>2026-04-12T06:35:46Z</time></trkpt><trkpt lat="45.11925023693358" lon="9.990535896423218"><ele>36.0</ele><time>2026-04-12T06:35:47Z</time></trkpt><trkpt lat="45.11917989764686" lon="9.99057910816493"><ele>36.0</ele><time>2026-04-12T06:35:48Z</time></trkpt><trkpt lat="45.11910876989228" lon="9.990621019799377"><ele>36.0</ele><time>2026-04-12T06:35:49Z</time></trkpt><trkpt lat="45.11903967548002" lon="9.990665084312035"><ele>36.0</ele><time>2026-04-12T06:35:50Z</time></trkpt><trkpt lat="45.11896985988382" lon="9.990707982025416"><ele>36.0</ele><time>2026-04-12T06:35:51Z</time></trkpt><trkpt lat="45.118899602368664" lon="9.990748051573018"><ele>36.0</ele><time>2026-04-12T06:35:52Z</time></trkpt><trkpt lat="45.11883016545782" lon="9.990793163993217"><ele>36.0</ele><time>2026-04-12T06:35:53Z</time></trkpt><trkpt lat="45.11875703227171" lon="9.990834198530198"><ele>36.0</ele><time>2026-04-12T06:35:54Z</time></trkpt><trkpt lat="45.11868601015662" lon="9.99087864077588"><ele>36.0</ele><time>2026-04-12T06:35:55Z</time></trkpt><trkpt lat="45.1186133419961" lon="9.990921953974174"><ele>36.0</ele><time>2026-04-12T06:35:56Z</time></trkpt><trkpt lat="45.11854003928391" lon="9.990966925076012"><ele>36.0</ele><time>2026-04-12T06:35:57Z</time></trkpt><trkpt lat="45.11846672043103" lon="9.991010118653051"><ele>36.0</ele><time>2026-04-12T06:35:58Z</time></trkpt><trkpt lat="45.118392181275624" lon="9.991054870973501"><ele>35.666666666666664</ele><time>2026-04-12T06:35:59Z</time></trkpt><trkpt lat="45.118320426712515" lon="9.991102312982468"><ele>35.333333333333336</ele><time>2026-04-12T06:36:00Z</time></trkpt><trkpt lat="45.11824633786001" lon="9.991145507691025"><ele>35.0</ele><time>2026-04-12T06:36:01Z</time></trkpt><trkpt lat="45.118172403559804" lon="9.991189083799888"><ele>34.66666666666667</ele><time>2026-04-12T06:36:02Z</time></trkpt><trkpt lat="45.11809861723894" lon="9.991232228621941"><ele>34.333333333333336</ele><time>2026-04-12T06:36:03Z</time></trkpt><trkpt lat="45.11802765396502" lon="9.991277958549649"><ele>34.0</ele><time>2026-04-12T06:36:04Z</time></trkpt><trkpt lat="45.11795368996984" lon="9.991320234601588"><ele>34.833333333333336</ele><time>2026-04-12T06:36:05Z</time></trkpt><trkpt lat="45.11788163374953" lon="9.991364478654498"><ele>35.66666666666667</ele><time>2026-04-12T06:36:06Z</time></trkpt><trkpt lat="45.117808878978636" lon="9.9914066197142"><ele>36.5</ele><time>2026-04-12T06:36:07Z</time></trkpt><trkpt lat="45.1177364506802" lon="9.991448786561827"><ele>37.333333333333336</ele><time>2026-04-12T06:36:08Z</time></trkpt><trkpt lat="45.117664111465615" lon="9.991492843701764"><ele>38.166666666666664</ele><time>2026-04-12T06:36:09Z</time></trkpt><trkpt lat="45.117591043969604" lon="9.991537241143899"><ele>39.0</ele><time>2026-04-12T06:36:10Z</time></trkpt><trkpt lat="45.1175185231009" lon="9.99158054657302"><ele>39.0</ele><time>2026-04-12T06:36:11Z</time></trkpt><trkpt lat="45.117446188931595" lon="9.99162410339336"><ele>39.0</ele><time>2026-04-12T06:36:12Z</time></trkpt><trkpt lat="45.11737254321507" lon="9.99166819769543"><ele>39.0</ele><time>2026-04-12T06:36:13Z</time></trkpt><trkpt lat="45.1172989590636" lon="9.99171003575159"><ele>39.0</ele><time>2026-04-12T06:36:14Z</time></trkpt><trkpt lat="45.1172270663514" lon="9.99175536781354"><ele>39.0</ele><time>2026-04-12T06:36:15Z</time></trkpt><trkpt lat="45.11715425613801" lon="9.991802919371588"><ele>39.0</ele><time>2026-04-12T06:36:16Z</time></trkpt><trkpt lat="45.117081580918274" lon="9.99184541142297"><ele>39.0</ele><time>2026-04-12T06:36:17Z</time></trkpt><trkpt lat="45.117008844095075" lon="9.991887210610113"><ele>39.0</ele><time>2026-04-12T06:36:18Z</time></trkpt><trkpt lat="45.11693625388203" lon="9.99192774607608"><ele>39.0</ele><time>2026-04-12T06:36:19Z</time></trkpt><trkpt lat="45.11686386869568" lon="9.99197176816534"><ele>39.0</ele><time>2026-04-12T06:36:20Z</time></trkpt><trkpt lat="45.11679217452876" lon="9.992017727156812"><ele>39.0</ele><time>2026-04-12T06:36:21Z</time></trkpt><trkpt lat="45.11672132218086" lon="9.99205994810387"><ele>39.0</ele><time>2026-04-12T06:36:22Z</time></trkpt><trkpt lat="45.11665019697747" lon="9.992100597380132"><ele>39.0</ele><time>2026-04-12T06:36:23Z</time></trkpt><trkpt lat="45.11657705214706" lon="9.99214483421227"><ele>39.0</ele><time>2026-04-12T06:36:24Z</time></trkpt><trkpt lat="45.11650575821578" lon="9.992187699146683"><ele>39.0</ele><time>2026-04-12T06:36:25Z</time></trkpt><trkpt lat="45.11643322132434" lon="9.992232527015283"><ele>39.0</ele><time>2026-04-12T06:36:26Z</time></trkpt><trkpt lat="45.116359990668855" lon="9.992274765183428"><ele>39.0</ele><time>2026-04-12T06:36:27Z</time></trkpt><trkpt lat="45.11628910330694" lon="9.992317804217528"><ele>39.0</ele><time>2026-04-12T06:36:28Z</time></trkpt><trkpt lat="45.116216241838295" lon="9.992364529531711"><ele>39.0</ele><time>2026-04-12T06:36:29Z</time></trkpt><trkpt lat="45.11614578794296" lon="9.992408796747489"><ele>39.0</ele><time>2026-04-12T06:36:30Z</time></trkpt><trkpt lat="45.11607224278245" lon="9.992451524854774"><ele>39.0</ele><time>2026-04-12T06:36:31Z</time></trkpt><trkpt lat="45.115999968729575" lon="9.992494822875292"><ele>39.0</ele><time>2026-04-12T06:36:32Z</time></trkpt><trkpt lat="45.11592717774811" lon="9.99253737572641"><ele>39.0</ele><time>2026-04-12T06:36:33Z</time></trkpt><trkpt lat="45.11585465791686" lon="9.99258066733818"><ele>39.0</ele><time>2026-04-12T06:36:34Z</time></trkpt><trkpt lat="45.11578107122261" lon="9.99262333038469"><ele>39.166666666666664</ele><time>2026-04-12T06:36:35Z</time></trkpt><trkpt lat="45.11570860951796" lon="9.99266913662086"><ele>39.333333333333336</ele><time>2026-04-12T06:36:36Z</time></trkpt><trkpt lat="45.11563631163243" lon="9.992713009447815"><ele>39.5</ele><time>2026-04-12T06:36:37Z</time></trkpt><trkpt lat="45.11556392690819" lon="9.99275676386806"><ele>39.66666666666667</ele><time>2026-04-12T06:36:38Z</time></trkpt><trkpt lat="45.11549112064313" lon="9.992802354696908"><ele>39.833333333333336</ele><time>2026-04-12T06:36:39Z</time></trkpt><trkpt lat="45.115419926956804" lon="9.992845919557025"><ele>40.0</ele><time>2026-04-12T06:36:40Z</time></trkpt><trkpt lat="45.115347621647636" lon="9.992890655330207"><ele>40.0</ele><time>2026-04-12T06:36:41Z</time></trkpt><trkpt lat="45.115272804571816" lon="9.992930992578186"><ele>40.0</ele><time>2026-04-12T06:36:42Z</time></trkpt><trkpt lat="45.11520049433589" lon="9.99297549122245"><ele>40.0</ele><time>2026-04-12T06:36:42.999Z</time></trkpt><trkpt lat="45.11512808045724" lon="9.993020146926787"><ele>40.0</ele><time>2026-04-12T06:36:43.999Z</time></trkpt><trkpt lat="45.115055864030836" lon="9.99306485643269"><ele>40.0</ele><time>2026-04-12T06:36:44.999Z</time></trkpt><trkpt lat="45.11498418731946" lon="9.99311211282037"><ele>40.0</ele><time>2026-04-12T06:36:45.999Z</time></trkpt><trkpt lat="45.114910233188" lon="9.993152831268675"><ele>39.833333333333336</ele><time>2026-04-12T06:36:46.999Z</time></trkpt><trkpt lat="45.114835396576915" lon="9.993196867269592"><ele>39.66666666666667</ele><time>2026-04-12T06:36:47.999Z</time></trkpt><trkpt lat="45.11476238550757" lon="9.993239550037417"><ele>39.5</ele><time>2026-04-12T06:36:48.999Z</time></trkpt><trkpt lat="45.11468866434597" lon="9.993281417397213"><ele>39.333333333333336</ele><time>2026-04-12T06:36:49.999Z</time></trkpt><trkpt lat="45.11461660390039" lon="9.993324937330865"><ele>39.166666666666664</ele><time>2026-04-12T06:36:50.999Z</time></trkpt><trkpt lat="45.114544707474145" lon="9.993368243294787"><ele>39.0</ele><time>2026-04-12T06:36:51.999Z</time></trkpt><trkpt lat="45.114473263867424" lon="9.993414730186808"><ele>39.0</ele><time>2026-04-12T06:36:52.999Z</time></trkpt><trkpt lat="45.114400267455345" lon="9.9934607109177"><ele>39.0</ele><time>2026-04-12T06:36:53.999Z</time></trkpt><trkpt lat="45.11432672567771" lon="9.993504032646843"><ele>39.0</ele><time>2026-04-12T06:36:54.999Z</time></trkpt><trkpt lat="45.11425299322801" lon="9.993544372813398"><ele>39.0</ele><time>2026-04-12T06:36:55.999Z</time></trkpt><trkpt lat="45.114179785998495" lon="9.993588113397221"><ele>39.0</ele><time>2026-04-12T06:36:56.999Z</time></trkpt><trkpt lat="45.11410522906447" lon="9.993629774791122"><ele>39.0</ele><time>2026-04-12T06:36:57.999Z</time></trkpt><trkpt lat="45.11403282505683" lon="9.99367374297564"><ele>39.0</ele><time>2026-04-12T06:36:58.999Z</time></trkpt><trkpt lat="45.113957472440006" lon="9.993718688665332"><ele>39.0</ele><time>2026-04-12T06:36:59.999Z</time></trkpt><trkpt lat="45.11388564675649" lon="9.99376505317109"><ele>39.0</ele><time>2026-04-12T06:37:00.999Z</time></trkpt><trkpt lat="45.11381113254563" lon="9.993806518787226"><ele>39.0</ele><time>2026-04-12T06:37:01.999Z</time></trkpt><trkpt lat="45.11373700696781" lon="9.993845448282693"><ele>39.0</ele><time>2026-04-12T06:37:02.999Z</time></trkpt><trkpt lat="45.113664852803524" lon="9.993888343872916"><ele>39.0</ele><time>2026-04-12T06:37:03.999Z</time></trkpt><trkpt lat="45.1135918465595" lon="9.993931911873144"><ele>39.0</ele><time>2026-04-12T06:37:04.999Z</time></trkpt><trkpt lat="45.11351745480577" lon="9.993972863733518"><ele>39.0</ele><time>2026-04-12T06:37:05.999Z</time></trkpt><trkpt lat="45.113444041114285" lon="9.99401857537805"><ele>39.0</ele><time>2026-04-12T06:37:06.999Z</time></trkpt><trkpt lat="45.11336995163638" lon="9.994064860317463"><ele>39.0</ele><time>2026-04-12T06:37:07.999Z</time></trkpt><trkpt lat="45.113298358989915" lon="9.994104953366872"><ele>39.0</ele><time>2026-04-12T06:37:08.999Z</time></trkpt><trkpt lat="45.11322302867347" lon="9.99415028408422"><ele>39.0</ele><time>2026-04-12T06:37:09.999Z</time></trkpt><trkpt lat="45.11314978752426" lon="9.994194642539547"><ele>39.166666666666664</ele><time>2026-04-12T06:37:10.999Z</time></trkpt><trkpt lat="45.11307575481367" lon="9.99423844274405"><ele>39.333333333333336</ele><time>2026-04-12T06:37:11.999Z</time></trkpt><trkpt lat="45.11300351071117" lon="9.994283255495848"><ele>39.5</ele><time>2026-04-12T06:37:12.999Z</time></trkpt><trkpt lat="45.11293084727013" lon="9.994327493421485"><ele>39.66666666666667</ele><time>2026-04-12T06:37:13.999Z</time></trkpt><trkpt lat="45.112857997383834" lon="9.99437204551907"><ele>39.833333333333336</ele><time>2026-04-12T06:37:14.999Z</time></trkpt><trkpt lat="45.11278445205662" lon="9.994415711340968"><ele>40.0</ele><time>2026-04-12T06:37:15.999Z</time></trkpt><trkpt lat="45.11271056998927" lon="9.994459953043375"><ele>40.0</ele><time>2026-04-12T06:37:16.999Z</time></trkpt><trkpt lat="45.112637640508844" lon="9.994502273464374"><ele>40.0</ele><time>2026-04-12T06:37:17.999Z</time></trkpt><trkpt lat="45.112564199282815" lon="9.994543580223066"><ele>40.0</ele><time>2026-04-12T06:37:18.999Z</time></trkpt><trkpt lat="45.11248801740237" lon="9.994576293647828"><ele>40.0</ele><time>2026-04-12T06:37:19.999Z</time></trkpt><trkpt lat="45.112410155722294" lon="9.994595803125373"><ele>40.0</ele><time>2026-04-12T06:37:20.999Z</time></trkpt><trkpt lat="45.112331494730256" lon="9.994598583419366"><ele>40.0</ele><time>2026-04-12T06:37:21.999Z</time></trkpt><trkpt lat="45.11225192779133" lon="9.99459161784461"><ele>39.833333333333336</ele><time>2026-04-12T06:37:22.999Z</time></trkpt><trkpt lat="45.11217207658323" lon="9.994574189617115"><ele>39.66666666666667</ele><time>2026-04-12T06:37:23.999Z</time></trkpt><trkpt lat="45.1120937037285" lon="9.994542329266373"><ele>39.5</ele><time>2026-04-12T06:37:24.999Z</time></trkpt><trkpt lat="45.11202242622972" lon="9.994495976721314"><ele>39.333333333333336</ele><time>2026-04-12T06:37:25.999Z</time></trkpt><trkpt lat="45.111953206693535" lon="9.994441329699052"><ele>39.166666666666664</ele><time>2026-04-12T06:37:26.999Z</time></trkpt><trkpt lat="45.11189024546997" lon="9.994377355780813"><ele>39.0</ele><time>2026-04-12T06:37:27.999Z</time></trkpt><trkpt lat="45.11182850148699" lon="9.994308352758745"><ele>39.0</ele><time>2026-04-12T06:37:28.999Z</time></trkpt><trkpt lat="45.111765331359344" lon="9.99424660770628"><ele>39.0</ele><time>2026-04-12T06:37:29.999Z</time></trkpt><trkpt lat="45.11170311823773" lon="9.994180034220447"><ele>39.0</ele><time>2026-04-12T06:37:30.999Z</time></trkpt><trkpt lat="45.111643062070044" lon="9.99411523749499"><ele>39.0</ele><time>2026-04-12T06:37:31.999Z</time></trkpt><trkpt lat="45.11158132641547" lon="9.994051464766187"><ele>39.0</ele><time>2026-04-12T06:37:32.999Z</time></trkpt><trkpt lat="45.1115191414123" lon="9.993985399578662"><ele>39.0</ele><time>2026-04-12T06:37:33.999Z</time></trkpt><trkpt lat="45.11145738772858" lon="9.993917516614282"><ele>38.666666666666664</ele><time>2026-04-12T06:37:34.999Z</time></trkpt><trkpt lat="45.11139566622934" lon="9.993848548236922"><ele>38.333333333333336</ele><time>2026-04-12T06:37:35.998Z</time></trkpt><trkpt lat="45.11133421023496" lon="9.993779932793046"><ele>38.0</ele><time>2026-04-12T06:37:36.998Z</time></trkpt><trkpt lat="45.111271431891595" lon="9.993714380226331"><ele>37.66666666666667</ele><time>2026-04-12T06:37:37.998Z</time></trkpt><trkpt lat="45.11120990110218" lon="9.993645922721713"><ele>37.333333333333336</ele><time>2026-04-12T06:37:38.998Z</time></trkpt><trkpt lat="45.11114839112972" lon="9.993579625794368"><ele>37.0</ele><time>2026-04-12T06:37:39.998Z</time></trkpt><trkpt lat="45.1110860360264" lon="9.993510973273949"><ele>37.0</ele><time>2026-04-12T06:37:40.998Z</time></trkpt><trkpt lat="45.11102389977919" lon="9.993445717858588"><ele>37.0</ele><time>2026-04-12T06:37:41.998Z</time></trkpt><trkpt lat="45.11096134108042" lon="9.993375702374214"><ele>37.0</ele><time>2026-04-12T06:37:42.998Z</time></trkpt><trkpt lat="45.110898852089775" lon="9.993308160830175"><ele>37.0</ele><time>2026-04-12T06:37:43.998Z</time></trkpt><trkpt lat="45.11083518764837" lon="9.993242059125098"><ele>37.0</ele><time>2026-04-12T06:37:44.998Z</time></trkpt><trkpt lat="45.110772734370734" lon="9.993174719595094"><ele>37.0</ele><time>2026-04-12T06:37:45.998Z</time></trkpt><trkpt lat="45.110710011438194" lon="9.99310686768732"><ele>37.0</ele><time>2026-04-12T06:37:46.998Z</time></trkpt><trkpt lat="45.11064850449052" lon="9.99303512304"><ele>37.0</ele><time>2026-04-12T06:37:47.998Z</time></trkpt><trkpt lat="45.11058646404571" lon="9.992967538917194"><ele>37.0</ele><time>2026-04-12T06:37:48.998Z</time></trkpt><trkpt lat="45.11052543478711" lon="9.992899552629543"><ele>37.0</ele><time>2026-04-12T06:37:50Z</time></trkpt><trkpt lat="45.11046333230721" lon="9.992832071633336"><ele>37.0</ele><time>2026-04-12T06:37:51Z</time></trkpt><trkpt lat="45.11040236964526" lon="9.99276308691074"><ele>37.0</ele><time>2026-04-12T06:37:52Z</time></trkpt><trkpt lat="45.1103415611057" lon="9.992693294128943"><ele>37.0</ele><time>2026-04-12T06:37:53Z</time></trkpt><trkpt lat="45.11028034785171" lon="9.992626009027736"><ele>37.0</ele><time>2026-04-12T06:37:54Z</time></trkpt><trkpt lat="45.110219099123675" lon="9.992560528394396"><ele>37.0</ele><time>2026-04-12T06:37:55Z</time></trkpt><trkpt lat="45.110158070114494" lon="9.992491822414088"><ele>37.0</ele><time>2026-04-12T06:37:56Z</time></trkpt><trkpt lat="45.110097747903374" lon="9.992423600958277"><ele>37.0</ele><time>2026-04-12T06:37:57Z</time></trkpt><trkpt lat="45.11003827717999" lon="9.992357381492434"><ele>37.0</ele><time>2026-04-12T06:37:58Z</time></trkpt><trkpt lat="45.10997861986188" lon="9.992289381986774"><ele>37.0</ele><time>2026-04-12T06:37:59Z</time></trkpt><trkpt lat="45.109918675361904" lon="9.992222970138545"><ele>37.0</ele><time>2026-04-12T06:38:00Z</time></trkpt><trkpt lat="45.10985891969409" lon="9.992155873343217"><ele>37.0</ele><time>2026-04-12T06:38:01Z</time></trkpt><trkpt lat="45.109798873473025" lon="9.99209192327969"><ele>37.0</ele><time>2026-04-12T06:38:02Z</time></trkpt><trkpt lat="45.10973885306688" lon="9.992025339674544"><ele>37.0</ele><time>2026-04-12T06:38:03Z</time></trkpt><trkpt lat="45.109680263386714" lon="9.991959320174475"><ele>37.0</ele><time>2026-04-12T06:38:04Z</time></trkpt><trkpt lat="45.10961913758932" lon="9.991891763814378"><ele>36.833333333333336</ele><time>2026-04-12T06:38:05Z</time></trkpt><trkpt lat="45.10955957695878" lon="9.991825240504665"><ele>36.66666666666667</ele><time>2026-04-12T06:38:06Z</time></trkpt><trkpt lat="45.109498889820784" lon="9.991757216229129"><ele>36.5</ele><time>2026-04-12T06:38:07Z</time></trkpt><trkpt lat="45.10943736917455" lon="9.991689156163055"><ele>36.333333333333336</ele><time>2026-04-12T06:38:08Z</time></trkpt><trkpt lat="45.109375206866325" lon="9.99162041086833"><ele>36.166666666666664</ele><time>2026-04-12T06:38:09Z</time></trkpt><trkpt lat="45.10931245106848" lon="9.991549306907311"><ele>36.0</ele><time>2026-04-12T06:38:10Z</time></trkpt><trkpt lat="45.10924889223079" lon="9.991477019989887"><ele>36.5</ele><time>2026-04-12T06:38:11Z</time></trkpt><trkpt lat="45.10918594625367" lon="9.991402900783184"><ele>37.0</ele><time>2026-04-12T06:38:12Z</time></trkpt><trkpt lat="45.109122388757164" lon="9.99132674219308"><ele>37.5</ele><time>2026-04-12T06:38:13Z</time></trkpt><trkpt lat="45.10905685251784" lon="9.991251907772824"><ele>38.0</ele><time>2026-04-12T06:38:14Z</time></trkpt><trkpt lat="45.10899237562959" lon="9.99118000357007"><ele>38.5</ele><time>2026-04-12T06:38:15Z</time></trkpt><trkpt lat="45.108926997960566" lon="9.991104633343152"><ele>39.0</ele><time>2026-04-12T06:38:16Z</time></trkpt><trkpt lat="45.1088631177281" lon="9.991026624208407"><ele>39.0</ele><time>2026-04-12T06:38:17Z</time></trkpt><trkpt lat="45.10879975741234" lon="9.99095143481954"><ele>39.0</ele><time>2026-04-12T06:38:18Z</time></trkpt><trkpt lat="45.10873690387296" lon="9.990876206051231"><ele>39.0</ele><time>2026-04-12T06:38:19Z</time></trkpt><trkpt lat="45.108674512632035" lon="9.990800886363894"><ele>39.0</ele><time>2026-04-12T06:38:20Z</time></trkpt><trkpt lat="45.108611054004015" lon="9.990726603379823"><ele>39.0</ele><time>2026-04-12T06:38:21Z</time></trkpt><trkpt lat="45.108548419569466" lon="9.99065441599523"><ele>39.0</ele><time>2026-04-12T06:38:22Z</time></trkpt><trkpt lat="45.1084855694957" lon="9.990581139977072"><ele>39.0</ele><time>2026-04-12T06:38:23Z</time></trkpt><trkpt lat="45.10842472915098" lon="9.990512157698303"><ele>39.0</ele><time>2026-04-12T06:38:24Z</time></trkpt><trkpt lat="45.108362624833404" lon="9.990438055917974"><ele>39.0</ele><time>2026-04-12T06:38:25Z</time></trkpt><trkpt lat="45.108301093757774" lon="9.990368206737106"><ele>39.0</ele><time>2026-04-12T06:38:26Z</time></trkpt><trkpt lat="45.108238890701955" lon="9.990298337075366"><ele>39.0</ele><time>2026-04-12T06:38:27Z</time></trkpt><trkpt lat="45.10817817114891" lon="9.990228257895884"><ele>39.0</ele><time>2026-04-12T06:38:28Z</time></trkpt><trkpt lat="45.108118086178465" lon="9.990159953217063"><ele>39.0</ele><time>2026-04-12T06:38:29Z</time></trkpt><trkpt lat="45.10805738671232" lon="9.990089981078247"><ele>39.0</ele><time>2026-04-12T06:38:30Z</time></trkpt><trkpt lat="45.107993549440266" lon="9.990019607485928"><ele>39.0</ele><time>2026-04-12T06:38:31Z</time></trkpt><trkpt lat="45.10793067225383" lon="9.989948511440263"><ele>39.0</ele><time>2026-04-12T06:38:32Z</time></trkpt><trkpt lat="45.10786682365305" lon="9.98987430089156"><ele>39.0</ele><time>2026-04-12T06:38:33Z</time></trkpt><trkpt lat="45.10780271364126" lon="9.989802565146809"><ele>39.0</ele><time>2026-04-12T06:38:34Z</time></trkpt><trkpt lat="45.10773943326811" lon="9.98972983398031"><ele>38.833333333333336</ele><time>2026-04-12T06:38:35Z</time></trkpt><trkpt lat="45.10767428033059" lon="9.98966147949942"><ele>38.666666666666664</ele><time>2026-04-12T06:38:36Z</time></trkpt><trkpt lat="45.10761146026745" lon="9.989588959152554"><ele>38.5</ele><time>2026-04-12T06:38:37Z</time></trkpt><trkpt lat="45.10754936281405" lon="9.989515205807175"><ele>38.33333333333333</ele><time>2026-04-12T06:38:38Z</time></trkpt><trkpt lat="45.10748550563318" lon="9.98944374875766"><ele>38.166666666666664</ele><time>2026-04-12T06:38:39Z</time></trkpt><trkpt lat="45.10741948425392" lon="9.989374234946894"><ele>38.0</ele><time>2026-04-12T06:38:40Z</time></trkpt><trkpt lat="45.10735630599321" lon="9.989302865483074"><ele>38.33333333333333</ele><time>2026-04-12T06:38:41Z</time></trkpt><trkpt lat="45.10729517761706" lon="9.989228689568739"><ele>38.666666666666664</ele><time>2026-04-12T06:38:42Z</time></trkpt><trkpt lat="45.10722943397687" lon="9.989169835088981"><ele>39.0</ele><time>2026-04-12T06:38:43Z</time></trkpt><trkpt lat="45.107167678871726" lon="9.989118829074993"><ele>39.333333333333336</ele><time>2026-04-12T06:38:44Z</time></trkpt><trkpt lat="45.107106643731605" lon="9.98902973252772"><ele>39.66666666666667</ele><time>2026-04-12T06:38:45Z</time></trkpt><trkpt lat="45.107044149767354" lon="9.988959594486788"><ele>40.0</ele><time>2026-04-12T06:38:46Z</time></trkpt><trkpt lat="45.10698233381544" lon="9.988885167172112"><ele>40.16666666666667</ele><time>2026-04-12T06:38:46.999Z</time></trkpt><trkpt lat="45.10691978072937" lon="9.988813741352333"><ele>40.333333333333336</ele><time>2026-04-12T06:38:47.999Z</time></trkpt><trkpt lat="45.10685688934695" lon="9.98873932246488"><ele>40.5</ele><time>2026-04-12T06:38:48.999Z</time></trkpt><trkpt lat="45.10679428960937" lon="9.988665516151782"><ele>40.666666666666664</ele><time>2026-04-12T06:38:49.999Z</time></trkpt><trkpt lat="45.1067312263673" lon="9.988593820219231"><ele>40.83333333333333</ele><time>2026-04-12T06:38:50.999Z</time></trkpt><trkpt lat="45.106666395028384" lon="9.988522755357137"><ele>41.0</ele><time>2026-04-12T06:38:51.999Z</time></trkpt><trkpt lat="45.10660283787133" lon="9.98844984354725"><ele>40.666666666666664</ele><time>2026-04-12T06:38:52.999Z</time></trkpt><trkpt lat="45.10653988377987" lon="9.988378904189789"><ele>40.33333333333333</ele><time>2026-04-12T06:38:53.999Z</time></trkpt><trkpt lat="45.10647506630883" lon="9.98831100649922"><ele>40.0</ele><time>2026-04-12T06:38:54.999Z</time></trkpt><trkpt lat="45.10641133428006" lon="9.988238552167132"><ele>39.666666666666664</ele><time>2026-04-12T06:38:55.999Z</time></trkpt><trkpt lat="45.10634813275206" lon="9.988170595445345"><ele>39.333333333333336</ele><time>2026-04-12T06:38:56.999Z</time></trkpt><trkpt lat="45.10628460263386" lon="9.988100362710565"><ele>39.0</ele><time>2026-04-12T06:38:57.999Z</time></trkpt><trkpt lat="45.10622177127973" lon="9.988026303689669"><ele>39.0</ele><time>2026-04-12T06:38:58.999Z</time></trkpt><trkpt lat="45.1061568017668" lon="9.987963341768904"><ele>39.0</ele><time>2026-04-12T06:38:59.999Z</time></trkpt><trkpt lat="45.106092334716195" lon="9.987892900530051"><ele>39.0</ele><time>2026-04-12T06:39:00.999Z</time></trkpt><trkpt lat="45.10603018396928" lon="9.987819122008537"><ele>39.0</ele><time>2026-04-12T06:39:01.999Z</time></trkpt><trkpt lat="45.105965686090826" lon="9.987748239148651"><ele>39.0</ele><time>2026-04-12T06:39:02.999Z</time></trkpt><trkpt lat="45.10590179541626" lon="9.987678350913042"><ele>39.0</ele><time>2026-04-12T06:39:03.999Z</time></trkpt><trkpt lat="45.105837811687636" lon="9.98760702937458"><ele>39.0</ele><time>2026-04-12T06:39:04.999Z</time></trkpt><trkpt lat="45.10577419118299" lon="9.987533848759655"><ele>39.0</ele><time>2026-04-12T06:39:05.999Z</time></trkpt><trkpt lat="45.105709903722946" lon="9.98746322569751"><ele>39.0</ele><time>2026-04-12T06:39:06.999Z</time></trkpt><trkpt lat="45.10564603222122" lon="9.987390979102301"><ele>39.0</ele><time>2026-04-12T06:39:07.999Z</time></trkpt><trkpt lat="45.10558269676353" lon="9.987319449096637"><ele>39.0</ele><time>2026-04-12T06:39:08.999Z</time></trkpt><trkpt lat="45.105520501661175" lon="9.987243242944821"><ele>39.0</ele><time>2026-04-12T06:39:09.999Z</time></trkpt><trkpt lat="45.10545837735394" lon="9.987171014976592"><ele>38.833333333333336</ele><time>2026-04-12T06:39:10.999Z</time></trkpt><trkpt lat="45.1053959437842" lon="9.987097104926518"><ele>38.666666666666664</ele><time>2026-04-12T06:39:11.999Z</time></trkpt><trkpt lat="45.10533608993554" lon="9.987020875981413"><ele>38.5</ele><time>2026-04-12T06:39:12.999Z</time></trkpt><trkpt lat="45.105276062677326" lon="9.986941111602738"><ele>38.33333333333333</ele><time>2026-04-12T06:39:13.999Z</time></trkpt><trkpt lat="45.10521885573194" lon="9.986858689542348"><ele>38.166666666666664</ele><time>2026-04-12T06:39:14.999Z</time></trkpt><trkpt lat="45.105162974824204" lon="9.986774810499806"><ele>38.0</ele><time>2026-04-12T06:39:15.999Z</time></trkpt><trkpt lat="45.10511206018564" lon="9.986685658614869"><ele>38.0</ele><time>2026-04-12T06:39:16.999Z</time></trkpt><trkpt lat="45.105066128300116" lon="9.986591523848624"><ele>38.0</ele><time>2026-04-12T06:39:17.999Z</time></trkpt><trkpt lat="45.10502271850132" lon="9.986494873469205"><ele>38.0</ele><time>2026-04-12T06:39:18.999Z</time></trkpt><trkpt lat="45.10497967835467" lon="9.98639923114295"><ele>38.0</ele><time>2026-04-12T06:39:19.999Z</time></trkpt><trkpt lat="45.10493607180204" lon="9.986302225118857"><ele>38.0</ele><time>2026-04-12T06:39:20.999Z</time></trkpt><trkpt lat="45.10489628654199" lon="9.986205076323376"><ele>38.0</ele><time>2026-04-12T06:39:21.999Z</time></trkpt><trkpt lat="45.104857796616336" lon="9.986111607984068"><ele>38.0</ele><time>2026-04-12T06:39:22.999Z</time></trkpt><trkpt lat="45.104821211245266" lon="9.986011680000582"><ele>38.0</ele><time>2026-04-12T06:39:23.999Z</time></trkpt><trkpt lat="45.104782148276975" lon="9.985915788773625"><ele>38.0</ele><time>2026-04-12T06:39:24.999Z</time></trkpt><trkpt lat="45.10474350743743" lon="9.985825034001465"><ele>38.0</ele><time>2026-04-12T06:39:25.999Z</time></trkpt><trkpt lat="45.10470440134603" lon="9.985729109766643"><ele>38.0</ele><time>2026-04-12T06:39:26.999Z</time></trkpt><trkpt lat="45.10466647522685" lon="9.985636712460767"><ele>38.0</ele><time>2026-04-12T06:39:27.999Z</time></trkpt><trkpt lat="45.10462646745445" lon="9.985543104046748"><ele>37.83333333333333</ele><time>2026-04-12T06:39:28.999Z</time></trkpt><trkpt lat="45.104589169061455" lon="9.98544906228637"><ele>37.666666666666664</ele><time>2026-04-12T06:39:29.999Z</time></trkpt><trkpt lat="45.10455139826031" lon="9.985355398406416"><ele>37.5</ele><time>2026-04-12T06:39:30.999Z</time></trkpt><trkpt lat="45.10451142039607" lon="9.985262098282108"><ele>37.333333333333336</ele><time>2026-04-12T06:39:31.999Z</time></trkpt><trkpt lat="45.104473283995084" lon="9.98516741808904"><ele>37.16666666666667</ele><time>2026-04-12T06:39:32.999Z</time></trkpt><trkpt lat="45.104435691827284" lon="9.985073596261408"><ele>37.0</ele><time>2026-04-12T06:39:33.999Z</time></trkpt><trkpt lat="45.10439583171676" lon="9.984982792008575"><ele>37.0</ele><time>2026-04-12T06:39:34.999Z</time></trkpt><trkpt lat="45.10435737530645" lon="9.984891079024754"><ele>37.0</ele><time>2026-04-12T06:39:35.999Z</time></trkpt><trkpt lat="45.104318934588875" lon="9.984799940213652"><ele>37.0</ele><time>2026-04-12T06:39:36.999Z</time></trkpt><trkpt lat="45.10428178050051" lon="9.984707783151269"><ele>37.0</ele><time>2026-04-12T06:39:37.999Z</time></trkpt><trkpt lat="45.104244202561375" lon="9.984615790079163"><ele>37.0</ele><time>2026-04-12T06:39:38.999Z</time></trkpt><trkpt lat="45.104205628353874" lon="9.984520997749275"><ele>37.0</ele><time>2026-04-12T06:39:39.998Z</time></trkpt><trkpt lat="45.10416698497641" lon="9.98442901255264"><ele>37.0</ele><time>2026-04-12T06:39:40.998Z</time></trkpt><trkpt lat="45.104129399769356" lon="9.984334309251144"><ele>37.0</ele><time>2026-04-12T06:39:41.998Z</time></trkpt><trkpt lat="45.104091384033616" lon="9.984242745562296"><ele>37.0</ele><time>2026-04-12T06:39:42.998Z</time></trkpt><trkpt lat="45.10405217245209" lon="9.98414959767338"><ele>37.0</ele><time>2026-04-12T06:39:43.998Z</time></trkpt><trkpt lat="45.10401475201453" lon="9.984057972032145"><ele>37.0</ele><time>2026-04-12T06:39:44.998Z</time></trkpt><trkpt lat="45.103978171315056" lon="9.983965940650377"><ele>37.0</ele><time>2026-04-12T06:39:45.998Z</time></trkpt><trkpt lat="45.10393968173917" lon="9.983874399660687"><ele>37.0</ele><time>2026-04-12T06:39:46.998Z</time></trkpt><trkpt lat="45.10390220812629" lon="9.983781048773313"><ele>37.0</ele><time>2026-04-12T06:39:47.998Z</time></trkpt><trkpt lat="45.10386401487585" lon="9.983687621917452"><ele>37.0</ele><time>2026-04-12T06:39:48.998Z</time></trkpt><trkpt lat="45.10382641877827" lon="9.983593087739548"><ele>37.0</ele><time>2026-04-12T06:39:49.998Z</time></trkpt><trkpt lat="45.10378757443464" lon="9.983501106058453"><ele>37.0</ele><time>2026-04-12T06:39:50.998Z</time></trkpt><trkpt lat="45.10374947674058" lon="9.98340840657668"><ele>37.0</ele><time>2026-04-12T06:39:51.998Z</time></trkpt><trkpt lat="45.10371242269132" lon="9.983315078885399"><ele>37.0</ele><time>2026-04-12T06:39:52.998Z</time></trkpt><trkpt lat="45.10367709710434" lon="9.983224756966012"><ele>37.0</ele><time>2026-04-12T06:39:53.998Z</time></trkpt><trkpt lat="45.10364077864266" lon="9.98313270416247"><ele>37.0</ele><time>2026-04-12T06:39:54.998Z</time></trkpt><trkpt lat="45.103603290351586" lon="9.983042082564415"><ele>37.0</ele><time>2026-04-12T06:39:56Z</time></trkpt><trkpt lat="45.10356737552596" lon="9.982952704858722"><ele>37.0</ele><time>2026-04-12T06:39:57Z</time></trkpt><trkpt lat="45.103530633101514" lon="9.98286291665907"><ele>37.0</ele><time>2026-04-12T06:39:58Z</time></trkpt><trkpt lat="45.10349349430209" lon="9.982774039854494"><ele>37.0</ele><time>2026-04-12T06:39:59Z</time></trkpt><trkpt lat="45.103455530703755" lon="9.982682912333757"><ele>37.0</ele><time>2026-04-12T06:40:00Z</time></trkpt><trkpt lat="45.103417631444806" lon="9.982593982385668"><ele>37.0</ele><time>2026-04-12T06:40:01Z</time></trkpt><trkpt lat="45.10337952079712" lon="9.982500617586766"><ele>37.0</ele><time>2026-04-12T06:40:02Z</time></trkpt><trkpt lat="45.103342890585694" lon="9.982409856604452"><ele>37.0</ele><time>2026-04-12T06:40:03Z</time></trkpt><trkpt lat="45.10330511267898" lon="9.982316342950499"><ele>37.0</ele><time>2026-04-12T06:40:04Z</time></trkpt><trkpt lat="45.10326679607729" lon="9.982222051773062"><ele>37.0</ele><time>2026-04-12T06:40:05Z</time></trkpt><trkpt lat="45.10322461691306" lon="9.982127528681259"><ele>37.333333333333336</ele><time>2026-04-12T06:40:06Z</time></trkpt><trkpt lat="45.1031832914285" lon="9.98203498199802"><ele>37.66666666666667</ele><time>2026-04-12T06:40:07Z</time></trkpt><trkpt lat="45.103141511519304" lon="9.98193691819458"><ele>38.0</ele><time>2026-04-12T06:40:08Z</time></trkpt><trkpt lat="45.103096058899474" lon="9.9818444861348"><ele>38.333333333333336</ele><time>2026-04-12T06:40:09Z</time></trkpt><trkpt lat="45.1030493455146" lon="9.981748475462132"><ele>38.666666666666664</ele><time>2026-04-12T06:40:10Z</time></trkpt><trkpt lat="45.102998133879254" lon="9.98165796769681"><ele>39.0</ele><time>2026-04-12T06:40:11Z</time></trkpt><trkpt lat="45.10294322138519" lon="9.981569441456688"><ele>39.166666666666664</ele><time>2026-04-12T06:40:12Z</time></trkpt><trkpt lat="45.10288737739194" lon="9.981481970148858"><ele>39.333333333333336</ele><time>2026-04-12T06:40:13Z</time></trkpt><trkpt lat="45.102830320054665" lon="9.981394734109225"><ele>39.5</ele><time>2026-04-12T06:40:14Z</time></trkpt><trkpt lat="45.10277209336773" lon="9.981309603036438"><ele>39.66666666666667</ele><time>2026-04-12T06:40:15Z</time></trkpt><trkpt lat="45.10271174434196" lon="9.981225675965957"><ele>39.833333333333336</ele><time>2026-04-12T06:40:16Z</time></trkpt><trkpt lat="45.102647181158915" lon="9.981143111711742"><ele>40.0</ele><time>2026-04-12T06:40:17Z</time></trkpt><trkpt lat="45.10258154830928" lon="9.981062702180163"><ele>40.0</ele><time>2026-04-12T06:40:18Z</time></trkpt><trkpt lat="45.10251461330791" lon="9.980986846378881"><ele>40.0</ele><time>2026-04-12T06:40:19Z</time></trkpt><trkpt lat="45.10244475807003" lon="9.980915298258294"><ele>40.0</ele><time>2026-04-12T06:40:20Z</time></trkpt><trkpt lat="45.10237401507159" lon="9.980846329842118"><ele>40.0</ele><time>2026-04-12T06:40:21Z</time></trkpt><trkpt lat="45.102303068696074" lon="9.980776345406676"><ele>40.0</ele><time>2026-04-12T06:40:22Z</time></trkpt><trkpt lat="45.102227618156085" lon="9.980715824735189"><ele>40.0</ele><time>2026-04-12T06:40:23Z</time></trkpt><trkpt lat="45.10215188931607" lon="9.980659749146325"><ele>39.833333333333336</ele><time>2026-04-12T06:40:24Z</time></trkpt><trkpt lat="45.10207459327588" lon="9.980606187606075"><ele>39.66666666666667</ele><time>2026-04-12T06:40:25Z</time></trkpt><trkpt lat="45.10199394829973" lon="9.980554520311838"><ele>39.5</ele><time>2026-04-12T06:40:26Z</time></trkpt><trkpt lat="45.101913896658814" lon="9.980503616650095"><ele>39.333333333333336</ele><time>2026-04-12T06:40:27Z</time></trkpt><trkpt lat="45.10182945264903" lon="9.980459231926636"><ele>39.166666666666664</ele><time>2026-04-12T06:40:28Z</time></trkpt><trkpt lat="45.10174568131284" lon="9.980413907294432"><ele>39.0</ele><time>2026-04-12T06:40:29Z</time></trkpt><trkpt lat="45.101658584510616" lon="9.98036756905434"><ele>39.0</ele><time>2026-04-12T06:40:30Z</time></trkpt><trkpt lat="45.10157134942437" lon="9.980327733689373"><ele>39.0</ele><time>2026-04-12T06:40:31Z</time></trkpt><trkpt lat="45.10148268762861" lon="9.980288641980378"><ele>39.0</ele><time>2026-04-12T06:40:32Z</time></trkpt><trkpt lat="45.10139337796534" lon="9.980248450557157"><ele>39.0</ele><time>2026-04-12T06:40:33Z</time></trkpt><trkpt lat="45.101303660334985" lon="9.980207655910066"><ele>39.0</ele><time>2026-04-12T06:40:34Z</time></trkpt><trkpt lat="45.10121483366199" lon="9.980167393966813"><ele>39.0</ele><time>2026-04-12T06:40:35Z</time></trkpt><trkpt lat="45.10112579889633" lon="9.980128341433447"><ele>39.0</ele><time>2026-04-12T06:40:36Z</time></trkpt><trkpt lat="45.10103820131422" lon="9.980089799482089"><ele>39.0</ele><time>2026-04-12T06:40:37Z</time></trkpt><trkpt lat="45.100949367082634" lon="9.980048794821467"><ele>39.0</ele><time>2026-04-12T06:40:38Z</time></trkpt><trkpt lat="45.10086091224941" lon="9.980010884005479"><ele>39.0</ele><time>2026-04-12T06:40:39Z</time></trkpt><trkpt lat="45.100772485333984" lon="9.979971921810408"><ele>38.4</ele><time>2026-04-12T06:40:40Z</time></trkpt><trkpt lat="45.10068472124047" lon="9.979932444364469"><ele>37.8</ele><time>2026-04-12T06:40:41Z</time></trkpt><trkpt lat="45.10059853963484" lon="9.97989327606916"><ele>37.2</ele><time>2026-04-12T06:40:42Z</time></trkpt><trkpt lat="45.100513019835404" lon="9.979854963377619"><ele>36.6</ele><time>2026-04-12T06:40:43Z</time></trkpt><trkpt lat="45.10042778392475" lon="9.979818078572205"><ele>36.0</ele><time>2026-04-12T06:40:44Z</time></trkpt><trkpt lat="45.100343695449624" lon="9.979780523782756"><ele>36.0</ele><time>2026-04-12T06:40:45Z</time></trkpt><trkpt lat="45.10026007711865" lon="9.979744066328985"><ele>36.0</ele><time>2026-04-12T06:40:46Z</time></trkpt><trkpt lat="45.10017579274282" lon="9.979707979070396"><ele>36.0</ele><time>2026-04-12T06:40:47Z</time></trkpt><trkpt lat="45.10009293890575" lon="9.979672542422014"><ele>36.0</ele><time>2026-04-12T06:40:48Z</time></trkpt><trkpt lat="45.10001148810788" lon="9.9796367008371"><ele>36.0</ele><time>2026-04-12T06:40:49Z</time></trkpt><trkpt lat="45.09992930372292" lon="9.979599745526212"><ele>36.0</ele><time>2026-04-12T06:40:50Z</time></trkpt><trkpt lat="45.09985034942475" lon="9.979563502170542"><ele>36.0</ele><time>2026-04-12T06:40:51Z</time></trkpt><trkpt lat="45.09977044463056" lon="9.979528675014736"><ele>36.0</ele><time>2026-04-12T06:40:52Z</time></trkpt><trkpt lat="45.099691846195185" lon="9.979494307786881"><ele>36.0</ele><time>2026-04-12T06:40:52.999Z</time></trkpt><trkpt lat="45.099612812460265" lon="9.979460396849726"><ele>36.0</ele><time>2026-04-12T06:40:53.999Z</time></trkpt><trkpt lat="45.09953337863299" lon="9.979424416848131"><ele>36.0</ele><time>2026-04-12T06:40:54.999Z</time></trkpt><trkpt lat="45.09945436420983" lon="9.979389516495038"><ele>36.0</ele><time>2026-04-12T06:40:55.999Z</time></trkpt><trkpt lat="45.099375652332995" lon="9.97935394875557"><ele>36.0</ele><time>2026-04-12T06:40:56.999Z</time></trkpt><trkpt lat="45.099297147478495" lon="9.979317856248251"><ele>36.0</ele><time>2026-04-12T06:40:57.999Z</time></trkpt><trkpt lat="45.09921783795607" lon="9.979280342614446"><ele>36.0</ele><time>2026-04-12T06:40:58.999Z</time></trkpt><trkpt lat="45.09913841199909" lon="9.97924296736655"><ele>36.0</ele><time>2026-04-12T06:40:59.999Z</time></trkpt><trkpt lat="45.09905979678895" lon="9.979203580060727"><ele>36.0</ele><time>2026-04-12T06:41:00.999Z</time></trkpt><trkpt lat="45.098981340316264" lon="9.979160411730177"><ele>36.0</ele><time>2026-04-12T06:41:01.999Z</time></trkpt><trkpt lat="45.09890357049389" lon="9.979114177865194"><ele>36.166666666666664</ele><time>2026-04-12T06:41:02.999Z</time></trkpt><trkpt lat="45.098826103501644" lon="9.979063374066216"><ele>36.333333333333336</ele><time>2026-04-12T06:41:03.999Z</time></trkpt><trkpt lat="45.09874846117201" lon="9.97901150295795"><ele>36.5</ele><time>2026-04-12T06:41:04.999Z</time></trkpt><trkpt lat="45.09867348140462" lon="9.97895585695664"><ele>36.66666666666667</ele><time>2026-04-12T06:41:05.999Z</time></trkpt><trkpt lat="45.09859844754773" lon="9.978898051367063"><ele>36.833333333333336</ele><time>2026-04-12T06:41:06.999Z</time></trkpt><trkpt lat="45.098526221837936" lon="9.97883725031256"><ele>37.0</ele><time>2026-04-12T06:41:07.999Z</time></trkpt><trkpt lat="45.098455170885714" lon="9.978768580692703"><ele>37.0</ele><time>2026-04-12T06:41:08.999Z</time></trkpt><trkpt lat="45.09838683008568" lon="9.97869987596979"><ele>37.0</ele><time>2026-04-12T06:41:09.999Z</time></trkpt><trkpt lat="45.098319414112154" lon="9.978625751887646"><ele>37.0</ele><time>2026-04-12T06:41:10.999Z</time></trkpt><trkpt lat="45.09825361582572" lon="9.97855032946139"><ele>37.0</ele><time>2026-04-12T06:41:11.999Z</time></trkpt><trkpt lat="45.09818964511433" lon="9.97847211076202"><ele>37.0</ele><time>2026-04-12T06:41:12.999Z</time></trkpt><trkpt lat="45.09812693851578" lon="9.978394737314591"><ele>37.0</ele><time>2026-04-12T06:41:13.999Z</time></trkpt><trkpt lat="45.098066929125" lon="9.97831296231131"><ele>37.0</ele><time>2026-04-12T06:41:14.999Z</time></trkpt><trkpt lat="45.0980078912832" lon="9.978227623015455"><ele>37.0</ele><time>2026-04-12T06:41:15.999Z</time></trkpt><trkpt lat="45.09795116449407" lon="9.978140319369748"><ele>37.0</ele><time>2026-04-12T06:41:16.999Z</time></trkpt><trkpt lat="45.09789423943961" lon="9.978050806098702"><ele>37.0</ele><time>2026-04-12T06:41:17.999Z</time></trkpt><trkpt lat="45.0978373756644" lon="9.97796135100479"><ele>37.0</ele><time>2026-04-12T06:41:18.999Z</time></trkpt><trkpt lat="45.09777975386708" lon="9.977874597250267"><ele>37.0</ele><time>2026-04-12T06:41:19.999Z</time></trkpt><trkpt lat="45.09772194609245" lon="9.977786937984291"><ele>37.0</ele><time>2026-04-12T06:41:20.999Z</time></trkpt><trkpt lat="45.09766564067985" lon="9.977701568869241"><ele>37.0</ele><time>2026-04-12T06:41:21.999Z</time></trkpt><trkpt lat="45.09760830660609" lon="9.977614042935114"><ele>37.0</ele><time>2026-04-12T06:41:22.999Z</time></trkpt><trkpt lat="45.097551822988656" lon="9.977528431620769"><ele>37.0</ele><time>2026-04-12T06:41:23.999Z</time></trkpt><trkpt lat="45.097495786452626" lon="9.977440695815194"><ele>37.0</ele><time>2026-04-12T06:41:24.999Z</time></trkpt><trkpt lat="45.09743934701398" lon="9.977354509365545"><ele>37.0</ele><time>2026-04-12T06:41:25.999Z</time></trkpt><trkpt lat="45.0973846979686" lon="9.977268979952568"><ele>37.333333333333336</ele><time>2026-04-12T06:41:26.999Z</time></trkpt><trkpt lat="45.09732939535823" lon="9.977182560780728"><ele>37.66666666666667</ele><time>2026-04-12T06:41:27.999Z</time></trkpt><trkpt lat="45.097273668601275" lon="9.97709664368934"><ele>38.0</ele><time>2026-04-12T06:41:28.999Z</time></trkpt><trkpt lat="45.09721750695286" lon="9.977011742246447"><ele>38.333333333333336</ele><time>2026-04-12T06:41:29.999Z</time></trkpt><trkpt lat="45.09716188256308" lon="9.976926549824361"><ele>38.666666666666664</ele><time>2026-04-12T06:41:30.999Z</time></trkpt><trkpt lat="45.09710595577481" lon="9.976842862848242"><ele>39.0</ele><time>2026-04-12T06:41:31.999Z</time></trkpt><trkpt lat="45.097049930316956" lon="9.976757462218636"><ele>38.833333333333336</ele><time>2026-04-12T06:41:32.999Z</time></trkpt><trkpt lat="45.09699350161957" lon="9.976675390883603"><ele>38.666666666666664</ele><time>2026-04-12T06:41:33.999Z</time></trkpt><trkpt lat="45.096938666730914" lon="9.9765889510775"><ele>38.5</ele><time>2026-04-12T06:41:34.999Z</time></trkpt><trkpt lat="45.09688257094854" lon="9.976504231467073"><ele>38.33333333333333</ele><time>2026-04-12T06:41:35.999Z</time></trkpt><trkpt lat="45.09682777993121" lon="9.976421489274612"><ele>38.166666666666664</ele><time>2026-04-12T06:41:36.999Z</time></trkpt><trkpt lat="45.09677236581123" lon="9.976335461370503"><ele>38.0</ele><time>2026-04-12T06:41:37.999Z</time></trkpt><trkpt lat="45.09671619374557" lon="9.976252380012651"><ele>38.0</ele><time>2026-04-12T06:41:38.999Z</time></trkpt><trkpt lat="45.09665932556378" lon="9.976166228719295"><ele>38.0</ele><time>2026-04-12T06:41:39.999Z</time></trkpt><trkpt lat="45.0966031003993" lon="9.97607977531445"><ele>38.0</ele><time>2026-04-12T06:41:40.999Z</time></trkpt><trkpt lat="45.096547990985215" lon="9.975994642507594"><ele>38.0</ele><time>2026-04-12T06:41:41.999Z</time></trkpt><trkpt lat="45.09649286947619" lon="9.975910041854913"><ele>38.0</ele><time>2026-04-12T06:41:42.999Z</time></trkpt><trkpt lat="45.09643728988342" lon="9.975823572324988"><ele>38.0</ele><time>2026-04-12T06:41:43.999Z</time></trkpt><trkpt lat="45.096381869756854" lon="9.975736932588896"><ele>38.0</ele><time>2026-04-12T06:41:44.999Z</time></trkpt><trkpt lat="45.096327142694676" lon="9.97564953182224"><ele>38.0</ele><time>2026-04-12T06:41:45.998Z</time></trkpt><trkpt lat="45.09627451485088" lon="9.975560457662976"><ele>38.0</ele><time>2026-04-12T06:41:46.998Z</time></trkpt><trkpt lat="45.09622233517431" lon="9.975470940469037"><ele>38.0</ele><time>2026-04-12T06:41:47.998Z</time></trkpt><trkpt lat="45.09617290293579" lon="9.975380543995264"><ele>38.0</ele><time>2026-04-12T06:41:48.998Z</time></trkpt><trkpt lat="45.096123964267804" lon="9.97528717126068"><ele>38.0</ele><time>2026-04-12T06:41:49.998Z</time></trkpt><trkpt lat="45.096077315180295" lon="9.975189879078332"><ele>38.0</ele><time>2026-04-12T06:41:50.998Z</time></trkpt><trkpt lat="45.09603249760211" lon="9.975090847070135"><ele>38.0</ele><time>2026-04-12T06:41:51.998Z</time></trkpt><trkpt lat="45.095988365763596" lon="9.974989512144564"><ele>38.0</ele><time>2026-04-12T06:41:52.998Z</time></trkpt><trkpt lat="45.09594627872925" lon="9.974890144884073"><ele>38.0</ele><time>2026-04-12T06:41:53.998Z</time></trkpt><trkpt lat="45.095904176326" lon="9.974789291339214"><ele>38.0</ele><time>2026-04-12T06:41:54.998Z</time></trkpt><trkpt lat="45.09586155737622" lon="9.97468904276086"><ele>38.0</ele><time>2026-04-12T06:41:55.998Z</time></trkpt><trkpt lat="45.095819367588" lon="9.97459006570586"><ele>38.0</ele><time>2026-04-12T06:41:56.998Z</time></trkpt><trkpt lat="45.09577801547738" lon="9.974490429091247"><ele>38.0</ele><time>2026-04-12T06:41:57.998Z</time></trkpt><trkpt lat="45.09573668802811" lon="9.974391003213013"><ele>38.0</ele><time>2026-04-12T06:41:58.998Z</time></trkpt><trkpt lat="45.095695582220245" lon="9.974289087152744"><ele>38.0</ele><time>2026-04-12T06:41:59.998Z</time></trkpt><trkpt lat="45.09565381825094" lon="9.974184471497566"><ele>38.0</ele><time>2026-04-12T06:42:00.998Z</time></trkpt><trkpt lat="45.09561404733704" lon="9.974083208695017"><ele>38.0</ele><time>2026-04-12T06:42:02Z</time></trkpt><trkpt lat="45.0955748436055" lon="9.973982215036443"><ele>38.0</ele><time>2026-04-12T06:42:03Z</time></trkpt><trkpt lat="45.09553329472169" lon="9.973881970987906"><ele>38.0</ele><time>2026-04-12T06:42:04Z</time></trkpt><trkpt lat="45.09549203158015" lon="9.973783776653704"><ele>38.0</ele><time>2026-04-12T06:42:05Z</time></trkpt><trkpt lat="45.09545147935556" lon="9.973682522540637"><ele>38.0</ele><time>2026-04-12T06:42:06Z</time></trkpt><trkpt lat="45.095412907597876" lon="9.973578992649138"><ele>38.0</ele><time>2026-04-12T06:42:07Z</time></trkpt><trkpt lat="45.09537337897811" lon="9.973477191559102"><ele>38.0</ele><time>2026-04-12T06:42:08Z</time></trkpt><trkpt lat="45.0953319257858" lon="9.973375098208166"><ele>37.83333333333333</ele><time>2026-04-12T06:42:09Z</time></trkpt><trkpt lat="45.095290944179865" lon="9.973272653607044"><ele>37.666666666666664</ele><time>2026-04-12T06:42:10Z</time></trkpt><trkpt lat="45.09525124958471" lon="9.973171028918824"><ele>37.5</ele><time>2026-04-12T06:42:11Z</time></trkpt><trkpt lat="45.09520986141574" lon="9.973068836457156"><ele>37.333333333333336</ele><time>2026-04-12T06:42:12Z</time></trkpt><trkpt lat="45.0951684746492" lon="9.972966535426481"><ele>37.16666666666667</ele><time>2026-04-12T06:42:13Z</time></trkpt><trkpt lat="45.095128723858984" lon="9.972865373635878"><ele>37.0</ele><time>2026-04-12T06:42:14Z</time></trkpt><trkpt lat="45.0950869719201" lon="9.972762461125702"><ele>37.0</ele><time>2026-04-12T06:42:15Z</time></trkpt><trkpt lat="45.095048280206626" lon="9.972656328237097"><ele>37.0</ele><time>2026-04-12T06:42:16Z</time></trkpt><trkpt lat="45.09500915238177" lon="9.972552012960486"><ele>37.0</ele><time>2026-04-12T06:42:17Z</time></trkpt><trkpt lat="45.094968729866956" lon="9.972445985903091"><ele>37.0</ele><time>2026-04-12T06:42:18Z</time></trkpt><trkpt lat="45.09492396082457" lon="9.972342332676655"><ele>37.0</ele><time>2026-04-12T06:42:19Z</time></trkpt><trkpt lat="45.09487881972166" lon="9.972240162899377"><ele>37.0</ele><time>2026-04-12T06:42:20Z</time></trkpt><trkpt lat="45.094836628850764" lon="9.972135884329031"><ele>36.66666666666667</ele><time>2026-04-12T06:42:21Z</time></trkpt><trkpt lat="45.09479586523924" lon="9.972032430682386"><ele>36.333333333333336</ele><time>2026-04-12T06:42:22Z</time></trkpt><trkpt lat="45.094754112259174" lon="9.971928272364972"><ele>36.0</ele><time>2026-04-12T06:42:23Z</time></trkpt><trkpt lat="45.094712283583696" lon="9.971826038794877"><ele>35.666666666666664</ele><time>2026-04-12T06:42:24Z</time></trkpt><trkpt lat="45.09467073836252" lon="9.97172230112633"><ele>35.33333333333333</ele><time>2026-04-12T06:42:25Z</time></trkpt><trkpt lat="45.09462886550053" lon="9.971620308201917"><ele>35.0</ele><time>2026-04-12T06:42:26Z</time></trkpt><trkpt lat="45.09458904833673" lon="9.971515779773304"><ele>35.0</ele><time>2026-04-12T06:42:27Z</time></trkpt><trkpt lat="45.09454705557521" lon="9.971411510996745"><ele>35.0</ele><time>2026-04-12T06:42:28Z</time></trkpt><trkpt lat="45.09450499409795" lon="9.971309107361932"><ele>35.0</ele><time>2026-04-12T06:42:29Z</time></trkpt><trkpt lat="45.09446277590853" lon="9.9712050743516"><ele>35.0</ele><time>2026-04-12T06:42:30Z</time></trkpt><trkpt lat="45.09442225033574" lon="9.971100717492044"><ele>35.0</ele><time>2026-04-12T06:42:31Z</time></trkpt><trkpt lat="45.09438071981745" lon="9.970993648652371"><ele>35.0</ele><time>2026-04-12T06:42:32Z</time></trkpt><trkpt lat="45.094339784373254" lon="9.970889661830125"><ele>35.0</ele><time>2026-04-12T06:42:33Z</time></trkpt><trkpt lat="45.09429838826053" lon="9.970781797563465"><ele>35.0</ele><time>2026-04-12T06:42:34Z</time></trkpt><trkpt lat="45.094257372644" lon="9.97067808339882"><ele>35.0</ele><time>2026-04-12T06:42:35Z</time></trkpt><trkpt lat="45.09421468635302" lon="9.970571736841775"><ele>35.0</ele><time>2026-04-12T06:42:36Z</time></trkpt><trkpt lat="45.09417260020747" lon="9.970468457769861"><ele>35.0</ele><time>2026-04-12T06:42:37Z</time></trkpt><trkpt lat="45.0941315754609" lon="9.97036247765243"><ele>35.0</ele><time>2026-04-12T06:42:38Z</time></trkpt><trkpt lat="45.09409164396798" lon="9.970258385522575"><ele>35.0</ele><time>2026-04-12T06:42:39Z</time></trkpt><trkpt lat="45.09405078037318" lon="9.970152476909574"><ele>35.0</ele><time>2026-04-12T06:42:40Z</time></trkpt><trkpt lat="45.094009766766526" lon="9.970047869931113"><ele>35.0</ele><time>2026-04-12T06:42:41Z</time></trkpt><trkpt lat="45.09397007551942" lon="9.969942913156155"><ele>35.0</ele><time>2026-04-12T06:42:42Z</time></trkpt><trkpt lat="45.0939295572289" lon="9.96983819384105"><ele>35.0</ele><time>2026-04-12T06:42:43Z</time></trkpt><trkpt lat="45.09388820131117" lon="9.969731659912506"><ele>35.0</ele><time>2026-04-12T06:42:44Z</time></trkpt><trkpt lat="45.09384849289171" lon="9.96962466385287"><ele>35.0</ele><time>2026-04-12T06:42:45Z</time></trkpt><trkpt lat="45.09380703335921" lon="9.969518684810923"><ele>35.0</ele><time>2026-04-12T06:42:46Z</time></trkpt><trkpt lat="45.093766777240994" lon="9.969412716096615"><ele>35.0</ele><time>2026-04-12T06:42:47Z</time></trkpt><trkpt lat="45.093726546116564" lon="9.96930565388332"><ele>35.0</ele><time>2026-04-12T06:42:48Z</time></trkpt><trkpt lat="45.093685703653954" lon="9.969200742186386"><ele>35.0</ele><time>2026-04-12T06:42:49Z</time></trkpt><trkpt lat="45.09364570420634" lon="9.969095087040557"><ele>35.0</ele><time>2026-04-12T06:42:50Z</time></trkpt><trkpt lat="45.09360344753123" lon="9.968988169664664"><ele>35.33333333333333</ele><time>2026-04-12T06:42:51Z</time></trkpt><trkpt lat="45.09356200095993" lon="9.968882681635273"><ele>35.666666666666664</ele><time>2026-04-12T06:42:52Z</time></trkpt><trkpt lat="45.09352142422627" lon="9.968778881177322"><ele>36.0</ele><time>2026-04-12T06:42:53Z</time></trkpt><trkpt lat="45.093480240855634" lon="9.968672871031595"><ele>36.333333333333336</ele><time>2026-04-12T06:42:54Z</time></trkpt><trkpt lat="45.09343944325294" lon="9.968569217530048"><ele>36.66666666666667</ele><time>2026-04-12T06:42:55Z</time></trkpt><trkpt lat="45.09340030641339" lon="9.968466092358595"><ele>37.0</ele><time>2026-04-12T06:42:55.999Z</time></trkpt><trkpt lat="45.093360010129274" lon="9.968363534045523"><ele>36.833333333333336</ele><time>2026-04-12T06:42:56.999Z</time></trkpt><trkpt lat="45.09331968151451" lon="9.968260538497425"><ele>36.66666666666667</ele><time>2026-04-12T06:42:57.999Z</time></trkpt><trkpt lat="45.093279957801876" lon="9.968157204870275"><ele>36.5</ele><time>2026-04-12T06:42:58.999Z</time></trkpt><trkpt lat="45.09323989034616" lon="9.968053820608105"><ele>36.333333333333336</ele><time>2026-04-12T06:42:59.999Z</time></trkpt><trkpt lat="45.09320063698495" lon="9.967950525624953"><ele>36.166666666666664</ele><time>2026-04-12T06:43:00.999Z</time></trkpt><trkpt lat="45.09316079999521" lon="9.967844927485444"><ele>36.0</ele><time>2026-04-12T06:43:01.999Z</time></trkpt><trkpt lat="45.093120179304734" lon="9.967741663332928"><ele>35.833333333333336</ele><time>2026-04-12T06:43:02.999Z</time></trkpt><trkpt lat="45.09307993513933" lon="9.967638875268573"><ele>35.666666666666664</ele><time>2026-04-12T06:43:03.999Z</time></trkpt><trkpt lat="45.09303945267888" lon="9.967533836636582"><ele>35.5</ele><time>2026-04-12T06:43:04.999Z</time></trkpt><trkpt lat="45.09300008937288" lon="9.967430777109039"><ele>35.33333333333333</ele><time>2026-04-12T06:43:05.999Z</time></trkpt><trkpt lat="45.09296036016499" lon="9.96732898456317"><ele>35.166666666666664</ele><time>2026-04-12T06:43:06.999Z</time></trkpt><trkpt lat="45.09292094542541" lon="9.967225704602836"><ele>35.0</ele><time>2026-04-12T06:43:07.999Z</time></trkpt><trkpt lat="45.092880904676065" lon="9.967122192205888"><ele>35.33333333333333</ele><time>2026-04-12T06:43:08.999Z</time></trkpt><trkpt lat="45.092841814752376" lon="9.967018828160228"><ele>35.666666666666664</ele><time>2026-04-12T06:43:09.999Z</time></trkpt><trkpt lat="45.092804041464156" lon="9.96691738153573"><ele>36.0</ele><time>2026-04-12T06:43:10.999Z</time></trkpt><trkpt lat="45.09276654546813" lon="9.966815507826423"><ele>36.333333333333336</ele><time>2026-04-12T06:43:11.999Z</time></trkpt><trkpt lat="45.09272832154891" lon="9.966717520797548"><ele>36.66666666666667</ele><time>2026-04-12T06:43:12.999Z</time></trkpt><trkpt lat="45.092690255064404" lon="9.966616524480232"><ele>37.0</ele><time>2026-04-12T06:43:13.999Z</time></trkpt><trkpt lat="45.09265364683474" lon="9.966515005986064"><ele>37.16666666666667</ele><time>2026-04-12T06:43:14.999Z</time></trkpt><trkpt lat="45.0926173739961" lon="9.966414688445406"><ele>37.333333333333336</ele><time>2026-04-12T06:43:15.999Z</time></trkpt><trkpt lat="45.09258738764826" lon="9.966307907813576"><ele>37.5</ele><time>2026-04-12T06:43:16.999Z</time></trkpt><trkpt lat="45.092560744929315" lon="9.966201144335447"><ele>37.666666666666664</ele><time>2026-04-12T06:43:17.999Z</time></trkpt><trkpt lat="45.09253284635317" lon="9.966094776054375"><ele>37.83333333333333</ele><time>2026-04-12T06:43:18.999Z</time></trkpt><trkpt lat="45.09250501938127" lon="9.965984057445574"><ele>38.0</ele><time>2026-04-12T06:43:19.999Z</time></trkpt><trkpt lat="45.092477221305934" lon="9.965874939173938"><ele>38.0</ele><time>2026-04-12T06:43:20.999Z</time></trkpt><trkpt lat="45.0924583300697" lon="9.965761699215319"><ele>38.0</ele><time>2026-04-12T06:43:21.999Z</time></trkpt><trkpt lat="45.092448100647125" lon="9.965648397729021"><ele>38.0</ele><time>2026-04-12T06:43:22.999Z</time></trkpt><trkpt lat="45.09243295286213" lon="9.965538930406135"><ele>38.0</ele><time>2026-04-12T06:43:23.999Z</time></trkpt><trkpt lat="45.09241607988118" lon="9.96543728774639"><ele>38.0</ele><time>2026-04-12T06:43:24.999Z</time></trkpt><trkpt lat="45.092393230064424" lon="9.965329568857753"><ele>38.0</ele><time>2026-04-12T06:43:25.999Z</time></trkpt><trkpt lat="45.09235805582781" lon="9.965224322561333"><ele>37.83333333333333</ele><time>2026-04-12T06:43:26.999Z</time></trkpt><trkpt lat="45.09232836274248" lon="9.965116554012129"><ele>37.666666666666664</ele><time>2026-04-12T06:43:27.999Z</time></trkpt><trkpt lat="45.09233046377449" lon="9.964998141176201"><ele>37.5</ele><time>2026-04-12T06:43:28.999Z</time></trkpt><trkpt lat="45.09231770593853" lon="9.96488326982227"><ele>37.333333333333336</ele><time>2026-04-12T06:43:29.999Z</time></trkpt><trkpt lat="45.092304707578236" lon="9.964766232790202"><ele>37.16666666666667</ele><time>2026-04-12T06:43:30.999Z</time></trkpt><trkpt lat="45.092293569226044" lon="9.964651228340854"><ele>37.0</ele><time>2026-04-12T06:43:31.999Z</time></trkpt><trkpt lat="45.0922818741422" lon="9.964535889900572"><ele>37.0</ele><time>2026-04-12T06:43:32.999Z</time></trkpt><trkpt lat="45.09226908743613" lon="9.964420758596784"><ele>37.0</ele><time>2026-04-12T06:43:33.999Z</time></trkpt><trkpt lat="45.09225659312579" lon="9.964308260020953"><ele>37.0</ele><time>2026-04-12T06:43:34.999Z</time></trkpt><trkpt lat="45.09224434052112" lon="9.964197937771877"><ele>37.0</ele><time>2026-04-12T06:43:35.999Z</time></trkpt><trkpt lat="45.09223252739001" lon="9.964091572629597"><ele>37.0</ele><time>2026-04-12T06:43:36.999Z</time></trkpt><trkpt lat="45.09201139114409" lon="9.963991111693726"><ele>37.0</ele><time>2026-04-12T06:43:38.999Z</time></trkpt><trkpt lat="45.09192615524827" lon="9.963966778839229"><ele>37.0</ele><time>2026-04-12T06:43:39.999Z</time></trkpt><trkpt lat="45.09184760975136" lon="9.963939591970364"><ele>37.0</ele><time>2026-04-12T06:43:40.999Z</time></trkpt><trkpt lat="45.09177166315578" lon="9.963907692409071"><ele>37.0</ele><time>2026-04-12T06:43:41.999Z</time></trkpt><trkpt lat="45.09169470798816" lon="9.963864804657888"><ele>37.0</ele><time>2026-04-12T06:43:42.999Z</time></trkpt><trkpt lat="45.09162600958992" lon="9.963800806162748"><ele>37.0</ele><time>2026-04-12T06:43:43.999Z</time></trkpt><trkpt lat="45.091566395732904" lon="9.963718920902439"><ele>37.0</ele><time>2026-04-12T06:43:44.999Z</time></trkpt><trkpt lat="45.091515407142545" lon="9.963625445282425"><ele>37.0</ele><time>2026-04-12T06:43:45.999Z</time></trkpt><trkpt lat="45.09146927534327" lon="9.963527247627775"><ele>37.0</ele><time>2026-04-12T06:43:46.999Z</time></trkpt><trkpt lat="45.09141914627203" lon="9.963439657203857"><ele>37.0</ele><time>2026-04-12T06:43:47.998Z</time></trkpt><trkpt lat="45.091361697552344" lon="9.96335595271829"><ele>37.0</ele><time>2026-04-12T06:43:48.998Z</time></trkpt><trkpt lat="45.09129979536473" lon="9.963276944304594"><ele>37.0</ele><time>2026-04-12T06:43:49.998Z</time></trkpt><trkpt lat="45.09123731360066" lon="9.963202564015242"><ele>37.0</ele><time>2026-04-12T06:43:50.998Z</time></trkpt><trkpt lat="45.09116836504513" lon="9.963135265188845"><ele>37.0</ele><time>2026-04-12T06:43:51.998Z</time></trkpt><trkpt lat="45.091097685703346" lon="9.963072475065518"><ele>37.0</ele><time>2026-04-12T06:43:52.998Z</time></trkpt><trkpt lat="45.09103141114" lon="9.963007202099202"><ele>37.0</ele><time>2026-04-12T06:43:53.998Z</time></trkpt><trkpt lat="45.09096505103077" lon="9.962940106155363"><ele>37.0</ele><time>2026-04-12T06:43:54.998Z</time></trkpt><trkpt lat="45.09089894693332" lon="9.962870610395695"><ele>37.0</ele><time>2026-04-12T06:43:55.998Z</time></trkpt><trkpt lat="45.09083180813662" lon="9.962802677377894"><ele>37.0</ele><time>2026-04-12T06:43:56.998Z</time></trkpt><trkpt lat="45.090764986637666" lon="9.962735840957631"><ele>37.0</ele><time>2026-04-12T06:43:57.998Z</time></trkpt><trkpt lat="45.09069828602221" lon="9.962672115289035"><ele>37.0</ele><time>2026-04-12T06:43:58.998Z</time></trkpt><trkpt lat="45.09063019742543" lon="9.962605947123023"><ele>37.0</ele><time>2026-04-12T06:43:59.998Z</time></trkpt><trkpt lat="45.090563073718805" lon="9.962537672337211"><ele>37.0</ele><time>2026-04-12T06:44:00.998Z</time></trkpt><trkpt lat="45.09049559993021" lon="9.962470790711695"><ele>37.0</ele><time>2026-04-12T06:44:01.998Z</time></trkpt><trkpt lat="45.090426640757464" lon="9.9624037261402"><ele>37.0</ele><time>2026-04-12T06:44:02.998Z</time></trkpt><trkpt lat="45.09035839251168" lon="9.962339272855042"><ele>37.0</ele><time>2026-04-12T06:44:03.998Z</time></trkpt><trkpt lat="45.09029097305463" lon="9.962273861920563"><ele>37.0</ele><time>2026-04-12T06:44:04.998Z</time></trkpt><trkpt lat="45.0902212778381" lon="9.962207593586097"><ele>37.0</ele><time>2026-04-12T06:44:05.998Z</time></trkpt><trkpt lat="45.09015185217629" lon="9.962145539576246"><ele>37.0</ele><time>2026-04-12T06:44:06.998Z</time></trkpt><trkpt lat="45.09008196663366" lon="9.962082166098018"><ele>37.0</ele><time>2026-04-12T06:44:08Z</time></trkpt><trkpt lat="45.0900116843798" lon="9.962019301729693"><ele>37.0</ele><time>2026-04-12T06:44:09Z</time></trkpt><trkpt lat="45.0899383982356" lon="9.961959409131119"><ele>37.0</ele><time>2026-04-12T06:44:10Z</time></trkpt><trkpt lat="45.0898653583386" lon="9.961906073501666"><ele>37.0</ele><time>2026-04-12T06:44:11Z</time></trkpt><trkpt lat="45.089790933278806" lon="9.961855621988283"><ele>37.0</ele><time>2026-04-12T06:44:12Z</time></trkpt><trkpt lat="45.08971588055994" lon="9.961807184917996"><ele>37.0</ele><time>2026-04-12T06:44:13Z</time></trkpt><trkpt lat="45.08963824117329" lon="9.961765556050635"><ele>37.0</ele><time>2026-04-12T06:44:14Z</time></trkpt><trkpt lat="45.089559952729886" lon="9.961730342738425"><ele>36.833333333333336</ele><time>2026-04-12T06:44:15Z</time></trkpt><trkpt lat="45.089480146620986" lon="9.961699341868128"><ele>36.66666666666667</ele><time>2026-04-12T06:44:16Z</time></trkpt><trkpt lat="45.0893996831218" lon="9.961672965977279"><ele>36.5</ele><time>2026-04-12T06:44:17Z</time></trkpt><trkpt lat="45.08931933523127" lon="9.961651985744277"><ele>36.333333333333336</ele><time>2026-04-12T06:44:18Z</time></trkpt><trkpt lat="45.08923653127457" lon="9.961639225733954"><ele>36.166666666666664</ele><time>2026-04-12T06:44:19Z</time></trkpt><trkpt lat="45.08915415099409" lon="9.961630953122421"><ele>36.0</ele><time>2026-04-12T06:44:20Z</time></trkpt><trkpt lat="45.08907232000918" lon="9.961625143803039"><ele>36.0</ele><time>2026-04-12T06:44:21Z</time></trkpt><trkpt lat="45.08899072975764" lon="9.961621066645383"><ele>36.0</ele><time>2026-04-12T06:44:22Z</time></trkpt><trkpt lat="45.08890947964269" lon="9.961618545432671"><ele>36.0</ele><time>2026-04-12T06:44:23Z</time></trkpt><trkpt lat="45.08882721484716" lon="9.961612482850114"><ele>36.0</ele><time>2026-04-12T06:44:24Z</time></trkpt><trkpt lat="45.088745511687556" lon="9.96160697052626"><ele>36.0</ele><time>2026-04-12T06:44:25Z</time></trkpt><trkpt lat="45.08866363378031" lon="9.961604670543329"><ele>36.0</ele><time>2026-04-12T06:44:26Z</time></trkpt><trkpt lat="45.08858491314612" lon="9.961600132161562"><ele>36.0</ele><time>2026-04-12T06:44:27Z</time></trkpt><trkpt lat="45.0885022561225" lon="9.961588339956423"><ele>36.0</ele><time>2026-04-12T06:44:28Z</time></trkpt><trkpt lat="45.08842204166476" lon="9.96157986471104"><ele>36.0</ele><time>2026-04-12T06:44:29Z</time></trkpt><trkpt lat="45.0883422938741" lon="9.961570612894992"><ele>36.0</ele><time>2026-04-12T06:44:30Z</time></trkpt><trkpt lat="45.088262015240005" lon="9.961562201694438"><ele>36.0</ele><time>2026-04-12T06:44:31Z</time></trkpt><trkpt lat="45.08818376083322" lon="9.961553115441944"><ele>36.0</ele><time>2026-04-12T06:44:32Z</time></trkpt><trkpt lat="45.08810345354252" lon="9.961542943417369"><ele>36.333333333333336</ele><time>2026-04-12T06:44:33Z</time></trkpt><trkpt lat="45.08802649045324" lon="9.961511551797365"><ele>36.666666666666664</ele><time>2026-04-12T06:44:34Z</time></trkpt><trkpt lat="45.08794686165137" lon="9.96149895249959"><ele>37.0</ele><time>2026-04-12T06:44:35Z</time></trkpt><trkpt lat="45.08786696776833" lon="9.961484727241485"><ele>37.33333333333333</ele><time>2026-04-12T06:44:36Z</time></trkpt><trkpt lat="45.087787380323356" lon="9.961470606341823"><ele>37.666666666666664</ele><time>2026-04-12T06:44:37Z</time></trkpt><trkpt lat="45.08770679922833" lon="9.961456089561342"><ele>38.0</ele><time>2026-04-12T06:44:38Z</time></trkpt><trkpt lat="45.08762787993354" lon="9.961440165323928"><ele>38.0</ele><time>2026-04-12T06:44:39Z</time></trkpt><trkpt lat="45.08754621892797" lon="9.961447103866012"><ele>38.0</ele><time>2026-04-12T06:44:40Z</time></trkpt><trkpt lat="45.08746699798445" lon="9.96142720531619"><ele>38.0</ele><time>2026-04-12T06:44:41Z</time></trkpt><trkpt lat="45.087392094932454" lon="9.96138584688544"><ele>38.0</ele><time>2026-04-12T06:44:42Z</time></trkpt><trkpt lat="45.08731264245734" lon="9.961365311616587"><ele>38.0</ele><time>2026-04-12T06:44:43Z</time></trkpt><trkpt lat="45.08723384361252" lon="9.96134494529176"><ele>38.0</ele><time>2026-04-12T06:44:44Z</time></trkpt><trkpt lat="45.08715359229956" lon="9.961328593240186"><ele>37.83333333333333</ele><time>2026-04-12T06:44:45Z</time></trkpt><trkpt lat="45.08707289943447" lon="9.961314126937554"><ele>37.666666666666664</ele><time>2026-04-12T06:44:46Z</time></trkpt><trkpt lat="45.086991622416214" lon="9.961327831654911"><ele>37.5</ele><time>2026-04-12T06:44:47Z</time></trkpt><trkpt lat="45.086911221632896" lon="9.961317205543905"><ele>37.333333333333336</ele><time>2026-04-12T06:44:48Z</time></trkpt><trkpt lat="45.086830043903895" lon="9.961310874614924"><ele>37.16666666666667</ele><time>2026-04-12T06:44:49Z</time></trkpt><trkpt lat="45.086748603569944" lon="9.9613055108377"><ele>37.0</ele><time>2026-04-12T06:44:50Z</time></trkpt><trkpt lat="45.08666829942823" lon="9.961300992946349"><ele>37.0</ele><time>2026-04-12T06:44:51Z</time></trkpt><trkpt lat="45.08658670986309" lon="9.961298970837827"><ele>37.0</ele><time>2026-04-12T06:44:52Z</time></trkpt><trkpt lat="45.08650496797992" lon="9.961298299335716"><ele>37.0</ele><time>2026-04-12T06:44:53Z</time></trkpt><trkpt lat="45.08642512413029" lon="9.961301570984206"><ele>37.0</ele><time>2026-04-12T06:44:54Z</time></trkpt><trkpt lat="45.08634367801522" lon="9.96130410443195"><ele>37.0</ele><time>2026-04-12T06:44:55Z</time></trkpt><trkpt lat="45.08626189775321" lon="9.961306474784227"><ele>37.0</ele><time>2026-04-12T06:44:56Z</time></trkpt><trkpt lat="45.08618116147709" lon="9.96130734452318"><ele>37.0</ele><time>2026-04-12T06:44:57Z</time></trkpt><trkpt lat="45.086100455755144" lon="9.961308580314732"><ele>37.0</ele><time>2026-04-12T06:44:58Z</time></trkpt><trkpt lat="45.08601878833372" lon="9.961311877885523"><ele>37.0</ele><time>2026-04-12T06:44:59Z</time></trkpt><trkpt lat="45.08594057540118" lon="9.961319507994462"><ele>37.0</ele><time>2026-04-12T06:45:00Z</time></trkpt><trkpt lat="45.085862593623354" lon="9.961331947239303"><ele>37.0</ele><time>2026-04-12T06:45:00.999Z</time></trkpt><trkpt lat="45.085783795913386" lon="9.961350883047462"><ele>37.0</ele><time>2026-04-12T06:45:01.999Z</time></trkpt><trkpt lat="45.08570754378545" lon="9.961373177640693"><ele>37.16666666666667</ele><time>2026-04-12T06:45:02.999Z</time></trkpt><trkpt lat="45.085631331461954" lon="9.961399102318074"><ele>37.333333333333336</ele><time>2026-04-12T06:45:03.999Z</time></trkpt><trkpt lat="45.08555631284852" lon="9.96142987459428"><ele>37.5</ele><time>2026-04-12T06:45:04.999Z</time></trkpt><trkpt lat="45.0854821610988" lon="9.961458122129196"><ele>37.666666666666664</ele><time>2026-04-12T06:45:05.999Z</time></trkpt><trkpt lat="45.08540509490128" lon="9.961484459669391"><ele>37.83333333333333</ele><time>2026-04-12T06:45:06.999Z</time></trkpt><trkpt lat="45.085326943532884" lon="9.961511989764409"><ele>38.0</ele><time>2026-04-12T06:45:07.999Z</time></trkpt><trkpt lat="45.08525030976052" lon="9.961540138732511"><ele>38.0</ele><time>2026-04-12T06:45:08.999Z</time></trkpt><trkpt lat="45.085171400218684" lon="9.961565476574565"><ele>38.0</ele><time>2026-04-12T06:45:09.999Z</time></trkpt><trkpt lat="45.085092744421225" lon="9.961592095004685"><ele>38.0</ele><time>2026-04-12T06:45:10.999Z</time></trkpt><trkpt lat="45.08501738973429" lon="9.961624372219775"><ele>38.0</ele><time>2026-04-12T06:45:11.999Z</time></trkpt><trkpt lat="45.084937873581715" lon="9.9616540418585"><ele>38.0</ele><time>2026-04-12T06:45:12.999Z</time></trkpt><trkpt lat="45.08486039416319" lon="9.96168481539822"><ele>38.0</ele><time>2026-04-12T06:45:13.999Z</time></trkpt><trkpt lat="45.08478402964332" lon="9.96171052989193"><ele>37.83333333333333</ele><time>2026-04-12T06:45:14.999Z</time></trkpt><trkpt lat="45.08470668001338" lon="9.96173597213378"><ele>37.666666666666664</ele><time>2026-04-12T06:45:15.999Z</time></trkpt><trkpt lat="45.08462926879536" lon="9.961760758213325"><ele>37.5</ele><time>2026-04-12T06:45:16.999Z</time></trkpt><trkpt lat="45.08455145443862" lon="9.961785413616754"><ele>37.333333333333336</ele><time>2026-04-12T06:45:17.999Z</time></trkpt><trkpt lat="45.0844771568418" lon="9.961815160267752"><ele>37.16666666666667</ele><time>2026-04-12T06:45:18.999Z</time></trkpt><trkpt lat="45.08440313902199" lon="9.961844829972614"><ele>37.0</ele><time>2026-04-12T06:45:19.999Z</time></trkpt><trkpt lat="45.08432851695237" lon="9.961874529641282"><ele>37.0</ele><time>2026-04-12T06:45:20.999Z</time></trkpt><trkpt lat="45.08425632250433" lon="9.961902688763757"><ele>37.0</ele><time>2026-04-12T06:45:21.999Z</time></trkpt><trkpt lat="45.08418633997758" lon="9.961936390145514"><ele>37.0</ele><time>2026-04-12T06:45:22.999Z</time></trkpt><trkpt lat="45.08411909337343" lon="9.961975315606683"><ele>37.0</ele><time>2026-04-12T06:45:23.999Z</time></trkpt><trkpt lat="45.08405006504538" lon="9.962011435173817"><ele>37.0</ele><time>2026-04-12T06:45:24.999Z</time></trkpt><trkpt lat="45.0839842054284" lon="9.962052467899747"><ele>37.0</ele><time>2026-04-12T06:45:25.999Z</time></trkpt><trkpt lat="45.0839209077569" lon="9.962094313206931"><ele>37.0</ele><time>2026-04-12T06:45:26.999Z</time></trkpt><trkpt lat="45.08385652634032" lon="9.962139175959827"><ele>37.285714285714285</ele><time>2026-04-12T06:45:27.999Z</time></trkpt><trkpt lat="45.08379497430757" lon="9.962185526655697"><ele>37.57142857142857</ele><time>2026-04-12T06:45:28.999Z</time></trkpt><trkpt lat="45.08373161433128" lon="9.962231637371184"><ele>37.85714285714286</ele><time>2026-04-12T06:45:29.999Z</time></trkpt><trkpt lat="45.08367009818193" lon="9.962281564275179"><ele>38.14285714285714</ele><time>2026-04-12T06:45:30.999Z</time></trkpt><trkpt lat="45.083614461748944" lon="9.962335313066543"><ele>38.42857142857142</ele><time>2026-04-12T06:45:31.999Z</time></trkpt><trkpt lat="45.08355540507388" lon="9.962389574167178"><ele>38.714285714285715</ele><time>2026-04-12T06:45:32.999Z</time></trkpt><trkpt lat="45.08349509755334" lon="9.962440503085485"><ele>39.0</ele><time>2026-04-12T06:45:33.999Z</time></trkpt><trkpt lat="45.08343200274417" lon="9.962481167918153"><ele>38.85714285714286</ele><time>2026-04-12T06:45:34.999Z</time></trkpt><trkpt lat="45.0833749289981" lon="9.96254017823354"><ele>38.71428571428571</ele><time>2026-04-12T06:45:35.999Z</time></trkpt><trkpt lat="45.08331897946051" lon="9.962592188933044"><ele>38.57142857142857</ele><time>2026-04-12T06:45:36.999Z</time></trkpt><trkpt lat="45.08325966023225" lon="9.962642171900368"><ele>38.42857142857143</ele><time>2026-04-12T06:45:37.999Z</time></trkpt><trkpt lat="45.0831993110817" lon="9.962694076222354"><ele>38.28571428571429</ele><time>2026-04-12T06:45:38.999Z</time></trkpt><trkpt lat="45.08314191003523" lon="9.962745974460024"><ele>38.14285714285714</ele><time>2026-04-12T06:45:39.999Z</time></trkpt><trkpt lat="45.08308050584448" lon="9.962795731412442"><ele>38.0</ele><time>2026-04-12T06:45:40.999Z</time></trkpt><trkpt lat="45.08302480646511" lon="9.96284665002981"><ele>38.285714285714285</ele><time>2026-04-12T06:45:41.999Z</time></trkpt><trkpt lat="45.08296716543954" lon="9.962899506651224"><ele>38.57142857142858</ele><time>2026-04-12T06:45:42.999Z</time></trkpt><trkpt lat="45.08290873368693" lon="9.962952108378177"><ele>38.85714285714286</ele><time>2026-04-12T06:45:43.999Z</time></trkpt><trkpt lat="45.08284935130504" lon="9.96300425256446"><ele>39.14285714285714</ele><time>2026-04-12T06:45:44.999Z</time></trkpt><trkpt lat="45.08279182548912" lon="9.963056347490967"><ele>39.42857142857143</ele><time>2026-04-12T06:45:45.999Z</time></trkpt><trkpt lat="45.08273253211583" lon="9.963105539422898"><ele>39.714285714285715</ele><time>2026-04-12T06:45:46.999Z</time></trkpt><trkpt lat="45.08267312603711" lon="9.963159127573197"><ele>40.0</ele><time>2026-04-12T06:45:47.999Z</time></trkpt><trkpt lat="45.08261545014488" lon="9.963211239432521"><ele>40.0</ele><time>2026-04-12T06:45:48.999Z</time></trkpt><trkpt lat="45.082556830029276" lon="9.963265548165172"><ele>40.0</ele><time>2026-04-12T06:45:49.999Z</time></trkpt><trkpt lat="45.08249706524687" lon="9.96331436690971"><ele>40.0</ele><time>2026-04-12T06:45:50.999Z</time></trkpt><trkpt lat="45.08243671052929" lon="9.963366279385806"><ele>40.0</ele><time>2026-04-12T06:45:51.999Z</time></trkpt><trkpt lat="45.082377479633166" lon="9.963416889775269"><ele>40.0</ele><time>2026-04-12T06:45:52.999Z</time></trkpt><trkpt lat="45.08232064105057" lon="9.963469258504166"><ele>40.0</ele><time>2026-04-12T06:45:53.998Z</time></trkpt><trkpt lat="45.08226269319195" lon="9.963521605447623"><ele>40.0</ele><time>2026-04-12T06:45:54.998Z</time></trkpt><trkpt lat="45.08220455230377" lon="9.96357417505882"><ele>39.857142857142854</ele><time>2026-04-12T06:45:55.998Z</time></trkpt><trkpt lat="45.08214900197561" lon="9.963628310082216"><ele>39.714285714285715</ele><time>2026-04-12T06:45:56.998Z</time></trkpt><trkpt lat="45.082089165053894" lon="9.963678971857844"><ele>39.57142857142857</ele><time>2026-04-12T06:45:57.998Z</time></trkpt><trkpt lat="45.08202541427533" lon="9.963732300799172"><ele>39.42857142857143</ele><time>2026-04-12T06:45:58.998Z</time></trkpt><trkpt lat="45.08195625849988" lon="9.963780400465222"><ele>39.285714285714285</ele><time>2026-04-12T06:45:59.998Z</time></trkpt><trkpt lat="45.08188461592019" lon="9.963828666974655"><ele>39.142857142857146</ele><time>2026-04-12T06:46:00.998Z</time></trkpt><trkpt lat="45.08181083749577" lon="9.963875115238627"><ele>39.0</ele><time>2026-04-12T06:46:01.998Z</time></trkpt><trkpt lat="45.081732497430295" lon="9.963908086253667"><ele>39.0</ele><time>2026-04-12T06:46:02.998Z</time></trkpt><trkpt lat="45.081648463443535" lon="9.963921229762818"><ele>39.0</ele><time>2026-04-12T06:46:03.998Z</time></trkpt><trkpt lat="45.08156421120593" lon="9.963931373080031"><ele>39.0</ele><time>2026-04-12T06:46:04.998Z</time></trkpt><trkpt lat="45.081480032013594" lon="9.963947054965434"><ele>39.0</ele><time>2026-04-12T06:46:05.998Z</time></trkpt><trkpt lat="45.08139560316775" lon="9.963961978691422"><ele>39.0</ele><time>2026-04-12T06:46:06.998Z</time></trkpt><trkpt lat="45.08131132472864" lon="9.963979830036108"><ele>39.0</ele><time>2026-04-12T06:46:07.998Z</time></trkpt><trkpt lat="45.08122701691214" lon="9.963996674853282"><ele>39.0</ele><time>2026-04-12T06:46:08.998Z</time></trkpt><trkpt lat="45.08114142928146" lon="9.964013322120644"><ele>39.0</ele><time>2026-04-12T06:46:09.998Z</time></trkpt><trkpt lat="45.08105608596333" lon="9.964030676416987"><ele>39.0</ele><time>2026-04-12T06:46:10.998Z</time></trkpt><trkpt lat="45.080971171480314" lon="9.964048752303519"><ele>39.0</ele><time>2026-04-12T06:46:11.998Z</time></trkpt><trkpt lat="45.080887130817516" lon="9.964063601559497"><ele>39.0</ele><time>2026-04-12T06:46:12.998Z</time></trkpt><trkpt lat="45.08080102046229" lon="9.964080666277487"><ele>39.0</ele><time>2026-04-12T06:46:14Z</time></trkpt><trkpt lat="45.080715309051136" lon="9.964096908408104"><ele>38.666666666666664</ele><time>2026-04-12T06:46:15Z</time></trkpt><trkpt lat="45.08062865469968" lon="9.9641172478668"><ele>38.333333333333336</ele><time>2026-04-12T06:46:16Z</time></trkpt><trkpt lat="45.080542116515076" lon="9.964138055135912"><ele>38.0</ele><time>2026-04-12T06:46:17Z</time></trkpt><trkpt lat="45.080454293620434" lon="9.964154681490788"><ele>37.66666666666667</ele><time>2026-04-12T06:46:18Z</time></trkpt><trkpt lat="45.08036893223782" lon="9.964168817100465"><ele>37.333333333333336</ele><time>2026-04-12T06:46:19Z</time></trkpt><trkpt lat="45.080281159530855" lon="9.964183928830861"><ele>37.0</ele><time>2026-04-12T06:46:20Z</time></trkpt><trkpt lat="45.08019379455673" lon="9.964190586664271"><ele>37.0</ele><time>2026-04-12T06:46:21Z</time></trkpt><trkpt lat="45.08010548467721" lon="9.96418616206726"><ele>37.0</ele><time>2026-04-12T06:46:22Z</time></trkpt><trkpt lat="45.08002000528479" lon="9.964171132392142"><ele>37.0</ele><time>2026-04-12T06:46:23Z</time></trkpt><trkpt lat="45.079935646060115" lon="9.964140555768669"><ele>37.0</ele><time>2026-04-12T06:46:24Z</time></trkpt><trkpt lat="45.079855854643455" lon="9.964099998238881"><ele>37.0</ele><time>2026-04-12T06:46:25Z</time></trkpt><trkpt lat="45.079776462444926" lon="9.964047962900429"><ele>37.0</ele><time>2026-04-12T06:46:26Z</time></trkpt><trkpt lat="45.079704113638115" lon="9.963990610805794"><ele>36.833333333333336</ele><time>2026-04-12T06:46:27Z</time></trkpt><trkpt lat="45.07963346859264" lon="9.963922359264668"><ele>36.66666666666667</ele><time>2026-04-12T06:46:28Z</time></trkpt><trkpt lat="45.079566161337645" lon="9.963851813626896"><ele>36.5</ele><time>2026-04-12T06:46:29Z</time></trkpt><trkpt lat="45.07949905559422" lon="9.963781650393583"><ele>36.333333333333336</ele><time>2026-04-12T06:46:30Z</time></trkpt><trkpt lat="45.07943091161664" lon="9.963714714461796"><ele>36.166666666666664</ele><time>2026-04-12T06:46:31Z</time></trkpt><trkpt lat="45.07935949855375" lon="9.96365049462484"><ele>36.0</ele><time>2026-04-12T06:46:32Z</time></trkpt><trkpt lat="45.07928990016051" lon="9.963583879665412"><ele>36.0</ele><time>2026-04-12T06:46:33Z</time></trkpt><trkpt lat="45.07922211286963" lon="9.963512102456232"><ele>36.0</ele><time>2026-04-12T06:46:34Z</time></trkpt><trkpt lat="45.07915179043158" lon="9.963442340806658"><ele>36.0</ele><time>2026-04-12T06:46:35Z</time></trkpt><trkpt lat="45.07908175247855" lon="9.963375160721151"><ele>36.0</ele><time>2026-04-12T06:46:36Z</time></trkpt><trkpt lat="45.079010223215356" lon="9.963308640494573"><ele>36.0</ele><time>2026-04-12T06:46:37Z</time></trkpt><trkpt lat="45.0789395014397" lon="9.963243293591619"><ele>36.0</ele><time>2026-04-12T06:46:38Z</time></trkpt><trkpt lat="45.07886705678247" lon="9.963176293926846"><ele>36.0</ele><time>2026-04-12T06:46:39Z</time></trkpt><trkpt lat="45.07879517097976" lon="9.963111761528243"><ele>36.0</ele><time>2026-04-12T06:46:40Z</time></trkpt><trkpt lat="45.07872161727096" lon="9.963050536305595"><ele>36.0</ele><time>2026-04-12T06:46:41Z</time></trkpt><trkpt lat="45.07864460216624" lon="9.962995689848002"><ele>36.0</ele><time>2026-04-12T06:46:42Z</time></trkpt><trkpt lat="45.078566532324146" lon="9.962946479491347"><ele>36.0</ele><time>2026-04-12T06:46:43Z</time></trkpt><trkpt lat="45.078487054072795" lon="9.96290167530956"><ele>36.0</ele><time>2026-04-12T06:46:44Z</time></trkpt><trkpt lat="45.07840617523746" lon="9.962862445665321"><ele>36.0</ele><time>2026-04-12T06:46:45Z</time></trkpt><trkpt lat="45.078326015417886" lon="9.96282531786395"><ele>36.0</ele><time>2026-04-12T06:46:46Z</time></trkpt><trkpt lat="45.07824555507023" lon="9.962790977693698"><ele>36.0</ele><time>2026-04-12T06:46:47Z</time></trkpt><trkpt lat="45.078165727168695" lon="9.962760940615226"><ele>36.0</ele><time>2026-04-12T06:46:48Z</time></trkpt><trkpt lat="45.07808422623087" lon="9.962728933145165"><ele>36.0</ele><time>2026-04-12T06:46:49Z</time></trkpt><trkpt lat="45.078004611117855" lon="9.96269761821845"><ele>36.0</ele><time>2026-04-12T06:46:50Z</time></trkpt><trkpt lat="45.07792432895939" lon="9.962665462593751"><ele>36.166666666666664</ele><time>2026-04-12T06:46:51Z</time></trkpt><trkpt lat="45.07784418738856" lon="9.962632847492298"><ele>36.333333333333336</ele><time>2026-04-12T06:46:52Z</time></trkpt><trkpt lat="45.07776428547657" lon="9.962605153963263"><ele>36.5</ele><time>2026-04-12T06:46:53Z</time></trkpt><trkpt lat="45.07768313992003" lon="9.962573161882254"><ele>36.66666666666667</ele><time>2026-04-12T06:46:54Z</time></trkpt><trkpt lat="45.07760375617976" lon="9.962536608592309"><ele>36.833333333333336</ele><time>2026-04-12T06:46:55Z</time></trkpt><trkpt lat="45.07752509674046" lon="9.962500362885619"><ele>37.0</ele><time>2026-04-12T06:46:56Z</time></trkpt><trkpt lat="45.077445363301315" lon="9.962462551561279"><ele>37.16666666666667</ele><time>2026-04-12T06:46:57Z</time></trkpt><trkpt lat="45.07736452895053" lon="9.96242852022654"><ele>37.333333333333336</ele><time>2026-04-12T06:46:58Z</time></trkpt><trkpt lat="45.077283176571385" lon="9.962400631980955"><ele>37.5</ele><time>2026-04-12T06:46:59Z</time></trkpt><trkpt lat="45.07720472656931" lon="9.962365438761683"><ele>37.666666666666664</ele><time>2026-04-12T06:47:00Z</time></trkpt><trkpt lat="45.077124576323065" lon="9.962332937035319"><ele>37.83333333333333</ele><time>2026-04-12T06:47:01Z</time></trkpt><trkpt lat="45.077046658245585" lon="9.962299222076869"><ele>38.0</ele><time>2026-04-12T06:47:02Z</time></trkpt><trkpt lat="45.07696840786374" lon="9.962264504767774"><ele>38.0</ele><time>2026-04-12T06:47:03Z</time></trkpt><trkpt lat="45.07688898665828" lon="9.962221740130627"><ele>38.0</ele><time>2026-04-12T06:47:04Z</time></trkpt><trkpt lat="45.076812972785135" lon="9.962173740232195"><ele>38.0</ele><time>2026-04-12T06:47:04.999Z</time></trkpt><trkpt lat="45.07673578513763" lon="9.96212465963291"><ele>38.0</ele><time>2026-04-12T06:47:05.999Z</time></trkpt><trkpt lat="45.07666465225173" lon="9.962068334233972"><ele>38.0</ele><time>2026-04-12T06:47:06.999Z</time></trkpt><trkpt lat="45.07659070668864" lon="9.96200852213049"><ele>38.0</ele><time>2026-04-12T06:47:07.999Z</time></trkpt><trkpt lat="45.07652148988428" lon="9.96194515294609"><ele>38.0</ele><time>2026-04-12T06:47:08.999Z</time></trkpt><trkpt lat="45.07644971083317" lon="9.961884068897746"><ele>38.0</ele><time>2026-04-12T06:47:09.999Z</time></trkpt><trkpt lat="45.076377189261436" lon="9.96182682405127"><ele>38.0</ele><time>2026-04-12T06:47:10.999Z</time></trkpt><trkpt lat="45.07630768955802" lon="9.961765745607815"><ele>38.0</ele><time>2026-04-12T06:47:11.999Z</time></trkpt><trkpt lat="45.076236486497365" lon="9.961706125126295"><ele>38.0</ele><time>2026-04-12T06:47:12.999Z</time></trkpt><trkpt lat="45.0761733129125" lon="9.961628975451008"><ele>38.0</ele><time>2026-04-12T06:47:13.999Z</time></trkpt><trkpt lat="45.0761103835796" lon="9.961551592371796"><ele>38.0</ele><time>2026-04-12T06:47:14.999Z</time></trkpt><trkpt lat="45.07605270587013" lon="9.961469451037805"><ele>38.0</ele><time>2026-04-12T06:47:15.999Z</time></trkpt><trkpt lat="45.07599415608892" lon="9.96138760406601"><ele>38.0</ele><time>2026-04-12T06:47:16.999Z</time></trkpt><trkpt lat="45.07593825713266" lon="9.961303209879318"><ele>38.0</ele><time>2026-04-12T06:47:17.999Z</time></trkpt><trkpt lat="45.075884744808775" lon="9.961223425817312"><ele>38.0</ele><time>2026-04-12T06:47:18.999Z</time></trkpt><trkpt lat="45.07583553005048" lon="9.961125955445366"><ele>38.0</ele><time>2026-04-12T06:47:19.999Z</time></trkpt><trkpt lat="45.075783071367646" lon="9.961037868176826"><ele>38.166666666666664</ele><time>2026-04-12T06:47:20.999Z</time></trkpt><trkpt lat="45.07572930099473" lon="9.960951743676512"><ele>38.33333333333333</ele><time>2026-04-12T06:47:21.999Z</time></trkpt><trkpt lat="45.07567783270522" lon="9.960863242828127"><ele>38.5</ele><time>2026-04-12T06:47:22.999Z</time></trkpt><trkpt lat="45.07563008658118" lon="9.960769283603481"><ele>38.666666666666664</ele><time>2026-04-12T06:47:23.999Z</time></trkpt><trkpt lat="45.07558026255419" lon="9.96067916687388"><ele>38.833333333333336</ele><time>2026-04-12T06:47:24.999Z</time></trkpt><trkpt lat="45.07553179674611" lon="9.96058652024925"><ele>39.0</ele><time>2026-04-12T06:47:25.999Z</time></trkpt><trkpt lat="45.07548207503213" lon="9.960493379267486"><ele>39.0</ele><time>2026-04-12T06:47:26.999Z</time></trkpt><trkpt lat="45.07543386471922" lon="9.960400661590297"><ele>39.0</ele><time>2026-04-12T06:47:27.999Z</time></trkpt><trkpt lat="45.07538649469638" lon="9.96030643168743"><ele>39.0</ele><time>2026-04-12T06:47:28.999Z</time></trkpt><trkpt lat="45.07533991787313" lon="9.960211952158518"><ele>39.0</ele><time>2026-04-12T06:47:29.999Z</time></trkpt><trkpt lat="45.075295701309344" lon="9.960115780295018"><ele>39.0</ele><time>2026-04-12T06:47:30.999Z</time></trkpt><trkpt lat="45.07525150702401" lon="9.960015898492285"><ele>39.0</ele><time>2026-04-12T06:47:31.999Z</time></trkpt><trkpt lat="45.0752092655513" lon="9.959917183561718"><ele>39.0</ele><time>2026-04-12T06:47:32.999Z</time></trkpt><trkpt lat="45.075171578683765" lon="9.959816375622502"><ele>39.0</ele><time>2026-04-12T06:47:33.999Z</time></trkpt><trkpt lat="45.07513073196235" lon="9.959712168219667"><ele>39.0</ele><time>2026-04-12T06:47:34.999Z</time></trkpt><trkpt lat="45.075096108224756" lon="9.959608673210944"><ele>39.0</ele><time>2026-04-12T06:47:35.999Z</time></trkpt><trkpt lat="45.07506000393118" lon="9.959502173764037"><ele>39.0</ele><time>2026-04-12T06:47:36.999Z</time></trkpt><trkpt lat="45.075022311847015" lon="9.959398161795477"><ele>39.0</ele><time>2026-04-12T06:47:37.999Z</time></trkpt><trkpt lat="45.0749839320774" lon="9.9592941890994"><ele>39.0</ele><time>2026-04-12T06:47:38.999Z</time></trkpt><trkpt lat="45.07494808610844" lon="9.95918890798703"><ele>39.0</ele><time>2026-04-12T06:47:39.999Z</time></trkpt><trkpt lat="45.07491214157918" lon="9.959082563111973"><ele>39.0</ele><time>2026-04-12T06:47:40.999Z</time></trkpt><trkpt lat="45.074875078540224" lon="9.958980137475251"><ele>39.0</ele><time>2026-04-12T06:47:41.999Z</time></trkpt><trkpt lat="45.07483414676053" lon="9.958878829418568"><ele>39.0</ele><time>2026-04-12T06:47:42.999Z</time></trkpt><trkpt lat="45.07479563350581" lon="9.958776158953656"><ele>39.0</ele><time>2026-04-12T06:47:43.999Z</time></trkpt><trkpt lat="45.07475381038115" lon="9.958677478179043"><ele>38.833333333333336</ele><time>2026-04-12T06:47:44.999Z</time></trkpt><trkpt lat="45.074715270731396" lon="9.958575280039339"><ele>38.666666666666664</ele><time>2026-04-12T06:47:45.999Z</time></trkpt><trkpt lat="45.07467479251052" lon="9.95847590112871"><ele>38.5</ele><time>2026-04-12T06:47:46.999Z</time></trkpt><trkpt lat="45.07463155868888" lon="9.958378264972472"><ele>38.33333333333333</ele><time>2026-04-12T06:47:47.999Z</time></trkpt><trkpt lat="45.074586199619446" lon="9.95828061631604"><ele>38.166666666666664</ele><time>2026-04-12T06:47:48.999Z</time></trkpt><trkpt lat="45.07453624060245" lon="9.958185619689548"><ele>38.0</ele><time>2026-04-12T06:47:49.999Z</time></trkpt><trkpt lat="45.074489818414726" lon="9.958091867940537"><ele>38.0</ele><time>2026-04-12T06:47:50.999Z</time></trkpt><trkpt lat="45.07444084238482" lon="9.957996901800376"><ele>38.0</ele><time>2026-04-12T06:47:51.999Z</time></trkpt><trkpt lat="45.074390996571324" lon="9.957907584468082"><ele>38.0</ele><time>2026-04-12T06:47:52.999Z</time></trkpt><trkpt lat="45.074339711351165" lon="9.957816936870982"><ele>38.0</ele><time>2026-04-12T06:47:53.999Z</time></trkpt><trkpt lat="45.07428788450553" lon="9.957729176896743"><ele>38.0</ele><time>2026-04-12T06:47:54.999Z</time></trkpt><trkpt lat="45.0742318437114" lon="9.957642220996036"><ele>38.0</ele><time>2026-04-12T06:47:55.999Z</time></trkpt><trkpt lat="45.07417514477961" lon="9.957555768207733"><ele>37.83333333333333</ele><time>2026-04-12T06:47:56.998Z</time></trkpt><trkpt lat="45.0741151326483" lon="9.957478890011464"><ele>37.666666666666664</ele><time>2026-04-12T06:47:57.998Z</time></trkpt><trkpt lat="45.0740525355211" lon="9.957404892225679"><ele>37.5</ele><time>2026-04-12T06:47:58.998Z</time></trkpt><trkpt lat="45.07398786471912" lon="9.957333151682052"><ele>37.333333333333336</ele><time>2026-04-12T06:47:59.998Z</time></trkpt><trkpt lat="45.07392286198402" lon="9.957262481920516"><ele>37.16666666666667</ele><time>2026-04-12T06:48:00.998Z</time></trkpt><trkpt lat="45.07385891292326" lon="9.957191499337412"><ele>37.0</ele><time>2026-04-12T06:48:01.998Z</time></trkpt><trkpt lat="45.07379319599741" lon="9.95711841537769"><ele>37.0</ele><time>2026-04-12T06:48:02.998Z</time></trkpt><trkpt lat="45.07372916587064" lon="9.957050419889303"><ele>37.0</ele><time>2026-04-12T06:48:03.998Z</time></trkpt><trkpt lat="45.07366432431115" lon="9.956979665629143"><ele>37.0</ele><time>2026-04-12T06:48:04.998Z</time></trkpt><trkpt lat="45.073601098341726" lon="9.956907469141246"><ele>37.0</ele><time>2026-04-12T06:48:05.998Z</time></trkpt><trkpt lat="45.07353691226276" lon="9.95683537840098"><ele>37.0</ele><time>2026-04-12T06:48:06.998Z</time></trkpt><trkpt lat="45.07347249347355" lon="9.956765613890893"><ele>37.0</ele><time>2026-04-12T06:48:07.998Z</time></trkpt><trkpt lat="45.07340807161293" lon="9.956694130104877"><ele>37.0</ele><time>2026-04-12T06:48:08.998Z</time></trkpt><trkpt lat="45.07334522510374" lon="9.956619922135124"><ele>37.0</ele><time>2026-04-12T06:48:09.998Z</time></trkpt><trkpt lat="45.07328189862567" lon="9.956547222551897"><ele>37.0</ele><time>2026-04-12T06:48:10.998Z</time></trkpt><trkpt lat="45.07321867380724" lon="9.956476912989809"><ele>37.0</ele><time>2026-04-12T06:48:11.998Z</time></trkpt><trkpt lat="45.073153872563005" lon="9.956403338085323"><ele>37.0</ele><time>2026-04-12T06:48:12.998Z</time></trkpt><trkpt lat="45.073091869429824" lon="9.956330396354083"><ele>37.0</ele><time>2026-04-12T06:48:13.998Z</time></trkpt><trkpt lat="45.07303134919884" lon="9.95625237716473"><ele>36.66666666666667</ele><time>2026-04-12T06:48:14.998Z</time></trkpt><trkpt lat="45.072968700107246" lon="9.956176736565329"><ele>36.333333333333336</ele><time>2026-04-12T06:48:15.998Z</time></trkpt><trkpt lat="45.07290221603948" lon="9.956103828521869"><ele>36.0</ele><time>2026-04-12T06:48:16.998Z</time></trkpt><trkpt lat="45.07283960662805" lon="9.95602917781629"><ele>35.666666666666664</ele><time>2026-04-12T06:48:17.998Z</time></trkpt><trkpt lat="45.07277681553869" lon="9.95595042921858"><ele>35.33333333333333</ele><time>2026-04-12T06:48:18.998Z</time></trkpt><trkpt lat="45.072713346432785" lon="9.955873953291707"><ele>35.0</ele><time>2026-04-12T06:48:20Z</time></trkpt><trkpt lat="45.07265027181985" lon="9.955800726098973"><ele>35.0</ele><time>2026-04-12T06:48:21Z</time></trkpt><trkpt lat="45.07258620707418" lon="9.95572635624201"><ele>35.0</ele><time>2026-04-12T06:48:22Z</time></trkpt><trkpt lat="45.072522156732006" lon="9.95565041807401"><ele>35.0</ele><time>2026-04-12T06:48:23Z</time></trkpt><trkpt lat="45.072458119263906" lon="9.955578359694584"><ele>35.0</ele><time>2026-04-12T06:48:24Z</time></trkpt><trkpt lat="45.07239306876767" lon="9.955504051463965"><ele>35.0</ele><time>2026-04-12T06:48:25Z</time></trkpt><trkpt lat="45.07233076380054" lon="9.955431643057485"><ele>35.0</ele><time>2026-04-12T06:48:26Z</time></trkpt><trkpt lat="45.07226867864461" lon="9.955356809627629"><ele>35.0</ele><time>2026-04-12T06:48:27Z</time></trkpt><trkpt lat="45.07220426804644" lon="9.955281817194091"><ele>35.0</ele><time>2026-04-12T06:48:28Z</time></trkpt><trkpt lat="45.07214119388539" lon="9.955209584491499"><ele>35.0</ele><time>2026-04-12T06:48:29Z</time></trkpt><trkpt lat="45.07207725762755" lon="9.955135213026404"><ele>35.0</ele><time>2026-04-12T06:48:30Z</time></trkpt><trkpt lat="45.07201532859829" lon="9.955063643597613"><ele>35.0</ele><time>2026-04-12T06:48:31Z</time></trkpt><trkpt lat="45.07195285082202" lon="9.954989776869212"><ele>35.0</ele><time>2026-04-12T06:48:32Z</time></trkpt><trkpt lat="45.07189074409085" lon="9.954915329653348"><ele>34.83333333333333</ele><time>2026-04-12T06:48:33Z</time></trkpt><trkpt lat="45.07182825701962" lon="9.954840001485662"><ele>34.666666666666664</ele><time>2026-04-12T06:48:34Z</time></trkpt><trkpt lat="45.07176407417731" lon="9.954763774382133"><ele>34.5</ele><time>2026-04-12T06:48:35Z</time></trkpt><trkpt lat="45.0717014488708" lon="9.954691081423524"><ele>34.333333333333336</ele><time>2026-04-12T06:48:36Z</time></trkpt><trkpt lat="45.07163871191212" lon="9.95462009027709"><ele>34.16666666666667</ele><time>2026-04-12T06:48:37Z</time></trkpt><trkpt lat="45.071575080146" lon="9.954544872246203"><ele>34.0</ele><time>2026-04-12T06:48:38Z</time></trkpt><trkpt lat="45.071512039285345" lon="9.954468936176523"><ele>34.5</ele><time>2026-04-12T06:48:39Z</time></trkpt><trkpt lat="45.071447437789224" lon="9.954392701184725"><ele>35.0</ele><time>2026-04-12T06:48:40Z</time></trkpt><trkpt lat="45.07138296105711" lon="9.954318767514488"><ele>35.5</ele><time>2026-04-12T06:48:41Z</time></trkpt><trkpt lat="45.07131814772659" lon="9.954247405395362"><ele>36.0</ele><time>2026-04-12T06:48:42Z</time></trkpt><trkpt lat="45.07125346611305" lon="9.95417078949332"><ele>36.5</ele><time>2026-04-12T06:48:43Z</time></trkpt><trkpt lat="45.071190697151394" lon="9.954094035385832"><ele>37.0</ele><time>2026-04-12T06:48:44Z</time></trkpt><trkpt lat="45.071128086652365" lon="9.954020258808363"><ele>37.16666666666667</ele><time>2026-04-12T06:48:45Z</time></trkpt><trkpt lat="45.07106491274771" lon="9.953946157250845"><ele>37.333333333333336</ele><time>2026-04-12T06:48:46Z</time></trkpt><trkpt lat="45.07100209579797" lon="9.953872454074629"><ele>37.5</ele><time>2026-04-12T06:48:47Z</time></trkpt><trkpt lat="45.07093604891815" lon="9.953802953663104"><ele>37.666666666666664</ele><time>2026-04-12T06:48:48Z</time></trkpt><trkpt lat="45.07087024788751" lon="9.95373295563585"><ele>37.83333333333333</ele><time>2026-04-12T06:48:49Z</time></trkpt><trkpt lat="45.07080726853557" lon="9.95365907834776"><ele>38.0</ele><time>2026-04-12T06:48:50Z</time></trkpt><trkpt lat="45.07074489180318" lon="9.95358607417138"><ele>37.83333333333333</ele><time>2026-04-12T06:48:51Z</time></trkpt><trkpt lat="45.07068204814893" lon="9.95351142873148"><ele>37.666666666666664</ele><time>2026-04-12T06:48:52Z</time></trkpt><trkpt lat="45.07061897732929" lon="9.953437917864266"><ele>37.5</ele><time>2026-04-12T06:48:53Z</time></trkpt><trkpt lat="45.07055554416988" lon="9.953365422106845"><ele>37.333333333333336</ele><time>2026-04-12T06:48:54Z</time></trkpt><trkpt lat="45.070493215581784" lon="9.953289653110764"><ele>37.16666666666667</ele><time>2026-04-12T06:48:55Z</time></trkpt><trkpt lat="45.07043279044069" lon="9.953215986490733"><ele>37.0</ele><time>2026-04-12T06:48:56Z</time></trkpt><trkpt lat="45.07037253923037" lon="9.95314123730945"><ele>37.0</ele><time>2026-04-12T06:48:57Z</time></trkpt><trkpt lat="45.07031129851845" lon="9.953064877396233"><ele>37.0</ele><time>2026-04-12T06:48:58Z</time></trkpt><trkpt lat="45.07025032124106" lon="9.952991019962536"><ele>37.0</ele><time>2026-04-12T06:48:59Z</time></trkpt><trkpt lat="45.07018861101387" lon="9.95291640651727"><ele>37.0</ele><time>2026-04-12T06:49:00Z</time></trkpt><trkpt lat="45.07012603170238" lon="9.952841328771132"><ele>37.0</ele><time>2026-04-12T06:49:01Z</time></trkpt><trkpt lat="45.07006304090049" lon="9.952766793474488"><ele>37.0</ele><time>2026-04-12T06:49:02Z</time></trkpt><trkpt lat="45.06999983010486" lon="9.952694224275321"><ele>37.0</ele><time>2026-04-12T06:49:03Z</time></trkpt><trkpt lat="45.06993616517323" lon="9.95262034815986"><ele>37.0</ele><time>2026-04-12T06:49:04Z</time></trkpt><trkpt lat="45.06987431098619" lon="9.952546240220771"><ele>37.0</ele><time>2026-04-12T06:49:05Z</time></trkpt><trkpt lat="45.069810695024145" lon="9.952472268493569"><ele>37.0</ele><time>2026-04-12T06:49:06Z</time></trkpt><trkpt lat="45.06974478565751" lon="9.952397756363663"><ele>37.0</ele><time>2026-04-12T06:49:07Z</time></trkpt><trkpt lat="45.0696792764509" lon="9.952325729211806"><ele>37.0</ele><time>2026-04-12T06:49:08Z</time></trkpt><trkpt lat="45.06961544979336" lon="9.952250846702546"><ele>37.0</ele><time>2026-04-12T06:49:08.999Z</time></trkpt><trkpt lat="45.06955089536742" lon="9.952176411966242"><ele>37.0</ele><time>2026-04-12T06:49:09.999Z</time></trkpt><trkpt lat="45.069485736168495" lon="9.95210328412974"><ele>37.0</ele><time>2026-04-12T06:49:10.999Z</time></trkpt><trkpt lat="45.06942137338831" lon="9.95202925601516"><ele>37.0</ele><time>2026-04-12T06:49:11.999Z</time></trkpt><trkpt lat="45.06935765812753" lon="9.951953974386077"><ele>37.0</ele><time>2026-04-12T06:49:12.999Z</time></trkpt><trkpt lat="45.069293608101304" lon="9.951879523269682"><ele>37.0</ele><time>2026-04-12T06:49:13.999Z</time></trkpt><trkpt lat="45.069228698943355" lon="9.951804642995265"><ele>37.0</ele><time>2026-04-12T06:49:14.999Z</time></trkpt><trkpt lat="45.069165433054515" lon="9.95173107592674"><ele>37.0</ele><time>2026-04-12T06:49:15.999Z</time></trkpt><trkpt lat="45.06910117138629" lon="9.951655755409552"><ele>37.0</ele><time>2026-04-12T06:49:16.999Z</time></trkpt><trkpt lat="45.06903798738704" lon="9.951582182644856"><ele>37.0</ele><time>2026-04-12T06:49:17.999Z</time></trkpt><trkpt lat="45.06897446920446" lon="9.951508792334044"><ele>37.0</ele><time>2026-04-12T06:49:18.999Z</time></trkpt><trkpt lat="45.068910409126744" lon="9.951432565105664"><ele>37.0</ele><time>2026-04-12T06:49:19.999Z</time></trkpt><trkpt lat="45.06884771337475" lon="9.951359428713976"><ele>36.5</ele><time>2026-04-12T06:49:20.999Z</time></trkpt><trkpt lat="45.068786753866" lon="9.95128273159707"><ele>36.0</ele><time>2026-04-12T06:49:21.999Z</time></trkpt><trkpt lat="45.068725737171825" lon="9.951204906503945"><ele>35.5</ele><time>2026-04-12T06:49:22.999Z</time></trkpt><trkpt lat="45.06866498619618" lon="9.95112940422618"><ele>35.0</ele><time>2026-04-12T06:49:23.999Z</time></trkpt><trkpt lat="45.06860054237957" lon="9.95105490409224"><ele>34.5</ele><time>2026-04-12T06:49:24.999Z</time></trkpt><trkpt lat="45.06853640410494" lon="9.950981807226576"><ele>34.0</ele><time>2026-04-12T06:49:25.999Z</time></trkpt><trkpt lat="45.06847484634407" lon="9.950902941228376"><ele>34.0</ele><time>2026-04-12T06:49:26.999Z</time></trkpt><trkpt lat="45.0684128929461" lon="9.950823406269654"><ele>34.0</ele><time>2026-04-12T06:49:27.999Z</time></trkpt><trkpt lat="45.068348625524074" lon="9.950747625740028"><ele>34.0</ele><time>2026-04-12T06:49:28.999Z</time></trkpt><trkpt lat="45.06828514111169" lon="9.950673482437745"><ele>34.0</ele><time>2026-04-12T06:49:29.999Z</time></trkpt><trkpt lat="45.06821926841547" lon="9.95060076534668"><ele>34.0</ele><time>2026-04-12T06:49:30.999Z</time></trkpt><trkpt lat="45.068150686053805" lon="9.950534602256852"><ele>34.0</ele><time>2026-04-12T06:49:31.999Z</time></trkpt><trkpt lat="45.0680805948579" lon="9.950473990173936"><ele>34.333333333333336</ele><time>2026-04-12T06:49:32.999Z</time></trkpt><trkpt lat="45.068009679140125" lon="9.950413736714529"><ele>34.66666666666667</ele><time>2026-04-12T06:49:33.999Z</time></trkpt><trkpt lat="45.067937064616345" lon="9.950356313734636"><ele>35.0</ele><time>2026-04-12T06:49:34.999Z</time></trkpt><trkpt lat="45.067864444078275" lon="9.950303363426501"><ele>35.333333333333336</ele><time>2026-04-12T06:49:35.999Z</time></trkpt><trkpt lat="45.067789797499245" lon="9.950249272626278"><ele>35.666666666666664</ele><time>2026-04-12T06:49:36.999Z</time></trkpt><trkpt lat="45.067713480957586" lon="9.950197176768192"><ele>36.0</ele><time>2026-04-12T06:49:37.999Z</time></trkpt><trkpt lat="45.0676388608631" lon="9.950147085197003"><ele>36.0</ele><time>2026-04-12T06:49:38.999Z</time></trkpt><trkpt lat="45.06756429643379" lon="9.950095762922059"><ele>36.0</ele><time>2026-04-12T06:49:39.999Z</time></trkpt><trkpt lat="45.06748724989032" lon="9.950048680771225"><ele>36.0</ele><time>2026-04-12T06:49:40.999Z</time></trkpt><trkpt lat="45.06741083253356" lon="9.95000316108841"><ele>36.0</ele><time>2026-04-12T06:49:41.999Z</time></trkpt><trkpt lat="45.06733518643666" lon="9.949950965360525"><ele>36.0</ele><time>2026-04-12T06:49:42.999Z</time></trkpt><trkpt lat="45.06726045460931" lon="9.949901048964838"><ele>36.0</ele><time>2026-04-12T06:49:43.999Z</time></trkpt><trkpt lat="45.06718494472687" lon="9.949852498155403"><ele>36.5</ele><time>2026-04-12T06:49:44.999Z</time></trkpt><trkpt lat="45.06711022614361" lon="9.949802945614834"><ele>37.0</ele><time>2026-04-12T06:49:45.999Z</time></trkpt><trkpt lat="45.06703307470733" lon="9.949755388627946"><ele>37.5</ele><time>2026-04-12T06:49:46.999Z</time></trkpt><trkpt lat="45.06695956703898" lon="9.949707226030975"><ele>38.0</ele><time>2026-04-12T06:49:47.999Z</time></trkpt><trkpt lat="45.0668841212831" lon="9.949655856304071"><ele>38.5</ele><time>2026-04-12T06:49:48.999Z</time></trkpt><trkpt lat="45.066811131253324" lon="9.949614063043281"><ele>39.0</ele><time>2026-04-12T06:49:49.999Z</time></trkpt><trkpt lat="45.06673869528483" lon="9.949568100620926"><ele>39.0</ele><time>2026-04-12T06:49:50.999Z</time></trkpt><trkpt lat="45.06666560136699" lon="9.949519616196897"><ele>39.0</ele><time>2026-04-12T06:49:51.999Z</time></trkpt><trkpt lat="45.06659185172355" lon="9.949476548900908"><ele>39.0</ele><time>2026-04-12T06:49:52.999Z</time></trkpt><trkpt lat="45.066520214648385" lon="9.949428173038044"><ele>39.0</ele><time>2026-04-12T06:49:53.999Z</time></trkpt><trkpt lat="45.06644627809259" lon="9.949386950608254"><ele>39.0</ele><time>2026-04-12T06:49:54.999Z</time></trkpt><trkpt lat="45.066373618741146" lon="9.949347184142423"><ele>39.0</ele><time>2026-04-12T06:49:55.999Z</time></trkpt><trkpt lat="45.06630207684191" lon="9.949303042299368"><ele>39.0</ele><time>2026-04-12T06:49:56.999Z</time></trkpt><trkpt lat="45.06623387201071" lon="9.949258538218324"><ele>39.0</ele><time>2026-04-12T06:49:57.999Z</time></trkpt><trkpt lat="45.066163180322796" lon="9.949217790930899"><ele>39.0</ele><time>2026-04-12T06:49:58.999Z</time></trkpt><trkpt lat="45.06609510490736" lon="9.949183382084652"><ele>39.0</ele><time>2026-04-12T06:49:59.999Z</time></trkpt><trkpt lat="45.06602583939631" lon="9.94914495695347"><ele>39.0</ele><time>2026-04-12T06:50:00.999Z</time></trkpt><trkpt lat="45.06595948943565" lon="9.949105522450683"><ele>39.0</ele><time>2026-04-12T06:50:01.998Z</time></trkpt><trkpt lat="45.06589179215895" lon="9.94906429723392"><ele>39.0</ele><time>2026-04-12T06:50:02.998Z</time></trkpt><trkpt lat="45.06582578319784" lon="9.949027842120092"><ele>39.142857142857146</ele><time>2026-04-12T06:50:03.998Z</time></trkpt><trkpt lat="45.0657602533113" lon="9.948994106918876"><ele>39.285714285714285</ele><time>2026-04-12T06:50:04.998Z</time></trkpt><trkpt lat="45.06569182488345" lon="9.9489593978055"><ele>39.42857142857143</ele><time>2026-04-12T06:50:05.998Z</time></trkpt><trkpt lat="45.06562694796907" lon="9.948921677134845"><ele>39.57142857142857</ele><time>2026-04-12T06:50:06.998Z</time></trkpt><trkpt lat="45.06555806275699" lon="9.94889009345497"><ele>39.714285714285715</ele><time>2026-04-12T06:50:07.998Z</time></trkpt><trkpt lat="45.0654927963563" lon="9.948856880730231"><ele>39.857142857142854</ele><time>2026-04-12T06:50:08.998Z</time></trkpt><trkpt lat="45.065427831567895" lon="9.948821402334614"><ele>40.0</ele><time>2026-04-12T06:50:09.998Z</time></trkpt><trkpt lat="45.065361856619326" lon="9.948788036835857"><ele>40.0</ele><time>2026-04-12T06:50:10.998Z</time></trkpt><trkpt lat="45.06529510456603" lon="9.948756844660927"><ele>40.0</ele><time>2026-04-12T06:50:11.998Z</time></trkpt><trkpt lat="45.065227891830254" lon="9.948725881733342"><ele>40.0</ele><time>2026-04-12T06:50:12.998Z</time></trkpt><trkpt lat="45.065161353195705" lon="9.948693222514073"><ele>40.0</ele><time>2026-04-12T06:50:13.998Z</time></trkpt><trkpt lat="45.065092694554075" lon="9.94865998164763"><ele>40.0</ele><time>2026-04-12T06:50:14.998Z</time></trkpt><trkpt lat="45.06502483746464" lon="9.948627610201687"><ele>40.0</ele><time>2026-04-12T06:50:15.998Z</time></trkpt><trkpt lat="45.06495614760476" lon="9.948592394794822"><ele>40.0</ele><time>2026-04-12T06:50:16.998Z</time></trkpt><trkpt lat="45.06488896911752" lon="9.948558523210387"><ele>40.0</ele><time>2026-04-12T06:50:17.998Z</time></trkpt><trkpt lat="45.06482173504059" lon="9.948523735731772"><ele>40.0</ele><time>2026-04-12T06:50:18.998Z</time></trkpt><trkpt lat="45.06475409675685" lon="9.948490921850064"><ele>40.0</ele><time>2026-04-12T06:50:19.998Z</time></trkpt><trkpt lat="45.06468511939106" lon="9.9484615854637"><ele>40.0</ele><time>2026-04-12T06:50:20.998Z</time></trkpt><trkpt lat="45.064618532443205" lon="9.948434445429768"><ele>40.0</ele><time>2026-04-12T06:50:21.998Z</time></trkpt><trkpt lat="45.06455108377423" lon="9.948403222033049"><ele>40.0</ele><time>2026-04-12T06:50:22.998Z</time></trkpt><trkpt lat="45.06448622913712" lon="9.948373820048023"><ele>40.0</ele><time>2026-04-12T06:50:23.998Z</time></trkpt><trkpt lat="45.06442040461451" lon="9.948341511587387"><ele>40.0</ele><time>2026-04-12T06:50:24.998Z</time></trkpt><trkpt lat="45.064355842380735" lon="9.948310837258413"><ele>40.0</ele><time>2026-04-12T06:50:26Z</time></trkpt><trkpt lat="45.06429431721909" lon="9.94828130586911"><ele>40.0</ele><time>2026-04-12T06:50:27Z</time></trkpt><trkpt lat="45.06423301598007" lon="9.94825354802628"><ele>40.0</ele><time>2026-04-12T06:50:28Z</time></trkpt><trkpt lat="45.06417199987353" lon="9.948225485237792"><ele>40.0</ele><time>2026-04-12T06:50:29Z</time></trkpt><trkpt lat="45.06411047008696" lon="9.948197242577255"><ele>40.0</ele><time>2026-04-12T06:50:30Z</time></trkpt><trkpt lat="45.06404987852289" lon="9.94817100812548"><ele>40.0</ele><time>2026-04-12T06:50:31Z</time></trkpt><trkpt lat="45.06398829837234" lon="9.948139452401561"><ele>40.14285714285714</ele><time>2026-04-12T06:50:32Z</time></trkpt><trkpt lat="45.06392725483685" lon="9.948110844825962"><ele>40.285714285714285</ele><time>2026-04-12T06:50:33Z</time></trkpt><trkpt lat="45.06386561215658" lon="9.948082181643741"><ele>40.42857142857143</ele><time>2026-04-12T06:50:34Z</time></trkpt><trkpt lat="45.06380226690965" lon="9.948053736560341"><ele>40.57142857142857</ele><time>2026-04-12T06:50:35Z</time></trkpt><trkpt lat="45.06373971063743" lon="9.948026002263862"><ele>40.714285714285715</ele><time>2026-04-12T06:50:36Z</time></trkpt><trkpt lat="45.06367515967374" lon="9.947998702698802"><ele>40.857142857142854</ele><time>2026-04-12T06:50:37Z</time></trkpt><trkpt lat="45.06360947662904" lon="9.947969783817296"><ele>41.0</ele><time>2026-04-12T06:50:38Z</time></trkpt><trkpt lat="45.0635447944514" lon="9.947940219203758"><ele>40.99999999999999</ele><time>2026-04-12T06:50:39Z</time></trkpt><trkpt lat="45.06347730345552" lon="9.947909804979222"><ele>41.0</ele><time>2026-04-12T06:50:40Z</time></trkpt><trkpt lat="45.06341267832715" lon="9.947883175585519"><ele>41.0</ele><time>2026-04-12T06:50:41Z</time></trkpt><trkpt lat="45.063346343421514" lon="9.947852068504679"><ele>41.0</ele><time>2026-04-12T06:50:42Z</time></trkpt><trkpt lat="45.06328150357049" lon="9.947826189541008"><ele>41.0</ele><time>2026-04-12T06:50:43Z</time></trkpt><trkpt lat="45.06321557136979" lon="9.947798294195332"><ele>40.99999999999999</ele><time>2026-04-12T06:50:44Z</time></trkpt><trkpt lat="45.06314770403486" lon="9.947773258150944"><ele>41.0</ele><time>2026-04-12T06:50:45Z</time></trkpt><trkpt lat="45.06307966498819" lon="9.947748595719155"><ele>40.99999999999999</ele><time>2026-04-12T06:50:46Z</time></trkpt><trkpt lat="45.063009296635066" lon="9.947724206040958"><ele>41.0</ele><time>2026-04-12T06:50:47Z</time></trkpt><trkpt lat="45.06294192966075" lon="9.947702039114413"><ele>41.0</ele><time>2026-04-12T06:50:48Z</time></trkpt><trkpt lat="45.062872981700146" lon="9.947675121583966"><ele>41.0</ele><time>2026-04-12T06:50:49Z</time></trkpt><trkpt lat="45.06280232664036" lon="9.947651345383218"><ele>41.0</ele><time>2026-04-12T06:50:50Z</time></trkpt><trkpt lat="45.06273184527535" lon="9.947627947447986"><ele>40.99999999999999</ele><time>2026-04-12T06:50:51Z</time></trkpt><trkpt lat="45.0626605425154" lon="9.94760321894177"><ele>41.0</ele><time>2026-04-12T06:50:52Z</time></trkpt><trkpt lat="45.062589430568586" lon="9.947576708130795"><ele>41.0</ele><time>2026-04-12T06:50:53Z</time></trkpt><trkpt lat="45.06252064595601" lon="9.947550801279569"><ele>41.0</ele><time>2026-04-12T06:50:54Z</time></trkpt><trkpt lat="45.0624469009559" lon="9.947528430290312"><ele>41.0</ele><time>2026-04-12T06:50:55Z</time></trkpt><trkpt lat="45.06237261049543" lon="9.94750388602391"><ele>41.0</ele><time>2026-04-12T06:50:56Z</time></trkpt><trkpt lat="45.06229966582514" lon="9.947480100105698"><ele>41.0</ele><time>2026-04-12T06:50:57Z</time></trkpt><trkpt lat="45.062225356900555" lon="9.9474513750917"><ele>41.0</ele><time>2026-04-12T06:50:58Z</time></trkpt><trkpt lat="45.06215121792172" lon="9.947419972116876"><ele>40.33333333333333</ele><time>2026-04-12T06:50:59Z</time></trkpt><trkpt lat="45.06207552464326" lon="9.947387994306752"><ele>39.666666666666664</ele><time>2026-04-12T06:51:00Z</time></trkpt><trkpt lat="45.06199778504856" lon="9.947358057302615"><ele>39.0</ele><time>2026-04-12T06:51:01Z</time></trkpt><trkpt lat="45.06192237050075" lon="9.947325017497487"><ele>38.333333333333336</ele><time>2026-04-12T06:51:02Z</time></trkpt><trkpt lat="45.06184372234416" lon="9.947288413598931"><ele>37.66666666666667</ele><time>2026-04-12T06:51:03Z</time></trkpt><trkpt lat="45.06176686300484" lon="9.947253199445852"><ele>37.0</ele><time>2026-04-12T06:51:04Z</time></trkpt><trkpt lat="45.06169077393541" lon="9.947217586969721"><ele>36.833333333333336</ele><time>2026-04-12T06:51:05Z</time></trkpt><trkpt lat="45.06161376557313" lon="9.947178815665625"><ele>36.66666666666667</ele><time>2026-04-12T06:51:06Z</time></trkpt><trkpt lat="45.06153812244937" lon="9.947143178326938"><ele>36.5</ele><time>2026-04-12T06:51:07Z</time></trkpt><trkpt lat="45.061464714567684" lon="9.947106661292281"><ele>36.333333333333336</ele><time>2026-04-12T06:51:08Z</time></trkpt><trkpt lat="45.06139088124693" lon="9.947066989780705"><ele>36.166666666666664</ele><time>2026-04-12T06:51:09Z</time></trkpt><trkpt lat="45.061315287822424" lon="9.947029033870276"><ele>36.0</ele><time>2026-04-12T06:51:10Z</time></trkpt><trkpt lat="45.06123859872442" lon="9.946992995093703"><ele>36.0</ele><time>2026-04-12T06:51:11Z</time></trkpt><trkpt lat="45.06116010480196" lon="9.94696000198579"><ele>36.0</ele><time>2026-04-12T06:51:12Z</time></trkpt><trkpt lat="45.06108483727178" lon="9.94692774246436"><ele>36.0</ele><time>2026-04-12T06:51:12.999Z</time></trkpt><trkpt lat="45.06100819924757" lon="9.946888771193299"><ele>36.0</ele><time>2026-04-12T06:51:13.999Z</time></trkpt><trkpt lat="45.06093123922065" lon="9.946848721235144"><ele>36.0</ele><time>2026-04-12T06:51:14.999Z</time></trkpt><trkpt lat="45.0608549423074" lon="9.94681358487293"><ele>36.0</ele><time>2026-04-12T06:51:15.999Z</time></trkpt><trkpt lat="45.060778846903695" lon="9.94677601681247"><ele>36.0</ele><time>2026-04-12T06:51:16.999Z</time></trkpt><trkpt lat="45.06070259498991" lon="9.946736955954645"><ele>36.0</ele><time>2026-04-12T06:51:17.999Z</time></trkpt><trkpt lat="45.06062586013179" lon="9.946701229317076"><ele>36.0</ele><time>2026-04-12T06:51:18.999Z</time></trkpt><trkpt lat="45.060550120646525" lon="9.94666496995046"><ele>36.0</ele><time>2026-04-12T06:51:19.999Z</time></trkpt><trkpt lat="45.06047236396632" lon="9.946630588944162"><ele>36.0</ele><time>2026-04-12T06:51:20.999Z</time></trkpt><trkpt lat="45.060397036247906" lon="9.946597196065262"><ele>36.0</ele><time>2026-04-12T06:51:21.999Z</time></trkpt><trkpt lat="45.060319703928336" lon="9.946560605136254"><ele>36.0</ele><time>2026-04-12T06:51:22.999Z</time></trkpt><trkpt lat="45.06024301019815" lon="9.946525217181543"><ele>36.0</ele><time>2026-04-12T06:51:23.999Z</time></trkpt><trkpt lat="45.060166174185476" lon="9.94649247238295"><ele>36.0</ele><time>2026-04-12T06:51:24.999Z</time></trkpt><trkpt lat="45.06008714587173" lon="9.946462885781237"><ele>36.0</ele><time>2026-04-12T06:51:25.999Z</time></trkpt><trkpt lat="45.06000885088865" lon="9.946435936628244"><ele>36.0</ele><time>2026-04-12T06:51:26.999Z</time></trkpt><trkpt lat="45.059930899135956" lon="9.946407158984561"><ele>36.0</ele><time>2026-04-12T06:51:27.999Z</time></trkpt><trkpt lat="45.05985129033632" lon="9.946378482731747"><ele>36.166666666666664</ele><time>2026-04-12T06:51:28.999Z</time></trkpt><trkpt lat="45.05977132245177" lon="9.94635224931301"><ele>36.333333333333336</ele><time>2026-04-12T06:51:29.999Z</time></trkpt><trkpt lat="45.059691078634465" lon="9.946328344549839"><ele>36.5</ele><time>2026-04-12T06:51:30.999Z</time></trkpt><trkpt lat="45.059610859022506" lon="9.946306451954877"><ele>36.66666666666667</ele><time>2026-04-12T06:51:31.999Z</time></trkpt><trkpt lat="45.05952977039829" lon="9.946285376196542"><ele>36.833333333333336</ele><time>2026-04-12T06:51:32.999Z</time></trkpt><trkpt lat="45.059448117760994" lon="9.946266063257859"><ele>37.0</ele><time>2026-04-12T06:51:33.999Z</time></trkpt><trkpt lat="45.05936658293663" lon="9.946243286292965"><ele>37.0</ele><time>2026-04-12T06:51:34.999Z</time></trkpt><trkpt lat="45.059283910271816" lon="9.946221837499024"><ele>37.0</ele><time>2026-04-12T06:51:35.999Z</time></trkpt><trkpt lat="45.05920180538993" lon="9.946204867214892"><ele>37.0</ele><time>2026-04-12T06:51:36.999Z</time></trkpt><trkpt lat="45.059119686427756" lon="9.946190615366069"><ele>37.0</ele><time>2026-04-12T06:51:37.999Z</time></trkpt><trkpt lat="45.05903822782413" lon="9.946175940943183"><ele>37.0</ele><time>2026-04-12T06:51:38.999Z</time></trkpt><trkpt lat="45.05895709184782" lon="9.94616462684539"><ele>37.0</ele><time>2026-04-12T06:51:39.999Z</time></trkpt><trkpt lat="45.05887721924493" lon="9.946154389199142"><ele>37.0</ele><time>2026-04-12T06:51:40.999Z</time></trkpt><trkpt lat="45.05879715365973" lon="9.946145326772056"><ele>37.0</ele><time>2026-04-12T06:51:41.999Z</time></trkpt><trkpt lat="45.05871832674912" lon="9.94613788415925"><ele>37.0</ele><time>2026-04-12T06:51:42.999Z</time></trkpt><trkpt lat="45.05864008210414" lon="9.94613001680684"><ele>37.0</ele><time>2026-04-12T06:51:43.999Z</time></trkpt><trkpt lat="45.05856254017528" lon="9.946126061742987"><ele>37.0</ele><time>2026-04-12T06:51:44.999Z</time></trkpt><trkpt lat="45.05848279994296" lon="9.946120958197133"><ele>37.0</ele><time>2026-04-12T06:51:45.999Z</time></trkpt><trkpt lat="45.05840547074226" lon="9.946114717022486"><ele>37.0</ele><time>2026-04-12T06:51:46.999Z</time></trkpt><trkpt lat="45.05832606817195" lon="9.946112736746578"><ele>37.0</ele><time>2026-04-12T06:51:47.999Z</time></trkpt><trkpt lat="45.05824765261515" lon="9.946115507038233"><ele>37.0</ele><time>2026-04-12T06:51:48.999Z</time></trkpt><trkpt lat="45.0581685105205" lon="9.946118687868015"><ele>37.0</ele><time>2026-04-12T06:51:49.999Z</time></trkpt><trkpt lat="45.05808915045625" lon="9.94611987091438"><ele>37.0</ele><time>2026-04-12T06:51:50.999Z</time></trkpt><trkpt lat="45.058010380327495" lon="9.946125521927794"><ele>37.0</ele><time>2026-04-12T06:51:51.999Z</time></trkpt><trkpt lat="45.05793217010549" lon="9.946127030662982"><ele>36.833333333333336</ele><time>2026-04-12T06:51:52.999Z</time></trkpt><trkpt lat="45.0578531650749" lon="9.946129914172268"><ele>36.66666666666667</ele><time>2026-04-12T06:51:53.999Z</time></trkpt><trkpt lat="45.05777525237969" lon="9.946132314759065"><ele>36.5</ele><time>2026-04-12T06:51:54.999Z</time></trkpt><trkpt lat="45.057699625753884" lon="9.946136588564613"><ele>36.333333333333336</ele><time>2026-04-12T06:51:55.999Z</time></trkpt><trkpt lat="45.05762002896092" lon="9.9461390763114"><ele>36.166666666666664</ele><time>2026-04-12T06:51:56.999Z</time></trkpt><trkpt lat="45.05754029373831" lon="9.94614546405419"><ele>36.0</ele><time>2026-04-12T06:51:57.999Z</time></trkpt><trkpt lat="45.0574631088951" lon="9.946152129333386"><ele>36.0</ele><time>2026-04-12T06:51:58.999Z</time></trkpt><trkpt lat="45.05738494943992" lon="9.946155971906828"><ele>36.0</ele><time>2026-04-12T06:51:59.999Z</time></trkpt><trkpt lat="45.05730848560326" lon="9.946160135326291"><ele>36.0</ele><time>2026-04-12T06:52:00.999Z</time></trkpt><trkpt lat="45.05723143074448" lon="9.946162960439265"><ele>36.0</ele><time>2026-04-12T06:52:01.999Z</time></trkpt><trkpt lat="45.057156662913535" lon="9.946167444878782"><ele>36.0</ele><time>2026-04-12T06:52:02.999Z</time></trkpt><trkpt lat="45.05708261659125" lon="9.946169217802908"><ele>36.0</ele><time>2026-04-12T06:52:03.999Z</time></trkpt><trkpt lat="45.05700777024684" lon="9.946168639845629"><ele>36.00000000000001</ele><time>2026-04-12T06:52:04.999Z</time></trkpt><trkpt lat="45.05693334963267" lon="9.946167279945731"><ele>36.0</ele><time>2026-04-12T06:52:05.998Z</time></trkpt><trkpt lat="45.05685985631557" lon="9.946168437147946"><ele>36.0</ele><time>2026-04-12T06:52:06.998Z</time></trkpt><trkpt lat="45.056789464034374" lon="9.946163962429383"><ele>36.0</ele><time>2026-04-12T06:52:07.998Z</time></trkpt><trkpt lat="45.056717522399154" lon="9.946155361103633"><ele>36.0</ele><time>2026-04-12T06:52:08.998Z</time></trkpt><trkpt lat="45.056647759740066" lon="9.946148069674388"><ele>36.00000000000001</ele><time>2026-04-12T06:52:09.998Z</time></trkpt><trkpt lat="45.056577353948576" lon="9.946142820365194"><ele>36.0</ele><time>2026-04-12T06:52:10.998Z</time></trkpt><trkpt lat="45.0565092454739" lon="9.946134737374903"><ele>36.28571428571429</ele><time>2026-04-12T06:52:11.998Z</time></trkpt><trkpt lat="45.056438666219435" lon="9.946116151690653"><ele>36.57142857142857</ele><time>2026-04-12T06:52:12.998Z</time></trkpt><trkpt lat="45.05637150217466" lon="9.946103294548314"><ele>36.85714285714286</ele><time>2026-04-12T06:52:13.998Z</time></trkpt><trkpt lat="45.056301908582434" lon="9.946086954105366"><ele>37.142857142857146</ele><time>2026-04-12T06:52:14.998Z</time></trkpt><trkpt lat="45.05623033363736" lon="9.946070567499639"><ele>37.42857142857143</ele><time>2026-04-12T06:52:15.998Z</time></trkpt><trkpt lat="45.056161639190854" lon="9.946051245694202"><ele>37.714285714285715</ele><time>2026-04-12T06:52:16.998Z</time></trkpt><trkpt lat="45.05609047807842" lon="9.946026495298806"><ele>38.0</ele><time>2026-04-12T06:52:17.998Z</time></trkpt><trkpt lat="45.05602043932997" lon="9.946004343449996"><ele>38.0</ele><time>2026-04-12T06:52:18.998Z</time></trkpt><trkpt lat="45.05595162976501" lon="9.945980098857993"><ele>38.0</ele><time>2026-04-12T06:52:19.998Z</time></trkpt><trkpt lat="45.055879713789004" lon="9.945949165342533"><ele>38.0</ele><time>2026-04-12T06:52:20.998Z</time></trkpt><trkpt lat="45.055809803877345" lon="9.945919490516259"><ele>38.0</ele><time>2026-04-12T06:52:21.998Z</time></trkpt><trkpt lat="45.05573829256566" lon="9.945891472267274"><ele>38.0</ele><time>2026-04-12T06:52:22.998Z</time></trkpt><trkpt lat="45.05566728533169" lon="9.945862724867046"><ele>38.0</ele><time>2026-04-12T06:52:23.998Z</time></trkpt><trkpt lat="45.05559424779551" lon="9.945828823338289"><ele>38.0</ele><time>2026-04-12T06:52:24.998Z</time></trkpt><trkpt lat="45.05552176702178" lon="9.945790021444694"><ele>38.0</ele><time>2026-04-12T06:52:25.998Z</time></trkpt><trkpt lat="45.05544815183419" lon="9.945746744424163"><ele>38.0</ele><time>2026-04-12T06:52:26.998Z</time></trkpt><trkpt lat="45.05537023315807" lon="9.94570421716338"><ele>38.0</ele><time>2026-04-12T06:52:27.998Z</time></trkpt><trkpt lat="45.05529099141278" lon="9.945663668356069"><ele>38.0</ele><time>2026-04-12T06:52:28.998Z</time></trkpt><trkpt lat="45.05521035443648" lon="9.945625500327173"><ele>38.0</ele><time>2026-04-12T06:52:29.998Z</time></trkpt><trkpt lat="45.0551311654161" lon="9.945584627560496"><ele>38.0</ele><time>2026-04-12T06:52:30.998Z</time></trkpt><trkpt lat="45.05505177702122" lon="9.945542430696198"><ele>38.0</ele><time>2026-04-12T06:52:32Z</time></trkpt><trkpt lat="45.05497073377105" lon="9.945501683580417"><ele>38.0</ele><time>2026-04-12T06:52:33Z</time></trkpt><trkpt lat="45.05489254850787" lon="9.945457775487222"><ele>38.0</ele><time>2026-04-12T06:52:34Z</time></trkpt><trkpt lat="45.054813605812456" lon="9.94541563713322"><ele>38.0</ele><time>2026-04-12T06:52:35Z</time></trkpt><trkpt lat="45.05473362543819" lon="9.945369904026817"><ele>38.0</ele><time>2026-04-12T06:52:36Z</time></trkpt><trkpt lat="45.05465513219773" lon="9.945328938916022"><ele>38.0</ele><time>2026-04-12T06:52:37Z</time></trkpt><trkpt lat="45.05457462066649" lon="9.945286923054567"><ele>38.0</ele><time>2026-04-12T06:52:38Z</time></trkpt><trkpt lat="45.054496914611484" lon="9.945243070429"><ele>38.0</ele><time>2026-04-12T06:52:39Z</time></trkpt><trkpt lat="45.054418904707155" lon="9.94519990946418"><ele>38.0</ele><time>2026-04-12T06:52:40Z</time></trkpt><trkpt lat="45.05434027235946" lon="9.945158184260563"><ele>38.0</ele><time>2026-04-12T06:52:41Z</time></trkpt><trkpt lat="45.05426164350645" lon="9.945117529082665"><ele>38.0</ele><time>2026-04-12T06:52:42Z</time></trkpt><trkpt lat="45.05418363618496" lon="9.945075099718656"><ele>38.0</ele><time>2026-04-12T06:52:43Z</time></trkpt><trkpt lat="45.05410675022212" lon="9.945032576229828"><ele>38.0</ele><time>2026-04-12T06:52:44Z</time></trkpt><trkpt lat="45.05402973674702" lon="9.944989578094352"><ele>38.0</ele><time>2026-04-12T06:52:45Z</time></trkpt><trkpt lat="45.05395248387365" lon="9.944945395233313"><ele>38.0</ele><time>2026-04-12T06:52:46Z</time></trkpt><trkpt lat="45.053876723881785" lon="9.944903197047129"><ele>38.0</ele><time>2026-04-12T06:52:47Z</time></trkpt><trkpt lat="45.0538009030326" lon="9.944862036233953"><ele>38.0</ele><time>2026-04-12T06:52:48Z</time></trkpt><trkpt lat="45.053725684104464" lon="9.944820123808539"><ele>38.0</ele><time>2026-04-12T06:52:49Z</time></trkpt><trkpt lat="45.05365039671195" lon="9.944779287217418"><ele>38.0</ele><time>2026-04-12T06:52:50Z</time></trkpt><trkpt lat="45.053575678610514" lon="9.944737930953778"><ele>38.0</ele><time>2026-04-12T06:52:51Z</time></trkpt><trkpt lat="45.053499679319735" lon="9.944698395920359"><ele>38.0</ele><time>2026-04-12T06:52:52Z</time></trkpt><trkpt lat="45.05342435203125" lon="9.944659630358766"><ele>38.0</ele><time>2026-04-12T06:52:53Z</time></trkpt><trkpt lat="45.05335072798305" lon="9.944618837884235"><ele>38.0</ele><time>2026-04-12T06:52:54Z</time></trkpt><trkpt lat="45.05327573504874" lon="9.944578894232153"><ele>38.0</ele><time>2026-04-12T06:52:55Z</time></trkpt><trkpt lat="45.05320104299982" lon="9.944536700231703"><ele>38.0</ele><time>2026-04-12T06:52:56Z</time></trkpt><trkpt lat="45.05312751654021" lon="9.944498130939003"><ele>38.0</ele><time>2026-04-12T06:52:57Z</time></trkpt><trkpt lat="45.05305361075896" lon="9.944458580674501"><ele>38.0</ele><time>2026-04-12T06:52:58Z</time></trkpt><trkpt lat="45.05298001798919" lon="9.944421223372235"><ele>38.0</ele><time>2026-04-12T06:52:59Z</time></trkpt><trkpt lat="45.052906471510326" lon="9.944379080399907"><ele>38.0</ele><time>2026-04-12T06:53:00Z</time></trkpt><trkpt lat="45.05283405139807" lon="9.944337893714629"><ele>38.0</ele><time>2026-04-12T06:53:01Z</time></trkpt><trkpt lat="45.05276149489198" lon="9.94429419823919"><ele>38.0</ele><time>2026-04-12T06:53:02Z</time></trkpt><trkpt lat="45.052688553990095" lon="9.944253820390037"><ele>38.0</ele><time>2026-04-12T06:53:03Z</time></trkpt><trkpt lat="45.05261516827201" lon="9.944213890966214"><ele>38.0</ele><time>2026-04-12T06:53:04Z</time></trkpt><trkpt lat="45.05254135155805" lon="9.944176284094649"><ele>38.0</ele><time>2026-04-12T06:53:05Z</time></trkpt><trkpt lat="45.05246902695424" lon="9.944137869868399"><ele>38.0</ele><time>2026-04-12T06:53:06Z</time></trkpt><trkpt lat="45.05239582936002" lon="9.944097272283262"><ele>38.0</ele><time>2026-04-12T06:53:07Z</time></trkpt><trkpt lat="45.0523233706994" lon="9.944055329832535"><ele>38.0</ele><time>2026-04-12T06:53:08Z</time></trkpt><trkpt lat="45.05225027055613" lon="9.94401679172029"><ele>38.0</ele><time>2026-04-12T06:53:09Z</time></trkpt><trkpt lat="45.05217654793149" lon="9.943977591084101"><ele>38.0</ele><time>2026-04-12T06:53:10Z</time></trkpt><trkpt lat="45.05210313715666" lon="9.943939174700605"><ele>38.0</ele><time>2026-04-12T06:53:11Z</time></trkpt><trkpt lat="45.05202934138117" lon="9.943898875142288"><ele>38.0</ele><time>2026-04-12T06:53:12Z</time></trkpt><trkpt lat="45.05195603396031" lon="9.943858100679519"><ele>38.0</ele><time>2026-04-12T06:53:13Z</time></trkpt><trkpt lat="45.051882575653735" lon="9.943817831796983"><ele>38.0</ele><time>2026-04-12T06:53:14Z</time></trkpt><trkpt lat="45.05180761098425" lon="9.943775656331242"><ele>38.0</ele><time>2026-04-12T06:53:15Z</time></trkpt><trkpt lat="45.05173255038604" lon="9.943736697081468"><ele>38.0</ele><time>2026-04-12T06:53:16Z</time></trkpt><trkpt lat="45.051657969800075" lon="9.943697428935115"><ele>38.0</ele><time>2026-04-12T06:53:17Z</time></trkpt><trkpt lat="45.051584720492706" lon="9.943659038358284"><ele>38.0</ele><time>2026-04-12T06:53:17.999Z</time></trkpt><trkpt lat="45.05151150416972" lon="9.943622502706052"><ele>38.0</ele><time>2026-04-12T06:53:18.999Z</time></trkpt><trkpt lat="45.05143760499598" lon="9.943588197315991"><ele>37.83333333333333</ele><time>2026-04-12T06:53:19.999Z</time></trkpt><trkpt lat="45.05136391717708" lon="9.943556312659021"><ele>37.666666666666664</ele><time>2026-04-12T06:53:20.999Z</time></trkpt><trkpt lat="45.051289851228674" lon="9.943524139981937"><ele>37.5</ele><time>2026-04-12T06:53:21.999Z</time></trkpt><trkpt lat="45.05121409108473" lon="9.943496259807066"><ele>37.333333333333336</ele><time>2026-04-12T06:53:22.999Z</time></trkpt><trkpt lat="45.051138056333684" lon="9.943471479704012"><ele>37.16666666666667</ele><time>2026-04-12T06:53:23.999Z</time></trkpt><trkpt lat="45.05106072810526" lon="9.943448136805326"><ele>37.0</ele><time>2026-04-12T06:53:24.999Z</time></trkpt><trkpt lat="45.050982424502656" lon="9.94342893078859"><ele>37.0</ele><time>2026-04-12T06:53:25.999Z</time></trkpt><trkpt lat="45.05090426199178" lon="9.943405510334635"><ele>37.0</ele><time>2026-04-12T06:53:26.999Z</time></trkpt><trkpt lat="45.05082541059427" lon="9.943385723282686"><ele>37.0</ele><time>2026-04-12T06:53:27.999Z</time></trkpt><trkpt lat="45.05074500292633" lon="9.943367936895568"><ele>37.0</ele><time>2026-04-12T06:53:28.999Z</time></trkpt><trkpt lat="45.05066552521046" lon="9.943357518337063"><ele>37.0</ele><time>2026-04-12T06:53:29.999Z</time></trkpt><trkpt lat="45.050584251024304" lon="9.943345565671518"><ele>37.0</ele><time>2026-04-12T06:53:30.999Z</time></trkpt><trkpt lat="45.05050402921497" lon="9.943336923267106"><ele>37.16666666666667</ele><time>2026-04-12T06:53:31.999Z</time></trkpt><trkpt lat="45.050424760957256" lon="9.94333126021514"><ele>37.333333333333336</ele><time>2026-04-12T06:53:32.999Z</time></trkpt><trkpt lat="45.05034495594343" lon="9.943324584920434"><ele>37.5</ele><time>2026-04-12T06:53:33.999Z</time></trkpt><trkpt lat="45.05026491308593" lon="9.943318016161324"><ele>37.666666666666664</ele><time>2026-04-12T06:53:34.999Z</time></trkpt><trkpt lat="45.05018488936056" lon="9.943310510878367"><ele>37.83333333333333</ele><time>2026-04-12T06:53:35.999Z</time></trkpt><trkpt lat="45.050105015200636" lon="9.943308463143268"><ele>38.0</ele><time>2026-04-12T06:53:36.999Z</time></trkpt><trkpt lat="45.050025101116205" lon="9.943307791961255"><ele>37.83333333333333</ele><time>2026-04-12T06:53:37.999Z</time></trkpt><trkpt lat="45.049943604987554" lon="9.943305629006671"><ele>37.666666666666664</ele><time>2026-04-12T06:53:38.999Z</time></trkpt><trkpt lat="45.04986488535602" lon="9.94330282983068"><ele>37.5</ele><time>2026-04-12T06:53:39.999Z</time></trkpt><trkpt lat="45.04978466867777" lon="9.94330023871857"><ele>37.333333333333336</ele><time>2026-04-12T06:53:40.999Z</time></trkpt><trkpt lat="45.04970542925881" lon="9.943296021948228"><ele>37.16666666666667</ele><time>2026-04-12T06:53:41.999Z</time></trkpt><trkpt lat="45.04962548871712" lon="9.943291534845608"><ele>37.0</ele><time>2026-04-12T06:53:42.999Z</time></trkpt><trkpt lat="45.04954605567171" lon="9.943284624160297"><ele>37.0</ele><time>2026-04-12T06:53:43.999Z</time></trkpt><trkpt lat="45.049466536291696" lon="9.943284621473667"><ele>37.0</ele><time>2026-04-12T06:53:44.999Z</time></trkpt><trkpt lat="45.04938719720716" lon="9.943281722218668"><ele>37.0</ele><time>2026-04-12T06:53:45.999Z</time></trkpt><trkpt lat="45.04930678722943" lon="9.943279997415809"><ele>37.0</ele><time>2026-04-12T06:53:46.999Z</time></trkpt><trkpt lat="45.04922738737989" lon="9.943276132072345"><ele>37.0</ele><time>2026-04-12T06:53:47.999Z</time></trkpt><trkpt lat="45.049147986064916" lon="9.943275417320663"><ele>37.0</ele><time>2026-04-12T06:53:48.999Z</time></trkpt><trkpt lat="45.04906750316991" lon="9.943272580225065"><ele>37.0</ele><time>2026-04-12T06:53:49.999Z</time></trkpt><trkpt lat="45.04898971861375" lon="9.943272021585562"><ele>37.0</ele><time>2026-04-12T06:53:50.999Z</time></trkpt><trkpt lat="45.04890777781609" lon="9.943266752648599"><ele>37.0</ele><time>2026-04-12T06:53:51.999Z</time></trkpt><trkpt lat="45.0488292317752" lon="9.943264267436145"><ele>37.0</ele><time>2026-04-12T06:53:52.999Z</time></trkpt><trkpt lat="45.04874896375976" lon="9.943259824292522"><ele>37.0</ele><time>2026-04-12T06:53:53.999Z</time></trkpt><trkpt lat="45.04866795567839" lon="9.943254475590921"><ele>37.0</ele><time>2026-04-12T06:53:54.999Z</time></trkpt><trkpt lat="45.048587832898924" lon="9.94325284528878"><ele>37.0</ele><time>2026-04-12T06:53:55.999Z</time></trkpt><trkpt lat="45.04850696273203" lon="9.943249363081437"><ele>37.0</ele><time>2026-04-12T06:53:56.999Z</time></trkpt><trkpt lat="45.048427931324554" lon="9.943247437399515"><ele>37.0</ele><time>2026-04-12T06:53:57.999Z</time></trkpt><trkpt lat="45.04834764707144" lon="9.943244996203028"><ele>37.0</ele><time>2026-04-12T06:53:58.999Z</time></trkpt><trkpt lat="45.04826690750927" lon="9.94324092095399"><ele>37.0</ele><time>2026-04-12T06:53:59.999Z</time></trkpt><trkpt lat="45.048186881671974" lon="9.943239292850896"><ele>37.0</ele><time>2026-04-12T06:54:00.999Z</time></trkpt><trkpt lat="45.04810472098809" lon="9.943235409811063"><ele>37.16666666666667</ele><time>2026-04-12T06:54:01.999Z</time></trkpt><trkpt lat="45.0480241753593" lon="9.943230937520445"><ele>37.333333333333336</ele><time>2026-04-12T06:54:02.999Z</time></trkpt><trkpt lat="45.04794388694421" lon="9.943227011015328"><ele>37.5</ele><time>2026-04-12T06:54:03.999Z</time></trkpt><trkpt lat="45.04786295849649" lon="9.943224668827733"><ele>37.666666666666664</ele><time>2026-04-12T06:54:04.999Z</time></trkpt><trkpt lat="45.047783249954136" lon="9.943224006003536"><ele>37.83333333333333</ele><time>2026-04-12T06:54:05.999Z</time></trkpt><trkpt lat="45.04770225177973" lon="9.943220269202099"><ele>38.0</ele><time>2026-04-12T06:54:06.999Z</time></trkpt><trkpt lat="45.047621771809546" lon="9.94321399921321"><ele>38.0</ele><time>2026-04-12T06:54:07.999Z</time></trkpt><trkpt lat="45.04754164725303" lon="9.943211538430248"><ele>38.0</ele><time>2026-04-12T06:54:08.999Z</time></trkpt><trkpt lat="45.047460188877054" lon="9.943209666172466"><ele>38.0</ele><time>2026-04-12T06:54:09.999Z</time></trkpt><trkpt lat="45.04737962751333" lon="9.943205832412202"><ele>38.0</ele><time>2026-04-12T06:54:10.998Z</time></trkpt><trkpt lat="45.04730001592432" lon="9.94320483245263"><ele>38.0</ele><time>2026-04-12T06:54:11.998Z</time></trkpt><trkpt lat="45.04722088570348" lon="9.943203462251454"><ele>38.0</ele><time>2026-04-12T06:54:12.998Z</time></trkpt><trkpt lat="45.04714187356032" lon="9.94319890847909"><ele>38.0</ele><time>2026-04-12T06:54:13.998Z</time></trkpt><trkpt lat="45.04706226883201" lon="9.94319469742236"><ele>38.0</ele><time>2026-04-12T06:54:14.998Z</time></trkpt><trkpt lat="45.04698360167096" lon="9.94319011257222"><ele>38.0</ele><time>2026-04-12T06:54:15.998Z</time></trkpt><trkpt lat="45.046903949454716" lon="9.943188459276461"><ele>38.0</ele><time>2026-04-12T06:54:16.998Z</time></trkpt><trkpt lat="45.046825564028545" lon="9.943186207326427"><ele>38.0</ele><time>2026-04-12T06:54:17.998Z</time></trkpt><trkpt lat="45.046744915266935" lon="9.943183886389255"><ele>38.0</ele><time>2026-04-12T06:54:18.998Z</time></trkpt><trkpt lat="45.04666452039228" lon="9.943178532218232"><ele>38.0</ele><time>2026-04-12T06:54:19.998Z</time></trkpt><trkpt lat="45.04658559009822" lon="9.943176444824102"><ele>38.0</ele><time>2026-04-12T06:54:20.998Z</time></trkpt><trkpt lat="45.04650518628491" lon="9.943171970920094"><ele>38.0</ele><time>2026-04-12T06:54:21.998Z</time></trkpt><trkpt lat="45.046425027420256" lon="9.94316964706833"><ele>38.0</ele><time>2026-04-12T06:54:22.998Z</time></trkpt><trkpt lat="45.04634536025847" lon="9.943167526708304"><ele>38.0</ele><time>2026-04-12T06:54:23.998Z</time></trkpt><trkpt lat="45.0462650262696" lon="9.943165190439704"><ele>38.0</ele><time>2026-04-12T06:54:24.998Z</time></trkpt><trkpt lat="45.04618580639414" lon="9.943162919035634"><ele>38.0</ele><time>2026-04-12T06:54:25.998Z</time></trkpt><trkpt lat="45.04610591167607" lon="9.943158945623617"><ele>38.0</ele><time>2026-04-12T06:54:26.998Z</time></trkpt><trkpt lat="45.046025916991745" lon="9.94315747800805"><ele>38.0</ele><time>2026-04-12T06:54:27.998Z</time></trkpt><trkpt lat="45.04594546365843" lon="9.943150538606787"><ele>38.0</ele><time>2026-04-12T06:54:28.998Z</time></trkpt><trkpt lat="45.04586616834414" lon="9.943146419712098"><ele>38.0</ele><time>2026-04-12T06:54:29.998Z</time></trkpt><trkpt lat="45.04578525549578" lon="9.943142559721602"><ele>38.0</ele><time>2026-04-12T06:54:30.998Z</time></trkpt><trkpt lat="45.04570436943587" lon="9.943141617778922"><ele>38.0</ele><time>2026-04-12T06:54:31.998Z</time></trkpt><trkpt lat="45.045624537254405" lon="9.943140664264757"><ele>38.0</ele><time>2026-04-12T06:54:32.998Z</time></trkpt><trkpt lat="45.045544842233205" lon="9.943136527948273"><ele>38.0</ele><time>2026-04-12T06:54:33.998Z</time></trkpt><trkpt lat="45.04546474148657" lon="9.943133152202327"><ele>38.0</ele><time>2026-04-12T06:54:34.998Z</time></trkpt><trkpt lat="45.04538561911785" lon="9.943126883972251"><ele>38.0</ele><time>2026-04-12T06:54:35.998Z</time></trkpt><trkpt lat="45.04530603315389" lon="9.943122849189805"><ele>38.0</ele><time>2026-04-12T06:54:37Z</time></trkpt><trkpt lat="45.04522491636728" lon="9.94311617567597"><ele>38.0</ele><time>2026-04-12T06:54:38Z</time></trkpt><trkpt lat="45.04514553982227" lon="9.943115325784914"><ele>38.0</ele><time>2026-04-12T06:54:39Z</time></trkpt><trkpt lat="45.04506464099695" lon="9.94311243527555"><ele>38.0</ele><time>2026-04-12T06:54:40Z</time></trkpt><trkpt lat="45.04498392308407" lon="9.943111090984674"><ele>38.0</ele><time>2026-04-12T06:54:41Z</time></trkpt><trkpt lat="45.044904380688465" lon="9.94310698606825"><ele>38.0</ele><time>2026-04-12T06:54:42Z</time></trkpt><trkpt lat="45.044823837196255" lon="9.943105431310652"><ele>38.0</ele><time>2026-04-12T06:54:43Z</time></trkpt><trkpt lat="45.04474519701353" lon="9.943100838075448"><ele>38.33333333333333</ele><time>2026-04-12T06:54:44Z</time></trkpt><trkpt lat="45.044666665831215" lon="9.943099050700775"><ele>38.666666666666664</ele><time>2026-04-12T06:54:45Z</time></trkpt><trkpt lat="45.04458880066047" lon="9.94309366340753"><ele>39.0</ele><time>2026-04-12T06:54:46Z</time></trkpt><trkpt lat="45.044509250794874" lon="9.943088371527647"><ele>39.333333333333336</ele><time>2026-04-12T06:54:47Z</time></trkpt><trkpt lat="45.04443039175593" lon="9.943084242404682"><ele>39.66666666666667</ele><time>2026-04-12T06:54:48Z</time></trkpt><trkpt lat="45.04434990436113" lon="9.943079633129924"><ele>40.0</ele><time>2026-04-12T06:54:49Z</time></trkpt><trkpt lat="45.04426793890348" lon="9.943076526007312"><ele>40.0</ele><time>2026-04-12T06:54:50Z</time></trkpt><trkpt lat="45.044189094499814" lon="9.943076434442428"><ele>40.0</ele><time>2026-04-12T06:54:51Z</time></trkpt><trkpt lat="45.04410745726701" lon="9.943075479154208"><ele>40.0</ele><time>2026-04-12T06:54:52Z</time></trkpt><trkpt lat="45.04402729447708" lon="9.9430707033439"><ele>40.0</ele><time>2026-04-12T06:54:53Z</time></trkpt><trkpt lat="45.04394737668425" lon="9.943067943000576"><ele>40.0</ele><time>2026-04-12T06:54:54Z</time></trkpt><trkpt lat="45.04386717871792" lon="9.943064395563034"><ele>40.0</ele><time>2026-04-12T06:54:55Z</time></trkpt><trkpt lat="45.04378886509681" lon="9.943061361745375"><ele>39.833333333333336</ele><time>2026-04-12T06:54:56Z</time></trkpt><trkpt lat="45.04370949755598" lon="9.943061089026056"><ele>39.66666666666667</ele><time>2026-04-12T06:54:57Z</time></trkpt><trkpt lat="45.04362919625331" lon="9.94305702616539"><ele>39.5</ele><time>2026-04-12T06:54:58Z</time></trkpt><trkpt lat="45.04354920911574" lon="9.943062018949808"><ele>39.333333333333336</ele><time>2026-04-12T06:54:59Z</time></trkpt><trkpt lat="45.04346750800466" lon="9.94306527488262"><ele>39.166666666666664</ele><time>2026-04-12T06:55:00Z</time></trkpt><trkpt lat="45.0433866817139" lon="9.943055794660658"><ele>39.0</ele><time>2026-04-12T06:55:01Z</time></trkpt><trkpt lat="45.04330593776518" lon="9.943046361432206"><ele>39.0</ele><time>2026-04-12T06:55:02Z</time></trkpt><trkpt lat="45.043224528053194" lon="9.943040462572643"><ele>39.0</ele><time>2026-04-12T06:55:03Z</time></trkpt><trkpt lat="45.04314336671871" lon="9.943037987308971"><ele>39.0</ele><time>2026-04-12T06:55:04Z</time></trkpt><trkpt lat="45.04306321502833" lon="9.94303752039079"><ele>39.0</ele><time>2026-04-12T06:55:05Z</time></trkpt><trkpt lat="45.042981315322145" lon="9.943034207932262"><ele>39.0</ele><time>2026-04-12T06:55:06Z</time></trkpt><trkpt lat="45.04290024090863" lon="9.943030057591622"><ele>39.0</ele><time>2026-04-12T06:55:07Z</time></trkpt><trkpt lat="45.04281930075817" lon="9.943028073490044"><ele>39.0</ele><time>2026-04-12T06:55:08Z</time></trkpt><trkpt lat="45.0427401589356" lon="9.943029706117727"><ele>39.0</ele><time>2026-04-12T06:55:09Z</time></trkpt><trkpt lat="45.0426576503049" lon="9.943032912033473"><ele>39.0</ele><time>2026-04-12T06:55:10Z</time></trkpt><trkpt lat="45.042575978854394" lon="9.943029885737241"><ele>39.0</ele><time>2026-04-12T06:55:11Z</time></trkpt><trkpt lat="45.04249378140485" lon="9.943020197565025"><ele>39.0</ele><time>2026-04-12T06:55:12Z</time></trkpt><trkpt lat="45.042411831663664" lon="9.943014337493311"><ele>39.0</ele><time>2026-04-12T06:55:13Z</time></trkpt><trkpt lat="45.04233109012246" lon="9.943010946286353"><ele>39.0</ele><time>2026-04-12T06:55:14Z</time></trkpt><trkpt lat="45.04224970881979" lon="9.94300934107787"><ele>39.0</ele><time>2026-04-12T06:55:15Z</time></trkpt><trkpt lat="45.04216918417936" lon="9.943009663457326"><ele>39.0</ele><time>2026-04-12T06:55:16Z</time></trkpt><trkpt lat="45.042088899286675" lon="9.94300765173812"><ele>39.0</ele><time>2026-04-12T06:55:17Z</time></trkpt><trkpt lat="45.042007116472135" lon="9.943005385595825"><ele>39.0</ele><time>2026-04-12T06:55:18Z</time></trkpt><trkpt lat="45.04192616326736" lon="9.943001273099572"><ele>39.0</ele><time>2026-04-12T06:55:19Z</time></trkpt><trkpt lat="45.041845428833845" lon="9.94299798010127"><ele>39.0</ele><time>2026-04-12T06:55:20Z</time></trkpt><trkpt lat="45.04176439660724" lon="9.942995995235464"><ele>39.0</ele><time>2026-04-12T06:55:20.999Z</time></trkpt><trkpt lat="45.04168363550439" lon="9.942992532671619"><ele>39.0</ele><time>2026-04-12T06:55:21.999Z</time></trkpt><trkpt lat="45.04160092850446" lon="9.942986629050909"><ele>39.0</ele><time>2026-04-12T06:55:22.999Z</time></trkpt><trkpt lat="45.0415196760426" lon="9.942981122912633"><ele>39.0</ele><time>2026-04-12T06:55:23.999Z</time></trkpt><trkpt lat="45.041438181874625" lon="9.9429758854044"><ele>39.0</ele><time>2026-04-12T06:55:24.999Z</time></trkpt><trkpt lat="45.041357978022546" lon="9.942972890889015"><ele>38.833333333333336</ele><time>2026-04-12T06:55:25.999Z</time></trkpt><trkpt lat="45.04127627902524" lon="9.942968081779584"><ele>38.666666666666664</ele><time>2026-04-12T06:55:26.999Z</time></trkpt><trkpt lat="45.04119468373131" lon="9.942964239446958"><ele>38.5</ele><time>2026-04-12T06:55:27.999Z</time></trkpt><trkpt lat="45.04111283071738" lon="9.942964651904418"><ele>38.33333333333333</ele><time>2026-04-12T06:55:28.999Z</time></trkpt><trkpt lat="45.041031881957" lon="9.942963034893799"><ele>38.166666666666664</ele><time>2026-04-12T06:55:29.999Z</time></trkpt><trkpt lat="45.04094582633805" lon="9.942960363639065"><ele>38.0</ele><time>2026-04-12T06:55:30.999Z</time></trkpt><trkpt lat="45.04086331571025" lon="9.942959195022452"><ele>38.166666666666664</ele><time>2026-04-12T06:55:31.999Z</time></trkpt><trkpt lat="45.04078170245542" lon="9.942946305557546"><ele>38.33333333333333</ele><time>2026-04-12T06:55:32.999Z</time></trkpt><trkpt lat="45.04070043012826" lon="9.942934751323408"><ele>38.5</ele><time>2026-04-12T06:55:33.999Z</time></trkpt><trkpt lat="45.04062120327319" lon="9.942934681737874"><ele>38.666666666666664</ele><time>2026-04-12T06:55:34.999Z</time></trkpt><trkpt lat="45.04053988332405" lon="9.942933815284198"><ele>38.833333333333336</ele><time>2026-04-12T06:55:35.999Z</time></trkpt><trkpt lat="45.04045997137459" lon="9.942932431657232"><ele>39.0</ele><time>2026-04-12T06:55:36.999Z</time></trkpt><trkpt lat="45.04038077460567" lon="9.94292818711572"><ele>39.0</ele><time>2026-04-12T06:55:37.999Z</time></trkpt><trkpt lat="45.04030025002347" lon="9.942925848541579"><ele>39.0</ele><time>2026-04-12T06:55:38.999Z</time></trkpt><trkpt lat="45.04022000709938" lon="9.942923663052037"><ele>39.0</ele><time>2026-04-12T06:55:39.999Z</time></trkpt><trkpt lat="45.040140340903925" lon="9.942923151775075"><ele>39.0</ele><time>2026-04-12T06:55:40.999Z</time></trkpt><trkpt lat="45.040060543377486" lon="9.942922500129255"><ele>39.0</ele><time>2026-04-12T06:55:41.999Z</time></trkpt><trkpt lat="45.03998332047118" lon="9.942918864281335"><ele>39.0</ele><time>2026-04-12T06:55:42.999Z</time></trkpt><trkpt lat="45.039905433549876" lon="9.94291067303451"><ele>39.166666666666664</ele><time>2026-04-12T06:55:43.999Z</time></trkpt><trkpt lat="45.03982637113418" lon="9.942903703502774"><ele>39.333333333333336</ele><time>2026-04-12T06:55:44.999Z</time></trkpt><trkpt lat="45.039746376706084" lon="9.942899504903787"><ele>39.5</ele><time>2026-04-12T06:55:45.999Z</time></trkpt><trkpt lat="45.03966900992735" lon="9.942899555323411"><ele>39.66666666666667</ele><time>2026-04-12T06:55:46.999Z</time></trkpt><trkpt lat="45.03959004014109" lon="9.942894533026838"><ele>39.833333333333336</ele><time>2026-04-12T06:55:47.999Z</time></trkpt><trkpt lat="45.03951279827809" lon="9.942897657099824"><ele>40.0</ele><time>2026-04-12T06:55:48.999Z</time></trkpt><trkpt lat="45.039434613772045" lon="9.94289488820587"><ele>40.0</ele><time>2026-04-12T06:55:49.999Z</time></trkpt><trkpt lat="45.03935586376025" lon="9.942893557731708"><ele>40.0</ele><time>2026-04-12T06:55:50.999Z</time></trkpt><trkpt lat="45.039277603988424" lon="9.942891478688122"><ele>40.0</ele><time>2026-04-12T06:55:51.999Z</time></trkpt><trkpt lat="45.03919641183594" lon="9.942888125287645"><ele>40.0</ele><time>2026-04-12T06:55:52.999Z</time></trkpt><trkpt lat="45.039119460186384" lon="9.942883519972455"><ele>40.0</ele><time>2026-04-12T06:55:53.999Z</time></trkpt><trkpt lat="45.03903836714323" lon="9.942873914553596"><ele>40.0</ele><time>2026-04-12T06:55:54.999Z</time></trkpt><trkpt lat="45.03895941787085" lon="9.942870153304836"><ele>40.16666666666667</ele><time>2026-04-12T06:55:55.999Z</time></trkpt><trkpt lat="45.03887958798936" lon="9.94286799342792"><ele>40.333333333333336</ele><time>2026-04-12T06:55:56.999Z</time></trkpt><trkpt lat="45.03880084563385" lon="9.942868077121789"><ele>40.5</ele><time>2026-04-12T06:55:57.999Z</time></trkpt><trkpt lat="45.038721358013284" lon="9.942865846777481"><ele>40.666666666666664</ele><time>2026-04-12T06:55:58.999Z</time></trkpt><trkpt lat="45.03864183401939" lon="9.942862867291733"><ele>40.83333333333333</ele><time>2026-04-12T06:55:59.999Z</time></trkpt><trkpt lat="45.038561871652" lon="9.94285841870559"><ele>41.0</ele><time>2026-04-12T06:56:00.999Z</time></trkpt><trkpt lat="45.0384829107933" lon="9.942857673321344"><ele>41.0</ele><time>2026-04-12T06:56:01.999Z</time></trkpt><trkpt lat="45.03840394092761" lon="9.94285159279158"><ele>41.0</ele><time>2026-04-12T06:56:02.999Z</time></trkpt><trkpt lat="45.038326583242586" lon="9.942852495469731"><ele>41.0</ele><time>2026-04-12T06:56:03.999Z</time></trkpt><trkpt lat="45.03824681207112" lon="9.942846708162863"><ele>41.0</ele><time>2026-04-12T06:56:04.999Z</time></trkpt><trkpt lat="45.038168247204105" lon="9.942846613701498"><ele>41.0</ele><time>2026-04-12T06:56:05.999Z</time></trkpt><trkpt lat="45.03808908771464" lon="9.942840228339895"><ele>41.0</ele><time>2026-04-12T06:56:06.999Z</time></trkpt><trkpt lat="45.03800887663133" lon="9.942838093679672"><ele>41.0</ele><time>2026-04-12T06:56:07.999Z</time></trkpt><trkpt lat="45.03792941420184" lon="9.942836848384504"><ele>41.0</ele><time>2026-04-12T06:56:08.999Z</time></trkpt><trkpt lat="45.03784998954163" lon="9.942834633496854"><ele>41.0</ele><time>2026-04-12T06:56:09.999Z</time></trkpt><trkpt lat="45.03777013891839" lon="9.942831293289913"><ele>41.0</ele><time>2026-04-12T06:56:10.999Z</time></trkpt><trkpt lat="45.03768989993821" lon="9.942830230458702"><ele>41.0</ele><time>2026-04-12T06:56:11.999Z</time></trkpt><trkpt lat="45.037609642313086" lon="9.942829226083964"><ele>41.0</ele><time>2026-04-12T06:56:12.999Z</time></trkpt><trkpt lat="45.03752938169944" lon="9.94282458158374"><ele>40.83333333333333</ele><time>2026-04-12T06:56:13.998Z</time></trkpt><trkpt lat="45.03744894785626" lon="9.942819939466906"><ele>40.666666666666664</ele><time>2026-04-12T06:56:14.998Z</time></trkpt><trkpt lat="45.03736714221397" lon="9.94281432725153"><ele>40.5</ele><time>2026-04-12T06:56:15.998Z</time></trkpt><trkpt lat="45.037286458022145" lon="9.942811690718406"><ele>40.333333333333336</ele><time>2026-04-12T06:56:16.998Z</time></trkpt><trkpt lat="45.03720579080054" lon="9.942809085319787"><ele>40.16666666666667</ele><time>2026-04-12T06:56:17.998Z</time></trkpt><trkpt lat="45.03712464855995" lon="9.9428054244807"><ele>40.0</ele><time>2026-04-12T06:56:18.998Z</time></trkpt><trkpt lat="45.03704528813098" lon="9.942804888820104"><ele>40.0</ele><time>2026-04-12T06:56:19.998Z</time></trkpt><trkpt lat="45.03696355743482" lon="9.942801052515712"><ele>40.0</ele><time>2026-04-12T06:56:20.998Z</time></trkpt><trkpt lat="45.0368834479208" lon="9.942794752257932"><ele>40.0</ele><time>2026-04-12T06:56:21.998Z</time></trkpt><trkpt lat="45.036803518935244" lon="9.94279055909063"><ele>40.0</ele><time>2026-04-12T06:56:22.998Z</time></trkpt><trkpt lat="45.03672330067081" lon="9.942787527686367"><ele>40.0</ele><time>2026-04-12T06:56:23.998Z</time></trkpt><trkpt lat="45.03664277330503" lon="9.942785111565124"><ele>40.0</ele><time>2026-04-12T06:56:24.998Z</time></trkpt><trkpt lat="45.03656121718563" lon="9.942780789969342"><ele>40.333333333333336</ele><time>2026-04-12T06:56:25.998Z</time></trkpt><trkpt lat="45.03648039425011" lon="9.942776710011854"><ele>40.66666666666667</ele><time>2026-04-12T06:56:26.998Z</time></trkpt><trkpt lat="45.036398400243094" lon="9.942773471144907"><ele>41.0</ele><time>2026-04-12T06:56:27.998Z</time></trkpt><trkpt lat="45.036317671117295" lon="9.942770672691283"><ele>41.333333333333336</ele><time>2026-04-12T06:56:28.998Z</time></trkpt><trkpt lat="45.03623552586955" lon="9.942768629793111"><ele>41.666666666666664</ele><time>2026-04-12T06:56:29.998Z</time></trkpt><trkpt lat="45.03615454485321" lon="9.942767988101147"><ele>42.0</ele><time>2026-04-12T06:56:30.998Z</time></trkpt><trkpt lat="45.03607351783014" lon="9.942763025804581"><ele>42.0</ele><time>2026-04-12T06:56:31.998Z</time></trkpt><trkpt lat="45.03599332471454" lon="9.942759666926891"><ele>42.0</ele><time>2026-04-12T06:56:32.998Z</time></trkpt><trkpt lat="45.035912812435626" lon="9.942757439687798"><ele>42.0</ele><time>2026-04-12T06:56:33.998Z</time></trkpt><trkpt lat="45.03583439585162" lon="9.942753858672575"><ele>42.0</ele><time>2026-04-12T06:56:34.998Z</time></trkpt><trkpt lat="45.03575419932797" lon="9.942751450849732"><ele>42.0</ele><time>2026-04-12T06:56:35.998Z</time></trkpt><trkpt lat="45.03567485186685" lon="9.942747267966942"><ele>42.0</ele><time>2026-04-12T06:56:36.998Z</time></trkpt><trkpt lat="45.035595063539176" lon="9.942743961424313"><ele>41.666666666666664</ele><time>2026-04-12T06:56:37.998Z</time></trkpt><trkpt lat="45.035516250746646" lon="9.942740383895943"><ele>41.333333333333336</ele><time>2026-04-12T06:56:38.998Z</time></trkpt><trkpt lat="45.03543769870279" lon="9.942738406985455"><ele>41.0</ele><time>2026-04-12T06:56:39.998Z</time></trkpt><trkpt lat="45.035357403217816" lon="9.942732958910174"><ele>40.66666666666667</ele><time>2026-04-12T06:56:40.998Z</time></trkpt><trkpt lat="45.035278459521216" lon="9.942729832815097"><ele>40.333333333333336</ele><time>2026-04-12T06:56:41.998Z</time></trkpt><trkpt lat="45.03519853223308" lon="9.942724198742697"><ele>40.0</ele><time>2026-04-12T06:56:43Z</time></trkpt><trkpt lat="45.03512062188249" lon="9.942722678248813"><ele>40.0</ele><time>2026-04-12T06:56:44Z</time></trkpt><trkpt lat="45.035040069590195" lon="9.942716687308382"><ele>40.0</ele><time>2026-04-12T06:56:45Z</time></trkpt><trkpt lat="45.03496112426894" lon="9.942714539714046"><ele>40.0</ele><time>2026-04-12T06:56:46Z</time></trkpt><trkpt lat="45.03488139170826" lon="9.942709324896697"><ele>40.0</ele><time>2026-04-12T06:56:47Z</time></trkpt><trkpt lat="45.034802683986165" lon="9.942706336813124"><ele>40.0</ele><time>2026-04-12T06:56:48Z</time></trkpt><trkpt lat="45.0347218674392" lon="9.94270247286828"><ele>40.0</ele><time>2026-04-12T06:56:49Z</time></trkpt><trkpt lat="45.03464356080284" lon="9.942699571010873"><ele>40.0</ele><time>2026-04-12T06:56:50Z</time></trkpt><trkpt lat="45.03456391322067" lon="9.942695795778633"><ele>40.0</ele><time>2026-04-12T06:56:51Z</time></trkpt><trkpt lat="45.034486016067504" lon="9.942693656554752"><ele>40.0</ele><time>2026-04-12T06:56:52Z</time></trkpt><trkpt lat="45.03440702932645" lon="9.942689266805134"><ele>40.0</ele><time>2026-04-12T06:56:53Z</time></trkpt><trkpt lat="45.034329059066366" lon="9.942685484785834"><ele>40.0</ele><time>2026-04-12T06:56:54Z</time></trkpt><trkpt lat="45.03424944011882" lon="9.942679164211853"><ele>40.0</ele><time>2026-04-12T06:56:55Z</time></trkpt><trkpt lat="45.03417154388421" lon="9.942675745458297"><ele>40.0</ele><time>2026-04-12T06:56:56Z</time></trkpt><trkpt lat="45.03409238309036" lon="9.942669466069441"><ele>40.0</ele><time>2026-04-12T06:56:57Z</time></trkpt><trkpt lat="45.03401416601704" lon="9.942666293763576"><ele>40.0</ele><time>2026-04-12T06:56:58Z</time></trkpt><trkpt lat="45.033936854632806" lon="9.942663727507579"><ele>40.0</ele><time>2026-04-12T06:56:59Z</time></trkpt><trkpt lat="45.03385891533453" lon="9.942660579360844"><ele>40.0</ele><time>2026-04-12T06:57:00Z</time></trkpt><trkpt lat="45.03378207759842" lon="9.942658088169678"><ele>40.0</ele><time>2026-04-12T06:57:01Z</time></trkpt><trkpt lat="45.033705104333656" lon="9.942654858514828"><ele>40.0</ele><time>2026-04-12T06:57:02Z</time></trkpt><trkpt lat="45.033626568823244" lon="9.942651000070478"><ele>40.0</ele><time>2026-04-12T06:57:03Z</time></trkpt><trkpt lat="45.03354901464961" lon="9.942648623950241"><ele>40.0</ele><time>2026-04-12T06:57:04Z</time></trkpt><trkpt lat="45.03347338407964" lon="9.94263762626029"><ele>40.0</ele><time>2026-04-12T06:57:05Z</time></trkpt><trkpt lat="45.033398464731654" lon="9.942616170140754"><ele>40.0</ele><time>2026-04-12T06:57:06Z</time></trkpt><trkpt lat="45.033328087947424" lon="9.94257905455011"><ele>40.0</ele><time>2026-04-12T06:57:07Z</time></trkpt><trkpt lat="45.03325787639349" lon="9.942532004610255"><ele>40.16666666666667</ele><time>2026-04-12T06:57:08Z</time></trkpt><trkpt lat="45.03318983909677" lon="9.942518968570143"><ele>40.333333333333336</ele><time>2026-04-12T06:57:09Z</time></trkpt><trkpt lat="45.033120330113704" lon="9.94256773406016"><ele>40.5</ele><time>2026-04-12T06:57:10Z</time></trkpt><trkpt lat="45.03308322685031" lon="9.942665379999688"><ele>40.666666666666664</ele><time>2026-04-12T06:57:11Z</time></trkpt><trkpt lat="45.03308819879849" lon="9.942780020922077"><ele>40.83333333333333</ele><time>2026-04-12T06:57:12Z</time></trkpt><trkpt lat="45.03310695813576" lon="9.942880702844247"><ele>41.0</ele><time>2026-04-12T06:57:13Z</time></trkpt><trkpt lat="45.03311622227389" lon="9.942980320779556"><ele>41.0</ele><time>2026-04-12T06:57:14Z</time></trkpt><trkpt lat="45.033124834259795" lon="9.943088600231926"><ele>41.0</ele><time>2026-04-12T06:57:15Z</time></trkpt><trkpt lat="45.03311944378869" lon="9.943196553294067"><ele>41.0</ele><time>2026-04-12T06:57:16Z</time></trkpt><trkpt lat="45.03307586899011" lon="9.943302130750585"><ele>41.0</ele><time>2026-04-12T06:57:17Z</time></trkpt><trkpt lat="45.0330591399646" lon="9.943405261116585"><ele>41.0</ele><time>2026-04-12T06:57:18Z</time></trkpt><trkpt lat="45.03303989418677" lon="9.943511605495152"><ele>41.0</ele><time>2026-04-12T06:57:19Z</time></trkpt><trkpt lat="45.03302254991753" lon="9.943621621016574"><ele>41.166666666666664</ele><time>2026-04-12T06:57:20Z</time></trkpt><trkpt lat="45.03300326931546" lon="9.943731013341518"><ele>41.33333333333333</ele><time>2026-04-12T06:57:21Z</time></trkpt><trkpt lat="45.03298369351187" lon="9.943842118891968"><ele>41.5</ele><time>2026-04-12T06:57:22Z</time></trkpt><trkpt lat="45.0329627509265" lon="9.943953411857821"><ele>41.666666666666664</ele><time>2026-04-12T06:57:23Z</time></trkpt><trkpt lat="45.03294432254448" lon="9.944064172439658"><ele>41.833333333333336</ele><time>2026-04-12T06:57:24Z</time></trkpt><trkpt lat="45.032925302250696" lon="9.944174583229298"><ele>42.0</ele><time>2026-04-12T06:57:25Z</time></trkpt><trkpt lat="45.032905428338346" lon="9.944284182167612"><ele>42.0</ele><time>2026-04-12T06:57:26Z</time></trkpt><trkpt lat="45.032886131972504" lon="9.944390549575393"><ele>42.0</ele><time>2026-04-12T06:57:26.999Z</time></trkpt><trkpt lat="45.03286258900472" lon="9.944499917274989"><ele>42.0</ele><time>2026-04-12T06:57:27.999Z</time></trkpt><trkpt lat="45.03284200972235" lon="9.944605498075322"><ele>42.0</ele><time>2026-04-12T06:57:28.999Z</time></trkpt><trkpt lat="45.032814034451825" lon="9.94471205960227"><ele>42.0</ele><time>2026-04-12T06:57:29.999Z</time></trkpt><trkpt lat="45.03278060631761" lon="9.944811985749086"><ele>42.0</ele><time>2026-04-12T06:57:30.999Z</time></trkpt><trkpt lat="45.03273638157208" lon="9.944906672831186"><ele>42.0</ele><time>2026-04-12T06:57:31.999Z</time></trkpt><trkpt lat="45.03267809345426" lon="9.944990672556367"><ele>42.0</ele><time>2026-04-12T06:57:32.999Z</time></trkpt><trkpt lat="45.03260868823061" lon="9.945051569114858"><ele>42.0</ele><time>2026-04-12T06:57:33.999Z</time></trkpt><trkpt lat="45.03252731463875" lon="9.945080428392947"><ele>42.0</ele><time>2026-04-12T06:57:34.999Z</time></trkpt><trkpt lat="45.03244581622664" lon="9.945092387859606"><ele>42.0</ele><time>2026-04-12T06:57:35.999Z</time></trkpt><trkpt lat="45.03236698744054" lon="9.94508955520634"><ele>42.0</ele><time>2026-04-12T06:57:36.999Z</time></trkpt><trkpt lat="45.03228774424598" lon="9.945063380378178"><ele>42.5</ele><time>2026-04-12T06:57:37.999Z</time></trkpt><trkpt lat="45.03221128630625" lon="9.945031850834484"><ele>43.0</ele><time>2026-04-12T06:57:38.999Z</time></trkpt><trkpt lat="45.03213435564339" lon="9.945002385573389"><ele>43.5</ele><time>2026-04-12T06:57:39.999Z</time></trkpt><trkpt lat="45.03206072039526" lon="9.944975609763869"><ele>44.0</ele><time>2026-04-12T06:57:40.999Z</time></trkpt><trkpt lat="45.03198741480976" lon="9.94494661064592"><ele>44.5</ele><time>2026-04-12T06:57:41.999Z</time></trkpt><trkpt lat="45.03191047955545" lon="9.944916995063137"><ele>45.0</ele><time>2026-04-12T06:57:42.999Z</time></trkpt><trkpt lat="45.03183612885894" lon="9.944883703318505"><ele>45.0</ele><time>2026-04-12T06:57:43.999Z</time></trkpt><trkpt lat="45.031761239546846" lon="9.944856750090993"><ele>45.0</ele><time>2026-04-12T06:57:44.999Z</time></trkpt><trkpt lat="45.03168604221342" lon="9.944828626440621"><ele>45.0</ele><time>2026-04-12T06:57:45.999Z</time></trkpt><trkpt lat="45.03160848065123" lon="9.9448008719836"><ele>45.0</ele><time>2026-04-12T06:57:46.999Z</time></trkpt><trkpt lat="45.031533143131995" lon="9.944771284798664"><ele>45.0</ele><time>2026-04-12T06:57:47.999Z</time></trkpt><trkpt lat="45.031457374274964" lon="9.944733199928447"><ele>45.0</ele><time>2026-04-12T06:57:48.999Z</time></trkpt><trkpt lat="45.03137972724014" lon="9.944697498468596"><ele>44.666666666666664</ele><time>2026-04-12T06:57:49.999Z</time></trkpt><trkpt lat="45.0313034960296" lon="9.944666462380004"><ele>44.333333333333336</ele><time>2026-04-12T06:57:50.999Z</time></trkpt><trkpt lat="45.03122459919861" lon="9.944635389665669"><ele>44.0</ele><time>2026-04-12T06:57:51.999Z</time></trkpt><trkpt lat="45.031147586172196" lon="9.944608706255384"><ele>43.66666666666667</ele><time>2026-04-12T06:57:52.999Z</time></trkpt><trkpt lat="45.03107065655072" lon="9.944577980431406"><ele>43.333333333333336</ele><time>2026-04-12T06:57:53.999Z</time></trkpt><trkpt lat="45.03099376211906" lon="9.944544058215827"><ele>43.0</ele><time>2026-04-12T06:57:54.999Z</time></trkpt><trkpt lat="45.03091684610439" lon="9.944515734636523"><ele>43.0</ele><time>2026-04-12T06:57:55.999Z</time></trkpt><trkpt lat="45.03083795786089" lon="9.944484625620262"><ele>43.0</ele><time>2026-04-12T06:57:56.999Z</time></trkpt><trkpt lat="45.0307624621533" lon="9.944455304002771"><ele>43.0</ele><time>2026-04-12T06:57:57.999Z</time></trkpt><trkpt lat="45.03068533105761" lon="9.944426086746628"><ele>43.0</ele><time>2026-04-12T06:57:58.999Z</time></trkpt><trkpt lat="45.030608499322156" lon="9.94439442436805"><ele>43.0</ele><time>2026-04-12T06:57:59.999Z</time></trkpt><trkpt lat="45.030533521429184" lon="9.944365660389417"><ele>43.0</ele><time>2026-04-12T06:58:00.999Z</time></trkpt><trkpt lat="45.030455855562906" lon="9.944333997681378"><ele>43.16666666666667</ele><time>2026-04-12T06:58:01.999Z</time></trkpt><trkpt lat="45.03037971820314" lon="9.944304436509839"><ele>43.333333333333336</ele><time>2026-04-12T06:58:02.999Z</time></trkpt><trkpt lat="45.03030224753544" lon="9.944272224265669"><ele>43.5</ele><time>2026-04-12T06:58:03.999Z</time></trkpt><trkpt lat="45.030226807413776" lon="9.944243467921684"><ele>43.666666666666664</ele><time>2026-04-12T06:58:04.999Z</time></trkpt><trkpt lat="45.03014769393882" lon="9.944212790193586"><ele>43.83333333333333</ele><time>2026-04-12T06:58:05.999Z</time></trkpt><trkpt lat="45.030070341114964" lon="9.94417977196122"><ele>44.0</ele><time>2026-04-12T06:58:06.999Z</time></trkpt><trkpt lat="45.02999254423869" lon="9.944152129456985"><ele>43.666666666666664</ele><time>2026-04-12T06:58:07.999Z</time></trkpt><trkpt lat="45.029915212496014" lon="9.944120993422562"><ele>43.33333333333333</ele><time>2026-04-12T06:58:08.999Z</time></trkpt><trkpt lat="45.02983741703852" lon="9.944089578930818"><ele>43.0</ele><time>2026-04-12T06:58:09.999Z</time></trkpt><trkpt lat="45.02976024805062" lon="9.944059074904818"><ele>42.666666666666664</ele><time>2026-04-12T06:58:10.999Z</time></trkpt><trkpt lat="45.02968164721401" lon="9.944028522041341"><ele>42.333333333333336</ele><time>2026-04-12T06:58:11.999Z</time></trkpt><trkpt lat="45.0296040067222" lon="9.94399904909318"><ele>42.0</ele><time>2026-04-12T06:58:12.999Z</time></trkpt><trkpt lat="45.02952646763879" lon="9.943967425307699"><ele>42.0</ele><time>2026-04-12T06:58:13.999Z</time></trkpt><trkpt lat="45.02944777298278" lon="9.943936362319459"><ele>42.0</ele><time>2026-04-12T06:58:14.999Z</time></trkpt><trkpt lat="45.029370709868104" lon="9.943906023686807"><ele>42.0</ele><time>2026-04-12T06:58:15.999Z</time></trkpt><trkpt lat="45.02929225869983" lon="9.943874854022832"><ele>42.0</ele><time>2026-04-12T06:58:16.999Z</time></trkpt><trkpt lat="45.02921503112453" lon="9.943844075994202"><ele>42.0</ele><time>2026-04-12T06:58:17.999Z</time></trkpt><trkpt lat="45.02913920839046" lon="9.943815657741002"><ele>42.0</ele><time>2026-04-12T06:58:18.999Z</time></trkpt><trkpt lat="45.02905917545116" lon="9.94378026874038"><ele>42.333333333333336</ele><time>2026-04-12T06:58:19.998Z</time></trkpt><trkpt lat="45.02898067176811" lon="9.943747345010534"><ele>42.666666666666664</ele><time>2026-04-12T06:58:20.998Z</time></trkpt><trkpt lat="45.02890076044594" lon="9.943714071548648"><ele>43.0</ele><time>2026-04-12T06:58:21.998Z</time></trkpt><trkpt lat="45.02882119254333" lon="9.943684498105823"><ele>43.33333333333333</ele><time>2026-04-12T06:58:22.998Z</time></trkpt><trkpt lat="45.02874171983523" lon="9.94365422449654"><ele>43.666666666666664</ele><time>2026-04-12T06:58:23.998Z</time></trkpt><trkpt lat="45.028662336316316" lon="9.943622517400943"><ele>44.0</ele><time>2026-04-12T06:58:24.998Z</time></trkpt><trkpt lat="45.02858260863616" lon="9.943590687138128"><ele>44.0</ele><time>2026-04-12T06:58:25.998Z</time></trkpt><trkpt lat="45.02850313449127" lon="9.943557748817746"><ele>44.0</ele><time>2026-04-12T06:58:26.998Z</time></trkpt><trkpt lat="45.02842401779455" lon="9.943526101787297"><ele>44.0</ele><time>2026-04-12T06:58:27.998Z</time></trkpt><trkpt lat="45.02834402834461" lon="9.94349491442757"><ele>44.0</ele><time>2026-04-12T06:58:28.998Z</time></trkpt><trkpt lat="45.02826591778857" lon="9.943465110244023"><ele>44.0</ele><time>2026-04-12T06:58:29.998Z</time></trkpt><trkpt lat="45.028186765292105" lon="9.943434270592029"><ele>44.0</ele><time>2026-04-12T06:58:30.998Z</time></trkpt><trkpt lat="45.02810801589463" lon="9.94340227739895"><ele>43.5</ele><time>2026-04-12T06:58:31.998Z</time></trkpt><trkpt lat="45.02802997896298" lon="9.94337072694262"><ele>43.0</ele><time>2026-04-12T06:58:32.998Z</time></trkpt><trkpt lat="45.02795038151224" lon="9.943341745048372"><ele>42.5</ele><time>2026-04-12T06:58:33.998Z</time></trkpt><trkpt lat="45.02787462088967" lon="9.943312393476875"><ele>42.0</ele><time>2026-04-12T06:58:34.998Z</time></trkpt><trkpt lat="45.02779695197877" lon="9.943284420791155"><ele>41.5</ele><time>2026-04-12T06:58:35.998Z</time></trkpt><trkpt lat="45.02771957322569" lon="9.943252819797227"><ele>41.0</ele><time>2026-04-12T06:58:36.998Z</time></trkpt><trkpt lat="45.027642804051" lon="9.943222581153986"><ele>41.0</ele><time>2026-04-12T06:58:37.998Z</time></trkpt><trkpt lat="45.02756388380393" lon="9.94319079948132"><ele>41.0</ele><time>2026-04-12T06:58:38.998Z</time></trkpt><trkpt lat="45.02748762665142" lon="9.943160261754457"><ele>41.0</ele><time>2026-04-12T06:58:39.998Z</time></trkpt><trkpt lat="45.02740881106256" lon="9.943134306444135"><ele>41.0</ele><time>2026-04-12T06:58:40.998Z</time></trkpt><trkpt lat="45.02733183364135" lon="9.943101451996219"><ele>41.0</ele><time>2026-04-12T06:58:41.998Z</time></trkpt><trkpt lat="45.02725665096556" lon="9.943071640214379"><ele>41.0</ele><time>2026-04-12T06:58:42.998Z</time></trkpt><trkpt lat="45.02717841120746" lon="9.943038303434182"><ele>41.0</ele><time>2026-04-12T06:58:43.998Z</time></trkpt><trkpt lat="45.02710314318083" lon="9.943012424618516"><ele>41.0</ele><time>2026-04-12T06:58:44.998Z</time></trkpt><trkpt lat="45.027024570013246" lon="9.942978034912999"><ele>41.0</ele><time>2026-04-12T06:58:45.998Z</time></trkpt><trkpt lat="45.02694733003133" lon="9.942946467602926"><ele>41.0</ele><time>2026-04-12T06:58:46.998Z</time></trkpt><trkpt lat="45.02687033235022" lon="9.942915817249686"><ele>41.0</ele><time>2026-04-12T06:58:48Z</time></trkpt><trkpt lat="45.026792477294684" lon="9.942884588114302"><ele>41.0</ele><time>2026-04-12T06:58:49Z</time></trkpt><trkpt lat="45.0267161329539" lon="9.942854984844"><ele>41.166666666666664</ele><time>2026-04-12T06:58:50Z</time></trkpt><trkpt lat="45.02663594851467" lon="9.942823051779959"><ele>41.33333333333333</ele><time>2026-04-12T06:58:51Z</time></trkpt><trkpt lat="45.0265572008945" lon="9.94279295294062"><ele>41.5</ele><time>2026-04-12T06:58:52Z</time></trkpt><trkpt lat="45.02647866387748" lon="9.942760454635366"><ele>41.666666666666664</ele><time>2026-04-12T06:58:53Z</time></trkpt><trkpt lat="45.026399671205894" lon="9.942726865650435"><ele>41.833333333333336</ele><time>2026-04-12T06:58:54Z</time></trkpt><trkpt lat="45.02632185895645" lon="9.942696816093578"><ele>42.0</ele><time>2026-04-12T06:58:55Z</time></trkpt><trkpt lat="45.02624324280163" lon="9.942664185176744"><ele>42.0</ele><time>2026-04-12T06:58:56Z</time></trkpt><trkpt lat="45.02616424860817" lon="9.942635006449029"><ele>42.0</ele><time>2026-04-12T06:58:57Z</time></trkpt><trkpt lat="45.02608614270428" lon="9.942602260284309"><ele>42.0</ele><time>2026-04-12T06:58:58Z</time></trkpt><trkpt lat="45.02600665458474" lon="9.942569255579016"><ele>42.0</ele><time>2026-04-12T06:58:59Z</time></trkpt><trkpt lat="45.02592770344795" lon="9.942538671511434"><ele>42.0</ele><time>2026-04-12T06:59:00Z</time></trkpt><trkpt lat="45.02585098933195" lon="9.942508106108779"><ele>42.0</ele><time>2026-04-12T06:59:01Z</time></trkpt><trkpt lat="45.025773121643816" lon="9.942476807602455"><ele>42.333333333333336</ele><time>2026-04-12T06:59:02Z</time></trkpt><trkpt lat="45.02569621855923" lon="9.942447387090596"><ele>42.666666666666664</ele><time>2026-04-12T06:59:03Z</time></trkpt><trkpt lat="45.02561772060585" lon="9.942414758144755"><ele>43.0</ele><time>2026-04-12T06:59:04Z</time></trkpt><trkpt lat="45.0255407851302" lon="9.942383236540003"><ele>43.33333333333333</ele><time>2026-04-12T06:59:05Z</time></trkpt><trkpt lat="45.02546438637766" lon="9.942355247918107"><ele>43.666666666666664</ele><time>2026-04-12T06:59:06Z</time></trkpt><trkpt lat="45.02538711169323" lon="9.942321947998678"><ele>44.0</ele><time>2026-04-12T06:59:07Z</time></trkpt><trkpt lat="45.02531237899861" lon="9.942291213409543"><ele>44.0</ele><time>2026-04-12T06:59:08Z</time></trkpt><trkpt lat="45.02523603905152" lon="9.942258021136626"><ele>44.0</ele><time>2026-04-12T06:59:09Z</time></trkpt><trkpt lat="45.02515915181929" lon="9.942228810382021"><ele>44.0</ele><time>2026-04-12T06:59:10Z</time></trkpt><trkpt lat="45.02508183755307" lon="9.94219915288456"><ele>44.0</ele><time>2026-04-12T06:59:11Z</time></trkpt><trkpt lat="45.02500457697592" lon="9.942166328946739"><ele>44.0</ele><time>2026-04-12T06:59:12Z</time></trkpt><trkpt lat="45.02492902392824" lon="9.94213909252519"><ele>44.0</ele><time>2026-04-12T06:59:13Z</time></trkpt><trkpt lat="45.024853431412964" lon="9.942107671157954"><ele>43.666666666666664</ele><time>2026-04-12T06:59:14Z</time></trkpt><trkpt lat="45.02477722166121" lon="9.942081809996838"><ele>43.33333333333333</ele><time>2026-04-12T06:59:15Z</time></trkpt><trkpt lat="45.02470107083938" lon="9.942059029228858"><ele>43.0</ele><time>2026-04-12T06:59:16Z</time></trkpt><trkpt lat="45.024621635397054" lon="9.942044434018941"><ele>42.666666666666664</ele><time>2026-04-12T06:59:17Z</time></trkpt><trkpt lat="45.02454515417223" lon="9.942043245939908"><ele>42.333333333333336</ele><time>2026-04-12T06:59:18Z</time></trkpt><trkpt lat="45.02446461196163" lon="9.942054811426225"><ele>42.0</ele><time>2026-04-12T06:59:19Z</time></trkpt><trkpt lat="45.02438760499961" lon="9.942085345913492"><ele>42.0</ele><time>2026-04-12T06:59:20Z</time></trkpt><trkpt lat="45.02431183769595" lon="9.942129134777026"><ele>42.0</ele><time>2026-04-12T06:59:21Z</time></trkpt><trkpt lat="45.024241353576635" lon="9.942183696840035"><ele>42.0</ele><time>2026-04-12T06:59:22Z</time></trkpt><trkpt lat="45.024172513629146" lon="9.94224513982495"><ele>42.0</ele><time>2026-04-12T06:59:23Z</time></trkpt><trkpt lat="45.02411040957631" lon="9.942317438479625"><ele>42.0</ele><time>2026-04-12T06:59:24Z</time></trkpt><trkpt lat="45.024057125339795" lon="9.942400425674084"><ele>42.0</ele><time>2026-04-12T06:59:25Z</time></trkpt><trkpt lat="45.02400533226437" lon="9.94248447781503"><ele>42.5</ele><time>2026-04-12T06:59:26Z</time></trkpt><trkpt lat="45.023948985633375" lon="9.942562728114329"><ele>43.0</ele><time>2026-04-12T06:59:27Z</time></trkpt><trkpt lat="45.023887725653154" lon="9.942635771323019"><ele>43.5</ele><time>2026-04-12T06:59:28Z</time></trkpt><trkpt lat="45.02382813052487" lon="9.942711104955547"><ele>44.0</ele><time>2026-04-12T06:59:28.999Z</time></trkpt><trkpt lat="45.023773655949704" lon="9.942790663945816"><ele>44.5</ele><time>2026-04-12T06:59:29.999Z</time></trkpt><trkpt lat="45.023717739173286" lon="9.942871108957467"><ele>45.0</ele><time>2026-04-12T06:59:30.999Z</time></trkpt><trkpt lat="45.02366235215191" lon="9.942950266433211"><ele>45.0</ele><time>2026-04-12T06:59:31.999Z</time></trkpt><trkpt lat="45.02360688963442" lon="9.943030250829306"><ele>45.0</ele><time>2026-04-12T06:59:32.999Z</time></trkpt><trkpt lat="45.023550906563656" lon="9.943109962195043"><ele>45.0</ele><time>2026-04-12T06:59:33.999Z</time></trkpt><trkpt lat="45.023496906384885" lon="9.943190333308175"><ele>45.0</ele><time>2026-04-12T06:59:34.999Z</time></trkpt><trkpt lat="45.023439603664414" lon="9.94327213171625"><ele>45.0</ele><time>2026-04-12T06:59:35.999Z</time></trkpt><trkpt lat="45.02338583935909" lon="9.943351479373687"><ele>45.0</ele><time>2026-04-12T06:59:36.999Z</time></trkpt><trkpt lat="45.02332925363972" lon="9.943434696554782"><ele>44.666666666666664</ele><time>2026-04-12T06:59:37.999Z</time></trkpt><trkpt lat="45.02327201767403" lon="9.943515657006737"><ele>44.333333333333336</ele><time>2026-04-12T06:59:38.999Z</time></trkpt><trkpt lat="45.023217056962274" lon="9.943595652038375"><ele>44.0</ele><time>2026-04-12T06:59:39.999Z</time></trkpt><trkpt lat="45.02315852329996" lon="9.94367785208976"><ele>43.66666666666667</ele><time>2026-04-12T06:59:40.999Z</time></trkpt><trkpt lat="45.023103810564606" lon="9.943762092447948"><ele>43.333333333333336</ele><time>2026-04-12T06:59:41.999Z</time></trkpt><trkpt lat="45.02304775478871" lon="9.943845460879452"><ele>43.0</ele><time>2026-04-12T06:59:42.999Z</time></trkpt><trkpt lat="45.02298986991554" lon="9.94392768932058"><ele>43.0</ele><time>2026-04-12T06:59:43.999Z</time></trkpt><trkpt lat="45.022933407905164" lon="9.944008116473226"><ele>43.0</ele><time>2026-04-12T06:59:44.999Z</time></trkpt><trkpt lat="45.02287821542951" lon="9.944090698530433"><ele>43.0</ele><time>2026-04-12T06:59:45.999Z</time></trkpt><trkpt lat="45.02282218776477" lon="9.94417229574315"><ele>43.0</ele><time>2026-04-12T06:59:46.999Z</time></trkpt><trkpt lat="45.0227667246267" lon="9.944253196273339"><ele>43.0</ele><time>2026-04-12T06:59:47.999Z</time></trkpt><trkpt lat="45.02271401818993" lon="9.944339177704027"><ele>43.0</ele><time>2026-04-12T06:59:48.999Z</time></trkpt><trkpt lat="45.02265969991726" lon="9.944424862143668"><ele>43.0</ele><time>2026-04-12T06:59:49.999Z</time></trkpt><trkpt lat="45.02261438397237" lon="9.944517426626152"><ele>43.0</ele><time>2026-04-12T06:59:50.999Z</time></trkpt><trkpt lat="45.02257288636883" lon="9.944614810163687"><ele>43.0</ele><time>2026-04-12T06:59:51.999Z</time></trkpt><trkpt lat="45.02253642500513" lon="9.944716447253937"><ele>43.0</ele><time>2026-04-12T06:59:52.999Z</time></trkpt><trkpt lat="45.02250462546233" lon="9.94482208722951"><ele>43.0</ele><time>2026-04-12T06:59:53.999Z</time></trkpt><trkpt lat="45.02247155022599" lon="9.94492802876686"><ele>43.0</ele><time>2026-04-12T06:59:54.999Z</time></trkpt><trkpt lat="45.02244101968818" lon="9.945033090536809"><ele>43.16666666666667</ele><time>2026-04-12T06:59:55.999Z</time></trkpt><trkpt lat="45.02240859029033" lon="9.945137808077185"><ele>43.333333333333336</ele><time>2026-04-12T06:59:56.999Z</time></trkpt><trkpt lat="45.02237534350822" lon="9.945242277898625"><ele>43.5</ele><time>2026-04-12T06:59:57.999Z</time></trkpt><trkpt lat="45.022346026952434" lon="9.945346784786322"><ele>43.666666666666664</ele><time>2026-04-12T06:59:58.999Z</time></trkpt><trkpt lat="45.022315680071785" lon="9.945452029257815"><ele>43.83333333333333</ele><time>2026-04-12T06:59:59.999Z</time></trkpt><trkpt lat="45.02228283584729" lon="9.945556562701517"><ele>44.0</ele><time>2026-04-12T07:00:00.999Z</time></trkpt><trkpt lat="45.02225289949084" lon="9.94566024513711"><ele>44.0</ele><time>2026-04-12T07:00:01.999Z</time></trkpt><trkpt lat="45.022220855789094" lon="9.945764838399565"><ele>44.0</ele><time>2026-04-12T07:00:02.999Z</time></trkpt><trkpt lat="45.02218647716086" lon="9.945871241282033"><ele>44.0</ele><time>2026-04-12T07:00:03.999Z</time></trkpt><trkpt lat="45.02215667955146" lon="9.945972948207627"><ele>44.0</ele><time>2026-04-12T07:00:04.999Z</time></trkpt><trkpt lat="45.022126405034136" lon="9.946077876008749"><ele>44.0</ele><time>2026-04-12T07:00:05.999Z</time></trkpt><trkpt lat="45.02209500315172" lon="9.946179476646913"><ele>44.0</ele><time>2026-04-12T07:00:06.999Z</time></trkpt><trkpt lat="45.022064905416066" lon="9.946280557576518"><ele>44.166666666666664</ele><time>2026-04-12T07:00:07.999Z</time></trkpt><trkpt lat="45.02203267961776" lon="9.946381196281681"><ele>44.33333333333333</ele><time>2026-04-12T07:00:08.999Z</time></trkpt><trkpt lat="45.02200286320045" lon="9.94648318386655"><ele>44.5</ele><time>2026-04-12T07:00:09.999Z</time></trkpt><trkpt lat="45.02197195749869" lon="9.946585301884864"><ele>44.666666666666664</ele><time>2026-04-12T07:00:10.999Z</time></trkpt><trkpt lat="45.021941900977254" lon="9.946687190327307"><ele>44.833333333333336</ele><time>2026-04-12T07:00:11.999Z</time></trkpt><trkpt lat="45.0219100901348" lon="9.946788020138762"><ele>45.0</ele><time>2026-04-12T07:00:12.999Z</time></trkpt><trkpt lat="45.02188100844745" lon="9.946892137667039"><ele>45.166666666666664</ele><time>2026-04-12T07:00:13.999Z</time></trkpt><trkpt lat="45.021850254942315" lon="9.946993942074636"><ele>45.333333333333336</ele><time>2026-04-12T07:00:14.999Z</time></trkpt><trkpt lat="45.02181916157743" lon="9.947095934755941"><ele>45.5</ele><time>2026-04-12T07:00:15.999Z</time></trkpt><trkpt lat="45.02179138018621" lon="9.94719905906167"><ele>45.66666666666667</ele><time>2026-04-12T07:00:16.999Z</time></trkpt><trkpt lat="45.02176290962604" lon="9.94730374269554"><ele>45.833333333333336</ele><time>2026-04-12T07:00:17.999Z</time></trkpt><trkpt lat="45.021734275061526" lon="9.947408066777106"><ele>46.0</ele><time>2026-04-12T07:00:18.999Z</time></trkpt><trkpt lat="45.021708018697446" lon="9.947511412055295"><ele>46.0</ele><time>2026-04-12T07:00:19.999Z</time></trkpt><trkpt lat="45.02168143294257" lon="9.94761533352248"><ele>46.0</ele><time>2026-04-12T07:00:20.999Z</time></trkpt><trkpt lat="45.02165440486708" lon="9.947719526501803"><ele>46.0</ele><time>2026-04-12T07:00:21.998Z</time></trkpt><trkpt lat="45.02163007684643" lon="9.947824011856484"><ele>46.0</ele><time>2026-04-12T07:00:22.998Z</time></trkpt><trkpt lat="45.0216013283706" lon="9.947926881040349"><ele>46.0</ele><time>2026-04-12T07:00:23.998Z</time></trkpt><trkpt lat="45.02157627142345" lon="9.94803062666269"><ele>46.0</ele><time>2026-04-12T07:00:24.998Z</time></trkpt><trkpt lat="45.02154663240123" lon="9.948134764933183"><ele>46.333333333333336</ele><time>2026-04-12T07:00:25.998Z</time></trkpt><trkpt lat="45.02150829329666" lon="9.948231679144076"><ele>46.66666666666667</ele><time>2026-04-12T07:00:26.998Z</time></trkpt><trkpt lat="45.02147794293086" lon="9.94833450419102"><ele>47.0</ele><time>2026-04-12T07:00:27.998Z</time></trkpt><trkpt lat="45.02144389342725" lon="9.94843309754438"><ele>47.333333333333336</ele><time>2026-04-12T07:00:28.998Z</time></trkpt><trkpt lat="45.02140532324568" lon="9.948520040638492"><ele>47.666666666666664</ele><time>2026-04-12T07:00:29.998Z</time></trkpt><trkpt lat="45.02134583184307" lon="9.948577428450353"><ele>48.0</ele><time>2026-04-12T07:00:30.998Z</time></trkpt><trkpt lat="45.021275353781846" lon="9.948575227963703"><ele>48.833333333333336</ele><time>2026-04-12T07:00:31.998Z</time></trkpt><trkpt lat="45.02119820489722" lon="9.9485182679079"><ele>49.66666666666667</ele><time>2026-04-12T07:00:32.998Z</time></trkpt><trkpt lat="45.02113066724669" lon="9.948473041539485"><ele>50.5</ele><time>2026-04-12T07:00:33.998Z</time></trkpt><trkpt lat="45.02105802148402" lon="9.948441064866554"><ele>51.333333333333336</ele><time>2026-04-12T07:00:34.998Z</time></trkpt><trkpt lat="45.020982516922885" lon="9.94842083395036"><ele>52.16666666666667</ele><time>2026-04-12T07:00:35.998Z</time></trkpt><trkpt lat="45.02090684251176" lon="9.948406841371463"><ele>53.0</ele><time>2026-04-12T07:00:36.998Z</time></trkpt><trkpt lat="45.0208337072382" lon="9.948399255814332"><ele>52.333333333333336</ele><time>2026-04-12T07:00:37.998Z</time></trkpt><trkpt lat="45.02075697885324" lon="9.948395622757113"><ele>51.66666666666667</ele><time>2026-04-12T07:00:38.998Z</time></trkpt><trkpt lat="45.0206789637865" lon="9.94837756537015"><ele>51.0</ele><time>2026-04-12T07:00:39.998Z</time></trkpt><trkpt lat="45.02059994973139" lon="9.948358892497101"><ele>50.33333333333333</ele><time>2026-04-12T07:00:40.998Z</time></trkpt><trkpt lat="45.02052251532732" lon="9.948349104398213"><ele>49.666666666666664</ele><time>2026-04-12T07:00:41.998Z</time></trkpt><trkpt lat="45.02044486289689" lon="9.948338238723993"><ele>49.0</ele><time>2026-04-12T07:00:42.998Z</time></trkpt><trkpt lat="45.02036624817392" lon="9.948326743561317"><ele>48.83333333333333</ele><time>2026-04-12T07:00:43.998Z</time></trkpt><trkpt lat="45.020286960945185" lon="9.948319423426902"><ele>48.666666666666664</ele><time>2026-04-12T07:00:44.998Z</time></trkpt><trkpt lat="45.020207031844365" lon="9.948308834417075"><ele>48.5</ele><time>2026-04-12T07:00:45.998Z</time></trkpt><trkpt lat="45.02012618827307" lon="9.948297457450632"><ele>48.33333333333333</ele><time>2026-04-12T07:00:46.998Z</time></trkpt><trkpt lat="45.020046261728105" lon="9.948289172100047"><ele>48.166666666666664</ele><time>2026-04-12T07:00:47.998Z</time></trkpt><trkpt lat="45.01996880764125" lon="9.948283951500477"><ele>48.0</ele><time>2026-04-12T07:00:48.998Z</time></trkpt><trkpt lat="45.0198881020499" lon="9.94827664030793"><ele>47.666666666666664</ele><time>2026-04-12T07:00:49.998Z</time></trkpt><trkpt lat="45.019809525750524" lon="9.948275892522215"><ele>47.333333333333336</ele><time>2026-04-12T07:00:50.998Z</time></trkpt><trkpt lat="45.01973281336637" lon="9.948273840728007"><ele>47.0</ele><time>2026-04-12T07:00:51.998Z</time></trkpt><trkpt lat="45.01965152419293" lon="9.948272013420059"><ele>46.66666666666667</ele><time>2026-04-12T07:00:52.998Z</time></trkpt><trkpt lat="45.019573913096075" lon="9.948259932676311"><ele>46.333333333333336</ele><time>2026-04-12T07:00:54Z</time></trkpt><trkpt lat="45.01949650317959" lon="9.9482499126824"><ele>46.0</ele><time>2026-04-12T07:00:55Z</time></trkpt><trkpt lat="45.01941795855653" lon="9.948239630248356"><ele>46.0</ele><time>2026-04-12T07:00:56Z</time></trkpt><trkpt lat="45.019339445972044" lon="9.948230315962842"><ele>46.0</ele><time>2026-04-12T07:00:57Z</time></trkpt><trkpt lat="45.01926275090065" lon="9.948221072212217"><ele>46.0</ele><time>2026-04-12T07:00:58Z</time></trkpt><trkpt lat="45.019182640606495" lon="9.94820946117716"><ele>46.0</ele><time>2026-04-12T07:00:59Z</time></trkpt><trkpt lat="45.019105572686136" lon="9.948199780421854"><ele>46.0</ele><time>2026-04-12T07:01:00Z</time></trkpt><trkpt lat="45.01902670383506" lon="9.948189394659671"><ele>46.0</ele><time>2026-04-12T07:01:01Z</time></trkpt><trkpt lat="45.01894903100253" lon="9.948181111724965"><ele>46.0</ele><time>2026-04-12T07:01:02Z</time></trkpt><trkpt lat="45.01887072866385" lon="9.948162899475102"><ele>46.0</ele><time>2026-04-12T07:01:03Z</time></trkpt><trkpt lat="45.018793283785875" lon="9.948139407489238"><ele>46.0</ele><time>2026-04-12T07:01:04Z</time></trkpt><trkpt lat="45.018714311754536" lon="9.948108294087753"><ele>46.0</ele><time>2026-04-12T07:01:05Z</time></trkpt><trkpt lat="45.0186381164012" lon="9.948071570522902"><ele>46.0</ele><time>2026-04-12T07:01:06Z</time></trkpt><trkpt lat="45.018565393071015" lon="9.948023639517922"><ele>46.0</ele><time>2026-04-12T07:01:07Z</time></trkpt><trkpt lat="45.01849333491117" lon="9.94797219574256"><ele>46.0</ele><time>2026-04-12T07:01:08Z</time></trkpt><trkpt lat="45.01842141084707" lon="9.947920288005298"><ele>46.0</ele><time>2026-04-12T07:01:09Z</time></trkpt><trkpt lat="45.01834760797235" lon="9.947872519054297"><ele>46.0</ele><time>2026-04-12T07:01:10Z</time></trkpt><trkpt lat="45.01827313841704" lon="9.94783277844936"><ele>46.0</ele><time>2026-04-12T07:01:11Z</time></trkpt><trkpt lat="45.01819859780036" lon="9.947791184675175"><ele>46.0</ele><time>2026-04-12T07:01:12Z</time></trkpt><trkpt lat="45.01812094083628" lon="9.94775384263137"><ele>46.0</ele><time>2026-04-12T07:01:13Z</time></trkpt><trkpt lat="45.018042626189754" lon="9.947717156664375"><ele>46.0</ele><time>2026-04-12T07:01:14Z</time></trkpt><trkpt lat="45.01796895221349" lon="9.947680119740793"><ele>46.0</ele><time>2026-04-12T07:01:15Z</time></trkpt><trkpt lat="45.01789334264876" lon="9.947641423925747"><ele>46.0</ele><time>2026-04-12T07:01:16Z</time></trkpt><trkpt lat="45.017816303552195" lon="9.947605564137604"><ele>46.0</ele><time>2026-04-12T07:01:17Z</time></trkpt><trkpt lat="45.01773841422236" lon="9.947578213045952"><ele>46.0</ele><time>2026-04-12T07:01:18Z</time></trkpt><trkpt lat="45.01765922900416" lon="9.947545874828116"><ele>46.0</ele><time>2026-04-12T07:01:19Z</time></trkpt><trkpt lat="45.0175811077146" lon="9.94751614952664"><ele>45.833333333333336</ele><time>2026-04-12T07:01:20Z</time></trkpt><trkpt lat="45.01750420705395" lon="9.947486768631"><ele>45.66666666666667</ele><time>2026-04-12T07:01:21Z</time></trkpt><trkpt lat="45.01742446865042" lon="9.947453812848014"><ele>45.5</ele><time>2026-04-12T07:01:22Z</time></trkpt><trkpt lat="45.01734730087062" lon="9.947426277301169"><ele>45.333333333333336</ele><time>2026-04-12T07:01:23Z</time></trkpt><trkpt lat="45.01727016668493" lon="9.947398430483714"><ele>45.166666666666664</ele><time>2026-04-12T07:01:24Z</time></trkpt><trkpt lat="45.01719095069974" lon="9.947370811951574"><ele>45.0</ele><time>2026-04-12T07:01:25Z</time></trkpt><trkpt lat="45.01711308794005" lon="9.947340875866555"><ele>45.0</ele><time>2026-04-12T07:01:26Z</time></trkpt><trkpt lat="45.017034295806354" lon="9.947313104093794"><ele>45.0</ele><time>2026-04-12T07:01:27Z</time></trkpt><trkpt lat="45.01695639100006" lon="9.947281418461461"><ele>45.0</ele><time>2026-04-12T07:01:28Z</time></trkpt><trkpt lat="45.016877892238014" lon="9.94724866850902"><ele>45.0</ele><time>2026-04-12T07:01:29Z</time></trkpt><trkpt lat="45.016801193869995" lon="9.947217954856193"><ele>45.0</ele><time>2026-04-12T07:01:30Z</time></trkpt><trkpt lat="45.016724052913524" lon="9.947183111075654"><ele>45.0</ele><time>2026-04-12T07:01:31Z</time></trkpt><trkpt lat="45.01664624239494" lon="9.947145875732478"><ele>45.166666666666664</ele><time>2026-04-12T07:01:32Z</time></trkpt><trkpt lat="45.01657214527843" lon="9.947107585143208"><ele>45.333333333333336</ele><time>2026-04-12T07:01:32.999Z</time></trkpt><trkpt lat="45.01649765673235" lon="9.947064844068331"><ele>45.5</ele><time>2026-04-12T07:01:33.999Z</time></trkpt><trkpt lat="45.01642479754534" lon="9.947022648764586"><ele>45.66666666666667</ele><time>2026-04-12T07:01:34.999Z</time></trkpt><trkpt lat="45.01635137314176" lon="9.94698171525403"><ele>45.833333333333336</ele><time>2026-04-12T07:01:35.999Z</time></trkpt><trkpt lat="45.01628012515517" lon="9.946935625167784"><ele>46.0</ele><time>2026-04-12T07:01:36.999Z</time></trkpt><trkpt lat="45.01620925807243" lon="9.94688216589596"><ele>46.0</ele><time>2026-04-12T07:01:37.999Z</time></trkpt><trkpt lat="45.0161394528644" lon="9.946827773569451"><ele>46.0</ele><time>2026-04-12T07:01:38.999Z</time></trkpt><trkpt lat="45.01606898289417" lon="9.946773304717054"><ele>46.0</ele><time>2026-04-12T07:01:39.999Z</time></trkpt><trkpt lat="45.015999540199374" lon="9.946715755497605"><ele>46.0</ele><time>2026-04-12T07:01:40.999Z</time></trkpt><trkpt lat="45.01592857577291" lon="9.94665985749747"><ele>46.0</ele><time>2026-04-12T07:01:41.999Z</time></trkpt><trkpt lat="45.01585843491035" lon="9.946603065865892"><ele>46.0</ele><time>2026-04-12T07:01:42.999Z</time></trkpt><trkpt lat="45.0157880408711" lon="9.946547432777775"><ele>46.0</ele><time>2026-04-12T07:01:43.999Z</time></trkpt><trkpt lat="45.01571888661935" lon="9.946494750922362"><ele>46.0</ele><time>2026-04-12T07:01:44.999Z</time></trkpt><trkpt lat="45.01564920390414" lon="9.946439172750596"><ele>46.0</ele><time>2026-04-12T07:01:45.999Z</time></trkpt><trkpt lat="45.01558008279728" lon="9.946383053975952"><ele>46.0</ele><time>2026-04-12T07:01:46.999Z</time></trkpt><trkpt lat="45.015511273150636" lon="9.946328453084742"><ele>46.0</ele><time>2026-04-12T07:01:47.999Z</time></trkpt><trkpt lat="45.015442970197014" lon="9.94626946819249"><ele>46.0</ele><time>2026-04-12T07:01:48.999Z</time></trkpt><trkpt lat="45.01537421557301" lon="9.946212117169093"><ele>46.0</ele><time>2026-04-12T07:01:49.999Z</time></trkpt><trkpt lat="45.01530647487134" lon="9.946152893146525"><ele>46.0</ele><time>2026-04-12T07:01:50.999Z</time></trkpt><trkpt lat="45.01523679915806" lon="9.946097752646608"><ele>46.0</ele><time>2026-04-12T07:01:51.999Z</time></trkpt><trkpt lat="45.01516803142658" lon="9.946041377915474"><ele>46.0</ele><time>2026-04-12T07:01:52.999Z</time></trkpt><trkpt lat="45.01509796648074" lon="9.945988515867828"><ele>46.0</ele><time>2026-04-12T07:01:53.999Z</time></trkpt><trkpt lat="45.01502858365942" lon="9.945931093120867"><ele>46.0</ele><time>2026-04-12T07:01:54.999Z</time></trkpt><trkpt lat="45.01496100394174" lon="9.945873752201102"><ele>45.66666666666667</ele><time>2026-04-12T07:01:55.999Z</time></trkpt><trkpt lat="45.014890807131806" lon="9.945814044319562"><ele>45.333333333333336</ele><time>2026-04-12T07:01:56.999Z</time></trkpt><trkpt lat="45.014822068159724" lon="9.94575668975011"><ele>45.0</ele><time>2026-04-12T07:01:57.999Z</time></trkpt><trkpt lat="45.01475205473353" lon="9.945701206918807"><ele>44.666666666666664</ele><time>2026-04-12T07:01:58.999Z</time></trkpt><trkpt lat="45.01468281137023" lon="9.945644427118093"><ele>44.33333333333333</ele><time>2026-04-12T07:01:59.999Z</time></trkpt><trkpt lat="45.01461528384329" lon="9.945586810187418"><ele>44.0</ele><time>2026-04-12T07:02:00.999Z</time></trkpt><trkpt lat="45.01454661511868" lon="9.945526731499712"><ele>44.0</ele><time>2026-04-12T07:02:01.999Z</time></trkpt><trkpt lat="45.014477513030926" lon="9.945473578369093"><ele>44.0</ele><time>2026-04-12T07:02:02.999Z</time></trkpt><trkpt lat="45.014407451669015" lon="9.945419241949441"><ele>44.0</ele><time>2026-04-12T07:02:03.999Z</time></trkpt><trkpt lat="45.014338504224014" lon="9.9453629555859"><ele>44.0</ele><time>2026-04-12T07:02:04.999Z</time></trkpt><trkpt lat="45.014269270916245" lon="9.945307957236468"><ele>44.0</ele><time>2026-04-12T07:02:05.999Z</time></trkpt><trkpt lat="45.014200441922654" lon="9.94524962064214"><ele>44.0</ele><time>2026-04-12T07:02:06.999Z</time></trkpt><trkpt lat="45.014130805108906" lon="9.945193463811233"><ele>44.0</ele><time>2026-04-12T07:02:07.999Z</time></trkpt><trkpt lat="45.014060772918455" lon="9.945135154954848"><ele>44.0</ele><time>2026-04-12T07:02:08.999Z</time></trkpt><trkpt lat="45.01399054901457" lon="9.945080825865366"><ele>44.0</ele><time>2026-04-12T07:02:09.999Z</time></trkpt><trkpt lat="45.01391945537504" lon="9.945024756976585"><ele>44.0</ele><time>2026-04-12T07:02:10.999Z</time></trkpt><trkpt lat="45.013848740665765" lon="9.944967493836094"><ele>44.0</ele><time>2026-04-12T07:02:11.999Z</time></trkpt><trkpt lat="45.01377975899612" lon="9.94491418532325"><ele>44.0</ele><time>2026-04-12T07:02:12.999Z</time></trkpt><trkpt lat="45.0137077484224" lon="9.944859161478421"><ele>44.0</ele><time>2026-04-12T07:02:13.999Z</time></trkpt><trkpt lat="45.013636691362954" lon="9.944804891941436"><ele>44.0</ele><time>2026-04-12T07:02:14.999Z</time></trkpt><trkpt lat="45.013565371203676" lon="9.944752195667283"><ele>44.0</ele><time>2026-04-12T07:02:15.999Z</time></trkpt><trkpt lat="45.013491989963256" lon="9.944702616533458"><ele>44.0</ele><time>2026-04-12T07:02:16.999Z</time></trkpt><trkpt lat="45.01341947119624" lon="9.94465492615495"><ele>44.0</ele><time>2026-04-12T07:02:17.999Z</time></trkpt><trkpt lat="45.01334688391747" lon="9.944608445675692"><ele>44.0</ele><time>2026-04-12T07:02:18.999Z</time></trkpt><trkpt lat="45.01327228641322" lon="9.94456420578105"><ele>44.0</ele><time>2026-04-12T07:02:19.999Z</time></trkpt><trkpt lat="45.01319694833345" lon="9.944519400654489"><ele>44.0</ele><time>2026-04-12T07:02:20.999Z</time></trkpt><trkpt lat="45.01312166350836" lon="9.944478771871253"><ele>44.0</ele><time>2026-04-12T07:02:21.999Z</time></trkpt><trkpt lat="45.01304541472038" lon="9.944441426733166"><ele>44.0</ele><time>2026-04-12T07:02:22.999Z</time></trkpt><trkpt lat="45.01296833601087" lon="9.944409698099195"><ele>44.0</ele><time>2026-04-12T07:02:23.999Z</time></trkpt><trkpt lat="45.01288913054663" lon="9.944386828548057"><ele>44.0</ele><time>2026-04-12T07:02:24.999Z</time></trkpt><trkpt lat="45.012809607882225" lon="9.944362085082469"><ele>44.0</ele><time>2026-04-12T07:02:25.999Z</time></trkpt><trkpt lat="45.01273061163229" lon="9.944337873464058"><ele>44.0</ele><time>2026-04-12T07:02:26.998Z</time></trkpt><trkpt lat="45.012650518903136" lon="9.944317356336995"><ele>44.0</ele><time>2026-04-12T07:02:27.998Z</time></trkpt><trkpt lat="45.012572524993864" lon="9.944298226320123"><ele>44.0</ele><time>2026-04-12T07:02:28.998Z</time></trkpt><trkpt lat="45.01249181541887" lon="9.944276780540495"><ele>44.0</ele><time>2026-04-12T07:02:29.998Z</time></trkpt><trkpt lat="45.0124135467325" lon="9.94426061081043"><ele>44.0</ele><time>2026-04-12T07:02:30.998Z</time></trkpt><trkpt lat="45.012333903144125" lon="9.944238887875974"><ele>44.0</ele><time>2026-04-12T07:02:31.998Z</time></trkpt><trkpt lat="45.01225508610854" lon="9.944217498288745"><ele>44.0</ele><time>2026-04-12T07:02:32.998Z</time></trkpt><trkpt lat="45.01217627300486" lon="9.944200355367787"><ele>44.0</ele><time>2026-04-12T07:02:33.998Z</time></trkpt><trkpt lat="45.01209664057574" lon="9.944181253462247"><ele>44.0</ele><time>2026-04-12T07:02:34.998Z</time></trkpt><trkpt lat="45.01202036998748" lon="9.944163483758485"><ele>44.0</ele><time>2026-04-12T07:02:35.998Z</time></trkpt><trkpt lat="45.011941186345865" lon="9.944137180288587"><ele>44.0</ele><time>2026-04-12T07:02:36.998Z</time></trkpt><trkpt lat="45.01186437071253" lon="9.944115790155905"><ele>44.33333333333333</ele><time>2026-04-12T07:02:37.998Z</time></trkpt><trkpt lat="45.01178612597069" lon="9.944089760399944"><ele>44.666666666666664</ele><time>2026-04-12T07:02:38.998Z</time></trkpt><trkpt lat="45.011708753882125" lon="9.944070214256284"><ele>45.0</ele><time>2026-04-12T07:02:39.998Z</time></trkpt><trkpt lat="45.01163068253117" lon="9.94404565432711"><ele>45.333333333333336</ele><time>2026-04-12T07:02:40.998Z</time></trkpt><trkpt lat="45.01155298350343" lon="9.94402060243485"><ele>45.66666666666667</ele><time>2026-04-12T07:02:41.998Z</time></trkpt><trkpt lat="45.0114759296592" lon="9.943996683161483"><ele>46.0</ele><time>2026-04-12T07:02:42.998Z</time></trkpt><trkpt lat="45.01139856467496" lon="9.943970971936942"><ele>46.0</ele><time>2026-04-12T07:02:43.998Z</time></trkpt><trkpt lat="45.01132102627336" lon="9.94394606616207"><ele>46.0</ele><time>2026-04-12T07:02:44.998Z</time></trkpt><trkpt lat="45.01124469798311" lon="9.94392074847681"><ele>46.0</ele><time>2026-04-12T07:02:45.998Z</time></trkpt><trkpt lat="45.011165778319864" lon="9.94389597748051"><ele>46.0</ele><time>2026-04-12T07:02:46.998Z</time></trkpt><trkpt lat="45.01108801477704" lon="9.943872383355547"><ele>46.0</ele><time>2026-04-12T07:02:47.998Z</time></trkpt><trkpt lat="45.011009630830806" lon="9.943849387972584"><ele>46.0</ele><time>2026-04-12T07:02:48.998Z</time></trkpt><trkpt lat="45.01093109918607" lon="9.943822669314933"><ele>46.0</ele><time>2026-04-12T07:02:49.998Z</time></trkpt><trkpt lat="45.010852748150604" lon="9.943796927232176"><ele>46.0</ele><time>2026-04-12T07:02:50.998Z</time></trkpt><trkpt lat="45.01077411307982" lon="9.94377241544375"><ele>46.0</ele><time>2026-04-12T07:02:51.998Z</time></trkpt><trkpt lat="45.010696431385185" lon="9.943747189643881"><ele>46.0</ele><time>2026-04-12T07:02:52.998Z</time></trkpt><trkpt lat="45.01061785681552" lon="9.943724129639119"><ele>46.0</ele><time>2026-04-12T07:02:53.998Z</time></trkpt><trkpt lat="45.01053933709938" lon="9.94370233176101"><ele>46.0</ele><time>2026-04-12T07:02:54.998Z</time></trkpt><trkpt lat="45.010462699931864" lon="9.94367865410521"><ele>46.0</ele><time>2026-04-12T07:02:55.998Z</time></trkpt><trkpt lat="45.010384314012455" lon="9.94365154698935"><ele>46.0</ele><time>2026-04-12T07:02:56.998Z</time></trkpt><trkpt lat="45.01030790473341" lon="9.943628292986398"><ele>46.0</ele><time>2026-04-12T07:02:57.998Z</time></trkpt><trkpt lat="45.010229404382855" lon="9.943599431030009"><ele>46.0</ele><time>2026-04-12T07:02:58.998Z</time></trkpt><trkpt lat="45.01015279903653" lon="9.943572141975288"><ele>46.0</ele><time>2026-04-12T07:03:00Z</time></trkpt><trkpt lat="45.010074647784656" lon="9.943542460710901"><ele>46.0</ele><time>2026-04-12T07:03:01Z</time></trkpt><trkpt lat="45.00999792984958" lon="9.943516478030597"><ele>45.833333333333336</ele><time>2026-04-12T07:03:02Z</time></trkpt><trkpt lat="45.00992056897425" lon="9.943489922136008"><ele>45.66666666666667</ele><time>2026-04-12T07:03:03Z</time></trkpt><trkpt lat="45.00984354433282" lon="9.94346136729889"><ele>45.5</ele><time>2026-04-12T07:03:04Z</time></trkpt><trkpt lat="45.009765778012664" lon="9.94343517427911"><ele>45.333333333333336</ele><time>2026-04-12T07:03:05Z</time></trkpt><trkpt lat="45.00968898019958" lon="9.943405717920141"><ele>45.166666666666664</ele><time>2026-04-12T07:03:06Z</time></trkpt><trkpt lat="45.00961162767836" lon="9.943376039447866"><ele>45.0</ele><time>2026-04-12T07:03:07Z</time></trkpt><trkpt lat="45.009535103635024" lon="9.943347804191927"><ele>45.0</ele><time>2026-04-12T07:03:08Z</time></trkpt><trkpt lat="45.009457793244955" lon="9.943318498853385"><ele>45.0</ele><time>2026-04-12T07:03:09Z</time></trkpt><trkpt lat="45.009379027611615" lon="9.9432869427008"><ele>45.0</ele><time>2026-04-12T07:03:10Z</time></trkpt><trkpt lat="45.00930204235441" lon="9.943254741024624"><ele>45.0</ele><time>2026-04-12T07:03:11Z</time></trkpt><trkpt lat="45.0092234237537" lon="9.943226365935676"><ele>45.0</ele><time>2026-04-12T07:03:12Z</time></trkpt><trkpt lat="45.009146067333376" lon="9.943197663812274"><ele>45.0</ele><time>2026-04-12T07:03:13Z</time></trkpt><trkpt lat="45.00906915205133" lon="9.943169503266398"><ele>44.833333333333336</ele><time>2026-04-12T07:03:14Z</time></trkpt><trkpt lat="45.00899190240973" lon="9.943139604018493"><ele>44.666666666666664</ele><time>2026-04-12T07:03:15Z</time></trkpt><trkpt lat="45.00891609260115" lon="9.94310868149547"><ele>44.5</ele><time>2026-04-12T07:03:16Z</time></trkpt><trkpt lat="45.00883909376821" lon="9.943081130099873"><ele>44.33333333333333</ele><time>2026-04-12T07:03:17Z</time></trkpt><trkpt lat="45.00876196856422" lon="9.943050729736646"><ele>44.166666666666664</ele><time>2026-04-12T07:03:18Z</time></trkpt><trkpt lat="45.00868506550718" lon="9.94302247684354"><ele>44.0</ele><time>2026-04-12T07:03:19Z</time></trkpt><trkpt lat="45.008608086622246" lon="9.942991837692936"><ele>44.0</ele><time>2026-04-12T07:03:20Z</time></trkpt><trkpt lat="45.0085304952297" lon="9.942962479054398"><ele>44.0</ele><time>2026-04-12T07:03:21Z</time></trkpt><trkpt lat="45.00845368221025" lon="9.942934229488404"><ele>44.0</ele><time>2026-04-12T07:03:22Z</time></trkpt><trkpt lat="45.00837713939563" lon="9.942903833297601"><ele>44.0</ele><time>2026-04-12T07:03:23Z</time></trkpt><trkpt lat="45.00830082568598" lon="9.942876240654043"><ele>44.0</ele><time>2026-04-12T07:03:24Z</time></trkpt><trkpt lat="45.00822433290882" lon="9.942847799772284"><ele>44.0</ele><time>2026-04-12T07:03:25Z</time></trkpt><trkpt lat="45.00814746010744" lon="9.942821603870373"><ele>44.5</ele><time>2026-04-12T07:03:26Z</time></trkpt><trkpt lat="45.008071853250115" lon="9.942792405420462"><ele>45.0</ele><time>2026-04-12T07:03:27Z</time></trkpt><trkpt lat="45.00799455638004" lon="9.942762823460972"><ele>45.5</ele><time>2026-04-12T07:03:28Z</time></trkpt><trkpt lat="45.00791873132865" lon="9.942734638081204"><ele>46.0</ele><time>2026-04-12T07:03:29Z</time></trkpt><trkpt lat="45.007842149328766" lon="9.942705550214416"><ele>46.5</ele><time>2026-04-12T07:03:30Z</time></trkpt><trkpt lat="45.00776484407614" lon="9.942676697819875"><ele>47.0</ele><time>2026-04-12T07:03:31Z</time></trkpt><trkpt lat="45.00768822097506" lon="9.942647488810127"><ele>47.0</ele><time>2026-04-12T07:03:32Z</time></trkpt><trkpt lat="45.00761067687396" lon="9.942616201341623"><ele>47.0</ele><time>2026-04-12T07:03:33Z</time></trkpt><trkpt lat="45.007533422803746" lon="9.942589346199043"><ele>47.0</ele><time>2026-04-12T07:03:34Z</time></trkpt><trkpt lat="45.007454371357255" lon="9.942560698846696"><ele>47.0</ele><time>2026-04-12T07:03:35Z</time></trkpt><trkpt lat="45.0073750500275" lon="9.942533146932318"><ele>47.0</ele><time>2026-04-12T07:03:36Z</time></trkpt><trkpt lat="45.00729610158811" lon="9.94250579537937"><ele>47.0</ele><time>2026-04-12T07:03:37Z</time></trkpt><trkpt lat="45.00721775728962" lon="9.942472848303611"><ele>47.166666666666664</ele><time>2026-04-12T07:03:38Z</time></trkpt><trkpt lat="45.00713900337999" lon="9.942442800769882"><ele>47.33333333333333</ele><time>2026-04-12T07:03:38.999Z</time></trkpt><trkpt lat="45.00706236682396" lon="9.942414607451084"><ele>47.5</ele><time>2026-04-12T07:03:39.999Z</time></trkpt><trkpt lat="45.006983178914574" lon="9.942383873969739"><ele>47.666666666666664</ele><time>2026-04-12T07:03:40.999Z</time></trkpt><trkpt lat="45.00690346830268" lon="9.942355500187013"><ele>47.833333333333336</ele><time>2026-04-12T07:03:41.999Z</time></trkpt><trkpt lat="45.00682669461273" lon="9.942324446171291"><ele>48.0</ele><time>2026-04-12T07:03:42.999Z</time></trkpt><trkpt lat="45.006747312612205" lon="9.942294057340384"><ele>48.0</ele><time>2026-04-12T07:03:43.999Z</time></trkpt><trkpt lat="45.00666953857067" lon="9.942262596101832"><ele>48.0</ele><time>2026-04-12T07:03:44.999Z</time></trkpt><trkpt lat="45.00659146688437" lon="9.942231765297565"><ele>48.0</ele><time>2026-04-12T07:03:45.999Z</time></trkpt><trkpt lat="45.00651260841969" lon="9.942201614528443"><ele>48.0</ele><time>2026-04-12T07:03:46.999Z</time></trkpt><trkpt lat="45.00643606907332" lon="9.942167899209975"><ele>48.0</ele><time>2026-04-12T07:03:47.999Z</time></trkpt><trkpt lat="45.006357815985744" lon="9.942129816477946"><ele>48.0</ele><time>2026-04-12T07:03:48.999Z</time></trkpt><trkpt lat="45.00628321984076" lon="9.942086980300672"><ele>48.166666666666664</ele><time>2026-04-12T07:03:49.999Z</time></trkpt><trkpt lat="45.00620881524326" lon="9.942035248026604"><ele>48.33333333333333</ele><time>2026-04-12T07:03:50.999Z</time></trkpt><trkpt lat="45.006138829641884" lon="9.941979970572987"><ele>48.5</ele><time>2026-04-12T07:03:51.999Z</time></trkpt><trkpt lat="45.00606928986792" lon="9.941916572462855"><ele>48.666666666666664</ele><time>2026-04-12T07:03:52.999Z</time></trkpt><trkpt lat="45.00600286531152" lon="9.941851174820295"><ele>48.83333333333333</ele><time>2026-04-12T07:03:53.999Z</time></trkpt><trkpt lat="45.005937900284714" lon="9.941780996291287"><ele>49.0</ele><time>2026-04-12T07:03:54.999Z</time></trkpt><trkpt lat="45.005876807621256" lon="9.941707233634014"><ele>48.99999999999999</ele><time>2026-04-12T07:03:55.999Z</time></trkpt><trkpt lat="45.00581331062248" lon="9.941634075271416"><ele>49.0</ele><time>2026-04-12T07:03:56.999Z</time></trkpt><trkpt lat="45.0057511613825" lon="9.941562395798632"><ele>49.0</ele><time>2026-04-12T07:03:57.999Z</time></trkpt><trkpt lat="45.00568958866165" lon="9.941488969652946"><ele>49.0</ele><time>2026-04-12T07:03:58.999Z</time></trkpt><trkpt lat="45.0056281476193" lon="9.941413083400322"><ele>48.99999999999999</ele><time>2026-04-12T07:03:59.999Z</time></trkpt><trkpt lat="45.00556686292318" lon="9.941339779052948"><ele>49.0</ele><time>2026-04-12T07:04:00.999Z</time></trkpt><trkpt lat="45.00550609388286" lon="9.941265497548434"><ele>48.99999999999999</ele><time>2026-04-12T07:04:01.999Z</time></trkpt><trkpt lat="45.00544578454224" lon="9.94119105050484"><ele>49.0</ele><time>2026-04-12T07:04:02.999Z</time></trkpt><trkpt lat="45.00538408540589" lon="9.941118779629388"><ele>49.0</ele><time>2026-04-12T07:04:03.999Z</time></trkpt><trkpt lat="45.00532242339851" lon="9.941043109121045"><ele>49.0</ele><time>2026-04-12T07:04:04.999Z</time></trkpt><trkpt lat="45.00526142453213" lon="9.940970736056315"><ele>48.99999999999999</ele><time>2026-04-12T07:04:05.999Z</time></trkpt><trkpt lat="45.00519953619243" lon="9.940897945112463"><ele>49.0</ele><time>2026-04-12T07:04:06.999Z</time></trkpt><trkpt lat="45.00513789264425" lon="9.940822958689978"><ele>48.83333333333333</ele><time>2026-04-12T07:04:07.999Z</time></trkpt><trkpt lat="45.005076994803005" lon="9.940749347831387"><ele>48.666666666666664</ele><time>2026-04-12T07:04:08.999Z</time></trkpt><trkpt lat="45.00501490031588" lon="9.940674498500396"><ele>48.5</ele><time>2026-04-12T07:04:09.999Z</time></trkpt><trkpt lat="45.00495504151376" lon="9.940600529806382"><ele>48.33333333333333</ele><time>2026-04-12T07:04:10.999Z</time></trkpt><trkpt lat="45.00489473754295" lon="9.940525436796287"><ele>48.166666666666664</ele><time>2026-04-12T07:04:11.999Z</time></trkpt><trkpt lat="45.00483241704749" lon="9.940454347388767"><ele>48.0</ele><time>2026-04-12T07:04:12.999Z</time></trkpt><trkpt lat="45.004771248491814" lon="9.940379004289325"><ele>48.0</ele><time>2026-04-12T07:04:13.999Z</time></trkpt><trkpt lat="45.00470979992084" lon="9.940304511649236"><ele>48.0</ele><time>2026-04-12T07:04:14.999Z</time></trkpt><trkpt lat="45.00464960991988" lon="9.940230489099749"><ele>48.0</ele><time>2026-04-12T07:04:15.999Z</time></trkpt><trkpt lat="45.004589019372304" lon="9.940156038645451"><ele>48.0</ele><time>2026-04-12T07:04:16.999Z</time></trkpt><trkpt lat="45.00452624831954" lon="9.940081400033664"><ele>48.0</ele><time>2026-04-12T07:04:17.999Z</time></trkpt><trkpt lat="45.0044639729542" lon="9.940008902264589"><ele>48.0</ele><time>2026-04-12T07:04:18.999Z</time></trkpt><trkpt lat="45.00440342341541" lon="9.939933297552864"><ele>48.0</ele><time>2026-04-12T07:04:19.999Z</time></trkpt><trkpt lat="45.00434050891705" lon="9.939861232640876"><ele>48.0</ele><time>2026-04-12T07:04:20.999Z</time></trkpt><trkpt lat="45.00427950527457" lon="9.93978817910395"><ele>48.0</ele><time>2026-04-12T07:04:21.999Z</time></trkpt><trkpt lat="45.004219725844" lon="9.939712057162483"><ele>48.0</ele><time>2026-04-12T07:04:22.999Z</time></trkpt><trkpt lat="45.00415695999656" lon="9.939639626056108"><ele>48.0</ele><time>2026-04-12T07:04:23.999Z</time></trkpt><trkpt lat="45.00409666619194" lon="9.939569784192086"><ele>48.0</ele><time>2026-04-12T07:04:24.999Z</time></trkpt><trkpt lat="45.004035031398594" lon="9.939498388483146"><ele>47.833333333333336</ele><time>2026-04-12T07:04:25.999Z</time></trkpt><trkpt lat="45.003973934197326" lon="9.939425878480648"><ele>47.666666666666664</ele><time>2026-04-12T07:04:26.999Z</time></trkpt><trkpt lat="45.0039125243491" lon="9.939352227979878"><ele>47.5</ele><time>2026-04-12T07:04:27.999Z</time></trkpt><trkpt lat="45.00384999787406" lon="9.939284325610435"><ele>47.33333333333333</ele><time>2026-04-12T07:04:28.999Z</time></trkpt><trkpt lat="45.0037861868892" lon="9.939211110411204"><ele>47.166666666666664</ele><time>2026-04-12T07:04:29.999Z</time></trkpt><trkpt lat="45.003722912439976" lon="9.939142072461168"><ele>47.0</ele><time>2026-04-12T07:04:30.999Z</time></trkpt><trkpt lat="45.00365814202952" lon="9.939075280815503"><ele>47.0</ele><time>2026-04-12T07:04:31.998Z</time></trkpt><trkpt lat="45.00359136935088" lon="9.939008352934918"><ele>47.0</ele><time>2026-04-12T07:04:32.998Z</time></trkpt><trkpt lat="45.003526662792666" lon="9.938942983151248"><ele>47.0</ele><time>2026-04-12T07:04:33.998Z</time></trkpt><trkpt lat="45.00346032504033" lon="9.93887772744976"><ele>47.0</ele><time>2026-04-12T07:04:34.998Z</time></trkpt><trkpt lat="45.003394695487046" lon="9.93881021040641"><ele>47.0</ele><time>2026-04-12T07:04:35.998Z</time></trkpt><trkpt lat="45.00332531650738" lon="9.938750936396586"><ele>47.0</ele><time>2026-04-12T07:04:36.998Z</time></trkpt><trkpt lat="45.00325747410851" lon="9.938689353886318"><ele>47.5</ele><time>2026-04-12T07:04:37.998Z</time></trkpt><trkpt lat="45.00318797419259" lon="9.938629718099335"><ele>48.0</ele><time>2026-04-12T07:04:38.998Z</time></trkpt><trkpt lat="45.003119794236085" lon="9.938572943845585"><ele>48.5</ele><time>2026-04-12T07:04:39.998Z</time></trkpt><trkpt lat="45.00305009675734" lon="9.938515600146394"><ele>49.0</ele><time>2026-04-12T07:04:40.998Z</time></trkpt><trkpt lat="45.00298174288768" lon="9.938455470904913"><ele>49.50000000000001</ele><time>2026-04-12T07:04:41.998Z</time></trkpt><trkpt lat="45.002914008754544" lon="9.938395559686219"><ele>50.0</ele><time>2026-04-12T07:04:42.998Z</time></trkpt><trkpt lat="45.002845967014395" lon="9.938339201630377"><ele>49.833333333333336</ele><time>2026-04-12T07:04:43.998Z</time></trkpt><trkpt lat="45.00277729715268" lon="9.938279475917083"><ele>49.66666666666667</ele><time>2026-04-12T07:04:44.998Z</time></trkpt><trkpt lat="45.00270980353655" lon="9.938219156441253"><ele>49.5</ele><time>2026-04-12T07:04:45.998Z</time></trkpt><trkpt lat="45.002642176852305" lon="9.938153728718406"><ele>49.33333333333333</ele><time>2026-04-12T07:04:46.998Z</time></trkpt><trkpt lat="45.0025757743895" lon="9.938087909394794"><ele>49.166666666666664</ele><time>2026-04-12T07:04:47.998Z</time></trkpt><trkpt lat="45.00250802404201" lon="9.938025673787076"><ele>49.0</ele><time>2026-04-12T07:04:48.998Z</time></trkpt><trkpt lat="45.00244028698147" lon="9.937962299738283"><ele>48.99999999999999</ele><time>2026-04-12T07:04:49.998Z</time></trkpt><trkpt lat="45.00237260857022" lon="9.937896435965026"><ele>49.0</ele><time>2026-04-12T07:04:50.998Z</time></trkpt><trkpt lat="45.002304365804044" lon="9.937836524712397"><ele>49.0</ele><time>2026-04-12T07:04:51.998Z</time></trkpt><trkpt lat="45.00223556772593" lon="9.937776241847248"><ele>49.0</ele><time>2026-04-12T07:04:52.998Z</time></trkpt><trkpt lat="45.00216670787512" lon="9.937710307715085"><ele>48.99999999999999</ele><time>2026-04-12T07:04:53.998Z</time></trkpt><trkpt lat="45.00209975875641" lon="9.937643331185317"><ele>49.0</ele><time>2026-04-12T07:04:54.998Z</time></trkpt><trkpt lat="45.002032984165126" lon="9.937578162378912"><ele>48.99999999999999</ele><time>2026-04-12T07:04:55.998Z</time></trkpt><trkpt lat="45.001965037488375" lon="9.937514251034335"><ele>49.0</ele><time>2026-04-12T07:04:56.998Z</time></trkpt><trkpt lat="45.00189703012303" lon="9.937449639992941"><ele>49.0</ele><time>2026-04-12T07:04:57.998Z</time></trkpt><trkpt lat="45.00182832347642" lon="9.937384013796546"><ele>49.0</ele><time>2026-04-12T07:04:58.998Z</time></trkpt><trkpt lat="45.00176103636697" lon="9.93731991783007"><ele>48.99999999999999</ele><time>2026-04-12T07:04:59.998Z</time></trkpt><trkpt lat="45.0016945713796" lon="9.9372586553015"><ele>49.0</ele><time>2026-04-12T07:05:00.998Z</time></trkpt><trkpt lat="45.00162716661422" lon="9.937195581092075"><ele>48.99999999999999</ele><time>2026-04-12T07:05:01.998Z</time></trkpt><trkpt lat="45.00156121238452" lon="9.937129957724451"><ele>49.0</ele><time>2026-04-12T07:05:02.998Z</time></trkpt><trkpt lat="45.00149647185628" lon="9.937064991507974"><ele>49.0</ele><time>2026-04-12T07:05:03.998Z</time></trkpt><trkpt lat="45.00142993125214" lon="9.937001336689068"><ele>49.0</ele><time>2026-04-12T07:05:04.998Z</time></trkpt><trkpt lat="45.00136279402579" lon="9.936939020131772"><ele>48.99999999999999</ele><time>2026-04-12T07:05:06Z</time></trkpt><trkpt lat="45.001295667746845" lon="9.936877111649482"><ele>49.0</ele><time>2026-04-12T07:05:07Z</time></trkpt><trkpt lat="45.00122798832685" lon="9.936812869817086"><ele>48.99999999999999</ele><time>2026-04-12T07:05:08Z</time></trkpt><trkpt lat="45.00116271500446" lon="9.93674729265896"><ele>49.0</ele><time>2026-04-12T07:05:09Z</time></trkpt><trkpt lat="45.0010961574104" lon="9.93668369454612"><ele>49.0</ele><time>2026-04-12T07:05:10Z</time></trkpt><trkpt lat="45.001031197667075" lon="9.936615328686146"><ele>49.0</ele><time>2026-04-12T07:05:11Z</time></trkpt><trkpt lat="45.0009629445838" lon="9.936552010670443"><ele>48.99999999999999</ele><time>2026-04-12T07:05:12Z</time></trkpt><trkpt lat="45.000895791570315" lon="9.93649351140069"><ele>49.0</ele><time>2026-04-12T07:05:13Z</time></trkpt><trkpt lat="45.00082902637263" lon="9.936429463174042"><ele>48.666666666666664</ele><time>2026-04-12T07:05:14Z</time></trkpt><trkpt lat="45.0007620211094" lon="9.936365789475014"><ele>48.33333333333333</ele><time>2026-04-12T07:05:15Z</time></trkpt><trkpt lat="45.00069504883335" lon="9.936304539611314"><ele>48.0</ele><time>2026-04-12T07:05:16Z</time></trkpt><trkpt lat="45.000625631331516" lon="9.936242272513514"><ele>47.666666666666664</ele><time>2026-04-12T07:05:17Z</time></trkpt><trkpt lat="45.000554734634605" lon="9.936187766958167"><ele>47.33333333333333</ele><time>2026-04-12T07:05:18Z</time></trkpt><trkpt lat="45.00048344468663" lon="9.936135009455663"><ele>47.0</ele><time>2026-04-12T07:05:19Z</time></trkpt><trkpt lat="45.000411478677904" lon="9.936080902815418"><ele>47.0</ele><time>2026-04-12T07:05:20Z</time></trkpt><trkpt lat="45.000340092588296" lon="9.93602614012897"><ele>47.0</ele><time>2026-04-12T07:05:21Z</time></trkpt><trkpt lat="45.00026740839267" lon="9.935977978900343"><ele>47.0</ele><time>2026-04-12T07:05:22Z</time></trkpt><trkpt lat="45.00019470498068" lon="9.93592829511292"><ele>47.0</ele><time>2026-04-12T07:05:23Z</time></trkpt><trkpt lat="45.0001230857384" lon="9.935878612168427"><ele>47.0</ele><time>2026-04-12T07:05:24Z</time></trkpt><trkpt lat="45.00005191003255" lon="9.935827841383485"><ele>47.0</ele><time>2026-04-12T07:05:25Z</time></trkpt><trkpt lat="44.999982824684174" lon="9.93577860562257"><ele>47.0</ele><time>2026-04-12T07:05:26Z</time></trkpt><trkpt lat="44.999911643720296" lon="9.935730704560507"><ele>47.0</ele><time>2026-04-12T07:05:27Z</time></trkpt><trkpt lat="44.99984157429006" lon="9.935681401073309"><ele>47.0</ele><time>2026-04-12T07:05:28Z</time></trkpt><trkpt lat="44.999770486958624" lon="9.935634627098791"><ele>47.0</ele><time>2026-04-12T07:05:29Z</time></trkpt><trkpt lat="44.99970109540735" lon="9.93558251497519"><ele>47.0</ele><time>2026-04-12T07:05:30Z</time></trkpt><trkpt lat="44.99963254829705" lon="9.935532266936232"><ele>47.0</ele><time>2026-04-12T07:05:31Z</time></trkpt><trkpt lat="44.9995594883772" lon="9.935484181308647"><ele>47.0</ele><time>2026-04-12T07:05:32Z</time></trkpt><trkpt lat="44.99948662924951" lon="9.935436066840134"><ele>47.0</ele><time>2026-04-12T07:05:33Z</time></trkpt><trkpt lat="44.999415040160294" lon="9.93538849164309"><ele>47.0</ele><time>2026-04-12T07:05:34Z</time></trkpt><trkpt lat="44.99934018141502" lon="9.935345090338286"><ele>47.0</ele><time>2026-04-12T07:05:35Z</time></trkpt><trkpt lat="44.999265698585916" lon="9.935304656765073"><ele>47.0</ele><time>2026-04-12T07:05:36Z</time></trkpt><trkpt lat="44.99919034342717" lon="9.935266698274138"><ele>47.0</ele><time>2026-04-12T07:05:37Z</time></trkpt><trkpt lat="44.99911588601166" lon="9.935227789557382"><ele>47.5</ele><time>2026-04-12T07:05:38Z</time></trkpt><trkpt lat="44.99904005026571" lon="9.935190973802872"><ele>48.0</ele><time>2026-04-12T07:05:39Z</time></trkpt><trkpt lat="44.99896667863278" lon="9.935150927407442"><ele>48.5</ele><time>2026-04-12T07:05:40Z</time></trkpt><trkpt lat="44.99889358953235" lon="9.935106317474755"><ele>49.0</ele><time>2026-04-12T07:05:41Z</time></trkpt><trkpt lat="44.998821336221965" lon="9.935055929162106"><ele>49.50000000000001</ele><time>2026-04-12T07:05:42Z</time></trkpt><trkpt lat="44.998756592149114" lon="9.934995866310262"><ele>50.0</ele><time>2026-04-12T07:05:42.999Z</time></trkpt><trkpt lat="44.99870601586819" lon="9.934903975954605"><ele>50.00000000000001</ele><time>2026-04-12T07:05:43.999Z</time></trkpt><trkpt lat="44.99867445235908" lon="9.934796724120417"><ele>50.0</ele><time>2026-04-12T07:05:44.999Z</time></trkpt><trkpt lat="44.99865987387285" lon="9.934686461239638"><ele>50.0</ele><time>2026-04-12T07:05:45.999Z</time></trkpt><trkpt lat="44.998654129553195" lon="9.934573250661964"><ele>50.0</ele><time>2026-04-12T07:05:46.999Z</time></trkpt><trkpt lat="44.99866655742755" lon="9.934458667398207"><ele>50.00000000000001</ele><time>2026-04-12T07:05:47.999Z</time></trkpt><trkpt lat="44.9986865680238" lon="9.934343997019027"><ele>50.0</ele><time>2026-04-12T07:05:48.999Z</time></trkpt><trkpt lat="44.998707519564384" lon="9.934231604286666"><ele>49.833333333333336</ele><time>2026-04-12T07:05:49.999Z</time></trkpt><trkpt lat="44.99872827710776" lon="9.934119804349248"><ele>49.66666666666667</ele><time>2026-04-12T07:05:50.999Z</time></trkpt><trkpt lat="44.99875015648559" lon="9.934006063931168"><ele>49.5</ele><time>2026-04-12T07:05:51.999Z</time></trkpt><trkpt lat="44.99877320014077" lon="9.933895482357578"><ele>49.33333333333333</ele><time>2026-04-12T07:05:52.999Z</time></trkpt><trkpt lat="44.99879656398032" lon="9.93378324765874"><ele>49.166666666666664</ele><time>2026-04-12T07:05:53.999Z</time></trkpt><trkpt lat="44.998816403023326" lon="9.933670296501798"><ele>49.0</ele><time>2026-04-12T07:05:54.999Z</time></trkpt><trkpt lat="44.99883743325975" lon="9.933558295302797"><ele>48.99999999999999</ele><time>2026-04-12T07:05:55.999Z</time></trkpt><trkpt lat="44.9988583726272" lon="9.933443087774613"><ele>49.0</ele><time>2026-04-12T07:05:56.999Z</time></trkpt><trkpt lat="44.998879911576196" lon="9.933336799701765"><ele>49.0</ele><time>2026-04-12T07:05:57.999Z</time></trkpt><trkpt lat="44.99890350835917" lon="9.93322383501706"><ele>49.0</ele><time>2026-04-12T07:05:58.999Z</time></trkpt><trkpt lat="44.99892416410061" lon="9.933112443256357"><ele>48.99999999999999</ele><time>2026-04-12T07:05:59.999Z</time></trkpt><trkpt lat="44.998942121928906" lon="9.933000831017385"><ele>49.0</ele><time>2026-04-12T07:06:00.999Z</time></trkpt><trkpt lat="44.99895927396899" lon="9.932888926006704"><ele>48.99999999999999</ele><time>2026-04-12T07:06:01.999Z</time></trkpt><trkpt lat="44.99897490642146" lon="9.932776544970107"><ele>49.0</ele><time>2026-04-12T07:06:02.999Z</time></trkpt><trkpt lat="44.99897670801162" lon="9.932662366512808"><ele>49.0</ele><time>2026-04-12T07:06:03.999Z</time></trkpt><trkpt lat="44.998955086874844" lon="9.932550330632003"><ele>49.0</ele><time>2026-04-12T07:06:04.999Z</time></trkpt><trkpt lat="44.998901096542205" lon="9.932457951996962"><ele>48.99999999999999</ele><time>2026-04-12T07:06:05.999Z</time></trkpt><trkpt lat="44.99882009179566" lon="9.932399690890852"><ele>49.0</ele><time>2026-04-12T07:06:06.999Z</time></trkpt><trkpt lat="44.99873335451891" lon="9.93237000330982"><ele>48.99999999999999</ele><time>2026-04-12T07:06:07.999Z</time></trkpt><trkpt lat="44.998650811682666" lon="9.93234480127334"><ele>49.0</ele><time>2026-04-12T07:06:08.999Z</time></trkpt><trkpt lat="44.9985679288148" lon="9.932317246577561"><ele>49.0</ele><time>2026-04-12T07:06:09.999Z</time></trkpt><trkpt lat="44.99848926053761" lon="9.932285037119563"><ele>49.0</ele><time>2026-04-12T07:06:10.999Z</time></trkpt><trkpt lat="44.99841045660073" lon="9.932252633962559"><ele>48.99999999999999</ele><time>2026-04-12T07:06:11.999Z</time></trkpt><trkpt lat="44.99833595780188" lon="9.93221863188429"><ele>49.0</ele><time>2026-04-12T07:06:12.999Z</time></trkpt><trkpt lat="44.99825800739038" lon="9.932186955032499"><ele>49.666666666666664</ele><time>2026-04-12T07:06:13.999Z</time></trkpt><trkpt lat="44.998177756904404" lon="9.93215867018253"><ele>50.33333333333333</ele><time>2026-04-12T07:06:14.999Z</time></trkpt><trkpt lat="44.9980977845305" lon="9.932128268109464"><ele>51.0</ele><time>2026-04-12T07:06:15.999Z</time></trkpt><trkpt lat="44.99801784633834" lon="9.93209592980774"><ele>51.66666666666667</ele><time>2026-04-12T07:06:16.999Z</time></trkpt><trkpt lat="44.99794123425517" lon="9.932065170209272"><ele>52.333333333333336</ele><time>2026-04-12T07:06:17.999Z</time></trkpt><trkpt lat="44.997864638014455" lon="9.932032474753377"><ele>53.0</ele><time>2026-04-12T07:06:18.999Z</time></trkpt><trkpt lat="44.99778795459245" lon="9.931999866853863"><ele>53.00000000000001</ele><time>2026-04-12T07:06:19.999Z</time></trkpt><trkpt lat="44.997712085732935" lon="9.931971398733198"><ele>53.0</ele><time>2026-04-12T07:06:20.999Z</time></trkpt><trkpt lat="44.99763315039208" lon="9.93194428852763"><ele>53.0</ele><time>2026-04-12T07:06:21.999Z</time></trkpt><trkpt lat="44.997557081438025" lon="9.931912805018104"><ele>53.0</ele><time>2026-04-12T07:06:22.999Z</time></trkpt><trkpt lat="44.99748237929856" lon="9.931877024847214"><ele>53.00000000000001</ele><time>2026-04-12T07:06:23.999Z</time></trkpt><trkpt lat="44.99740694297897" lon="9.931845148941406"><ele>53.0</ele><time>2026-04-12T07:06:24.999Z</time></trkpt><trkpt lat="44.99733131100807" lon="9.931808988337757"><ele>53.16666666666667</ele><time>2026-04-12T07:06:25.999Z</time></trkpt><trkpt lat="44.997255276614396" lon="9.931776411996902"><ele>53.333333333333336</ele><time>2026-04-12T07:06:26.999Z</time></trkpt><trkpt lat="44.997179710370794" lon="9.931742491756554"><ele>53.5</ele><time>2026-04-12T07:06:27.999Z</time></trkpt><trkpt lat="44.99710204343492" lon="9.931712260659756"><ele>53.66666666666667</ele><time>2026-04-12T07:06:28.999Z</time></trkpt><trkpt lat="44.997024724281964" lon="9.931682550958778"><ele>53.833333333333336</ele><time>2026-04-12T07:06:29.999Z</time></trkpt><trkpt lat="44.99694988529226" lon="9.93165196789192"><ele>54.0</ele><time>2026-04-12T07:06:30.999Z</time></trkpt><trkpt lat="44.99687437117772" lon="9.931614308191872"><ele>54.0</ele><time>2026-04-12T07:06:31.999Z</time></trkpt><trkpt lat="44.99680066438659" lon="9.931583925921078"><ele>54.0</ele><time>2026-04-12T07:06:32.999Z</time></trkpt><trkpt lat="44.996723132683655" lon="9.931551594111083"><ele>54.0</ele><time>2026-04-12T07:06:33.999Z</time></trkpt><trkpt lat="44.996649505816976" lon="9.931519940664277"><ele>54.0</ele><time>2026-04-12T07:06:34.999Z</time></trkpt><trkpt lat="44.996574655527155" lon="9.931485966878197"><ele>54.0</ele><time>2026-04-12T07:06:35.998Z</time></trkpt><trkpt lat="44.99649968642825" lon="9.931455038669583"><ele>54.0</ele><time>2026-04-12T07:06:36.998Z</time></trkpt><trkpt lat="44.99642127385271" lon="9.931432142473142"><ele>54.0</ele><time>2026-04-12T07:06:37.998Z</time></trkpt><trkpt lat="44.996343768344" lon="9.93140408142663"><ele>54.0</ele><time>2026-04-12T07:06:38.998Z</time></trkpt><trkpt lat="44.99626674396481" lon="9.93137734453699"><ele>54.0</ele><time>2026-04-12T07:06:39.998Z</time></trkpt><trkpt lat="44.996191283541044" lon="9.931349476689311"><ele>54.0</ele><time>2026-04-12T07:06:40.998Z</time></trkpt><trkpt lat="44.996114722706295" lon="9.931318889107445"><ele>54.0</ele><time>2026-04-12T07:06:41.998Z</time></trkpt><trkpt lat="44.99604122540692" lon="9.931288847707625"><ele>54.0</ele><time>2026-04-12T07:06:42.998Z</time></trkpt><trkpt lat="44.995966511716944" lon="9.931262300265184"><ele>54.0</ele><time>2026-04-12T07:06:43.998Z</time></trkpt><trkpt lat="44.99589152773805" lon="9.93123297122616"><ele>54.0</ele><time>2026-04-12T07:06:44.998Z</time></trkpt><trkpt lat="44.99581986430685" lon="9.931204617330948"><ele>54.0</ele><time>2026-04-12T07:06:45.998Z</time></trkpt><trkpt lat="44.995752274635514" lon="9.931171903969894"><ele>54.0</ele><time>2026-04-12T07:06:46.998Z</time></trkpt><trkpt lat="44.9956856644579" lon="9.931141810762488"><ele>54.0</ele><time>2026-04-12T07:06:47.998Z</time></trkpt><trkpt lat="44.99561965067577" lon="9.931114595160032"><ele>54.0</ele><time>2026-04-12T07:06:48.998Z</time></trkpt><trkpt lat="44.99555858742922" lon="9.93108922504547"><ele>54.0</ele><time>2026-04-12T07:06:49.998Z</time></trkpt><trkpt lat="44.995495630060624" lon="9.931061983401143"><ele>54.285714285714285</ele><time>2026-04-12T07:06:50.998Z</time></trkpt><trkpt lat="44.99543190077251" lon="9.931035320199552"><ele>54.57142857142857</ele><time>2026-04-12T07:06:51.998Z</time></trkpt><trkpt lat="44.99536584760164" lon="9.931005511131481"><ele>54.85714285714286</ele><time>2026-04-12T07:06:52.998Z</time></trkpt><trkpt lat="44.99529922319847" lon="9.930977686892929"><ele>55.14285714285714</ele><time>2026-04-12T07:06:53.998Z</time></trkpt><trkpt lat="44.995229576819874" lon="9.930959570974768"><ele>55.42857142857143</ele><time>2026-04-12T07:06:54.998Z</time></trkpt><trkpt lat="44.99516564956554" lon="9.930931100177668"><ele>55.714285714285715</ele><time>2026-04-12T07:06:55.998Z</time></trkpt><trkpt lat="44.995101096544644" lon="9.930905567532731"><ele>56.0</ele><time>2026-04-12T07:06:56.998Z</time></trkpt><trkpt lat="44.995034870434495" lon="9.93087999820415"><ele>55.857142857142854</ele><time>2026-04-12T07:06:57.998Z</time></trkpt><trkpt lat="44.9949663210884" lon="9.930852615911926"><ele>55.714285714285715</ele><time>2026-04-12T07:06:58.998Z</time></trkpt><trkpt lat="44.99489691895696" lon="9.930824942481795"><ele>55.57142857142857</ele><time>2026-04-12T07:06:59.998Z</time></trkpt><trkpt lat="44.99482714938399" lon="9.930796725790318"><ele>55.42857142857143</ele><time>2026-04-12T07:07:00.998Z</time></trkpt><trkpt lat="44.99475895696906" lon="9.930767972184768"><ele>55.285714285714285</ele><time>2026-04-12T07:07:01.998Z</time></trkpt><trkpt lat="44.994689427036526" lon="9.930736965250922"><ele>55.14285714285714</ele><time>2026-04-12T07:07:02.998Z</time></trkpt><trkpt lat="44.994620161988614" lon="9.930712074533309"><ele>55.0</ele><time>2026-04-12T07:07:03.998Z</time></trkpt><trkpt lat="44.994548187189075" lon="9.930682844611432"><ele>54.99999999999999</ele><time>2026-04-12T07:07:04.998Z</time></trkpt><trkpt lat="44.994475802158064" lon="9.930655416690634"><ele>55.0</ele><time>2026-04-12T07:07:05.998Z</time></trkpt><trkpt lat="44.994403672867456" lon="9.930630613563208"><ele>55.0</ele><time>2026-04-12T07:07:06.998Z</time></trkpt><trkpt lat="44.99433379789781" lon="9.930604260454746"><ele>55.0</ele><time>2026-04-12T07:07:07.998Z</time></trkpt><trkpt lat="44.99426126087565" lon="9.930576324588598"><ele>55.0</ele><time>2026-04-12T07:07:08.998Z</time></trkpt><trkpt lat="44.99418956897852" lon="9.930548328263248"><ele>54.99999999999999</ele><time>2026-04-12T07:07:09.998Z</time></trkpt><trkpt lat="44.99411652677564" lon="9.930521189319808"><ele>55.0</ele><time>2026-04-12T07:07:11Z</time></trkpt><trkpt lat="44.99404648743402" lon="9.930491234795207"><ele>55.14285714285714</ele><time>2026-04-12T07:07:12Z</time></trkpt><trkpt lat="44.993978281108376" lon="9.930453191469462"><ele>55.285714285714285</ele><time>2026-04-12T07:07:13Z</time></trkpt><trkpt lat="44.99391355684848" lon="9.930407393267222"><ele>55.42857142857143</ele><time>2026-04-12T07:07:14Z</time></trkpt><trkpt lat="44.993852635386" lon="9.930354285807732"><ele>55.57142857142857</ele><time>2026-04-12T07:07:15Z</time></trkpt><trkpt lat="44.99379856882716" lon="9.930287628014828"><ele>55.714285714285715</ele><time>2026-04-12T07:07:16Z</time></trkpt><trkpt lat="44.99373369635366" lon="9.93023393443324"><ele>55.857142857142854</ele><time>2026-04-12T07:07:17Z</time></trkpt><trkpt lat="44.99366000041178" lon="9.930219851037005"><ele>56.0</ele><time>2026-04-12T07:07:18Z</time></trkpt><trkpt lat="44.99357962030563" lon="9.930240526620137"><ele>56.00000000000001</ele><time>2026-04-12T07:07:19Z</time></trkpt><trkpt lat="44.99350330878255" lon="9.930261768972015"><ele>56.0</ele><time>2026-04-12T07:07:20Z</time></trkpt><trkpt lat="44.993427230885246" lon="9.930261978849952"><ele>56.0</ele><time>2026-04-12T07:07:21Z</time></trkpt><trkpt lat="44.99335338286927" lon="9.930228827572956"><ele>56.0</ele><time>2026-04-12T07:07:22Z</time></trkpt><trkpt lat="44.99328115807534" lon="9.93019508120486"><ele>56.00000000000001</ele><time>2026-04-12T07:07:23Z</time></trkpt><trkpt lat="44.99320438935908" lon="9.930164989242654"><ele>56.0</ele><time>2026-04-12T07:07:24Z</time></trkpt><trkpt lat="44.99313044352502" lon="9.930143641487287"><ele>55.66666666666667</ele><time>2026-04-12T07:07:25Z</time></trkpt><trkpt lat="44.99305665238246" lon="9.930120603999509"><ele>55.333333333333336</ele><time>2026-04-12T07:07:26Z</time></trkpt><trkpt lat="44.99298313489374" lon="9.930094935640083"><ele>55.0</ele><time>2026-04-12T07:07:27Z</time></trkpt><trkpt lat="44.992907320765774" lon="9.930066681423803"><ele>54.66666666666667</ele><time>2026-04-12T07:07:28Z</time></trkpt><trkpt lat="44.99283551045531" lon="9.930037488832863"><ele>54.333333333333336</ele><time>2026-04-12T07:07:29Z</time></trkpt><trkpt lat="44.99276586574697" lon="9.930007704499836"><ele>54.0</ele><time>2026-04-12T07:07:30Z</time></trkpt><trkpt lat="44.992696278143036" lon="9.929976332305072"><ele>54.0</ele><time>2026-04-12T07:07:31Z</time></trkpt><trkpt lat="44.992630133682525" lon="9.929949782577056"><ele>54.0</ele><time>2026-04-12T07:07:32Z</time></trkpt><trkpt lat="44.99256586782997" lon="9.929921866482283"><ele>54.0</ele><time>2026-04-12T07:07:33Z</time></trkpt><trkpt lat="44.99250401181697" lon="9.929899449436661"><ele>54.0</ele><time>2026-04-12T07:07:34Z</time></trkpt><trkpt lat="44.9923872348762" lon="9.929873523460683"><ele>54.0</ele><time>2026-04-12T07:07:36Z</time></trkpt><trkpt lat="44.99230591486966" lon="9.930009929085163"><ele>54.0</ele><time>2026-04-12T07:07:38Z</time></trkpt><trkpt lat="44.99230424578968" lon="9.930111368924228"><ele>53.857142857142854</ele><time>2026-04-12T07:07:39Z</time></trkpt><trkpt lat="44.9923169238792" lon="9.930210030078225"><ele>53.71428571428571</ele><time>2026-04-12T07:07:40Z</time></trkpt><trkpt lat="44.992325359872" lon="9.930307057754545"><ele>53.57142857142857</ele><time>2026-04-12T07:07:41Z</time></trkpt><trkpt lat="44.99232781287176" lon="9.930404912958696"><ele>53.42857142857143</ele><time>2026-04-12T07:07:42Z</time></trkpt><trkpt lat="44.992330948341014" lon="9.930503025270514"><ele>53.285714285714285</ele><time>2026-04-12T07:07:43Z</time></trkpt><trkpt lat="44.99233516201233" lon="9.930604407252726"><ele>53.142857142857146</ele><time>2026-04-12T07:07:44Z</time></trkpt><trkpt lat="44.99233692171162" lon="9.930704320110523"><ele>53.0</ele><time>2026-04-12T07:07:45Z</time></trkpt><trkpt lat="44.99233904184805" lon="9.930806660688594"><ele>53.142857142857146</ele><time>2026-04-12T07:07:46Z</time></trkpt><trkpt lat="44.992342768856055" lon="9.930907991570136"><ele>53.285714285714285</ele><time>2026-04-12T07:07:46.999Z</time></trkpt><trkpt lat="44.99234283498114" lon="9.931010541040475"><ele>53.42857142857143</ele><time>2026-04-12T07:07:47.999Z</time></trkpt><trkpt lat="44.99234438954858" lon="9.93111440141126"><ele>53.57142857142857</ele><time>2026-04-12T07:07:48.999Z</time></trkpt><trkpt lat="44.99234788573907" lon="9.931217656310135"><ele>53.71428571428571</ele><time>2026-04-12T07:07:49.999Z</time></trkpt><trkpt lat="44.992349814473044" lon="9.931320385868787"><ele>53.857142857142854</ele><time>2026-04-12T07:07:50.999Z</time></trkpt><trkpt lat="44.9923523482289" lon="9.931421795337943"><ele>54.0</ele><time>2026-04-12T07:07:51.999Z</time></trkpt><trkpt lat="44.992352955483454" lon="9.931524434104952"><ele>54.0</ele><time>2026-04-12T07:07:52.999Z</time></trkpt><trkpt lat="44.99235465865299" lon="9.931625947608977"><ele>54.0</ele><time>2026-04-12T07:07:53.999Z</time></trkpt><trkpt lat="44.99235449398464" lon="9.931729117724428"><ele>54.0</ele><time>2026-04-12T07:07:54.999Z</time></trkpt><trkpt lat="44.99235607467369" lon="9.931831384437437"><ele>54.0</ele><time>2026-04-12T07:07:55.999Z</time></trkpt><trkpt lat="44.99235669190884" lon="9.931932886617982"><ele>54.0</ele><time>2026-04-12T07:07:56.999Z</time></trkpt><trkpt lat="44.99235858909149" lon="9.932032799197318"><ele>54.0</ele><time>2026-04-12T07:07:57.999Z</time></trkpt><trkpt lat="44.992360959727776" lon="9.932128431714863"><ele>54.0</ele><time>2026-04-12T07:07:58.999Z</time></trkpt><trkpt lat="44.99235150424705" lon="9.932220408392963"><ele>54.0</ele><time>2026-04-12T07:07:59.999Z</time></trkpt><trkpt lat="44.99230791691764" lon="9.932291016062356"><ele>54.0</ele><time>2026-04-12T07:08:00.999Z</time></trkpt><trkpt lat="44.99223797118137" lon="9.932323168752887"><ele>54.0</ele><time>2026-04-12T07:08:01.999Z</time></trkpt><trkpt lat="44.99216414005102" lon="9.932313490104843"><ele>54.0</ele><time>2026-04-12T07:08:02.999Z</time></trkpt><trkpt lat="44.99209673672006" lon="9.93228532804163"><ele>54.0</ele><time>2026-04-12T07:08:03.999Z</time></trkpt><trkpt lat="44.99203497974398" lon="9.932223351577443"><ele>54.0</ele><time>2026-04-12T07:08:04.999Z</time></trkpt><trkpt lat="44.99196785558304" lon="9.932200213280307"><ele>54.0</ele><time>2026-04-12T07:08:05.999Z</time></trkpt><trkpt lat="44.9918980904442" lon="9.932176118275782"><ele>54.0</ele><time>2026-04-12T07:08:06.999Z</time></trkpt><trkpt lat="44.99182253428665" lon="9.932175224621659"><ele>54.0</ele><time>2026-04-12T07:08:07.999Z</time></trkpt><trkpt lat="44.991751894071434" lon="9.932150664615879"><ele>54.0</ele><time>2026-04-12T07:08:08.999Z</time></trkpt><trkpt lat="44.99168204249388" lon="9.932119474353534"><ele>54.0</ele><time>2026-04-12T07:08:09.999Z</time></trkpt><trkpt lat="44.991612628368614" lon="9.932088528850667"><ele>54.0</ele><time>2026-04-12T07:08:10.999Z</time></trkpt><trkpt lat="44.99154026539702" lon="9.932052500481925"><ele>54.0</ele><time>2026-04-12T07:08:11.999Z</time></trkpt><trkpt lat="44.991470637010075" lon="9.932017975448701"><ele>54.0</ele><time>2026-04-12T07:08:12.999Z</time></trkpt><trkpt lat="44.99139969086257" lon="9.93198093521662"><ele>54.0</ele><time>2026-04-12T07:08:13.999Z</time></trkpt><trkpt lat="44.99133432686829" lon="9.931918364258424"><ele>54.0</ele><time>2026-04-12T07:08:14.999Z</time></trkpt><trkpt lat="44.99125693659842" lon="9.931898739580767"><ele>54.0</ele><time>2026-04-12T07:08:15.999Z</time></trkpt><trkpt lat="44.99118511139214" lon="9.931858265119105"><ele>54.0</ele><time>2026-04-12T07:08:16.999Z</time></trkpt><trkpt lat="44.99111946331671" lon="9.931794771063611"><ele>54.0</ele><time>2026-04-12T07:08:17.999Z</time></trkpt><trkpt lat="44.99104989065328" lon="9.93175390822865"><ele>54.0</ele><time>2026-04-12T07:08:18.999Z</time></trkpt><trkpt lat="44.99097918020472" lon="9.931712377223871"><ele>54.0</ele><time>2026-04-12T07:08:19.999Z</time></trkpt><trkpt lat="44.99090972323266" lon="9.931671582404288"><ele>54.0</ele><time>2026-04-12T07:08:20.999Z</time></trkpt><trkpt lat="44.99083652558935" lon="9.93162859058145"><ele>54.0</ele><time>2026-04-12T07:08:21.999Z</time></trkpt><trkpt lat="44.9907672347827" lon="9.931587505087897"><ele>54.0</ele><time>2026-04-12T07:08:22.999Z</time></trkpt><trkpt lat="44.990694960644305" lon="9.931544525308412"><ele>54.0</ele><time>2026-04-12T07:08:23.999Z</time></trkpt><trkpt lat="44.99061760392195" lon="9.93152132030486"><ele>54.0</ele><time>2026-04-12T07:08:24.999Z</time></trkpt><trkpt lat="44.99054587300404" lon="9.931477946309585"><ele>54.0</ele><time>2026-04-12T07:08:25.999Z</time></trkpt><trkpt lat="44.99047244384093" lon="9.931435234585859"><ele>54.0</ele><time>2026-04-12T07:08:26.999Z</time></trkpt><trkpt lat="44.99039976537326" lon="9.93139416242514"><ele>54.0</ele><time>2026-04-12T07:08:27.999Z</time></trkpt><trkpt lat="44.990328628026546" lon="9.931350184753166"><ele>54.0</ele><time>2026-04-12T07:08:28.999Z</time></trkpt><trkpt lat="44.99025628599273" lon="9.931308688055754"><ele>54.0</ele><time>2026-04-12T07:08:29.999Z</time></trkpt><trkpt lat="44.99018160436207" lon="9.931268989431146"><ele>54.0</ele><time>2026-04-12T07:08:30.999Z</time></trkpt><trkpt lat="44.99010963458789" lon="9.931233920205738"><ele>54.0</ele><time>2026-04-12T07:08:31.999Z</time></trkpt><trkpt lat="44.99003543658814" lon="9.931191031375901"><ele>54.0</ele><time>2026-04-12T07:08:32.999Z</time></trkpt><trkpt lat="44.98996161109907" lon="9.931150432666383"><ele>54.0</ele><time>2026-04-12T07:08:33.999Z</time></trkpt><trkpt lat="44.98988828702903" lon="9.931113246377432"><ele>54.0</ele><time>2026-04-12T07:08:34.999Z</time></trkpt><trkpt lat="44.9898141109562" lon="9.931075474078211"><ele>54.0</ele><time>2026-04-12T07:08:35.999Z</time></trkpt><trkpt lat="44.98974093772308" lon="9.931039660593909"><ele>54.0</ele><time>2026-04-12T07:08:36.999Z</time></trkpt><trkpt lat="44.98966484104383" lon="9.931003855894877"><ele>54.0</ele><time>2026-04-12T07:08:37.999Z</time></trkpt><trkpt lat="44.989588772096646" lon="9.930977536023455"><ele>54.0</ele><time>2026-04-12T07:08:38.999Z</time></trkpt><trkpt lat="44.989511472589534" lon="9.930948396280154"><ele>54.0</ele><time>2026-04-12T07:08:39.998Z</time></trkpt><trkpt lat="44.989433765480385" lon="9.930929861457411"><ele>54.0</ele><time>2026-04-12T07:08:40.998Z</time></trkpt><trkpt lat="44.989356266467404" lon="9.930911115774881"><ele>54.0</ele><time>2026-04-12T07:08:41.998Z</time></trkpt><trkpt lat="44.989279244958254" lon="9.930894634878765"><ele>54.0</ele><time>2026-04-12T07:08:42.998Z</time></trkpt><trkpt lat="44.989201943182195" lon="9.93088257633162"><ele>53.833333333333336</ele><time>2026-04-12T07:08:43.998Z</time></trkpt><trkpt lat="44.98912375043596" lon="9.930862482085054"><ele>53.66666666666667</ele><time>2026-04-12T07:08:44.998Z</time></trkpt><trkpt lat="44.98904626034012" lon="9.930850841913255"><ele>53.5</ele><time>2026-04-12T07:08:45.998Z</time></trkpt><trkpt lat="44.98897007121367" lon="9.930839050192903"><ele>53.333333333333336</ele><time>2026-04-12T07:08:46.998Z</time></trkpt><trkpt lat="44.98889149446361" lon="9.930824543633959"><ele>53.16666666666667</ele><time>2026-04-12T07:08:47.998Z</time></trkpt><trkpt lat="44.98881548885402" lon="9.930809440388394"><ele>53.0</ele><time>2026-04-12T07:08:48.998Z</time></trkpt><trkpt lat="44.988740409428594" lon="9.930794302772163"><ele>53.00000000000001</ele><time>2026-04-12T07:08:49.998Z</time></trkpt><trkpt lat="44.988664676958905" lon="9.930779479525832"><ele>53.0</ele><time>2026-04-12T07:08:50.998Z</time></trkpt><trkpt lat="44.98858902993445" lon="9.930758980921981"><ele>53.0</ele><time>2026-04-12T07:08:51.998Z</time></trkpt><trkpt lat="44.98851317771296" lon="9.930744199025137"><ele>53.0</ele><time>2026-04-12T07:08:52.998Z</time></trkpt><trkpt lat="44.98843751766586" lon="9.930730954818001"><ele>53.00000000000001</ele><time>2026-04-12T07:08:53.998Z</time></trkpt><trkpt lat="44.98836316565637" lon="9.930718905183706"><ele>53.0</ele><time>2026-04-12T07:08:54.998Z</time></trkpt><trkpt lat="44.98828502874671" lon="9.930704819142473"><ele>53.16666666666667</ele><time>2026-04-12T07:08:55.998Z</time></trkpt><trkpt lat="44.98820728642847" lon="9.930693767213407"><ele>53.333333333333336</ele><time>2026-04-12T07:08:56.998Z</time></trkpt><trkpt lat="44.98813111340702" lon="9.930683856793694"><ele>53.5</ele><time>2026-04-12T07:08:57.998Z</time></trkpt><trkpt lat="44.988053895431335" lon="9.930676701283168"><ele>53.66666666666667</ele><time>2026-04-12T07:08:58.998Z</time></trkpt><trkpt lat="44.987976338489666" lon="9.930669264694101"><ele>53.833333333333336</ele><time>2026-04-12T07:08:59.998Z</time></trkpt><trkpt lat="44.987898691046645" lon="9.930665891695854"><ele>54.0</ele><time>2026-04-12T07:09:00.998Z</time></trkpt><trkpt lat="44.98781995827115" lon="9.930665999900894"><ele>54.0</ele><time>2026-04-12T07:09:01.998Z</time></trkpt><trkpt lat="44.987744498916754" lon="9.930664571282334"><ele>54.0</ele><time>2026-04-12T07:09:02.998Z</time></trkpt><trkpt lat="44.987669298470706" lon="9.93067808796936"><ele>54.0</ele><time>2026-04-12T07:09:03.998Z</time></trkpt><trkpt lat="44.98760024520379" lon="9.930721764904218"><ele>54.0</ele><time>2026-04-12T07:09:04.998Z</time></trkpt><trkpt lat="44.98754838712117" lon="9.930804473186292"><ele>54.0</ele><time>2026-04-12T07:09:05.998Z</time></trkpt><trkpt lat="44.9875235442153" lon="9.930917345797711"><ele>54.0</ele><time>2026-04-12T07:09:06.998Z</time></trkpt><trkpt lat="44.9875180746368" lon="9.931032799713632"><ele>53.833333333333336</ele><time>2026-04-12T07:09:07.998Z</time></trkpt><trkpt lat="44.987510707035696" lon="9.931143231259165"><ele>53.66666666666667</ele><time>2026-04-12T07:09:08.998Z</time></trkpt><trkpt lat="44.987504876340665" lon="9.931250972507137"><ele>53.5</ele><time>2026-04-12T07:09:09.998Z</time></trkpt><trkpt lat="44.98749479003683" lon="9.931360095513748"><ele>53.333333333333336</ele><time>2026-04-12T07:09:10.998Z</time></trkpt><trkpt lat="44.98748616666744" lon="9.931468501432718"><ele>53.16666666666667</ele><time>2026-04-12T07:09:11.998Z</time></trkpt><trkpt lat="44.98747427162632" lon="9.931578018658255"><ele>53.0</ele><time>2026-04-12T07:09:12.998Z</time></trkpt><trkpt lat="44.98746329271738" lon="9.931686127589906"><ele>53.00000000000001</ele><time>2026-04-12T07:09:13.998Z</time></trkpt><trkpt lat="44.987452147014444" lon="9.931795954030722"><ele>53.0</ele><time>2026-04-12T07:09:14.998Z</time></trkpt><trkpt lat="44.98744180711646" lon="9.931903578067269"><ele>53.0</ele><time>2026-04-12T07:09:15.998Z</time></trkpt><trkpt lat="44.987432963387555" lon="9.932010279836438"><ele>53.0</ele><time>2026-04-12T07:09:17Z</time></trkpt><trkpt lat="44.9874246175041" lon="9.932117605908712"><ele>53.00000000000001</ele><time>2026-04-12T07:09:18Z</time></trkpt><trkpt lat="44.987408971974034" lon="9.932222519085279"><ele>53.0</ele><time>2026-04-12T07:09:19Z</time></trkpt><trkpt lat="44.98737697909372" lon="9.932322770411737"><ele>53.00000000000001</ele><time>2026-04-12T07:09:20Z</time></trkpt><trkpt lat="44.98731950358667" lon="9.932399192282906"><ele>53.0</ele><time>2026-04-12T07:09:21Z</time></trkpt><trkpt lat="44.98723497704667" lon="9.932408373853484"><ele>53.0</ele><time>2026-04-12T07:09:22Z</time></trkpt><trkpt lat="44.987160229789936" lon="9.932428800163727"><ele>53.0</ele><time>2026-04-12T07:09:23Z</time></trkpt><trkpt lat="44.987084960627" lon="9.932439192933996"><ele>53.00000000000001</ele><time>2026-04-12T07:09:24Z</time></trkpt><trkpt lat="44.98701153850818" lon="9.932468508578975"><ele>53.0</ele><time>2026-04-12T07:09:25Z</time></trkpt><trkpt lat="44.98693505819368" lon="9.932474921436116"><ele>53.00000000000001</ele><time>2026-04-12T07:09:26Z</time></trkpt><trkpt lat="44.98685912227455" lon="9.932485317933486"><ele>53.0</ele><time>2026-04-12T07:09:27Z</time></trkpt><trkpt lat="44.98678326423278" lon="9.932499488667803"><ele>53.0</ele><time>2026-04-12T07:09:28Z</time></trkpt><trkpt lat="44.986708171481084" lon="9.93251606808616"><ele>53.0</ele><time>2026-04-12T07:09:29Z</time></trkpt><trkpt lat="44.98663286729774" lon="9.932537286973583"><ele>53.00000000000001</ele><time>2026-04-12T07:09:30Z</time></trkpt><trkpt lat="44.98655922746842" lon="9.932564995975104"><ele>53.0</ele><time>2026-04-12T07:09:31Z</time></trkpt><trkpt lat="44.98648747699618" lon="9.93260548438054"><ele>53.00000000000001</ele><time>2026-04-12T07:09:32Z</time></trkpt><trkpt lat="44.98642106765492" lon="9.93266227825042"><ele>53.0</ele><time>2026-04-12T07:09:33Z</time></trkpt><trkpt lat="44.98635944741223" lon="9.932727250018816"><ele>53.0</ele><time>2026-04-12T07:09:34Z</time></trkpt><trkpt lat="44.98630473975032" lon="9.932802091460871"><ele>53.0</ele><time>2026-04-12T07:09:35Z</time></trkpt><trkpt lat="44.986252107262764" lon="9.93287984131422"><ele>53.00000000000001</ele><time>2026-04-12T07:09:36Z</time></trkpt><trkpt lat="44.98620247060382" lon="9.932961075385826"><ele>53.0</ele><time>2026-04-12T07:09:37Z</time></trkpt><trkpt lat="44.986150659576886" lon="9.933043575343051"><ele>53.00000000000001</ele><time>2026-04-12T07:09:38Z</time></trkpt><trkpt lat="44.98609894972551" lon="9.933125632490116"><ele>53.0</ele><time>2026-04-12T07:09:39Z</time></trkpt><trkpt lat="44.98604536989063" lon="9.933204013086897"><ele>53.0</ele><time>2026-04-12T07:09:40Z</time></trkpt><trkpt lat="44.985984937930404" lon="9.933275637129773"><ele>53.0</ele><time>2026-04-12T07:09:41Z</time></trkpt><trkpt lat="44.985918896016344" lon="9.933334404963661"><ele>53.00000000000001</ele><time>2026-04-12T07:09:42Z</time></trkpt><trkpt lat="44.98584760840769" lon="9.93338463114747"><ele>53.0</ele><time>2026-04-12T07:09:43Z</time></trkpt><trkpt lat="44.98577612077204" lon="9.933429065642853"><ele>53.333333333333336</ele><time>2026-04-12T07:09:44Z</time></trkpt><trkpt lat="44.985701671849924" lon="9.933464229335218"><ele>53.66666666666667</ele><time>2026-04-12T07:09:45Z</time></trkpt><trkpt lat="44.98562723852518" lon="9.933500277353874"><ele>54.0</ele><time>2026-04-12T07:09:46Z</time></trkpt><trkpt lat="44.98555379998326" lon="9.93354054728413"><ele>54.33333333333333</ele><time>2026-04-12T07:09:47Z</time></trkpt><trkpt lat="44.985481756769865" lon="9.933581150870578"><ele>54.666666666666664</ele><time>2026-04-12T07:09:48Z</time></trkpt><trkpt lat="44.98540845035861" lon="9.933622702051567"><ele>55.0</ele><time>2026-04-12T07:09:49Z</time></trkpt><trkpt lat="44.985336530549844" lon="9.933664450471877"><ele>54.99999999999999</ele><time>2026-04-12T07:09:50Z</time></trkpt><trkpt lat="44.985263685551494" lon="9.933705141540369"><ele>55.0</ele><time>2026-04-12T07:09:51Z</time></trkpt><trkpt lat="44.98518913329176" lon="9.933745284287925"><ele>55.0</ele><time>2026-04-12T07:09:51.999Z</time></trkpt><trkpt lat="44.9851178178758" lon="9.933785671165653"><ele>55.0</ele><time>2026-04-12T07:09:52.999Z</time></trkpt><trkpt lat="44.98504077371832" lon="9.93382035593096"><ele>54.99999999999999</ele><time>2026-04-12T07:09:53.999Z</time></trkpt><trkpt lat="44.984967860137516" lon="9.933861640172882"><ele>55.0</ele><time>2026-04-12T07:09:54.999Z</time></trkpt><trkpt lat="44.9848904001538" lon="9.933891321602998"><ele>54.99999999999999</ele><time>2026-04-12T07:09:55.999Z</time></trkpt><trkpt lat="44.984815716912244" lon="9.933922604581777"><ele>55.0</ele><time>2026-04-12T07:09:56.999Z</time></trkpt><trkpt lat="44.984739352657044" lon="9.933945717385608"><ele>55.0</ele><time>2026-04-12T07:09:57.999Z</time></trkpt><trkpt lat="44.984661446901114" lon="9.93397234662313"><ele>55.0</ele><time>2026-04-12T07:09:58.999Z</time></trkpt><trkpt lat="44.984581044960954" lon="9.933971360777239"><ele>54.99999999999999</ele><time>2026-04-12T07:09:59.999Z</time></trkpt><trkpt lat="44.984501395756624" lon="9.933994829868917"><ele>55.0</ele><time>2026-04-12T07:10:00.999Z</time></trkpt><trkpt lat="44.98442893097847" lon="9.934043845341563"><ele>54.99999999999999</ele><time>2026-04-12T07:10:01.999Z</time></trkpt><trkpt lat="44.984346457928886" lon="9.934040961220319"><ele>55.0</ele><time>2026-04-12T07:10:02.999Z</time></trkpt><trkpt lat="44.98426859373408" lon="9.934065793569962"><ele>55.0</ele><time>2026-04-12T07:10:03.999Z</time></trkpt><trkpt lat="44.98419093929157" lon="9.934090559080605"><ele>55.0</ele><time>2026-04-12T07:10:04.999Z</time></trkpt><trkpt lat="44.98411356810189" lon="9.93411523419296"><ele>54.99999999999999</ele><time>2026-04-12T07:10:05.999Z</time></trkpt><trkpt lat="44.984036436633716" lon="9.934139832876562"><ele>55.0</ele><time>2026-04-12T07:10:06.999Z</time></trkpt><trkpt lat="44.98396348950577" lon="9.93418881105735"><ele>54.99999999999999</ele><time>2026-04-12T07:10:07.999Z</time></trkpt><trkpt lat="44.98388637888837" lon="9.934216218181607"><ele>55.0</ele><time>2026-04-12T07:10:08.999Z</time></trkpt><trkpt lat="44.983810917906936" lon="9.934239953427417"><ele>55.0</ele><time>2026-04-12T07:10:09.999Z</time></trkpt><trkpt lat="44.98373159173457" lon="9.934263545330792"><ele>55.0</ele><time>2026-04-12T07:10:10.999Z</time></trkpt><trkpt lat="44.98365580293767" lon="9.934290934795913"><ele>54.99999999999999</ele><time>2026-04-12T07:10:11.999Z</time></trkpt><trkpt lat="44.98357625078175" lon="9.93431562190296"><ele>55.0</ele><time>2026-04-12T07:10:12.999Z</time></trkpt><trkpt lat="44.983498834659805" lon="9.934342344633757"><ele>54.666666666666664</ele><time>2026-04-12T07:10:13.999Z</time></trkpt><trkpt lat="44.983416394151156" lon="9.934340728263159"><ele>54.33333333333333</ele><time>2026-04-12T07:10:14.999Z</time></trkpt><trkpt lat="44.98333919942124" lon="9.934367105572553"><ele>54.0</ele><time>2026-04-12T07:10:15.999Z</time></trkpt><trkpt lat="44.983265465129534" lon="9.93441451683737"><ele>53.66666666666667</ele><time>2026-04-12T07:10:16.999Z</time></trkpt><trkpt lat="44.98318704966186" lon="9.934437437159676"><ele>53.333333333333336</ele><time>2026-04-12T07:10:17.999Z</time></trkpt><trkpt lat="44.983111920555885" lon="9.934466880214694"><ele>53.0</ele><time>2026-04-12T07:10:18.999Z</time></trkpt><trkpt lat="44.98303584847726" lon="9.934495689049337"><ele>53.00000000000001</ele><time>2026-04-12T07:10:19.999Z</time></trkpt><trkpt lat="44.982956154553364" lon="9.934503400808245"><ele>53.0</ele><time>2026-04-12T07:10:20.999Z</time></trkpt><trkpt lat="44.98288033004958" lon="9.934533357716068"><ele>53.0</ele><time>2026-04-12T07:10:21.999Z</time></trkpt><trkpt lat="44.98280424850971" lon="9.93456606419017"><ele>53.0</ele><time>2026-04-12T07:10:22.999Z</time></trkpt><trkpt lat="44.982730416617514" lon="9.934599967926978"><ele>53.00000000000001</ele><time>2026-04-12T07:10:23.999Z</time></trkpt><trkpt lat="44.98265901416342" lon="9.934654324589246"><ele>53.0</ele><time>2026-04-12T07:10:24.999Z</time></trkpt><trkpt lat="44.982586479444834" lon="9.934689902591174"><ele>52.66666666666667</ele><time>2026-04-12T07:10:25.999Z</time></trkpt><trkpt lat="44.98251073974228" lon="9.934722024955404"><ele>52.333333333333336</ele><time>2026-04-12T07:10:26.999Z</time></trkpt><trkpt lat="44.98243656328346" lon="9.93475686548298"><ele>52.0</ele><time>2026-04-12T07:10:27.999Z</time></trkpt><trkpt lat="44.98236158518802" lon="9.934789646224827"><ele>51.66666666666667</ele><time>2026-04-12T07:10:28.999Z</time></trkpt><trkpt lat="44.9822857031944" lon="9.93482110311683"><ele>51.333333333333336</ele><time>2026-04-12T07:10:29.999Z</time></trkpt><trkpt lat="44.982212549216484" lon="9.934855456221994"><ele>51.0</ele><time>2026-04-12T07:10:30.999Z</time></trkpt><trkpt lat="44.98213600894469" lon="9.934885675583557"><ele>51.0</ele><time>2026-04-12T07:10:31.999Z</time></trkpt><trkpt lat="44.98206140710539" lon="9.934918325128839"><ele>51.0</ele><time>2026-04-12T07:10:32.999Z</time></trkpt><trkpt lat="44.9819871863446" lon="9.934951721322431"><ele>51.0</ele><time>2026-04-12T07:10:33.999Z</time></trkpt><trkpt lat="44.98191161714986" lon="9.93498416997721"><ele>51.0</ele><time>2026-04-12T07:10:34.999Z</time></trkpt><trkpt lat="44.98183695870041" lon="9.935017508601927"><ele>51.0</ele><time>2026-04-12T07:10:35.999Z</time></trkpt><trkpt lat="44.98176206215016" lon="9.935047037913664"><ele>51.0</ele><time>2026-04-12T07:10:36.999Z</time></trkpt><trkpt lat="44.98168413998768" lon="9.935072968242888"><ele>51.166666666666664</ele><time>2026-04-12T07:10:37.999Z</time></trkpt><trkpt lat="44.98160945130383" lon="9.935098735139233"><ele>51.33333333333333</ele><time>2026-04-12T07:10:38.999Z</time></trkpt><trkpt lat="44.981532224892874" lon="9.93512326204185"><ele>51.5</ele><time>2026-04-12T07:10:39.999Z</time></trkpt><trkpt lat="44.981455860871364" lon="9.93514805806814"><ele>51.666666666666664</ele><time>2026-04-12T07:10:40.999Z</time></trkpt><trkpt lat="44.98137835112215" lon="9.935166488966727"><ele>51.83333333333333</ele><time>2026-04-12T07:10:41.999Z</time></trkpt><trkpt lat="44.98130027625453" lon="9.935182465114996"><ele>52.0</ele><time>2026-04-12T07:10:42.999Z</time></trkpt><trkpt lat="44.9812216466788" lon="9.935161456624886"><ele>51.99999999999999</ele><time>2026-04-12T07:10:43.999Z</time></trkpt><trkpt lat="44.98114397126078" lon="9.935157249372784"><ele>52.0</ele><time>2026-04-12T07:10:44.998Z</time></trkpt><trkpt lat="44.98106533449063" lon="9.935151475905943"><ele>52.0</ele><time>2026-04-12T07:10:45.998Z</time></trkpt><trkpt lat="44.98098647534062" lon="9.935143524224536"><ele>52.0</ele><time>2026-04-12T07:10:46.998Z</time></trkpt><trkpt lat="44.98090860777618" lon="9.935135001673315"><ele>51.99999999999999</ele><time>2026-04-12T07:10:47.998Z</time></trkpt><trkpt lat="44.98082922091574" lon="9.93512572828866"><ele>52.0</ele><time>2026-04-12T07:10:48.998Z</time></trkpt><trkpt lat="44.98075172378701" lon="9.9351166030835"><ele>52.49999999999999</ele><time>2026-04-12T07:10:49.998Z</time></trkpt><trkpt lat="44.980670951364665" lon="9.93512651383807"><ele>53.0</ele><time>2026-04-12T07:10:50.998Z</time></trkpt><trkpt lat="44.98059359566534" lon="9.935114023189254"><ele>53.5</ele><time>2026-04-12T07:10:51.998Z</time></trkpt><trkpt lat="44.9805171060431" lon="9.935099307492555"><ele>54.0</ele><time>2026-04-12T07:10:52.998Z</time></trkpt><trkpt lat="44.98043853208973" lon="9.935084935443092"><ele>54.49999999999999</ele><time>2026-04-12T07:10:53.998Z</time></trkpt><trkpt lat="44.98036133099348" lon="9.935072394072948"><ele>55.0</ele><time>2026-04-12T07:10:54.998Z</time></trkpt><trkpt lat="44.980283746656276" lon="9.935059681298673"><ele>54.99999999999999</ele><time>2026-04-12T07:10:55.998Z</time></trkpt><trkpt lat="44.98020625708931" lon="9.935046738435494"><ele>55.0</ele><time>2026-04-12T07:10:56.998Z</time></trkpt><trkpt lat="44.98012858131683" lon="9.935033221124717"><ele>55.0</ele><time>2026-04-12T07:10:57.998Z</time></trkpt><trkpt lat="44.98005194000296" lon="9.935017925496366"><ele>55.0</ele><time>2026-04-12T07:10:58.998Z</time></trkpt><trkpt lat="44.97997684450788" lon="9.934978383525507"><ele>54.99999999999999</ele><time>2026-04-12T07:10:59.998Z</time></trkpt><trkpt lat="44.97989770332224" lon="9.934983136589743"><ele>55.0</ele><time>2026-04-12T07:11:00.998Z</time></trkpt><trkpt lat="44.97981995888736" lon="9.93496106761489"><ele>54.99999999999999</ele><time>2026-04-12T07:11:01.998Z</time></trkpt><trkpt lat="44.9797429017993" lon="9.934944384198717"><ele>55.0</ele><time>2026-04-12T07:11:02.998Z</time></trkpt><trkpt lat="44.97966520757797" lon="9.934923442425518"><ele>55.0</ele><time>2026-04-12T07:11:03.998Z</time></trkpt><trkpt lat="44.979589531630126" lon="9.9348802145991"><ele>55.0</ele><time>2026-04-12T07:11:04.998Z</time></trkpt><trkpt lat="44.9795115441094" lon="9.934859164288774"><ele>54.99999999999999</ele><time>2026-04-12T07:11:05.998Z</time></trkpt><trkpt lat="44.979432698653504" lon="9.934837882415486"><ele>55.0</ele><time>2026-04-12T07:11:06.998Z</time></trkpt><trkpt lat="44.97935472949041" lon="9.934816837070185"><ele>54.99999999999999</ele><time>2026-04-12T07:11:07.998Z</time></trkpt><trkpt lat="44.979275504937775" lon="9.934795452884494"><ele>55.0</ele><time>2026-04-12T07:11:08.998Z</time></trkpt><trkpt lat="44.97919677823682" lon="9.934774203019293"><ele>55.0</ele><time>2026-04-12T07:11:09.998Z</time></trkpt><trkpt lat="44.9791183466871" lon="9.934753032861297"><ele>55.0</ele><time>2026-04-12T07:11:10.998Z</time></trkpt><trkpt lat="44.9790390895926" lon="9.934731639868156"><ele>54.99999999999999</ele><time>2026-04-12T07:11:11.998Z</time></trkpt><trkpt lat="44.978960692763586" lon="9.93470948770166"><ele>55.0</ele><time>2026-04-12T07:11:12.998Z</time></trkpt><trkpt lat="44.97888286234855" lon="9.934686774993402"><ele>54.99999999999999</ele><time>2026-04-12T07:11:13.998Z</time></trkpt><trkpt lat="44.978803619015224" lon="9.934663649978196"><ele>55.0</ele><time>2026-04-12T07:11:14.998Z</time></trkpt><trkpt lat="44.97872537964575" lon="9.934640552531166"><ele>55.0</ele><time>2026-04-12T07:11:15.998Z</time></trkpt><trkpt lat="44.97864719626011" lon="9.934616275569434"><ele>55.0</ele><time>2026-04-12T07:11:16.998Z</time></trkpt><trkpt lat="44.9785688435992" lon="9.934591945996349"><ele>54.99999999999999</ele><time>2026-04-12T07:11:17.998Z</time></trkpt><trkpt lat="44.97849118082566" lon="9.93456783072076"><ele>55.0</ele><time>2026-04-12T07:11:18.998Z</time></trkpt><trkpt lat="44.97841361026868" lon="9.934543744057507"><ele>54.33333333333333</ele><time>2026-04-12T07:11:19.998Z</time></trkpt><trkpt lat="44.97833690371952" lon="9.934519925629033"><ele>53.666666666666664</ele><time>2026-04-12T07:11:20.998Z</time></trkpt><trkpt lat="44.978258198563395" lon="9.9344954866827"><ele>53.0</ele><time>2026-04-12T07:11:21.998Z</time></trkpt><trkpt lat="44.97818150498502" lon="9.934471672309556"><ele>52.33333333333333</ele><time>2026-04-12T07:11:23Z</time></trkpt><trkpt lat="44.978101692145785" lon="9.934446891242114"><ele>51.666666666666664</ele><time>2026-04-12T07:11:24Z</time></trkpt><trkpt lat="44.97802466898185" lon="9.934422974572668"><ele>51.0</ele><time>2026-04-12T07:11:25Z</time></trkpt><trkpt lat="44.977944943031396" lon="9.934399253356196"><ele>51.0</ele><time>2026-04-12T07:11:26Z</time></trkpt><trkpt lat="44.97786761558075" lon="9.93437627506105"><ele>51.0</ele><time>2026-04-12T07:11:27Z</time></trkpt><trkpt lat="44.97778977560613" lon="9.934353144487087"><ele>51.0</ele><time>2026-04-12T07:11:28Z</time></trkpt><trkpt lat="44.97770988342088" lon="9.934329404067034"><ele>51.0</ele><time>2026-04-12T07:11:29Z</time></trkpt><trkpt lat="44.97763349348244" lon="9.934306704344566"><ele>51.0</ele><time>2026-04-12T07:11:30Z</time></trkpt><trkpt lat="44.97755609919791" lon="9.93428370621071"><ele>51.0</ele><time>2026-04-12T07:11:31Z</time></trkpt><trkpt lat="44.977480007021455" lon="9.934261094987976"><ele>51.5</ele><time>2026-04-12T07:11:32Z</time></trkpt><trkpt lat="44.97740130484512" lon="9.93426024936137"><ele>52.0</ele><time>2026-04-12T07:11:33Z</time></trkpt><trkpt lat="44.97732279389693" lon="9.934237064496548"><ele>52.5</ele><time>2026-04-12T07:11:34Z</time></trkpt><trkpt lat="44.97725100691989" lon="9.93419232180116"><ele>53.0</ele><time>2026-04-12T07:11:35Z</time></trkpt><trkpt lat="44.977169443905886" lon="9.93419142119851"><ele>53.5</ele><time>2026-04-12T07:11:36Z</time></trkpt><trkpt lat="44.977097740913635" lon="9.934145704335348"><ele>54.0</ele><time>2026-04-12T07:11:37Z</time></trkpt><trkpt lat="44.97702112065909" lon="9.934121874445923"><ele>54.166666666666664</ele><time>2026-04-12T07:11:38Z</time></trkpt><trkpt lat="44.976944546229106" lon="9.93409830375231"><ele>54.33333333333333</ele><time>2026-04-12T07:11:39Z</time></trkpt><trkpt lat="44.976867869704975" lon="9.934074701653943"><ele>54.5</ele><time>2026-04-12T07:11:40Z</time></trkpt><trkpt lat="44.97679205765198" lon="9.934051365620752"><ele>54.666666666666664</ele><time>2026-04-12T07:11:41Z</time></trkpt><trkpt lat="44.976716614607994" lon="9.934028143193764"><ele>54.83333333333333</ele><time>2026-04-12T07:11:42Z</time></trkpt><trkpt lat="44.976642168567615" lon="9.934005227649278"><ele>55.0</ele><time>2026-04-12T07:11:43Z</time></trkpt><trkpt lat="44.97656418540874" lon="9.9339812233335"><ele>54.99999999999999</ele><time>2026-04-12T07:11:44Z</time></trkpt><trkpt lat="44.97648828669875" lon="9.933957860646778"><ele>55.0</ele><time>2026-04-12T07:11:45Z</time></trkpt><trkpt lat="44.97641193154477" lon="9.933934357454795"><ele>55.0</ele><time>2026-04-12T07:11:46Z</time></trkpt><trkpt lat="44.976334323696534" lon="9.933910468670149"><ele>55.0</ele><time>2026-04-12T07:11:47Z</time></trkpt><trkpt lat="44.97625771838393" lon="9.933887063308065"><ele>54.99999999999999</ele><time>2026-04-12T07:11:48Z</time></trkpt><trkpt lat="44.97618241580031" lon="9.933864464297663"><ele>55.0</ele><time>2026-04-12T07:11:49Z</time></trkpt><trkpt lat="44.976104421083015" lon="9.933841057363253"><ele>54.99999999999999</ele><time>2026-04-12T07:11:50Z</time></trkpt><trkpt lat="44.97602974497624" lon="9.933818646351986"><ele>55.0</ele><time>2026-04-12T07:11:51Z</time></trkpt><trkpt lat="44.97595391322769" lon="9.93379588854308"><ele>55.0</ele><time>2026-04-12T07:11:52Z</time></trkpt><trkpt lat="44.975877674304364" lon="9.933773008530203"><ele>55.0</ele><time>2026-04-12T07:11:53Z</time></trkpt><trkpt lat="44.97580042583717" lon="9.933749825545565"><ele>54.99999999999999</ele><time>2026-04-12T07:11:54Z</time></trkpt><trkpt lat="44.97572462830305" lon="9.933727077990987"><ele>55.0</ele><time>2026-04-12T07:11:54.999Z</time></trkpt><trkpt lat="44.975647221220314" lon="9.933703847409118"><ele>54.666666666666664</ele><time>2026-04-12T07:11:55.999Z</time></trkpt><trkpt lat="44.97557058660334" lon="9.933680848639781"><ele>54.33333333333333</ele><time>2026-04-12T07:11:56.999Z</time></trkpt><trkpt lat="44.975492227820304" lon="9.933657332442941"><ele>54.0</ele><time>2026-04-12T07:11:57.999Z</time></trkpt><trkpt lat="44.97541537183237" lon="9.933634267235487"><ele>53.66666666666667</ele><time>2026-04-12T07:11:58.999Z</time></trkpt><trkpt lat="44.97533898267782" lon="9.933611342139548"><ele>53.333333333333336</ele><time>2026-04-12T07:11:59.999Z</time></trkpt><trkpt lat="44.975261756763885" lon="9.933588165922348"><ele>53.0</ele><time>2026-04-12T07:12:00.999Z</time></trkpt><trkpt lat="44.975180368861714" lon="9.933600224517479"><ele>53.00000000000001</ele><time>2026-04-12T07:12:01.999Z</time></trkpt><trkpt lat="44.97510478301765" lon="9.9335716565522"><ele>53.0</ele><time>2026-04-12T07:12:02.999Z</time></trkpt><trkpt lat="44.97502799982037" lon="9.933547643145852"><ele>53.0</ele><time>2026-04-12T07:12:03.999Z</time></trkpt><trkpt lat="44.97495147251858" lon="9.93352366436542"><ele>53.0</ele><time>2026-04-12T07:12:04.999Z</time></trkpt><trkpt lat="44.974874828502834" lon="9.93349966311138"><ele>53.00000000000001</ele><time>2026-04-12T07:12:05.999Z</time></trkpt><trkpt lat="44.97479974990188" lon="9.933478579145557"><ele>53.0</ele><time>2026-04-12T07:12:06.999Z</time></trkpt><trkpt lat="44.97472069203786" lon="9.933450623157519"><ele>53.00000000000001</ele><time>2026-04-12T07:12:07.999Z</time></trkpt><trkpt lat="44.97464523924379" lon="9.933428556141816"><ele>53.0</ele><time>2026-04-12T07:12:08.999Z</time></trkpt><trkpt lat="44.97456733599094" lon="9.933403780240342"><ele>53.0</ele><time>2026-04-12T07:12:09.999Z</time></trkpt><trkpt lat="44.97449223300533" lon="9.93337751925946"><ele>53.0</ele><time>2026-04-12T07:12:10.999Z</time></trkpt><trkpt lat="44.97441661097828" lon="9.933354558710995"><ele>53.00000000000001</ele><time>2026-04-12T07:12:11.999Z</time></trkpt><trkpt lat="44.97433860640088" lon="9.93332822107216"><ele>53.0</ele><time>2026-04-12T07:12:12.999Z</time></trkpt><trkpt lat="44.974263086442946" lon="9.933307372499042"><ele>53.333333333333336</ele><time>2026-04-12T07:12:13.999Z</time></trkpt><trkpt lat="44.97418627650676" lon="9.933284869566732"><ele>53.66666666666667</ele><time>2026-04-12T07:12:14.999Z</time></trkpt><trkpt lat="44.974109483888945" lon="9.933263850600326"><ele>54.0</ele><time>2026-04-12T07:12:15.999Z</time></trkpt><trkpt lat="44.97403178069588" lon="9.933240924238916"><ele>54.33333333333333</ele><time>2026-04-12T07:12:16.999Z</time></trkpt><trkpt lat="44.97395613292063" lon="9.93321752994894"><ele>54.666666666666664</ele><time>2026-04-12T07:12:17.999Z</time></trkpt><trkpt lat="44.97387870398657" lon="9.93319444676746"><ele>55.0</ele><time>2026-04-12T07:12:18.999Z</time></trkpt><trkpt lat="44.97380192265887" lon="9.93317064418483"><ele>54.99999999999999</ele><time>2026-04-12T07:12:19.999Z</time></trkpt><trkpt lat="44.97372410632257" lon="9.933145289871417"><ele>55.0</ele><time>2026-04-12T07:12:20.999Z</time></trkpt><trkpt lat="44.973645728870075" lon="9.93312061482448"><ele>55.0</ele><time>2026-04-12T07:12:21.999Z</time></trkpt><trkpt lat="44.97356721450998" lon="9.933096202247286"><ele>55.0</ele><time>2026-04-12T07:12:22.999Z</time></trkpt><trkpt lat="44.97349066902522" lon="9.933074345035381"><ele>54.99999999999999</ele><time>2026-04-12T07:12:23.999Z</time></trkpt><trkpt lat="44.973412309951755" lon="9.933051574298025"><ele>55.0</ele><time>2026-04-12T07:12:24.999Z</time></trkpt><trkpt lat="44.97333925343114" lon="9.93300730855208"><ele>54.99999999999999</ele><time>2026-04-12T07:12:25.999Z</time></trkpt><trkpt lat="44.97326042743604" lon="9.932984046243119"><ele>55.0</ele><time>2026-04-12T07:12:26.999Z</time></trkpt><trkpt lat="44.973180096206434" lon="9.932984103910254"><ele>55.0</ele><time>2026-04-12T07:12:27.999Z</time></trkpt><trkpt lat="44.97310187748171" lon="9.93295714737093"><ele>55.0</ele><time>2026-04-12T07:12:28.999Z</time></trkpt><trkpt lat="44.973025761120795" lon="9.932935022506067"><ele>54.99999999999999</ele><time>2026-04-12T07:12:29.999Z</time></trkpt><trkpt lat="44.972949040886625" lon="9.932911839157628"><ele>55.0</ele><time>2026-04-12T07:12:30.999Z</time></trkpt><trkpt lat="44.97287247874831" lon="9.932892493197569"><ele>54.99999999999999</ele><time>2026-04-12T07:12:31.999Z</time></trkpt><trkpt lat="44.972798728922086" lon="9.932846584351529"><ele>55.0</ele><time>2026-04-12T07:12:32.999Z</time></trkpt><trkpt lat="44.97272139740206" lon="9.932823400907411"><ele>55.0</ele><time>2026-04-12T07:12:33.999Z</time></trkpt><trkpt lat="44.972645465941014" lon="9.932800637188997"><ele>55.0</ele><time>2026-04-12T07:12:34.999Z</time></trkpt><trkpt lat="44.97256855045411" lon="9.932777585992936"><ele>54.99999999999999</ele><time>2026-04-12T07:12:35.999Z</time></trkpt><trkpt lat="44.972493714507486" lon="9.932755251137412"><ele>55.0</ele><time>2026-04-12T07:12:36.999Z</time></trkpt><trkpt lat="44.97241401297757" lon="9.932754711735173"><ele>55.166666666666664</ele><time>2026-04-12T07:12:37.999Z</time></trkpt><trkpt lat="44.97233812948423" lon="9.932732563125954"><ele>55.33333333333333</ele><time>2026-04-12T07:12:38.999Z</time></trkpt><trkpt lat="44.972266798320014" lon="9.932687527800597"><ele>55.5</ele><time>2026-04-12T07:12:39.999Z</time></trkpt><trkpt lat="44.97219173454385" lon="9.93266512494959"><ele>55.66666666666667</ele><time>2026-04-12T07:12:40.999Z</time></trkpt><trkpt lat="44.972116542946274" lon="9.932642683951048"><ele>55.833333333333336</ele><time>2026-04-12T07:12:41.999Z</time></trkpt><trkpt lat="44.9720383628201" lon="9.932619351022915"><ele>56.0</ele><time>2026-04-12T07:12:42.999Z</time></trkpt><trkpt lat="44.971962099636286" lon="9.932596590206566"><ele>56.00000000000001</ele><time>2026-04-12T07:12:43.999Z</time></trkpt><trkpt lat="44.971885053168805" lon="9.93257359562158"><ele>56.0</ele><time>2026-04-12T07:12:44.999Z</time></trkpt><trkpt lat="44.971808031178846" lon="9.932550608339543"><ele>56.0</ele><time>2026-04-12T07:12:45.999Z</time></trkpt><trkpt lat="44.97173068214267" lon="9.932527523449865"><ele>56.0</ele><time>2026-04-12T07:12:46.999Z</time></trkpt><trkpt lat="44.97165354710948" lon="9.932504502430366"><ele>56.00000000000001</ele><time>2026-04-12T07:12:47.998Z</time></trkpt><trkpt lat="44.9715766028563" lon="9.932481538350293"><ele>56.0</ele><time>2026-04-12T07:12:48.998Z</time></trkpt><trkpt lat="44.971498672592524" lon="9.932458279993853"><ele>55.66666666666667</ele><time>2026-04-12T07:12:49.998Z</time></trkpt><trkpt lat="44.97142085214831" lon="9.932435054411762"><ele>55.333333333333336</ele><time>2026-04-12T07:12:50.998Z</time></trkpt><trkpt lat="44.971342413661525" lon="9.932411644381807"><ele>55.0</ele><time>2026-04-12T07:12:51.998Z</time></trkpt><trkpt lat="44.97126473115424" lon="9.932387373283197"><ele>54.66666666666667</ele><time>2026-04-12T07:12:52.998Z</time></trkpt><trkpt lat="44.97118734268172" lon="9.932363399536007"><ele>54.333333333333336</ele><time>2026-04-12T07:12:53.998Z</time></trkpt><trkpt lat="44.97110947063002" lon="9.93233927598442"><ele>54.0</ele><time>2026-04-12T07:12:54.998Z</time></trkpt><trkpt lat="44.97103079572293" lon="9.932314903719977"><ele>54.0</ele><time>2026-04-12T07:12:55.998Z</time></trkpt><trkpt lat="44.9709529025013" lon="9.93229077361021"><ele>54.0</ele><time>2026-04-12T07:12:56.998Z</time></trkpt><trkpt lat="44.97087637213891" lon="9.932267065692551"><ele>54.0</ele><time>2026-04-12T07:12:57.998Z</time></trkpt><trkpt lat="44.970799994239805" lon="9.932243405005988"><ele>54.0</ele><time>2026-04-12T07:12:58.998Z</time></trkpt><trkpt lat="44.97072084425143" lon="9.932219705200485"><ele>54.0</ele><time>2026-04-12T07:12:59.998Z</time></trkpt><trkpt lat="44.97064400997699" lon="9.932197045058384"><ele>54.0</ele><time>2026-04-12T07:13:00.998Z</time></trkpt><trkpt lat="44.970565399410724" lon="9.932173861049755"><ele>54.0</ele><time>2026-04-12T07:13:01.998Z</time></trkpt><trkpt lat="44.97048925252514" lon="9.932151403634998"><ele>54.0</ele><time>2026-04-12T07:13:02.998Z</time></trkpt><trkpt lat="44.97041111142441" lon="9.932128358081867"><ele>54.0</ele><time>2026-04-12T07:13:03.998Z</time></trkpt><trkpt lat="44.97033443992078" lon="9.932105745945742"><ele>54.0</ele><time>2026-04-12T07:13:04.998Z</time></trkpt><trkpt lat="44.97025721347681" lon="9.932082970145464"><ele>54.0</ele><time>2026-04-12T07:13:05.998Z</time></trkpt><trkpt lat="44.970181288479154" lon="9.932060578169862"><ele>54.0</ele><time>2026-04-12T07:13:06.998Z</time></trkpt><trkpt lat="44.970104456412614" lon="9.932037918680031"><ele>54.0</ele><time>2026-04-12T07:13:07.998Z</time></trkpt><trkpt lat="44.970026564329736" lon="9.932014946567564"><ele>54.0</ele><time>2026-04-12T07:13:08.998Z</time></trkpt><trkpt lat="44.96995043916047" lon="9.93199249555784"><ele>54.0</ele><time>2026-04-12T07:13:09.998Z</time></trkpt><trkpt lat="44.969872434381024" lon="9.931969490208683"><ele>54.0</ele><time>2026-04-12T07:13:10.998Z</time></trkpt><trkpt lat="44.969795796899135" lon="9.93194573592044"><ele>54.0</ele><time>2026-04-12T07:13:11.998Z</time></trkpt><trkpt lat="44.96971413828982" lon="9.931943537780331"><ele>54.0</ele><time>2026-04-12T07:13:12.998Z</time></trkpt><trkpt lat="44.96964080946299" lon="9.931897337699617"><ele>54.333333333333336</ele><time>2026-04-12T07:13:13.998Z</time></trkpt><trkpt lat="44.96956371495518" lon="9.931873263251504"><ele>54.66666666666667</ele><time>2026-04-12T07:13:14.998Z</time></trkpt><trkpt lat="44.96948637172681" lon="9.931849111134925"><ele>55.0</ele><time>2026-04-12T07:13:15.998Z</time></trkpt><trkpt lat="44.96940857767762" lon="9.931825196704322"><ele>55.333333333333336</ele><time>2026-04-12T07:13:16.998Z</time></trkpt><trkpt lat="44.969331445979414" lon="9.931803032751283"><ele>55.66666666666667</ele><time>2026-04-12T07:13:17.998Z</time></trkpt><trkpt lat="44.96925327649331" lon="9.931780570587934"><ele>56.0</ele><time>2026-04-12T07:13:18.998Z</time></trkpt><trkpt lat="44.969177631022184" lon="9.93175883370483"><ele>56.16666666666667</ele><time>2026-04-12T07:13:19.998Z</time></trkpt><trkpt lat="44.9690953739152" lon="9.931764834466206"><ele>56.333333333333336</ele><time>2026-04-12T07:13:20.998Z</time></trkpt><trkpt lat="44.969022997435104" lon="9.931742031608124"><ele>56.5</ele><time>2026-04-12T07:13:21.998Z</time></trkpt><trkpt lat="44.968942082014124" lon="9.93171897375861"><ele>56.66666666666667</ele><time>2026-04-12T07:13:22.998Z</time></trkpt><trkpt lat="44.96886710479343" lon="9.93169775331546"><ele>56.833333333333336</ele><time>2026-04-12T07:13:23.998Z</time></trkpt><trkpt lat="44.9687904210037" lon="9.931673150131882"><ele>57.0</ele><time>2026-04-12T07:13:24.998Z</time></trkpt><trkpt lat="44.968714963363034" lon="9.931645940792684"><ele>57.0</ele><time>2026-04-12T07:13:25.998Z</time></trkpt><trkpt lat="44.96863995900607" lon="9.93161476402231"><ele>57.0</ele><time>2026-04-12T07:13:26.998Z</time></trkpt><trkpt lat="44.96856416654628" lon="9.931587382410498"><ele>57.0</ele><time>2026-04-12T07:13:27.998Z</time></trkpt><trkpt lat="44.96849214434651" lon="9.931551788014895"><ele>57.0</ele><time>2026-04-12T07:13:29Z</time></trkpt><trkpt lat="44.96841646639633" lon="9.931515687913613"><ele>57.0</ele><time>2026-04-12T07:13:30Z</time></trkpt><trkpt lat="44.968345401518874" lon="9.931481110993067"><ele>57.0</ele><time>2026-04-12T07:13:31Z</time></trkpt><trkpt lat="44.96827065870631" lon="9.931442902780931"><ele>57.666666666666664</ele><time>2026-04-12T07:13:32Z</time></trkpt><trkpt lat="44.96819538306185" lon="9.931406570324889"><ele>58.33333333333333</ele><time>2026-04-12T07:13:33Z</time></trkpt><trkpt lat="44.968121301594564" lon="9.931371629368277"><ele>59.0</ele><time>2026-04-12T07:13:34Z</time></trkpt><trkpt lat="44.96804556396706" lon="9.931332423648321"><ele>59.666666666666664</ele><time>2026-04-12T07:13:35Z</time></trkpt><trkpt lat="44.96797309738453" lon="9.931292930722044"><ele>60.33333333333333</ele><time>2026-04-12T07:13:36Z</time></trkpt><trkpt lat="44.96789687730765" lon="9.931255136930872"><ele>61.0</ele><time>2026-04-12T07:13:37Z</time></trkpt><trkpt lat="44.96782357808549" lon="9.931222159012636"><ele>60.99999999999999</ele><time>2026-04-12T07:13:38Z</time></trkpt><trkpt lat="44.96774831847687" lon="9.931183013534124"><ele>61.0</ele><time>2026-04-12T07:13:39Z</time></trkpt><trkpt lat="44.96767246133372" lon="9.931146848818715"><ele>61.0</ele><time>2026-04-12T07:13:40Z</time></trkpt><trkpt lat="44.967597488515224" lon="9.931107502153685"><ele>61.0</ele><time>2026-04-12T07:13:41Z</time></trkpt><trkpt lat="44.967523221191456" lon="9.93107044849601"><ele>60.99999999999999</ele><time>2026-04-12T07:13:42Z</time></trkpt><trkpt lat="44.96744866121133" lon="9.931032636959424"><ele>61.0</ele><time>2026-04-12T07:13:43Z</time></trkpt><trkpt lat="44.96737328531366" lon="9.930994580519986"><ele>60.83333333333333</ele><time>2026-04-12T07:13:44Z</time></trkpt><trkpt lat="44.96729869243092" lon="9.930956550510055"><ele>60.666666666666664</ele><time>2026-04-12T07:13:45Z</time></trkpt><trkpt lat="44.967225198280616" lon="9.93091740089015"><ele>60.5</ele><time>2026-04-12T07:13:46Z</time></trkpt><trkpt lat="44.96715126976147" lon="9.930879874491925"><ele>60.33333333333333</ele><time>2026-04-12T07:13:47Z</time></trkpt><trkpt lat="44.967078515168325" lon="9.930837608159363"><ele>60.166666666666664</ele><time>2026-04-12T07:13:48Z</time></trkpt><trkpt lat="44.96700559408421" lon="9.930792140690881"><ele>60.0</ele><time>2026-04-12T07:13:49Z</time></trkpt><trkpt lat="44.96693435996681" lon="9.930747666614137"><ele>60.166666666666664</ele><time>2026-04-12T07:13:50Z</time></trkpt><trkpt lat="44.96686175079126" lon="9.930697465069908"><ele>60.33333333333333</ele><time>2026-04-12T07:13:51Z</time></trkpt><trkpt lat="44.966799609860765" lon="9.930629357899164"><ele>60.5</ele><time>2026-04-12T07:13:52Z</time></trkpt><trkpt lat="44.966728417076204" lon="9.930579707818916"><ele>60.666666666666664</ele><time>2026-04-12T07:13:53Z</time></trkpt><trkpt lat="44.966657280266006" lon="9.930529007909795"><ele>60.83333333333333</ele><time>2026-04-12T07:13:54Z</time></trkpt><trkpt lat="44.96658510960218" lon="9.930477571141127"><ele>61.0</ele><time>2026-04-12T07:13:55Z</time></trkpt><trkpt lat="44.966514383279375" lon="9.930427163755484"><ele>60.99999999999999</ele><time>2026-04-12T07:13:56Z</time></trkpt><trkpt lat="44.96644267819152" lon="9.930376058854124"><ele>61.0</ele><time>2026-04-12T07:13:57Z</time></trkpt><trkpt lat="44.96636377041922" lon="9.930345887653491"><ele>61.0</ele><time>2026-04-12T07:13:58Z</time></trkpt><trkpt lat="44.96630122280756" lon="9.930275242173165"><ele>61.0</ele><time>2026-04-12T07:13:59Z</time></trkpt><trkpt lat="44.96623066256819" lon="9.93022495300668"><ele>60.99999999999999</ele><time>2026-04-12T07:13:59.999Z</time></trkpt><trkpt lat="44.96615985809027" lon="9.930174490055796"><ele>61.0</ele><time>2026-04-12T07:14:00.999Z</time></trkpt><trkpt lat="44.966090662601516" lon="9.93012517371408"><ele>60.99999999999999</ele><time>2026-04-12T07:14:01.999Z</time></trkpt><trkpt lat="44.96601983095995" lon="9.930074691200625"><ele>61.0</ele><time>2026-04-12T07:14:02.999Z</time></trkpt><trkpt lat="44.96595040441775" lon="9.930025210296563"><ele>61.0</ele><time>2026-04-12T07:14:03.999Z</time></trkpt><trkpt lat="44.96588031473492" lon="9.92997525656887"><ele>61.0</ele><time>2026-04-12T07:14:04.999Z</time></trkpt><trkpt lat="44.965810248641326" lon="9.92992594806119"><ele>60.99999999999999</ele><time>2026-04-12T07:14:05.999Z</time></trkpt><trkpt lat="44.96574059800746" lon="9.929877401190213"><ele>61.0</ele><time>2026-04-12T07:14:06.999Z</time></trkpt><trkpt lat="44.965669823053055" lon="9.929828070782891"><ele>60.83333333333333</ele><time>2026-04-12T07:14:07.999Z</time></trkpt><trkpt lat="44.965600957457" lon="9.929780071106721"><ele>60.666666666666664</ele><time>2026-04-12T07:14:08.999Z</time></trkpt><trkpt lat="44.96552944670375" lon="9.929730227790785"><ele>60.5</ele><time>2026-04-12T07:14:09.999Z</time></trkpt><trkpt lat="44.96546034357062" lon="9.929682062603431"><ele>60.33333333333333</ele><time>2026-04-12T07:14:10.999Z</time></trkpt><trkpt lat="44.96539067882153" lon="9.92963350595938"><ele>60.166666666666664</ele><time>2026-04-12T07:14:11.999Z</time></trkpt><trkpt lat="44.96532079918997" lon="9.929584799538523"><ele>60.0</ele><time>2026-04-12T07:14:12.999Z</time></trkpt><trkpt lat="44.96525134251377" lon="9.929536387959153"><ele>60.0</ele><time>2026-04-12T07:14:13.999Z</time></trkpt><trkpt lat="44.9651820261864" lon="9.929488074133616"><ele>60.0</ele><time>2026-04-12T07:14:14.999Z</time></trkpt><trkpt lat="44.965111154125594" lon="9.929438675950278"><ele>60.0</ele><time>2026-04-12T07:14:15.999Z</time></trkpt><trkpt lat="44.96504073806414" lon="9.92938959572595"><ele>60.0</ele><time>2026-04-12T07:14:16.999Z</time></trkpt><trkpt lat="44.96497215552659" lon="9.929341793450886"><ele>60.0</ele><time>2026-04-12T07:14:17.999Z</time></trkpt><trkpt lat="44.96490105691262" lon="9.92929223740345"><ele>60.0</ele><time>2026-04-12T07:14:18.999Z</time></trkpt><trkpt lat="44.96483236488824" lon="9.929244358613412"><ele>60.333333333333336</ele><time>2026-04-12T07:14:19.999Z</time></trkpt><trkpt lat="44.96476163606462" lon="9.929197350751876"><ele>60.66666666666667</ele><time>2026-04-12T07:14:20.999Z</time></trkpt><trkpt lat="44.96469409621759" lon="9.929150674907023"><ele>61.0</ele><time>2026-04-12T07:14:21.999Z</time></trkpt><trkpt lat="44.96462485001881" lon="9.929103882737287"><ele>61.333333333333336</ele><time>2026-04-12T07:14:22.999Z</time></trkpt><trkpt lat="44.96455640804098" lon="9.929055583047566"><ele>61.66666666666667</ele><time>2026-04-12T07:14:23.999Z</time></trkpt><trkpt lat="44.96449081940849" lon="9.929005351081198"><ele>62.0</ele><time>2026-04-12T07:14:24.999Z</time></trkpt><trkpt lat="44.964429360991026" lon="9.928949910397561"><ele>62.00000000000001</ele><time>2026-04-12T07:14:25.999Z</time></trkpt><trkpt lat="44.96437142789766" lon="9.928885486456327"><ele>62.0</ele><time>2026-04-12T07:14:26.999Z</time></trkpt><trkpt lat="44.96431116885589" lon="9.92881757827852"><ele>62.0</ele><time>2026-04-12T07:14:27.999Z</time></trkpt><trkpt lat="44.964274350944585" lon="9.928719558827922"><ele>62.0</ele><time>2026-04-12T07:14:28.999Z</time></trkpt><trkpt lat="44.9642421931597" lon="9.928617251605157"><ele>62.00000000000001</ele><time>2026-04-12T07:14:29.999Z</time></trkpt><trkpt lat="44.964214700113644" lon="9.928514952148927"><ele>62.0</ele><time>2026-04-12T07:14:30.999Z</time></trkpt><trkpt lat="44.96418406276081" lon="9.928410925347881"><ele>61.66666666666667</ele><time>2026-04-12T07:14:31.999Z</time></trkpt><trkpt lat="44.96414921673818" lon="9.928311557313902"><ele>61.333333333333336</ele><time>2026-04-12T07:14:32.999Z</time></trkpt><trkpt lat="44.964111283537484" lon="9.928213452268357"><ele>61.0</ele><time>2026-04-12T07:14:33.999Z</time></trkpt><trkpt lat="44.96406852538235" lon="9.928117323766186"><ele>60.66666666666667</ele><time>2026-04-12T07:14:34.999Z</time></trkpt><trkpt lat="44.9640180248929" lon="9.92803234979736"><ele>60.333333333333336</ele><time>2026-04-12T07:14:35.999Z</time></trkpt><trkpt lat="44.963957084983" lon="9.927956147261566"><ele>60.0</ele><time>2026-04-12T07:14:36.999Z</time></trkpt><trkpt lat="44.96389104337104" lon="9.927895433757655"><ele>60.0</ele><time>2026-04-12T07:14:37.999Z</time></trkpt><trkpt lat="44.963820618336136" lon="9.9278388249423"><ele>60.0</ele><time>2026-04-12T07:14:38.999Z</time></trkpt><trkpt lat="44.963750890183235" lon="9.927792512073701"><ele>60.0</ele><time>2026-04-12T07:14:39.999Z</time></trkpt><trkpt lat="44.96368027821085" lon="9.927742253391166"><ele>60.0</ele><time>2026-04-12T07:14:40.999Z</time></trkpt><trkpt lat="44.96361084536537" lon="9.927692961206361"><ele>60.0</ele><time>2026-04-12T07:14:41.999Z</time></trkpt><trkpt lat="44.96354365079125" lon="9.927642100417476"><ele>60.0</ele><time>2026-04-12T07:14:42.999Z</time></trkpt><trkpt lat="44.963475892406294" lon="9.927585963853986"><ele>60.0</ele><time>2026-04-12T07:14:43.999Z</time></trkpt><trkpt lat="44.96341108448847" lon="9.927526860373352"><ele>60.0</ele><time>2026-04-12T07:14:44.999Z</time></trkpt><trkpt lat="44.96334833197934" lon="9.927461154784135"><ele>60.0</ele><time>2026-04-12T07:14:45.999Z</time></trkpt><trkpt lat="44.96328876708631" lon="9.92739194978075"><ele>60.0</ele><time>2026-04-12T07:14:46.999Z</time></trkpt><trkpt lat="44.96322992897286" lon="9.927318839308544"><ele>60.0</ele><time>2026-04-12T07:14:47.999Z</time></trkpt><trkpt lat="44.96317151672556" lon="9.927247731691885"><ele>60.0</ele><time>2026-04-12T07:14:48.999Z</time></trkpt><trkpt lat="44.96311326712946" lon="9.927173415289248"><ele>59.833333333333336</ele><time>2026-04-12T07:14:49.999Z</time></trkpt><trkpt lat="44.96305604757492" lon="9.927098713259978"><ele>59.66666666666667</ele><time>2026-04-12T07:14:50.999Z</time></trkpt><trkpt lat="44.96300959508905" lon="9.927006802652542"><ele>59.5</ele><time>2026-04-12T07:14:51.999Z</time></trkpt><trkpt lat="44.962951976671924" lon="9.926931763150959"><ele>59.333333333333336</ele><time>2026-04-12T07:14:52.998Z</time></trkpt><trkpt lat="44.96289387447261" lon="9.926856093845714"><ele>59.16666666666667</ele><time>2026-04-12T07:14:53.998Z</time></trkpt><trkpt lat="44.96283564506323" lon="9.926780579261816"><ele>59.0</ele><time>2026-04-12T07:14:54.998Z</time></trkpt><trkpt lat="44.96277614474129" lon="9.926705190678593"><ele>58.833333333333336</ele><time>2026-04-12T07:14:55.998Z</time></trkpt><trkpt lat="44.96270958585421" lon="9.926648538354405"><ele>58.66666666666667</ele><time>2026-04-12T07:14:56.998Z</time></trkpt><trkpt lat="44.96265456856635" lon="9.92657328234897"><ele>58.5</ele><time>2026-04-12T07:14:57.998Z</time></trkpt><trkpt lat="44.9626051330793" lon="9.926487290254096"><ele>58.33333333333333</ele><time>2026-04-12T07:14:58.998Z</time></trkpt><trkpt lat="44.96259060301977" lon="9.92637839062222"><ele>58.166666666666664</ele><time>2026-04-12T07:14:59.998Z</time></trkpt><trkpt lat="44.962581326787316" lon="9.926272253564411"><ele>58.0</ele><time>2026-04-12T07:15:00.998Z</time></trkpt><trkpt lat="44.962592569709905" lon="9.926160001589476"><ele>57.99999999999999</ele><time>2026-04-12T07:15:01.998Z</time></trkpt><trkpt lat="44.962586232940275" lon="9.926048891773998"><ele>58.0</ele><time>2026-04-12T07:15:02.998Z</time></trkpt><trkpt lat="44.96256520618624" lon="9.925937052424246"><ele>58.0</ele><time>2026-04-12T07:15:03.998Z</time></trkpt><trkpt lat="44.962530610028466" lon="9.925828589377721"><ele>58.0</ele><time>2026-04-12T07:15:04.998Z</time></trkpt><trkpt lat="44.96249087290317" lon="9.92572824989659"><ele>57.99999999999999</ele><time>2026-04-12T07:15:05.998Z</time></trkpt><trkpt lat="44.96245129067862" lon="9.925628845949872"><ele>58.0</ele><time>2026-04-12T07:15:06.998Z</time></trkpt><trkpt lat="44.96240888342193" lon="9.925532937700149"><ele>58.33333333333333</ele><time>2026-04-12T07:15:07.998Z</time></trkpt><trkpt lat="44.96235378420785" lon="9.92544206006472"><ele>58.666666666666664</ele><time>2026-04-12T07:15:08.998Z</time></trkpt><trkpt lat="44.96229162322874" lon="9.925365783449163"><ele>59.0</ele><time>2026-04-12T07:15:09.998Z</time></trkpt><trkpt lat="44.9622231724792" lon="9.925297212529877"><ele>59.33333333333333</ele><time>2026-04-12T07:15:10.998Z</time></trkpt><trkpt lat="44.96215191472326" lon="9.925239653229434"><ele>59.666666666666664</ele><time>2026-04-12T07:15:11.998Z</time></trkpt><trkpt lat="44.96208081051049" lon="9.925185700724155"><ele>60.0</ele><time>2026-04-12T07:15:12.998Z</time></trkpt><trkpt lat="44.9620078476463" lon="9.925134614949883"><ele>60.0</ele><time>2026-04-12T07:15:13.998Z</time></trkpt><trkpt lat="44.96193498821082" lon="9.925085054661256"><ele>60.0</ele><time>2026-04-12T07:15:14.998Z</time></trkpt><trkpt lat="44.96184948053579" lon="9.925067286841264"><ele>60.0</ele><time>2026-04-12T07:15:15.998Z</time></trkpt><trkpt lat="44.96177526364935" lon="9.925019231267461"><ele>60.0</ele><time>2026-04-12T07:15:16.998Z</time></trkpt><trkpt lat="44.96170297433003" lon="9.924971950959426"><ele>60.0</ele><time>2026-04-12T07:15:17.998Z</time></trkpt><trkpt lat="44.96162901774721" lon="9.924925128184563"><ele>60.0</ele><time>2026-04-12T07:15:18.998Z</time></trkpt><trkpt lat="44.96155445132869" lon="9.924880846382976"><ele>60.333333333333336</ele><time>2026-04-12T07:15:19.998Z</time></trkpt><trkpt lat="44.96148247494097" lon="9.92483440194148"><ele>60.66666666666667</ele><time>2026-04-12T07:15:20.998Z</time></trkpt><trkpt lat="44.96141015692886" lon="9.924786082429751"><ele>61.0</ele><time>2026-04-12T07:15:21.998Z</time></trkpt><trkpt lat="44.96133819342194" lon="9.924737203585636"><ele>61.333333333333336</ele><time>2026-04-12T07:15:22.998Z</time></trkpt><trkpt lat="44.9612652939527" lon="9.92469306423963"><ele>61.66666666666667</ele><time>2026-04-12T07:15:23.998Z</time></trkpt><trkpt lat="44.961190969481656" lon="9.924648528416597"><ele>62.0</ele><time>2026-04-12T07:15:24.998Z</time></trkpt><trkpt lat="44.96112634885616" lon="9.92458058505439"><ele>62.00000000000001</ele><time>2026-04-12T07:15:25.998Z</time></trkpt><trkpt lat="44.96105282726209" lon="9.924535431551382"><ele>62.0</ele><time>2026-04-12T07:15:26.998Z</time></trkpt><trkpt lat="44.96098102882585" lon="9.92449133646659"><ele>62.0</ele><time>2026-04-12T07:15:27.998Z</time></trkpt><trkpt lat="44.96090735376357" lon="9.92444584162902"><ele>62.0</ele><time>2026-04-12T07:15:28.998Z</time></trkpt><trkpt lat="44.96083443389542" lon="9.924400681959446"><ele>62.00000000000001</ele><time>2026-04-12T07:15:29.998Z</time></trkpt><trkpt lat="44.96076005375988" lon="9.924354618028314"><ele>62.0</ele><time>2026-04-12T07:15:30.998Z</time></trkpt><trkpt lat="44.960688306703" lon="9.924310184700715"><ele>61.833333333333336</ele><time>2026-04-12T07:15:31.998Z</time></trkpt><trkpt lat="44.96061568516102" lon="9.924265209845935"><ele>61.66666666666667</ele><time>2026-04-12T07:15:32.998Z</time></trkpt><trkpt lat="44.96054333191159" lon="9.924220401121099"><ele>61.5</ele><time>2026-04-12T07:15:33.998Z</time></trkpt><trkpt lat="44.96047044809859" lon="9.924175263806527"><ele>61.33333333333333</ele><time>2026-04-12T07:15:35Z</time></trkpt><trkpt lat="44.96039136250753" lon="9.9241513350755"><ele>61.166666666666664</ele><time>2026-04-12T07:15:36Z</time></trkpt><trkpt lat="44.96032603174302" lon="9.924085826051577"><ele>61.0</ele><time>2026-04-12T07:15:37Z</time></trkpt><trkpt lat="44.96025322519138" lon="9.924040736587349"><ele>60.83333333333333</ele><time>2026-04-12T07:15:38Z</time></trkpt><trkpt lat="44.960180250640086" lon="9.923995543088902"><ele>60.666666666666664</ele><time>2026-04-12T07:15:39Z</time></trkpt><trkpt lat="44.960108764187055" lon="9.92395039217324"><ele>60.5</ele><time>2026-04-12T07:15:40Z</time></trkpt><trkpt lat="44.960036200111325" lon="9.923903481655973"><ele>60.33333333333333</ele><time>2026-04-12T07:15:41Z</time></trkpt><trkpt lat="44.95996417595825" lon="9.923856920217064"><ele>60.166666666666664</ele><time>2026-04-12T07:15:42Z</time></trkpt><trkpt lat="44.95989277378471" lon="9.923810760863287"><ele>60.0</ele><time>2026-04-12T07:15:43Z</time></trkpt><trkpt lat="44.959815632808635" lon="9.923784730996488"><ele>60.0</ele><time>2026-04-12T07:15:44Z</time></trkpt><trkpt lat="44.959743601024044" lon="9.923736604066992"><ele>60.0</ele><time>2026-04-12T07:15:45Z</time></trkpt><trkpt lat="44.9596729844861" lon="9.923690664128708"><ele>60.0</ele><time>2026-04-12T07:15:46Z</time></trkpt><trkpt lat="44.959602349040075" lon="9.923642160027695"><ele>60.0</ele><time>2026-04-12T07:15:47Z</time></trkpt><trkpt lat="44.95953220040125" lon="9.92359586782504"><ele>60.0</ele><time>2026-04-12T07:15:48Z</time></trkpt><trkpt lat="44.959462404454264" lon="9.923543914549537"><ele>60.0</ele><time>2026-04-12T07:15:49Z</time></trkpt><trkpt lat="44.959392109599506" lon="9.92349121807983"><ele>60.0</ele><time>2026-04-12T07:15:50Z</time></trkpt><trkpt lat="44.95933064104376" lon="9.923421122684916"><ele>60.0</ele><time>2026-04-12T07:15:51Z</time></trkpt><trkpt lat="44.959261675422624" lon="9.92336576020944"><ele>60.0</ele><time>2026-04-12T07:15:52Z</time></trkpt><trkpt lat="44.95919118796137" lon="9.923309176158787"><ele>60.0</ele><time>2026-04-12T07:15:53Z</time></trkpt><trkpt lat="44.95911447504692" lon="9.923273910503324"><ele>60.0</ele><time>2026-04-12T07:15:54Z</time></trkpt><trkpt lat="44.95905362537488" lon="9.923198747305074"><ele>60.0</ele><time>2026-04-12T07:15:55Z</time></trkpt><trkpt lat="44.958976663296454" lon="9.923161278163876"><ele>60.5</ele><time>2026-04-12T07:15:56Z</time></trkpt><trkpt lat="44.95890820359616" lon="9.923101923823518"><ele>61.0</ele><time>2026-04-12T07:15:57Z</time></trkpt><trkpt lat="44.95885114961956" lon="9.923022150829574"><ele>61.5</ele><time>2026-04-12T07:15:58Z</time></trkpt><trkpt lat="44.958785638138124" lon="9.922957061609008"><ele>62.0</ele><time>2026-04-12T07:15:59Z</time></trkpt><trkpt lat="44.95871140785036" lon="9.922911180124277"><ele>62.5</ele><time>2026-04-12T07:16:00Z</time></trkpt><trkpt lat="44.95864663668" lon="9.922844389120801"><ele>63.0</ele><time>2026-04-12T07:16:01Z</time></trkpt><trkpt lat="44.95858232206103" lon="9.922777187205847"><ele>63.0</ele><time>2026-04-12T07:16:02Z</time></trkpt><trkpt lat="44.95851692887629" lon="9.92270935912961"><ele>63.0</ele><time>2026-04-12T07:16:03Z</time></trkpt><trkpt lat="44.95845407111086" lon="9.922642137007903"><ele>63.0</ele><time>2026-04-12T07:16:03.999Z</time></trkpt><trkpt lat="44.95839174849224" lon="9.922571911638043"><ele>63.0</ele><time>2026-04-12T07:16:04.999Z</time></trkpt><trkpt lat="44.95832854921747" lon="9.922508631435916"><ele>63.0</ele><time>2026-04-12T07:16:05.999Z</time></trkpt><trkpt lat="44.958267377421045" lon="9.922446908598793"><ele>63.0</ele><time>2026-04-12T07:16:06.999Z</time></trkpt><trkpt lat="44.95821599101911" lon="9.922365630324945"><ele>62.833333333333336</ele><time>2026-04-12T07:16:07.999Z</time></trkpt><trkpt lat="44.95814600071201" lon="9.922323662858233"><ele>62.66666666666667</ele><time>2026-04-12T07:16:08.999Z</time></trkpt><trkpt lat="44.958085954920044" lon="9.922261563355704"><ele>62.5</ele><time>2026-04-12T07:16:09.999Z</time></trkpt><trkpt lat="44.95802366503529" lon="9.922202039580519"><ele>62.333333333333336</ele><time>2026-04-12T07:16:10.999Z</time></trkpt><trkpt lat="44.95795753157845" lon="9.922146064500646"><ele>62.16666666666667</ele><time>2026-04-12T07:16:11.999Z</time></trkpt><trkpt lat="44.95789017228231" lon="9.922091989722134"><ele>62.0</ele><time>2026-04-12T07:16:12.999Z</time></trkpt><trkpt lat="44.95782060115551" lon="9.922036158746707"><ele>62.00000000000001</ele><time>2026-04-12T07:16:13.999Z</time></trkpt><trkpt lat="44.95775036484218" lon="9.921982705199195"><ele>62.0</ele><time>2026-04-12T07:16:14.999Z</time></trkpt><trkpt lat="44.957677385746976" lon="9.921925552110691"><ele>62.0</ele><time>2026-04-12T07:16:15.999Z</time></trkpt><trkpt lat="44.95760366879027" lon="9.921869471373338"><ele>62.0</ele><time>2026-04-12T07:16:16.999Z</time></trkpt><trkpt lat="44.957532188751756" lon="9.92180710484259"><ele>62.00000000000001</ele><time>2026-04-12T07:16:17.999Z</time></trkpt><trkpt lat="44.957461088771744" lon="9.921739813173625"><ele>62.0</ele><time>2026-04-12T07:16:18.999Z</time></trkpt><trkpt lat="44.95739423765793" lon="9.92167728967304"><ele>62.42857142857143</ele><time>2026-04-12T07:16:19.999Z</time></trkpt><trkpt lat="44.95732634298795" lon="9.921610724550492"><ele>62.85714285714286</ele><time>2026-04-12T07:16:20.999Z</time></trkpt><trkpt lat="44.95726737922423" lon="9.921543943727496"><ele>63.28571428571429</ele><time>2026-04-12T07:16:21.999Z</time></trkpt><trkpt lat="44.9572039568436" lon="9.921488134031607"><ele>63.71428571428572</ele><time>2026-04-12T07:16:22.999Z</time></trkpt><trkpt lat="44.957152174770954" lon="9.921412537850355"><ele>64.14285714285714</ele><time>2026-04-12T07:16:23.999Z</time></trkpt><trkpt lat="44.95710562638556" lon="9.92134441039436"><ele>64.57142857142858</ele><time>2026-04-12T07:16:24.999Z</time></trkpt><trkpt lat="44.957061824690385" lon="9.921278452409911"><ele>65.0</ele><time>2026-04-12T07:16:25.999Z</time></trkpt><trkpt lat="44.95701778032991" lon="9.921210404525791"><ele>65.0</ele><time>2026-04-12T07:16:26.999Z</time></trkpt><trkpt lat="44.95693809939508" lon="9.921078810287922"><ele>65.0</ele><time>2026-04-12T07:16:28.999Z</time></trkpt><trkpt lat="44.95686021964421" lon="9.920954611293915"><ele>65.0</ele><time>2026-04-12T07:16:30.999Z</time></trkpt><trkpt lat="44.956777392565186" lon="9.920839421488536"><ele>65.0</ele><time>2026-04-12T07:16:32.999Z</time></trkpt><trkpt lat="44.95669208872257" lon="9.920730394621625"><ele>64.25</ele><time>2026-04-12T07:16:34.999Z</time></trkpt><trkpt lat="44.956603510416464" lon="9.920629233514278"><ele>63.5</ele><time>2026-04-12T07:16:36.999Z</time></trkpt><trkpt lat="44.95650655772902" lon="9.920543676461792"><ele>62.75</ele><time>2026-04-12T07:16:38.999Z</time></trkpt><trkpt lat="44.95640657339738" lon="9.9204585041245"><ele>62.0</ele><time>2026-04-12T07:16:40.999Z</time></trkpt><trkpt lat="44.95630095587962" lon="9.920369294686616"><ele>62.00000000000001</ele><time>2026-04-12T07:16:42.999Z</time></trkpt><trkpt lat="44.95619525263289" lon="9.920280075246772"><ele>62.0</ele><time>2026-04-12T07:16:44.999Z</time></trkpt><trkpt lat="44.956138864810356" lon="9.920235533756793"><ele>62.0</ele><time>2026-04-12T07:16:45.999Z</time></trkpt><trkpt lat="44.956081442350445" lon="9.920188673311351"><ele>62.0</ele><time>2026-04-12T07:16:46.999Z</time></trkpt><trkpt lat="44.956023483494114" lon="9.920138335267055"><ele>62.00000000000001</ele><time>2026-04-12T07:16:47.999Z</time></trkpt><trkpt lat="44.95596554311787" lon="9.920085842863314"><ele>62.0</ele><time>2026-04-12T07:16:48.999Z</time></trkpt><trkpt lat="44.955903530495235" lon="9.920029722337372"><ele>62.333333333333336</ele><time>2026-04-12T07:16:49.999Z</time></trkpt><trkpt lat="44.95583756016469" lon="9.919964500311513"><ele>62.66666666666667</ele><time>2026-04-12T07:16:50.999Z</time></trkpt><trkpt lat="44.955772299591494" lon="9.91989975667508"><ele>63.0</ele><time>2026-04-12T07:16:51.999Z</time></trkpt><trkpt lat="44.95570603182643" lon="9.919831489436138"><ele>63.33333333333333</ele><time>2026-04-12T07:16:52.999Z</time></trkpt><trkpt lat="44.955638425613635" lon="9.91975523839653"><ele>63.666666666666664</ele><time>2026-04-12T07:16:53.999Z</time></trkpt><trkpt lat="44.95557082403984" lon="9.919679284864607"><ele>64.0</ele><time>2026-04-12T07:16:54.999Z</time></trkpt><trkpt lat="44.955501487751235" lon="9.919601009991064"><ele>64.0</ele><time>2026-04-12T07:16:55.999Z</time></trkpt><trkpt lat="44.95543253501295" lon="9.919516320281318"><ele>64.0</ele><time>2026-04-12T07:16:56.998Z</time></trkpt><trkpt lat="44.955363263414675" lon="9.919429576000876"><ele>64.0</ele><time>2026-04-12T07:16:57.998Z</time></trkpt><trkpt lat="44.95529411834028" lon="9.919346821062138"><ele>64.0</ele><time>2026-04-12T07:16:58.998Z</time></trkpt><trkpt lat="44.95522690411885" lon="9.919256512326015"><ele>64.0</ele><time>2026-04-12T07:16:59.998Z</time></trkpt><trkpt lat="44.95516248824287" lon="9.919163785722704"><ele>64.16666666666666</ele><time>2026-04-12T07:17:00.998Z</time></trkpt><trkpt lat="44.95511663376358" lon="9.919053616280292"><ele>64.33333333333333</ele><time>2026-04-12T07:17:01.998Z</time></trkpt><trkpt lat="44.95504752149641" lon="9.91898011892354"><ele>64.5</ele><time>2026-04-12T07:17:02.998Z</time></trkpt><trkpt lat="44.95499279862129" lon="9.918894759820812"><ele>64.66666666666667</ele><time>2026-04-12T07:17:03.998Z</time></trkpt><trkpt lat="44.954938693167435" lon="9.918808504018047"><ele>64.83333333333334</ele><time>2026-04-12T07:17:04.998Z</time></trkpt><trkpt lat="44.95488305713606" lon="9.91872154740552"><ele>65.0</ele><time>2026-04-12T07:17:05.998Z</time></trkpt><trkpt lat="44.954826106364905" lon="9.918634115392047"><ele>65.0</ele><time>2026-04-12T07:17:06.998Z</time></trkpt><trkpt lat="44.95477314558654" lon="9.918548831952464"><ele>65.0</ele><time>2026-04-12T07:17:07.998Z</time></trkpt><trkpt lat="44.954720211184345" lon="9.918466240979066"><ele>65.0</ele><time>2026-04-12T07:17:08.998Z</time></trkpt><trkpt lat="44.95466597922042" lon="9.91838218280867"><ele>65.0</ele><time>2026-04-12T07:17:09.998Z</time></trkpt><trkpt lat="44.954611419675295" lon="9.918298722885064"><ele>65.0</ele><time>2026-04-12T07:17:10.998Z</time></trkpt><trkpt lat="44.95455905407249" lon="9.918216654843365"><ele>65.0</ele><time>2026-04-12T07:17:11.998Z</time></trkpt><trkpt lat="44.95450468275369" lon="9.918134840699473"><ele>65.16666666666667</ele><time>2026-04-12T07:17:12.998Z</time></trkpt><trkpt lat="44.95445174552048" lon="9.918052724856068"><ele>65.33333333333334</ele><time>2026-04-12T07:17:13.998Z</time></trkpt><trkpt lat="44.95440013872104" lon="9.917967687982136"><ele>65.5</ele><time>2026-04-12T07:17:14.998Z</time></trkpt><trkpt lat="44.954347254172546" lon="9.917886166434215"><ele>65.66666666666667</ele><time>2026-04-12T07:17:15.998Z</time></trkpt><trkpt lat="44.95429443373279" lon="9.917802228798777"><ele>65.83333333333333</ele><time>2026-04-12T07:17:16.998Z</time></trkpt><trkpt lat="44.95424313415436" lon="9.917723673129256"><ele>66.0</ele><time>2026-04-12T07:17:17.998Z</time></trkpt><trkpt lat="44.954191379547396" lon="9.917642577496265"><ele>65.66666666666667</ele><time>2026-04-12T07:17:18.998Z</time></trkpt><trkpt lat="44.954138400476054" lon="9.917563527171565"><ele>65.33333333333333</ele><time>2026-04-12T07:17:19.998Z</time></trkpt><trkpt lat="44.954087601514416" lon="9.917483102796204"><ele>65.0</ele><time>2026-04-12T07:17:20.998Z</time></trkpt><trkpt lat="44.954036306556795" lon="9.917403808364814"><ele>64.66666666666666</ele><time>2026-04-12T07:17:21.998Z</time></trkpt><trkpt lat="44.953986293035186" lon="9.91732349025973"><ele>64.33333333333333</ele><time>2026-04-12T07:17:22.998Z</time></trkpt><trkpt lat="44.95393704870251" lon="9.917240482102375"><ele>64.0</ele><time>2026-04-12T07:17:23.998Z</time></trkpt><trkpt lat="44.95388935301647" lon="9.917159578627754"><ele>63.99999999999999</ele><time>2026-04-12T07:17:24.998Z</time></trkpt><trkpt lat="44.95384127957775" lon="9.917073398434525"><ele>64.0</ele><time>2026-04-12T07:17:25.998Z</time></trkpt><trkpt lat="44.953794929774084" lon="9.916990167590344"><ele>64.0</ele><time>2026-04-12T07:17:26.998Z</time></trkpt><trkpt lat="44.95374612500623" lon="9.91690384185444"><ele>64.0</ele><time>2026-04-12T07:17:27.998Z</time></trkpt><trkpt lat="44.953695704018536" lon="9.9168196962525"><ele>63.99999999999999</ele><time>2026-04-12T07:17:28.998Z</time></trkpt><trkpt lat="44.9536438776144" lon="9.916732971423043"><ele>64.0</ele><time>2026-04-12T07:17:29.998Z</time></trkpt><trkpt lat="44.953591040578615" lon="9.916653901213689"><ele>63.99999999999999</ele><time>2026-04-12T07:17:30.998Z</time></trkpt><trkpt lat="44.95353793998684" lon="9.916574071207611"><ele>64.0</ele><time>2026-04-12T07:17:31.998Z</time></trkpt><trkpt lat="44.9534834911291" lon="9.91649596787966"><ele>64.0</ele><time>2026-04-12T07:17:32.998Z</time></trkpt><trkpt lat="44.95342700807306" lon="9.916414684785844"><ele>64.0</ele><time>2026-04-12T07:17:33.998Z</time></trkpt><trkpt lat="44.95337087548224" lon="9.916336758609983"><ele>63.99999999999999</ele><time>2026-04-12T07:17:34.998Z</time></trkpt><trkpt lat="44.95331534541073" lon="9.916257246282877"><ele>64.0</ele><time>2026-04-12T07:17:35.998Z</time></trkpt><trkpt lat="44.95326217987058" lon="9.916174872837866"><ele>64.5</ele><time>2026-04-12T07:17:36.998Z</time></trkpt><trkpt lat="44.95320946996012" lon="9.916094311748413"><ele>65.0</ele><time>2026-04-12T07:17:37.998Z</time></trkpt><trkpt lat="44.95315720733471" lon="9.916011976991575"><ele>65.5</ele><time>2026-04-12T07:17:38.998Z</time></trkpt><trkpt lat="44.953108080218136" lon="9.91592711972272"><ele>66.0</ele><time>2026-04-12T07:17:39.998Z</time></trkpt><trkpt lat="44.95306260194477" lon="9.91583690895416"><ele>66.5</ele><time>2026-04-12T07:17:41Z</time></trkpt><trkpt lat="44.95301863241441" lon="9.915747437852247"><ele>67.0</ele><time>2026-04-12T07:17:42Z</time></trkpt><trkpt lat="44.95297526361001" lon="9.915651955097223"><ele>67.0</ele><time>2026-04-12T07:17:43Z</time></trkpt><trkpt lat="44.95292818815256" lon="9.91555863602954"><ele>67.0</ele><time>2026-04-12T07:17:44Z</time></trkpt><trkpt lat="44.95288290196575" lon="9.915468162045912"><ele>67.0</ele><time>2026-04-12T07:17:45Z</time></trkpt><trkpt lat="44.952835401845476" lon="9.915379133583196"><ele>67.0</ele><time>2026-04-12T07:17:46Z</time></trkpt><trkpt lat="44.952787596362235" lon="9.915288754599693"><ele>67.0</ele><time>2026-04-12T07:17:47Z</time></trkpt><trkpt lat="44.95274063200311" lon="9.915201452496639"><ele>67.0</ele><time>2026-04-12T07:17:48Z</time></trkpt><trkpt lat="44.95268622818294" lon="9.915117890349038"><ele>67.0</ele><time>2026-04-12T07:17:49Z</time></trkpt><trkpt lat="44.952636118090915" lon="9.915032873109874"><ele>67.0</ele><time>2026-04-12T07:17:50Z</time></trkpt><trkpt lat="44.95258435473171" lon="9.914946699505098"><ele>67.0</ele><time>2026-04-12T07:17:51Z</time></trkpt><trkpt lat="44.952532289718626" lon="9.914866809374388"><ele>67.0</ele><time>2026-04-12T07:17:52Z</time></trkpt><trkpt lat="44.95247963586185" lon="9.91478340811757"><ele>67.0</ele><time>2026-04-12T07:17:53Z</time></trkpt><trkpt lat="44.95242705238508" lon="9.914699441941204"><ele>67.0</ele><time>2026-04-12T07:17:54Z</time></trkpt><trkpt lat="44.95237523028351" lon="9.914614449321846"><ele>67.0</ele><time>2026-04-12T07:17:55Z</time></trkpt><trkpt lat="44.95232388985265" lon="9.914529916606591"><ele>67.0</ele><time>2026-04-12T07:17:56Z</time></trkpt><trkpt lat="44.952272780915735" lon="9.914442472476452"><ele>67.0</ele><time>2026-04-12T07:17:57Z</time></trkpt><trkpt lat="44.95222057028392" lon="9.914358200484726"><ele>67.0</ele><time>2026-04-12T07:17:58Z</time></trkpt><trkpt lat="44.95216403440668" lon="9.914275439549122"><ele>67.0</ele><time>2026-04-12T07:17:59Z</time></trkpt><trkpt lat="44.95210436210566" lon="9.914201855687093"><ele>67.0</ele><time>2026-04-12T07:18:00Z</time></trkpt><trkpt lat="44.95204111267507" lon="9.914131021462367"><ele>67.0</ele><time>2026-04-12T07:18:01Z</time></trkpt><trkpt lat="44.951973477542445" lon="9.914073963483327"><ele>67.0</ele><time>2026-04-12T07:18:02Z</time></trkpt><trkpt lat="44.951904031779826" lon="9.914020063840475"><ele>67.0</ele><time>2026-04-12T07:18:03Z</time></trkpt><trkpt lat="44.95183140360168" lon="9.913973079163325"><ele>67.0</ele><time>2026-04-12T07:18:04Z</time></trkpt><trkpt lat="44.95175973969564" lon="9.913923322106081"><ele>67.0</ele><time>2026-04-12T07:18:05Z</time></trkpt><trkpt lat="44.95169642513524" lon="9.913848587832847"><ele>67.0</ele><time>2026-04-12T07:18:06Z</time></trkpt><trkpt lat="44.95162461972001" lon="9.913793752430436"><ele>67.0</ele><time>2026-04-12T07:18:06.999Z</time></trkpt><trkpt lat="44.95155466606025" lon="9.91374179613327"><ele>67.0</ele><time>2026-04-12T07:18:07.999Z</time></trkpt><trkpt lat="44.95148073904226" lon="9.913690918237817"><ele>67.0</ele><time>2026-04-12T07:18:08.999Z</time></trkpt><trkpt lat="44.95140189241459" lon="9.913664334486592"><ele>67.0</ele><time>2026-04-12T07:18:09.999Z</time></trkpt><trkpt lat="44.95132988565392" lon="9.913616242969846"><ele>67.0</ele><time>2026-04-12T07:18:10.999Z</time></trkpt><trkpt lat="44.95125663512581" lon="9.913569160992248"><ele>67.0</ele><time>2026-04-12T07:18:11.999Z</time></trkpt><trkpt lat="44.951184389613736" lon="9.913527703149406"><ele>67.0</ele><time>2026-04-12T07:18:12.999Z</time></trkpt><trkpt lat="44.95111206948347" lon="9.913485661119948"><ele>67.0</ele><time>2026-04-12T07:18:13.999Z</time></trkpt><trkpt lat="44.95103790579612" lon="9.913443095176719"><ele>67.0</ele><time>2026-04-12T07:18:14.999Z</time></trkpt><trkpt lat="44.950963080464724" lon="9.9134031044929"><ele>67.0</ele><time>2026-04-12T07:18:15.999Z</time></trkpt><trkpt lat="44.950895182148905" lon="9.91334090447767"><ele>67.0</ele><time>2026-04-12T07:18:16.999Z</time></trkpt><trkpt lat="44.95081518230706" lon="9.91332020806059"><ele>67.0</ele><time>2026-04-12T07:18:17.999Z</time></trkpt><trkpt lat="44.95074061254918" lon="9.9132803543071"><ele>67.16666666666666</ele><time>2026-04-12T07:18:18.999Z</time></trkpt><trkpt lat="44.950667603292864" lon="9.913239389496486"><ele>67.33333333333333</ele><time>2026-04-12T07:18:19.999Z</time></trkpt><trkpt lat="44.95059483474696" lon="9.913198666026323"><ele>67.5</ele><time>2026-04-12T07:18:20.999Z</time></trkpt><trkpt lat="44.95052262630983" lon="9.913154885191275"><ele>67.66666666666667</ele><time>2026-04-12T07:18:21.999Z</time></trkpt><trkpt lat="44.950450069656696" lon="9.913110766366469"><ele>67.83333333333334</ele><time>2026-04-12T07:18:22.999Z</time></trkpt><trkpt lat="44.950378519807636" lon="9.91307091868875"><ele>68.0</ele><time>2026-04-12T07:18:23.999Z</time></trkpt><trkpt lat="44.95030733008448" lon="9.913027715407406"><ele>68.0</ele><time>2026-04-12T07:18:24.999Z</time></trkpt><trkpt lat="44.95023737304929" lon="9.91297656021953"><ele>68.0</ele><time>2026-04-12T07:18:25.999Z</time></trkpt><trkpt lat="44.95016989938992" lon="9.912921848242176"><ele>68.0</ele><time>2026-04-12T07:18:26.999Z</time></trkpt><trkpt lat="44.950107929204655" lon="9.912853426595873"><ele>68.0</ele><time>2026-04-12T07:18:27.999Z</time></trkpt><trkpt lat="44.95005377934598" lon="9.912778109121088"><ele>68.0</ele><time>2026-04-12T07:18:28.999Z</time></trkpt><trkpt lat="44.949999655395885" lon="9.91269815744182"><ele>68.0</ele><time>2026-04-12T07:18:29.999Z</time></trkpt><trkpt lat="44.94995068349066" lon="9.912617701389683"><ele>68.16666666666667</ele><time>2026-04-12T07:18:30.999Z</time></trkpt><trkpt lat="44.949903182903945" lon="9.912530214186152"><ele>68.33333333333334</ele><time>2026-04-12T07:18:31.999Z</time></trkpt><trkpt lat="44.94985661519614" lon="9.91244663847412"><ele>68.5</ele><time>2026-04-12T07:18:32.999Z</time></trkpt><trkpt lat="44.94980931209734" lon="9.912359430467644"><ele>68.66666666666667</ele><time>2026-04-12T07:18:33.999Z</time></trkpt><trkpt lat="44.94976615223608" lon="9.91227117970579"><ele>68.83333333333333</ele><time>2026-04-12T07:18:34.999Z</time></trkpt><trkpt lat="44.94972777242307" lon="9.912175404024941"><ele>69.0</ele><time>2026-04-12T07:18:35.999Z</time></trkpt><trkpt lat="44.949692365931" lon="9.912076458496555"><ele>69.0</ele><time>2026-04-12T07:18:36.999Z</time></trkpt><trkpt lat="44.949657547395525" lon="9.911976427160393"><ele>69.0</ele><time>2026-04-12T07:18:37.999Z</time></trkpt><trkpt lat="44.94962241398896" lon="9.911877080271763"><ele>69.0</ele><time>2026-04-12T07:18:38.999Z</time></trkpt><trkpt lat="44.94958663514277" lon="9.911778979511299"><ele>69.0</ele><time>2026-04-12T07:18:39.999Z</time></trkpt><trkpt lat="44.94954852886803" lon="9.911682265848787"><ele>69.0</ele><time>2026-04-12T07:18:40.999Z</time></trkpt><trkpt lat="44.9495071532058" lon="9.911586637080546"><ele>69.0</ele><time>2026-04-12T07:18:41.999Z</time></trkpt><trkpt lat="44.949462420728246" lon="9.911496233500635"><ele>68.83333333333333</ele><time>2026-04-12T07:18:42.999Z</time></trkpt><trkpt lat="44.949416443127824" lon="9.911407367239784"><ele>68.66666666666667</ele><time>2026-04-12T07:18:43.999Z</time></trkpt><trkpt lat="44.9493680206273" lon="9.911320863237092"><ele>68.5</ele><time>2026-04-12T07:18:44.999Z</time></trkpt><trkpt lat="44.94931648623405" lon="9.911237282944384"><ele>68.33333333333334</ele><time>2026-04-12T07:18:45.999Z</time></trkpt><trkpt lat="44.949261319665474" lon="9.911157082784772"><ele>68.16666666666667</ele><time>2026-04-12T07:18:46.999Z</time></trkpt><trkpt lat="44.94920339691458" lon="9.911084036561968"><ele>68.0</ele><time>2026-04-12T07:18:47.999Z</time></trkpt><trkpt lat="44.94913963649347" lon="9.91101873360686"><ele>68.0</ele><time>2026-04-12T07:18:48.999Z</time></trkpt><trkpt lat="44.94906674960438" lon="9.91096991977035"><ele>68.0</ele><time>2026-04-12T07:18:49.999Z</time></trkpt><trkpt lat="44.94899905027797" lon="9.91091008780622"><ele>68.0</ele><time>2026-04-12T07:18:50.999Z</time></trkpt><trkpt lat="44.94891564506114" lon="9.910902013989913"><ele>68.0</ele><time>2026-04-12T07:18:51.999Z</time></trkpt><trkpt lat="44.94883814732988" lon="9.910885555921507"><ele>68.0</ele><time>2026-04-12T07:18:52.999Z</time></trkpt><trkpt lat="44.948758035148494" lon="9.9108734230483"><ele>68.0</ele><time>2026-04-12T07:18:53.999Z</time></trkpt><trkpt lat="44.9486790665611" lon="9.910869004011774"><ele>68.33333333333334</ele><time>2026-04-12T07:18:54.999Z</time></trkpt><trkpt lat="44.94860007832071" lon="9.910865609973662"><ele>68.66666666666667</ele><time>2026-04-12T07:18:55.999Z</time></trkpt><trkpt lat="44.9485211215287" lon="9.910862557946892"><ele>69.0</ele><time>2026-04-12T07:18:56.999Z</time></trkpt><trkpt lat="44.94844174290848" lon="9.91085887277373"><ele>69.33333333333333</ele><time>2026-04-12T07:18:57.999Z</time></trkpt><trkpt lat="44.948362493541566" lon="9.910854993241127"><ele>69.66666666666666</ele><time>2026-04-12T07:18:58.999Z</time></trkpt><trkpt lat="44.94828467093132" lon="9.91084629443001"><ele>70.0</ele><time>2026-04-12T07:18:59.999Z</time></trkpt><trkpt lat="44.94820578206003" lon="9.910833929274423"><ele>70.0</ele><time>2026-04-12T07:19:00.998Z</time></trkpt><trkpt lat="44.94812799987974" lon="9.91082787305289"><ele>70.0</ele><time>2026-04-12T07:19:01.998Z</time></trkpt><trkpt lat="44.948049181193056" lon="9.910818856522525"><ele>70.0</ele><time>2026-04-12T07:19:02.998Z</time></trkpt><trkpt lat="44.9479706303368" lon="9.910805622319913"><ele>70.0</ele><time>2026-04-12T07:19:03.998Z</time></trkpt><trkpt lat="44.94789362238625" lon="9.910789591876796"><ele>70.0</ele><time>2026-04-12T07:19:04.998Z</time></trkpt><trkpt lat="44.947816327424725" lon="9.91076822030337"><ele>70.0</ele><time>2026-04-12T07:19:05.998Z</time></trkpt><trkpt lat="44.94774517422709" lon="9.910719959103123"><ele>70.0</ele><time>2026-04-12T07:19:06.998Z</time></trkpt><trkpt lat="44.94767190755531" lon="9.910686035100797"><ele>70.0</ele><time>2026-04-12T07:19:07.998Z</time></trkpt><trkpt lat="44.94759724573284" lon="9.910648132955325"><ele>70.0</ele><time>2026-04-12T07:19:08.998Z</time></trkpt><trkpt lat="44.94752746038073" lon="9.9106062736687"><ele>70.0</ele><time>2026-04-12T07:19:09.998Z</time></trkpt><trkpt lat="44.947448147662705" lon="9.910581868592551"><ele>70.0</ele><time>2026-04-12T07:19:10.998Z</time></trkpt><trkpt lat="44.94737601914507" lon="9.910542625103195"><ele>70.0</ele><time>2026-04-12T07:19:11.998Z</time></trkpt><trkpt lat="44.94729873203168" lon="9.910516095405962"><ele>69.83333333333333</ele><time>2026-04-12T07:19:12.998Z</time></trkpt><trkpt lat="44.94721995747826" lon="9.91050084482621"><ele>69.66666666666666</ele><time>2026-04-12T07:19:13.998Z</time></trkpt><trkpt lat="44.947140795569375" lon="9.910492991641071"><ele>69.5</ele><time>2026-04-12T07:19:14.998Z</time></trkpt><trkpt lat="44.947061977493" lon="9.910488422577153"><ele>69.33333333333333</ele><time>2026-04-12T07:19:15.998Z</time></trkpt><trkpt lat="44.94698467272521" lon="9.91049174382405"><ele>69.16666666666667</ele><time>2026-04-12T07:19:16.998Z</time></trkpt><trkpt lat="44.946908471672735" lon="9.910508602366724"><ele>69.0</ele><time>2026-04-12T07:19:17.998Z</time></trkpt><trkpt lat="44.946834031408464" lon="9.910539740579036"><ele>69.0</ele><time>2026-04-12T07:19:18.998Z</time></trkpt><trkpt lat="44.946764036393915" lon="9.910594241377131"><ele>69.0</ele><time>2026-04-12T07:19:19.998Z</time></trkpt><trkpt lat="44.94670638943098" lon="9.910670848972037"><ele>69.0</ele><time>2026-04-12T07:19:20.998Z</time></trkpt><trkpt lat="44.94665734788309" lon="9.910760153211596"><ele>69.0</ele><time>2026-04-12T07:19:21.998Z</time></trkpt><trkpt lat="44.94662149856814" lon="9.910861106182765"><ele>69.0</ele><time>2026-04-12T07:19:22.998Z</time></trkpt><trkpt lat="44.946589750293036" lon="9.910960677381627"><ele>69.0</ele><time>2026-04-12T07:19:23.998Z</time></trkpt><trkpt lat="44.94655689962055" lon="9.911056783902852"><ele>69.16666666666667</ele><time>2026-04-12T07:19:24.998Z</time></trkpt><trkpt lat="44.946521994272985" lon="9.911151704544928"><ele>69.33333333333333</ele><time>2026-04-12T07:19:25.998Z</time></trkpt><trkpt lat="44.94648476474954" lon="9.911246526138584"><ele>69.5</ele><time>2026-04-12T07:19:26.998Z</time></trkpt><trkpt lat="44.946446693374696" lon="9.911339830779145"><ele>69.66666666666666</ele><time>2026-04-12T07:19:27.998Z</time></trkpt><trkpt lat="44.946407033243084" lon="9.911433651028014"><ele>69.83333333333333</ele><time>2026-04-12T07:19:28.998Z</time></trkpt><trkpt lat="44.94636227230587" lon="9.9115190139318"><ele>70.0</ele><time>2026-04-12T07:19:29.998Z</time></trkpt><trkpt lat="44.94630864654878" lon="9.911596563262806"><ele>70.0</ele><time>2026-04-12T07:19:30.998Z</time></trkpt><trkpt lat="44.946245946681906" lon="9.911659738450059"><ele>70.0</ele><time>2026-04-12T07:19:31.998Z</time></trkpt><trkpt lat="44.946172541691745" lon="9.91170367967601"><ele>70.0</ele><time>2026-04-12T07:19:32.998Z</time></trkpt><trkpt lat="44.946091990975425" lon="9.911689848740949"><ele>70.0</ele><time>2026-04-12T07:19:33.998Z</time></trkpt><trkpt lat="44.94601956314529" lon="9.911653881492132"><ele>70.0</ele><time>2026-04-12T07:19:34.998Z</time></trkpt><trkpt lat="44.945941435511024" lon="9.911630765826358"><ele>70.0</ele><time>2026-04-12T07:19:35.998Z</time></trkpt><trkpt lat="44.94586090290499" lon="9.911620804911797"><ele>69.83333333333333</ele><time>2026-04-12T07:19:36.998Z</time></trkpt><trkpt lat="44.94578517001888" lon="9.9115928798287"><ele>69.66666666666666</ele><time>2026-04-12T07:19:37.998Z</time></trkpt><trkpt lat="44.945707430989714" lon="9.911570069211622"><ele>69.5</ele><time>2026-04-12T07:19:38.998Z</time></trkpt><trkpt lat="44.94563249729999" lon="9.911548433596929"><ele>69.33333333333333</ele><time>2026-04-12T07:19:39.998Z</time></trkpt><trkpt lat="44.94555582869037" lon="9.911525623730858"><ele>69.16666666666667</ele><time>2026-04-12T07:19:40.998Z</time></trkpt><trkpt lat="44.945478215798225" lon="9.911506263795014"><ele>69.0</ele><time>2026-04-12T07:19:41.998Z</time></trkpt><trkpt lat="44.945401263893984" lon="9.911490557659716"><ele>69.0</ele><time>2026-04-12T07:19:42.998Z</time></trkpt><trkpt lat="44.94532412522554" lon="9.911480217250283"><ele>69.0</ele><time>2026-04-12T07:19:43.998Z</time></trkpt><trkpt lat="44.945248209986424" lon="9.911481976436681"><ele>69.0</ele><time>2026-04-12T07:19:44.998Z</time></trkpt><trkpt lat="44.94517066087942" lon="9.911492568197176"><ele>69.0</ele><time>2026-04-12T07:19:45.998Z</time></trkpt><trkpt lat="44.945093129104876" lon="9.911509022428477"><ele>69.0</ele><time>2026-04-12T07:19:47Z</time></trkpt><trkpt lat="44.945015868554655" lon="9.911528170971087"><ele>69.0</ele><time>2026-04-12T07:19:48Z</time></trkpt><trkpt lat="44.94493920773147" lon="9.91154263161289"><ele>69.33333333333333</ele><time>2026-04-12T07:19:49Z</time></trkpt><trkpt lat="44.944862337242036" lon="9.911555574206456"><ele>69.66666666666667</ele><time>2026-04-12T07:19:50Z</time></trkpt><trkpt lat="44.9447834291425" lon="9.911564253419074"><ele>70.0</ele><time>2026-04-12T07:19:51Z</time></trkpt><trkpt lat="44.944705654978435" lon="9.911572172427876"><ele>70.33333333333334</ele><time>2026-04-12T07:19:52Z</time></trkpt><trkpt lat="44.94462967758935" lon="9.911580487105002"><ele>70.66666666666667</ele><time>2026-04-12T07:19:53Z</time></trkpt><trkpt lat="44.944551358378014" lon="9.911583400157884"><ele>71.0</ele><time>2026-04-12T07:19:54Z</time></trkpt><trkpt lat="44.94447333996896" lon="9.911585700918048"><ele>71.0</ele><time>2026-04-12T07:19:55Z</time></trkpt><trkpt lat="44.94439656366043" lon="9.911589085015313"><ele>71.0</ele><time>2026-04-12T07:19:56Z</time></trkpt><trkpt lat="44.944319063579435" lon="9.911587474766183"><ele>71.0</ele><time>2026-04-12T07:19:57Z</time></trkpt><trkpt lat="44.94424292654799" lon="9.911574265882884"><ele>71.0</ele><time>2026-04-12T07:19:58Z</time></trkpt><trkpt lat="44.94416922159716" lon="9.911545215357673"><ele>71.0</ele><time>2026-04-12T07:19:59Z</time></trkpt><trkpt lat="44.944099167554036" lon="9.911505879352536"><ele>71.0</ele><time>2026-04-12T07:20:00Z</time></trkpt><trkpt lat="44.94403151525474" lon="9.91145776995148"><ele>71.0</ele><time>2026-04-12T07:20:01Z</time></trkpt><trkpt lat="44.94396428953365" lon="9.91140539833087"><ele>71.0</ele><time>2026-04-12T07:20:02Z</time></trkpt><trkpt lat="44.94389680208975" lon="9.911354395658368"><ele>71.0</ele><time>2026-04-12T07:20:03Z</time></trkpt><trkpt lat="44.94382958898676" lon="9.911299291570938"><ele>71.0</ele><time>2026-04-12T07:20:04Z</time></trkpt><trkpt lat="44.94376218628664" lon="9.911246913574454"><ele>71.0</ele><time>2026-04-12T07:20:05Z</time></trkpt><trkpt lat="44.94369320664997" lon="9.911195274405959"><ele>71.0</ele><time>2026-04-12T07:20:06Z</time></trkpt><trkpt lat="44.94362491071629" lon="9.911143843601014"><ele>71.0</ele><time>2026-04-12T07:20:07Z</time></trkpt><trkpt lat="44.943555279611225" lon="9.911091486829218"><ele>71.0</ele><time>2026-04-12T07:20:08Z</time></trkpt><trkpt lat="44.94348712323075" lon="9.911043758018623"><ele>71.0</ele><time>2026-04-12T07:20:09Z</time></trkpt><trkpt lat="44.94341728538402" lon="9.910995324322696"><ele>71.0</ele><time>2026-04-12T07:20:10Z</time></trkpt><trkpt lat="44.943348000833836" lon="9.91094404808898"><ele>71.0</ele><time>2026-04-12T07:20:11Z</time></trkpt><trkpt lat="44.943280674850186" lon="9.910893491238575"><ele>71.0</ele><time>2026-04-12T07:20:12Z</time></trkpt><trkpt lat="44.94321093630856" lon="9.910846820499026"><ele>70.5</ele><time>2026-04-12T07:20:12.999Z</time></trkpt><trkpt lat="44.943141116282376" lon="9.910800323174293"><ele>70.0</ele><time>2026-04-12T07:20:13.999Z</time></trkpt><trkpt lat="44.943072418798366" lon="9.910749733759468"><ele>69.5</ele><time>2026-04-12T07:20:14.999Z</time></trkpt><trkpt lat="44.94300323190906" lon="9.91070076919095"><ele>69.0</ele><time>2026-04-12T07:20:15.999Z</time></trkpt><trkpt lat="44.942932450658404" lon="9.91065261902693"><ele>68.5</ele><time>2026-04-12T07:20:16.999Z</time></trkpt><trkpt lat="44.94286119224944" lon="9.910606657852334"><ele>68.0</ele><time>2026-04-12T07:20:17.999Z</time></trkpt><trkpt lat="44.94278880861183" lon="9.910562882285737"><ele>68.0</ele><time>2026-04-12T07:20:18.999Z</time></trkpt><trkpt lat="44.942718604768196" lon="9.91051951558098"><ele>68.0</ele><time>2026-04-12T07:20:19.999Z</time></trkpt><trkpt lat="44.94264565571282" lon="9.910477545407183"><ele>68.0</ele><time>2026-04-12T07:20:20.999Z</time></trkpt><trkpt lat="44.942571691134056" lon="9.910447302392356"><ele>68.0</ele><time>2026-04-12T07:20:21.999Z</time></trkpt><trkpt lat="44.94249583508394" lon="9.910419710941106"><ele>68.0</ele><time>2026-04-12T07:20:22.999Z</time></trkpt><trkpt lat="44.94241954711863" lon="9.910394453014094"><ele>68.0</ele><time>2026-04-12T07:20:23.999Z</time></trkpt><trkpt lat="44.942341863182214" lon="9.910377743245839"><ele>68.33333333333334</ele><time>2026-04-12T07:20:24.999Z</time></trkpt><trkpt lat="44.94226414259099" lon="9.910365200809439"><ele>68.66666666666667</ele><time>2026-04-12T07:20:25.999Z</time></trkpt><trkpt lat="44.94218577817034" lon="9.910352271081027"><ele>69.0</ele><time>2026-04-12T07:20:26.999Z</time></trkpt><trkpt lat="44.94210714421893" lon="9.910338160065043"><ele>69.33333333333333</ele><time>2026-04-12T07:20:27.999Z</time></trkpt><trkpt lat="44.94202808862027" lon="9.910326822717918"><ele>69.66666666666666</ele><time>2026-04-12T07:20:28.999Z</time></trkpt><trkpt lat="44.941951048113076" lon="9.910317037211517"><ele>70.0</ele><time>2026-04-12T07:20:29.999Z</time></trkpt><trkpt lat="44.94187462763249" lon="9.910309603344315"><ele>70.0</ele><time>2026-04-12T07:20:30.999Z</time></trkpt><trkpt lat="44.94179581924823" lon="9.910304335029618"><ele>70.0</ele><time>2026-04-12T07:20:31.999Z</time></trkpt><trkpt lat="44.94171937191242" lon="9.910277668396656"><ele>70.0</ele><time>2026-04-12T07:20:32.999Z</time></trkpt><trkpt lat="44.94164103980821" lon="9.910298390253791"><ele>70.0</ele><time>2026-04-12T07:20:33.999Z</time></trkpt><trkpt lat="44.94156280400269" lon="9.910292843065571"><ele>70.0</ele><time>2026-04-12T07:20:34.999Z</time></trkpt><trkpt lat="44.941484757520634" lon="9.91029187273112"><ele>70.0</ele><time>2026-04-12T07:20:35.999Z</time></trkpt><trkpt lat="44.941406629415354" lon="9.91026925461254"><ele>69.83333333333333</ele><time>2026-04-12T07:20:36.999Z</time></trkpt><trkpt lat="44.941328109571785" lon="9.910268261006363"><ele>69.66666666666666</ele><time>2026-04-12T07:20:37.999Z</time></trkpt><trkpt lat="44.94125071825945" lon="9.910291805725764"><ele>69.5</ele><time>2026-04-12T07:20:38.999Z</time></trkpt><trkpt lat="44.94117350026401" lon="9.910294808440325"><ele>69.33333333333333</ele><time>2026-04-12T07:20:39.999Z</time></trkpt><trkpt lat="44.94109552104475" lon="9.910304223004417"><ele>69.16666666666667</ele><time>2026-04-12T07:20:40.999Z</time></trkpt><trkpt lat="44.94101508516775" lon="9.910293673601881"><ele>69.0</ele><time>2026-04-12T07:20:41.999Z</time></trkpt><trkpt lat="44.940938824727624" lon="9.910305723082098"><ele>69.33333333333333</ele><time>2026-04-12T07:20:42.999Z</time></trkpt><trkpt lat="44.940861146848825" lon="9.910317641083083"><ele>69.66666666666667</ele><time>2026-04-12T07:20:43.999Z</time></trkpt><trkpt lat="44.940782571774264" lon="9.910329511212316"><ele>70.0</ele><time>2026-04-12T07:20:44.999Z</time></trkpt><trkpt lat="44.94070575322032" lon="9.91034111598179"><ele>70.33333333333334</ele><time>2026-04-12T07:20:45.999Z</time></trkpt><trkpt lat="44.94062646054205" lon="9.910353094500538"><ele>70.66666666666667</ele><time>2026-04-12T07:20:46.999Z</time></trkpt><trkpt lat="44.940549627978044" lon="9.91036470140625"><ele>71.0</ele><time>2026-04-12T07:20:47.999Z</time></trkpt><trkpt lat="44.94047254316243" lon="9.910376346222943"><ele>71.0</ele><time>2026-04-12T07:20:48.999Z</time></trkpt><trkpt lat="44.940395894982125" lon="9.91040743273535"><ele>71.0</ele><time>2026-04-12T07:20:49.999Z</time></trkpt><trkpt lat="44.94031619708355" lon="9.910397479253117"><ele>71.0</ele><time>2026-04-12T07:20:50.999Z</time></trkpt><trkpt lat="44.94023842348876" lon="9.910408091104312"><ele>71.0</ele><time>2026-04-12T07:20:51.999Z</time></trkpt><trkpt lat="44.94016033085809" lon="9.910418746458378"><ele>71.0</ele><time>2026-04-12T07:20:52.999Z</time></trkpt><trkpt lat="44.94008414745619" lon="9.910429141321883"><ele>71.0</ele><time>2026-04-12T07:20:53.999Z</time></trkpt><trkpt lat="44.940006261381704" lon="9.910439768507478"><ele>71.33333333333334</ele><time>2026-04-12T07:20:54.999Z</time></trkpt><trkpt lat="44.93992741989293" lon="9.910449450217822"><ele>71.66666666666667</ele><time>2026-04-12T07:20:55.999Z</time></trkpt><trkpt lat="44.939850254825686" lon="9.91045697254707"><ele>72.0</ele><time>2026-04-12T07:20:56.999Z</time></trkpt><trkpt lat="44.93977226750375" lon="9.910463525614274"><ele>72.33333333333333</ele><time>2026-04-12T07:20:57.999Z</time></trkpt><trkpt lat="44.93969436992276" lon="9.910468144320689"><ele>72.66666666666666</ele><time>2026-04-12T07:20:58.999Z</time></trkpt><trkpt lat="44.939617025822066" lon="9.910469361008701"><ele>73.0</ele><time>2026-04-12T07:20:59.999Z</time></trkpt><trkpt lat="44.93953967127517" lon="9.910467535928372"><ele>73.0</ele><time>2026-04-12T07:21:00.999Z</time></trkpt><trkpt lat="44.939462487354184" lon="9.910459826225066"><ele>73.0</ele><time>2026-04-12T07:21:01.999Z</time></trkpt><trkpt lat="44.93938675111983" lon="9.910447930588568"><ele>73.0</ele><time>2026-04-12T07:21:02.999Z</time></trkpt><trkpt lat="44.939310776298484" lon="9.910428844754055"><ele>73.0</ele><time>2026-04-12T07:21:03.999Z</time></trkpt><trkpt lat="44.93923490472393" lon="9.910401447612141"><ele>73.0</ele><time>2026-04-12T07:21:04.999Z</time></trkpt><trkpt lat="44.93916160574763" lon="9.910371664576722"><ele>73.0</ele><time>2026-04-12T07:21:05.999Z</time></trkpt><trkpt lat="44.93908809508974" lon="9.910338614624616"><ele>73.0</ele><time>2026-04-12T07:21:06.998Z</time></trkpt><trkpt lat="44.939014890841314" lon="9.91030508386349"><ele>73.0</ele><time>2026-04-12T07:21:07.998Z</time></trkpt><trkpt lat="44.93894177491485" lon="9.91027159352589"><ele>73.0</ele><time>2026-04-12T07:21:08.998Z</time></trkpt><trkpt lat="44.93886735216382" lon="9.910237504649436"><ele>73.0</ele><time>2026-04-12T07:21:09.998Z</time></trkpt><trkpt lat="44.938792945770345" lon="9.910203423162324"><ele>73.0</ele><time>2026-04-12T07:21:10.998Z</time></trkpt><trkpt lat="44.93871848337503" lon="9.910171551873363"><ele>73.0</ele><time>2026-04-12T07:21:11.998Z</time></trkpt><trkpt lat="44.93864502663813" lon="9.910139942278619"><ele>73.0</ele><time>2026-04-12T07:21:12.998Z</time></trkpt><trkpt lat="44.938567760639536" lon="9.910112228185321"><ele>73.0</ele><time>2026-04-12T07:21:13.998Z</time></trkpt><trkpt lat="44.93849322786003" lon="9.91008741161598"><ele>73.0</ele><time>2026-04-12T07:21:14.998Z</time></trkpt><trkpt lat="44.93841414788677" lon="9.91008682914787"><ele>73.0</ele><time>2026-04-12T07:21:15.998Z</time></trkpt><trkpt lat="44.93833761768231" lon="9.910065390782302"><ele>73.0</ele><time>2026-04-12T07:21:16.998Z</time></trkpt><trkpt lat="44.93825987393476" lon="9.910049131976429"><ele>73.0</ele><time>2026-04-12T07:21:17.998Z</time></trkpt><trkpt lat="44.93818525473118" lon="9.910033344067221"><ele>73.0</ele><time>2026-04-12T07:21:18.998Z</time></trkpt><trkpt lat="44.93810902733353" lon="9.910015891504706"><ele>73.0</ele><time>2026-04-12T07:21:19.998Z</time></trkpt><trkpt lat="44.93803201416383" lon="9.909998588233675"><ele>73.0</ele><time>2026-04-12T07:21:20.998Z</time></trkpt><trkpt lat="44.93795963163883" lon="9.909958337481337"><ele>73.0</ele><time>2026-04-12T07:21:21.998Z</time></trkpt><trkpt lat="44.937885399510456" lon="9.90994110405546"><ele>73.0</ele><time>2026-04-12T07:21:22.998Z</time></trkpt><trkpt lat="44.937811110726855" lon="9.90992340634354"><ele>73.0</ele><time>2026-04-12T07:21:23.998Z</time></trkpt><trkpt lat="44.93773491782656" lon="9.909923626370764"><ele>73.0</ele><time>2026-04-12T07:21:24.998Z</time></trkpt><trkpt lat="44.93766300914301" lon="9.909897306556337"><ele>73.0</ele><time>2026-04-12T07:21:25.998Z</time></trkpt><trkpt lat="44.93759033513595" lon="9.909871523596673"><ele>73.0</ele><time>2026-04-12T07:21:26.998Z</time></trkpt><trkpt lat="44.93752177649507" lon="9.909845454905279"><ele>73.0</ele><time>2026-04-12T07:21:27.998Z</time></trkpt><trkpt lat="44.93745040339249" lon="9.909816406688186"><ele>73.0</ele><time>2026-04-12T07:21:28.998Z</time></trkpt><trkpt lat="44.93737973396616" lon="9.909796491462497"><ele>73.0</ele><time>2026-04-12T07:21:29.998Z</time></trkpt><trkpt lat="44.93731272480653" lon="9.909749569937519"><ele>73.0</ele><time>2026-04-12T07:21:30.998Z</time></trkpt><trkpt lat="44.937243380731935" lon="9.909723159334913"><ele>73.0</ele><time>2026-04-12T07:21:31.998Z</time></trkpt><trkpt lat="44.93717600796925" lon="9.909697499561942"><ele>73.0</ele><time>2026-04-12T07:21:32.998Z</time></trkpt><trkpt lat="44.93711127820271" lon="9.909672846357317"><ele>73.0</ele><time>2026-04-12T07:21:33.998Z</time></trkpt><trkpt lat="44.9370472697812" lon="9.90964846793029"><ele>73.0</ele><time>2026-04-12T07:21:34.998Z</time></trkpt><trkpt lat="44.93698130817469" lon="9.909624229942585"><ele>73.0</ele><time>2026-04-12T07:21:35.998Z</time></trkpt><trkpt lat="44.93691462575782" lon="9.90959985409076"><ele>73.0</ele><time>2026-04-12T07:21:36.998Z</time></trkpt><trkpt lat="44.93684698261408" lon="9.909575827382815"><ele>73.0</ele><time>2026-04-12T07:21:37.998Z</time></trkpt><trkpt lat="44.936778717970356" lon="9.909552441716896"><ele>73.14285714285714</ele><time>2026-04-12T07:21:38.998Z</time></trkpt><trkpt lat="44.93670811298036" lon="9.90953344600487"><ele>73.28571428571429</ele><time>2026-04-12T07:21:39.998Z</time></trkpt><trkpt lat="44.93663724608463" lon="9.90951651109105"><ele>73.42857142857143</ele><time>2026-04-12T07:21:40.998Z</time></trkpt><trkpt lat="44.93656256719894" lon="9.909524682967314"><ele>73.57142857142857</ele><time>2026-04-12T07:21:41.998Z</time></trkpt><trkpt lat="44.93649074299494" lon="9.909490735872819"><ele>73.71428571428571</ele><time>2026-04-12T07:21:42.998Z</time></trkpt><trkpt lat="44.9364195760419" lon="9.909485878209205"><ele>73.85714285714286</ele><time>2026-04-12T07:21:43.998Z</time></trkpt><trkpt lat="44.936344765816415" lon="9.909504878155785"><ele>74.0</ele><time>2026-04-12T07:21:44.998Z</time></trkpt><trkpt lat="44.93627243851186" lon="9.909497217692367"><ele>74.0</ele><time>2026-04-12T07:21:45.998Z</time></trkpt><trkpt lat="44.936202687475294" lon="9.90948791261948"><ele>74.0</ele><time>2026-04-12T07:21:46.998Z</time></trkpt><trkpt lat="44.93613253909532" lon="9.909482387397007"><ele>74.0</ele><time>2026-04-12T07:21:47.998Z</time></trkpt><trkpt lat="44.93606110717362" lon="9.90947780032805"><ele>74.0</ele><time>2026-04-12T07:21:48.998Z</time></trkpt><trkpt lat="44.93598728914098" lon="9.909471009654899"><ele>74.0</ele><time>2026-04-12T07:21:49.998Z</time></trkpt><trkpt lat="44.935914157022374" lon="9.909465247987914"><ele>74.0</ele><time>2026-04-12T07:21:50.998Z</time></trkpt><trkpt lat="44.9358408289844" lon="9.909460853478652"><ele>74.0</ele><time>2026-04-12T07:21:51.998Z</time></trkpt><trkpt lat="44.93576832708595" lon="9.909455319330528"><ele>74.0</ele><time>2026-04-12T07:21:53Z</time></trkpt><trkpt lat="44.93569602096955" lon="9.909444465636085"><ele>74.0</ele><time>2026-04-12T07:21:54Z</time></trkpt><trkpt lat="44.93562548867904" lon="9.909443533933059"><ele>74.0</ele><time>2026-04-12T07:21:55Z</time></trkpt><trkpt lat="44.93555158017407" lon="9.909436110335779"><ele>74.0</ele><time>2026-04-12T07:21:56Z</time></trkpt><trkpt lat="44.935480754530545" lon="9.909428747334482"><ele>74.0</ele><time>2026-04-12T07:21:57Z</time></trkpt><trkpt lat="44.93540905572986" lon="9.909421418632764"><ele>74.0</ele><time>2026-04-12T07:21:58Z</time></trkpt><trkpt lat="44.93533438852704" lon="9.909408654502577"><ele>74.0</ele><time>2026-04-12T07:21:59Z</time></trkpt><trkpt lat="44.93526255968398" lon="9.909392846767973"><ele>74.0</ele><time>2026-04-12T07:22:00Z</time></trkpt><trkpt lat="44.93519012788009" lon="9.909370202156602"><ele>74.0</ele><time>2026-04-12T07:22:01Z</time></trkpt><trkpt lat="44.935117696449474" lon="9.909346306367555"><ele>74.0</ele><time>2026-04-12T07:22:02Z</time></trkpt><trkpt lat="44.93504566571822" lon="9.909323656188114"><ele>74.0</ele><time>2026-04-12T07:22:03Z</time></trkpt><trkpt lat="44.93497364732978" lon="9.90930062650823"><ele>74.0</ele><time>2026-04-12T07:22:04Z</time></trkpt><trkpt lat="44.93489867345093" lon="9.90927444752305"><ele>74.0</ele><time>2026-04-12T07:22:05Z</time></trkpt><trkpt lat="44.934825320762" lon="9.909246287500007"><ele>74.0</ele><time>2026-04-12T07:22:06Z</time></trkpt><trkpt lat="44.93474876973286" lon="9.909216085461406"><ele>74.33333333333334</ele><time>2026-04-12T07:22:07Z</time></trkpt><trkpt lat="44.93466900981682" lon="9.90918904347162"><ele>74.66666666666667</ele><time>2026-04-12T07:22:08Z</time></trkpt><trkpt lat="44.934587583869124" lon="9.90916362472679"><ele>75.0</ele><time>2026-04-12T07:22:09Z</time></trkpt><trkpt lat="44.934504703245636" lon="9.909134368309864"><ele>75.33333333333333</ele><time>2026-04-12T07:22:10Z</time></trkpt><trkpt lat="44.934420389560835" lon="9.909105780220523"><ele>75.66666666666666</ele><time>2026-04-12T07:22:11Z</time></trkpt><trkpt lat="44.934334889913664" lon="9.909073178998563"><ele>76.0</ele><time>2026-04-12T07:22:12Z</time></trkpt><trkpt lat="44.9342496896466" lon="9.909039663329025"><ele>76.0</ele><time>2026-04-12T07:22:13Z</time></trkpt><trkpt lat="44.93416395965796" lon="9.909004964423904"><ele>76.0</ele><time>2026-04-12T07:22:14Z</time></trkpt><trkpt lat="44.934080350190065" lon="9.908963381555925"><ele>76.0</ele><time>2026-04-12T07:22:15Z</time></trkpt><trkpt lat="44.93400024273456" lon="9.908914259593432"><ele>76.0</ele><time>2026-04-12T07:22:16Z</time></trkpt><trkpt lat="44.93392219383642" lon="9.908858453656263"><ele>76.0</ele><time>2026-04-12T07:22:16.999Z</time></trkpt><trkpt lat="44.93384947206695" lon="9.908799346540473"><ele>76.0</ele><time>2026-04-12T07:22:17.999Z</time></trkpt><trkpt lat="44.93377786268454" lon="9.908738675329563"><ele>76.0</ele><time>2026-04-12T07:22:18.999Z</time></trkpt><trkpt lat="44.933710504872515" lon="9.908678375356962"><ele>76.0</ele><time>2026-04-12T07:22:19.999Z</time></trkpt><trkpt lat="44.93363914920309" lon="9.908625204009656"><ele>76.0</ele><time>2026-04-12T07:22:20.999Z</time></trkpt><trkpt lat="44.93357157777848" lon="9.908563508876437"><ele>76.0</ele><time>2026-04-12T07:22:21.999Z</time></trkpt><trkpt lat="44.93350415982296" lon="9.908499939295016"><ele>76.0</ele><time>2026-04-12T07:22:22.999Z</time></trkpt><trkpt lat="44.93343751060013" lon="9.908441946297122"><ele>76.0</ele><time>2026-04-12T07:22:23.999Z</time></trkpt><trkpt lat="44.933376401359965" lon="9.908389925049512"><ele>76.16666666666666</ele><time>2026-04-12T07:22:24.999Z</time></trkpt><trkpt lat="44.93331573730822" lon="9.90834328698859"><ele>76.33333333333333</ele><time>2026-04-12T07:22:25.999Z</time></trkpt><trkpt lat="44.93325932669075" lon="9.908291853708524"><ele>76.5</ele><time>2026-04-12T07:22:26.999Z</time></trkpt><trkpt lat="44.933203137285886" lon="9.90824413271066"><ele>76.66666666666667</ele><time>2026-04-12T07:22:27.999Z</time></trkpt><trkpt lat="44.93310104319857" lon="9.908148843920477"><ele>76.83333333333334</ele><time>2026-04-12T07:22:29.999Z</time></trkpt><trkpt lat="44.93299873348927" lon="9.908051361761515"><ele>77.0</ele><time>2026-04-12T07:22:31.999Z</time></trkpt><trkpt lat="44.9329002583336" lon="9.9079679028665"><ele>77.0</ele><time>2026-04-12T07:22:33.999Z</time></trkpt><trkpt lat="44.93280123864304" lon="9.907880488643885"><ele>77.0</ele><time>2026-04-12T07:22:35.999Z</time></trkpt><trkpt lat="44.93270368942143" lon="9.907793191625755"><ele>77.0</ele><time>2026-04-12T07:22:37.999Z</time></trkpt><trkpt lat="44.93259749685476" lon="9.907701551924427"><ele>77.0</ele><time>2026-04-12T07:22:39.999Z</time></trkpt><trkpt lat="44.93248852474913" lon="9.907599894892401"><ele>77.33333333333334</ele><time>2026-04-12T07:22:41.999Z</time></trkpt><trkpt lat="44.93243347427683" lon="9.907544907515462"><ele>77.66666666666667</ele><time>2026-04-12T07:22:42.999Z</time></trkpt><trkpt lat="44.93238149556953" lon="9.90748222742647"><ele>78.0</ele><time>2026-04-12T07:22:43.999Z</time></trkpt><trkpt lat="44.93230281208987" lon="9.907343849118485"><ele>78.33333333333333</ele><time>2026-04-12T07:22:45.999Z</time></trkpt><trkpt lat="44.932261053500035" lon="9.907271168628876"><ele>78.66666666666666</ele><time>2026-04-12T07:22:46.999Z</time></trkpt><trkpt lat="44.93221953761235" lon="9.90719814259803"><ele>79.0</ele><time>2026-04-12T07:22:47.999Z</time></trkpt><trkpt lat="44.93217605587312" lon="9.90712602083403"><ele>79.00000000000001</ele><time>2026-04-12T07:22:48.999Z</time></trkpt><trkpt lat="44.93213344879992" lon="9.90705273380569"><ele>79.0</ele><time>2026-04-12T07:22:49.999Z</time></trkpt><trkpt lat="44.9320938737445" lon="9.906976368428007"><ele>79.0</ele><time>2026-04-12T07:22:50.999Z</time></trkpt><trkpt lat="44.93205413769549" lon="9.906900109924113"><ele>79.0</ele><time>2026-04-12T07:22:51.999Z</time></trkpt><trkpt lat="44.932012670174785" lon="9.90682911667656"><ele>79.0</ele><time>2026-04-12T07:22:52.999Z</time></trkpt><trkpt lat="44.9319750325178" lon="9.90675753664527"><ele>79.00000000000001</ele><time>2026-04-12T07:22:53.999Z</time></trkpt><trkpt lat="44.93193552245415" lon="9.906684729950385"><ele>79.0</ele><time>2026-04-12T07:22:54.999Z</time></trkpt><trkpt lat="44.93189895741238" lon="9.90661005859577"><ele>79.0</ele><time>2026-04-12T07:22:55.999Z</time></trkpt><trkpt lat="44.93182671736648" lon="9.90647283627357"><ele>79.0</ele><time>2026-04-12T07:22:57.999Z</time></trkpt><trkpt lat="44.93176600525562" lon="9.90634772820617"><ele>79.0</ele><time>2026-04-12T07:22:59.999Z</time></trkpt><trkpt lat="44.93173743057546" lon="9.906251193057676"><ele>79.0</ele><time>2026-04-12T07:23:01.999Z</time></trkpt><trkpt lat="44.93178572092384" lon="9.906162908951448"><ele>79.0</ele><time>2026-04-12T07:23:03.999Z</time></trkpt><trkpt lat="44.93183710664637" lon="9.906046168703625"><ele>79.16666666666666</ele><time>2026-04-12T07:23:05.999Z</time></trkpt><trkpt lat="44.9319037601392" lon="9.905906693413165"><ele>79.33333333333333</ele><time>2026-04-12T07:23:07.999Z</time></trkpt><trkpt lat="44.931940785935176" lon="9.90583370608596"><ele>79.5</ele><time>2026-04-12T07:23:08.999Z</time></trkpt><trkpt lat="44.93198031301306" lon="9.905757870825294"><ele>79.66666666666667</ele><time>2026-04-12T07:23:09.999Z</time></trkpt><trkpt lat="44.932021093492416" lon="9.905680544925763"><ele>79.83333333333334</ele><time>2026-04-12T07:23:10.998Z</time></trkpt><trkpt lat="44.93206371277462" lon="9.905601381893868"><ele>80.0</ele><time>2026-04-12T07:23:11.998Z</time></trkpt><trkpt lat="44.932106388196175" lon="9.90552408751939"><ele>80.0</ele><time>2026-04-12T07:23:12.998Z</time></trkpt><trkpt lat="44.932152171134256" lon="9.905444748135098"><ele>80.0</ele><time>2026-04-12T07:23:13.998Z</time></trkpt><trkpt lat="44.93219248642326" lon="9.90536612303328"><ele>80.0</ele><time>2026-04-12T07:23:14.998Z</time></trkpt><trkpt lat="44.93223878154025" lon="9.905291178657862"><ele>80.0</ele><time>2026-04-12T07:23:15.998Z</time></trkpt><trkpt lat="44.93228116386479" lon="9.905215454778137"><ele>80.0</ele><time>2026-04-12T07:23:16.998Z</time></trkpt><trkpt lat="44.93232475833703" lon="9.905141293355355"><ele>80.0</ele><time>2026-04-12T07:23:17.998Z</time></trkpt><trkpt lat="44.93236753323474" lon="9.905069362557594"><ele>80.0</ele><time>2026-04-12T07:23:18.998Z</time></trkpt><trkpt lat="44.93240879828034" lon="9.904998211922234"><ele>79.8</ele><time>2026-04-12T07:23:19.998Z</time></trkpt><trkpt lat="44.932449433546026" lon="9.90492787648884"><ele>79.6</ele><time>2026-04-12T07:23:20.998Z</time></trkpt><trkpt lat="44.93249126871124" lon="9.904857788878763"><ele>79.4</ele><time>2026-04-12T07:23:21.998Z</time></trkpt><trkpt lat="44.932555416812704" lon="9.904706502029612"><ele>79.2</ele><time>2026-04-12T07:23:23.998Z</time></trkpt><trkpt lat="44.93263181754251" lon="9.904607632194013"><ele>79.0</ele><time>2026-04-12T07:23:25.998Z</time></trkpt><trkpt lat="44.93249003045938" lon="9.904386807858208"><ele>79.0</ele><time>2026-04-12T07:23:27.998Z</time></trkpt><trkpt lat="44.932430400438726" lon="9.904342035432053"><ele>79.0</ele><time>2026-04-12T07:23:28.998Z</time></trkpt><trkpt lat="44.93231392970903" lon="9.904264708952654"><ele>79.0</ele><time>2026-04-12T07:23:30.998Z</time></trkpt><trkpt lat="44.93225614463352" lon="9.904218943032653"><ele>79.0</ele><time>2026-04-12T07:23:31.998Z</time></trkpt><trkpt lat="44.932201193205834" lon="9.904173192121172"><ele>79.0</ele><time>2026-04-12T07:23:32.998Z</time></trkpt><trkpt lat="44.93214097324372" lon="9.904122892418428"><ele>79.0</ele><time>2026-04-12T07:23:33.998Z</time></trkpt><trkpt lat="44.93208435251604" lon="9.904073166909498"><ele>79.00000000000001</ele><time>2026-04-12T07:23:34.998Z</time></trkpt><trkpt lat="44.932022981446984" lon="9.904023395937376"><ele>79.0</ele><time>2026-04-12T07:23:35.998Z</time></trkpt><trkpt lat="44.93196490973441" lon="9.903970807897124"><ele>79.0</ele><time>2026-04-12T07:23:36.998Z</time></trkpt><trkpt lat="44.931903405935905" lon="9.903915253394933"><ele>79.0</ele><time>2026-04-12T07:23:37.998Z</time></trkpt><trkpt lat="44.93184353824828" lon="9.903863435894838"><ele>79.0</ele><time>2026-04-12T07:23:38.998Z</time></trkpt><trkpt lat="44.93178318506901" lon="9.903810688960348"><ele>79.00000000000001</ele><time>2026-04-12T07:23:39.998Z</time></trkpt><trkpt lat="44.93172399146127" lon="9.903757500118193"><ele>79.0</ele><time>2026-04-12T07:23:40.998Z</time></trkpt><trkpt lat="44.9316658843086" lon="9.903700095010162"><ele>79.14285714285715</ele><time>2026-04-12T07:23:41.998Z</time></trkpt><trkpt lat="44.93160794444868" lon="9.90363932040957"><ele>79.28571428571429</ele><time>2026-04-12T07:23:42.998Z</time></trkpt><trkpt lat="44.93155013874852" lon="9.903585020150969"><ele>79.42857142857143</ele><time>2026-04-12T07:23:43.998Z</time></trkpt><trkpt lat="44.93149232275728" lon="9.903532701515422"><ele>79.57142857142858</ele><time>2026-04-12T07:23:44.998Z</time></trkpt><trkpt lat="44.931435665776064" lon="9.903484356204505"><ele>79.71428571428572</ele><time>2026-04-12T07:23:45.998Z</time></trkpt><trkpt lat="44.931373909761064" lon="9.903436514162319"><ele>79.85714285714286</ele><time>2026-04-12T07:23:46.998Z</time></trkpt><trkpt lat="44.93131247707305" lon="9.903390148022256"><ele>80.0</ele><time>2026-04-12T07:23:47.998Z</time></trkpt><trkpt lat="44.931252222647885" lon="9.903337124726358"><ele>80.0</ele><time>2026-04-12T07:23:48.998Z</time></trkpt><trkpt lat="44.93118930451585" lon="9.903281479347196"><ele>80.0</ele><time>2026-04-12T07:23:49.998Z</time></trkpt><trkpt lat="44.93112742516306" lon="9.903223189304208"><ele>80.0</ele><time>2026-04-12T07:23:50.998Z</time></trkpt><trkpt lat="44.931062639825456" lon="9.903170933241244"><ele>80.0</ele><time>2026-04-12T07:23:51.998Z</time></trkpt><trkpt lat="44.93099477900396" lon="9.903126331656084"><ele>80.0</ele><time>2026-04-12T07:23:52.998Z</time></trkpt><trkpt lat="44.930925945094536" lon="9.903087429374953"><ele>80.0</ele><time>2026-04-12T07:23:53.998Z</time></trkpt><trkpt lat="44.93085611132866" lon="9.903050225180836"><ele>80.0</ele><time>2026-04-12T07:23:54.998Z</time></trkpt><trkpt lat="44.93078670564939" lon="9.903014301978487"><ele>79.85714285714286</ele><time>2026-04-12T07:23:55.998Z</time></trkpt><trkpt lat="44.930717146752635" lon="9.902978473881932"><ele>79.71428571428572</ele><time>2026-04-12T07:23:56.998Z</time></trkpt><trkpt lat="44.93064490435005" lon="9.902949418247221"><ele>79.57142857142858</ele><time>2026-04-12T07:23:57.998Z</time></trkpt><trkpt lat="44.93057552504023" lon="9.902921174074228"><ele>79.42857142857143</ele><time>2026-04-12T07:23:59Z</time></trkpt><trkpt lat="44.93050455884896" lon="9.90289005422404"><ele>79.28571428571429</ele><time>2026-04-12T07:24:00Z</time></trkpt><trkpt lat="44.93043581047123" lon="9.902860420496708"><ele>79.14285714285715</ele><time>2026-04-12T07:24:01Z</time></trkpt><trkpt lat="44.93036299232726" lon="9.902833996542196"><ele>79.0</ele><time>2026-04-12T07:24:02Z</time></trkpt><trkpt lat="44.93029319050441" lon="9.902808522308584"><ele>79.00000000000001</ele><time>2026-04-12T07:24:03Z</time></trkpt><trkpt lat="44.93022092774148" lon="9.902790401156322"><ele>79.0</ele><time>2026-04-12T07:24:04Z</time></trkpt><trkpt lat="44.930149582367335" lon="9.902768853917719"><ele>79.0</ele><time>2026-04-12T07:24:05Z</time></trkpt><trkpt lat="44.93007758074859" lon="9.902741898139483"><ele>79.0</ele><time>2026-04-12T07:24:06Z</time></trkpt><trkpt lat="44.930005514008286" lon="9.902714718333293"><ele>79.0</ele><time>2026-04-12T07:24:07Z</time></trkpt><trkpt lat="44.92993238413028" lon="9.902691549242133"><ele>79.00000000000001</ele><time>2026-04-12T07:24:08Z</time></trkpt><trkpt lat="44.92986154320505" lon="9.902666186977857"><ele>79.0</ele><time>2026-04-12T07:24:09Z</time></trkpt><trkpt lat="44.92979008958144" lon="9.902641644651126"><ele>78.71428571428572</ele><time>2026-04-12T07:24:10Z</time></trkpt><trkpt lat="44.92971883375641" lon="9.902615292177497"><ele>78.42857142857143</ele><time>2026-04-12T07:24:11Z</time></trkpt><trkpt lat="44.92964735712359" lon="9.902590928177768"><ele>78.14285714285714</ele><time>2026-04-12T07:24:12Z</time></trkpt><trkpt lat="44.92957815350689" lon="9.902567809864573"><ele>77.85714285714286</ele><time>2026-04-12T07:24:13Z</time></trkpt><trkpt lat="44.929507525729676" lon="9.902546203037074"><ele>77.57142857142857</ele><time>2026-04-12T07:24:14Z</time></trkpt><trkpt lat="44.92943920088063" lon="9.902520649624387"><ele>77.28571428571429</ele><time>2026-04-12T07:24:15Z</time></trkpt><trkpt lat="44.92937152640902" lon="9.90250021654006"><ele>77.0</ele><time>2026-04-12T07:24:16Z</time></trkpt><trkpt lat="44.92930176868326" lon="9.902469352996233"><ele>77.0</ele><time>2026-04-12T07:24:17Z</time></trkpt><trkpt lat="44.92923754130417" lon="9.902436914354556"><ele>77.0</ele><time>2026-04-12T07:24:18Z</time></trkpt><trkpt lat="44.929175700172415" lon="9.902389376365884"><ele>77.0</ele><time>2026-04-12T07:24:19Z</time></trkpt><trkpt lat="44.92912384398736" lon="9.902324760804946"><ele>77.0</ele><time>2026-04-12T07:24:20Z</time></trkpt><trkpt lat="44.92908849719178" lon="9.902243523029508"><ele>77.0</ele><time>2026-04-12T07:24:20.999Z</time></trkpt><trkpt lat="44.92908578080076" lon="9.902132840543729"><ele>77.0</ele><time>2026-04-12T07:24:21.999Z</time></trkpt><trkpt lat="44.92910592018758" lon="9.90202728960271"><ele>77.0</ele><time>2026-04-12T07:24:22.999Z</time></trkpt><trkpt lat="44.92913632014433" lon="9.901925738566158"><ele>76.83333333333334</ele><time>2026-04-12T07:24:23.999Z</time></trkpt><trkpt lat="44.9291690691869" lon="9.901828648349985"><ele>76.66666666666667</ele><time>2026-04-12T07:24:24.999Z</time></trkpt><trkpt lat="44.929194691672976" lon="9.901729427321788"><ele>76.5</ele><time>2026-04-12T07:24:25.999Z</time></trkpt><trkpt lat="44.929214767776" lon="9.901622572611577"><ele>76.33333333333333</ele><time>2026-04-12T07:24:26.999Z</time></trkpt><trkpt lat="44.929236457208376" lon="9.901518279804062"><ele>76.16666666666666</ele><time>2026-04-12T07:24:27.999Z</time></trkpt><trkpt lat="44.92925697509914" lon="9.901415826287561"><ele>76.0</ele><time>2026-04-12T07:24:28.999Z</time></trkpt><trkpt lat="44.92928008482187" lon="9.901311755580743"><ele>76.0</ele><time>2026-04-12T07:24:29.999Z</time></trkpt><trkpt lat="44.92930483790935" lon="9.901209552597688"><ele>76.0</ele><time>2026-04-12T07:24:30.999Z</time></trkpt><trkpt lat="44.92932669392867" lon="9.901105093962581"><ele>76.0</ele><time>2026-04-12T07:24:31.999Z</time></trkpt><trkpt lat="44.92935291523211" lon="9.901000671912177"><ele>76.0</ele><time>2026-04-12T07:24:32.999Z</time></trkpt><trkpt lat="44.92937799141582" lon="9.900892996223911"><ele>76.0</ele><time>2026-04-12T07:24:33.999Z</time></trkpt><trkpt lat="44.929402932558425" lon="9.900784595763255"><ele>76.0</ele><time>2026-04-12T07:24:34.999Z</time></trkpt><trkpt lat="44.92942914476693" lon="9.90067825523067"><ele>76.5</ele><time>2026-04-12T07:24:35.999Z</time></trkpt><trkpt lat="44.9294535338473" lon="9.900571257528243"><ele>77.0</ele><time>2026-04-12T07:24:36.999Z</time></trkpt><trkpt lat="44.929477831086686" lon="9.900463024968657"><ele>77.5</ele><time>2026-04-12T07:24:37.999Z</time></trkpt><trkpt lat="44.929502370847956" lon="9.900356727314325"><ele>78.0</ele><time>2026-04-12T07:24:38.999Z</time></trkpt><trkpt lat="44.92952385717754" lon="9.900244607431135"><ele>78.5</ele><time>2026-04-12T07:24:39.999Z</time></trkpt><trkpt lat="44.92954791277294" lon="9.90013529318599"><ele>79.0</ele><time>2026-04-12T07:24:40.999Z</time></trkpt><trkpt lat="44.92957115411726" lon="9.900026815347527"><ele>79.0</ele><time>2026-04-12T07:24:41.999Z</time></trkpt><trkpt lat="44.92959288565268" lon="9.89991527443"><ele>79.0</ele><time>2026-04-12T07:24:42.999Z</time></trkpt><trkpt lat="44.929613428273264" lon="9.899809585116941"><ele>79.0</ele><time>2026-04-12T07:24:43.999Z</time></trkpt><trkpt lat="44.92963680230618" lon="9.899703574848607"><ele>79.0</ele><time>2026-04-12T07:24:44.999Z</time></trkpt><trkpt lat="44.92966202873922" lon="9.899598944843056"><ele>79.0</ele><time>2026-04-12T07:24:45.999Z</time></trkpt><trkpt lat="44.92968588453768" lon="9.899492219883808"><ele>79.0</ele><time>2026-04-12T07:24:46.999Z</time></trkpt><trkpt lat="44.92971466659336" lon="9.899384689229333"><ele>79.0</ele><time>2026-04-12T07:24:47.999Z</time></trkpt><trkpt lat="44.929739503509545" lon="9.899278204114946"><ele>79.0</ele><time>2026-04-12T07:24:48.999Z</time></trkpt><trkpt lat="44.929763722837286" lon="9.899170943602702"><ele>79.0</ele><time>2026-04-12T07:24:49.999Z</time></trkpt><trkpt lat="44.929784571614036" lon="9.899061043173559"><ele>79.0</ele><time>2026-04-12T07:24:50.999Z</time></trkpt><trkpt lat="44.929806310049806" lon="9.89895430557149"><ele>79.0</ele><time>2026-04-12T07:24:51.999Z</time></trkpt><trkpt lat="44.929832603983094" lon="9.898846820314153"><ele>79.0</ele><time>2026-04-12T07:24:52.999Z</time></trkpt><trkpt lat="44.929856614852845" lon="9.898739858093531"><ele>79.16666666666666</ele><time>2026-04-12T07:24:53.999Z</time></trkpt><trkpt lat="44.92988173698568" lon="9.898629466506003"><ele>79.33333333333333</ele><time>2026-04-12T07:24:54.999Z</time></trkpt><trkpt lat="44.92990611552063" lon="9.898518433466993"><ele>79.5</ele><time>2026-04-12T07:24:55.999Z</time></trkpt><trkpt lat="44.92993150688521" lon="9.898408842651472"><ele>79.66666666666667</ele><time>2026-04-12T07:24:56.999Z</time></trkpt><trkpt lat="44.92995685626935" lon="9.898299348600203"><ele>79.83333333333334</ele><time>2026-04-12T07:24:57.999Z</time></trkpt><trkpt lat="44.92998070776157" lon="9.898187807087224"><ele>80.0</ele><time>2026-04-12T07:24:58.999Z</time></trkpt><trkpt lat="44.93000724355239" lon="9.89807806314307"><ele>79.5</ele><time>2026-04-12T07:24:59.999Z</time></trkpt><trkpt lat="44.93003364759396" lon="9.897970408894574"><ele>79.0</ele><time>2026-04-12T07:25:00.999Z</time></trkpt><trkpt lat="44.93005778962677" lon="9.897862284438744"><ele>78.5</ele><time>2026-04-12T07:25:01.999Z</time></trkpt><trkpt lat="44.93008213870348" lon="9.897752845208565"><ele>78.0</ele><time>2026-04-12T07:25:02.999Z</time></trkpt><trkpt lat="44.930107417504" lon="9.897643138781733"><ele>77.5</ele><time>2026-04-12T07:25:03.999Z</time></trkpt><trkpt lat="44.930132358523174" lon="9.897536738671542"><ele>77.0</ele><time>2026-04-12T07:25:04.999Z</time></trkpt><trkpt lat="44.930157123696496" lon="9.897428725111908"><ele>76.33333333333334</ele><time>2026-04-12T07:25:05.999Z</time></trkpt><trkpt lat="44.930180084802046" lon="9.897321704515573"><ele>75.66666666666667</ele><time>2026-04-12T07:25:06.999Z</time></trkpt><trkpt lat="44.93020433600026" lon="9.897212542119524"><ele>75.0</ele><time>2026-04-12T07:25:07.999Z</time></trkpt><trkpt lat="44.930227395869004" lon="9.897105499667534"><ele>74.33333333333333</ele><time>2026-04-12T07:25:08.999Z</time></trkpt><trkpt lat="44.93025153471748" lon="9.896997108388089"><ele>73.66666666666666</ele><time>2026-04-12T07:25:09.999Z</time></trkpt><trkpt lat="44.93027733172771" lon="9.896889242636146"><ele>73.0</ele><time>2026-04-12T07:25:10.999Z</time></trkpt><trkpt lat="44.9302999820464" lon="9.896782618338133"><ele>73.5</ele><time>2026-04-12T07:25:11.999Z</time></trkpt><trkpt lat="44.93032458431738" lon="9.89667453345506"><ele>74.0</ele><time>2026-04-12T07:25:12.999Z</time></trkpt><trkpt lat="44.930346388406726" lon="9.896566991493062"><ele>74.5</ele><time>2026-04-12T07:25:13.999Z</time></trkpt><trkpt lat="44.93036900592178" lon="9.896459967091307"><ele>75.0</ele><time>2026-04-12T07:25:14.998Z</time></trkpt><trkpt lat="44.93038957409841" lon="9.89635225320605"><ele>75.5</ele><time>2026-04-12T07:25:15.998Z</time></trkpt><trkpt lat="44.93040959457522" lon="9.896245395585558"><ele>76.0</ele><time>2026-04-12T07:25:16.998Z</time></trkpt><trkpt lat="44.930426789427464" lon="9.896134290807119"><ele>76.0</ele><time>2026-04-12T07:25:17.998Z</time></trkpt><trkpt lat="44.93043983968399" lon="9.896023182891616"><ele>76.0</ele><time>2026-04-12T07:25:18.998Z</time></trkpt><trkpt lat="44.93044761176078" lon="9.895912414498573"><ele>76.0</ele><time>2026-04-12T07:25:19.998Z</time></trkpt><trkpt lat="44.93046526603178" lon="9.895800777758621"><ele>76.0</ele><time>2026-04-12T07:25:20.998Z</time></trkpt><trkpt lat="44.930463967298536" lon="9.895689812322747"><ele>76.0</ele><time>2026-04-12T07:25:21.998Z</time></trkpt><trkpt lat="44.930444567687054" lon="9.89558012143955"><ele>76.0</ele><time>2026-04-12T07:25:22.998Z</time></trkpt><trkpt lat="44.93043900875625" lon="9.895471582443891"><ele>76.33333333333333</ele><time>2026-04-12T07:25:23.998Z</time></trkpt><trkpt lat="44.93043408536906" lon="9.895361808282834"><ele>76.66666666666666</ele><time>2026-04-12T07:25:24.998Z</time></trkpt><trkpt lat="44.930447546888914" lon="9.89525715083854"><ele>77.0</ele><time>2026-04-12T07:25:25.998Z</time></trkpt><trkpt lat="44.93045312511393" lon="9.895151751540403"><ele>77.33333333333333</ele><time>2026-04-12T07:25:26.998Z</time></trkpt><trkpt lat="44.93044669785898" lon="9.895042281761153"><ele>77.66666666666667</ele><time>2026-04-12T07:25:27.998Z</time></trkpt><trkpt lat="44.93046667402932" lon="9.894932556970492"><ele>78.0</ele><time>2026-04-12T07:25:28.998Z</time></trkpt><trkpt lat="44.93048791309819" lon="9.894822294641319"><ele>78.0</ele><time>2026-04-12T07:25:29.998Z</time></trkpt><trkpt lat="44.93051116108629" lon="9.894710079112059"><ele>78.0</ele><time>2026-04-12T07:25:30.998Z</time></trkpt><trkpt lat="44.93053331440373" lon="9.894599094578641"><ele>78.0</ele><time>2026-04-12T07:25:31.998Z</time></trkpt><trkpt lat="44.93055781703405" lon="9.894489766507343"><ele>78.0</ele><time>2026-04-12T07:25:32.998Z</time></trkpt><trkpt lat="44.93058304715924" lon="9.894378014742935"><ele>78.0</ele><time>2026-04-12T07:25:33.998Z</time></trkpt><trkpt lat="44.93061145859417" lon="9.894270218619397"><ele>78.0</ele><time>2026-04-12T07:25:34.998Z</time></trkpt><trkpt lat="44.9306385705822" lon="9.894163398194276"><ele>78.0</ele><time>2026-04-12T07:25:35.998Z</time></trkpt><trkpt lat="44.930663204608585" lon="9.89405680446767"><ele>78.0</ele><time>2026-04-12T07:25:36.998Z</time></trkpt><trkpt lat="44.93068724192244" lon="9.893948513328128"><ele>78.0</ele><time>2026-04-12T07:25:37.998Z</time></trkpt><trkpt lat="44.930713329555275" lon="9.8938409882012"><ele>78.0</ele><time>2026-04-12T07:25:38.998Z</time></trkpt><trkpt lat="44.9307381888206" lon="9.8937397222698"><ele>78.0</ele><time>2026-04-12T07:25:39.998Z</time></trkpt><trkpt lat="44.930763040219105" lon="9.893643026783307"><ele>78.0</ele><time>2026-04-12T07:25:40.998Z</time></trkpt><trkpt lat="44.93078756138214" lon="9.893546395092386"><ele>78.0</ele><time>2026-04-12T07:25:41.998Z</time></trkpt><trkpt lat="44.93081705570836" lon="9.893447854312388"><ele>78.0</ele><time>2026-04-12T07:25:42.998Z</time></trkpt><trkpt lat="44.93084435083691" lon="9.893346939549692"><ele>78.0</ele><time>2026-04-12T07:25:43.998Z</time></trkpt><trkpt lat="44.930872484762965" lon="9.893241893027623"><ele>78.0</ele><time>2026-04-12T07:25:44.998Z</time></trkpt><trkpt lat="44.9308962174303" lon="9.893135884487348"><ele>78.0</ele><time>2026-04-12T07:25:45.998Z</time></trkpt><trkpt lat="44.93092045363581" lon="9.893029121909281"><ele>78.0</ele><time>2026-04-12T07:25:46.998Z</time></trkpt><trkpt lat="44.93094332560088" lon="9.892921272244214"><ele>78.16666666666667</ele><time>2026-04-12T07:25:47.998Z</time></trkpt><trkpt lat="44.93096722491036" lon="9.892816831045455"><ele>78.33333333333333</ele><time>2026-04-12T07:25:48.998Z</time></trkpt><trkpt lat="44.930989803087954" lon="9.89270803869055"><ele>78.5</ele><time>2026-04-12T07:25:49.998Z</time></trkpt><trkpt lat="44.931004189889364" lon="9.892600196737204"><ele>78.66666666666666</ele><time>2026-04-12T07:25:50.998Z</time></trkpt><trkpt lat="44.93101249365926" lon="9.892489346248775"><ele>78.83333333333333</ele><time>2026-04-12T07:25:51.998Z</time></trkpt><trkpt lat="44.9310142672525" lon="9.892379146367484"><ele>79.0</ele><time>2026-04-12T07:25:52.998Z</time></trkpt><trkpt lat="44.931009765236" lon="9.89226921066285"><ele>79.33333333333333</ele><time>2026-04-12T07:25:53.998Z</time></trkpt><trkpt lat="44.930998829117506" lon="9.892164312960382"><ele>79.66666666666666</ele><time>2026-04-12T07:25:54.998Z</time></trkpt><trkpt lat="44.930988997290335" lon="9.89205841733451"><ele>80.0</ele><time>2026-04-12T07:25:55.998Z</time></trkpt><trkpt lat="44.930975034536274" lon="9.891954101100588"><ele>80.33333333333333</ele><time>2026-04-12T07:25:56.998Z</time></trkpt><trkpt lat="44.93095652482851" lon="9.89185252134215"><ele>80.66666666666667</ele><time>2026-04-12T07:25:57.998Z</time></trkpt><trkpt lat="44.930937722634766" lon="9.891749991919069"><ele>81.0</ele><time>2026-04-12T07:25:58.998Z</time></trkpt><trkpt lat="44.93091391427588" lon="9.891648912193958"><ele>81.16666666666667</ele><time>2026-04-12T07:25:59.998Z</time></trkpt><trkpt lat="44.93088623788292" lon="9.891550261413293"><ele>81.33333333333333</ele><time>2026-04-12T07:26:00.998Z</time></trkpt><trkpt lat="44.930859103293635" lon="9.891452043828489"><ele>81.5</ele><time>2026-04-12T07:26:01.998Z</time></trkpt><trkpt lat="44.93083114193656" lon="9.891353931565813"><ele>81.66666666666666</ele><time>2026-04-12T07:26:02.998Z</time></trkpt><trkpt lat="44.9308011350421" lon="9.891256562730884"><ele>81.83333333333333</ele><time>2026-04-12T07:26:03.998Z</time></trkpt><trkpt lat="44.93077160183659" lon="9.891156998002467"><ele>82.0</ele><time>2026-04-12T07:26:05Z</time></trkpt><trkpt lat="44.93073926993196" lon="9.891059293241453"><ele>82.0</ele><time>2026-04-12T07:26:06Z</time></trkpt><trkpt lat="44.93070621496779" lon="9.890963116536469"><ele>82.0</ele><time>2026-04-12T07:26:07Z</time></trkpt><trkpt lat="44.93067120626316" lon="9.890868419547614"><ele>82.0</ele><time>2026-04-12T07:26:08Z</time></trkpt><trkpt lat="44.93063494518092" lon="9.890771129052048"><ele>82.0</ele><time>2026-04-12T07:26:09Z</time></trkpt><trkpt lat="44.930595535896785" lon="9.890680955377759"><ele>82.0</ele><time>2026-04-12T07:26:10Z</time></trkpt><trkpt lat="44.930547273647136" lon="9.890595367518033"><ele>82.0</ele><time>2026-04-12T07:26:11Z</time></trkpt><trkpt lat="44.930497217576715" lon="9.890513372224644"><ele>81.83333333333333</ele><time>2026-04-12T07:26:12Z</time></trkpt><trkpt lat="44.93044505147743" lon="9.890434667866476"><ele>81.66666666666666</ele><time>2026-04-12T07:26:13Z</time></trkpt><trkpt lat="44.930391526113034" lon="9.890361542310284"><ele>81.5</ele><time>2026-04-12T07:26:14Z</time></trkpt><trkpt lat="44.930337592737715" lon="9.890285561350234"><ele>81.33333333333333</ele><time>2026-04-12T07:26:15Z</time></trkpt><trkpt lat="44.93028466950282" lon="9.890210557095706"><ele>81.16666666666667</ele><time>2026-04-12T07:26:16Z</time></trkpt><trkpt lat="44.9302291091892" lon="9.890133829196808"><ele>81.0</ele><time>2026-04-12T07:26:17Z</time></trkpt><trkpt lat="44.93017527488969" lon="9.890057913729006"><ele>81.0</ele><time>2026-04-12T07:26:18Z</time></trkpt><trkpt lat="44.930120595651886" lon="9.889981470074918"><ele>81.0</ele><time>2026-04-12T07:26:19Z</time></trkpt><trkpt lat="44.93006479115751" lon="9.889904524841121"><ele>81.0</ele><time>2026-04-12T07:26:20Z</time></trkpt><trkpt lat="44.93001048837992" lon="9.889829061694808"><ele>81.0</ele><time>2026-04-12T07:26:21Z</time></trkpt><trkpt lat="44.92995369069297" lon="9.889754769977577"><ele>81.0</ele><time>2026-04-12T07:26:22Z</time></trkpt><trkpt lat="44.929898176361284" lon="9.88967898936837"><ele>81.0</ele><time>2026-04-12T07:26:23Z</time></trkpt><trkpt lat="44.92984310534281" lon="9.88959972274439"><ele>81.0</ele><time>2026-04-12T07:26:24Z</time></trkpt><trkpt lat="44.9297897357931" lon="9.889521795696794"><ele>81.0</ele><time>2026-04-12T07:26:24.999Z</time></trkpt><trkpt lat="44.92973318122112" lon="9.889442862957655"><ele>81.0</ele><time>2026-04-12T07:26:25.999Z</time></trkpt><trkpt lat="44.92967589178344" lon="9.889364819205554"><ele>81.0</ele><time>2026-04-12T07:26:26.999Z</time></trkpt><trkpt lat="44.929619531536616" lon="9.889286240982806"><ele>81.0</ele><time>2026-04-12T07:26:27.999Z</time></trkpt><trkpt lat="44.92956209205399" lon="9.889207570620854"><ele>81.0</ele><time>2026-04-12T07:26:28.999Z</time></trkpt><trkpt lat="44.9295039411646" lon="9.889128146092316"><ele>81.0</ele><time>2026-04-12T07:26:29.999Z</time></trkpt><trkpt lat="44.92944323959118" lon="9.889050811653808"><ele>81.0</ele><time>2026-04-12T07:26:30.999Z</time></trkpt><trkpt lat="44.92938421097047" lon="9.888968380823073"><ele>81.0</ele><time>2026-04-12T07:26:31.999Z</time></trkpt><trkpt lat="44.9293253596979" lon="9.888885317907286"><ele>81.0</ele><time>2026-04-12T07:26:32.999Z</time></trkpt><trkpt lat="44.92926708870575" lon="9.88880012323972"><ele>81.0</ele><time>2026-04-12T07:26:33.999Z</time></trkpt><trkpt lat="44.92920741400429" lon="9.888718916108408"><ele>81.0</ele><time>2026-04-12T07:26:34.999Z</time></trkpt><trkpt lat="44.92914695837294" lon="9.888636218836842"><ele>81.16666666666667</ele><time>2026-04-12T07:26:35.999Z</time></trkpt><trkpt lat="44.92908722636231" lon="9.888553996865163"><ele>81.33333333333333</ele><time>2026-04-12T07:26:36.999Z</time></trkpt><trkpt lat="44.92902641530112" lon="9.888472690078414"><ele>81.5</ele><time>2026-04-12T07:26:37.999Z</time></trkpt><trkpt lat="44.928965619920326" lon="9.888390021676544"><ele>81.66666666666666</ele><time>2026-04-12T07:26:38.999Z</time></trkpt><trkpt lat="44.928904035361604" lon="9.88830673643534"><ele>81.83333333333333</ele><time>2026-04-12T07:26:39.999Z</time></trkpt><trkpt lat="44.92884495972606" lon="9.888223341354571"><ele>82.0</ele><time>2026-04-12T07:26:40.999Z</time></trkpt><trkpt lat="44.9287841616458" lon="9.888140741298063"><ele>82.16666666666666</ele><time>2026-04-12T07:26:41.999Z</time></trkpt><trkpt lat="44.928726018424804" lon="9.888059269451748"><ele>82.33333333333333</ele><time>2026-04-12T07:26:42.999Z</time></trkpt><trkpt lat="44.92866459933288" lon="9.887973018493291"><ele>82.5</ele><time>2026-04-12T07:26:43.999Z</time></trkpt><trkpt lat="44.928602695556236" lon="9.887882449340431"><ele>82.66666666666667</ele><time>2026-04-12T07:26:44.999Z</time></trkpt><trkpt lat="44.9285424154259" lon="9.887803713234074"><ele>82.83333333333334</ele><time>2026-04-12T07:26:45.999Z</time></trkpt><trkpt lat="44.92849258168368" lon="9.887726018308284"><ele>83.0</ele><time>2026-04-12T07:26:46.999Z</time></trkpt><trkpt lat="44.92843231056247" lon="9.887646838201118"><ele>82.83333333333334</ele><time>2026-04-12T07:26:47.999Z</time></trkpt><trkpt lat="44.92836166128131" lon="9.887565427607301"><ele>82.66666666666667</ele><time>2026-04-12T07:26:48.999Z</time></trkpt><trkpt lat="44.92831283869964" lon="9.887448118351841"><ele>82.5</ele><time>2026-04-12T07:26:49.999Z</time></trkpt><trkpt lat="44.92823805104054" lon="9.887402430085373"><ele>82.33333333333333</ele><time>2026-04-12T07:26:50.999Z</time></trkpt><trkpt lat="44.928175958248595" lon="9.88732863662667"><ele>82.16666666666666</ele><time>2026-04-12T07:26:51.999Z</time></trkpt><trkpt lat="44.92811905926481" lon="9.887271832903767"><ele>82.0</ele><time>2026-04-12T07:26:52.999Z</time></trkpt><trkpt lat="44.928058491647846" lon="9.887211139371193"><ele>82.0</ele><time>2026-04-12T07:26:53.999Z</time></trkpt><trkpt lat="44.92799524201605" lon="9.88715260263993"><ele>82.0</ele><time>2026-04-12T07:26:54.999Z</time></trkpt><trkpt lat="44.92793300549068" lon="9.887094181957242"><ele>82.0</ele><time>2026-04-12T07:26:55.999Z</time></trkpt><trkpt lat="44.92786703909291" lon="9.88703976207976"><ele>82.0</ele><time>2026-04-12T07:26:56.999Z</time></trkpt><trkpt lat="44.92780090427077" lon="9.886990847774209"><ele>82.0</ele><time>2026-04-12T07:26:57.999Z</time></trkpt><trkpt lat="44.92773425817766" lon="9.886943422070939"><ele>82.0</ele><time>2026-04-12T07:26:58.999Z</time></trkpt><trkpt lat="44.92766770397252" lon="9.8868987693197"><ele>81.99999999999999</ele><time>2026-04-12T07:26:59.999Z</time></trkpt><trkpt lat="44.92760166983295" lon="9.886855740464556"><ele>82.0</ele><time>2026-04-12T07:27:00.999Z</time></trkpt><trkpt lat="44.92753350006553" lon="9.886816768824039"><ele>82.0</ele><time>2026-04-12T07:27:01.999Z</time></trkpt><trkpt lat="44.92746487724858" lon="9.88678186967592"><ele>82.0</ele><time>2026-04-12T07:27:02.999Z</time></trkpt><trkpt lat="44.9273961530384" lon="9.886747704434987"><ele>82.0</ele><time>2026-04-12T07:27:03.999Z</time></trkpt><trkpt lat="44.927326927778545" lon="9.886720002387836"><ele>81.99999999999999</ele><time>2026-04-12T07:27:04.999Z</time></trkpt><trkpt lat="44.927256313267065" lon="9.886696766438602"><ele>82.0</ele><time>2026-04-12T07:27:05.999Z</time></trkpt><trkpt lat="44.92718555650194" lon="9.886678898780776"><ele>81.99999999999999</ele><time>2026-04-12T07:27:06.999Z</time></trkpt><trkpt lat="44.927110943684355" lon="9.88665901540384"><ele>82.0</ele><time>2026-04-12T07:27:07.999Z</time></trkpt><trkpt lat="44.927041460947905" lon="9.886642015932171"><ele>82.0</ele><time>2026-04-12T07:27:08.999Z</time></trkpt><trkpt lat="44.926967114970076" lon="9.88663384597375"><ele>82.0</ele><time>2026-04-12T07:27:09.999Z</time></trkpt><trkpt lat="44.92689344210488" lon="9.886622956653051"><ele>82.0</ele><time>2026-04-12T07:27:10.999Z</time></trkpt><trkpt lat="44.92681931915831" lon="9.886615274139166"><ele>81.99999999999999</ele><time>2026-04-12T07:27:11.999Z</time></trkpt><trkpt lat="44.92674696017313" lon="9.886612500099671"><ele>82.0</ele><time>2026-04-12T07:27:12.999Z</time></trkpt><trkpt lat="44.926675065726016" lon="9.886608391374647"><ele>82.5</ele><time>2026-04-12T07:27:13.999Z</time></trkpt><trkpt lat="44.92659970507284" lon="9.88660167076989"><ele>83.0</ele><time>2026-04-12T07:27:14.999Z</time></trkpt><trkpt lat="44.926525867497155" lon="9.886599694943726"><ele>83.5</ele><time>2026-04-12T07:27:15.999Z</time></trkpt><trkpt lat="44.92645086790435" lon="9.88659576406434"><ele>84.0</ele><time>2026-04-12T07:27:16.999Z</time></trkpt><trkpt lat="44.9263778452464" lon="9.886590785971359"><ele>84.5</ele><time>2026-04-12T07:27:17.998Z</time></trkpt><trkpt lat="44.92629787114846" lon="9.886587342907267"><ele>85.0</ele><time>2026-04-12T07:27:18.998Z</time></trkpt><trkpt lat="44.926223682005904" lon="9.886581238416861"><ele>85.0</ele><time>2026-04-12T07:27:19.998Z</time></trkpt><trkpt lat="44.92614820996437" lon="9.886580573564428"><ele>85.0</ele><time>2026-04-12T07:27:20.998Z</time></trkpt><trkpt lat="44.92607396862639" lon="9.886574625255257"><ele>85.0</ele><time>2026-04-12T07:27:21.998Z</time></trkpt><trkpt lat="44.92599893381946" lon="9.886569995073623"><ele>85.0</ele><time>2026-04-12T07:27:22.998Z</time></trkpt><trkpt lat="44.925923800945974" lon="9.886566937267313"><ele>85.0</ele><time>2026-04-12T07:27:23.998Z</time></trkpt><trkpt lat="44.92584732747089" lon="9.886561151001997"><ele>85.0</ele><time>2026-04-12T07:27:24.998Z</time></trkpt><trkpt lat="44.925772592681525" lon="9.886558746498809"><ele>85.16666666666666</ele><time>2026-04-12T07:27:25.998Z</time></trkpt><trkpt lat="44.9256950742017" lon="9.886553063384909"><ele>85.33333333333333</ele><time>2026-04-12T07:27:26.998Z</time></trkpt><trkpt lat="44.92562013649528" lon="9.886551016735964"><ele>85.5</ele><time>2026-04-12T07:27:27.998Z</time></trkpt><trkpt lat="44.92554368586529" lon="9.886546306509405"><ele>85.66666666666667</ele><time>2026-04-12T07:27:28.998Z</time></trkpt><trkpt lat="44.92546786225995" lon="9.8865450646205"><ele>85.83333333333334</ele><time>2026-04-12T07:27:29.998Z</time></trkpt><trkpt lat="44.92539132977634" lon="9.886539567236335"><ele>86.0</ele><time>2026-04-12T07:27:30.998Z</time></trkpt><trkpt lat="44.92531448895742" lon="9.886537124182682"><ele>86.0</ele><time>2026-04-12T07:27:31.998Z</time></trkpt><trkpt lat="44.925237800847746" lon="9.886532366226625"><ele>86.0</ele><time>2026-04-12T07:27:32.998Z</time></trkpt><trkpt lat="44.92516258103565" lon="9.886530179367405"><ele>86.0</ele><time>2026-04-12T07:27:33.998Z</time></trkpt><trkpt lat="44.9250863203229" lon="9.886525329126162"><ele>86.0</ele><time>2026-04-12T07:27:34.998Z</time></trkpt><trkpt lat="44.92501263038842" lon="9.886520018484376"><ele>86.0</ele><time>2026-04-12T07:27:35.998Z</time></trkpt><trkpt lat="44.92493697605229" lon="9.886518465962641"><ele>86.0</ele><time>2026-04-12T07:27:36.998Z</time></trkpt><trkpt lat="44.924864184044196" lon="9.886513502722975"><ele>86.0</ele><time>2026-04-12T07:27:37.998Z</time></trkpt><trkpt lat="44.92478841610625" lon="9.886509511733598"><ele>86.0</ele><time>2026-04-12T07:27:38.998Z</time></trkpt><trkpt lat="44.924713113931844" lon="9.886503920718315"><ele>86.0</ele><time>2026-04-12T07:27:39.998Z</time></trkpt><trkpt lat="44.924638928879894" lon="9.886497348835697"><ele>86.0</ele><time>2026-04-12T07:27:40.998Z</time></trkpt><trkpt lat="44.92456354767845" lon="9.886489429167652"><ele>86.0</ele><time>2026-04-12T07:27:41.998Z</time></trkpt><trkpt lat="44.92448798340078" lon="9.886480775509758"><ele>86.0</ele><time>2026-04-12T07:27:42.998Z</time></trkpt><trkpt lat="44.92441102702048" lon="9.88647204715872"><ele>86.0</ele><time>2026-04-12T07:27:43.998Z</time></trkpt><trkpt lat="44.92433524380738" lon="9.88645929724209"><ele>86.0</ele><time>2026-04-12T07:27:44.998Z</time></trkpt><trkpt lat="44.924258144447315" lon="9.886446592664203"><ele>86.0</ele><time>2026-04-12T07:27:45.998Z</time></trkpt><trkpt lat="44.924181459901455" lon="9.886435015901903"><ele>86.0</ele><time>2026-04-12T07:27:46.998Z</time></trkpt><trkpt lat="44.924104927116225" lon="9.886422756569377"><ele>86.0</ele><time>2026-04-12T07:27:47.998Z</time></trkpt><trkpt lat="44.9240283865172" lon="9.886404106554583"><ele>86.0</ele><time>2026-04-12T07:27:48.998Z</time></trkpt><trkpt lat="44.9239503166827" lon="9.886383534408044"><ele>86.16666666666667</ele><time>2026-04-12T07:27:49.998Z</time></trkpt><trkpt lat="44.923876225166076" lon="9.88636487556648"><ele>86.33333333333334</ele><time>2026-04-12T07:27:50.998Z</time></trkpt><trkpt lat="44.92380060525649" lon="9.886341228365056"><ele>86.5</ele><time>2026-04-12T07:27:51.998Z</time></trkpt><trkpt lat="44.9237240502142" lon="9.886320691272294"><ele>86.66666666666667</ele><time>2026-04-12T07:27:52.998Z</time></trkpt><trkpt lat="44.92364923784312" lon="9.886300468552106"><ele>86.83333333333333</ele><time>2026-04-12T07:27:53.998Z</time></trkpt><trkpt lat="44.923574829602636" lon="9.886281167917895"><ele>87.0</ele><time>2026-04-12T07:27:54.998Z</time></trkpt><trkpt lat="44.92349951179385" lon="9.886257370447026"><ele>87.0</ele><time>2026-04-12T07:27:55.998Z</time></trkpt><trkpt lat="44.923423792228526" lon="9.88623205282734"><ele>87.0</ele><time>2026-04-12T07:27:56.998Z</time></trkpt><trkpt lat="44.92334839697065" lon="9.886207732448309"><ele>87.0</ele><time>2026-04-12T07:27:57.998Z</time></trkpt><trkpt lat="44.9232732128948" lon="9.886185391002435"><ele>87.0</ele><time>2026-04-12T07:27:58.998Z</time></trkpt><trkpt lat="44.92319846314155" lon="9.886162739707519"><ele>87.0</ele><time>2026-04-12T07:27:59.998Z</time></trkpt><trkpt lat="44.92312517244621" lon="9.886136617217705"><ele>87.0</ele><time>2026-04-12T07:28:00.998Z</time></trkpt><trkpt lat="44.92305182982154" lon="9.886109573880814"><ele>87.0</ele><time>2026-04-12T07:28:01.998Z</time></trkpt><trkpt lat="44.922976534333934" lon="9.88608048659216"><ele>87.0</ele><time>2026-04-12T07:28:02.998Z</time></trkpt><trkpt lat="44.92290265216965" lon="9.886054270130954"><ele>87.0</ele><time>2026-04-12T07:28:03.998Z</time></trkpt><trkpt lat="44.92282828977264" lon="9.886025878143442"><ele>87.0</ele><time>2026-04-12T07:28:04.998Z</time></trkpt><trkpt lat="44.92275419079011" lon="9.8859975061059"><ele>87.0</ele><time>2026-04-12T07:28:05.998Z</time></trkpt><trkpt lat="44.922678966275335" lon="9.885969597777562"><ele>87.0</ele><time>2026-04-12T07:28:06.998Z</time></trkpt><trkpt lat="44.92260520670997" lon="9.885942129066326"><ele>87.33333333333333</ele><time>2026-04-12T07:28:07.998Z</time></trkpt><trkpt lat="44.922530881772815" lon="9.885915839518033"><ele>87.66666666666667</ele><time>2026-04-12T07:28:08.998Z</time></trkpt><trkpt lat="44.922458543125536" lon="9.885886403590069"><ele>88.0</ele><time>2026-04-12T07:28:09.998Z</time></trkpt><trkpt lat="44.922384321217216" lon="9.885858653270539"><ele>88.33333333333334</ele><time>2026-04-12T07:28:11Z</time></trkpt><trkpt lat="44.92230928746125" lon="9.885830404223604"><ele>88.66666666666667</ele><time>2026-04-12T07:28:12Z</time></trkpt><trkpt lat="44.922238460513604" lon="9.885795438511526"><ele>89.0</ele><time>2026-04-12T07:28:13Z</time></trkpt><trkpt lat="44.92216574581077" lon="9.885759744283591"><ele>89.0</ele><time>2026-04-12T07:28:14Z</time></trkpt><trkpt lat="44.92209728384743" lon="9.885718308329077"><ele>89.0</ele><time>2026-04-12T07:28:15Z</time></trkpt><trkpt lat="44.92202691023712" lon="9.885692448636256"><ele>89.0</ele><time>2026-04-12T07:28:16Z</time></trkpt><trkpt lat="44.92197233346856" lon="9.885592913490262"><ele>89.0</ele><time>2026-04-12T07:28:17Z</time></trkpt><trkpt lat="44.92191369075548" lon="9.88552330628202"><ele>89.0</ele><time>2026-04-12T07:28:18Z</time></trkpt><trkpt lat="44.921841380336524" lon="9.885472661028508"><ele>89.0</ele><time>2026-04-12T07:28:19Z</time></trkpt><trkpt lat="44.92176577363105" lon="9.88543925344836"><ele>89.0</ele><time>2026-04-12T07:28:20Z</time></trkpt><trkpt lat="44.92169459729289" lon="9.885397646374047"><ele>89.0</ele><time>2026-04-12T07:28:21Z</time></trkpt><trkpt lat="44.921630423342805" lon="9.885334290007613"><ele>89.0</ele><time>2026-04-12T07:28:22Z</time></trkpt><trkpt lat="44.92157142028817" lon="9.885260543895022"><ele>89.0</ele><time>2026-04-12T07:28:23Z</time></trkpt><trkpt lat="44.92151486351766" lon="9.885184905832306"><ele>89.0</ele><time>2026-04-12T07:28:24Z</time></trkpt><trkpt lat="44.92145592953895" lon="9.88511087893965"><ele>89.0</ele><time>2026-04-12T07:28:25Z</time></trkpt><trkpt lat="44.92140173055054" lon="9.885036425874672"><ele>89.16666666666667</ele><time>2026-04-12T07:28:26Z</time></trkpt><trkpt lat="44.92134850712588" lon="9.884958516167018"><ele>89.33333333333334</ele><time>2026-04-12T07:28:27Z</time></trkpt><trkpt lat="44.92129432282189" lon="9.884879433074342"><ele>89.5</ele><time>2026-04-12T07:28:28Z</time></trkpt><trkpt lat="44.92123837932287" lon="9.88480129166929"><ele>89.66666666666667</ele><time>2026-04-12T07:28:28.999Z</time></trkpt><trkpt lat="44.921184221174556" lon="9.884721580586454"><ele>89.83333333333333</ele><time>2026-04-12T07:28:29.999Z</time></trkpt><trkpt lat="44.92112949928987" lon="9.884642861774086"><ele>90.0</ele><time>2026-04-12T07:28:30.999Z</time></trkpt><trkpt lat="44.92107483053067" lon="9.884566077085006"><ele>90.0</ele><time>2026-04-12T07:28:31.999Z</time></trkpt><trkpt lat="44.92102086888309" lon="9.884486138345448"><ele>90.0</ele><time>2026-04-12T07:28:32.999Z</time></trkpt><trkpt lat="44.92096516717713" lon="9.884406493162857"><ele>90.0</ele><time>2026-04-12T07:28:33.999Z</time></trkpt><trkpt lat="44.92091114022755" lon="9.88432831335679"><ele>90.0</ele><time>2026-04-12T07:28:34.999Z</time></trkpt><trkpt lat="44.920856908168744" lon="9.88424820168656"><ele>90.0</ele><time>2026-04-12T07:28:35.999Z</time></trkpt><trkpt lat="44.920802948658306" lon="9.884171329171542"><ele>90.0</ele><time>2026-04-12T07:28:36.999Z</time></trkpt><trkpt lat="44.92074787723619" lon="9.884093487268133"><ele>89.83333333333333</ele><time>2026-04-12T07:28:37.999Z</time></trkpt><trkpt lat="44.92069317083019" lon="9.884017287234535"><ele>89.66666666666667</ele><time>2026-04-12T07:28:38.999Z</time></trkpt><trkpt lat="44.92063860000565" lon="9.883938308139374"><ele>89.5</ele><time>2026-04-12T07:28:39.999Z</time></trkpt><trkpt lat="44.92058402517183" lon="9.883858123077792"><ele>89.33333333333334</ele><time>2026-04-12T07:28:40.999Z</time></trkpt><trkpt lat="44.92052868737421" lon="9.883781308378014"><ele>89.16666666666667</ele><time>2026-04-12T07:28:41.999Z</time></trkpt><trkpt lat="44.92047321840078" lon="9.883702367198985"><ele>89.0</ele><time>2026-04-12T07:28:42.999Z</time></trkpt><trkpt lat="44.920416027592545" lon="9.883626101659132"><ele>89.0</ele><time>2026-04-12T07:28:43.999Z</time></trkpt><trkpt lat="44.92036023471902" lon="9.883547604526733"><ele>89.0</ele><time>2026-04-12T07:28:44.999Z</time></trkpt><trkpt lat="44.920306335184634" lon="9.883466044789051"><ele>89.0</ele><time>2026-04-12T07:28:45.999Z</time></trkpt><trkpt lat="44.9202484372236" lon="9.88338723042141"><ele>89.0</ele><time>2026-04-12T07:28:46.999Z</time></trkpt><trkpt lat="44.92019220185265" lon="9.883309320871241"><ele>89.0</ele><time>2026-04-12T07:28:47.999Z</time></trkpt><trkpt lat="44.92013643083675" lon="9.883232419864015"><ele>89.0</ele><time>2026-04-12T07:28:48.999Z</time></trkpt><trkpt lat="44.92008018214413" lon="9.883155388283068"><ele>89.0</ele><time>2026-04-12T07:28:49.999Z</time></trkpt><trkpt lat="44.920024288924104" lon="9.883078248601944"><ele>89.0</ele><time>2026-04-12T07:28:50.999Z</time></trkpt><trkpt lat="44.91996735088937" lon="9.882999656574167"><ele>89.0</ele><time>2026-04-12T07:28:51.999Z</time></trkpt><trkpt lat="44.91991140593294" lon="9.882921471984055"><ele>89.0</ele><time>2026-04-12T07:28:52.999Z</time></trkpt><trkpt lat="44.919854287164" lon="9.882845063318616"><ele>89.0</ele><time>2026-04-12T07:28:53.999Z</time></trkpt><trkpt lat="44.91979898754605" lon="9.882767283922227"><ele>89.0</ele><time>2026-04-12T07:28:54.999Z</time></trkpt><trkpt lat="44.91974021204848" lon="9.882692615288608"><ele>89.0</ele><time>2026-04-12T07:28:55.999Z</time></trkpt><trkpt lat="44.91968096672695" lon="9.88261765529454"><ele>89.0</ele><time>2026-04-12T07:28:56.999Z</time></trkpt><trkpt lat="44.91962331250673" lon="9.882541872167538"><ele>89.0</ele><time>2026-04-12T07:28:57.999Z</time></trkpt><trkpt lat="44.91956983177446" lon="9.882460733349962"><ele>89.0</ele><time>2026-04-12T07:28:58.999Z</time></trkpt><trkpt lat="44.91951692379148" lon="9.882377104804958"><ele>89.0</ele><time>2026-04-12T07:28:59.999Z</time></trkpt><trkpt lat="44.91946552883123" lon="9.882290098686408"><ele>89.0</ele><time>2026-04-12T07:29:00.999Z</time></trkpt><trkpt lat="44.919418745380966" lon="9.88219955629748"><ele>88.83333333333334</ele><time>2026-04-12T07:29:01.999Z</time></trkpt><trkpt lat="44.91937540702854" lon="9.882109369862292"><ele>88.66666666666667</ele><time>2026-04-12T07:29:02.999Z</time></trkpt><trkpt lat="44.919331472542304" lon="9.882017102374244"><ele>88.5</ele><time>2026-04-12T07:29:03.999Z</time></trkpt><trkpt lat="44.91927868851493" lon="9.881936717325491"><ele>88.33333333333333</ele><time>2026-04-12T07:29:04.999Z</time></trkpt><trkpt lat="44.91921811293989" lon="9.881869187616052"><ele>88.16666666666666</ele><time>2026-04-12T07:29:05.999Z</time></trkpt><trkpt lat="44.91914659761547" lon="9.881820262986741"><ele>88.0</ele><time>2026-04-12T07:29:06.999Z</time></trkpt><trkpt lat="44.91906896542866" lon="9.881794966288775"><ele>87.83333333333333</ele><time>2026-04-12T07:29:07.999Z</time></trkpt><trkpt lat="44.9189883583463" lon="9.881787306665052"><ele>87.66666666666666</ele><time>2026-04-12T07:29:08.999Z</time></trkpt><trkpt lat="44.91891184771119" lon="9.881761716015376"><ele>87.5</ele><time>2026-04-12T07:29:09.999Z</time></trkpt><trkpt lat="44.91884517840826" lon="9.881698359388814"><ele>87.33333333333333</ele><time>2026-04-12T07:29:10.999Z</time></trkpt><trkpt lat="44.91878811280283" lon="9.8816279491326"><ele>87.16666666666667</ele><time>2026-04-12T07:29:11.999Z</time></trkpt><trkpt lat="44.91873029769729" lon="9.88155387813511"><ele>87.0</ele><time>2026-04-12T07:29:12.999Z</time></trkpt><trkpt lat="44.91867302048113" lon="9.88148126882003"><ele>87.5</ele><time>2026-04-12T07:29:13.999Z</time></trkpt><trkpt lat="44.91861306219077" lon="9.881410981159249"><ele>88.0</ele><time>2026-04-12T07:29:14.999Z</time></trkpt><trkpt lat="44.918555089203366" lon="9.881341818198534"><ele>88.5</ele><time>2026-04-12T07:29:15.999Z</time></trkpt><trkpt lat="44.918496255597894" lon="9.881271629237514"><ele>89.0</ele><time>2026-04-12T07:29:16.999Z</time></trkpt><trkpt lat="44.918436103391386" lon="9.881202824452517"><ele>89.5</ele><time>2026-04-12T07:29:17.999Z</time></trkpt><trkpt lat="44.91837629098919" lon="9.881130624566332"><ele>90.0</ele><time>2026-04-12T07:29:18.999Z</time></trkpt><trkpt lat="44.9183159494998" lon="9.881063113486695"><ele>90.5</ele><time>2026-04-12T07:29:19.999Z</time></trkpt><trkpt lat="44.91825442035104" lon="9.88099474037052"><ele>91.0</ele><time>2026-04-12T07:29:20.999Z</time></trkpt><trkpt lat="44.91819239927108" lon="9.880926000298036"><ele>91.5</ele><time>2026-04-12T07:29:21.999Z</time></trkpt><trkpt lat="44.91813097622966" lon="9.88085680472479"><ele>92.0</ele><time>2026-04-12T07:29:22.999Z</time></trkpt><trkpt lat="44.91806902728248" lon="9.880787739038702"><ele>92.5</ele><time>2026-04-12T07:29:23.998Z</time></trkpt><trkpt lat="44.91800823209211" lon="9.880719033516973"><ele>93.0</ele><time>2026-04-12T07:29:24.998Z</time></trkpt><trkpt lat="44.917946005325376" lon="9.880649518111799"><ele>93.0</ele><time>2026-04-12T07:29:25.998Z</time></trkpt><trkpt lat="44.91789431330415" lon="9.880564568591677"><ele>93.0</ele><time>2026-04-12T07:29:26.998Z</time></trkpt><trkpt lat="44.91783361436497" lon="9.880494185279991"><ele>93.0</ele><time>2026-04-12T07:29:27.998Z</time></trkpt><trkpt lat="44.91777200825324" lon="9.880422750092915"><ele>93.0</ele><time>2026-04-12T07:29:28.998Z</time></trkpt><trkpt lat="44.91771219412486" lon="9.88035339291965"><ele>93.0</ele><time>2026-04-12T07:29:29.998Z</time></trkpt><trkpt lat="44.91765008552253" lon="9.880281510448315"><ele>93.0</ele><time>2026-04-12T07:29:30.998Z</time></trkpt><trkpt lat="44.91758892221044" lon="9.880212007730993"><ele>92.83333333333333</ele><time>2026-04-12T07:29:31.998Z</time></trkpt><trkpt lat="44.917527547279214" lon="9.880142264574399"><ele>92.66666666666667</ele><time>2026-04-12T07:29:32.998Z</time></trkpt><trkpt lat="44.917465951116526" lon="9.880072270151853"><ele>92.5</ele><time>2026-04-12T07:29:33.998Z</time></trkpt><trkpt lat="44.91740369167395" lon="9.880001470516723"><ele>92.33333333333334</ele><time>2026-04-12T07:29:34.998Z</time></trkpt><trkpt lat="44.91734212822686" lon="9.87993077811572"><ele>92.16666666666667</ele><time>2026-04-12T07:29:35.998Z</time></trkpt><trkpt lat="44.917279834738125" lon="9.879859245668442"><ele>92.0</ele><time>2026-04-12T07:29:36.998Z</time></trkpt><trkpt lat="44.917217839300044" lon="9.87978805551681"><ele>92.0</ele><time>2026-04-12T07:29:37.998Z</time></trkpt><trkpt lat="44.917156745725535" lon="9.879717874206285"><ele>92.0</ele><time>2026-04-12T07:29:38.998Z</time></trkpt><trkpt lat="44.91709564690578" lon="9.879647060531434"><ele>92.0</ele><time>2026-04-12T07:29:39.998Z</time></trkpt><trkpt lat="44.91703387462267" lon="9.87957546633649"><ele>92.0</ele><time>2026-04-12T07:29:40.998Z</time></trkpt><trkpt lat="44.9169723183754" lon="9.87950458801892"><ele>92.0</ele><time>2026-04-12T07:29:41.998Z</time></trkpt><trkpt lat="44.91690653341348" lon="9.879436378032326"><ele>92.0</ele><time>2026-04-12T07:29:42.998Z</time></trkpt><trkpt lat="44.9168372334774" lon="9.879380905886677"><ele>92.0</ele><time>2026-04-12T07:29:43.998Z</time></trkpt><trkpt lat="44.91675675559323" lon="9.879358729977106"><ele>92.0</ele><time>2026-04-12T07:29:44.998Z</time></trkpt><trkpt lat="44.916686909816654" lon="9.879303203561077"><ele>92.0</ele><time>2026-04-12T07:29:45.998Z</time></trkpt><trkpt lat="44.916603777178835" lon="9.879286669399386"><ele>92.0</ele><time>2026-04-12T07:29:46.998Z</time></trkpt><trkpt lat="44.916524622553425" lon="9.879275095099642"><ele>92.0</ele><time>2026-04-12T07:29:47.998Z</time></trkpt><trkpt lat="44.91644500755282" lon="9.87930179446795"><ele>92.0</ele><time>2026-04-12T07:29:48.998Z</time></trkpt><trkpt lat="44.916366196962144" lon="9.87930365151969"><ele>92.0</ele><time>2026-04-12T07:29:49.998Z</time></trkpt><trkpt lat="44.91628959412643" lon="9.879299175028768"><ele>92.0</ele><time>2026-04-12T07:29:50.998Z</time></trkpt><trkpt lat="44.91621094478979" lon="9.879295705735197"><ele>92.0</ele><time>2026-04-12T07:29:51.998Z</time></trkpt><trkpt lat="44.91613564250873" lon="9.879292938480015"><ele>92.0</ele><time>2026-04-12T07:29:52.998Z</time></trkpt><trkpt lat="44.916057414531885" lon="9.879292238434806"><ele>92.0</ele><time>2026-04-12T07:29:53.998Z</time></trkpt><trkpt lat="44.91598132068237" lon="9.879296709651616"><ele>92.0</ele><time>2026-04-12T07:29:54.998Z</time></trkpt><trkpt lat="44.91590513278367" lon="9.879267769862375"><ele>91.83333333333334</ele><time>2026-04-12T07:29:55.998Z</time></trkpt><trkpt lat="44.91583082679428" lon="9.8792670537719"><ele>91.66666666666667</ele><time>2026-04-12T07:29:56.998Z</time></trkpt><trkpt lat="44.91575560054261" lon="9.879266328809594"><ele>91.5</ele><time>2026-04-12T07:29:57.998Z</time></trkpt><trkpt lat="44.91567948935907" lon="9.879265595320655"><ele>91.33333333333333</ele><time>2026-04-12T07:29:58.998Z</time></trkpt><trkpt lat="44.91560262087717" lon="9.879264854534036"><ele>91.16666666666666</ele><time>2026-04-12T07:29:59.998Z</time></trkpt><trkpt lat="44.91552540300071" lon="9.879264110379783"><ele>91.0</ele><time>2026-04-12T07:30:00.998Z</time></trkpt><trkpt lat="44.91544927471286" lon="9.87926324498471"><ele>91.0</ele><time>2026-04-12T07:30:01.998Z</time></trkpt><trkpt lat="44.915373620990145" lon="9.879261510987131"><ele>91.0</ele><time>2026-04-12T07:30:02.998Z</time></trkpt><trkpt lat="44.915297594026434" lon="9.87925976843229"><ele>91.0</ele><time>2026-04-12T07:30:03.998Z</time></trkpt><trkpt lat="44.9152211261962" lon="9.879258015781058"><ele>91.0</ele><time>2026-04-12T07:30:04.998Z</time></trkpt><trkpt lat="44.915145081501365" lon="9.879256817335634"><ele>91.0</ele><time>2026-04-12T07:30:05.998Z</time></trkpt><trkpt lat="44.9150680787285" lon="9.87925558622026"><ele>91.0</ele><time>2026-04-12T07:30:06.998Z</time></trkpt><trkpt lat="44.914992694413044" lon="9.879254380980687"><ele>91.33333333333333</ele><time>2026-04-12T07:30:07.998Z</time></trkpt><trkpt lat="44.91491527101311" lon="9.879253143141206"><ele>91.66666666666666</ele><time>2026-04-12T07:30:08.998Z</time></trkpt><trkpt lat="44.9148396044557" lon="9.879252226768424"><ele>92.0</ele><time>2026-04-12T07:30:09.998Z</time></trkpt><trkpt lat="44.914763046759504" lon="9.879251430981176"><ele>92.33333333333333</ele><time>2026-04-12T07:30:10.998Z</time></trkpt><trkpt lat="44.91468754426962" lon="9.87925064616241"><ele>92.66666666666667</ele><time>2026-04-12T07:30:11.998Z</time></trkpt><trkpt lat="44.9146104847791" lon="9.879249845159366"><ele>93.0</ele><time>2026-04-12T07:30:12.998Z</time></trkpt><trkpt lat="44.914534559253596" lon="9.879249055943356"><ele>93.0</ele><time>2026-04-12T07:30:13.998Z</time></trkpt><trkpt lat="44.91445750601161" lon="9.87924825500572"><ele>93.0</ele><time>2026-04-12T07:30:14.998Z</time></trkpt><trkpt lat="44.91438185929422" lon="9.879247468686772"><ele>93.0</ele><time>2026-04-12T07:30:15.998Z</time></trkpt><trkpt lat="44.914305293667525" lon="9.879246521139404"><ele>93.0</ele><time>2026-04-12T07:30:17Z</time></trkpt><trkpt lat="44.91422938949821" lon="9.8792455609301"><ele>93.0</ele><time>2026-04-12T07:30:18Z</time></trkpt><trkpt lat="44.91415327130203" lon="9.879244598012825"><ele>93.0</ele><time>2026-04-12T07:30:19Z</time></trkpt><trkpt lat="44.91407628762951" lon="9.879243624147616"><ele>92.83333333333333</ele><time>2026-04-12T07:30:20Z</time></trkpt><trkpt lat="44.914000395792165" lon="9.879242664094429"><ele>92.66666666666667</ele><time>2026-04-12T07:30:21Z</time></trkpt><trkpt lat="44.91392233663233" lon="9.87924167662314"><ele>92.5</ele><time>2026-04-12T07:30:22Z</time></trkpt><trkpt lat="44.9138450346504" lon="9.879240698732454"><ele>92.33333333333334</ele><time>2026-04-12T07:30:23Z</time></trkpt><trkpt lat="44.913769015451116" lon="9.879239737068001"><ele>92.16666666666667</ele><time>2026-04-12T07:30:24Z</time></trkpt><trkpt lat="44.91369204798423" lon="9.879238763406981"><ele>92.0</ele><time>2026-04-12T07:30:25Z</time></trkpt><trkpt lat="44.91361363216646" lon="9.879237771423785"><ele>92.0</ele><time>2026-04-12T07:30:26Z</time></trkpt><trkpt lat="44.913537392637174" lon="9.879236806972314"><ele>92.0</ele><time>2026-04-12T07:30:27Z</time></trkpt><trkpt lat="44.91345995122836" lon="9.879235827316316"><ele>92.0</ele><time>2026-04-12T07:30:28Z</time></trkpt><trkpt lat="44.91338270144569" lon="9.879234850054749"><ele>92.0</ele><time>2026-04-12T07:30:29Z</time></trkpt><trkpt lat="44.91330500677166" lon="9.87925570412237"><ele>92.0</ele><time>2026-04-12T07:30:30Z</time></trkpt><trkpt lat="44.913229248828834" lon="9.879254921087622"><ele>92.0</ele><time>2026-04-12T07:30:31Z</time></trkpt><trkpt lat="44.91315201776093" lon="9.879257244499332"><ele>92.16666666666667</ele><time>2026-04-12T07:30:32Z</time></trkpt><trkpt lat="44.91307612205881" lon="9.879233190688865"><ele>92.33333333333334</ele><time>2026-04-12T07:30:33Z</time></trkpt><trkpt lat="44.91299928313525" lon="9.879232039112981"><ele>92.5</ele><time>2026-04-12T07:30:33.999Z</time></trkpt><trkpt lat="44.912922939289096" lon="9.879230894956605"><ele>92.66666666666667</ele><time>2026-04-12T07:30:34.999Z</time></trkpt><trkpt lat="44.912846082873" lon="9.879229819915672"><ele>92.83333333333333</ele><time>2026-04-12T07:30:35.999Z</time></trkpt><trkpt lat="44.912769994092685" lon="9.879229062395149"><ele>93.0</ele><time>2026-04-12T07:30:36.999Z</time></trkpt><trkpt lat="44.91269277393415" lon="9.879228293611105"><ele>93.0</ele><time>2026-04-12T07:30:37.999Z</time></trkpt><trkpt lat="44.91261761777897" lon="9.879227545376013"><ele>93.0</ele><time>2026-04-12T07:30:38.999Z</time></trkpt><trkpt lat="44.91254154318605" lon="9.879226787996421"><ele>93.0</ele><time>2026-04-12T07:30:39.999Z</time></trkpt><trkpt lat="44.912464901727404" lon="9.879226024973155"><ele>93.0</ele><time>2026-04-12T07:30:40.999Z</time></trkpt><trkpt lat="44.91238852747386" lon="9.879225264610445"><ele>93.0</ele><time>2026-04-12T07:30:41.999Z</time></trkpt><trkpt lat="44.91231156993693" lon="9.879244884696885"><ele>93.0</ele><time>2026-04-12T07:30:42.999Z</time></trkpt><trkpt lat="44.91223623803933" lon="9.879243209172763"><ele>93.33333333333333</ele><time>2026-04-12T07:30:43.999Z</time></trkpt><trkpt lat="44.9121595496615" lon="9.879240752963204"><ele>93.66666666666667</ele><time>2026-04-12T07:30:44.999Z</time></trkpt><trkpt lat="44.912083941657734" lon="9.879238550143143"><ele>94.0</ele><time>2026-04-12T07:30:45.999Z</time></trkpt><trkpt lat="44.91200771336372" lon="9.879235212857894"><ele>94.33333333333334</ele><time>2026-04-12T07:30:46.999Z</time></trkpt><trkpt lat="44.91193144324699" lon="9.879233692589914"><ele>94.66666666666667</ele><time>2026-04-12T07:30:47.999Z</time></trkpt><trkpt lat="44.911856165275" lon="9.879233128648847"><ele>95.0</ele><time>2026-04-12T07:30:48.999Z</time></trkpt><trkpt lat="44.91178032781502" lon="9.879234810288736"><ele>94.83333333333334</ele><time>2026-04-12T07:30:49.999Z</time></trkpt><trkpt lat="44.9117047838539" lon="9.879233572002347"><ele>94.66666666666667</ele><time>2026-04-12T07:30:50.999Z</time></trkpt><trkpt lat="44.91162818328109" lon="9.879236625098258"><ele>94.5</ele><time>2026-04-12T07:30:51.999Z</time></trkpt><trkpt lat="44.91155253203772" lon="9.879237690633424"><ele>94.33333333333333</ele><time>2026-04-12T07:30:52.999Z</time></trkpt><trkpt lat="44.9114763737813" lon="9.879235337050988"><ele>94.16666666666666</ele><time>2026-04-12T07:30:53.999Z</time></trkpt><trkpt lat="44.91140024616696" lon="9.879231627259715"><ele>94.0</ele><time>2026-04-12T07:30:54.999Z</time></trkpt><trkpt lat="44.91132402096846" lon="9.87922809445211"><ele>94.0</ele><time>2026-04-12T07:30:55.999Z</time></trkpt><trkpt lat="44.91124721024858" lon="9.879225723214963"><ele>94.0</ele><time>2026-04-12T07:30:56.999Z</time></trkpt><trkpt lat="44.91117156846037" lon="9.879225072939484"><ele>94.0</ele><time>2026-04-12T07:30:57.999Z</time></trkpt><trkpt lat="44.91109544085038" lon="9.879223494437673"><ele>94.0</ele><time>2026-04-12T07:30:58.999Z</time></trkpt><trkpt lat="44.91101775550375" lon="9.879222712708067"><ele>94.0</ele><time>2026-04-12T07:30:59.999Z</time></trkpt><trkpt lat="44.910940627661454" lon="9.87922316350217"><ele>94.0</ele><time>2026-04-12T07:31:00.999Z</time></trkpt><trkpt lat="44.910863924158235" lon="9.87922498464563"><ele>94.5</ele><time>2026-04-12T07:31:01.999Z</time></trkpt><trkpt lat="44.91078731486797" lon="9.879223128319053"><ele>95.0</ele><time>2026-04-12T07:31:02.999Z</time></trkpt><trkpt lat="44.91071127361579" lon="9.879220612746881"><ele>95.5</ele><time>2026-04-12T07:31:03.999Z</time></trkpt><trkpt lat="44.910636163080326" lon="9.879219675769782"><ele>96.0</ele><time>2026-04-12T07:31:04.999Z</time></trkpt><trkpt lat="44.91055788641886" lon="9.879216839247501"><ele>96.50000000000001</ele><time>2026-04-12T07:31:05.999Z</time></trkpt><trkpt lat="44.91048150464793" lon="9.87921727072286"><ele>97.0</ele><time>2026-04-12T07:31:06.999Z</time></trkpt><trkpt lat="44.91040470184119" lon="9.87921591173302"><ele>97.00000000000001</ele><time>2026-04-12T07:31:07.999Z</time></trkpt><trkpt lat="44.910328834717404" lon="9.879217198076077"><ele>97.0</ele><time>2026-04-12T07:31:08.999Z</time></trkpt><trkpt lat="44.91025303299276" lon="9.879192534793761"><ele>97.0</ele><time>2026-04-12T07:31:09.999Z</time></trkpt><trkpt lat="44.910177447672865" lon="9.879189807698562"><ele>97.0</ele><time>2026-04-12T07:31:10.999Z</time></trkpt><trkpt lat="44.91009970932298" lon="9.879187002923082"><ele>97.00000000000001</ele><time>2026-04-12T07:31:11.999Z</time></trkpt><trkpt lat="44.910023812495275" lon="9.879206367356621"><ele>97.0</ele><time>2026-04-12T07:31:12.999Z</time></trkpt><trkpt lat="44.909947245744824" lon="9.879181502130665"><ele>97.0</ele><time>2026-04-12T07:31:13.999Z</time></trkpt><trkpt lat="44.90987293181887" lon="9.87917865547963"><ele>97.0</ele><time>2026-04-12T07:31:14.999Z</time></trkpt><trkpt lat="44.90979801041082" lon="9.87917537189241"><ele>97.0</ele><time>2026-04-12T07:31:15.999Z</time></trkpt><trkpt lat="44.909723498984114" lon="9.879169607190248"><ele>97.0</ele><time>2026-04-12T07:31:16.999Z</time></trkpt><trkpt lat="44.90964911881387" lon="9.87916385264648"><ele>97.0</ele><time>2026-04-12T07:31:17.999Z</time></trkpt><trkpt lat="44.909573672239894" lon="9.879158547063136"><ele>97.0</ele><time>2026-04-12T07:31:18.999Z</time></trkpt><trkpt lat="44.90949917003977" lon="9.879154185640326"><ele>97.0</ele><time>2026-04-12T07:31:19.999Z</time></trkpt><trkpt lat="44.90942464381441" lon="9.879149822812533"><ele>97.0</ele><time>2026-04-12T07:31:20.999Z</time></trkpt><trkpt lat="44.909349974331676" lon="9.879145451598331"><ele>97.0</ele><time>2026-04-12T07:31:21.999Z</time></trkpt><trkpt lat="44.90927561590949" lon="9.879141098593353"><ele>97.0</ele><time>2026-04-12T07:31:22.999Z</time></trkpt><trkpt lat="44.90920101861004" lon="9.879136731616946"><ele>97.0</ele><time>2026-04-12T07:31:23.999Z</time></trkpt><trkpt lat="44.90912618268341" lon="9.87913199978918"><ele>97.0</ele><time>2026-04-12T07:31:24.999Z</time></trkpt><trkpt lat="44.90905167572989" lon="9.879126179685457"><ele>97.0</ele><time>2026-04-12T07:31:25.999Z</time></trkpt><trkpt lat="44.90897748419608" lon="9.879120173376442"><ele>97.0</ele><time>2026-04-12T07:31:26.998Z</time></trkpt><trkpt lat="44.908903216574984" lon="9.879113060756508"><ele>97.00000000000001</ele><time>2026-04-12T07:31:27.998Z</time></trkpt><trkpt lat="44.90882811470794" lon="9.879107264560028"><ele>97.0</ele><time>2026-04-12T07:31:28.998Z</time></trkpt><trkpt lat="44.9087532295875" lon="9.879125390254208"><ele>97.0</ele><time>2026-04-12T07:31:29.998Z</time></trkpt><trkpt lat="44.90867934895329" lon="9.879121302529175"><ele>97.0</ele><time>2026-04-12T07:31:30.998Z</time></trkpt><trkpt lat="44.90860415396101" lon="9.879093182760963"><ele>97.00000000000001</ele><time>2026-04-12T07:31:31.998Z</time></trkpt><trkpt lat="44.908530088240575" lon="9.879086847754484"><ele>97.0</ele><time>2026-04-12T07:31:32.998Z</time></trkpt><trkpt lat="44.908455387710184" lon="9.879080458444294"><ele>97.00000000000001</ele><time>2026-04-12T07:31:33.998Z</time></trkpt><trkpt lat="44.90837925079775" lon="9.879073946277005"><ele>97.0</ele><time>2026-04-12T07:31:34.998Z</time></trkpt><trkpt lat="44.908303783179434" lon="9.879067846272937"><ele>97.0</ele><time>2026-04-12T07:31:35.998Z</time></trkpt><trkpt lat="44.90822791914298" lon="9.879062877884246"><ele>97.0</ele><time>2026-04-12T07:31:36.998Z</time></trkpt><trkpt lat="44.90815355500902" lon="9.879058007727435"><ele>97.00000000000001</ele><time>2026-04-12T07:31:37.998Z</time></trkpt><trkpt lat="44.90807889419265" lon="9.879053118136625"><ele>97.0</ele><time>2026-04-12T07:31:38.998Z</time></trkpt><trkpt lat="44.90800385920586" lon="9.879048204041839"><ele>97.0</ele><time>2026-04-12T07:31:39.998Z</time></trkpt><trkpt lat="44.90792800243489" lon="9.879043236128208"><ele>97.0</ele><time>2026-04-12T07:31:40.998Z</time></trkpt><trkpt lat="44.907853238153855" lon="9.87905810601837"><ele>97.0</ele><time>2026-04-12T07:31:41.998Z</time></trkpt><trkpt lat="44.90777850427104" lon="9.879052536172747"><ele>97.0</ele><time>2026-04-12T07:31:42.998Z</time></trkpt><trkpt lat="44.9077041492334" lon="9.87904299787462"><ele>97.0</ele><time>2026-04-12T07:31:43.998Z</time></trkpt><trkpt lat="44.90763155522973" lon="9.879037803357704"><ele>97.0</ele><time>2026-04-12T07:31:44.998Z</time></trkpt><trkpt lat="44.907557842848156" lon="9.879031928431244"><ele>97.0</ele><time>2026-04-12T07:31:45.998Z</time></trkpt><trkpt lat="44.90748434377762" lon="9.879027182634514"><ele>97.57142857142857</ele><time>2026-04-12T07:31:46.998Z</time></trkpt><trkpt lat="44.90740992221628" lon="9.879021530457214"><ele>98.14285714285715</ele><time>2026-04-12T07:31:47.998Z</time></trkpt><trkpt lat="44.907336963730415" lon="9.87901549047296"><ele>98.71428571428572</ele><time>2026-04-12T07:31:48.998Z</time></trkpt><trkpt lat="44.907263617121224" lon="9.879012844774758"><ele>99.28571428571428</ele><time>2026-04-12T07:31:49.998Z</time></trkpt><trkpt lat="44.907190989060275" lon="9.879008405504626"><ele>99.85714285714286</ele><time>2026-04-12T07:31:50.998Z</time></trkpt><trkpt lat="44.907115627287084" lon="9.87900045529279"><ele>100.42857142857143</ele><time>2026-04-12T07:31:51.998Z</time></trkpt><trkpt lat="44.90704299404566" lon="9.878993411786258"><ele>101.0</ele><time>2026-04-12T07:31:52.998Z</time></trkpt><trkpt lat="44.906970559710985" lon="9.878977269743155"><ele>101.0</ele><time>2026-04-12T07:31:53.998Z</time></trkpt><trkpt lat="44.906906696817444" lon="9.878927918958818"><ele>101.0</ele><time>2026-04-12T07:31:54.998Z</time></trkpt><trkpt lat="44.90684436511163" lon="9.878884521167928"><ele>101.0</ele><time>2026-04-12T07:31:55.998Z</time></trkpt><trkpt lat="44.90679111993455" lon="9.878819686986395"><ele>101.0</ele><time>2026-04-12T07:31:56.998Z</time></trkpt><trkpt lat="44.90672611560458" lon="9.878765267985793"><ele>101.0</ele><time>2026-04-12T07:31:57.998Z</time></trkpt><trkpt lat="44.90667505289564" lon="9.878688263404673"><ele>101.0</ele><time>2026-04-12T07:31:58.998Z</time></trkpt><trkpt lat="44.90662268900896" lon="9.878613663197179"><ele>101.0</ele><time>2026-04-12T07:31:59.998Z</time></trkpt><trkpt lat="44.90657471818012" lon="9.878533647455424"><ele>100.99999999999999</ele><time>2026-04-12T07:32:00.998Z</time></trkpt><trkpt lat="44.90652473626775" lon="9.878453194118768"><ele>101.0</ele><time>2026-04-12T07:32:01.998Z</time></trkpt><trkpt lat="44.906476661681964" lon="9.878371500993893"><ele>101.0</ele><time>2026-04-12T07:32:02.998Z</time></trkpt><trkpt lat="44.90642359589555" lon="9.878292591752118"><ele>101.0</ele><time>2026-04-12T07:32:03.998Z</time></trkpt><trkpt lat="44.9063716570712" lon="9.87821389970483"><ele>100.99999999999999</ele><time>2026-04-12T07:32:04.998Z</time></trkpt><trkpt lat="44.906319243736576" lon="9.878139677429589"><ele>101.0</ele><time>2026-04-12T07:32:05.998Z</time></trkpt><trkpt lat="44.90626687020217" lon="9.878057772008178"><ele>100.99999999999999</ele><time>2026-04-12T07:32:06.998Z</time></trkpt><trkpt lat="44.906216259979104" lon="9.87798083841618"><ele>101.0</ele><time>2026-04-12T07:32:07.998Z</time></trkpt><trkpt lat="44.90616280253283" lon="9.877900762976957"><ele>101.0</ele><time>2026-04-12T07:32:08.998Z</time></trkpt><trkpt lat="44.906113387994225" lon="9.877820522791506"><ele>101.0</ele><time>2026-04-12T07:32:09.998Z</time></trkpt><trkpt lat="44.90606220526557" lon="9.877740589576032"><ele>100.99999999999999</ele><time>2026-04-12T07:32:10.998Z</time></trkpt><trkpt lat="44.906009385283106" lon="9.877660695505464"><ele>101.0</ele><time>2026-04-12T07:32:11.998Z</time></trkpt><trkpt lat="44.905958547366154" lon="9.877583555583115"><ele>101.33333333333333</ele><time>2026-04-12T07:32:12.998Z</time></trkpt><trkpt lat="44.90590424449926" lon="9.877506639357598"><ele>101.66666666666666</ele><time>2026-04-12T07:32:13.998Z</time></trkpt><trkpt lat="44.90585368356672" lon="9.877428193009742"><ele>102.0</ele><time>2026-04-12T07:32:14.998Z</time></trkpt><trkpt lat="44.905803046658654" lon="9.877346525041157"><ele>102.33333333333334</ele><time>2026-04-12T07:32:15.998Z</time></trkpt><trkpt lat="44.90575382531151" lon="9.877268896749"><ele>102.66666666666667</ele><time>2026-04-12T07:32:16.998Z</time></trkpt><trkpt lat="44.90570445344581" lon="9.877190282823676"><ele>103.0</ele><time>2026-04-12T07:32:17.998Z</time></trkpt><trkpt lat="44.9056545175594" lon="9.877109411420568"><ele>103.00000000000001</ele><time>2026-04-12T07:32:18.998Z</time></trkpt><trkpt lat="44.9056121506354" lon="9.87702366692186"><ele>103.0</ele><time>2026-04-12T07:32:19.998Z</time></trkpt><trkpt lat="44.90557511019084" lon="9.876931603955661"><ele>103.0</ele><time>2026-04-12T07:32:20.997Z</time></trkpt><trkpt lat="44.90554551759769" lon="9.876831912662356"><ele>103.0</ele><time>2026-04-12T07:32:21.997Z</time></trkpt><trkpt lat="44.90551711192157" lon="9.876728824778636"><ele>103.00000000000001</ele><time>2026-04-12T07:32:23Z</time></trkpt><trkpt lat="44.90549667725567" lon="9.876619237280059"><ele>103.0</ele><time>2026-04-12T07:32:24Z</time></trkpt><trkpt lat="44.90547838366607" lon="9.876514006759354"><ele>102.83333333333334</ele><time>2026-04-12T07:32:25Z</time></trkpt><trkpt lat="44.90546148601732" lon="9.87640374961376"><ele>102.66666666666667</ele><time>2026-04-12T07:32:26Z</time></trkpt><trkpt lat="44.90544504300781" lon="9.876294085344087"><ele>102.5</ele><time>2026-04-12T07:32:27Z</time></trkpt><trkpt lat="44.90542617216714" lon="9.876183143317851"><ele>102.33333333333334</ele><time>2026-04-12T07:32:28Z</time></trkpt><trkpt lat="44.90540810781768" lon="9.876068371004221"><ele>102.16666666666667</ele><time>2026-04-12T07:32:29Z</time></trkpt><trkpt lat="44.90538940033785" lon="9.87595724857227"><ele>102.0</ele><time>2026-04-12T07:32:30Z</time></trkpt><trkpt lat="44.90537219768126" lon="9.875842072417916"><ele>102.0</ele><time>2026-04-12T07:32:31Z</time></trkpt><trkpt lat="44.90535382563894" lon="9.875729333904392"><ele>102.0</ele><time>2026-04-12T07:32:32Z</time></trkpt><trkpt lat="44.90533331648907" lon="9.875615760958631"><ele>102.0</ele><time>2026-04-12T07:32:33Z</time></trkpt><trkpt lat="44.90531321019799" lon="9.875500388845538"><ele>102.0</ele><time>2026-04-12T07:32:34Z</time></trkpt><trkpt lat="44.905294242490655" lon="9.875386338837687"><ele>102.0</ele><time>2026-04-12T07:32:35Z</time></trkpt><trkpt lat="44.90527367673997" lon="9.875274699633632"><ele>102.0</ele><time>2026-04-12T07:32:36Z</time></trkpt><trkpt lat="44.905252874285075" lon="9.875159061758309"><ele>101.83333333333333</ele><time>2026-04-12T07:32:37Z</time></trkpt><trkpt lat="44.905235121240935" lon="9.875042190420123"><ele>101.66666666666666</ele><time>2026-04-12T07:32:38Z</time></trkpt><trkpt lat="44.90521466445219" lon="9.874926154975258"><ele>101.5</ele><time>2026-04-12T07:32:38.999Z</time></trkpt><trkpt lat="44.90519633041049" lon="9.874808719429907"><ele>101.33333333333333</ele><time>2026-04-12T07:32:39.999Z</time></trkpt><trkpt lat="44.90517631980923" lon="9.874689908326413"><ele>101.16666666666666</ele><time>2026-04-12T07:32:40.999Z</time></trkpt><trkpt lat="44.90515625655425" lon="9.874571375786337"><ele>101.0</ele><time>2026-04-12T07:32:41.999Z</time></trkpt><trkpt lat="44.905134111522166" lon="9.874452193428745"><ele>100.99999999999999</ele><time>2026-04-12T07:32:42.999Z</time></trkpt><trkpt lat="44.90512928425607" lon="9.874327854674103"><ele>101.0</ele><time>2026-04-12T07:32:43.999Z</time></trkpt><trkpt lat="44.90510947477981" lon="9.874209046790037"><ele>101.0</ele><time>2026-04-12T07:32:44.999Z</time></trkpt><trkpt lat="44.905076622360774" lon="9.874091583408376"><ele>101.0</ele><time>2026-04-12T07:32:45.999Z</time></trkpt><trkpt lat="44.90506087975451" lon="9.873967798494249"><ele>100.99999999999999</ele><time>2026-04-12T07:32:46.999Z</time></trkpt><trkpt lat="44.905042499619356" lon="9.873844498417954"><ele>101.0</ele><time>2026-04-12T07:32:47.999Z</time></trkpt><trkpt lat="44.9050222575526" lon="9.873723533545684"><ele>100.83333333333333</ele><time>2026-04-12T07:32:48.999Z</time></trkpt><trkpt lat="44.90500256029296" lon="9.87359943269762"><ele>100.66666666666666</ele><time>2026-04-12T07:32:49.999Z</time></trkpt><trkpt lat="44.904982117138694" lon="9.873476277375005"><ele>100.5</ele><time>2026-04-12T07:32:50.999Z</time></trkpt><trkpt lat="44.90496341635854" lon="9.87335271384347"><ele>100.33333333333334</ele><time>2026-04-12T07:32:51.999Z</time></trkpt><trkpt lat="44.904943258634084" lon="9.87322727020343"><ele>100.16666666666667</ele><time>2026-04-12T07:32:52.999Z</time></trkpt><trkpt lat="44.904918829235505" lon="9.873107476577655"><ele>100.0</ele><time>2026-04-12T07:32:53.999Z</time></trkpt><trkpt lat="44.90489365918529" lon="9.872986843096557"><ele>99.83333333333334</ele><time>2026-04-12T07:32:54.999Z</time></trkpt><trkpt lat="44.904869414147214" lon="9.872864854327123"><ele>99.66666666666667</ele><time>2026-04-12T07:32:55.999Z</time></trkpt><trkpt lat="44.904851559839024" lon="9.872740999572779"><ele>99.5</ele><time>2026-04-12T07:32:56.999Z</time></trkpt><trkpt lat="44.90483207668876" lon="9.872617330230874"><ele>99.33333333333334</ele><time>2026-04-12T07:32:57.999Z</time></trkpt><trkpt lat="44.90481175213889" lon="9.872494423159244"><ele>99.16666666666667</ele><time>2026-04-12T07:32:58.999Z</time></trkpt><trkpt lat="44.90478929964247" lon="9.872369817763976"><ele>99.0</ele><time>2026-04-12T07:32:59.999Z</time></trkpt><trkpt lat="44.904766502726964" lon="9.872247548510378"><ele>99.0</ele><time>2026-04-12T07:33:00.999Z</time></trkpt><trkpt lat="44.90476165415817" lon="9.872117393355715"><ele>99.0</ele><time>2026-04-12T07:33:01.999Z</time></trkpt><trkpt lat="44.904741407076145" lon="9.871995335773887"><ele>99.0</ele><time>2026-04-12T07:33:02.999Z</time></trkpt><trkpt lat="44.904720700171104" lon="9.871870506103987"><ele>99.0</ele><time>2026-04-12T07:33:03.999Z</time></trkpt><trkpt lat="44.90470049107404" lon="9.871748896454282"><ele>99.0</ele><time>2026-04-12T07:33:04.999Z</time></trkpt><trkpt lat="44.90466337671817" lon="9.871629415571299"><ele>98.66666666666667</ele><time>2026-04-12T07:33:05.999Z</time></trkpt><trkpt lat="44.904659395941145" lon="9.871504472068068"><ele>98.33333333333334</ele><time>2026-04-12T07:33:06.999Z</time></trkpt><trkpt lat="44.90463854876129" lon="9.871380477588135"><ele>98.0</ele><time>2026-04-12T07:33:07.999Z</time></trkpt><trkpt lat="44.90461785534083" lon="9.871257397897338"><ele>97.66666666666667</ele><time>2026-04-12T07:33:08.999Z</time></trkpt><trkpt lat="44.90459804537187" lon="9.871139572455412"><ele>97.33333333333334</ele><time>2026-04-12T07:33:09.999Z</time></trkpt><trkpt lat="44.90457681555171" lon="9.871011715762005"><ele>97.0</ele><time>2026-04-12T07:33:10.999Z</time></trkpt><trkpt lat="44.90455682658705" lon="9.870889521305351"><ele>96.6</ele><time>2026-04-12T07:33:11.999Z</time></trkpt><trkpt lat="44.90453669197254" lon="9.870766436479709"><ele>96.19999999999999</ele><time>2026-04-12T07:33:12.999Z</time></trkpt><trkpt lat="44.90451658223378" lon="9.870643503677236"><ele>95.8</ele><time>2026-04-12T07:33:13.999Z</time></trkpt><trkpt lat="44.90449625910093" lon="9.870519553779465"><ele>95.4</ele><time>2026-04-12T07:33:14.999Z</time></trkpt><trkpt lat="44.9044749458853" lon="9.870396564603231"><ele>95.0</ele><time>2026-04-12T07:33:15.999Z</time></trkpt><trkpt lat="44.90443728419968" lon="9.870277669198012"><ele>95.0</ele><time>2026-04-12T07:33:16.999Z</time></trkpt><trkpt lat="44.90442089974557" lon="9.870148757024689"><ele>95.0</ele><time>2026-04-12T07:33:17.999Z</time></trkpt><trkpt lat="44.90441331109421" lon="9.870018402690782"><ele>95.0</ele><time>2026-04-12T07:33:18.999Z</time></trkpt><trkpt lat="44.9043940521432" lon="9.869893519670343"><ele>95.0</ele><time>2026-04-12T07:33:19.999Z</time></trkpt><trkpt lat="44.90437466603139" lon="9.8697678123956"><ele>95.0</ele><time>2026-04-12T07:33:20.999Z</time></trkpt><trkpt lat="44.90435509745972" lon="9.869640921798052"><ele>95.2</ele><time>2026-04-12T07:33:21.999Z</time></trkpt><trkpt lat="44.90433447798071" lon="9.869512179986314"><ele>95.4</ele><time>2026-04-12T07:33:22.999Z</time></trkpt><trkpt lat="44.90431027661825" lon="9.869383228874812"><ele>95.6</ele><time>2026-04-12T07:33:23.999Z</time></trkpt><trkpt lat="44.90427778202034" lon="9.869265599520038"><ele>95.8</ele><time>2026-04-12T07:33:24.999Z</time></trkpt><trkpt lat="44.90423544613941" lon="9.869148226541398"><ele>96.0</ele><time>2026-04-12T07:33:25.999Z</time></trkpt><trkpt lat="44.904148910823004" lon="9.869068184178365"><ele>96.16666666666667</ele><time>2026-04-12T07:33:26.999Z</time></trkpt><trkpt lat="44.90408712659132" lon="9.868978215042073"><ele>96.33333333333334</ele><time>2026-04-12T07:33:27.999Z</time></trkpt><trkpt lat="44.904023835742045" lon="9.868891305666866"><ele>96.5</ele><time>2026-04-12T07:33:28.999Z</time></trkpt><trkpt lat="44.90396260433062" lon="9.868808989972202"><ele>96.66666666666667</ele><time>2026-04-12T07:33:29.999Z</time></trkpt><trkpt lat="44.903902405821135" lon="9.868721589620451"><ele>96.83333333333334</ele><time>2026-04-12T07:33:30.999Z</time></trkpt><trkpt lat="44.9038421897825" lon="9.868635914852495"><ele>97.0</ele><time>2026-04-12T07:33:31.998Z</time></trkpt><trkpt lat="44.90378075805606" lon="9.868551875370388"><ele>97.00000000000001</ele><time>2026-04-12T07:33:32.998Z</time></trkpt><trkpt lat="44.90372017080068" lon="9.868469311609328"><ele>97.0</ele><time>2026-04-12T07:33:33.998Z</time></trkpt><trkpt lat="44.90365955948496" lon="9.868386559458797"><ele>97.0</ele><time>2026-04-12T07:33:34.998Z</time></trkpt><trkpt lat="44.90361060898542" lon="9.868285725713022"><ele>97.0</ele><time>2026-04-12T07:33:35.998Z</time></trkpt><trkpt lat="44.90355101243331" lon="9.868201917983331"><ele>97.00000000000001</ele><time>2026-04-12T07:33:36.998Z</time></trkpt><trkpt lat="44.90349022552971" lon="9.868116050867675"><ele>97.0</ele><time>2026-04-12T07:33:37.998Z</time></trkpt><trkpt lat="44.90342920399855" lon="9.868029900567395"><ele>97.00000000000001</ele><time>2026-04-12T07:33:38.998Z</time></trkpt><trkpt lat="44.90335649174389" lon="9.867959174580703"><ele>97.0</ele><time>2026-04-12T07:33:39.998Z</time></trkpt><trkpt lat="44.9032944587468" lon="9.867868564929276"><ele>97.0</ele><time>2026-04-12T07:33:40.998Z</time></trkpt><trkpt lat="44.903232794929174" lon="9.867777973992755"><ele>97.0</ele><time>2026-04-12T07:33:41.998Z</time></trkpt><trkpt lat="44.903167836624775" lon="9.867691285669059"><ele>97.00000000000001</ele><time>2026-04-12T07:33:42.998Z</time></trkpt><trkpt lat="44.903101252878" lon="9.86760254268342"><ele>97.0</ele><time>2026-04-12T07:33:43.998Z</time></trkpt><trkpt lat="44.903035592303254" lon="9.867514693108339"><ele>96.8</ele><time>2026-04-12T07:33:44.998Z</time></trkpt><trkpt lat="44.902966665197845" lon="9.86742713793186"><ele>96.6</ele><time>2026-04-12T07:33:45.998Z</time></trkpt><trkpt lat="44.90290034570752" lon="9.86733821658794"><ele>96.39999999999999</ele><time>2026-04-12T07:33:46.998Z</time></trkpt><trkpt lat="44.902833423381345" lon="9.867249117190482"><ele>96.19999999999999</ele><time>2026-04-12T07:33:47.998Z</time></trkpt><trkpt lat="44.90276656754492" lon="9.867158380080896"><ele>96.0</ele><time>2026-04-12T07:33:48.998Z</time></trkpt><trkpt lat="44.9026998380353" lon="9.867066866723015"><ele>96.0</ele><time>2026-04-12T07:33:49.998Z</time></trkpt><trkpt lat="44.902633122490435" lon="9.866981096939032"><ele>96.0</ele><time>2026-04-12T07:33:50.998Z</time></trkpt><trkpt lat="44.90256500104561" lon="9.866896131254771"><ele>96.0</ele><time>2026-04-12T07:33:51.998Z</time></trkpt><trkpt lat="44.90249912376701" lon="9.866814126075228"><ele>96.0</ele><time>2026-04-12T07:33:52.998Z</time></trkpt><trkpt lat="44.90243341994969" lon="9.866725853617119"><ele>96.0</ele><time>2026-04-12T07:33:53.998Z</time></trkpt><trkpt lat="44.90236997226558" lon="9.866641218006434"><ele>96.0</ele><time>2026-04-12T07:33:54.998Z</time></trkpt><trkpt lat="44.9023093400701" lon="9.866557506312754"><ele>95.66666666666667</ele><time>2026-04-12T07:33:55.998Z</time></trkpt><trkpt lat="44.902250961768225" lon="9.8664696441659"><ele>95.33333333333333</ele><time>2026-04-12T07:33:56.998Z</time></trkpt><trkpt lat="44.90219525083991" lon="9.86638181387695"><ele>95.0</ele><time>2026-04-12T07:33:57.998Z</time></trkpt><trkpt lat="44.90214642409095" lon="9.866287924557554"><ele>94.66666666666666</ele><time>2026-04-12T07:33:58.998Z</time></trkpt><trkpt lat="44.90210364695159" lon="9.866190331759844"><ele>94.33333333333333</ele><time>2026-04-12T07:33:59.998Z</time></trkpt><trkpt lat="44.902069145859656" lon="9.866093442751906"><ele>94.0</ele><time>2026-04-12T07:34:00.998Z</time></trkpt><trkpt lat="44.90204748195861" lon="9.865997392707792"><ele>94.0</ele><time>2026-04-12T07:34:01.998Z</time></trkpt><trkpt lat="44.902023690788035" lon="9.865893151138692"><ele>94.0</ele><time>2026-04-12T07:34:02.998Z</time></trkpt><trkpt lat="44.901999903225814" lon="9.86579314919904"><ele>94.0</ele><time>2026-04-12T07:34:03.998Z</time></trkpt><trkpt lat="44.90197526997901" lon="9.865695077115278"><ele>94.0</ele><time>2026-04-12T07:34:04.998Z</time></trkpt><trkpt lat="44.90195088245457" lon="9.865597094221455"><ele>94.0</ele><time>2026-04-12T07:34:05.998Z</time></trkpt><trkpt lat="44.90192330342214" lon="9.86550241652617"><ele>94.0</ele><time>2026-04-12T07:34:06.998Z</time></trkpt><trkpt lat="44.901893298906934" lon="9.86541068163055"><ele>94.0</ele><time>2026-04-12T07:34:07.998Z</time></trkpt><trkpt lat="44.90185680351816" lon="9.865323444199568"><ele>94.0</ele><time>2026-04-12T07:34:08.998Z</time></trkpt><trkpt lat="44.901821097877075" lon="9.865232302249462"><ele>94.0</ele><time>2026-04-12T07:34:09.998Z</time></trkpt><trkpt lat="44.90178397027604" lon="9.865137424345649"><ele>94.0</ele><time>2026-04-12T07:34:10.998Z</time></trkpt><trkpt lat="44.90173025360546" lon="9.865054264377202"><ele>94.0</ele><time>2026-04-12T07:34:11.998Z</time></trkpt><trkpt lat="44.90167530270507" lon="9.864977439054206"><ele>94.0</ele><time>2026-04-12T07:34:12.998Z</time></trkpt><trkpt lat="44.90161301987695" lon="9.864912596596305"><ele>94.0</ele><time>2026-04-12T07:34:13.998Z</time></trkpt><trkpt lat="44.90154450718407" lon="9.864853928845493"><ele>94.66666666666666</ele><time>2026-04-12T07:34:14.998Z</time></trkpt><trkpt lat="44.901469826251386" lon="9.86480349998986"><ele>95.33333333333333</ele><time>2026-04-12T07:34:15.998Z</time></trkpt><trkpt lat="44.901396020635936" lon="9.86475518465253"><ele>96.0</ele><time>2026-04-12T07:34:16.998Z</time></trkpt><trkpt lat="44.9013219667513" lon="9.864705508074017"><ele>96.66666666666666</ele><time>2026-04-12T07:34:17.998Z</time></trkpt><trkpt lat="44.90125015215189" lon="9.86465204667786"><ele>97.33333333333333</ele><time>2026-04-12T07:34:18.998Z</time></trkpt><trkpt lat="44.90117795723444" lon="9.864594457838548"><ele>98.0</ele><time>2026-04-12T07:34:19.998Z</time></trkpt><trkpt lat="44.90110904754801" lon="9.864537648722978"><ele>97.99999999999999</ele><time>2026-04-12T07:34:20.998Z</time></trkpt><trkpt lat="44.90103891017749" lon="9.864472205854637"><ele>98.0</ele><time>2026-04-12T07:34:21.998Z</time></trkpt><trkpt lat="44.900971803993585" lon="9.864406467402674"><ele>98.0</ele><time>2026-04-12T07:34:22.998Z</time></trkpt><trkpt lat="44.900904837604024" lon="9.86433896949695"><ele>98.0</ele><time>2026-04-12T07:34:23.998Z</time></trkpt><trkpt lat="44.90083475695729" lon="9.864274541241938"><ele>97.99999999999999</ele><time>2026-04-12T07:34:24.998Z</time></trkpt><trkpt lat="44.90076389516148" lon="9.86421118658239"><ele>98.0</ele><time>2026-04-12T07:34:25.997Z</time></trkpt><trkpt lat="44.90069374000696" lon="9.864147325355647"><ele>97.49999999999999</ele><time>2026-04-12T07:34:26.997Z</time></trkpt><trkpt lat="44.90062461125442" lon="9.864081392063301"><ele>97.0</ele><time>2026-04-12T07:34:27.997Z</time></trkpt><trkpt lat="44.90055634927798" lon="9.864020032795247"><ele>96.5</ele><time>2026-04-12T07:34:29Z</time></trkpt><trkpt lat="44.9004863538736" lon="9.863958666260642"><ele>96.0</ele><time>2026-04-12T07:34:30Z</time></trkpt><trkpt lat="44.90041897861883" lon="9.863896350186076"><ele>95.5</ele><time>2026-04-12T07:34:31Z</time></trkpt><trkpt lat="44.90035223989881" lon="9.863830982862419"><ele>95.0</ele><time>2026-04-12T07:34:32Z</time></trkpt><trkpt lat="44.90028745882918" lon="9.863766972319363"><ele>95.0</ele><time>2026-04-12T07:34:33Z</time></trkpt><trkpt lat="44.90022181559677" lon="9.863701245717973"><ele>95.0</ele><time>2026-04-12T07:34:34Z</time></trkpt><trkpt lat="44.90015623285689" lon="9.863638908670623"><ele>95.0</ele><time>2026-04-12T07:34:35Z</time></trkpt><trkpt lat="44.90009056457721" lon="9.863575647835814"><ele>95.0</ele><time>2026-04-12T07:34:36Z</time></trkpt><trkpt lat="44.90002621143797" lon="9.863509733608062"><ele>95.0</ele><time>2026-04-12T07:34:37Z</time></trkpt><trkpt lat="44.89996682206009" lon="9.863438350714299"><ele>95.0</ele><time>2026-04-12T07:34:38Z</time></trkpt><trkpt lat="44.899916609139325" lon="9.86335657819252"><ele>95.0</ele><time>2026-04-12T07:34:39Z</time></trkpt><trkpt lat="44.89987037366469" lon="9.863267051846913"><ele>95.0</ele><time>2026-04-12T07:34:40Z</time></trkpt><trkpt lat="44.89981719844231" lon="9.86318783092365"><ele>95.0</ele><time>2026-04-12T07:34:41Z</time></trkpt><trkpt lat="44.89975326378616" lon="9.863121500347708"><ele>95.0</ele><time>2026-04-12T07:34:42Z</time></trkpt><trkpt lat="44.89968354891836" lon="9.863065693388206"><ele>95.0</ele><time>2026-04-12T07:34:43Z</time></trkpt><trkpt lat="44.89961112335306" lon="9.863018982711095"><ele>95.0</ele><time>2026-04-12T07:34:43.999Z</time></trkpt><trkpt lat="44.89953895912998" lon="9.862971962404329"><ele>95.0</ele><time>2026-04-12T07:34:44.999Z</time></trkpt><trkpt lat="44.899468613667715" lon="9.862924866213909"><ele>95.0</ele><time>2026-04-12T07:34:45.999Z</time></trkpt><trkpt lat="44.89939918313312" lon="9.862875831616613"><ele>95.0</ele><time>2026-04-12T07:34:46.999Z</time></trkpt><trkpt lat="44.89932791292533" lon="9.862832591719982"><ele>95.0</ele><time>2026-04-12T07:34:47.999Z</time></trkpt><trkpt lat="44.899255895661945" lon="9.862789199573028"><ele>95.0</ele><time>2026-04-12T07:34:48.999Z</time></trkpt><trkpt lat="44.8991850019375" lon="9.862743129397279"><ele>95.0</ele><time>2026-04-12T07:34:49.999Z</time></trkpt><trkpt lat="44.899113073192915" lon="9.862695552389152"><ele>95.5</ele><time>2026-04-12T07:34:50.999Z</time></trkpt><trkpt lat="44.89904217222028" lon="9.862651488849375"><ele>96.0</ele><time>2026-04-12T07:34:51.999Z</time></trkpt><trkpt lat="44.898971571199425" lon="9.862603296285615"><ele>96.5</ele><time>2026-04-12T07:34:52.999Z</time></trkpt><trkpt lat="44.89890025471086" lon="9.862556138632709"><ele>97.0</ele><time>2026-04-12T07:34:53.999Z</time></trkpt><trkpt lat="44.89883031757392" lon="9.86250815270671"><ele>97.49999999999999</ele><time>2026-04-12T07:34:54.999Z</time></trkpt><trkpt lat="44.8987607626152" lon="9.8624602509743"><ele>98.0</ele><time>2026-04-12T07:34:55.999Z</time></trkpt><trkpt lat="44.898692955428835" lon="9.862412619451662"><ele>97.99999999999999</ele><time>2026-04-12T07:34:56.999Z</time></trkpt><trkpt lat="44.89862225981935" lon="9.862365535886758"><ele>98.0</ele><time>2026-04-12T07:34:57.999Z</time></trkpt><trkpt lat="44.89855283767444" lon="9.862324069240275"><ele>98.0</ele><time>2026-04-12T07:34:58.999Z</time></trkpt><trkpt lat="44.898481719384634" lon="9.862286086864145"><ele>98.0</ele><time>2026-04-12T07:34:59.999Z</time></trkpt><trkpt lat="44.89840875165536" lon="9.862253055541522"><ele>97.99999999999999</ele><time>2026-04-12T07:35:00.999Z</time></trkpt><trkpt lat="44.89833571825427" lon="9.862221844324043"><ele>98.0</ele><time>2026-04-12T07:35:01.999Z</time></trkpt><trkpt lat="44.89825971499741" lon="9.86219666645065"><ele>98.16666666666666</ele><time>2026-04-12T07:35:02.999Z</time></trkpt><trkpt lat="44.898184143441966" lon="9.86217724513041"><ele>98.33333333333333</ele><time>2026-04-12T07:35:03.999Z</time></trkpt><trkpt lat="44.898108551672905" lon="9.862165311947708"><ele>98.5</ele><time>2026-04-12T07:35:04.999Z</time></trkpt><trkpt lat="44.89803341526648" lon="9.86215561606939"><ele>98.66666666666666</ele><time>2026-04-12T07:35:05.999Z</time></trkpt><trkpt lat="44.897959409184494" lon="9.862146452332214"><ele>98.83333333333333</ele><time>2026-04-12T07:35:06.999Z</time></trkpt><trkpt lat="44.89788557105749" lon="9.862133044027495"><ele>99.0</ele><time>2026-04-12T07:35:07.999Z</time></trkpt><trkpt lat="44.89781313963227" lon="9.862111934035873"><ele>99.0</ele><time>2026-04-12T07:35:08.999Z</time></trkpt><trkpt lat="44.897745863223506" lon="9.862070780447914"><ele>99.0</ele><time>2026-04-12T07:35:09.999Z</time></trkpt><trkpt lat="44.89771025605995" lon="9.861974650643427"><ele>99.0</ele><time>2026-04-12T07:35:10.999Z</time></trkpt><trkpt lat="44.89768414384507" lon="9.861880169178203"><ele>99.0</ele><time>2026-04-12T07:35:11.999Z</time></trkpt><trkpt lat="44.89768071959781" lon="9.861775956205747"><ele>99.0</ele><time>2026-04-12T07:35:12.999Z</time></trkpt><trkpt lat="44.897675078930945" lon="9.861667001838214"><ele>99.0</ele><time>2026-04-12T07:35:13.999Z</time></trkpt><trkpt lat="44.89768086032961" lon="9.861564760033316"><ele>99.0</ele><time>2026-04-12T07:35:14.999Z</time></trkpt><trkpt lat="44.897685523942734" lon="9.861457828993336"><ele>98.66666666666667</ele><time>2026-04-12T07:35:15.999Z</time></trkpt><trkpt lat="44.89768496284134" lon="9.861352773307749"><ele>98.33333333333334</ele><time>2026-04-12T07:35:16.999Z</time></trkpt><trkpt lat="44.89766813122512" lon="9.861247617306239"><ele>98.0</ele><time>2026-04-12T07:35:17.999Z</time></trkpt><trkpt lat="44.89762748887086" lon="9.861155939027482"><ele>97.66666666666667</ele><time>2026-04-12T07:35:18.999Z</time></trkpt><trkpt lat="44.89758615849592" lon="9.861066535241518"><ele>97.33333333333334</ele><time>2026-04-12T07:35:19.999Z</time></trkpt><trkpt lat="44.89749568018746" lon="9.861035822804023"><ele>97.0</ele><time>2026-04-12T07:35:20.999Z</time></trkpt><trkpt lat="44.89742457706823" lon="9.861000268199408"><ele>97.50000000000001</ele><time>2026-04-12T07:35:21.999Z</time></trkpt><trkpt lat="44.897352003775744" lon="9.860973222854309"><ele>98.0</ele><time>2026-04-12T07:35:22.999Z</time></trkpt><trkpt lat="44.89727935551285" lon="9.860947590988902"><ele>98.5</ele><time>2026-04-12T07:35:23.999Z</time></trkpt><trkpt lat="44.8972145141796" lon="9.860897038738354"><ele>99.0</ele><time>2026-04-12T07:35:24.999Z</time></trkpt><trkpt lat="44.897138868308275" lon="9.860885822052435"><ele>99.50000000000001</ele><time>2026-04-12T07:35:25.999Z</time></trkpt><trkpt lat="44.897073869817305" lon="9.86083406285329"><ele>100.0</ele><time>2026-04-12T07:35:26.999Z</time></trkpt><trkpt lat="44.89699802063704" lon="9.860823251851842"><ele>100.00000000000001</ele><time>2026-04-12T07:35:27.999Z</time></trkpt><trkpt lat="44.89692692174907" lon="9.860789817464505"><ele>100.0</ele><time>2026-04-12T07:35:28.999Z</time></trkpt><trkpt lat="44.89685618495174" lon="9.860758367008867"><ele>100.0</ele><time>2026-04-12T07:35:29.999Z</time></trkpt><trkpt lat="44.896790285113276" lon="9.86070873895723"><ele>100.0</ele><time>2026-04-12T07:35:30.999Z</time></trkpt><trkpt lat="44.89671908343798" lon="9.860677272953133"><ele>100.0</ele><time>2026-04-12T07:35:31.999Z</time></trkpt><trkpt lat="44.896649616416255" lon="9.860646573572373"><ele>100.00000000000001</ele><time>2026-04-12T07:35:32.999Z</time></trkpt><trkpt lat="44.89657848197952" lon="9.860615333406175"><ele>100.0</ele><time>2026-04-12T07:35:33.999Z</time></trkpt><trkpt lat="44.89650778742102" lon="9.86058495557299"><ele>100.28571428571429</ele><time>2026-04-12T07:35:34.999Z</time></trkpt><trkpt lat="44.896432704338395" lon="9.860576070120004"><ele>100.57142857142857</ele><time>2026-04-12T07:35:35.999Z</time></trkpt><trkpt lat="44.89636403339678" lon="9.860541592197789"><ele>100.85714285714286</ele><time>2026-04-12T07:35:36.999Z</time></trkpt><trkpt lat="44.896292763590836" lon="9.86051029965656"><ele>101.14285714285714</ele><time>2026-04-12T07:35:37.998Z</time></trkpt><trkpt lat="44.89622143636813" lon="9.860480222896552"><ele>101.42857142857143</ele><time>2026-04-12T07:35:38.998Z</time></trkpt><trkpt lat="44.896150069205" lon="9.86045017086031"><ele>101.71428571428572</ele><time>2026-04-12T07:35:39.998Z</time></trkpt><trkpt lat="44.89607878309879" lon="9.860418834036643"><ele>102.0</ele><time>2026-04-12T07:35:40.998Z</time></trkpt><trkpt lat="44.89600918971829" lon="9.860384799767598"><ele>102.0</ele><time>2026-04-12T07:35:41.998Z</time></trkpt><trkpt lat="44.89593677687068" lon="9.860355322038906"><ele>102.0</ele><time>2026-04-12T07:35:42.998Z</time></trkpt><trkpt lat="44.89586585127638" lon="9.860324232481766"><ele>102.0</ele><time>2026-04-12T07:35:43.998Z</time></trkpt><trkpt lat="44.89579606368756" lon="9.860290597071987"><ele>102.0</ele><time>2026-04-12T07:35:44.998Z</time></trkpt><trkpt lat="44.89572571776454" lon="9.860261183010103"><ele>102.0</ele><time>2026-04-12T07:35:45.998Z</time></trkpt><trkpt lat="44.89565551768646" lon="9.860229589507664"><ele>102.0</ele><time>2026-04-12T07:35:46.998Z</time></trkpt><trkpt lat="44.89558578574823" lon="9.860200137688025"><ele>102.0</ele><time>2026-04-12T07:35:47.998Z</time></trkpt><trkpt lat="44.89551654560869" lon="9.860168282246555"><ele>102.0</ele><time>2026-04-12T07:35:48.998Z</time></trkpt><trkpt lat="44.89544878446932" lon="9.860137440768888"><ele>102.0</ele><time>2026-04-12T07:35:49.998Z</time></trkpt><trkpt lat="44.895379558905056" lon="9.860109704746508"><ele>102.0</ele><time>2026-04-12T07:35:50.998Z</time></trkpt><trkpt lat="44.895310621017316" lon="9.860079969500017"><ele>102.0</ele><time>2026-04-12T07:35:51.998Z</time></trkpt><trkpt lat="44.895242363143424" lon="9.86004928798781"><ele>102.0</ele><time>2026-04-12T07:35:52.998Z</time></trkpt><trkpt lat="44.895174763487034" lon="9.860021031592538"><ele>102.0</ele><time>2026-04-12T07:35:53.998Z</time></trkpt><trkpt lat="44.89510697322208" lon="9.859991187367916"><ele>102.0</ele><time>2026-04-12T07:35:54.998Z</time></trkpt><trkpt lat="44.8950393225206" lon="9.859961748539662"><ele>102.0</ele><time>2026-04-12T07:35:55.998Z</time></trkpt><trkpt lat="44.894973266220376" lon="9.85992855961111"><ele>102.0</ele><time>2026-04-12T07:35:56.998Z</time></trkpt><trkpt lat="44.89490697604626" lon="9.859898110458623"><ele>102.0</ele><time>2026-04-12T07:35:57.998Z</time></trkpt><trkpt lat="44.89484209845707" lon="9.859865155518888"><ele>102.0</ele><time>2026-04-12T07:35:58.998Z</time></trkpt><trkpt lat="44.89478008825314" lon="9.859817762367552"><ele>102.0</ele><time>2026-04-12T07:35:59.998Z</time></trkpt><trkpt lat="44.89472712161112" lon="9.859754434136585"><ele>102.0</ele><time>2026-04-12T07:36:00.998Z</time></trkpt><trkpt lat="44.89468650104905" lon="9.85967136488691"><ele>102.0</ele><time>2026-04-12T07:36:01.998Z</time></trkpt><trkpt lat="44.89466302141561" lon="9.859579755271042"><ele>102.0</ele><time>2026-04-12T07:36:02.998Z</time></trkpt><trkpt lat="44.89465687554739" lon="9.859479514174257"><ele>102.0</ele><time>2026-04-12T07:36:03.998Z</time></trkpt><trkpt lat="44.89465852116671" lon="9.859381068052663"><ele>102.0</ele><time>2026-04-12T07:36:04.998Z</time></trkpt><trkpt lat="44.89466123018858" lon="9.85928582483815"><ele>102.0</ele><time>2026-04-12T07:36:05.998Z</time></trkpt><trkpt lat="44.89465865342853" lon="9.85919177730338"><ele>102.0</ele><time>2026-04-12T07:36:06.998Z</time></trkpt><trkpt lat="44.89465335302784" lon="9.859097797522779"><ele>102.0</ele><time>2026-04-12T07:36:07.998Z</time></trkpt><trkpt lat="44.894647804946786" lon="9.859005503283058"><ele>102.0</ele><time>2026-04-12T07:36:08.998Z</time></trkpt><trkpt lat="44.89464529009895" lon="9.858913241098804"><ele>102.28571428571429</ele><time>2026-04-12T07:36:09.998Z</time></trkpt><trkpt lat="44.894641670621084" lon="9.858822071680422"><ele>102.57142857142858</ele><time>2026-04-12T07:36:10.998Z</time></trkpt><trkpt lat="44.89463809613168" lon="9.858729673088936"><ele>102.85714285714286</ele><time>2026-04-12T07:36:11.998Z</time></trkpt><trkpt lat="44.894633233720654" lon="9.858638685909915"><ele>103.14285714285714</ele><time>2026-04-12T07:36:12.998Z</time></trkpt><trkpt lat="44.89463073302514" lon="9.858545803784503"><ele>103.42857142857143</ele><time>2026-04-12T07:36:13.998Z</time></trkpt><trkpt lat="44.894627532354455" lon="9.858456976547785"><ele>103.71428571428571</ele><time>2026-04-12T07:36:14.998Z</time></trkpt><trkpt lat="44.89462342990678" lon="9.858364347857057"><ele>104.0</ele><time>2026-04-12T07:36:15.998Z</time></trkpt><trkpt lat="44.89462015047261" lon="9.858273246279614"><ele>104.80000000000001</ele><time>2026-04-12T07:36:16.998Z</time></trkpt><trkpt lat="44.894613871984774" lon="9.858091529066439"><ele>105.60000000000001</ele><time>2026-04-12T07:36:18.998Z</time></trkpt><trkpt lat="44.89461132208988" lon="9.857909736610704"><ele>106.4</ele><time>2026-04-12T07:36:20.999Z</time></trkpt><trkpt lat="44.894607743739485" lon="9.85781986706114"><ele>107.2</ele><time>2026-04-12T07:36:21.999Z</time></trkpt><trkpt lat="44.89460507643484" lon="9.857728442821388"><ele>108.0</ele><time>2026-04-12T07:36:22.999Z</time></trkpt><trkpt lat="44.894603487327515" lon="9.857638923377138"><ele>108.2</ele><time>2026-04-12T07:36:23.999Z</time></trkpt><trkpt lat="44.89459994627126" lon="9.857547791536945"><ele>108.4</ele><time>2026-04-12T07:36:24.999Z</time></trkpt><trkpt lat="44.8945985590544" lon="9.857453090331566"><ele>108.60000000000001</ele><time>2026-04-12T07:36:25.999Z</time></trkpt><trkpt lat="44.89459846670049" lon="9.857272976943843"><ele>108.80000000000001</ele><time>2026-04-12T07:36:27.999Z</time></trkpt><trkpt lat="44.894590369425046" lon="9.857091760422383"><ele>109.0</ele><time>2026-04-12T07:36:29.999Z</time></trkpt><trkpt lat="44.894586259857924" lon="9.857001012605117"><ele>109.00000000000001</ele><time>2026-04-12T07:36:30.999Z</time></trkpt><trkpt lat="44.89457215381694" lon="9.856912266258119"><ele>109.0</ele><time>2026-04-12T07:36:31.998Z</time></trkpt><trkpt lat="44.89454366122939" lon="9.856828428098567"><ele>109.0</ele><time>2026-04-12T07:36:32.998Z</time></trkpt><trkpt lat="44.894437446439404" lon="9.856714334342447"><ele>109.0</ele><time>2026-04-12T07:36:35.001Z</time></trkpt><trkpt lat="44.89437522856719" lon="9.856678863569348"><ele>109.00000000000001</ele><time>2026-04-12T07:36:36.001Z</time></trkpt><trkpt lat="44.8943109294453" lon="9.856656346754724"><ele>109.0</ele><time>2026-04-12T07:36:37Z</time></trkpt><trkpt lat="44.89424822746001" lon="9.856632688119493"><ele>109.42857142857143</ele><time>2026-04-12T07:36:38.001Z</time></trkpt><trkpt lat="44.89418711620484" lon="9.856607507915362"><ele>109.85714285714286</ele><time>2026-04-12T07:36:39.001Z</time></trkpt><trkpt lat="44.89412658794166" lon="9.856576993008032"><ele>110.28571428571428</ele><time>2026-04-12T07:36:40Z</time></trkpt><trkpt lat="44.894068066914876" lon="9.856542014558187"><ele>110.71428571428572</ele><time>2026-04-12T07:36:41.001Z</time></trkpt><trkpt lat="44.89401038412564" lon="9.856500387998663"><ele>111.14285714285714</ele><time>2026-04-12T07:36:42.001Z</time></trkpt><trkpt lat="44.893960663681405" lon="9.856445612182709"><ele>111.57142857142857</ele><time>2026-04-12T07:36:43Z</time></trkpt><trkpt lat="44.89392616612409" lon="9.856366091043387"><ele>112.0</ele><time>2026-04-12T07:36:44.001Z</time></trkpt><trkpt lat="44.893921225552845" lon="9.856267013136925"><ele>112.0</ele><time>2026-04-12T07:36:45.001Z</time></trkpt><trkpt lat="44.89394299700827" lon="9.856165083907959"><ele>112.0</ele><time>2026-04-12T07:36:46Z</time></trkpt><trkpt lat="44.893963448676466" lon="9.85606849394923"><ele>112.0</ele><time>2026-04-12T07:36:47Z</time></trkpt><trkpt lat="44.89397819421272" lon="9.855971492916364"><ele>112.0</ele><time>2026-04-12T07:36:48.001Z</time></trkpt><trkpt lat="44.89398963484497" lon="9.855873124733414"><ele>112.0</ele><time>2026-04-12T07:36:49Z</time></trkpt><trkpt lat="44.893999490295585" lon="9.855773257841143"><ele>112.0</ele><time>2026-04-12T07:36:50Z</time></trkpt><trkpt lat="44.89400991542283" lon="9.855670075829973"><ele>112.0</ele><time>2026-04-12T07:36:51Z</time></trkpt><trkpt lat="44.89401977186875" lon="9.85556812459393"><ele>112.00000000000001</ele><time>2026-04-12T07:36:52Z</time></trkpt><trkpt lat="44.89403132033933" lon="9.85546495659215"><ele>112.0</ele><time>2026-04-12T07:36:53Z</time></trkpt><trkpt lat="44.89404516705433" lon="9.855358271781324"><ele>112.0</ele><time>2026-04-12T07:36:54Z</time></trkpt><trkpt lat="44.89405910082765" lon="9.855252842291916"><ele>112.0</ele><time>2026-04-12T07:36:55Z</time></trkpt><trkpt lat="44.89407408250305" lon="9.85514481760239"><ele>112.00000000000001</ele><time>2026-04-12T07:36:56Z</time></trkpt><trkpt lat="44.89408742081026" lon="9.855036240022732"><ele>112.0</ele><time>2026-04-12T07:36:57Z</time></trkpt><trkpt lat="44.89409865307633" lon="9.854926110257063"><ele>112.00000000000001</ele><time>2026-04-12T07:36:58Z</time></trkpt><trkpt lat="44.894108548848195" lon="9.854816074511065"><ele>112.0</ele><time>2026-04-12T07:36:59Z</time></trkpt><trkpt lat="44.89411881528878" lon="9.854705294236965"><ele>112.0</ele><time>2026-04-12T07:37:00Z</time></trkpt><trkpt lat="44.89413199853667" lon="9.854590092970298"><ele>112.0</ele><time>2026-04-12T07:37:01Z</time></trkpt><trkpt lat="44.894145727586164" lon="9.854478355751034"><ele>112.00000000000001</ele><time>2026-04-12T07:37:02Z</time></trkpt><trkpt lat="44.89416051737269" lon="9.854361137364393"><ele>112.0</ele><time>2026-04-12T07:37:03Z</time></trkpt><trkpt lat="44.89417521698958" lon="9.854245408648588"><ele>111.83333333333334</ele><time>2026-04-12T07:37:04Z</time></trkpt><trkpt lat="44.89418922624881" lon="9.854129430677553"><ele>111.66666666666667</ele><time>2026-04-12T07:37:05Z</time></trkpt><trkpt lat="44.894201808907624" lon="9.85401102326761"><ele>111.5</ele><time>2026-04-12T07:37:06Z</time></trkpt><trkpt lat="44.89421481504674" lon="9.853892093203488"><ele>111.33333333333334</ele><time>2026-04-12T07:37:07Z</time></trkpt><trkpt lat="44.89424335616677" lon="9.853777354767033"><ele>111.16666666666667</ele><time>2026-04-12T07:37:08Z</time></trkpt><trkpt lat="44.89425772189405" lon="9.853658537867464"><ele>111.0</ele><time>2026-04-12T07:37:09Z</time></trkpt><trkpt lat="44.894272180688205" lon="9.853538951129876"><ele>110.33333333333333</ele><time>2026-04-12T07:37:10Z</time></trkpt><trkpt lat="44.894286406640646" lon="9.853421290344679"><ele>109.66666666666666</ele><time>2026-04-12T07:37:11Z</time></trkpt><trkpt lat="44.89428462355644" lon="9.853300002441912"><ele>109.0</ele><time>2026-04-12T07:37:12Z</time></trkpt><trkpt lat="44.89431483994208" lon="9.853186866198781"><ele>108.33333333333333</ele><time>2026-04-12T07:37:13Z</time></trkpt><trkpt lat="44.89432883834259" lon="9.853071677794448"><ele>107.66666666666666</ele><time>2026-04-12T07:37:14Z</time></trkpt><trkpt lat="44.894342824817144" lon="9.8529565877739"><ele>107.0</ele><time>2026-04-12T07:37:15Z</time></trkpt><trkpt lat="44.894356640975836" lon="9.852840735970071"><ele>106.99999999999999</ele><time>2026-04-12T07:37:16Z</time></trkpt><trkpt lat="44.89435339339735" lon="9.852723200291054"><ele>107.0</ele><time>2026-04-12T07:37:17Z</time></trkpt><trkpt lat="44.89436715259898" lon="9.852611011527884"><ele>107.0</ele><time>2026-04-12T07:37:18Z</time></trkpt><trkpt lat="44.89438081776857" lon="9.85249845645264"><ele>107.0</ele><time>2026-04-12T07:37:19Z</time></trkpt><trkpt lat="44.89439482999341" lon="9.85238635693624"><ele>106.99999999999999</ele><time>2026-04-12T07:37:20Z</time></trkpt><trkpt lat="44.894407647352246" lon="9.852273048061056"><ele>107.0</ele><time>2026-04-12T07:37:21Z</time></trkpt><trkpt lat="44.894421835296654" lon="9.852163801216962"><ele>107.49999999999999</ele><time>2026-04-12T07:37:22Z</time></trkpt><trkpt lat="44.8944368476151" lon="9.852052619556655"><ele>108.0</ele><time>2026-04-12T07:37:23Z</time></trkpt><trkpt lat="44.89445290184249" lon="9.851944356620978"><ele>108.5</ele><time>2026-04-12T07:37:24Z</time></trkpt><trkpt lat="44.89446403505487" lon="9.851836321433945"><ele>109.0</ele><time>2026-04-12T07:37:25Z</time></trkpt><trkpt lat="44.8944775143662" lon="9.85172977587864"><ele>109.49999999999999</ele><time>2026-04-12T07:37:26Z</time></trkpt><trkpt lat="44.89448952345465" lon="9.851622705701365"><ele>110.0</ele><time>2026-04-12T07:37:27Z</time></trkpt><trkpt lat="44.89450283319947" lon="9.851515057037409"><ele>110.33333333333333</ele><time>2026-04-12T07:37:28Z</time></trkpt><trkpt lat="44.894514433256674" lon="9.851409803242014"><ele>110.66666666666666</ele><time>2026-04-12T07:37:29Z</time></trkpt><trkpt lat="44.89452262967545" lon="9.85130409305651"><ele>111.0</ele><time>2026-04-12T07:37:30Z</time></trkpt><trkpt lat="44.894529215311934" lon="9.851198127435465"><ele>111.33333333333334</ele><time>2026-04-12T07:37:31Z</time></trkpt><trkpt lat="44.89452531559244" lon="9.851090660206493"><ele>111.66666666666667</ele><time>2026-04-12T07:37:32Z</time></trkpt><trkpt lat="44.894518885154525" lon="9.850976449862916"><ele>112.0</ele><time>2026-04-12T07:37:33Z</time></trkpt><trkpt lat="44.89445398059188" lon="9.850878516552525"><ele>112.16666666666667</ele><time>2026-04-12T07:37:34Z</time></trkpt><trkpt lat="44.894399531977626" lon="9.850790983191791"><ele>112.33333333333334</ele><time>2026-04-12T07:37:35Z</time></trkpt><trkpt lat="44.89427978101492" lon="9.85081157531847"><ele>112.5</ele><time>2026-04-12T07:37:36Z</time></trkpt><trkpt lat="44.89419872395224" lon="9.850797760454574"><ele>112.66666666666666</ele><time>2026-04-12T07:37:37Z</time></trkpt><trkpt lat="44.89412091335621" lon="9.850772288923023"><ele>112.83333333333333</ele><time>2026-04-12T07:37:38Z</time></trkpt><trkpt lat="44.89404331003444" lon="9.85076328984729"><ele>113.0</ele><time>2026-04-12T07:37:39Z</time></trkpt><trkpt lat="44.89396680956467" lon="9.850754632165694"><ele>113.0</ele><time>2026-04-12T07:37:40Z</time></trkpt><trkpt lat="44.89388899923812" lon="9.85074582624466"><ele>113.0</ele><time>2026-04-12T07:37:40.999Z</time></trkpt><trkpt lat="44.89381655701041" lon="9.850737627858164"><ele>113.0</ele><time>2026-04-12T07:37:41.999Z</time></trkpt><trkpt lat="44.89374141392641" lon="9.850729123804877"><ele>113.0</ele><time>2026-04-12T07:37:42.999Z</time></trkpt><trkpt lat="44.89366594150741" lon="9.850721888460335"><ele>113.0</ele><time>2026-04-12T07:37:43.999Z</time></trkpt><trkpt lat="44.893592765053654" lon="9.850713511123569"><ele>113.0</ele><time>2026-04-12T07:37:44.999Z</time></trkpt><trkpt lat="44.893521576405305" lon="9.85069649469831"><ele>113.0</ele><time>2026-04-12T07:37:45.999Z</time></trkpt><trkpt lat="44.89345814988352" lon="9.850670301984435"><ele>112.99999999999999</ele><time>2026-04-12T07:37:46.999Z</time></trkpt><trkpt lat="44.893424033177745" lon="9.850568933044253"><ele>113.0</ele><time>2026-04-12T07:37:47.999Z</time></trkpt><trkpt lat="44.8934575024171" lon="9.850444302712031"><ele>113.0</ele><time>2026-04-12T07:37:48.999Z</time></trkpt><trkpt lat="44.89345239476061" lon="9.850325351110264"><ele>113.0</ele><time>2026-04-12T07:37:49.999Z</time></trkpt><trkpt lat="44.8934672690503" lon="9.850211408485919"><ele>112.99999999999999</ele><time>2026-04-12T07:37:50.999Z</time></trkpt><trkpt lat="44.89348200125722" lon="9.850092831328135"><ele>113.0</ele><time>2026-04-12T07:37:51.999Z</time></trkpt><trkpt lat="44.89349057030699" lon="9.849977926129684"><ele>112.66666666666666</ele><time>2026-04-12T07:37:52.999Z</time></trkpt><trkpt lat="44.893498950782" lon="9.84985872081446"><ele>112.33333333333333</ele><time>2026-04-12T07:37:53.999Z</time></trkpt><trkpt lat="44.89350950267797" lon="9.849740109310725"><ele>112.0</ele><time>2026-04-12T07:37:54.999Z</time></trkpt><trkpt lat="44.89351997487656" lon="9.849617970872384"><ele>111.66666666666666</ele><time>2026-04-12T07:37:55.999Z</time></trkpt><trkpt lat="44.89353081678759" lon="9.849497040934713"><ele>111.33333333333333</ele><time>2026-04-12T07:37:56.999Z</time></trkpt><trkpt lat="44.89353768348936" lon="9.849374394018339"><ele>111.0</ele><time>2026-04-12T07:37:57.999Z</time></trkpt><trkpt lat="44.89354698038481" lon="9.84925358909009"><ele>110.5</ele><time>2026-04-12T07:37:58.999Z</time></trkpt><trkpt lat="44.89355646061717" lon="9.849132735069002"><ele>110.0</ele><time>2026-04-12T07:37:59.999Z</time></trkpt><trkpt lat="44.893565707449305" lon="9.849014048896906"><ele>109.5</ele><time>2026-04-12T07:38:00.999Z</time></trkpt><trkpt lat="44.893576960714455" lon="9.848894818158547"><ele>109.0</ele><time>2026-04-12T07:38:01.999Z</time></trkpt><trkpt lat="44.89358798419643" lon="9.848777152982395"><ele>108.5</ele><time>2026-04-12T07:38:02.999Z</time></trkpt><trkpt lat="44.89359735700185" lon="9.848661342919238"><ele>108.0</ele><time>2026-04-12T07:38:03.999Z</time></trkpt><trkpt lat="44.89360714088031" lon="9.84854597419473"><ele>107.83333333333333</ele><time>2026-04-12T07:38:04.999Z</time></trkpt><trkpt lat="44.89361879143605" lon="9.84843068977423"><ele>107.66666666666666</ele><time>2026-04-12T07:38:05.999Z</time></trkpt><trkpt lat="44.89363225402913" lon="9.848319458704529"><ele>107.5</ele><time>2026-04-12T07:38:06.999Z</time></trkpt><trkpt lat="44.893644421157234" lon="9.848206338719782"><ele>107.33333333333333</ele><time>2026-04-12T07:38:07.999Z</time></trkpt><trkpt lat="44.893653388744575" lon="9.848095887565128"><ele>107.16666666666666</ele><time>2026-04-12T07:38:08.999Z</time></trkpt><trkpt lat="44.89365882795659" lon="9.84798274103786"><ele>107.0</ele><time>2026-04-12T07:38:09.999Z</time></trkpt><trkpt lat="44.8936528434999" lon="9.847875963579103"><ele>106.99999999999999</ele><time>2026-04-12T07:38:10.999Z</time></trkpt><trkpt lat="44.89363752678285" lon="9.847766365205354"><ele>107.0</ele><time>2026-04-12T07:38:11.999Z</time></trkpt><trkpt lat="44.893605195443925" lon="9.847669523209108"><ele>107.0</ele><time>2026-04-12T07:38:12.999Z</time></trkpt><trkpt lat="44.89356180595283" lon="9.847580957392326"><ele>107.0</ele><time>2026-04-12T07:38:13.999Z</time></trkpt><trkpt lat="44.89352655286241" lon="9.84749108519861"><ele>106.99999999999999</ele><time>2026-04-12T07:38:14.999Z</time></trkpt><trkpt lat="44.89350202084686" lon="9.847388232661709"><ele>107.0</ele><time>2026-04-12T07:38:15.999Z</time></trkpt><trkpt lat="44.893483895008046" lon="9.847287011418652"><ele>107.28571428571429</ele><time>2026-04-12T07:38:16.999Z</time></trkpt><trkpt lat="44.89348001617259" lon="9.847184726387571"><ele>107.57142857142857</ele><time>2026-04-12T07:38:17.999Z</time></trkpt><trkpt lat="44.89349161837617" lon="9.847082450750131"><ele>107.85714285714286</ele><time>2026-04-12T07:38:18.999Z</time></trkpt><trkpt lat="44.89350733291818" lon="9.846977717207562"><ele>108.14285714285714</ele><time>2026-04-12T07:38:19.999Z</time></trkpt><trkpt lat="44.893523895400826" lon="9.846873346360711"><ele>108.42857142857143</ele><time>2026-04-12T07:38:20.999Z</time></trkpt><trkpt lat="44.893541049258125" lon="9.846770409633345"><ele>108.71428571428572</ele><time>2026-04-12T07:38:21.999Z</time></trkpt><trkpt lat="44.893558682812994" lon="9.846665103962046"><ele>109.0</ele><time>2026-04-12T07:38:22.999Z</time></trkpt><trkpt lat="44.89357979719449" lon="9.846561424899692"><ele>109.66666666666667</ele><time>2026-04-12T07:38:23.999Z</time></trkpt><trkpt lat="44.89359629721043" lon="9.846458981750047"><ele>110.33333333333334</ele><time>2026-04-12T07:38:24.999Z</time></trkpt><trkpt lat="44.89361867953256" lon="9.846349354840282"><ele>111.0</ele><time>2026-04-12T07:38:25.999Z</time></trkpt><trkpt lat="44.893644002078894" lon="9.846251605152291"><ele>111.66666666666666</ele><time>2026-04-12T07:38:26.999Z</time></trkpt><trkpt lat="44.893672061144066" lon="9.846145838010372"><ele>112.33333333333333</ele><time>2026-04-12T07:38:27.999Z</time></trkpt><trkpt lat="44.89370277844775" lon="9.846038844433094"><ele>113.0</ele><time>2026-04-12T07:38:28.999Z</time></trkpt><trkpt lat="44.89372725368585" lon="9.845939082489267"><ele>112.99999999999999</ele><time>2026-04-12T07:38:29.999Z</time></trkpt><trkpt lat="44.89376168669333" lon="9.84583537349452"><ele>113.0</ele><time>2026-04-12T07:38:30.999Z</time></trkpt><trkpt lat="44.89379052705587" lon="9.845735125445362"><ele>113.0</ele><time>2026-04-12T07:38:31.999Z</time></trkpt><trkpt lat="44.89381941104555" lon="9.845634590926172"><ele>113.0</ele><time>2026-04-12T07:38:32.999Z</time></trkpt><trkpt lat="44.89384927744967" lon="9.845533593850082"><ele>112.99999999999999</ele><time>2026-04-12T07:38:33.998Z</time></trkpt><trkpt lat="44.8938771664786" lon="9.845434250869575"><ele>113.0</ele><time>2026-04-12T07:38:34.998Z</time></trkpt><trkpt lat="44.893900033268686" lon="9.845332586216633"><ele>112.99999999999999</ele><time>2026-04-12T07:38:35.998Z</time></trkpt><trkpt lat="44.89390112350674" lon="9.845222699874801"><ele>113.0</ele><time>2026-04-12T07:38:36.998Z</time></trkpt><trkpt lat="44.89388225571658" lon="9.845116340814632"><ele>113.0</ele><time>2026-04-12T07:38:37.998Z</time></trkpt><trkpt lat="44.8938208177808" lon="9.845033622248758"><ele>113.0</ele><time>2026-04-12T07:38:38.998Z</time></trkpt><trkpt lat="44.893738333349596" lon="9.84499037091621"><ele>112.99999999999999</ele><time>2026-04-12T07:38:39.998Z</time></trkpt><trkpt lat="44.89365335209411" lon="9.844991596605214"><ele>113.0</ele><time>2026-04-12T07:38:41Z</time></trkpt><trkpt lat="44.89357400743423" lon="9.845004685526924"><ele>112.99999999999999</ele><time>2026-04-12T07:38:42Z</time></trkpt><trkpt lat="44.89349783791151" lon="9.84501172796669"><ele>113.0</ele><time>2026-04-12T07:38:43Z</time></trkpt><trkpt lat="44.89342101458776" lon="9.845010415730366"><ele>113.0</ele><time>2026-04-12T07:38:44Z</time></trkpt><trkpt lat="44.893341919240264" lon="9.845007881218248"><ele>113.0</ele><time>2026-04-12T07:38:45Z</time></trkpt><trkpt lat="44.893265074838965" lon="9.84500612010937"><ele>112.99999999999999</ele><time>2026-04-12T07:38:46Z</time></trkpt><trkpt lat="44.893188140170246" lon="9.845007165482548"><ele>113.0</ele><time>2026-04-12T07:38:47Z</time></trkpt><trkpt lat="44.893110822309445" lon="9.845009905183545"><ele>113.16666666666666</ele><time>2026-04-12T07:38:48Z</time></trkpt><trkpt lat="44.893032912104545" lon="9.84501218943894"><ele>113.33333333333333</ele><time>2026-04-12T07:38:49Z</time></trkpt><trkpt lat="44.89295527869221" lon="9.845015018716072"><ele>113.5</ele><time>2026-04-12T07:38:50Z</time></trkpt><trkpt lat="44.89287696216917" lon="9.844981991585682"><ele>113.66666666666666</ele><time>2026-04-12T07:38:51Z</time></trkpt><trkpt lat="44.89280208494664" lon="9.844987537304117"><ele>113.83333333333333</ele><time>2026-04-12T07:38:52Z</time></trkpt><trkpt lat="44.89272795042217" lon="9.845017477347218"><ele>114.0</ele><time>2026-04-12T07:38:53Z</time></trkpt><trkpt lat="44.89265241983055" lon="9.845025874631073"><ele>114.16666666666667</ele><time>2026-04-12T07:38:54Z</time></trkpt><trkpt lat="44.89257717776332" lon="9.845036846071148"><ele>114.33333333333334</ele><time>2026-04-12T07:38:55Z</time></trkpt><trkpt lat="44.8925026201116" lon="9.84505210601025"><ele>114.5</ele><time>2026-04-12T07:38:56Z</time></trkpt><trkpt lat="44.89242598651018" lon="9.845064505297383"><ele>114.66666666666667</ele><time>2026-04-12T07:38:57Z</time></trkpt><trkpt lat="44.89235292226994" lon="9.845080737827526"><ele>114.83333333333334</ele><time>2026-04-12T07:38:58Z</time></trkpt><trkpt lat="44.8922783214715" lon="9.845096208614434"><ele>115.0</ele><time>2026-04-12T07:38:59Z</time></trkpt><trkpt lat="44.89220496656259" lon="9.845114097035268"><ele>114.99999999999999</ele><time>2026-04-12T07:39:00Z</time></trkpt><trkpt lat="44.89213052501275" lon="9.845131170312184"><ele>115.0</ele><time>2026-04-12T07:39:01Z</time></trkpt><trkpt lat="44.89205816760017" lon="9.845153999982228"><ele>114.99999999999999</ele><time>2026-04-12T07:39:02Z</time></trkpt><trkpt lat="44.89198619946969" lon="9.845180265519586"><ele>114.99999999999999</ele><time>2026-04-12T07:39:03Z</time></trkpt><trkpt lat="44.891914547366746" lon="9.845209181148519"><ele>115.0</ele><time>2026-04-12T07:39:04Z</time></trkpt><trkpt lat="44.8918419357394" lon="9.845236759517423"><ele>114.99999999999999</ele><time>2026-04-12T07:39:05Z</time></trkpt><trkpt lat="44.89176953760804" lon="9.845264850790295"><ele>114.99999999999999</ele><time>2026-04-12T07:39:06Z</time></trkpt><trkpt lat="44.891695662749676" lon="9.845294006638694"><ele>115.00000000000001</ele><time>2026-04-12T07:39:07Z</time></trkpt><trkpt lat="44.891623556194745" lon="9.845322301835592"><ele>115.0</ele><time>2026-04-12T07:39:08Z</time></trkpt><trkpt lat="44.89154633677947" lon="9.845329434990811"><ele>115.0</ele><time>2026-04-12T07:39:09Z</time></trkpt><trkpt lat="44.891478124591444" lon="9.845375896699538"><ele>115.0</ele><time>2026-04-12T07:39:10Z</time></trkpt><trkpt lat="44.89140446733452" lon="9.84540194036597"><ele>115.00000000000001</ele><time>2026-04-12T07:39:11Z</time></trkpt><trkpt lat="44.89133145807878" lon="9.845427803661808"><ele>115.0</ele><time>2026-04-12T07:39:12Z</time></trkpt><trkpt lat="44.89125852683297" lon="9.845457211022842"><ele>115.00000000000001</ele><time>2026-04-12T07:39:13Z</time></trkpt><trkpt lat="44.89118645253923" lon="9.845484951315408"><ele>115.0</ele><time>2026-04-12T07:39:14Z</time></trkpt><trkpt lat="44.8911139013325" lon="9.845512084496194"><ele>115.0</ele><time>2026-04-12T07:39:15Z</time></trkpt><trkpt lat="44.89104223828657" lon="9.845537986154792"><ele>115.0</ele><time>2026-04-12T07:39:16Z</time></trkpt><trkpt lat="44.89096840682703" lon="9.845563411213181"><ele>115.00000000000001</ele><time>2026-04-12T07:39:17Z</time></trkpt><trkpt lat="44.89089644351877" lon="9.84558998593182"><ele>115.0</ele><time>2026-04-12T07:39:18Z</time></trkpt><trkpt lat="44.89082375258298" lon="9.845619957867846"><ele>114.99999999999999</ele><time>2026-04-12T07:39:19Z</time></trkpt><trkpt lat="44.890751028252794" lon="9.84564809797421"><ele>115.0</ele><time>2026-04-12T07:39:20Z</time></trkpt><trkpt lat="44.89067832500146" lon="9.845673009563496"><ele>114.99999999999999</ele><time>2026-04-12T07:39:21Z</time></trkpt><trkpt lat="44.89060611099676" lon="9.845698062528896"><ele>114.99999999999999</ele><time>2026-04-12T07:39:22Z</time></trkpt><trkpt lat="44.890533200165954" lon="9.84572376635329"><ele>115.0</ele><time>2026-04-12T07:39:23Z</time></trkpt><trkpt lat="44.89046124420501" lon="9.84574736024118"><ele>114.99999999999999</ele><time>2026-04-12T07:39:24Z</time></trkpt><trkpt lat="44.89038958034069" lon="9.845774503971544"><ele>114.99999999999999</ele><time>2026-04-12T07:39:25Z</time></trkpt><trkpt lat="44.89031890861393" lon="9.84580169971446"><ele>114.99999999999999</ele><time>2026-04-12T07:39:26Z</time></trkpt><trkpt lat="44.89024862994984" lon="9.845830579416743"><ele>115.0</ele><time>2026-04-12T07:39:27Z</time></trkpt><trkpt lat="44.89017760848748" lon="9.845857957604741"><ele>114.99999999999999</ele><time>2026-04-12T07:39:28Z</time></trkpt><trkpt lat="44.890105331686094" lon="9.845884076643236"><ele>114.99999999999999</ele><time>2026-04-12T07:39:29Z</time></trkpt><trkpt lat="44.89003416835115" lon="9.845910038527872"><ele>115.0</ele><time>2026-04-12T07:39:30Z</time></trkpt><trkpt lat="44.889963476529" lon="9.845937760749395"><ele>114.99999999999999</ele><time>2026-04-12T07:39:31Z</time></trkpt><trkpt lat="44.88989250095966" lon="9.845961431301301"><ele>114.99999999999999</ele><time>2026-04-12T07:39:32Z</time></trkpt><trkpt lat="44.889820915022746" lon="9.84598441270683"><ele>115.42857142857142</ele><time>2026-04-12T07:39:33Z</time></trkpt><trkpt lat="44.88974965219339" lon="9.846005635256553"><ele>115.85714285714286</ele><time>2026-04-12T07:39:34Z</time></trkpt><trkpt lat="44.88967674165368" lon="9.846029611186731"><ele>116.28571428571428</ele><time>2026-04-12T07:39:35Z</time></trkpt><trkpt lat="44.889605666718076" lon="9.846057396730838"><ele>116.71428571428571</ele><time>2026-04-12T07:39:36Z</time></trkpt><trkpt lat="44.88953547579678" lon="9.846084189244774"><ele>117.14285714285714</ele><time>2026-04-12T07:39:37Z</time></trkpt><trkpt lat="44.8894653733047" lon="9.84610977148832"><ele>117.57142857142857</ele><time>2026-04-12T07:39:38Z</time></trkpt><trkpt lat="44.889396542360046" lon="9.846138818334225"><ele>118.0</ele><time>2026-04-12T07:39:39Z</time></trkpt><trkpt lat="44.889327180017" lon="9.846177071656872"><ele>118.14285714285714</ele><time>2026-04-12T07:39:40Z</time></trkpt><trkpt lat="44.88925879872143" lon="9.84620854534309"><ele>118.28571428571429</ele><time>2026-04-12T07:39:41Z</time></trkpt><trkpt lat="44.88918830533003" lon="9.846233634455142"><ele>118.42857142857143</ele><time>2026-04-12T07:39:42Z</time></trkpt><trkpt lat="44.88911584658644" lon="9.846251004282886"><ele>118.57142857142857</ele><time>2026-04-12T07:39:43Z</time></trkpt><trkpt lat="44.88904280504034" lon="9.846264417441283"><ele>118.71428571428572</ele><time>2026-04-12T07:39:44Z</time></trkpt><trkpt lat="44.8889705981732" lon="9.846271314367295"><ele>118.85714285714286</ele><time>2026-04-12T07:39:45Z</time></trkpt><trkpt lat="44.88889808110685" lon="9.846278277853047"><ele>119.0</ele><time>2026-04-12T07:39:45.999Z</time></trkpt><trkpt lat="44.88882481892054" lon="9.846275602341224"><ele>119.0</ele><time>2026-04-12T07:39:46.999Z</time></trkpt><trkpt lat="44.88875072301446" lon="9.846271404068391"><ele>119.0</ele><time>2026-04-12T07:39:47.999Z</time></trkpt><trkpt lat="44.88867803919744" lon="9.846265276394957"><ele>119.0</ele><time>2026-04-12T07:39:48.999Z</time></trkpt><trkpt lat="44.88860988872416" lon="9.846263282792123"><ele>119.0</ele><time>2026-04-12T07:39:49.999Z</time></trkpt><trkpt lat="44.88853507365366" lon="9.846256798557844"><ele>119.0</ele><time>2026-04-12T07:39:50.999Z</time></trkpt><trkpt lat="44.888464120161636" lon="9.846254493290573"><ele>119.0</ele><time>2026-04-12T07:39:51.999Z</time></trkpt><trkpt lat="44.888391137036265" lon="9.846252506814901"><ele>119.0</ele><time>2026-04-12T07:39:52.999Z</time></trkpt><trkpt lat="44.88831917520702" lon="9.84625067554037"><ele>119.14285714285714</ele><time>2026-04-12T07:39:53.999Z</time></trkpt><trkpt lat="44.88824837879999" lon="9.846246310701844"><ele>119.28571428571428</ele><time>2026-04-12T07:39:54.999Z</time></trkpt><trkpt lat="44.888176616883506" lon="9.846237825201237"><ele>119.42857142857143</ele><time>2026-04-12T07:39:55.999Z</time></trkpt><trkpt lat="44.888105489333036" lon="9.846223188819536"><ele>119.57142857142857</ele><time>2026-04-12T07:39:56.999Z</time></trkpt><trkpt lat="44.888033749616355" lon="9.846198058056618"><ele>119.71428571428571</ele><time>2026-04-12T07:39:57.999Z</time></trkpt><trkpt lat="44.88796447598433" lon="9.846174294411053"><ele>119.85714285714286</ele><time>2026-04-12T07:39:58.999Z</time></trkpt><trkpt lat="44.88789215142069" lon="9.84614811847416"><ele>120.0</ele><time>2026-04-12T07:39:59.999Z</time></trkpt><trkpt lat="44.887824230082174" lon="9.846114388490184"><ele>120.0</ele><time>2026-04-12T07:40:00.999Z</time></trkpt><trkpt lat="44.887753252661724" lon="9.846084151745224"><ele>120.0</ele><time>2026-04-12T07:40:01.999Z</time></trkpt><trkpt lat="44.88768502909222" lon="9.846050529368837"><ele>120.0</ele><time>2026-04-12T07:40:02.999Z</time></trkpt><trkpt lat="44.88761361084456" lon="9.84602073511467"><ele>120.0</ele><time>2026-04-12T07:40:03.999Z</time></trkpt><trkpt lat="44.8875426116319" lon="9.845997774132163"><ele>120.0</ele><time>2026-04-12T07:40:04.999Z</time></trkpt><trkpt lat="44.887469091225384" lon="9.845984037050968"><ele>120.0</ele><time>2026-04-12T07:40:05.999Z</time></trkpt><trkpt lat="44.88739853300219" lon="9.845969754930994"><ele>120.0</ele><time>2026-04-12T07:40:06.999Z</time></trkpt><trkpt lat="44.88732942226109" lon="9.845954798040365"><ele>119.85714285714286</ele><time>2026-04-12T07:40:07.999Z</time></trkpt><trkpt lat="44.88725693337957" lon="9.845949856315926"><ele>119.71428571428571</ele><time>2026-04-12T07:40:08.999Z</time></trkpt><trkpt lat="44.88718394277046" lon="9.845941537802203"><ele>119.57142857142857</ele><time>2026-04-12T07:40:09.999Z</time></trkpt><trkpt lat="44.887112087411005" lon="9.845938483662456"><ele>119.42857142857143</ele><time>2026-04-12T07:40:10.999Z</time></trkpt><trkpt lat="44.88703946457044" lon="9.845929041627514"><ele>119.28571428571428</ele><time>2026-04-12T07:40:11.999Z</time></trkpt><trkpt lat="44.88696796802339" lon="9.845918871975908"><ele>119.14285714285714</ele><time>2026-04-12T07:40:12.999Z</time></trkpt><trkpt lat="44.88689853511699" lon="9.845921539545293"><ele>119.0</ele><time>2026-04-12T07:40:13.999Z</time></trkpt><trkpt lat="44.88682889714066" lon="9.845933070962257"><ele>119.42857142857143</ele><time>2026-04-12T07:40:14.999Z</time></trkpt><trkpt lat="44.88675996168593" lon="9.845960992972275"><ele>119.85714285714286</ele><time>2026-04-12T07:40:15.999Z</time></trkpt><trkpt lat="44.886696432112224" lon="9.846004842769956"><ele>120.28571428571428</ele><time>2026-04-12T07:40:16.999Z</time></trkpt><trkpt lat="44.88664733196802" lon="9.846067724351741"><ele>120.71428571428571</ele><time>2026-04-12T07:40:17.999Z</time></trkpt><trkpt lat="44.88659717993562" lon="9.846132584125584"><ele>121.14285714285714</ele><time>2026-04-12T07:40:18.999Z</time></trkpt><trkpt lat="44.886560338945884" lon="9.846208829098893"><ele>121.57142857142856</ele><time>2026-04-12T07:40:19.999Z</time></trkpt><trkpt lat="44.88652464638407" lon="9.846285480390002"><ele>121.99999999999999</ele><time>2026-04-12T07:40:20.999Z</time></trkpt><trkpt lat="44.88649304227144" lon="9.846364105749883"><ele>121.99999999999999</ele><time>2026-04-12T07:40:21.999Z</time></trkpt><trkpt lat="44.88645733220472" lon="9.846443803651672"><ele>122.0</ele><time>2026-04-12T07:40:22.999Z</time></trkpt><trkpt lat="44.88642836306982" lon="9.846523441214844"><ele>122.0</ele><time>2026-04-12T07:40:23.999Z</time></trkpt><trkpt lat="44.88640042661065" lon="9.846607653334846"><ele>122.0</ele><time>2026-04-12T07:40:24.999Z</time></trkpt><trkpt lat="44.8863583005868" lon="9.846774225621592"><ele>121.99999999999999</ele><time>2026-04-12T07:40:26.999Z</time></trkpt><trkpt lat="44.88634074185094" lon="9.84686206117828"><ele>122.0</ele><time>2026-04-12T07:40:27.999Z</time></trkpt><trkpt lat="44.886309652145414" lon="9.847035164086876"><ele>122.0</ele><time>2026-04-12T07:40:29.999Z</time></trkpt><trkpt lat="44.886273037971975" lon="9.847205649534619"><ele>121.99999999999999</ele><time>2026-04-12T07:40:31.999Z</time></trkpt><trkpt lat="44.8862433564068" lon="9.847373384156782"><ele>121.99999999999999</ele><time>2026-04-12T07:40:33.999Z</time></trkpt><trkpt lat="44.886224908145564" lon="9.84746029768624"><ele>122.0</ele><time>2026-04-12T07:40:34.999Z</time></trkpt><trkpt lat="44.88620889668671" lon="9.84754886750708"><ele>122.0</ele><time>2026-04-12T07:40:35.999Z</time></trkpt><trkpt lat="44.88617794584565" lon="9.847715799875441"><ele>121.83333333333333</ele><time>2026-04-12T07:40:37.999Z</time></trkpt><trkpt lat="44.88616767999891" lon="9.847807024075975"><ele>121.66666666666666</ele><time>2026-04-12T07:40:38.999Z</time></trkpt><trkpt lat="44.8861537647466" lon="9.847981315982706"><ele>121.5</ele><time>2026-04-12T07:40:40.998Z</time></trkpt><trkpt lat="44.886148523444355" lon="9.848070550016294"><ele>121.33333333333334</ele><time>2026-04-12T07:40:41.998Z</time></trkpt><trkpt lat="44.88614454775211" lon="9.848160728511335"><ele>121.16666666666667</ele><time>2026-04-12T07:40:42.998Z</time></trkpt><trkpt lat="44.886132295233324" lon="9.848332759862586"><ele>121.0</ele><time>2026-04-12T07:40:44.998Z</time></trkpt><trkpt lat="44.886127858589425" lon="9.848426862399254"><ele>121.25</ele><time>2026-04-12T07:40:45.998Z</time></trkpt><trkpt lat="44.88611569079437" lon="9.84860340040747"><ele>121.5</ele><time>2026-04-12T07:40:48Z</time></trkpt><trkpt lat="44.88609726279533" lon="9.848780584551493"><ele>121.75</ele><time>2026-04-12T07:40:50Z</time></trkpt><trkpt lat="44.88607014100684" lon="9.848951212670599"><ele>122.0</ele><time>2026-04-12T07:40:52Z</time></trkpt><trkpt lat="44.88603345758993" lon="9.849116965306171"><ele>122.0</ele><time>2026-04-12T07:40:54Z</time></trkpt><trkpt lat="44.88598621659215" lon="9.849268640240378"><ele>122.0</ele><time>2026-04-12T07:40:56Z</time></trkpt><trkpt lat="44.88592780948098" lon="9.849417002909858"><ele>122.0</ele><time>2026-04-12T07:40:58Z</time></trkpt><trkpt lat="44.885862596115174" lon="9.84956124781649"><ele>122.0</ele><time>2026-04-12T07:41:00Z</time></trkpt><trkpt lat="44.88579267022346" lon="9.84970331227255"><ele>122.75</ele><time>2026-04-12T07:41:02Z</time></trkpt><trkpt lat="44.8857212648249" lon="9.849840234877552"><ele>123.5</ele><time>2026-04-12T07:41:04Z</time></trkpt><trkpt lat="44.88564795632102" lon="9.84997521192665"><ele>124.25</ele><time>2026-04-12T07:41:06Z</time></trkpt><trkpt lat="44.88557618701137" lon="9.850114371579052"><ele>125.0</ele><time>2026-04-12T07:41:08Z</time></trkpt><trkpt lat="44.88550569502723" lon="9.850251707088686"><ele>125.0</ele><time>2026-04-12T07:41:10Z</time></trkpt><trkpt lat="44.88543449530764" lon="9.850383553716716"><ele>125.0</ele><time>2026-04-12T07:41:12Z</time></trkpt><trkpt lat="44.88535420243109" lon="9.85050856062735"><ele>125.0</ele><time>2026-04-12T07:41:14Z</time></trkpt><trkpt lat="44.88527071221577" lon="9.850618701157487"><ele>125.0</ele><time>2026-04-12T07:41:16Z</time></trkpt><trkpt lat="44.88518069882581" lon="9.850723974812118"><ele>125.75</ele><time>2026-04-12T07:41:18Z</time></trkpt><trkpt lat="44.88508297450525" lon="9.850811552397646"><ele>126.5</ele><time>2026-04-12T07:41:20Z</time></trkpt><trkpt lat="44.8849792642557" lon="9.850889903266076"><ele>127.25</ele><time>2026-04-12T07:41:22Z</time></trkpt><trkpt lat="44.884868936757464" lon="9.850915070897313"><ele>128.0</ele><time>2026-04-12T07:41:24Z</time></trkpt><trkpt lat="44.88476016219003" lon="9.850908557353922"><ele>128.0</ele><time>2026-04-12T07:41:26Z</time></trkpt><trkpt lat="44.88466066693191" lon="9.850854622430235"><ele>128.0</ele><time>2026-04-12T07:41:28Z</time></trkpt><trkpt lat="44.884560568032406" lon="9.850790575137745"><ele>128.0</ele><time>2026-04-12T07:41:30Z</time></trkpt><trkpt lat="44.88446361787349" lon="9.850723452213641"><ele>128.0</ele><time>2026-04-12T07:41:32Z</time></trkpt><trkpt lat="44.88437059559789" lon="9.85064839891628"><ele>128.0</ele><time>2026-04-12T07:41:34Z</time></trkpt><trkpt lat="44.88428167646274" lon="9.850567327598107"><ele>128.6</ele><time>2026-04-12T07:41:36Z</time></trkpt><trkpt lat="44.88419097117121" lon="9.850490671502772"><ele>129.20000000000002</ele><time>2026-04-12T07:41:38Z</time></trkpt><trkpt lat="44.88410404484439" lon="9.85041144085686"><ele>129.8</ele><time>2026-04-12T07:41:40Z</time></trkpt><trkpt lat="44.884028871997984" lon="9.85033525189961"><ele>130.4</ele><time>2026-04-12T07:41:42Z</time></trkpt><trkpt lat="44.88395885533606" lon="9.850266669676914"><ele>131.0</ele><time>2026-04-12T07:41:44Z</time></trkpt><trkpt lat="44.88390301970962" lon="9.850214173478971"><ele>131.0</ele><time>2026-04-12T07:41:46Z</time></trkpt><trkpt lat="44.883847865600735" lon="9.850156411451184"><ele>131.0</ele><time>2026-04-12T07:41:48Z</time></trkpt><trkpt lat="44.883789841026065" lon="9.850064301748365"><ele>131.0</ele><time>2026-04-12T07:41:50.999Z</time></trkpt><trkpt lat="44.883732819917455" lon="9.850003295606799"><ele>131.0</ele><time>2026-04-12T07:41:52.999Z</time></trkpt><trkpt lat="44.88365981736763" lon="9.849935500955599"><ele>131.0</ele><time>2026-04-12T07:41:54.999Z</time></trkpt><trkpt lat="44.88358518057789" lon="9.849891934814572"><ele>131.0</ele><time>2026-04-12T07:41:56.999Z</time></trkpt><trkpt lat="44.8835164659208" lon="9.84984734101537"><ele>130.83333333333331</ele><time>2026-04-12T07:41:58.999Z</time></trkpt><trkpt lat="44.88345565145698" lon="9.849793879582375"><ele>130.66666666666666</ele><time>2026-04-12T07:42:00.999Z</time></trkpt><trkpt lat="44.88339252100952" lon="9.849752743099277"><ele>130.5</ele><time>2026-04-12T07:42:02.999Z</time></trkpt><trkpt lat="44.88333055364899" lon="9.84970896965489"><ele>130.33333333333334</ele><time>2026-04-12T07:42:04.999Z</time></trkpt><trkpt lat="44.88325272757893" lon="9.849637169332661"><ele>130.16666666666669</ele><time>2026-04-12T07:42:07.999Z</time></trkpt><trkpt lat="44.88319826654601" lon="9.84956357294394"><ele>130.0</ele><time>2026-04-12T07:42:10.999Z</time></trkpt><trkpt lat="44.883128089000564" lon="9.849522110143624"><ele>130.0</ele><time>2026-04-12T07:43:44Z</time></trkpt><trkpt lat="44.88307295425249" lon="9.849473766350332"><ele>130.0</ele><time>2026-04-12T07:43:47Z</time></trkpt><trkpt lat="44.88301545506827" lon="9.849434335393015"><ele>130.0</ele><time>2026-04-12T07:43:49Z</time></trkpt><trkpt lat="44.88295215077217" lon="9.849381730706364"><ele>130.0</ele><time>2026-04-12T07:43:51Z</time></trkpt><trkpt lat="44.88288401814365" lon="9.849320174868552"><ele>130.0</ele><time>2026-04-12T07:43:53Z</time></trkpt><trkpt lat="44.882806105716874" lon="9.849261212852474"><ele>130.0</ele><time>2026-04-12T07:43:54.999Z</time></trkpt><trkpt lat="44.8827293288131" lon="9.849192788704672"><ele>129.8</ele><time>2026-04-12T07:43:56.999Z</time></trkpt><trkpt lat="44.88265094201214" lon="9.849127549113213"><ele>129.6</ele><time>2026-04-12T07:43:58.999Z</time></trkpt><trkpt lat="44.882573035895966" lon="9.849061787183123"><ele>129.4</ele><time>2026-04-12T07:44:00.999Z</time></trkpt><trkpt lat="44.882504160891315" lon="9.849008638062102"><ele>129.2</ele><time>2026-04-12T07:44:03.999Z</time></trkpt><trkpt lat="44.8824183343206" lon="9.848933511939476"><ele>129.0</ele><time>2026-04-12T07:44:04.999Z</time></trkpt><trkpt lat="44.88234137459875" lon="9.84887209677687"><ele>129.4</ele><time>2026-04-12T07:44:06.999Z</time></trkpt><trkpt lat="44.882261926133815" lon="9.848812613793491"><ele>129.8</ele><time>2026-04-12T07:44:08.999Z</time></trkpt><trkpt lat="44.88218105096731" lon="9.848751941885354"><ele>130.2</ele><time>2026-04-12T07:44:10.999Z</time></trkpt><trkpt lat="44.8820966207666" lon="9.84869251745843"><ele>130.6</ele><time>2026-04-12T07:44:12.999Z</time></trkpt><trkpt lat="44.882011162439284" lon="9.848639982161453"><ele>131.0</ele><time>2026-04-12T07:44:14.999Z</time></trkpt><trkpt lat="44.88192605104685" lon="9.848587421020607"><ele>131.0</ele><time>2026-04-12T07:44:16.999Z</time></trkpt><trkpt lat="44.88183945018862" lon="9.848533134542125"><ele>131.0</ele><time>2026-04-12T07:44:18.999Z</time></trkpt><trkpt lat="44.88175524605742" lon="9.848479289025468"><ele>131.0</ele><time>2026-04-12T07:44:20.999Z</time></trkpt><trkpt lat="44.881667878639654" lon="9.848431295729775"><ele>131.0</ele><time>2026-04-12T07:44:22.999Z</time></trkpt><trkpt lat="44.881571234633775" lon="9.848387453258455"><ele>131.0</ele><time>2026-04-12T07:44:24.999Z</time></trkpt><trkpt lat="44.88149209813854" lon="9.84835580893449"><ele>131.33333333333331</ele><time>2026-04-12T07:44:26.999Z</time></trkpt><trkpt lat="44.88140359348607" lon="9.848339775927103"><ele>131.66666666666666</ele><time>2026-04-12T07:44:28.999Z</time></trkpt><trkpt lat="44.88131837832111" lon="9.848384146581951"><ele>132.0</ele><time>2026-04-12T07:44:30.999Z</time></trkpt><trkpt lat="44.881280730346354" lon="9.848503179970608"><ele>132.33333333333334</ele><time>2026-04-12T07:44:32.999Z</time></trkpt><trkpt lat="44.8812679897993" lon="9.848601198872185"><ele>132.66666666666669</ele><time>2026-04-12T07:44:34.999Z</time></trkpt><trkpt lat="44.88124066187008" lon="9.848698165249038"><ele>133.0</ele><time>2026-04-12T07:44:36.999Z</time></trkpt><trkpt lat="44.88121263660423" lon="9.848797942176661"><ele>133.5</ele><time>2026-04-12T07:44:38.999Z</time></trkpt><trkpt lat="44.88118813398636" lon="9.84889619278801"><ele>134.0</ele><time>2026-04-12T07:44:40.999Z</time></trkpt><trkpt lat="44.88116233956303" lon="9.849002615784478"><ele>134.5</ele><time>2026-04-12T07:44:42.999Z</time></trkpt><trkpt lat="44.8811368719428" lon="9.849107073231982"><ele>135.0</ele><time>2026-04-12T07:44:44.999Z</time></trkpt><trkpt lat="44.881118381427605" lon="9.849213750096629"><ele>135.5</ele><time>2026-04-12T07:44:46.999Z</time></trkpt><trkpt lat="44.8810926880698" lon="9.849301951025693"><ele>136.0</ele><time>2026-04-12T07:44:49.998Z</time></trkpt><trkpt lat="44.88106305128182" lon="9.849416835678754"><ele>136.66666666666669</ele><time>2026-04-12T07:44:51.998Z</time></trkpt><trkpt lat="44.881042377044615" lon="9.849511913169378"><ele>137.33333333333334</ele><time>2026-04-12T07:44:53.998Z</time></trkpt><trkpt lat="44.88100676848854" lon="9.849637300626583"><ele>138.0</ele><time>2026-04-12T07:44:56.998Z</time></trkpt><trkpt lat="44.88096802676716" lon="9.849716394167574"><ele>138.66666666666666</ele><time>2026-04-12T07:45:00Z</time></trkpt><trkpt lat="44.88091705895417" lon="9.849798977990405"><ele>139.33333333333331</ele><time>2026-04-12T07:45:03Z</time></trkpt><trkpt lat="44.88086379414296" lon="9.849884958929962"><ele>140.0</ele><time>2026-04-12T07:45:06Z</time></trkpt><trkpt lat="44.88080687025188" lon="9.849965890707109"><ele>140.14285714285714</ele><time>2026-04-12T07:45:09Z</time></trkpt><trkpt lat="44.88076103135646" lon="9.85004187063644"><ele>140.28571428571428</ele><time>2026-04-12T07:45:12Z</time></trkpt><trkpt lat="44.880691446183576" lon="9.850085042149075"><ele>140.42857142857144</ele><time>2026-04-12T07:45:15Z</time></trkpt><trkpt lat="44.88064522632258" lon="9.850146577366678"><ele>140.57142857142856</ele><time>2026-04-12T07:45:18Z</time></trkpt><trkpt lat="44.88058138613845" lon="9.8501915507575"><ele>140.71428571428572</ele><time>2026-04-12T07:45:21Z</time></trkpt><trkpt lat="44.88052656769005" lon="9.850265608260356"><ele>140.85714285714286</ele><time>2026-04-12T07:45:24Z</time></trkpt><trkpt lat="44.88046932077309" lon="9.850323876323511"><ele>141.0</ele><time>2026-04-12T07:45:28Z</time></trkpt><trkpt lat="44.88041362743936" lon="9.850368324735681"><ele>141.0</ele><time>2026-04-12T07:45:31Z</time></trkpt><trkpt lat="44.880360592131986" lon="9.850419993103907"><ele>141.0</ele><time>2026-04-12T07:45:34Z</time></trkpt><trkpt lat="44.88029239513467" lon="9.850490824177744"><ele>141.0</ele><time>2026-04-12T07:45:38Z</time></trkpt><trkpt lat="44.88023478901695" lon="9.850551915673238"><ele>141.0</ele><time>2026-04-12T07:45:41Z</time></trkpt><trkpt lat="44.88018143850619" lon="9.850605539765581"><ele>141.0</ele><time>2026-04-12T07:45:44Z</time></trkpt><trkpt lat="44.88012983913767" lon="9.85065910128268"><ele>141.0</ele><time>2026-04-12T07:45:47Z</time></trkpt><trkpt lat="44.8800767410811" lon="9.850709542094835"><ele>141.0</ele><time>2026-04-12T07:45:50Z</time></trkpt><trkpt lat="44.88002254832819" lon="9.850757965770745"><ele>142.85714285714286</ele><time>2026-04-12T07:45:53Z</time></trkpt><trkpt lat="44.87996800219534" lon="9.850810218861916"><ele>144.71428571428572</ele><time>2026-04-12T07:45:56Z</time></trkpt><trkpt lat="44.879908629094444" lon="9.850857120305452"><ele>146.57142857142856</ele><time>2026-04-12T07:45:59.999Z</time></trkpt><trkpt lat="44.879840095197444" lon="9.850907127970913"><ele>148.42857142857144</ele><time>2026-04-12T07:46:02.999Z</time></trkpt><trkpt lat="44.8797647502681" lon="9.850945916177"><ele>150.28571428571428</ele><time>2026-04-12T07:46:05.999Z</time></trkpt><trkpt lat="44.879692989143095" lon="9.850979936921078"><ele>152.14285714285714</ele><time>2026-04-12T07:46:08.999Z</time></trkpt><trkpt lat="44.879623512478425" lon="9.851013430013701"><ele>154.0</ele><time>2026-04-12T07:46:11.999Z</time></trkpt><trkpt lat="44.879553660745934" lon="9.851065116047671"><ele>154.0</ele><time>2026-04-12T07:46:14.999Z</time></trkpt><trkpt lat="44.8794847422786" lon="9.851122929364234"><ele>154.0</ele><time>2026-04-12T07:46:17.999Z</time></trkpt><trkpt lat="44.87941672855734" lon="9.851197438950798"><ele>154.0</ele><time>2026-04-12T07:46:20.999Z</time></trkpt><trkpt lat="44.87935250097173" lon="9.851274264238688"><ele>154.0</ele><time>2026-04-12T07:46:23.999Z</time></trkpt><trkpt lat="44.87929122402277" lon="9.851356571077739"><ele>154.0</ele><time>2026-04-12T07:46:26.999Z</time></trkpt><trkpt lat="44.87922486778973" lon="9.851430149270964"><ele>154.0</ele><time>2026-04-12T07:46:29.999Z</time></trkpt><trkpt lat="44.87915436187596" lon="9.851497891280449"><ele>155.33333333333334</ele><time>2026-04-12T07:46:32.999Z</time></trkpt><trkpt lat="44.879082328343486" lon="9.851567344882037"><ele>156.66666666666669</ele><time>2026-04-12T07:46:35.999Z</time></trkpt><trkpt lat="44.8790015164726" lon="9.851611362649031"><ele>158.0</ele><time>2026-04-12T07:46:38.999Z</time></trkpt><trkpt lat="44.878912671471305" lon="9.851613529511345"><ele>159.33333333333334</ele><time>2026-04-12T07:46:41.999Z</time></trkpt><trkpt lat="44.878819694103925" lon="9.851585461738617"><ele>160.66666666666666</ele><time>2026-04-12T07:46:44.999Z</time></trkpt><trkpt lat="44.87874561658572" lon="9.851549840002189"><ele>162.0</ele><time>2026-04-12T07:46:47.999Z</time></trkpt><trkpt lat="44.878663933433685" lon="9.851511539308898"><ele>162.0</ele><time>2026-04-12T07:46:50.999Z</time></trkpt><trkpt lat="44.8786038132732" lon="9.851484269359466"><ele>162.0</ele><time>2026-04-12T07:46:52.998Z</time></trkpt><trkpt lat="44.878515678406444" lon="9.851452672046646"><ele>162.0</ele><time>2026-04-12T07:46:54.998Z</time></trkpt><trkpt lat="44.878448985451335" lon="9.851430635741446"><ele>162.0</ele><time>2026-04-12T07:46:56.998Z</time></trkpt><trkpt lat="44.87838359926446" lon="9.851406873041537"><ele>162.0</ele><time>2026-04-12T07:46:58.998Z</time></trkpt><trkpt lat="44.87831468569769" lon="9.851384252613403"><ele>162.0</ele><time>2026-04-12T07:47:00.998Z</time></trkpt><trkpt lat="44.87824864927269" lon="9.85136744888544"><ele>162.0</ele><time>2026-04-12T07:47:02.998Z</time></trkpt><trkpt lat="44.87816946963878" lon="9.851347427771321"><ele>162.83333333333334</ele><time>2026-04-12T07:47:05Z</time></trkpt><trkpt lat="44.87810106613399" lon="9.851335931378438"><ele>163.66666666666666</ele><time>2026-04-12T07:47:07Z</time></trkpt><trkpt lat="44.87803055142064" lon="9.851322152028802"><ele>164.5</ele><time>2026-04-12T07:47:09Z</time></trkpt><trkpt lat="44.87795607007624" lon="9.85131073991821"><ele>165.33333333333331</ele><time>2026-04-12T07:47:11Z</time></trkpt><trkpt lat="44.87787741299783" lon="9.851303322642751"><ele>166.16666666666666</ele><time>2026-04-12T07:47:13Z</time></trkpt><trkpt lat="44.87779573859891" lon="9.851293487982087"><ele>167.0</ele><time>2026-04-12T07:47:15Z</time></trkpt><trkpt lat="44.87771305771004" lon="9.851289801186619"><ele>167.0</ele><time>2026-04-12T07:47:17Z</time></trkpt><trkpt lat="44.877625621177906" lon="9.851304018497428"><ele>167.0</ele><time>2026-04-12T07:47:19Z</time></trkpt><trkpt lat="44.87754380790029" lon="9.851342493229648"><ele>167.0</ele><time>2026-04-12T07:47:21Z</time></trkpt><trkpt lat="44.87746113021202" lon="9.851390768057344"><ele>167.0</ele><time>2026-04-12T07:47:23Z</time></trkpt><trkpt lat="44.877386821692575" lon="9.851451934305988"><ele>167.0</ele><time>2026-04-12T07:47:25Z</time></trkpt><trkpt lat="44.87731124592606" lon="9.851514358485177"><ele>167.0</ele><time>2026-04-12T07:47:27Z</time></trkpt><trkpt lat="44.877242579827126" lon="9.851581991682016"><ele>167.33333333333331</ele><time>2026-04-12T07:47:29Z</time></trkpt><trkpt lat="44.87717421413366" lon="9.85165133835793"><ele>167.66666666666666</ele><time>2026-04-12T07:47:31Z</time></trkpt><trkpt lat="44.87709951261744" lon="9.851716194804826"><ele>168.0</ele><time>2026-04-12T07:47:33Z</time></trkpt><trkpt lat="44.8770228436949" lon="9.851781669314844"><ele>168.33333333333334</ele><time>2026-04-12T07:47:35Z</time></trkpt><trkpt lat="44.876950399216454" lon="9.85184644517531"><ele>168.66666666666669</ele><time>2026-04-12T07:47:37Z</time></trkpt><trkpt lat="44.87687840023272" lon="9.851915601747567"><ele>169.0</ele><time>2026-04-12T07:47:39Z</time></trkpt><trkpt lat="44.87680167459725" lon="9.851975623558504"><ele>169.39999999999998</ele><time>2026-04-12T07:47:41Z</time></trkpt><trkpt lat="44.87672040177839" lon="9.852037274939905"><ele>169.8</ele><time>2026-04-12T07:47:43Z</time></trkpt><trkpt lat="44.876638489633784" lon="9.852098191883714"><ele>170.2</ele><time>2026-04-12T07:47:45Z</time></trkpt><trkpt lat="44.87655945394995" lon="9.852158984934837"><ele>170.60000000000002</ele><time>2026-04-12T07:47:47Z</time></trkpt><trkpt lat="44.876471043859645" lon="9.8522148038483"><ele>171.0</ele><time>2026-04-12T07:47:49Z</time></trkpt><trkpt lat="44.876393663898156" lon="9.85226278194127"><ele>171.0</ele><time>2026-04-12T07:47:51Z</time></trkpt><trkpt lat="44.876306086988365" lon="9.852300937829998"><ele>171.0</ele><time>2026-04-12T07:47:53Z</time></trkpt><trkpt lat="44.87621822528045" lon="9.852328309351158"><ele>171.0</ele><time>2026-04-12T07:47:55Z</time></trkpt><trkpt lat="44.87613364540746" lon="9.85235433408577"><ele>171.0</ele><time>2026-04-12T07:47:57Z</time></trkpt><trkpt lat="44.87604911923572" lon="9.85237946500541"><ele>171.0</ele><time>2026-04-12T07:47:59Z</time></trkpt><trkpt lat="44.875971574485625" lon="9.852407792135644"><ele>171.0</ele><time>2026-04-12T07:48:01Z</time></trkpt><trkpt lat="44.87589435471243" lon="9.85243453656849"><ele>171.16666666666666</ele><time>2026-04-12T07:48:02.999Z</time></trkpt><trkpt lat="44.87581957533631" lon="9.852461818197346"><ele>171.33333333333334</ele><time>2026-04-12T07:48:04.999Z</time></trkpt><trkpt lat="44.8757469384648" lon="9.85248928976425"><ele>171.5</ele><time>2026-04-12T07:48:06.999Z</time></trkpt><trkpt lat="44.87566891311357" lon="9.852512725517919"><ele>171.66666666666669</ele><time>2026-04-12T07:48:08.999Z</time></trkpt><trkpt lat="44.87559561905772" lon="9.852536633854708"><ele>171.83333333333334</ele><time>2026-04-12T07:48:10.999Z</time></trkpt><trkpt lat="44.87552604213718" lon="9.85256371943759"><ele>172.0</ele><time>2026-04-12T07:48:12.999Z</time></trkpt><trkpt lat="44.875449803555384" lon="9.852581560376876"><ele>172.00000000000003</ele><time>2026-04-12T07:48:14.999Z</time></trkpt><trkpt lat="44.875379655089674" lon="9.852603035748853"><ele>172.0</ele><time>2026-04-12T07:48:16.999Z</time></trkpt><trkpt lat="44.87531103990953" lon="9.852628184503008"><ele>172.0</ele><time>2026-04-12T07:48:18.999Z</time></trkpt><trkpt lat="44.87523771760132" lon="9.852649446435683"><ele>172.0</ele><time>2026-04-12T07:48:20.999Z</time></trkpt><trkpt lat="44.87516453000962" lon="9.85267689586297"><ele>172.0</ele><time>2026-04-12T07:48:22.999Z</time></trkpt><trkpt lat="44.87509669394699" lon="9.852705650993943"><ele>172.00000000000003</ele><time>2026-04-12T07:48:24.999Z</time></trkpt><trkpt lat="44.87502319989153" lon="9.85273676254871"><ele>172.0</ele><time>2026-04-12T07:48:26.999Z</time></trkpt><trkpt lat="44.874950785307654" lon="9.852766502208661"><ele>173.33333333333334</ele><time>2026-04-12T07:48:28.999Z</time></trkpt><trkpt lat="44.87487939966295" lon="9.852797338026793"><ele>174.66666666666669</ele><time>2026-04-12T07:48:30.999Z</time></trkpt><trkpt lat="44.87480163260906" lon="9.85284381553"><ele>176.0</ele><time>2026-04-12T07:48:33.999Z</time></trkpt><trkpt lat="44.87473237226068" lon="9.852885386705777"><ele>177.33333333333334</ele><time>2026-04-12T07:48:35.999Z</time></trkpt><trkpt lat="44.87465921780378" lon="9.852926173129816"><ele>178.66666666666666</ele><time>2026-04-12T07:48:37.999Z</time></trkpt><trkpt lat="44.874584076136436" lon="9.852975387190323"><ele>180.0</ele><time>2026-04-12T07:48:39.999Z</time></trkpt><trkpt lat="44.87449253946078" lon="9.853031959041154"><ele>180.0</ele><time>2026-04-12T07:48:41.999Z</time></trkpt><trkpt lat="44.87441911553383" lon="9.853080945870047"><ele>180.0</ele><time>2026-04-12T07:48:43.999Z</time></trkpt><trkpt lat="44.874343289599295" lon="9.853135402897548"><ele>180.0</ele><time>2026-04-12T07:48:45.999Z</time></trkpt><trkpt lat="44.87426986007908" lon="9.853199927815432"><ele>180.0</ele><time>2026-04-12T07:48:47.999Z</time></trkpt><trkpt lat="44.874201675759785" lon="9.85327029439317"><ele>180.0</ele><time>2026-04-12T07:48:49.999Z</time></trkpt><trkpt lat="44.8741345413794" lon="9.853343294724105"><ele>180.0</ele><time>2026-04-12T07:48:51.999Z</time></trkpt><trkpt lat="44.87407211962526" lon="9.853421186213724"><ele>180.5</ele><time>2026-04-12T07:48:53.999Z</time></trkpt><trkpt lat="44.87400709112614" lon="9.85350462128767"><ele>181.0</ele><time>2026-04-12T07:48:55.999Z</time></trkpt><trkpt lat="44.87394059057257" lon="9.853585550882228"><ele>181.5</ele><time>2026-04-12T07:48:57.998Z</time></trkpt><trkpt lat="44.87387922777369" lon="9.853667179326436"><ele>182.0</ele><time>2026-04-12T07:48:59.998Z</time></trkpt><trkpt lat="44.873814096248594" lon="9.853752232805697"><ele>182.5</ele><time>2026-04-12T07:49:01.998Z</time></trkpt><trkpt lat="44.87374949199223" lon="9.85383401050422"><ele>183.0</ele><time>2026-04-12T07:49:03.998Z</time></trkpt><trkpt lat="44.87368361272419" lon="9.853915658338648"><ele>183.0</ele><time>2026-04-12T07:49:05.998Z</time></trkpt><trkpt lat="44.873619525583216" lon="9.85399971445718"><ele>183.0</ele><time>2026-04-12T07:49:07.998Z</time></trkpt><trkpt lat="44.87355362807006" lon="9.854087610589104"><ele>183.0</ele><time>2026-04-12T07:49:10Z</time></trkpt><trkpt lat="44.87348719034689" lon="9.854170803523337"><ele>183.0</ele><time>2026-04-12T07:49:12Z</time></trkpt><trkpt lat="44.87341686890408" lon="9.854251948840615"><ele>183.0</ele><time>2026-04-12T07:49:14Z</time></trkpt><trkpt lat="44.87334255464015" lon="9.854330386094446"><ele>183.4</ele><time>2026-04-12T07:49:16Z</time></trkpt><trkpt lat="44.873261834741754" lon="9.85439605351726"><ele>183.8</ele><time>2026-04-12T07:49:18Z</time></trkpt><trkpt lat="44.87318185980766" lon="9.854457467360065"><ele>184.2</ele><time>2026-04-12T07:49:20Z</time></trkpt><trkpt lat="44.87309958622472" lon="9.854512049076455"><ele>184.6</ele><time>2026-04-12T07:49:22Z</time></trkpt><trkpt lat="44.873015828905025" lon="9.854559836587205"><ele>185.0</ele><time>2026-04-12T07:49:24Z</time></trkpt><trkpt lat="44.87292990061526" lon="9.854606106935053"><ele>185.0</ele><time>2026-04-12T07:49:26Z</time></trkpt><trkpt lat="44.87284639498095" lon="9.8546536653721"><ele>185.0</ele><time>2026-04-12T07:49:28Z</time></trkpt><trkpt lat="44.87276313930675" lon="9.854691933580776"><ele>185.0</ele><time>2026-04-12T07:49:30Z</time></trkpt><trkpt lat="44.872681059246965" lon="9.854737282815828"><ele>185.0</ele><time>2026-04-12T07:49:32Z</time></trkpt><trkpt lat="44.87259887949243" lon="9.854784703547798"><ele>185.0</ele><time>2026-04-12T07:49:34Z</time></trkpt><trkpt lat="44.87251687587502" lon="9.854833098196465"><ele>185.0</ele><time>2026-04-12T07:49:36Z</time></trkpt><trkpt lat="44.872433037037766" lon="9.854879102469773"><ele>185.5</ele><time>2026-04-12T07:49:38Z</time></trkpt><trkpt lat="44.872347953072314" lon="9.854905833324722"><ele>186.0</ele><time>2026-04-12T07:49:40Z</time></trkpt><trkpt lat="44.87226509404497" lon="9.85495196985392"><ele>186.5</ele><time>2026-04-12T07:49:42Z</time></trkpt><trkpt lat="44.872181161891966" lon="9.854991072681843"><ele>187.0</ele><time>2026-04-12T07:49:44Z</time></trkpt><trkpt lat="44.872098663884" lon="9.855038329268758"><ele>187.5</ele><time>2026-04-12T07:49:46Z</time></trkpt><trkpt lat="44.872013697712404" lon="9.855077283316147"><ele>188.0</ele><time>2026-04-12T07:49:48Z</time></trkpt><trkpt lat="44.871928265445334" lon="9.85510973941896"><ele>188.2</ele><time>2026-04-12T07:49:50Z</time></trkpt><trkpt lat="44.871841374144985" lon="9.855136859670889"><ele>188.4</ele><time>2026-04-12T07:49:52Z</time></trkpt><trkpt lat="44.871750640965445" lon="9.855158286001673"><ele>188.6</ele><time>2026-04-12T07:49:54Z</time></trkpt><trkpt lat="44.87165948185201" lon="9.855170756800105"><ele>188.79999999999998</ele><time>2026-04-12T07:49:56Z</time></trkpt><trkpt lat="44.87157087616046" lon="9.855179961692093"><ele>189.0</ele><time>2026-04-12T07:49:58Z</time></trkpt><trkpt lat="44.87147825119954" lon="9.855196255347112"><ele>189.79999999999998</ele><time>2026-04-12T07:50:00Z</time></trkpt><trkpt lat="44.87139032565515" lon="9.85520177216568"><ele>190.6</ele><time>2026-04-12T07:50:02Z</time></trkpt><trkpt lat="44.87130766357727" lon="9.855207781713514"><ele>191.4</ele><time>2026-04-12T07:50:04Z</time></trkpt><trkpt lat="44.87122652735635" lon="9.855219747991464"><ele>192.2</ele><time>2026-04-12T07:50:05.999Z</time></trkpt><trkpt lat="44.87116119542338" lon="9.8552382587607"><ele>193.0</ele><time>2026-04-12T07:50:07.999Z</time></trkpt><trkpt lat="44.87101878370411" lon="9.855273216172089"><ele>193.16666666666666</ele><time>2026-04-12T07:50:10.999Z</time></trkpt><trkpt lat="44.87093438855947" lon="9.85530097767017"><ele>193.33333333333331</ele><time>2026-04-12T07:50:12.999Z</time></trkpt><trkpt lat="44.87085086832378" lon="9.85533356822357"><ele>193.5</ele><time>2026-04-12T07:50:14.999Z</time></trkpt><trkpt lat="44.87076547837442" lon="9.855370175039504"><ele>193.66666666666669</ele><time>2026-04-12T07:50:16.999Z</time></trkpt><trkpt lat="44.8706774075134" lon="9.855397570743094"><ele>193.83333333333334</ele><time>2026-04-12T07:50:18.999Z</time></trkpt><trkpt lat="44.870589394078046" lon="9.855424256012016"><ele>194.0</ele><time>2026-04-12T07:50:20.999Z</time></trkpt><trkpt lat="44.87050622228158" lon="9.855447794902435"><ele>194.00000000000003</ele><time>2026-04-12T07:50:22.999Z</time></trkpt><trkpt lat="44.87042232749674" lon="9.855475362149331"><ele>194.0</ele><time>2026-04-12T07:50:24.999Z</time></trkpt><trkpt lat="44.87033725861942" lon="9.855504357226275"><ele>194.0</ele><time>2026-04-12T07:50:26.999Z</time></trkpt><trkpt lat="44.870248768341376" lon="9.855529756390279"><ele>194.0</ele><time>2026-04-12T07:50:28.999Z</time></trkpt><trkpt lat="44.87016194078373" lon="9.855563543208289"><ele>194.00000000000003</ele><time>2026-04-12T07:50:30.999Z</time></trkpt><trkpt lat="44.87008498540541" lon="9.855591476752426"><ele>194.0</ele><time>2026-04-12T07:50:32.999Z</time></trkpt><trkpt lat="44.87000157697861" lon="9.855626623874663"><ele>194.50000000000003</ele><time>2026-04-12T07:50:34.999Z</time></trkpt><trkpt lat="44.86992048717797" lon="9.855657769958281"><ele>195.0</ele><time>2026-04-12T07:50:36.999Z</time></trkpt><trkpt lat="44.86984174977974" lon="9.855703648801937"><ele>195.5</ele><time>2026-04-12T07:50:38.999Z</time></trkpt><trkpt lat="44.869760831765056" lon="9.855737008097952"><ele>196.0</ele><time>2026-04-12T07:50:40.999Z</time></trkpt><trkpt lat="44.869681249426485" lon="9.85578333025819"><ele>196.50000000000003</ele><time>2026-04-12T07:50:42.999Z</time></trkpt><trkpt lat="44.86960663664206" lon="9.855830174400902"><ele>197.0</ele><time>2026-04-12T07:50:44.999Z</time></trkpt><trkpt lat="44.86952957925721" lon="9.855860606749587"><ele>197.00000000000003</ele><time>2026-04-12T07:50:46.999Z</time></trkpt><trkpt lat="44.86944634986005" lon="9.855917007368166"><ele>197.0</ele><time>2026-04-12T07:50:48.999Z</time></trkpt><trkpt lat="44.86937372556889" lon="9.85596265175967"><ele>197.0</ele><time>2026-04-12T07:50:50.999Z</time></trkpt><trkpt lat="44.86929951287706" lon="9.856018248724904"><ele>197.0</ele><time>2026-04-12T07:50:52.999Z</time></trkpt><trkpt lat="44.8692258510111" lon="9.856071423730489"><ele>197.00000000000003</ele><time>2026-04-12T07:50:54.999Z</time></trkpt><trkpt lat="44.869154916698875" lon="9.856132990939606"><ele>197.0</ele><time>2026-04-12T07:50:56.999Z</time></trkpt><trkpt lat="44.86908570730711" lon="9.856200179643366"><ele>198.00000000000003</ele><time>2026-04-12T07:50:58.998Z</time></trkpt><trkpt lat="44.86901105472658" lon="9.85626937857119"><ele>199.0</ele><time>2026-04-12T07:51:00.998Z</time></trkpt><trkpt lat="44.868935127135984" lon="9.856335204349385"><ele>200.0</ele><time>2026-04-12T07:51:02.998Z</time></trkpt><trkpt lat="44.8688618080342" lon="9.856410906341354"><ele>201.0</ele><time>2026-04-12T07:51:04.998Z</time></trkpt><trkpt lat="44.86878742020178" lon="9.856484468212907"><ele>202.00000000000003</ele><time>2026-04-12T07:51:06.998Z</time></trkpt><trkpt lat="44.86871458784437" lon="9.856547180408779"><ele>203.0</ele><time>2026-04-12T07:51:08.998Z</time></trkpt><trkpt lat="44.86862862635949" lon="9.856597543108887"><ele>203.0</ele><time>2026-04-12T07:51:10.998Z</time></trkpt><trkpt lat="44.868556440390485" lon="9.856663856726994"><ele>203.0</ele><time>2026-04-12T07:51:12.998Z</time></trkpt><trkpt lat="44.868480886963" lon="9.85672877061911"><ele>203.0</ele><time>2026-04-12T07:51:14.998Z</time></trkpt><trkpt lat="44.86839983449825" lon="9.856783314762533"><ele>203.0</ele><time>2026-04-12T07:51:17Z</time></trkpt><trkpt lat="44.86830360183536" lon="9.85685473680969"><ele>203.0</ele><time>2026-04-12T07:51:20Z</time></trkpt><trkpt lat="44.86820711242198" lon="9.856919379625102"><ele>203.0</ele><time>2026-04-12T07:51:22Z</time></trkpt><trkpt lat="44.8681277482112" lon="9.85698421018526"><ele>203.0</ele><time>2026-04-12T07:51:24Z</time></trkpt><trkpt lat="44.86804533995734" lon="9.85704135085334"><ele>203.0</ele><time>2026-04-12T07:51:26Z</time></trkpt><trkpt lat="44.867959732029576" lon="9.857095423163967"><ele>203.0</ele><time>2026-04-12T07:51:28Z</time></trkpt><trkpt lat="44.86787336860316" lon="9.857145299235144"><ele>203.0</ele><time>2026-04-12T07:51:30Z</time></trkpt><trkpt lat="44.86778463898186" lon="9.857182096843667"><ele>203.0</ele><time>2026-04-12T07:51:32Z</time></trkpt><trkpt lat="44.86769348026652" lon="9.857205776705063"><ele>203.0</ele><time>2026-04-12T07:51:34Z</time></trkpt><trkpt lat="44.86760427279884" lon="9.857221222286372"><ele>203.0</ele><time>2026-04-12T07:51:36Z</time></trkpt><trkpt lat="44.86751577722174" lon="9.857241668081437"><ele>203.0</ele><time>2026-04-12T07:51:38Z</time></trkpt><trkpt lat="44.86742780076898" lon="9.857261377157853"><ele>203.0</ele><time>2026-04-12T07:51:40Z</time></trkpt><trkpt lat="44.86734083135594" lon="9.85728752385847"><ele>203.4</ele><time>2026-04-12T07:51:42Z</time></trkpt><trkpt lat="44.86725195099038" lon="9.857309161093493"><ele>203.8</ele><time>2026-04-12T07:51:44Z</time></trkpt><trkpt lat="44.867162671702395" lon="9.857330867360094"><ele>204.2</ele><time>2026-04-12T07:51:46Z</time></trkpt><trkpt lat="44.86707343934575" lon="9.857354216834409"><ele>204.6</ele><time>2026-04-12T07:51:48Z</time></trkpt><trkpt lat="44.86698325388576" lon="9.857377108167732"><ele>205.0</ele><time>2026-04-12T07:51:50Z</time></trkpt><trkpt lat="44.86689238792531" lon="9.857400337130997"><ele>205.0</ele><time>2026-04-12T07:51:52Z</time></trkpt><trkpt lat="44.866800409129475" lon="9.857417799442507"><ele>205.0</ele><time>2026-04-12T07:51:54Z</time></trkpt><trkpt lat="44.86670728829036" lon="9.857437054187818"><ele>205.0</ele><time>2026-04-12T07:51:56Z</time></trkpt><trkpt lat="44.866616874961984" lon="9.857457025796956"><ele>205.0</ele><time>2026-04-12T07:51:58Z</time></trkpt><trkpt lat="44.866526893301575" lon="9.857478662372692"><ele>205.0</ele><time>2026-04-12T07:52:00Z</time></trkpt><trkpt lat="44.86643832593795" lon="9.857496899490426"><ele>205.99999999999997</ele><time>2026-04-12T07:52:02Z</time></trkpt><trkpt lat="44.86635183355411" lon="9.857517133373916"><ele>207.0</ele><time>2026-04-12T07:52:04Z</time></trkpt><trkpt lat="44.86626455309225" lon="9.857534713159547"><ele>208.0</ele><time>2026-04-12T07:52:06Z</time></trkpt><trkpt lat="44.86617851597442" lon="9.857555221354469"><ele>209.0</ele><time>2026-04-12T07:52:08Z</time></trkpt><trkpt lat="44.86608967614399" lon="9.857573658808604"><ele>209.99999999999997</ele><time>2026-04-12T07:52:10Z</time></trkpt><trkpt lat="44.86600062286587" lon="9.857591730734477"><ele>211.0</ele><time>2026-04-12T07:52:11.999Z</time></trkpt><trkpt lat="44.86591194299779" lon="9.857614454778135"><ele>211.33333333333331</ele><time>2026-04-12T07:52:13.999Z</time></trkpt><trkpt lat="44.86582422296551" lon="9.85763223056502"><ele>211.66666666666666</ele><time>2026-04-12T07:52:15.999Z</time></trkpt><trkpt lat="44.865736546208595" lon="9.857650918785133"><ele>212.0</ele><time>2026-04-12T07:52:17.999Z</time></trkpt><trkpt lat="44.86565237440934" lon="9.857670909118257"><ele>212.33333333333331</ele><time>2026-04-12T07:52:19.999Z</time></trkpt><trkpt lat="44.86557123072088" lon="9.857693883637495"><ele>212.66666666666666</ele><time>2026-04-12T07:52:21.999Z</time></trkpt><trkpt lat="44.865490764136574" lon="9.857712601914598"><ele>213.0</ele><time>2026-04-12T07:52:23.999Z</time></trkpt><trkpt lat="44.86540906060989" lon="9.857731828683846"><ele>213.0</ele><time>2026-04-12T07:52:25.999Z</time></trkpt><trkpt lat="44.86532799329023" lon="9.857753374381115"><ele>213.0</ele><time>2026-04-12T07:52:27.999Z</time></trkpt><trkpt lat="44.865243897421344" lon="9.857772909720124"><ele>213.0</ele><time>2026-04-12T07:52:29.999Z</time></trkpt><trkpt lat="44.86515953154037" lon="9.857789409981734"><ele>213.0</ele><time>2026-04-12T07:52:31.999Z</time></trkpt><trkpt lat="44.865077820963364" lon="9.85781288841743"><ele>213.0</ele><time>2026-04-12T07:52:33.999Z</time></trkpt><trkpt lat="44.86499803040459" lon="9.857831462100592"><ele>213.0</ele><time>2026-04-12T07:52:35.999Z</time></trkpt><trkpt lat="44.86491549652857" lon="9.857844616196246"><ele>214.16666666666666</ele><time>2026-04-12T07:52:37.999Z</time></trkpt><trkpt lat="44.86483541488664" lon="9.85786422542845"><ele>215.33333333333331</ele><time>2026-04-12T07:52:39.999Z</time></trkpt><trkpt lat="44.86475547330034" lon="9.857880132789328"><ele>216.5</ele><time>2026-04-12T07:52:41.999Z</time></trkpt><trkpt lat="44.86467665544334" lon="9.857899971982462"><ele>217.66666666666666</ele><time>2026-04-12T07:52:43.999Z</time></trkpt><trkpt lat="44.864598131329274" lon="9.857919718136268"><ele>218.83333333333331</ele><time>2026-04-12T07:52:45.999Z</time></trkpt><trkpt lat="44.86452237380094" lon="9.85793697657945"><ele>220.0</ele><time>2026-04-12T07:52:47.999Z</time></trkpt><trkpt lat="44.86445063576855" lon="9.857953495950762"><ele>219.99999999999997</ele><time>2026-04-12T07:52:49.999Z</time></trkpt><trkpt lat="44.86437334930999" lon="9.857975522948017"><ele>220.0</ele><time>2026-04-12T07:52:51.999Z</time></trkpt><trkpt lat="44.86429751563383" lon="9.85799943897229"><ele>220.0</ele><time>2026-04-12T07:52:53.999Z</time></trkpt><trkpt lat="44.86422105438984" lon="9.858013620975406"><ele>220.0</ele><time>2026-04-12T07:52:55.999Z</time></trkpt><trkpt lat="44.86414543513321" lon="9.858028294416238"><ele>219.99999999999997</ele><time>2026-04-12T07:52:57.999Z</time></trkpt><trkpt lat="44.8640731491312" lon="9.85803547415692"><ele>220.0</ele><time>2026-04-12T07:52:59.999Z</time></trkpt><trkpt lat="44.86399694521481" lon="9.858036081123846"><ele>220.6</ele><time>2026-04-12T07:53:01.999Z</time></trkpt><trkpt lat="44.86391992404067" lon="9.858026311651626"><ele>221.2</ele><time>2026-04-12T07:53:03.999Z</time></trkpt><trkpt lat="44.863830566986124" lon="9.857997231581164"><ele>221.8</ele><time>2026-04-12T07:53:06.998Z</time></trkpt><trkpt lat="44.86370598476129" lon="9.857950824793761"><ele>222.4</ele><time>2026-04-12T07:53:08.998Z</time></trkpt><trkpt lat="44.86362169100657" lon="9.857921724537494"><ele>223.0</ele><time>2026-04-12T07:53:10.998Z</time></trkpt><trkpt lat="44.86353583880401" lon="9.857887501652744"><ele>222.99999999999997</ele><time>2026-04-12T07:53:12.998Z</time></trkpt><trkpt lat="44.86345787173279" lon="9.857859979916283"><ele>223.0</ele><time>2026-04-12T07:53:14.998Z</time></trkpt><trkpt lat="44.86337453687921" lon="9.85783112618047"><ele>223.0</ele><time>2026-04-12T07:53:16.998Z</time></trkpt><trkpt lat="44.86329397212284" lon="9.857806875114877"><ele>223.0</ele><time>2026-04-12T07:53:18.998Z</time></trkpt><trkpt lat="44.863218156881715" lon="9.85778093780482"><ele>222.99999999999997</ele><time>2026-04-12T07:53:20.998Z</time></trkpt><trkpt lat="44.8631416279057" lon="9.857757576041832"><ele>223.0</ele><time>2026-04-12T07:53:23Z</time></trkpt><trkpt lat="44.863064834878685" lon="9.857732232247185"><ele>224.16666666666666</ele><time>2026-04-12T07:53:25Z</time></trkpt><trkpt lat="44.86299835639835" lon="9.85772290792485"><ele>225.33333333333331</ele><time>2026-04-12T07:53:27Z</time></trkpt><trkpt lat="44.862934772132526" lon="9.857700319534036"><ele>226.5</ele><time>2026-04-12T07:53:29Z</time></trkpt><trkpt lat="44.86284197060441" lon="9.857668259206696"><ele>227.66666666666669</ele><time>2026-04-12T07:53:32Z</time></trkpt><trkpt lat="44.86277559151549" lon="9.857651388410018"><ele>228.83333333333334</ele><time>2026-04-12T07:53:34Z</time></trkpt><trkpt lat="44.86269454945363" lon="9.85762232710996"><ele>230.0</ele><time>2026-04-12T07:53:37Z</time></trkpt><trkpt lat="44.86257589142277" lon="9.857580217950158"><ele>230.6</ele><time>2026-04-12T07:53:40Z</time></trkpt><trkpt lat="44.8625121856288" lon="9.857564418961813"><ele>231.2</ele><time>2026-04-12T07:53:42Z</time></trkpt><trkpt lat="44.8624166906421" lon="9.857531227836944"><ele>231.8</ele><time>2026-04-12T07:53:44Z</time></trkpt><trkpt lat="44.86234678231589" lon="9.857506003692885"><ele>232.4</ele><time>2026-04-12T07:53:46Z</time></trkpt><trkpt lat="44.862196933452196" lon="9.857454335952635"><ele>233.0</ele><time>2026-04-12T07:53:49Z</time></trkpt><trkpt lat="44.86212231914412" lon="9.857428628687432"><ele>233.00000000000003</ele><time>2026-04-12T07:53:51Z</time></trkpt><trkpt lat="44.862045276518" lon="9.85740573661039"><ele>233.0</ele><time>2026-04-12T07:53:53Z</time></trkpt><trkpt lat="44.86196825607169" lon="9.85738094327859"><ele>233.0</ele><time>2026-04-12T07:53:55Z</time></trkpt><trkpt lat="44.86188846632525" lon="9.857354251889918"><ele>233.0</ele><time>2026-04-12T07:53:57Z</time></trkpt><trkpt lat="44.861811753151834" lon="9.85733392919095"><ele>233.00000000000003</ele><time>2026-04-12T07:53:59Z</time></trkpt><trkpt lat="44.86173344008042" lon="9.857316329660412"><ele>233.0</ele><time>2026-04-12T07:54:01Z</time></trkpt><trkpt lat="44.86165573917319" lon="9.857295803563733"><ele>233.83333333333334</ele><time>2026-04-12T07:54:03Z</time></trkpt><trkpt lat="44.86158282246272" lon="9.857271600583768"><ele>234.66666666666669</ele><time>2026-04-12T07:54:05Z</time></trkpt><trkpt lat="44.86149991784704" lon="9.857232812953315"><ele>235.5</ele><time>2026-04-12T07:54:07Z</time></trkpt><trkpt lat="44.86142772672494" lon="9.857202754214493"><ele>236.33333333333331</ele><time>2026-04-12T07:54:09Z</time></trkpt><trkpt lat="44.861334030744864" lon="9.857165770741608"><ele>237.16666666666666</ele><time>2026-04-12T07:54:12Z</time></trkpt><trkpt lat="44.8612634105732" lon="9.857137692337583"><ele>238.0</ele><time>2026-04-12T07:54:13.999Z</time></trkpt><trkpt lat="44.86119693876054" lon="9.857113244354313"><ele>238.0</ele><time>2026-04-12T07:54:15.999Z</time></trkpt><trkpt lat="44.861093086325326" lon="9.857090489814361"><ele>238.0</ele><time>2026-04-12T07:54:17.999Z</time></trkpt><trkpt lat="44.861000618092696" lon="9.857060429962825"><ele>238.0</ele><time>2026-04-12T07:54:19.999Z</time></trkpt><trkpt lat="44.86090546790753" lon="9.857031063368597"><ele>238.0</ele><time>2026-04-12T07:54:21.999Z</time></trkpt><trkpt lat="44.8608148860052" lon="9.857005029631951"><ele>238.0</ele><time>2026-04-12T07:54:23.999Z</time></trkpt><trkpt lat="44.86072685972037" lon="9.856972558476688"><ele>238.16666666666666</ele><time>2026-04-12T07:54:25.999Z</time></trkpt><trkpt lat="44.8606469041174" lon="9.856939115190928"><ele>238.33333333333331</ele><time>2026-04-12T07:54:27.999Z</time></trkpt><trkpt lat="44.86057265584938" lon="9.856910090429697"><ele>238.5</ele><time>2026-04-12T07:54:29.999Z</time></trkpt><trkpt lat="44.860497416486446" lon="9.85688366502378"><ele>238.66666666666669</ele><time>2026-04-12T07:54:31.999Z</time></trkpt><trkpt lat="44.86042009790666" lon="9.85685597939051"><ele>238.83333333333334</ele><time>2026-04-12T07:54:33.999Z</time></trkpt><trkpt lat="44.86034192401701" lon="9.856827506118913"><ele>239.0</ele><time>2026-04-12T07:54:35.999Z</time></trkpt><trkpt lat="44.860262658493944" lon="9.85680692025415"><ele>239.00000000000003</ele><time>2026-04-12T07:54:37.999Z</time></trkpt><trkpt lat="44.86018425422341" lon="9.856777106949886"><ele>239.0</ele><time>2026-04-12T07:54:39.999Z</time></trkpt><trkpt lat="44.86007937645023" lon="9.856746913997334"><ele>239.0</ele><time>2026-04-12T07:54:42.999Z</time></trkpt><trkpt lat="44.86000659154536" lon="9.856722068290484"><ele>239.0</ele><time>2026-04-12T07:54:44.999Z</time></trkpt><trkpt lat="44.85994503238397" lon="9.856702227603158"><ele>239.00000000000003</ele><time>2026-04-12T07:54:46.999Z</time></trkpt><trkpt lat="44.8598611617334" lon="9.85667661835656"><ele>239.0</ele><time>2026-04-12T07:54:48.999Z</time></trkpt><trkpt lat="44.85975850586355" lon="9.856634192512768"><ele>239.66666666666669</ele><time>2026-04-12T07:54:50.999Z</time></trkpt><trkpt lat="44.859677869125804" lon="9.856609737678152"><ele>240.33333333333334</ele><time>2026-04-12T07:54:52.999Z</time></trkpt><trkpt lat="44.85959871441054" lon="9.856582980980626"><ele>241.0</ele><time>2026-04-12T07:54:54.999Z</time></trkpt><trkpt lat="44.85951887659621" lon="9.856556965937822"><ele>241.66666666666669</ele><time>2026-04-12T07:54:56.999Z</time></trkpt><trkpt lat="44.85943861047057" lon="9.856529142642326"><ele>242.33333333333334</ele><time>2026-04-12T07:54:58.999Z</time></trkpt><trkpt lat="44.85935878484501" lon="9.856505207126157"><ele>243.0</ele><time>2026-04-12T07:55:00.999Z</time></trkpt><trkpt lat="44.85928085415941" lon="9.85647520930867"><ele>244.14285714285714</ele><time>2026-04-12T07:55:02.999Z</time></trkpt><trkpt lat="44.85920317391568" lon="9.856449964834553"><ele>245.28571428571428</ele><time>2026-04-12T07:55:04.999Z</time></trkpt><trkpt lat="44.85912527672005" lon="9.856423599846508"><ele>246.42857142857142</ele><time>2026-04-12T07:55:06.999Z</time></trkpt><trkpt lat="44.859046970246965" lon="9.856399573006946"><ele>247.57142857142856</ele><time>2026-04-12T07:55:08.998Z</time></trkpt><trkpt lat="44.85897517114225" lon="9.856384042641276"><ele>248.71428571428572</ele><time>2026-04-12T07:55:10.998Z</time></trkpt><trkpt lat="44.85891239034215" lon="9.856365353335727"><ele>249.85714285714283</ele><time>2026-04-12T07:55:12.998Z</time></trkpt><trkpt lat="44.858848085967914" lon="9.85634514808389"><ele>250.99999999999997</ele><time>2026-04-12T07:55:15.998Z</time></trkpt><trkpt lat="44.8587674185076" lon="9.856307600341015"><ele>250.99999999999997</ele><time>2026-04-12T07:55:17.998Z</time></trkpt><trkpt lat="44.85869428653213" lon="9.856280744108503"><ele>251.0</ele><time>2026-04-12T07:55:18.998Z</time></trkpt><trkpt lat="44.85862724311616" lon="9.856253031006046"><ele>250.99999999999997</ele><time>2026-04-12T07:55:20.998Z</time></trkpt><trkpt lat="44.858558176772156" lon="9.856234369745117"><ele>250.99999999999997</ele><time>2026-04-12T07:55:22.998Z</time></trkpt><trkpt lat="44.858490113504025" lon="9.856209326114662"><ele>251.0</ele><time>2026-04-12T07:55:24.998Z</time></trkpt><trkpt lat="44.85841834452512" lon="9.856182033210453"><ele>250.99999999999997</ele><time>2026-04-12T07:55:26.998Z</time></trkpt><trkpt lat="44.85834272150384" lon="9.85615670037929"><ele>250.99999999999997</ele><time>2026-04-12T07:55:29Z</time></trkpt><trkpt lat="44.85826417611289" lon="9.856126187250386"><ele>251.66666666666669</ele><time>2026-04-12T07:55:31Z</time></trkpt><trkpt lat="44.85818596376895" lon="9.856099372647428"><ele>252.33333333333334</ele><time>2026-04-12T07:55:33Z</time></trkpt><trkpt lat="44.85810871131641" lon="9.856067740570685"><ele>253.0</ele><time>2026-04-12T07:55:35Z</time></trkpt><trkpt lat="44.85803050871949" lon="9.856030004748346"><ele>253.66666666666669</ele><time>2026-04-12T07:55:37Z</time></trkpt><trkpt lat="44.857947189857896" lon="9.855992404518696"><ele>254.33333333333334</ele><time>2026-04-12T07:55:40Z</time></trkpt><trkpt lat="44.8578761779738" lon="9.855952416332306"><ele>255.0</ele><time>2026-04-12T07:55:41Z</time></trkpt><trkpt lat="44.85780234618196" lon="9.855911725864628"><ele>255.0</ele><time>2026-04-12T07:55:43Z</time></trkpt><trkpt lat="44.85772277740391" lon="9.855866849509296"><ele>255.0</ele><time>2026-04-12T07:55:45Z</time></trkpt><trkpt lat="44.85764607763348" lon="9.855821007634729"><ele>255.0</ele><time>2026-04-12T07:55:47Z</time></trkpt><trkpt lat="44.85756721950309" lon="9.855774585621923"><ele>255.0</ele><time>2026-04-12T07:55:49Z</time></trkpt><trkpt lat="44.85748812523394" lon="9.855727549766494"><ele>255.0</ele><time>2026-04-12T07:55:51Z</time></trkpt><trkpt lat="44.857410603959956" lon="9.85567890723079"><ele>255.0</ele><time>2026-04-12T07:55:53Z</time></trkpt><trkpt lat="44.85733217882695" lon="9.855639601872412"><ele>255.5</ele><time>2026-04-12T07:55:55Z</time></trkpt><trkpt lat="44.8572523185833" lon="9.85559623417847"><ele>256.0</ele><time>2026-04-12T07:55:57Z</time></trkpt><trkpt lat="44.857170821578414" lon="9.855560624829103"><ele>256.5</ele><time>2026-04-12T07:55:59Z</time></trkpt><trkpt lat="44.85709184244215" lon="9.855533878685895"><ele>257.0</ele><time>2026-04-12T07:56:01Z</time></trkpt><trkpt lat="44.85699967925486" lon="9.855505219326462"><ele>257.5</ele><time>2026-04-12T07:56:03Z</time></trkpt><trkpt lat="44.856907139353495" lon="9.855494650881589"><ele>258.0</ele><time>2026-04-12T07:56:04.999Z</time></trkpt><trkpt lat="44.856814238247345" lon="9.855483810988915"><ele>258.6</ele><time>2026-04-12T07:56:06.999Z</time></trkpt><trkpt lat="44.85671769582002" lon="9.855488504209866"><ele>259.20000000000005</ele><time>2026-04-12T07:56:08.999Z</time></trkpt><trkpt lat="44.85662297037054" lon="9.855508450553026"><ele>259.8</ele><time>2026-04-12T07:56:10.999Z</time></trkpt><trkpt lat="44.85652502756735" lon="9.855536690468124"><ele>260.40000000000003</ele><time>2026-04-12T07:56:12.999Z</time></trkpt><trkpt lat="44.85643278157489" lon="9.855569784786317"><ele>261.0</ele><time>2026-04-12T07:56:14.999Z</time></trkpt><trkpt lat="44.85634002936466" lon="9.855601055233352"><ele>261.0</ele><time>2026-04-12T07:56:16.999Z</time></trkpt><trkpt lat="44.85624804540442" lon="9.85563952109227"><ele>261.0</ele><time>2026-04-12T07:56:18.999Z</time></trkpt><trkpt lat="44.856156761800854" lon="9.85567479108376"><ele>261.0</ele><time>2026-04-12T07:56:20.999Z</time></trkpt><trkpt lat="44.856071396717" lon="9.855721431420625"><ele>261.0</ele><time>2026-04-12T07:56:22.999Z</time></trkpt><trkpt lat="44.855984369860806" lon="9.855759013782512"><ele>261.0</ele><time>2026-04-12T07:56:24.999Z</time></trkpt><trkpt lat="44.8559038028976" lon="9.855803939682497"><ele>261.5</ele><time>2026-04-12T07:56:26.999Z</time></trkpt><trkpt lat="44.855824916751324" lon="9.855851134843935"><ele>262.0</ele><time>2026-04-12T07:56:28.999Z</time></trkpt><trkpt lat="44.855749298556645" lon="9.855890997808821"><ele>262.5</ele><time>2026-04-12T07:56:30.999Z</time></trkpt><trkpt lat="44.855674197464445" lon="9.85593793766507"><ele>263.0</ele><time>2026-04-12T07:56:32.999Z</time></trkpt><trkpt lat="44.85559841787308" lon="9.855980934712225"><ele>263.5</ele><time>2026-04-12T07:56:34.999Z</time></trkpt><trkpt lat="44.85552535079674" lon="9.856018724332245"><ele>264.0</ele><time>2026-04-12T07:56:36.999Z</time></trkpt><trkpt lat="44.85545729051484" lon="9.85606454461207"><ele>264.0</ele><time>2026-04-12T07:56:38.999Z</time></trkpt><trkpt lat="44.85538634643087" lon="9.856105856457328"><ele>264.0</ele><time>2026-04-12T07:56:40.999Z</time></trkpt><trkpt lat="44.85531609648257" lon="9.856148280109295"><ele>264.0</ele><time>2026-04-12T07:56:42.999Z</time></trkpt><trkpt lat="44.85524977892429" lon="9.856197980918926"><ele>264.0</ele><time>2026-04-12T07:56:44.999Z</time></trkpt><trkpt lat="44.85518032344684" lon="9.856232849347103"><ele>264.0</ele><time>2026-04-12T07:56:46.999Z</time></trkpt><trkpt lat="44.855108895336805" lon="9.856262926572922"><ele>264.0</ele><time>2026-04-12T07:56:48.999Z</time></trkpt><trkpt lat="44.855037235265655" lon="9.856292475728342"><ele>264.8333333333333</ele><time>2026-04-12T07:56:50.999Z</time></trkpt><trkpt lat="44.854967404313676" lon="9.856322854578345"><ele>265.6666666666667</ele><time>2026-04-12T07:56:52.999Z</time></trkpt><trkpt lat="44.8548912349752" lon="9.856334475324797"><ele>266.5</ele><time>2026-04-12T07:56:54.998Z</time></trkpt><trkpt lat="44.85481947942647" lon="9.856353756858736"><ele>267.33333333333337</ele><time>2026-04-12T07:56:56.998Z</time></trkpt><trkpt lat="44.854740084364074" lon="9.856375227649535"><ele>268.1666666666667</ele><time>2026-04-12T07:56:58.998Z</time></trkpt><trkpt lat="44.85466379747046" lon="9.85638662569934"><ele>269.0</ele><time>2026-04-12T07:57:00.998Z</time></trkpt><trkpt lat="44.85458824840048" lon="9.856400233132918"><ele>269.0</ele><time>2026-04-12T07:57:02.998Z</time></trkpt><trkpt lat="44.854512408602886" lon="9.856415745846883"><ele>269.0</ele><time>2026-04-12T07:57:04.998Z</time></trkpt><trkpt lat="44.85443503614253" lon="9.856418423558877"><ele>269.0</ele><time>2026-04-12T07:57:06.998Z</time></trkpt><trkpt lat="44.85435996062382" lon="9.856422856979437"><ele>269.0</ele><time>2026-04-12T07:57:08.998Z</time></trkpt><trkpt lat="44.85428362334488" lon="9.856423455547041"><ele>269.0</ele><time>2026-04-12T07:57:10.998Z</time></trkpt><trkpt lat="44.85420761720108" lon="9.856424169089864"><ele>269.0</ele><time>2026-04-12T07:57:12.998Z</time></trkpt><trkpt lat="44.85413303387175" lon="9.856424500256546"><ele>269.6666666666667</ele><time>2026-04-12T07:57:14.998Z</time></trkpt><trkpt lat="44.85405103894325" lon="9.856428006612573"><ele>270.33333333333337</ele><time>2026-04-12T07:57:16.998Z</time></trkpt><trkpt lat="44.85397266753683" lon="9.856421857843525"><ele>271.0</ele><time>2026-04-12T07:57:18.998Z</time></trkpt><trkpt lat="44.85389151709314" lon="9.856405312991289"><ele>271.6666666666667</ele><time>2026-04-12T07:57:20.998Z</time></trkpt><trkpt lat="44.85380975824259" lon="9.856384364406825"><ele>272.3333333333333</ele><time>2026-04-12T07:57:22.998Z</time></trkpt><trkpt lat="44.85373030402701" lon="9.85636878644764"><ele>273.0</ele><time>2026-04-12T07:57:24.998Z</time></trkpt><trkpt lat="44.853650294134006" lon="9.856355464505878"><ele>273.0</ele><time>2026-04-12T07:57:26.998Z</time></trkpt><trkpt lat="44.85357754138047" lon="9.856327998440028"><ele>273.0</ele><time>2026-04-12T07:57:28.998Z</time></trkpt><trkpt lat="44.85349356942628" lon="9.856320411120024"><ele>273.0</ele><time>2026-04-12T07:57:30.998Z</time></trkpt><trkpt lat="44.853412357957254" lon="9.856296080423844"><ele>273.0</ele><time>2026-04-12T07:57:32.998Z</time></trkpt><trkpt lat="44.85333356907791" lon="9.856272259734768"><ele>273.0</ele><time>2026-04-12T07:57:35Z</time></trkpt><trkpt lat="44.85325019792778" lon="9.856247044105373"><ele>273.0</ele><time>2026-04-12T07:57:37Z</time></trkpt><trkpt lat="44.85317335602337" lon="9.856221588946681"><ele>273.3333333333333</ele><time>2026-04-12T07:57:39Z</time></trkpt><trkpt lat="44.85310076483404" lon="9.856194230535136"><ele>273.6666666666667</ele><time>2026-04-12T07:57:42Z</time></trkpt><trkpt lat="44.85303858770238" lon="9.856172024626467"><ele>274.0</ele><time>2026-04-12T07:57:43Z</time></trkpt><trkpt lat="44.85296201473452" lon="9.856151278840262"><ele>274.33333333333337</ele><time>2026-04-12T07:57:45Z</time></trkpt><trkpt lat="44.85284472629377" lon="9.856118406402686"><ele>274.6666666666667</ele><time>2026-04-12T07:57:48Z</time></trkpt><trkpt lat="44.852760054660976" lon="9.856096854089966"><ele>275.0</ele><time>2026-04-12T07:57:50Z</time></trkpt><trkpt lat="44.852675302793905" lon="9.856078777650053"><ele>274.6666666666667</ele><time>2026-04-12T07:57:52Z</time></trkpt><trkpt lat="44.85259812189899" lon="9.856060657719839"><ele>274.33333333333337</ele><time>2026-04-12T07:57:54Z</time></trkpt><trkpt lat="44.852521625447636" lon="9.856046075548687"><ele>274.0</ele><time>2026-04-12T07:57:56Z</time></trkpt><trkpt lat="44.85244785483713" lon="9.856039706940983"><ele>273.6666666666667</ele><time>2026-04-12T07:57:58Z</time></trkpt><trkpt lat="44.85237155224753" lon="9.856029696237997"><ele>273.3333333333333</ele><time>2026-04-12T07:58:00Z</time></trkpt><trkpt lat="44.85229340139905" lon="9.85602309724769"><ele>273.0</ele><time>2026-04-12T07:58:02Z</time></trkpt><trkpt lat="44.8522209934254" lon="9.856011615282918"><ele>273.0</ele><time>2026-04-12T07:58:04Z</time></trkpt><trkpt lat="44.85214310936916" lon="9.856000564902834"><ele>273.0</ele><time>2026-04-12T07:58:06Z</time></trkpt><trkpt lat="44.852067114042214" lon="9.855989313520201"><ele>273.0</ele><time>2026-04-12T07:58:08Z</time></trkpt><trkpt lat="44.85198737059321" lon="9.85597461955971"><ele>273.0</ele><time>2026-04-12T07:58:10Z</time></trkpt><trkpt lat="44.85191063605071" lon="9.855960175351775"><ele>273.0</ele><time>2026-04-12T07:58:12Z</time></trkpt><trkpt lat="44.85183331821312" lon="9.855944825028832"><ele>273.0</ele><time>2026-04-12T07:58:14Z</time></trkpt><trkpt lat="44.85175654477984" lon="9.855939812202474"><ele>274.42857142857144</ele><time>2026-04-12T07:58:16Z</time></trkpt><trkpt lat="44.85168124988184" lon="9.855926619568129"><ele>275.8571428571429</ele><time>2026-04-12T07:58:18Z</time></trkpt><trkpt lat="44.85160151063792" lon="9.855911856164491"><ele>277.2857142857143</ele><time>2026-04-12T07:58:20Z</time></trkpt><trkpt lat="44.85153804371195" lon="9.855896043463817"><ele>278.7142857142857</ele><time>2026-04-12T07:58:22Z</time></trkpt><trkpt lat="44.85146250667971" lon="9.855881626991128"><ele>280.14285714285717</ele><time>2026-04-12T07:58:23.999Z</time></trkpt><trkpt lat="44.85139496764796" lon="9.855860919188505"><ele>281.57142857142856</ele><time>2026-04-12T07:58:25.999Z</time></trkpt><trkpt lat="44.85132333438544" lon="9.855839458398897"><ele>283.0</ele><time>2026-04-12T07:58:27.999Z</time></trkpt><trkpt lat="44.851245900383596" lon="9.855826469307035"><ele>283.0</ele><time>2026-04-12T07:58:29.999Z</time></trkpt><trkpt lat="44.851166742922885" lon="9.855808424741586"><ele>283.0</ele><time>2026-04-12T07:58:31.999Z</time></trkpt><trkpt lat="44.85104619227374" lon="9.855793608419082"><ele>283.0</ele><time>2026-04-12T07:58:34.999Z</time></trkpt><trkpt lat="44.85096294359429" lon="9.855765223733693"><ele>283.0</ele><time>2026-04-12T07:58:36.999Z</time></trkpt><trkpt lat="44.85088506342088" lon="9.855726856875734"><ele>283.0</ele><time>2026-04-12T07:58:38.999Z</time></trkpt><trkpt lat="44.85080917919368" lon="9.855684921022709"><ele>282.8333333333333</ele><time>2026-04-12T07:58:40.999Z</time></trkpt><trkpt lat="44.850739812184315" lon="9.855716432318648"><ele>282.66666666666663</ele><time>2026-04-12T07:58:42.999Z</time></trkpt><trkpt lat="44.85065305371688" lon="9.855791596212125"><ele>282.5</ele><time>2026-04-12T07:58:44.999Z</time></trkpt><trkpt lat="44.850553563590694" lon="9.855882476584544"><ele>282.3333333333333</ele><time>2026-04-12T07:58:46.999Z</time></trkpt><trkpt lat="44.850491411021004" lon="9.85591379007671"><ele>282.1666666666667</ele><time>2026-04-12T07:58:47.999Z</time></trkpt><trkpt lat="44.85043744696365" lon="9.855969256734015"><ele>282.0</ele><time>2026-04-12T07:58:48.999Z</time></trkpt><trkpt lat="44.85038295412828" lon="9.856033616824678"><ele>280.5</ele><time>2026-04-12T07:58:49.999Z</time></trkpt><trkpt lat="44.850344843821595" lon="9.856120489672197"><ele>279.0</ele><time>2026-04-12T07:58:50.999Z</time></trkpt><trkpt lat="44.85028410428609" lon="9.85618335899916"><ele>277.5</ele><time>2026-04-12T07:58:51.999Z</time></trkpt><trkpt lat="44.85023710495393" lon="9.856268672034215"><ele>276.0</ele><time>2026-04-12T07:58:52.999Z</time></trkpt><trkpt lat="44.85018905403463" lon="9.856355142393541"><ele>274.5</ele><time>2026-04-12T07:58:53.999Z</time></trkpt><trkpt lat="44.85014131058019" lon="9.85644572699806"><ele>273.0</ele><time>2026-04-12T07:58:54.999Z</time></trkpt><trkpt lat="44.850096544059255" lon="9.856541857766322"><ele>273.0</ele><time>2026-04-12T07:58:55.999Z</time></trkpt><trkpt lat="44.85005517989422" lon="9.856642805593495"><ele>273.0</ele><time>2026-04-12T07:58:56.999Z</time></trkpt><trkpt lat="44.85002826475119" lon="9.85675618137565"><ele>273.0</ele><time>2026-04-12T07:58:57.999Z</time></trkpt><trkpt lat="44.84998428230837" lon="9.856858055405123"><ele>273.0</ele><time>2026-04-12T07:58:58.999Z</time></trkpt><trkpt lat="44.849943766312585" lon="9.856964291515242"><ele>273.0</ele><time>2026-04-12T07:58:59.999Z</time></trkpt><trkpt lat="44.84990157096223" lon="9.857073805810364"><ele>273.0</ele><time>2026-04-12T07:59:00.999Z</time></trkpt><trkpt lat="44.84985655380292" lon="9.857183159119895"><ele>273.0</ele><time>2026-04-12T07:59:01.999Z</time></trkpt><trkpt lat="44.849812396111545" lon="9.85729541945082"><ele>273.0</ele><time>2026-04-12T07:59:02.999Z</time></trkpt><trkpt lat="44.84976988978008" lon="9.857412003010205"><ele>273.0</ele><time>2026-04-12T07:59:03.999Z</time></trkpt><trkpt lat="44.84972977642693" lon="9.857533419659234"><ele>273.0</ele><time>2026-04-12T07:59:04.999Z</time></trkpt><trkpt lat="44.84969024573588" lon="9.857653613166896"><ele>273.0</ele><time>2026-04-12T07:59:05.999Z</time></trkpt><trkpt lat="44.84964871956713" lon="9.857775835911571"><ele>271.8</ele><time>2026-04-12T07:59:06.999Z</time></trkpt><trkpt lat="44.84960580878957" lon="9.857895894405763"><ele>270.6</ele><time>2026-04-12T07:59:07.999Z</time></trkpt><trkpt lat="44.849558938208986" lon="9.858012720381916"><ele>269.4</ele><time>2026-04-12T07:59:08.999Z</time></trkpt><trkpt lat="44.8495127645255" lon="9.858130004215406"><ele>268.2</ele><time>2026-04-12T07:59:09.999Z</time></trkpt><trkpt lat="44.84947526049192" lon="9.858253304858474"><ele>267.0</ele><time>2026-04-12T07:59:10.999Z</time></trkpt><trkpt lat="44.84944937852653" lon="9.858383761840422"><ele>265.4</ele><time>2026-04-12T07:59:11.999Z</time></trkpt><trkpt lat="44.84942244114817" lon="9.858510373267498"><ele>263.79999999999995</ele><time>2026-04-12T07:59:12.999Z</time></trkpt><trkpt lat="44.84939935561601" lon="9.858639232673188"><ele>262.2</ele><time>2026-04-12T07:59:13.999Z</time></trkpt><trkpt lat="44.849384018506996" lon="9.858773086467025"><ele>260.59999999999997</ele><time>2026-04-12T07:59:14.999Z</time></trkpt><trkpt lat="44.849374581069135" lon="9.858906869129306"><ele>259.0</ele><time>2026-04-12T07:59:15.999Z</time></trkpt><trkpt lat="44.84936768473305" lon="9.859042587495786"><ele>259.0</ele><time>2026-04-12T07:59:16.999Z</time></trkpt><trkpt lat="44.8493558457512" lon="9.859176940493516"><ele>259.0</ele><time>2026-04-12T07:59:17.999Z</time></trkpt><trkpt lat="44.84933452594969" lon="9.85930883929475"><ele>259.0</ele><time>2026-04-12T07:59:18.999Z</time></trkpt><trkpt lat="44.84929844665873" lon="9.85943823733434"><ele>259.0</ele><time>2026-04-12T07:59:19.998Z</time></trkpt><trkpt lat="44.84924479693098" lon="9.859562894158483"><ele>259.0</ele><time>2026-04-12T07:59:20.998Z</time></trkpt><trkpt lat="44.849176635472936" lon="9.859678700397716"><ele>260.0</ele><time>2026-04-12T07:59:21.998Z</time></trkpt><trkpt lat="44.849089621234704" lon="9.859785640558894"><ele>261.0</ele><time>2026-04-12T07:59:22.998Z</time></trkpt><trkpt lat="44.84899172785345" lon="9.859881667100481"><ele>262.0</ele><time>2026-04-12T07:59:23.998Z</time></trkpt><trkpt lat="44.84888793929017" lon="9.85998003325643"><ele>263.0</ele><time>2026-04-12T07:59:24.998Z</time></trkpt><trkpt lat="44.848787679792494" lon="9.86007444774878"><ele>262.0</ele><time>2026-04-12T07:59:25.998Z</time></trkpt><trkpt lat="44.848692171339344" lon="9.86017645675444"><ele>261.0</ele><time>2026-04-12T07:59:26.998Z</time></trkpt><trkpt lat="44.84861145455866" lon="9.86029135910204"><ele>260.0</ele><time>2026-04-12T07:59:27.998Z</time></trkpt><trkpt lat="44.84854683461156" lon="9.860428905534095"><ele>259.0</ele><time>2026-04-12T07:59:28.998Z</time></trkpt><trkpt lat="44.84850843341139" lon="9.860581062588217"><ele>259.0</ele><time>2026-04-12T07:59:29.998Z</time></trkpt><trkpt lat="44.848493013586996" lon="9.860742660907018"><ele>259.0</ele><time>2026-04-12T07:59:30.998Z</time></trkpt><trkpt lat="44.84849402249758" lon="9.86090897567983"><ele>259.0</ele><time>2026-04-12T07:59:31.998Z</time></trkpt><trkpt lat="44.84850942479987" lon="9.861070687063867"><ele>259.0</ele><time>2026-04-12T07:59:32.998Z</time></trkpt><trkpt lat="44.848535459658535" lon="9.861228044786031"><ele>254.75</ele><time>2026-04-12T07:59:33.998Z</time></trkpt><trkpt lat="44.84856975886858" lon="9.861392878416076"><ele>250.5</ele><time>2026-04-12T07:59:34.998Z</time></trkpt><trkpt lat="44.84859671977874" lon="9.861568972044386"><ele>246.25</ele><time>2026-04-12T07:59:35.998Z</time></trkpt><trkpt lat="44.84863883224321" lon="9.861738082462596"><ele>242.0</ele><time>2026-04-12T07:59:36.998Z</time></trkpt><trkpt lat="44.848687742192354" lon="9.861906832686472"><ele>239.0</ele><time>2026-04-12T07:59:37.998Z</time></trkpt><trkpt lat="44.8487451298444" lon="9.86206832607932"><ele>236.0</ele><time>2026-04-12T07:59:38.998Z</time></trkpt><trkpt lat="44.84879796610819" lon="9.862228576296939"><ele>233.0</ele><time>2026-04-12T07:59:40Z</time></trkpt><trkpt lat="44.84884624202942" lon="9.862390829297699"><ele>230.0</ele><time>2026-04-12T07:59:41Z</time></trkpt><trkpt lat="44.84888807824506" lon="9.862560192617204"><ele>227.8</ele><time>2026-04-12T07:59:42Z</time></trkpt><trkpt lat="44.848927738285916" lon="9.862722917360284"><ele>225.6</ele><time>2026-04-12T07:59:43Z</time></trkpt><trkpt lat="44.84896552110669" lon="9.862873469540945"><ele>223.39999999999998</ele><time>2026-04-12T07:59:44Z</time></trkpt><trkpt lat="44.84899920987142" lon="9.86300770820421"><ele>221.2</ele><time>2026-04-12T07:59:45Z</time></trkpt><trkpt lat="44.84902804416725" lon="9.863122603422857"><ele>219.0</ele><time>2026-04-12T07:59:46Z</time></trkpt><trkpt lat="44.84905148269099" lon="9.863216153484696"><ele>219.0</ele><time>2026-04-12T07:59:47Z</time></trkpt><trkpt lat="44.849072013670366" lon="9.863301846099024"><ele>218.99999999999997</ele><time>2026-04-12T07:59:48Z</time></trkpt><trkpt lat="44.849107482232434" lon="9.863403639063716"><ele>218.99999999999997</ele><time>2026-04-12T07:59:50Z</time></trkpt><trkpt lat="44.84926194432677" lon="9.863337206264541"><ele>219.0</ele><time>2026-04-12T07:59:51Z</time></trkpt><trkpt lat="44.849365112638765" lon="9.863252994711376"><ele>219.0</ele><time>2026-04-12T07:59:53Z</time></trkpt><trkpt lat="44.849455527518984" lon="9.86315776658793"><ele>219.79999999999998</ele><time>2026-04-12T07:59:55Z</time></trkpt><trkpt lat="44.84954408839734" lon="9.863065680109287"><ele>220.59999999999997</ele><time>2026-04-12T07:59:57Z</time></trkpt><trkpt lat="44.849645494638146" lon="9.862990845368381"><ele>221.4</ele><time>2026-04-12T07:59:59Z</time></trkpt><trkpt lat="44.84972257530181" lon="9.862857105279243"><ele>222.2</ele><time>2026-04-12T08:00:01Z</time></trkpt><trkpt lat="44.84976419697745" lon="9.862780948987789"><ele>223.0</ele><time>2026-04-12T08:00:02Z</time></trkpt><trkpt lat="44.84980181483567" lon="9.862692155975015"><ele>222.16666666666666</ele><time>2026-04-12T08:00:03Z</time></trkpt><trkpt lat="44.849838259198265" lon="9.862596891760138"><ele>221.33333333333331</ele><time>2026-04-12T08:00:04Z</time></trkpt><trkpt lat="44.849875099990435" lon="9.86249570270899"><ele>220.5</ele><time>2026-04-12T08:00:05Z</time></trkpt><trkpt lat="44.84991222127217" lon="9.862386921725783"><ele>219.66666666666669</ele><time>2026-04-12T08:00:06Z</time></trkpt><trkpt lat="44.8499498164061" lon="9.862276643249471"><ele>218.83333333333334</ele><time>2026-04-12T08:00:07Z</time></trkpt><trkpt lat="44.84998809479913" lon="9.86216496995329"><ele>218.0</ele><time>2026-04-12T08:00:08Z</time></trkpt><trkpt lat="44.85003478412319" lon="9.862061166369033"><ele>218.00000000000003</ele><time>2026-04-12T08:00:09Z</time></trkpt><trkpt lat="44.8500856753382" lon="9.861964746544547"><ele>218.0</ele><time>2026-04-12T08:00:10Z</time></trkpt><trkpt lat="44.85014440104591" lon="9.861881909061449"><ele>218.0</ele><time>2026-04-12T08:00:11Z</time></trkpt><trkpt lat="44.85021236365531" lon="9.861833641687836"><ele>218.0</ele><time>2026-04-12T08:00:12Z</time></trkpt><trkpt lat="44.85028931503664" lon="9.861830673867216"><ele>218.00000000000003</ele><time>2026-04-12T08:00:13Z</time></trkpt><trkpt lat="44.85035992008919" lon="9.861866888371969"><ele>218.0</ele><time>2026-04-12T08:00:14Z</time></trkpt><trkpt lat="44.85039325639452" lon="9.861971889913734"><ele>218.2</ele><time>2026-04-12T08:00:15Z</time></trkpt><trkpt lat="44.85039504547727" lon="9.862091901336154"><ele>218.4</ele><time>2026-04-12T08:00:16Z</time></trkpt><trkpt lat="44.85040827070347" lon="9.862210490032993"><ele>218.59999999999997</ele><time>2026-04-12T08:00:17Z</time></trkpt><trkpt lat="44.85043597773537" lon="9.862334030899278"><ele>218.79999999999998</ele><time>2026-04-12T08:00:18Z</time></trkpt><trkpt lat="44.85045679820347" lon="9.862463195462182"><ele>219.0</ele><time>2026-04-12T08:00:19Z</time></trkpt><trkpt lat="44.8504948746458" lon="9.86259266178903"><ele>217.79999999999998</ele><time>2026-04-12T08:00:20Z</time></trkpt><trkpt lat="44.85055005477315" lon="9.862715908309864"><ele>216.59999999999997</ele><time>2026-04-12T08:00:21Z</time></trkpt><trkpt lat="44.85062035233378" lon="9.86283323145378"><ele>215.4</ele><time>2026-04-12T08:00:22Z</time></trkpt><trkpt lat="44.85069489911924" lon="9.862956643719096"><ele>214.2</ele><time>2026-04-12T08:00:23Z</time></trkpt><trkpt lat="44.85076532575849" lon="9.8630911067622"><ele>213.0</ele><time>2026-04-12T08:00:24Z</time></trkpt><trkpt lat="44.85083288586971" lon="9.863232381611791"><ele>213.0</ele><time>2026-04-12T08:00:25Z</time></trkpt><trkpt lat="44.85089577454248" lon="9.863373587320783"><ele>213.0</ele><time>2026-04-12T08:00:26Z</time></trkpt><trkpt lat="44.8509522570319" lon="9.86352075869237"><ele>213.0</ele><time>2026-04-12T08:00:27Z</time></trkpt><trkpt lat="44.850996079239046" lon="9.86367355810656"><ele>213.0</ele><time>2026-04-12T08:00:27.999Z</time></trkpt><trkpt lat="44.851035039374445" lon="9.863833429591153"><ele>213.5</ele><time>2026-04-12T08:00:28.999Z</time></trkpt><trkpt lat="44.851060487759874" lon="9.863995916622747"><ele>214.0</ele><time>2026-04-12T08:00:29.999Z</time></trkpt><trkpt lat="44.85108014203506" lon="9.864154521438763"><ele>214.5</ele><time>2026-04-12T08:00:30.999Z</time></trkpt><trkpt lat="44.85108918119571" lon="9.864314967531746"><ele>215.0</ele><time>2026-04-12T08:00:31.999Z</time></trkpt><trkpt lat="44.85111203182124" lon="9.864471066871204"><ele>211.25</ele><time>2026-04-12T08:00:32.999Z</time></trkpt><trkpt lat="44.85113668549351" lon="9.86462178102345"><ele>207.5</ele><time>2026-04-12T08:00:33.999Z</time></trkpt><trkpt lat="44.851178908744174" lon="9.864769450278116"><ele>203.75</ele><time>2026-04-12T08:00:34.999Z</time></trkpt><trkpt lat="44.85124027719105" lon="9.864915493548514"><ele>200.0</ele><time>2026-04-12T08:00:35.999Z</time></trkpt><trkpt lat="44.85131383398112" lon="9.86506103341824"><ele>199.25</ele><time>2026-04-12T08:00:36.999Z</time></trkpt><trkpt lat="44.85139237727201" lon="9.865208117088141"><ele>198.5</ele><time>2026-04-12T08:00:37.999Z</time></trkpt><trkpt lat="44.8514739107949" lon="9.86535707115149"><ele>197.75</ele><time>2026-04-12T08:00:38.999Z</time></trkpt><trkpt lat="44.8515570740115" lon="9.865497370515108"><ele>197.0</ele><time>2026-04-12T08:00:39.999Z</time></trkpt><trkpt lat="44.85165356877832" lon="9.865614200716642"><ele>197.0</ele><time>2026-04-12T08:00:40.999Z</time></trkpt><trkpt lat="44.85176192127388" lon="9.865718952137405"><ele>197.0</ele><time>2026-04-12T08:00:41.999Z</time></trkpt><trkpt lat="44.851874968148095" lon="9.865807531023185"><ele>197.0</ele><time>2026-04-12T08:00:42.999Z</time></trkpt><trkpt lat="44.85199589474539" lon="9.86586811312438"><ele>197.0</ele><time>2026-04-12T08:00:43.999Z</time></trkpt><trkpt lat="44.85211193343409" lon="9.865927553050978"><ele>194.75</ele><time>2026-04-12T08:00:44.999Z</time></trkpt><trkpt lat="44.852219868493336" lon="9.866002479188083"><ele>192.5</ele><time>2026-04-12T08:00:45.999Z</time></trkpt><trkpt lat="44.85232387565736" lon="9.86609124296918"><ele>190.25</ele><time>2026-04-12T08:00:46.999Z</time></trkpt><trkpt lat="44.85241598361717" lon="9.86619720590222"><ele>188.0</ele><time>2026-04-12T08:00:47.999Z</time></trkpt><trkpt lat="44.852499203001315" lon="9.866308525588577"><ele>188.0</ele><time>2026-04-12T08:00:48.999Z</time></trkpt><trkpt lat="44.85257604137707" lon="9.866419383829145"><ele>188.0</ele><time>2026-04-12T08:00:49.999Z</time></trkpt><trkpt lat="44.85264850674728" lon="9.866533759004954"><ele>188.0</ele><time>2026-04-12T08:00:50.999Z</time></trkpt><trkpt lat="44.85271802876494" lon="9.866647291356713"><ele>188.0</ele><time>2026-04-12T08:00:51.999Z</time></trkpt><trkpt lat="44.852787100854144" lon="9.866758666966486"><ele>188.0</ele><time>2026-04-12T08:00:52.999Z</time></trkpt><trkpt lat="44.85285482037802" lon="9.866867165724761"><ele>185.8</ele><time>2026-04-12T08:00:53.999Z</time></trkpt><trkpt lat="44.85292037325934" lon="9.866972020978901"><ele>183.60000000000002</ele><time>2026-04-12T08:00:54.999Z</time></trkpt><trkpt lat="44.85298323123836" lon="9.867075114595488"><ele>181.39999999999998</ele><time>2026-04-12T08:00:55.999Z</time></trkpt><trkpt lat="44.85304325363542" lon="9.86717888802573"><ele>179.2</ele><time>2026-04-12T08:00:56.999Z</time></trkpt><trkpt lat="44.85310300658047" lon="9.867280649136271"><ele>177.0</ele><time>2026-04-12T08:00:57.999Z</time></trkpt><trkpt lat="44.85316472319931" lon="9.86738057964598"><ele>177.0</ele><time>2026-04-12T08:00:58.999Z</time></trkpt><trkpt lat="44.85322864965596" lon="9.867472803931648"><ele>177.0</ele><time>2026-04-12T08:00:59.999Z</time></trkpt><trkpt lat="44.853294227628375" lon="9.867564527851375"><ele>177.0</ele><time>2026-04-12T08:01:00.999Z</time></trkpt><trkpt lat="44.85335933376834" lon="9.867658735432295"><ele>177.0</ele><time>2026-04-12T08:01:01.999Z</time></trkpt><trkpt lat="44.85342228195212" lon="9.86775781617428"><ele>177.0</ele><time>2026-04-12T08:01:02.999Z</time></trkpt><trkpt lat="44.8534862537988" lon="9.86785629057333"><ele>176.39999999999998</ele><time>2026-04-12T08:01:03.999Z</time></trkpt><trkpt lat="44.85355036206051" lon="9.867952251511888"><ele>175.79999999999998</ele><time>2026-04-12T08:01:04.999Z</time></trkpt><trkpt lat="44.85361439269009" lon="9.86805025133884"><ele>175.2</ele><time>2026-04-12T08:01:05.999Z</time></trkpt><trkpt lat="44.853674051146626" lon="9.868153830255647"><ele>174.6</ele><time>2026-04-12T08:01:06.999Z</time></trkpt><trkpt lat="44.85373723866587" lon="9.86825328109224"><ele>174.0</ele><time>2026-04-12T08:01:07.999Z</time></trkpt><trkpt lat="44.853801008403046" lon="9.86835100523399"><ele>173.33333333333334</ele><time>2026-04-12T08:01:08.999Z</time></trkpt><trkpt lat="44.85385896040274" lon="9.868449294227025"><ele>172.66666666666666</ele><time>2026-04-12T08:01:09.999Z</time></trkpt><trkpt lat="44.8539184704021" lon="9.868546235080984"><ele>172.0</ele><time>2026-04-12T08:01:10.999Z</time></trkpt><trkpt lat="44.85397241907223" lon="9.868643942518716"><ele>171.33333333333331</ele><time>2026-04-12T08:01:11.999Z</time></trkpt><trkpt lat="44.85402758187044" lon="9.86874058538764"><ele>170.66666666666666</ele><time>2026-04-12T08:01:12.999Z</time></trkpt><trkpt lat="44.85409546747232" lon="9.868820076856116"><ele>170.0</ele><time>2026-04-12T08:01:13.999Z</time></trkpt><trkpt lat="44.85416824954623" lon="9.868890744409427"><ele>170.0</ele><time>2026-04-12T08:01:14.999Z</time></trkpt><trkpt lat="44.85424281663558" lon="9.868951265434438"><ele>170.0</ele><time>2026-04-12T08:01:15.999Z</time></trkpt><trkpt lat="44.854318554925705" lon="9.86900637952963"><ele>170.0</ele><time>2026-04-12T08:01:16.999Z</time></trkpt><trkpt lat="44.85438858702195" lon="9.869066226747913"><ele>170.0</ele><time>2026-04-12T08:01:17.999Z</time></trkpt><trkpt lat="44.85444789732724" lon="9.869114092566086"><ele>170.0</ele><time>2026-04-12T08:01:18.999Z</time></trkpt><trkpt lat="44.85451735196448" lon="9.86919559539545"><ele>170.0</ele><time>2026-04-12T08:01:20.999Z</time></trkpt><trkpt lat="44.85456126984159" lon="9.869268180021878"><ele>169.25</ele><time>2026-04-12T08:01:23.998Z</time></trkpt><trkpt lat="44.85440336992519" lon="9.869529692054758"><ele>168.5</ele><time>2026-04-12T08:01:27.998Z</time></trkpt><trkpt lat="44.85434396154394" lon="9.869626782623827"><ele>167.75</ele><time>2026-04-12T08:01:29.998Z</time></trkpt><trkpt lat="44.854264845108446" lon="9.869701838611077"><ele>167.0</ele><time>2026-04-12T08:01:31.998Z</time></trkpt><trkpt lat="44.85416483199314" lon="9.869769017736065"><ele>166.39999999999998</ele><time>2026-04-12T08:01:33.998Z</time></trkpt><trkpt lat="44.85405347012754" lon="9.869821428197612"><ele>165.79999999999998</ele><time>2026-04-12T08:01:35.998Z</time></trkpt><trkpt lat="44.85394923829232" lon="9.869863688205593"><ele>165.2</ele><time>2026-04-12T08:01:37.998Z</time></trkpt><trkpt lat="44.85383947777452" lon="9.869904033754986"><ele>164.6</ele><time>2026-04-12T08:01:39.998Z</time></trkpt><trkpt lat="44.853745241917814" lon="9.869969862586863"><ele>164.0</ele><time>2026-04-12T08:01:41.998Z</time></trkpt><trkpt lat="44.85366013508585" lon="9.87005706107954"><ele>163.6</ele><time>2026-04-12T08:01:43.998Z</time></trkpt><trkpt lat="44.85358203898287" lon="9.87016167822361"><ele>163.2</ele><time>2026-04-12T08:01:46Z</time></trkpt><trkpt lat="44.85351588273934" lon="9.870282059570233"><ele>162.79999999999998</ele><time>2026-04-12T08:01:48Z</time></trkpt><trkpt lat="44.85345630115925" lon="9.870396503421986"><ele>162.39999999999998</ele><time>2026-04-12T08:01:50Z</time></trkpt><trkpt lat="44.853406734231044" lon="9.870484098699878"><ele>162.0</ele><time>2026-04-12T08:01:52Z</time></trkpt><trkpt lat="44.853339084390186" lon="9.870478789952706"><ele>162.0</ele><time>2026-04-12T08:01:54Z</time></trkpt><trkpt lat="44.85327701463139" lon="9.870381782973812"><ele>162.0</ele><time>2026-04-12T08:01:57Z</time></trkpt><trkpt lat="44.853221877431686" lon="9.870327695089372"><ele>162.0</ele><time>2026-04-12T08:01:59Z</time></trkpt><trkpt lat="44.85317842485283" lon="9.870252342847508"><ele>162.0</ele><time>2026-04-12T08:02:01Z</time></trkpt><trkpt lat="44.85313591614884" lon="9.870186782126252"><ele>162.0</ele><time>2026-04-12T08:02:03Z</time></trkpt><trkpt lat="44.85309852140994" lon="9.870108242693911"><ele>162.0</ele><time>2026-04-12T08:02:05Z</time></trkpt><trkpt lat="44.85304205144373" lon="9.870037445323144"><ele>162.0</ele><time>2026-04-12T08:02:09Z</time></trkpt><trkpt lat="44.85297212917605" lon="9.8700611544918"><ele>162.0</ele><time>2026-04-12T08:02:11Z</time></trkpt><trkpt lat="44.85289523795219" lon="9.870022690322646"><ele>162.0</ele><time>2026-04-12T08:02:16Z</time></trkpt><trkpt lat="44.85283881424777" lon="9.870090014186276"><ele>162.0</ele><time>2026-04-12T08:02:20Z</time></trkpt><trkpt lat="44.852784724066055" lon="9.870166192992617"><ele>162.0</ele><time>2026-04-12T08:02:22Z</time></trkpt><trkpt lat="44.85278792344467" lon="9.87027773674872"><ele>162.0</ele><time>2026-04-12T08:02:24Z</time></trkpt><trkpt lat="44.85278792344727" lon="9.870370856687776"><ele>162.0</ele><time>2026-04-12T08:02:26Z</time></trkpt><trkpt lat="44.85282309347151" lon="9.8704849644207"><ele>162.0</ele><time>2026-04-12T08:02:28Z</time></trkpt><trkpt lat="44.852814888176965" lon="9.870602842910438"><ele>162.0</ele><time>2026-04-12T08:02:30Z</time></trkpt><trkpt lat="44.8527918288219" lon="9.870723973760462"><ele>162.0</ele><time>2026-04-12T08:02:32Z</time></trkpt><trkpt lat="44.852766951904314" lon="9.870837219371362"><ele>162.0</ele><time>2026-04-12T08:02:33.999Z</time></trkpt><trkpt lat="44.852742849984374" lon="9.870933037650701"><ele>162.0</ele><time>2026-04-12T08:02:35.999Z</time></trkpt><trkpt lat="44.852713904216394" lon="9.87103883940716"><ele>162.0</ele><time>2026-04-12T08:02:38.999Z</time></trkpt><trkpt lat="44.85280973854256" lon="9.871158823012445"><ele>162.0</ele><time>2026-04-12T08:03:30.998Z</time></trkpt><trkpt lat="44.85292242498338" lon="9.871055291498196"><ele>162.0</ele><time>2026-04-12T08:20:54.028Z</time></trkpt><trkpt lat="44.85301998423234" lon="9.871063438285942"><ele>162.0</ele><time>2026-04-12T08:20:56.032Z</time></trkpt><trkpt lat="44.85292583333763" lon="9.871039420390389"><ele>162.0</ele><time>2026-04-12T08:20:59.032Z</time></trkpt><trkpt lat="44.852766893761576" lon="9.870939926499652"><ele>161.5</ele><time>2026-04-12T08:21:01Z</time></trkpt><trkpt lat="44.85282251306498" lon="9.871025260063709"><ele>161.0</ele><time>2026-04-12T08:21:03Z</time></trkpt><trkpt lat="44.852773003530714" lon="9.871098949283912"><ele>160.5</ele><time>2026-04-12T08:21:17.999Z</time></trkpt><trkpt lat="44.85280526201632" lon="9.871187736170937"><ele>160.0</ele><time>2026-04-12T08:21:54.999Z</time></trkpt><trkpt lat="44.852871076146144" lon="9.87121695043142"><ele>159.5</ele><time>2026-04-12T08:22:00.999Z</time></trkpt><trkpt lat="44.852931905863855" lon="9.871264111066496"><ele>159.0</ele><time>2026-04-12T08:22:03.999Z</time></trkpt><trkpt lat="44.8530207858996" lon="9.871317146683875"><ele>159.0</ele><time>2026-04-12T08:22:06.998Z</time></trkpt><trkpt lat="44.85308509568112" lon="9.871353798558863"><ele>159.0</ele><time>2026-04-12T08:22:08.998Z</time></trkpt><trkpt lat="44.853147984009574" lon="9.871383354452494"><ele>159.0</ele><time>2026-04-12T08:22:10.998Z</time></trkpt><trkpt lat="44.853194263819326" lon="9.871448732844254"><ele>159.0</ele><time>2026-04-12T08:22:12.998Z</time></trkpt><trkpt lat="44.85316737040134" lon="9.871567942244404"><ele>159.0</ele><time>2026-04-12T08:22:15.998Z</time></trkpt><trkpt lat="44.85314376742396" lon="9.871669046571858"><ele>159.0</ele><time>2026-04-12T08:22:18.998Z</time></trkpt><trkpt lat="44.853129878429314" lon="9.871760657338674"><ele>159.0</ele><time>2026-04-12T08:22:21.998Z</time></trkpt><trkpt lat="44.85310334254282" lon="9.871847738798849"><ele>158.66666666666666</ele><time>2026-04-12T08:23:19.999Z</time></trkpt><trkpt lat="44.85307822839183" lon="9.871956574670614"><ele>158.33333333333334</ele><time>2026-04-12T08:23:22.999Z</time></trkpt><trkpt lat="44.8530626274183" lon="9.87205026905816"><ele>158.0</ele><time>2026-04-12T08:23:24.999Z</time></trkpt><trkpt lat="44.85304669254095" lon="9.872155807196183"><ele>157.66666666666669</ele><time>2026-04-12T08:23:26.999Z</time></trkpt><trkpt lat="44.853027189254" lon="9.872282125385974"><ele>157.33333333333334</ele><time>2026-04-12T08:23:28.999Z</time></trkpt><trkpt lat="44.85300503928002" lon="9.872417512384454"><ele>157.0</ele><time>2026-04-12T08:23:30.999Z</time></trkpt><trkpt lat="44.85297865968171" lon="9.872561754617879"><ele>156.79999999999998</ele><time>2026-04-12T08:23:32.999Z</time></trkpt><trkpt lat="44.85295326286868" lon="9.872705950118016"><ele>156.6</ele><time>2026-04-12T08:23:34.999Z</time></trkpt><trkpt lat="44.852931634372496" lon="9.87285756472117"><ele>156.39999999999998</ele><time>2026-04-12T08:23:36.999Z</time></trkpt><trkpt lat="44.85290600638943" lon="9.873004078654686"><ele>156.2</ele><time>2026-04-12T08:23:38.999Z</time></trkpt><trkpt lat="44.852883945170355" lon="9.873127929569609"><ele>156.0</ele><time>2026-04-12T08:23:40.999Z</time></trkpt><trkpt lat="44.852835566957125" lon="9.873236669076864"><ele>156.0</ele><time>2026-04-12T08:23:42.999Z</time></trkpt><trkpt lat="44.852743873210834" lon="9.873233382741274"><ele>156.0</ele><time>2026-04-12T08:23:44.999Z</time></trkpt><trkpt lat="44.8526339459445" lon="9.873242199044004"><ele>156.0</ele><time>2026-04-12T08:23:46.999Z</time></trkpt><trkpt lat="44.85255844866918" lon="9.873254370098165"><ele>156.0</ele><time>2026-04-12T08:23:48.999Z</time></trkpt><trkpt lat="44.85250479651123" lon="9.873339101566353"><ele>156.0</ele><time>2026-04-12T08:23:50.999Z</time></trkpt><trkpt lat="44.85243934380446" lon="9.873417256761227"><ele>156.0</ele><time>2026-04-12T08:23:52.999Z</time></trkpt><trkpt lat="44.85237518728229" lon="9.87350420065421"><ele>157.5</ele><time>2026-04-12T08:23:54.999Z</time></trkpt><trkpt lat="44.85231857671097" lon="9.873593789983085"><ele>159.0</ele><time>2026-04-12T08:23:56.999Z</time></trkpt><trkpt lat="44.85226978724872" lon="9.87367302978674"><ele>160.5</ele><time>2026-04-12T08:23:58.999Z</time></trkpt><trkpt lat="44.85221878301967" lon="9.873748070897978"><ele>162.0</ele><time>2026-04-12T08:24:00.999Z</time></trkpt><trkpt lat="44.85217608537616" lon="9.873820329502317"><ele>163.5</ele><time>2026-04-12T08:24:02.999Z</time></trkpt><trkpt lat="44.85213182812477" lon="9.87389006428238"><ele>165.0</ele><time>2026-04-12T08:24:04.999Z</time></trkpt><trkpt lat="44.851991591539296" lon="9.874075260480666"><ele>165.0</ele><time>2026-04-12T08:24:06.999Z</time></trkpt><trkpt lat="44.851921388050485" lon="9.874180081281393"><ele>165.0</ele><time>2026-04-12T08:24:08.999Z</time></trkpt><trkpt lat="44.85186006327691" lon="9.874278199734919"><ele>165.0</ele><time>2026-04-12T08:24:10.999Z</time></trkpt><trkpt lat="44.851803335298314" lon="9.874369408735683"><ele>165.0</ele><time>2026-04-12T08:24:12.998Z</time></trkpt><trkpt lat="44.85173616401165" lon="9.874459077184635"><ele>165.0</ele><time>2026-04-12T08:24:14.998Z</time></trkpt><trkpt lat="44.851677457820074" lon="9.874557588940453"><ele>165.16666666666666</ele><time>2026-04-12T08:24:16.998Z</time></trkpt><trkpt lat="44.851611969756405" lon="9.874655005406236"><ele>165.33333333333334</ele><time>2026-04-12T08:24:18.998Z</time></trkpt><trkpt lat="44.85154591958414" lon="9.87476336639461"><ele>165.5</ele><time>2026-04-12T08:24:20.998Z</time></trkpt><trkpt lat="44.85147782262755" lon="9.87485386843969"><ele>165.66666666666669</ele><time>2026-04-12T08:24:22.998Z</time></trkpt><trkpt lat="44.85141250339305" lon="9.874936763498779"><ele>165.83333333333334</ele><time>2026-04-12T08:24:24.998Z</time></trkpt><trkpt lat="44.85136395674241" lon="9.875005563301311"><ele>166.0</ele><time>2026-04-12T08:24:26.998Z</time></trkpt><trkpt lat="44.85129896105124" lon="9.8750920406815"><ele>166.4</ele><time>2026-04-12T08:24:28.998Z</time></trkpt><trkpt lat="44.851227498940304" lon="9.875171617653391"><ele>166.8</ele><time>2026-04-12T08:24:30.998Z</time></trkpt><trkpt lat="44.85115877356368" lon="9.875276677709982"><ele>167.20000000000002</ele><time>2026-04-12T08:24:32.998Z</time></trkpt><trkpt lat="44.851098737061335" lon="9.875382300210763"><ele>167.60000000000002</ele><time>2026-04-12T08:24:34.998Z</time></trkpt><trkpt lat="44.85103322121351" lon="9.875492237980612"><ele>168.0</ele><time>2026-04-12T08:24:36.998Z</time></trkpt><trkpt lat="44.850929823251754" lon="9.875632680844028"><ele>168.33333333333334</ele><time>2026-04-12T08:24:41.998Z</time></trkpt><trkpt lat="44.850832497555835" lon="9.875724252060884"><ele>168.66666666666666</ele><time>2026-04-12T08:24:44.998Z</time></trkpt><trkpt lat="44.85076186988783" lon="9.875779206904273"><ele>169.0</ele><time>2026-04-12T08:24:49Z</time></trkpt><trkpt lat="44.85067516139973" lon="9.875827691574894"><ele>169.33333333333331</ele><time>2026-04-12T08:24:52Z</time></trkpt><trkpt lat="44.85062107702328" lon="9.875878826318218"><ele>169.66666666666666</ele><time>2026-04-12T08:24:54Z</time></trkpt><trkpt lat="44.85057040965606" lon="9.87594069036463"><ele>170.0</ele><time>2026-04-12T08:24:56Z</time></trkpt><trkpt lat="44.85050668435944" lon="9.87598425742878"><ele>170.33333333333331</ele><time>2026-04-12T08:24:58Z</time></trkpt><trkpt lat="44.85044316608315" lon="9.876015696405661"><ele>170.66666666666666</ele><time>2026-04-12T08:25:00Z</time></trkpt><trkpt lat="44.85039481391235" lon="9.876100750008526"><ele>171.0</ele><time>2026-04-12T08:25:04Z</time></trkpt><trkpt lat="44.850292958097086" lon="9.876168787209753"><ele>171.33333333333334</ele><time>2026-04-12T08:25:08Z</time></trkpt><trkpt lat="44.85022382848703" lon="9.876231312733726"><ele>171.66666666666669</ele><time>2026-04-12T08:25:11Z</time></trkpt><trkpt lat="44.85016118925749" lon="9.87629465584699"><ele>172.0</ele><time>2026-04-12T08:25:14Z</time></trkpt><trkpt lat="44.850088885643814" lon="9.876362365530685"><ele>172.5</ele><time>2026-04-12T08:25:18Z</time></trkpt><trkpt lat="44.850018832236685" lon="9.876433509182405"><ele>173.0</ele><time>2026-04-12T08:25:21Z</time></trkpt><trkpt lat="44.84988861729393" lon="9.876542316816693"><ele>173.5</ele><time>2026-04-12T08:25:23.999Z</time></trkpt><trkpt lat="44.84983370115914" lon="9.876608527841451"><ele>174.0</ele><time>2026-04-12T08:25:25.999Z</time></trkpt><trkpt lat="44.84977619428187" lon="9.876666079246569"><ele>174.5</ele><time>2026-04-12T08:25:27.999Z</time></trkpt><trkpt lat="44.849722440417565" lon="9.876720371796923"><ele>175.0</ele><time>2026-04-12T08:25:29.999Z</time></trkpt><trkpt lat="44.84966292575388" lon="9.876772709998606"><ele>176.57142857142858</ele><time>2026-04-12T08:25:31.999Z</time></trkpt><trkpt lat="44.84960639761811" lon="9.876828190367181"><ele>178.14285714285714</ele><time>2026-04-12T08:25:33.999Z</time></trkpt><trkpt lat="44.84954816381827" lon="9.876880527531071"><ele>179.71428571428572</ele><time>2026-04-12T08:25:35.999Z</time></trkpt><trkpt lat="44.849492552242324" lon="9.876931706639333"><ele>181.28571428571428</ele><time>2026-04-12T08:25:37.999Z</time></trkpt><trkpt lat="44.84943054258955" lon="9.876975755297403"><ele>182.85714285714286</ele><time>2026-04-12T08:25:39.999Z</time></trkpt><trkpt lat="44.84937364410634" lon="9.877026678761727"><ele>184.42857142857144</ele><time>2026-04-12T08:25:41.999Z</time></trkpt><trkpt lat="44.849299537095014" lon="9.877127619566165"><ele>186.0</ele><time>2026-04-12T08:25:45.999Z</time></trkpt><trkpt lat="44.84922952678768" lon="9.87715242329878"><ele>186.83333333333334</ele><time>2026-04-12T08:25:46.999Z</time></trkpt><trkpt lat="44.84917742151617" lon="9.877207063024176"><ele>187.66666666666666</ele><time>2026-04-12T08:25:50.999Z</time></trkpt><trkpt lat="44.849113628460145" lon="9.877229448285327"><ele>188.5</ele><time>2026-04-12T08:25:52.999Z</time></trkpt><trkpt lat="44.84902573440638" lon="9.877253390775941"><ele>189.33333333333331</ele><time>2026-04-12T08:25:55.999Z</time></trkpt><trkpt lat="44.848940648395526" lon="9.877260630200766"><ele>190.16666666666666</ele><time>2026-04-12T08:25:58.999Z</time></trkpt><trkpt lat="44.84882237213368" lon="9.877286209128881"><ele>191.0</ele><time>2026-04-12T08:25:59.999Z</time></trkpt><trkpt lat="44.848731212911325" lon="9.87727558267864"><ele>191.0</ele><time>2026-04-12T08:26:02.999Z</time></trkpt><trkpt lat="44.84866663684466" lon="9.877261325509808"><ele>191.0</ele><time>2026-04-12T08:26:04.999Z</time></trkpt><trkpt lat="44.84859826531334" lon="9.877262271721785"><ele>191.0</ele><time>2026-04-12T08:26:08.999Z</time></trkpt><trkpt lat="44.84851463619549" lon="9.877284865817726"><ele>191.0</ele><time>2026-04-12T08:26:11.999Z</time></trkpt><trkpt lat="44.84843624735912" lon="9.877298528578018"><ele>191.0</ele><time>2026-04-12T08:26:14.999Z</time></trkpt><trkpt lat="44.848346295813734" lon="9.87735119288603"><ele>191.0</ele><time>2026-04-12T08:26:17.998Z</time></trkpt><trkpt lat="44.84826842775872" lon="9.877434847914738"><ele>191.0</ele><time>2026-04-12T08:26:20.998Z</time></trkpt><trkpt lat="44.84820132205469" lon="9.877482924584621"><ele>191.0</ele><time>2026-04-12T08:26:22.998Z</time></trkpt><trkpt lat="44.848133277521626" lon="9.877566815958685"><ele>191.0</ele><time>2026-04-12T08:26:25.998Z</time></trkpt><trkpt lat="44.848067254655824" lon="9.877646997543291"><ele>191.0</ele><time>2026-04-12T08:26:28.998Z</time></trkpt><trkpt lat="44.847991990302646" lon="9.877714008075632"><ele>191.0</ele><time>2026-04-12T08:26:31.998Z</time></trkpt><trkpt lat="44.84792529770954" lon="9.87776523328152"><ele>191.0</ele><time>2026-04-12T08:26:35.998Z</time></trkpt><trkpt lat="44.84785088998408" lon="9.877745157019966"><ele>191.0</ele><time>2026-04-12T08:26:38.998Z</time></trkpt><trkpt lat="44.84779062210385" lon="9.877702370589137"><ele>191.0</ele><time>2026-04-12T08:26:40.998Z</time></trkpt><trkpt lat="44.84772442581481" lon="9.877639107982093"><ele>191.0</ele><time>2026-04-12T08:26:43.998Z</time></trkpt><trkpt lat="44.84766213132944" lon="9.8775710833403"><ele>191.0</ele><time>2026-04-12T08:26:46.998Z</time></trkpt><trkpt lat="44.84759318548427" lon="9.87750105379515"><ele>191.0</ele><time>2026-04-12T08:26:49.998Z</time></trkpt><trkpt lat="44.84753492376159" lon="9.877456390042457"><ele>191.0</ele><time>2026-04-12T08:26:51.998Z</time></trkpt><trkpt lat="44.84745353666781" lon="9.877447234754186"><ele>192.0</ele><time>2026-04-12T08:26:54Z</time></trkpt><trkpt lat="44.84731414064157" lon="9.877458220267604"><ele>193.0</ele><time>2026-04-12T08:26:57Z</time></trkpt><trkpt lat="44.84728416289436" lon="9.877557601026473"><ele>194.0</ele><time>2026-04-12T08:27:00Z</time></trkpt><trkpt lat="44.84729586886562" lon="9.877680154661693"><ele>195.0</ele><time>2026-04-12T08:27:03Z</time></trkpt><trkpt lat="44.8473188486069" lon="9.877779599360883"><ele>196.0</ele><time>2026-04-12T08:27:06Z</time></trkpt><trkpt lat="44.847330181615376" lon="9.877880289934195"><ele>197.83333333333331</ele><time>2026-04-12T08:27:08Z</time></trkpt><trkpt lat="44.847370614634976" lon="9.877975168583172"><ele>199.66666666666666</ele><time>2026-04-12T08:27:11Z</time></trkpt><trkpt lat="44.84740762026188" lon="9.878091787252309"><ele>201.5</ele><time>2026-04-12T08:27:14Z</time></trkpt><trkpt lat="44.84744845503153" lon="9.8781703637404"><ele>203.33333333333331</ele><time>2026-04-12T08:27:16Z</time></trkpt><trkpt lat="44.84748591956961" lon="9.878260525253188"><ele>205.16666666666666</ele><time>2026-04-12T08:27:19Z</time></trkpt><trkpt lat="44.84753090134951" lon="9.878348296490262"><ele>207.0</ele><time>2026-04-12T08:27:21Z</time></trkpt><trkpt lat="44.847583095242406" lon="9.878436861730043"><ele>208.33333333333334</ele><time>2026-04-12T08:27:24Z</time></trkpt><trkpt lat="44.84765188226557" lon="9.878551775856613"><ele>209.66666666666669</ele><time>2026-04-12T08:27:26.999Z</time></trkpt><trkpt lat="44.84771926010959" lon="9.878651544907564"><ele>211.0</ele><time>2026-04-12T08:27:29.999Z</time></trkpt><trkpt lat="44.84774791095113" lon="9.878756758609127"><ele>212.33333333333334</ele><time>2026-04-12T08:27:32.999Z</time></trkpt><trkpt lat="44.84773884834527" lon="9.87889505871965"><ele>213.66666666666669</ele><time>2026-04-12T08:27:35.999Z</time></trkpt><trkpt lat="44.8476773275576" lon="9.878921152593394"><ele>215.0</ele><time>2026-04-12T08:27:38.999Z</time></trkpt><trkpt lat="44.847590178117585" lon="9.878891512998448"><ele>215.33333333333334</ele><time>2026-04-12T08:27:42.999Z</time></trkpt><trkpt lat="44.84752387633864" lon="9.878841977819807"><ele>215.66666666666669</ele><time>2026-04-12T08:27:45.999Z</time></trkpt><trkpt lat="44.847449873447644" lon="9.8787933277462"><ele>216.0</ele><time>2026-04-12T08:27:48.999Z</time></trkpt><trkpt lat="44.84738270421135" lon="9.878744401361477"><ele>216.33333333333331</ele><time>2026-04-12T08:27:51.999Z</time></trkpt><trkpt lat="44.84732218287818" lon="9.878683242119639"><ele>216.66666666666666</ele><time>2026-04-12T08:27:54.999Z</time></trkpt><trkpt lat="44.84724425620776" lon="9.878619930844081"><ele>217.0</ele><time>2026-04-12T08:27:57.999Z</time></trkpt><trkpt lat="44.84716951368778" lon="9.87855159258751"><ele>216.99999999999997</ele><time>2026-04-12T08:28:00.999Z</time></trkpt><trkpt lat="44.84710230018893" lon="9.878504831216375"><ele>217.0</ele><time>2026-04-12T08:28:03.999Z</time></trkpt><trkpt lat="44.847041876597686" lon="9.878447580796141"><ele>217.0</ele><time>2026-04-12T08:28:06.999Z</time></trkpt><trkpt lat="44.846976538524835" lon="9.878399262886685"><ele>217.0</ele><time>2026-04-12T08:28:09.999Z</time></trkpt><trkpt lat="44.8469024257306" lon="9.878339559971993"><ele>216.99999999999997</ele><time>2026-04-12T08:28:12.999Z</time></trkpt><trkpt lat="44.846824597172336" lon="9.878286207913062"><ele>217.0</ele><time>2026-04-12T08:28:15.999Z</time></trkpt><trkpt lat="44.84676370575945" lon="9.878251592061261"><ele>217.49999999999997</ele><time>2026-04-12T08:28:18.998Z</time></trkpt><trkpt lat="44.846702046673826" lon="9.878204228927174"><ele>218.0</ele><time>2026-04-12T08:28:20.998Z</time></trkpt><trkpt lat="44.84664031432261" lon="9.878168727187584"><ele>218.5</ele><time>2026-04-12T08:28:22.998Z</time></trkpt><trkpt lat="44.846576334580035" lon="9.87812744547312"><ele>219.0</ele><time>2026-04-12T08:28:24.998Z</time></trkpt><trkpt lat="44.84650733344668" lon="9.878090419395614"><ele>219.49999999999997</ele><time>2026-04-12T08:28:26.998Z</time></trkpt><trkpt lat="44.84643545497297" lon="9.878061413513013"><ele>220.0</ele><time>2026-04-12T08:28:28.998Z</time></trkpt><trkpt lat="44.84634458372644" lon="9.878006950144313"><ele>219.99999999999997</ele><time>2026-04-12T08:28:31.998Z</time></trkpt><trkpt lat="44.84628104811736" lon="9.877984655095744"><ele>220.0</ele><time>2026-04-12T08:28:33.998Z</time></trkpt><trkpt lat="44.846215730511815" lon="9.877958175073347"><ele>220.0</ele><time>2026-04-12T08:28:35.998Z</time></trkpt><trkpt lat="44.84615117344053" lon="9.877925831964214"><ele>220.0</ele><time>2026-04-12T08:28:37.998Z</time></trkpt><trkpt lat="44.8460883550964" lon="9.877907742962572"><ele>220.0</ele><time>2026-04-12T08:28:39.998Z</time></trkpt><trkpt lat="44.84602747744637" lon="9.87787612966665"><ele>219.99999999999997</ele><time>2026-04-12T08:28:41.998Z</time></trkpt><trkpt lat="44.84596017549448" lon="9.877856293085115"><ele>220.0</ele><time>2026-04-12T08:28:43.998Z</time></trkpt><trkpt lat="44.8458922906616" lon="9.877822191146173"><ele>221.99999999999997</ele><time>2026-04-12T08:28:45.998Z</time></trkpt><trkpt lat="44.84581744038478" lon="9.877792824501668"><ele>224.0</ele><time>2026-04-12T08:28:47.998Z</time></trkpt><trkpt lat="44.84575085809834" lon="9.877756017324193"><ele>226.0</ele><time>2026-04-12T08:28:49.998Z</time></trkpt><trkpt lat="44.84566150737801" lon="9.877729461138298"><ele>228.0</ele><time>2026-04-12T08:28:52.998Z</time></trkpt><trkpt lat="44.84559226619407" lon="9.877710919926368"><ele>229.99999999999997</ele><time>2026-04-12T08:28:54.998Z</time></trkpt><trkpt lat="44.84551200093234" lon="9.877679390114293"><ele>232.0</ele><time>2026-04-12T08:28:57.998Z</time></trkpt><trkpt lat="44.84544349781039" lon="9.877673055026612"><ele>231.99999999999997</ele><time>2026-04-12T08:29:00Z</time></trkpt><trkpt lat="44.845367106737406" lon="9.877726013912659"><ele>232.0</ele><time>2026-04-12T08:29:03Z</time></trkpt><trkpt lat="44.845299230023784" lon="9.87780983702698"><ele>232.0</ele><time>2026-04-12T08:29:06Z</time></trkpt><trkpt lat="44.845280321984234" lon="9.877924332181873"><ele>232.0</ele><time>2026-04-12T08:29:10Z</time></trkpt><trkpt lat="44.8453680355871" lon="9.877967603016875"><ele>231.99999999999997</ele><time>2026-04-12T08:29:11Z</time></trkpt><trkpt lat="44.84542181814914" lon="9.878028990937123"><ele>232.0</ele><time>2026-04-12T08:29:14Z</time></trkpt><trkpt lat="44.84547553630197" lon="9.87808692817369"><ele>232.00000000000003</ele><time>2026-04-12T08:29:17Z</time></trkpt><trkpt lat="44.84551726910921" lon="9.87815692853203"><ele>232.0</ele><time>2026-04-12T08:29:20Z</time></trkpt><trkpt lat="44.84552902567596" lon="9.878263108287928"><ele>232.00000000000003</ele><time>2026-04-12T08:29:23Z</time></trkpt><trkpt lat="44.84547802509501" lon="9.878337498934153"><ele>232.00000000000003</ele><time>2026-04-12T08:29:26Z</time></trkpt><trkpt lat="44.845405267443525" lon="9.878357448278601"><ele>232.0</ele><time>2026-04-12T08:29:28.999Z</time></trkpt><trkpt lat="44.845326633869746" lon="9.878340753437643"><ele>232.00000000000003</ele><time>2026-04-12T08:29:31.999Z</time></trkpt><trkpt lat="44.84524852609552" lon="9.878312185323791"><ele>232.00000000000003</ele><time>2026-04-12T08:29:34.999Z</time></trkpt><trkpt lat="44.84516823789482" lon="9.878254043071294"><ele>233.16666666666666</ele><time>2026-04-12T08:29:37.999Z</time></trkpt><trkpt lat="44.845086572933205" lon="9.878204923462713"><ele>234.33333333333331</ele><time>2026-04-12T08:29:40.999Z</time></trkpt><trkpt lat="44.84502720023683" lon="9.878117943479717"><ele>235.5</ele><time>2026-04-12T08:29:43.999Z</time></trkpt><trkpt lat="44.844991404472786" lon="9.878032491355611"><ele>236.66666666666669</ele><time>2026-04-12T08:29:46.999Z</time></trkpt><trkpt lat="44.844948814203526" lon="9.877907395298044"><ele>237.83333333333334</ele><time>2026-04-12T08:29:49.999Z</time></trkpt><trkpt lat="44.84490708490101" lon="9.877806139602846"><ele>239.0</ele><time>2026-04-12T08:29:52.999Z</time></trkpt><trkpt lat="44.844854937433" lon="9.877746560465296"><ele>239.00000000000003</ele><time>2026-04-12T08:29:53.999Z</time></trkpt><trkpt lat="44.8448319884093" lon="9.877658822758038"><ele>239.0</ele><time>2026-04-12T08:29:56.999Z</time></trkpt><trkpt lat="44.84478201338823" lon="9.877568307996496"><ele>239.0</ele><time>2026-04-12T08:29:58.999Z</time></trkpt><trkpt lat="44.844693323916275" lon="9.877493668144226"><ele>239.0</ele><time>2026-04-12T08:30:01.999Z</time></trkpt><trkpt lat="44.84461463501984" lon="9.87745747914033"><ele>239.00000000000003</ele><time>2026-04-12T08:30:04.999Z</time></trkpt><trkpt lat="44.84454961232666" lon="9.877404531923293"><ele>239.0</ele><time>2026-04-12T08:30:06.999Z</time></trkpt><trkpt lat="44.84448085978568" lon="9.877374152968487"><ele>238.00000000000003</ele><time>2026-04-12T08:30:08.999Z</time></trkpt><trkpt lat="44.844394294760235" lon="9.87734325858099"><ele>237.0</ele><time>2026-04-12T08:30:11.999Z</time></trkpt><trkpt lat="44.84432964902651" lon="9.877315581249647"><ele>236.0</ele><time>2026-04-12T08:30:13.999Z</time></trkpt><trkpt lat="44.84424383838647" lon="9.877263425406126"><ele>235.0</ele><time>2026-04-12T08:30:16.999Z</time></trkpt><trkpt lat="44.84416261406331" lon="9.877220302904437"><ele>234.00000000000003</ele><time>2026-04-12T08:30:19.999Z</time></trkpt><trkpt lat="44.84407284008628" lon="9.877172701346334"><ele>233.0</ele><time>2026-04-12T08:30:22.998Z</time></trkpt><trkpt lat="44.84399212586745" lon="9.877100794622189"><ele>235.28571428571428</ele><time>2026-04-12T08:30:25.998Z</time></trkpt><trkpt lat="44.84392519208785" lon="9.87705398033243"><ele>237.57142857142856</ele><time>2026-04-12T08:30:27.998Z</time></trkpt><trkpt lat="44.843860447914885" lon="9.877027149820648"><ele>239.85714285714283</ele><time>2026-04-12T08:30:29.998Z</time></trkpt><trkpt lat="44.843799233456345" lon="9.876978204610971"><ele>242.14285714285714</ele><time>2026-04-12T08:30:31.998Z</time></trkpt><trkpt lat="44.84371610754416" lon="9.876936122540714"><ele>244.4285714285714</ele><time>2026-04-12T08:30:34.998Z</time></trkpt><trkpt lat="44.843639192221644" lon="9.87689727063642"><ele>246.7142857142857</ele><time>2026-04-12T08:30:37.998Z</time></trkpt><trkpt lat="44.843580964707456" lon="9.876862363072155"><ele>249.0</ele><time>2026-04-12T08:30:39.998Z</time></trkpt><trkpt lat="44.84352100074041" lon="9.87682626573684"><ele>249.33333333333334</ele><time>2026-04-12T08:30:41.998Z</time></trkpt><trkpt lat="44.843431389120774" lon="9.876783368878385"><ele>249.66666666666669</ele><time>2026-04-12T08:30:44.998Z</time></trkpt><trkpt lat="44.843370147457186" lon="9.876754445033995"><ele>250.0</ele><time>2026-04-12T08:30:46.998Z</time></trkpt><trkpt lat="44.84328826767082" lon="9.87670939870546"><ele>250.33333333333334</ele><time>2026-04-12T08:30:48.998Z</time></trkpt><trkpt lat="44.843225787588445" lon="9.87665446846778"><ele>250.66666666666669</ele><time>2026-04-12T08:30:50.998Z</time></trkpt><trkpt lat="44.843136430060376" lon="9.876603067920923"><ele>251.0</ele><time>2026-04-12T08:30:53.998Z</time></trkpt><trkpt lat="44.84306982397793" lon="9.87657845621443"><ele>251.16666666666669</ele><time>2026-04-12T08:30:55.998Z</time></trkpt><trkpt lat="44.84298186792486" lon="9.876535619918915"><ele>251.33333333333334</ele><time>2026-04-12T08:30:57.998Z</time></trkpt><trkpt lat="44.84291994919847" lon="9.876502098729357"><ele>251.5</ele><time>2026-04-12T08:30:59.998Z</time></trkpt><trkpt lat="44.8428412875703" lon="9.876474489578541"><ele>251.66666666666669</ele><time>2026-04-12T08:31:01.998Z</time></trkpt><trkpt lat="44.84277208575845" lon="9.876434407202526"><ele>251.83333333333334</ele><time>2026-04-12T08:31:03.998Z</time></trkpt><trkpt lat="44.84270755403909" lon="9.87639527169739"><ele>252.0</ele><time>2026-04-12T08:31:06Z</time></trkpt><trkpt lat="44.842637444184206" lon="9.876369050209417"><ele>253.28571428571428</ele><time>2026-04-12T08:31:08Z</time></trkpt><trkpt lat="44.84256764722873" lon="9.87634101709256"><ele>254.57142857142856</ele><time>2026-04-12T08:31:10Z</time></trkpt><trkpt lat="44.842494886976155" lon="9.876285265610116"><ele>255.85714285714286</ele><time>2026-04-12T08:31:12Z</time></trkpt><trkpt lat="44.84243074846674" lon="9.876257988064738"><ele>257.1428571428571</ele><time>2026-04-12T08:31:14Z</time></trkpt><trkpt lat="44.84235951554349" lon="9.876225742130964"><ele>258.42857142857144</ele><time>2026-04-12T08:31:16Z</time></trkpt><trkpt lat="44.84228520499173" lon="9.876197153967862"><ele>259.7142857142857</ele><time>2026-04-12T08:31:18Z</time></trkpt><trkpt lat="44.84222568476167" lon="9.876165601105908"><ele>261.0</ele><time>2026-04-12T08:31:20Z</time></trkpt><trkpt lat="44.842155819520336" lon="9.876143937635069"><ele>261.0</ele><time>2026-04-12T08:31:22Z</time></trkpt><trkpt lat="44.842084299700105" lon="9.876127351253384"><ele>261.0</ele><time>2026-04-12T08:31:24Z</time></trkpt><trkpt lat="44.84201622566391" lon="9.876115002149069"><ele>261.0</ele><time>2026-04-12T08:31:26Z</time></trkpt><trkpt lat="44.841941113691476" lon="9.876111818094532"><ele>261.0</ele><time>2026-04-12T08:31:28Z</time></trkpt><trkpt lat="44.8418652689219" lon="9.876105168625942"><ele>261.0</ele><time>2026-04-12T08:31:30Z</time></trkpt><trkpt lat="44.84147064516816" lon="9.876031065499511"><ele>260.3333333333333</ele><time>2026-04-12T08:31:32.999Z</time></trkpt><trkpt lat="44.841386458546296" lon="9.876053041779574"><ele>259.6666666666667</ele><time>2026-04-12T08:31:34.999Z</time></trkpt><trkpt lat="44.84128966703168" lon="9.876048032355161"><ele>259.0</ele><time>2026-04-12T08:31:36.999Z</time></trkpt><trkpt lat="44.8412038725102" lon="9.876042948494268"><ele>258.33333333333337</ele><time>2026-04-12T08:31:38.999Z</time></trkpt><trkpt lat="44.84112825416533" lon="9.87602192461766"><ele>257.6666666666667</ele><time>2026-04-12T08:31:40.999Z</time></trkpt><trkpt lat="44.84105627263964" lon="9.87598855225176"><ele>257.0</ele><time>2026-04-12T08:31:42.999Z</time></trkpt><trkpt lat="44.84099062530047" lon="9.875934506459501"><ele>259.1666666666667</ele><time>2026-04-12T08:31:44.999Z</time></trkpt><trkpt lat="44.84092772254066" lon="9.87586473965332"><ele>261.33333333333337</ele><time>2026-04-12T08:31:46.999Z</time></trkpt><trkpt lat="44.84086720842092" lon="9.875791676902951"><ele>263.5</ele><time>2026-04-12T08:31:48.999Z</time></trkpt><trkpt lat="44.84080702706241" lon="9.875720946866963"><ele>265.6666666666667</ele><time>2026-04-12T08:31:50.999Z</time></trkpt><trkpt lat="44.84074723468646" lon="9.875629038188976"><ele>267.8333333333333</ele><time>2026-04-12T08:31:53.999Z</time></trkpt><trkpt lat="44.84069884093497" lon="9.875559955681156"><ele>270.0</ele><time>2026-04-12T08:31:54.999Z</time></trkpt><trkpt lat="44.84065038228522" lon="9.875478701800116"><ele>270.0</ele><time>2026-04-12T08:31:56.999Z</time></trkpt><trkpt lat="44.84061100990951" lon="9.8753849738887"><ele>270.0</ele><time>2026-04-12T08:31:58.999Z</time></trkpt><trkpt lat="44.840585064065245" lon="9.875288197548466"><ele>270.0</ele><time>2026-04-12T08:32:00.999Z</time></trkpt><trkpt lat="44.840557515533874" lon="9.875194786018604"><ele>270.0</ele><time>2026-04-12T08:32:02.999Z</time></trkpt><trkpt lat="44.84053145401291" lon="9.875100776400531"><ele>270.0</ele><time>2026-04-12T08:32:04.999Z</time></trkpt><trkpt lat="44.84048834923016" lon="9.875010714865674"><ele>270.0</ele><time>2026-04-12T08:32:06.999Z</time></trkpt><trkpt lat="44.840425000393246" lon="9.87494053719182"><ele>271.5</ele><time>2026-04-12T08:32:08.999Z</time></trkpt><trkpt lat="44.84034369690678" lon="9.874908682374775"><ele>273.0</ele><time>2026-04-12T08:32:10.999Z</time></trkpt><trkpt lat="44.840268331196874" lon="9.874874704093134"><ele>274.5</ele><time>2026-04-12T08:32:12.999Z</time></trkpt><trkpt lat="44.840198528154495" lon="9.874819983386145"><ele>276.0</ele><time>2026-04-12T08:32:14.999Z</time></trkpt><trkpt lat="44.84007743978248" lon="9.874767041888552"><ele>277.5</ele><time>2026-04-12T08:32:17.999Z</time></trkpt><trkpt lat="44.84001108923666" lon="9.874739421299353"><ele>279.0</ele><time>2026-04-12T08:32:19.999Z</time></trkpt><trkpt lat="44.839936872461074" lon="9.874704752388276"><ele>279.0</ele><time>2026-04-12T08:32:21.999Z</time></trkpt><trkpt lat="44.83986421880024" lon="9.874670610444666"><ele>279.0</ele><time>2026-04-12T08:32:23.999Z</time></trkpt><trkpt lat="44.83979020194383" lon="9.874631121208035"><ele>279.0</ele><time>2026-04-12T08:32:25.999Z</time></trkpt><trkpt lat="44.8397177409763" lon="9.874590487449302"><ele>279.0</ele><time>2026-04-12T08:32:27.998Z</time></trkpt><trkpt lat="44.83965207506243" lon="9.87453186690958"><ele>279.0</ele><time>2026-04-12T08:32:29.998Z</time></trkpt><trkpt lat="44.83959045306371" lon="9.874467399324233"><ele>279.0</ele><time>2026-04-12T08:32:31.998Z</time></trkpt><trkpt lat="44.83953024573758" lon="9.874388229608943"><ele>279.0</ele><time>2026-04-12T08:32:33.998Z</time></trkpt><trkpt lat="44.83947612567321" lon="9.874302439913436"><ele>279.0</ele><time>2026-04-12T08:32:35.998Z</time></trkpt><trkpt lat="44.839431928724416" lon="9.87420814507805"><ele>279.0</ele><time>2026-04-12T08:32:37.998Z</time></trkpt><trkpt lat="44.839392198959146" lon="9.87411272638719"><ele>279.0</ele><time>2026-04-12T08:32:39.998Z</time></trkpt><trkpt lat="44.83934684705782" lon="9.87403131636634"><ele>279.0</ele><time>2026-04-12T08:32:41.998Z</time></trkpt><trkpt lat="44.83928323605435" lon="9.873978348194825"><ele>279.0</ele><time>2026-04-12T08:32:43.998Z</time></trkpt><trkpt lat="44.839212949264514" lon="9.873965260984733"><ele>279.2</ele><time>2026-04-12T08:32:45.998Z</time></trkpt><trkpt lat="44.83913769732851" lon="9.87397941515893"><ele>279.4</ele><time>2026-04-12T08:32:47.998Z</time></trkpt><trkpt lat="44.83905704217907" lon="9.874023297804031"><ele>279.6</ele><time>2026-04-12T08:32:49.998Z</time></trkpt><trkpt lat="44.838973227784244" lon="9.874080341207723"><ele>279.8</ele><time>2026-04-12T08:32:51.998Z</time></trkpt><trkpt lat="44.83888268812719" lon="9.874129608109616"><ele>280.0</ele><time>2026-04-12T08:32:53.998Z</time></trkpt><trkpt lat="44.83878220610172" lon="9.874180798188899"><ele>280.0</ele><time>2026-04-12T08:32:55.998Z</time></trkpt><trkpt lat="44.83866814917779" lon="9.87422026799821"><ele>280.0</ele><time>2026-04-12T08:32:57.998Z</time></trkpt><trkpt lat="44.838547780051194" lon="9.874228172041178"><ele>280.0</ele><time>2026-04-12T08:32:59.998Z</time></trkpt><trkpt lat="44.83842620086058" lon="9.8742172968302"><ele>280.0</ele><time>2026-04-12T08:33:01.998Z</time></trkpt><trkpt lat="44.838301002284034" lon="9.87419260637396"><ele>279.0</ele><time>2026-04-12T08:33:03.998Z</time></trkpt><trkpt lat="44.838237880874054" lon="9.874181636853695"><ele>278.0</ele><time>2026-04-12T08:33:04.998Z</time></trkpt><trkpt lat="44.83817456664408" lon="9.874172707319994"><ele>277.0</ele><time>2026-04-12T08:33:05.998Z</time></trkpt><trkpt lat="44.83804983319112" lon="9.874155071041832"><ele>276.0</ele><time>2026-04-12T08:33:07.998Z</time></trkpt><trkpt lat="44.83792983269699" lon="9.874141023126263"><ele>275.0</ele><time>2026-04-12T08:33:09.998Z</time></trkpt><trkpt lat="44.83781223260901" lon="9.87413473057761"><ele>275.0</ele><time>2026-04-12T08:33:12Z</time></trkpt><trkpt lat="44.83769885307316" lon="9.874140982123281"><ele>275.0</ele><time>2026-04-12T08:33:14Z</time></trkpt><trkpt lat="44.8375916422089" lon="9.874151937866399"><ele>275.0</ele><time>2026-04-12T08:33:16Z</time></trkpt><trkpt lat="44.837488967078315" lon="9.874173859040782"><ele>275.0</ele><time>2026-04-12T08:33:18Z</time></trkpt><trkpt lat="44.83738395907188" lon="9.874175690441076"><ele>275.0</ele><time>2026-04-12T08:33:20Z</time></trkpt><trkpt lat="44.83728297419409" lon="9.874134189502106"><ele>274.6</ele><time>2026-04-12T08:33:22Z</time></trkpt><trkpt lat="44.83719514173832" lon="9.874058433462816"><ele>274.2</ele><time>2026-04-12T08:33:24Z</time></trkpt><trkpt lat="44.837124943638464" lon="9.873964717561947"><ele>273.8</ele><time>2026-04-12T08:33:26Z</time></trkpt><trkpt lat="44.83705197825643" lon="9.873876760207441"><ele>273.4</ele><time>2026-04-12T08:33:28Z</time></trkpt><trkpt lat="44.83696843402686" lon="9.873824249420307"><ele>273.0</ele><time>2026-04-12T08:33:30Z</time></trkpt><trkpt lat="44.836874504011185" lon="9.873837522545475"><ele>274.6666666666667</ele><time>2026-04-12T08:33:32Z</time></trkpt><trkpt lat="44.836786020738806" lon="9.873885728117665"><ele>276.3333333333333</ele><time>2026-04-12T08:33:34Z</time></trkpt><trkpt lat="44.83670810599442" lon="9.873942485677377"><ele>278.0</ele><time>2026-04-12T08:33:36Z</time></trkpt><trkpt lat="44.83662793889427" lon="9.873997176461836"><ele>279.66666666666663</ele><time>2026-04-12T08:33:37.999Z</time></trkpt><trkpt lat="44.83654908405135" lon="9.874038556938084"><ele>281.3333333333333</ele><time>2026-04-12T08:33:39.999Z</time></trkpt><trkpt lat="44.83646926722048" lon="9.874085149655143"><ele>283.0</ele><time>2026-04-12T08:33:41.999Z</time></trkpt><trkpt lat="44.83639177722844" lon="9.874135945532705"><ele>283.0</ele><time>2026-04-12T08:33:43.999Z</time></trkpt><trkpt lat="44.83631472576299" lon="9.874189650079717"><ele>283.0</ele><time>2026-04-12T08:33:45.999Z</time></trkpt><trkpt lat="44.836254182569746" lon="9.874225789162255"><ele>283.0</ele><time>2026-04-12T08:33:47.999Z</time></trkpt><trkpt lat="44.8361779665935" lon="9.874272902569022"><ele>283.0</ele><time>2026-04-12T08:33:49.999Z</time></trkpt><trkpt lat="44.83610867193848" lon="9.874319049680047"><ele>283.0</ele><time>2026-04-12T08:33:51.999Z</time></trkpt><trkpt lat="44.835994868105345" lon="9.874397669283347"><ele>283.0</ele><time>2026-04-12T08:33:53.999Z</time></trkpt><trkpt lat="44.83592026617959" lon="9.874452556224147"><ele>282.0</ele><time>2026-04-12T08:33:55.999Z</time></trkpt><trkpt lat="44.83584932431076" lon="9.874524767411955"><ele>281.0</ele><time>2026-04-12T08:33:57.999Z</time></trkpt><trkpt lat="44.835776467146516" lon="9.874591835222164"><ele>280.0</ele><time>2026-04-12T08:33:59.999Z</time></trkpt><trkpt lat="44.83570280132144" lon="9.874655164652"><ele>279.0</ele><time>2026-04-12T08:34:01.999Z</time></trkpt><trkpt lat="44.83562835443934" lon="9.87471784376672"><ele>278.0</ele><time>2026-04-12T08:34:03.999Z</time></trkpt><trkpt lat="44.83555551001444" lon="9.87478040433481"><ele>277.0</ele><time>2026-04-12T08:34:05.999Z</time></trkpt><trkpt lat="44.83548336041214" lon="9.87484115490651"><ele>277.0</ele><time>2026-04-12T08:34:07.999Z</time></trkpt><trkpt lat="44.8354088247178" lon="9.874910649336286"><ele>277.0</ele><time>2026-04-12T08:34:09.999Z</time></trkpt><trkpt lat="44.83533846310231" lon="9.87497957644069"><ele>277.0</ele><time>2026-04-12T08:34:11.999Z</time></trkpt><trkpt lat="44.835281440740374" lon="9.875037888722698"><ele>277.0</ele><time>2026-04-12T08:34:13.999Z</time></trkpt><trkpt lat="44.83520898871799" lon="9.875136037947607"><ele>277.0</ele><time>2026-04-12T08:34:15.999Z</time></trkpt><trkpt lat="44.835151401823374" lon="9.875228844130232"><ele>277.0</ele><time>2026-04-12T08:34:17.999Z</time></trkpt><trkpt lat="44.83509728226866" lon="9.875330461564543"><ele>279.2</ele><time>2026-04-12T08:34:19.999Z</time></trkpt><trkpt lat="44.83504812222157" lon="9.87543990505142"><ele>281.4</ele><time>2026-04-12T08:34:21.999Z</time></trkpt><trkpt lat="44.83501415146143" lon="9.875569662306553"><ele>283.6</ele><time>2026-04-12T08:34:23.999Z</time></trkpt><trkpt lat="44.834980639341424" lon="9.87569567797448"><ele>285.8</ele><time>2026-04-12T08:34:25.999Z</time></trkpt><trkpt lat="44.8349494187735" lon="9.875810373393483"><ele>288.0</ele><time>2026-04-12T08:34:27.999Z</time></trkpt><trkpt lat="44.8349206820815" lon="9.875927205019236"><ele>287.5</ele><time>2026-04-12T08:34:29.998Z</time></trkpt><trkpt lat="44.83490232471113" lon="9.876045786339217"><ele>287.0</ele><time>2026-04-12T08:34:31.998Z</time></trkpt><trkpt lat="44.834888723781994" lon="9.876169141425645"><ele>286.5</ele><time>2026-04-12T08:34:33.998Z</time></trkpt><trkpt lat="44.83487590950456" lon="9.876288950557507"><ele>286.0</ele><time>2026-04-12T08:34:35.998Z</time></trkpt><trkpt lat="44.83488370806313" lon="9.876405713069014"><ele>285.5</ele><time>2026-04-12T08:34:37.998Z</time></trkpt><trkpt lat="44.83488226883102" lon="9.876526828112798"><ele>285.0</ele><time>2026-04-12T08:34:39.998Z</time></trkpt><trkpt lat="44.8348829928758" lon="9.876641449418416"><ele>285.0</ele><time>2026-04-12T08:34:41.998Z</time></trkpt><trkpt lat="44.83488956157005" lon="9.876757869455224"><ele>285.0</ele><time>2026-04-12T08:34:43.998Z</time></trkpt><trkpt lat="44.8349005420465" lon="9.876865960567294"><ele>285.0</ele><time>2026-04-12T08:34:46.998Z</time></trkpt><trkpt lat="44.83491268377072" lon="9.876997868646283"><ele>285.0</ele><time>2026-04-12T08:34:47.998Z</time></trkpt><trkpt lat="44.83493908413788" lon="9.877116794996228"><ele>285.0</ele><time>2026-04-12T08:34:49.998Z</time></trkpt><trkpt lat="44.834974029953294" lon="9.877225723909651"><ele>285.0</ele><time>2026-04-12T08:34:51.998Z</time></trkpt><trkpt lat="44.835007659521104" lon="9.877335518332798"><ele>284.5</ele><time>2026-04-12T08:34:53.998Z</time></trkpt><trkpt lat="44.83504193054048" lon="9.87744703205605"><ele>284.0</ele><time>2026-04-12T08:34:55.998Z</time></trkpt><trkpt lat="44.83508738136059" lon="9.877559905451548"><ele>283.5</ele><time>2026-04-12T08:34:57.998Z</time></trkpt><trkpt lat="44.83512779079883" lon="9.877673555922723"><ele>283.0</ele><time>2026-04-12T08:34:59.998Z</time></trkpt><trkpt lat="44.8351656397207" lon="9.877772678701296"><ele>282.5</ele><time>2026-04-12T08:35:01.998Z</time></trkpt><trkpt lat="44.835191114181036" lon="9.877864274336536"><ele>282.0</ele><time>2026-04-12T08:35:03.998Z</time></trkpt><trkpt lat="44.83520388274817" lon="9.87795933164506"><ele>282.0</ele><time>2026-04-12T08:35:05.998Z</time></trkpt><trkpt lat="44.83520802383957" lon="9.878054103040082"><ele>282.0</ele><time>2026-04-12T08:35:07.998Z</time></trkpt><trkpt lat="44.83514794908287" lon="9.878112317709808"><ele>282.0</ele><time>2026-04-12T08:35:09.998Z</time></trkpt><trkpt lat="44.835078520987636" lon="9.878106377092555"><ele>282.0</ele><time>2026-04-12T08:35:10.998Z</time></trkpt><trkpt lat="44.83500070678017" lon="9.878066067398757"><ele>282.0</ele><time>2026-04-12T08:35:12.998Z</time></trkpt><trkpt lat="44.83491712905234" lon="9.878015857551397"><ele>282.0</ele><time>2026-04-12T08:35:14.998Z</time></trkpt><trkpt lat="44.83482224217824" lon="9.87795936852493"><ele>282.0</ele><time>2026-04-12T08:35:17Z</time></trkpt><trkpt lat="44.834717873762365" lon="9.877896292174045"><ele>282.0</ele><time>2026-04-12T08:35:19Z</time></trkpt><trkpt lat="44.8346045534788" lon="9.87783962505041"><ele>282.0</ele><time>2026-04-12T08:35:21Z</time></trkpt><trkpt lat="44.83448670635024" lon="9.877782427667205"><ele>282.0</ele><time>2026-04-12T08:35:23Z</time></trkpt><trkpt lat="44.83442432437777" lon="9.87776161179418"><ele>282.0</ele><time>2026-04-12T08:35:24Z</time></trkpt><trkpt lat="44.83435781017237" lon="9.87774625162791"><ele>281.2857142857143</ele><time>2026-04-12T08:35:25Z</time></trkpt><trkpt lat="44.83428998848693" lon="9.877728700601487"><ele>280.57142857142856</ele><time>2026-04-12T08:35:26Z</time></trkpt><trkpt lat="44.83422044650886" lon="9.877710649245568"><ele>279.85714285714283</ele><time>2026-04-12T08:35:27Z</time></trkpt><trkpt lat="44.8341496351821" lon="9.877696743545183"><ele>279.1428571428571</ele><time>2026-04-12T08:35:28Z</time></trkpt><trkpt lat="44.83407406469778" lon="9.877689969287925"><ele>278.4285714285714</ele><time>2026-04-12T08:35:29Z</time></trkpt><trkpt lat="44.833996290075476" lon="9.87769590717285"><ele>277.7142857142857</ele><time>2026-04-12T08:35:30Z</time></trkpt><trkpt lat="44.83391944165634" lon="9.877710684892913"><ele>277.0</ele><time>2026-04-12T08:35:31Z</time></trkpt><trkpt lat="44.8338426306948" lon="9.877730119901742"><ele>277.0</ele><time>2026-04-12T08:35:32Z</time></trkpt><trkpt lat="44.8337700121907" lon="9.87776450563304"><ele>277.0</ele><time>2026-04-12T08:35:33Z</time></trkpt><trkpt lat="44.83369742093546" lon="9.877809497698001"><ele>277.0</ele><time>2026-04-12T08:35:34Z</time></trkpt><trkpt lat="44.83362816151383" lon="9.87787397525906"><ele>277.0</ele><time>2026-04-12T08:35:35Z</time></trkpt><trkpt lat="44.83356488026641" lon="9.87794716369463"><ele>277.0</ele><time>2026-04-12T08:35:36Z</time></trkpt><trkpt lat="44.833513045686566" lon="9.878028690428115"><ele>277.0</ele><time>2026-04-12T08:35:37Z</time></trkpt><trkpt lat="44.833478607313175" lon="9.87813892235606"><ele>277.0</ele><time>2026-04-12T08:35:38Z</time></trkpt><trkpt lat="44.83345283003445" lon="9.878249324019027"><ele>277.0</ele><time>2026-04-12T08:35:39Z</time></trkpt><trkpt lat="44.83343297314272" lon="9.87836245576782"><ele>277.0</ele><time>2026-04-12T08:35:40Z</time></trkpt><trkpt lat="44.833410040459775" lon="9.878477817580434"><ele>277.0</ele><time>2026-04-12T08:35:40.999Z</time></trkpt><trkpt lat="44.83338788067459" lon="9.878598652562227"><ele>277.0</ele><time>2026-04-12T08:35:41.999Z</time></trkpt><trkpt lat="44.83336843658661" lon="9.878719917434303"><ele>277.0</ele><time>2026-04-12T08:35:42.999Z</time></trkpt><trkpt lat="44.83335208631258" lon="9.878839539834534"><ele>277.0</ele><time>2026-04-12T08:35:43.999Z</time></trkpt><trkpt lat="44.833345662108655" lon="9.878960836963508"><ele>277.0</ele><time>2026-04-12T08:35:44.999Z</time></trkpt><trkpt lat="44.833350804831625" lon="9.879081794994981"><ele>277.0</ele><time>2026-04-12T08:35:45.999Z</time></trkpt><trkpt lat="44.8333630434365" lon="9.879203185366366"><ele>277.0</ele><time>2026-04-12T08:35:46.999Z</time></trkpt><trkpt lat="44.83338474750978" lon="9.87932255022024"><ele>277.0</ele><time>2026-04-12T08:35:47.999Z</time></trkpt><trkpt lat="44.833413389616766" lon="9.87944044731349"><ele>277.0</ele><time>2026-04-12T08:35:48.999Z</time></trkpt><trkpt lat="44.83344308617761" lon="9.879558876728932"><ele>276.0</ele><time>2026-04-12T08:35:49.999Z</time></trkpt><trkpt lat="44.833469550731884" lon="9.879678395120939"><ele>275.0</ele><time>2026-04-12T08:35:50.999Z</time></trkpt><trkpt lat="44.83349668010821" lon="9.879802143392036"><ele>274.0</ele><time>2026-04-12T08:35:51.999Z</time></trkpt><trkpt lat="44.83352569442635" lon="9.87992413885695"><ele>273.0</ele><time>2026-04-12T08:35:52.999Z</time></trkpt><trkpt lat="44.83355460697643" lon="9.880050322750165"><ele>272.0</ele><time>2026-04-12T08:35:53.999Z</time></trkpt><trkpt lat="44.83358354092777" lon="9.880175490799424"><ele>270.83333333333337</ele><time>2026-04-12T08:35:54.999Z</time></trkpt><trkpt lat="44.83361366638465" lon="9.88029956433926"><ele>269.6666666666667</ele><time>2026-04-12T08:35:55.999Z</time></trkpt><trkpt lat="44.833640940251854" lon="9.880421892943724"><ele>268.5</ele><time>2026-04-12T08:35:56.999Z</time></trkpt><trkpt lat="44.83366847637534" lon="9.880542409133051"><ele>267.3333333333333</ele><time>2026-04-12T08:35:57.999Z</time></trkpt><trkpt lat="44.83370103117274" lon="9.880654986228942"><ele>266.16666666666663</ele><time>2026-04-12T08:35:58.999Z</time></trkpt><trkpt lat="44.83373774780043" lon="9.880762867547093"><ele>265.0</ele><time>2026-04-12T08:35:59.999Z</time></trkpt><trkpt lat="44.83377525985226" lon="9.880868523618561"><ele>266.66666666666663</ele><time>2026-04-12T08:36:00.999Z</time></trkpt><trkpt lat="44.833806618589314" lon="9.880975925869338"><ele>268.3333333333333</ele><time>2026-04-12T08:36:01.999Z</time></trkpt><trkpt lat="44.833836944705375" lon="9.881076522151389"><ele>270.0</ele><time>2026-04-12T08:36:02.999Z</time></trkpt><trkpt lat="44.833866030701316" lon="9.881176445368277"><ele>271.6666666666667</ele><time>2026-04-12T08:36:03.999Z</time></trkpt><trkpt lat="44.83389245855329" lon="9.881271723682955"><ele>273.33333333333337</ele><time>2026-04-12T08:36:04.999Z</time></trkpt><trkpt lat="44.83391750026432" lon="9.881364442269593"><ele>275.0</ele><time>2026-04-12T08:36:05.999Z</time></trkpt><trkpt lat="44.83394758009175" lon="9.881456990228019"><ele>275.0</ele><time>2026-04-12T08:36:06.999Z</time></trkpt><trkpt lat="44.83397687438357" lon="9.881546216665672"><ele>275.0</ele><time>2026-04-12T08:36:07.999Z</time></trkpt><trkpt lat="44.83400838668156" lon="9.881637369372227"><ele>275.0</ele><time>2026-04-12T08:36:08.999Z</time></trkpt><trkpt lat="44.83404541550111" lon="9.881729588087337"><ele>275.0</ele><time>2026-04-12T08:36:09.999Z</time></trkpt><trkpt lat="44.83408504089226" lon="9.881814270110208"><ele>275.0</ele><time>2026-04-12T08:36:10.999Z</time></trkpt><trkpt lat="44.83413124207848" lon="9.881895218485045"><ele>275.0</ele><time>2026-04-12T08:36:11.999Z</time></trkpt><trkpt lat="44.83417008297754" lon="9.88197584625566"><ele>275.0</ele><time>2026-04-12T08:36:12.999Z</time></trkpt><trkpt lat="44.83420653372709" lon="9.882052197251975"><ele>274.0</ele><time>2026-04-12T08:36:13.999Z</time></trkpt><trkpt lat="44.834240393256586" lon="9.882130318056275"><ele>273.0</ele><time>2026-04-12T08:36:14.999Z</time></trkpt><trkpt lat="44.83426820604622" lon="9.88221033661125"><ele>272.0</ele><time>2026-04-12T08:36:15.999Z</time></trkpt><trkpt lat="44.834321264604654" lon="9.882369073559042"><ele>271.0</ele><time>2026-04-12T08:36:17.999Z</time></trkpt><trkpt lat="44.83434612014934" lon="9.88245102359549"><ele>270.0</ele><time>2026-04-12T08:36:18.999Z</time></trkpt><trkpt lat="44.8343725887763" lon="9.88253177490225"><ele>269.0</ele><time>2026-04-12T08:36:19.999Z</time></trkpt><trkpt lat="44.83443182790782" lon="9.882680787566802"><ele>273.2</ele><time>2026-04-12T08:36:21.999Z</time></trkpt><trkpt lat="44.8345021899396" lon="9.882815204144276"><ele>277.4</ele><time>2026-04-12T08:36:23.999Z</time></trkpt><trkpt lat="44.834584742112035" lon="9.882942392985848"><ele>281.6</ele><time>2026-04-12T08:36:25.999Z</time></trkpt><trkpt lat="44.834685587455915" lon="9.883036709120669"><ele>285.8</ele><time>2026-04-12T08:36:27.999Z</time></trkpt><trkpt lat="44.8347461118045" lon="9.883066880031594"><ele>290.0</ele><time>2026-04-12T08:36:28.999Z</time></trkpt><trkpt lat="44.83486079017391" lon="9.88310737172924"><ele>290.0</ele><time>2026-04-12T08:36:30.999Z</time></trkpt><trkpt lat="44.83496871611747" lon="9.883133889563101"><ele>290.0</ele><time>2026-04-12T08:36:32.999Z</time></trkpt><trkpt lat="44.83507880124863" lon="9.883148618373127"><ele>290.0</ele><time>2026-04-12T08:36:34.998Z</time></trkpt><trkpt lat="44.835183550095714" lon="9.883168085392231"><ele>290.0</ele><time>2026-04-12T08:36:36.998Z</time></trkpt><trkpt lat="44.83528100213311" lon="9.883185789920342"><ele>290.0</ele><time>2026-04-12T08:36:38.998Z</time></trkpt><trkpt lat="44.83537030619633" lon="9.883220435944313"><ele>289.2</ele><time>2026-04-12T08:36:40.998Z</time></trkpt><trkpt lat="44.83546196351591" lon="9.883274582232067"><ele>288.4</ele><time>2026-04-12T08:36:42.998Z</time></trkpt><trkpt lat="44.835542939468844" lon="9.883364080421545"><ele>287.6</ele><time>2026-04-12T08:36:44.998Z</time></trkpt><trkpt lat="44.8355925751018" lon="9.883499908920491"><ele>286.8</ele><time>2026-04-12T08:36:46.998Z</time></trkpt><trkpt lat="44.835627832161954" lon="9.883631412029954"><ele>286.0</ele><time>2026-04-12T08:36:48.998Z</time></trkpt><trkpt lat="44.83566735731074" lon="9.883770739996892"><ele>286.0</ele><time>2026-04-12T08:36:50.998Z</time></trkpt><trkpt lat="44.83570347530068" lon="9.883913947057854"><ele>286.0</ele><time>2026-04-12T08:36:52.998Z</time></trkpt><trkpt lat="44.83574372483953" lon="9.884052247634937"><ele>286.0</ele><time>2026-04-12T08:36:54.998Z</time></trkpt><trkpt lat="44.83578336075711" lon="9.884195831315372"><ele>286.0</ele><time>2026-04-12T08:36:56.998Z</time></trkpt><trkpt lat="44.835821896803004" lon="9.88432667326189"><ele>286.0</ele><time>2026-04-12T08:36:58.998Z</time></trkpt><trkpt lat="44.835870739164164" lon="9.88445463555545"><ele>285.0</ele><time>2026-04-12T08:37:00.998Z</time></trkpt><trkpt lat="44.83592466766276" lon="9.884572232250852"><ele>284.0</ele><time>2026-04-12T08:37:02.998Z</time></trkpt><trkpt lat="44.83598983034119" lon="9.884686140155114"><ele>283.0</ele><time>2026-04-12T08:37:04.998Z</time></trkpt><trkpt lat="44.83605581787054" lon="9.88478690719119"><ele>282.0</ele><time>2026-04-12T08:37:06.998Z</time></trkpt><trkpt lat="44.83613018925892" lon="9.884882501634463"><ele>281.0</ele><time>2026-04-12T08:37:08.998Z</time></trkpt><trkpt lat="44.83620284754459" lon="9.884979665754344"><ele>281.0</ele><time>2026-04-12T08:37:10.998Z</time></trkpt><trkpt lat="44.83627715470492" lon="9.885077943729968"><ele>281.0</ele><time>2026-04-12T08:37:12.998Z</time></trkpt><trkpt lat="44.8363547082433" lon="9.885175201777447"><ele>281.0</ele><time>2026-04-12T08:37:14.998Z</time></trkpt><trkpt lat="44.8364325442466" lon="9.885272067017507"><ele>281.0</ele><time>2026-04-12T08:37:16.998Z</time></trkpt><trkpt lat="44.83651266920085" lon="9.885364566431122"><ele>281.0</ele><time>2026-04-12T08:37:18.998Z</time></trkpt><trkpt lat="44.83660360677297" lon="9.885442325833456"><ele>283.40000000000003</ele><time>2026-04-12T08:37:20.998Z</time></trkpt><trkpt lat="44.83669881155799" lon="9.88547713449418"><ele>285.8</ele><time>2026-04-12T08:37:23Z</time></trkpt><trkpt lat="44.836794156238625" lon="9.885507094885005"><ele>288.20000000000005</ele><time>2026-04-12T08:37:25Z</time></trkpt><trkpt lat="44.83689076682153" lon="9.88553699792155"><ele>290.6</ele><time>2026-04-12T08:37:27Z</time></trkpt><trkpt lat="44.83699073989084" lon="9.885561190470549"><ele>293.0</ele><time>2026-04-12T08:37:29Z</time></trkpt><trkpt lat="44.837093056386024" lon="9.885584819122307"><ele>293.0</ele><time>2026-04-12T08:37:31Z</time></trkpt><trkpt lat="44.83719317809456" lon="9.885608112437916"><ele>293.0</ele><time>2026-04-12T08:37:33Z</time></trkpt><trkpt lat="44.837292878700154" lon="9.885626483468123"><ele>293.0</ele><time>2026-04-12T08:37:35Z</time></trkpt><trkpt lat="44.83739047213296" lon="9.885648243991072"><ele>293.0</ele><time>2026-04-12T08:37:37Z</time></trkpt><trkpt lat="44.83748626348941" lon="9.885664791887805"><ele>293.0</ele><time>2026-04-12T08:37:39Z</time></trkpt><trkpt lat="44.83758600919568" lon="9.885696267136073"><ele>291.8</ele><time>2026-04-12T08:37:41Z</time></trkpt><trkpt lat="44.83767821431595" lon="9.885747966458652"><ele>290.6</ele><time>2026-04-12T08:37:43Z</time></trkpt><trkpt lat="44.837751797814555" lon="9.885834122980004"><ele>289.4</ele><time>2026-04-12T08:37:45Z</time></trkpt><trkpt lat="44.83777774947661" lon="9.885965456319097"><ele>288.2</ele><time>2026-04-12T08:37:46.999Z</time></trkpt><trkpt lat="44.837743603472184" lon="9.886107177737331"><ele>287.0</ele><time>2026-04-12T08:37:48.999Z</time></trkpt><trkpt lat="44.8376868440924" lon="9.886232162036666"><ele>288.0</ele><time>2026-04-12T08:37:50.999Z</time></trkpt><trkpt lat="44.83762824626477" lon="9.886360927771493"><ele>289.0</ele><time>2026-04-12T08:37:52.999Z</time></trkpt><trkpt lat="44.83756577850076" lon="9.886484281465354"><ele>290.0</ele><time>2026-04-12T08:37:54.999Z</time></trkpt><trkpt lat="44.837495234306544" lon="9.886608141293719"><ele>291.0</ele><time>2026-04-12T08:37:56.999Z</time></trkpt><trkpt lat="44.83742270445985" lon="9.8867389830069"><ele>292.0</ele><time>2026-04-12T08:37:58.999Z</time></trkpt><trkpt lat="44.83734499227894" lon="9.886874145565951"><ele>290.42857142857144</ele><time>2026-04-12T08:38:00.999Z</time></trkpt><trkpt lat="44.837309726583484" lon="9.886950123111168"><ele>288.8571428571429</ele><time>2026-04-12T08:38:01.999Z</time></trkpt><trkpt lat="44.83727012650754" lon="9.887027846060992"><ele>287.28571428571433</ele><time>2026-04-12T08:38:02.999Z</time></trkpt><trkpt lat="44.8372281321949" lon="9.88711250137747"><ele>285.7142857142857</ele><time>2026-04-12T08:38:03.999Z</time></trkpt><trkpt lat="44.83719562294808" lon="9.88720533200553"><ele>284.14285714285717</ele><time>2026-04-12T08:38:04.999Z</time></trkpt><trkpt lat="44.83717273868467" lon="9.887307879915506"><ele>282.5714285714286</ele><time>2026-04-12T08:38:05.999Z</time></trkpt><trkpt lat="44.8371659463523" lon="9.8874143567809"><ele>281.0</ele><time>2026-04-12T08:38:06.999Z</time></trkpt><trkpt lat="44.8371766461896" lon="9.887523810220934"><ele>281.0</ele><time>2026-04-12T08:38:07.999Z</time></trkpt><trkpt lat="44.83719652649847" lon="9.887631982652337"><ele>281.0</ele><time>2026-04-12T08:38:08.999Z</time></trkpt><trkpt lat="44.83721884711188" lon="9.887742312707006"><ele>281.0</ele><time>2026-04-12T08:38:09.999Z</time></trkpt><trkpt lat="44.837228760801345" lon="9.887854447326596"><ele>281.0</ele><time>2026-04-12T08:38:10.999Z</time></trkpt><trkpt lat="44.8372297806399" lon="9.88797102828993"><ele>281.0</ele><time>2026-04-12T08:38:11.999Z</time></trkpt><trkpt lat="44.83722581453207" lon="9.88808712046781"><ele>281.0</ele><time>2026-04-12T08:38:12.999Z</time></trkpt><trkpt lat="44.837222819443184" lon="9.8882102825253"><ele>281.0</ele><time>2026-04-12T08:38:13.999Z</time></trkpt><trkpt lat="44.83723166924509" lon="9.888336052179927"><ele>281.0</ele><time>2026-04-12T08:38:14.999Z</time></trkpt><trkpt lat="44.83725539356495" lon="9.88845857858219"><ele>281.0</ele><time>2026-04-12T08:38:15.999Z</time></trkpt><trkpt lat="44.83729098716486" lon="9.888576266685266"><ele>281.0</ele><time>2026-04-12T08:38:16.999Z</time></trkpt><trkpt lat="44.837332334839154" lon="9.888695718391068"><ele>281.0</ele><time>2026-04-12T08:38:17.999Z</time></trkpt><trkpt lat="44.837374032032315" lon="9.888810784007822"><ele>280.83333333333337</ele><time>2026-04-12T08:38:18.999Z</time></trkpt><trkpt lat="44.837415012728016" lon="9.888926038000886"><ele>280.6666666666667</ele><time>2026-04-12T08:38:19.999Z</time></trkpt><trkpt lat="44.83745375396204" lon="9.889043942679766"><ele>280.5</ele><time>2026-04-12T08:38:20.999Z</time></trkpt><trkpt lat="44.83747462988396" lon="9.88915454334394"><ele>280.3333333333333</ele><time>2026-04-12T08:38:21.999Z</time></trkpt><trkpt lat="44.83747502666094" lon="9.8892635363791"><ele>280.16666666666663</ele><time>2026-04-12T08:38:22.999Z</time></trkpt><trkpt lat="44.83744195517733" lon="9.889362388713913"><ele>280.0</ele><time>2026-04-12T08:38:23.999Z</time></trkpt><trkpt lat="44.837376045619045" lon="9.889435300897988"><ele>277.8333333333333</ele><time>2026-04-12T08:38:24.999Z</time></trkpt><trkpt lat="44.83730287129321" lon="9.889487399632001"><ele>275.66666666666663</ele><time>2026-04-12T08:38:25.999Z</time></trkpt><trkpt lat="44.83722756609479" lon="9.88953350333886"><ele>273.5</ele><time>2026-04-12T08:38:26.999Z</time></trkpt><trkpt lat="44.83715073318725" lon="9.889576378555718"><ele>271.3333333333333</ele><time>2026-04-12T08:38:27.999Z</time></trkpt><trkpt lat="44.83707300101769" lon="9.88962215848845"><ele>269.1666666666667</ele><time>2026-04-12T08:38:28.999Z</time></trkpt><trkpt lat="44.83699477742375" lon="9.889666964446162"><ele>267.0</ele><time>2026-04-12T08:38:29.999Z</time></trkpt><trkpt lat="44.83691252934281" lon="9.889712696975206"><ele>267.0</ele><time>2026-04-12T08:38:30.999Z</time></trkpt><trkpt lat="44.83682981480464" lon="9.88976182146097"><ele>267.0</ele><time>2026-04-12T08:38:31.999Z</time></trkpt><trkpt lat="44.83674430983556" lon="9.889809111128159"><ele>267.0</ele><time>2026-04-12T08:38:32.999Z</time></trkpt><trkpt lat="44.836657319898976" lon="9.889846854440066"><ele>267.0</ele><time>2026-04-12T08:38:33.999Z</time></trkpt><trkpt lat="44.8365688355554" lon="9.889893782163204"><ele>267.0</ele><time>2026-04-12T08:38:34.999Z</time></trkpt><trkpt lat="44.83648317499813" lon="9.889944355514718"><ele>268.2</ele><time>2026-04-12T08:38:35.999Z</time></trkpt><trkpt lat="44.836396750837075" lon="9.889997411541348"><ele>269.4</ele><time>2026-04-12T08:38:36.999Z</time></trkpt><trkpt lat="44.83631159607574" lon="9.890052855250438"><ele>270.6</ele><time>2026-04-12T08:38:37.998Z</time></trkpt><trkpt lat="44.836228630366826" lon="9.890115895741005"><ele>271.8</ele><time>2026-04-12T08:38:38.998Z</time></trkpt><trkpt lat="44.83615062723791" lon="9.890198345683872"><ele>273.0</ele><time>2026-04-12T08:38:39.998Z</time></trkpt><trkpt lat="44.83607917055459" lon="9.890299246604796"><ele>273.0</ele><time>2026-04-12T08:38:40.998Z</time></trkpt><trkpt lat="44.83602147363338" lon="9.890413259095556"><ele>273.0</ele><time>2026-04-12T08:38:41.998Z</time></trkpt><trkpt lat="44.83597689371364" lon="9.89053965700078"><ele>273.0</ele><time>2026-04-12T08:38:42.998Z</time></trkpt><trkpt lat="44.83594652634196" lon="9.89066992582749"><ele>273.0</ele><time>2026-04-12T08:38:43.998Z</time></trkpt><trkpt lat="44.8359320495446" lon="9.890801064839726"><ele>273.0</ele><time>2026-04-12T08:38:44.998Z</time></trkpt><trkpt lat="44.835931739821085" lon="9.890927848250143"><ele>273.0</ele><time>2026-04-12T08:38:45.998Z</time></trkpt><trkpt lat="44.83594669909017" lon="9.891047513919629"><ele>273.0</ele><time>2026-04-12T08:38:46.998Z</time></trkpt><trkpt lat="44.83595458198403" lon="9.891167466512742"><ele>273.0</ele><time>2026-04-12T08:38:47.998Z</time></trkpt><trkpt lat="44.83598027373275" lon="9.891274826823485"><ele>273.0</ele><time>2026-04-12T08:38:48.998Z</time></trkpt><trkpt lat="44.83601126657451" lon="9.891375423048425"><ele>273.0</ele><time>2026-04-12T08:38:49.998Z</time></trkpt><trkpt lat="44.836058534264374" lon="9.891458292443868"><ele>273.0</ele><time>2026-04-12T08:38:50.998Z</time></trkpt><trkpt lat="44.83608947871215" lon="9.891551405615095"><ele>273.0</ele><time>2026-04-12T08:38:51.998Z</time></trkpt><trkpt lat="44.836118002200905" lon="9.891642247980217"><ele>273.0</ele><time>2026-04-12T08:38:52.998Z</time></trkpt><trkpt lat="44.83614779468875" lon="9.891732771176613"><ele>273.0</ele><time>2026-04-12T08:38:53.998Z</time></trkpt><trkpt lat="44.83617759464832" lon="9.891821681648734"><ele>273.0</ele><time>2026-04-12T08:38:54.998Z</time></trkpt><trkpt lat="44.83620834618485" lon="9.891910931109457"><ele>273.0</ele><time>2026-04-12T08:38:55.998Z</time></trkpt><trkpt lat="44.83623776634439" lon="9.89199896103071"><ele>273.0</ele><time>2026-04-12T08:38:56.998Z</time></trkpt><trkpt lat="44.836267889798116" lon="9.892085090674563"><ele>273.0</ele><time>2026-04-12T08:38:57.998Z</time></trkpt><trkpt lat="44.83629790695705" lon="9.89216830989257"><ele>273.0</ele><time>2026-04-12T08:38:58.998Z</time></trkpt><trkpt lat="44.83632826013286" lon="9.892250252686777"><ele>273.0</ele><time>2026-04-12T08:38:59.998Z</time></trkpt><trkpt lat="44.836383785290785" lon="9.892409683445004"><ele>273.0</ele><time>2026-04-12T08:39:01.998Z</time></trkpt><trkpt lat="44.83643235741012" lon="9.892569715974878"><ele>273.0</ele><time>2026-04-12T08:39:03.998Z</time></trkpt><trkpt lat="44.836485162171414" lon="9.892721676851208"><ele>273.0</ele><time>2026-04-12T08:39:05.998Z</time></trkpt><trkpt lat="44.836540795155415" lon="9.892870788390972"><ele>272.5</ele><time>2026-04-12T08:39:07.998Z</time></trkpt><trkpt lat="44.83660275027023" lon="9.893016374365095"><ele>272.0</ele><time>2026-04-12T08:39:09.998Z</time></trkpt><trkpt lat="44.836660681940906" lon="9.893156041685865"><ele>271.5</ele><time>2026-04-12T08:39:11.998Z</time></trkpt><trkpt lat="44.8367286313227" lon="9.893285064927905"><ele>271.0</ele><time>2026-04-12T08:39:13.998Z</time></trkpt><trkpt lat="44.83680624603174" lon="9.893398407995829"><ele>273.0</ele><time>2026-04-12T08:39:15.998Z</time></trkpt><trkpt lat="44.83689635261156" lon="9.893498112906341"><ele>275.0</ele><time>2026-04-12T08:39:17.998Z</time></trkpt><trkpt lat="44.83698937839517" lon="9.893591797512936"><ele>277.0</ele><time>2026-04-12T08:39:19.998Z</time></trkpt><trkpt lat="44.83708514347727" lon="9.893686870261531"><ele>279.0</ele><time>2026-04-12T08:39:21.998Z</time></trkpt><trkpt lat="44.83718216256284" lon="9.89378470085095"><ele>279.0</ele><time>2026-04-12T08:39:23.998Z</time></trkpt><trkpt lat="44.83728400959777" lon="9.893884174182341"><ele>279.0</ele><time>2026-04-12T08:39:25.998Z</time></trkpt><trkpt lat="44.83738704344367" lon="9.893995507311994"><ele>279.0</ele><time>2026-04-12T08:39:27.998Z</time></trkpt><trkpt lat="44.83743395673516" lon="9.894058208821244"><ele>279.0</ele><time>2026-04-12T08:39:29Z</time></trkpt><trkpt lat="44.837485595792174" lon="9.894110808443985"><ele>279.0</ele><time>2026-04-12T08:39:30Z</time></trkpt><trkpt lat="44.8375354795299" lon="9.894170290920757"><ele>279.0</ele><time>2026-04-12T08:39:31Z</time></trkpt><trkpt lat="44.8375895612631" lon="9.894228633565623"><ele>278.99999999999994</ele><time>2026-04-12T08:39:32Z</time></trkpt><trkpt lat="44.83763708584077" lon="9.894295895808488"><ele>279.0</ele><time>2026-04-12T08:39:33Z</time></trkpt><trkpt lat="44.83768713858424" lon="9.89436361221123"><ele>279.0</ele><time>2026-04-12T08:39:34Z</time></trkpt><trkpt lat="44.837733797297055" lon="9.89443556555296"><ele>279.0</ele><time>2026-04-12T08:39:35Z</time></trkpt><trkpt lat="44.83778379797392" lon="9.894503648101672"><ele>279.0</ele><time>2026-04-12T08:39:36Z</time></trkpt><trkpt lat="44.837836634428925" lon="9.894568263093793"><ele>278.99999999999994</ele><time>2026-04-12T08:39:37Z</time></trkpt><trkpt lat="44.83788609713185" lon="9.894636110249248"><ele>279.0</ele><time>2026-04-12T08:39:38Z</time></trkpt><trkpt lat="44.837936744917144" lon="9.894697972808942"><ele>278.99999999999994</ele><time>2026-04-12T08:39:39Z</time></trkpt><trkpt lat="44.83798799054919" lon="9.894768592465132"><ele>279.0</ele><time>2026-04-12T08:39:40Z</time></trkpt><trkpt lat="44.8380379973128" lon="9.894837188006667"><ele>279.0</ele><time>2026-04-12T08:39:41Z</time></trkpt><trkpt lat="44.83809043720038" lon="9.894907442600804"><ele>279.0</ele><time>2026-04-12T08:39:42Z</time></trkpt><trkpt lat="44.83814419484813" lon="9.894982227827244"><ele>279.0</ele><time>2026-04-12T08:39:43Z</time></trkpt><trkpt lat="44.838199082956436" lon="9.895059319454791"><ele>278.99999999999994</ele><time>2026-04-12T08:39:44Z</time></trkpt><trkpt lat="44.83825592154702" lon="9.895139829005585"><ele>279.0</ele><time>2026-04-12T08:39:45Z</time></trkpt><trkpt lat="44.838313336418565" lon="9.895220196064708"><ele>277.3333333333333</ele><time>2026-04-12T08:39:46Z</time></trkpt><trkpt lat="44.83837100225057" lon="9.895303350075874"><ele>275.6666666666667</ele><time>2026-04-12T08:39:47Z</time></trkpt><trkpt lat="44.838428772537185" lon="9.895392140558705"><ele>274.0</ele><time>2026-04-12T08:39:48Z</time></trkpt><trkpt lat="44.83849016910903" lon="9.895481642452342"><ele>272.33333333333337</ele><time>2026-04-12T08:39:49Z</time></trkpt><trkpt lat="44.838552864596444" lon="9.895570785479146"><ele>270.6666666666667</ele><time>2026-04-12T08:39:50Z</time></trkpt><trkpt lat="44.838629985101086" lon="9.895640472643942"><ele>269.0</ele><time>2026-04-12T08:39:50.999Z</time></trkpt><trkpt lat="44.83871932459583" lon="9.895684840320769"><ele>268.4</ele><time>2026-04-12T08:39:51.999Z</time></trkpt><trkpt lat="44.83881396453366" lon="9.895695966639972"><ele>267.79999999999995</ele><time>2026-04-12T08:39:52.999Z</time></trkpt><trkpt lat="44.83891034898464" lon="9.895673923291787"><ele>267.20000000000005</ele><time>2026-04-12T08:39:53.999Z</time></trkpt><trkpt lat="44.83900541279956" lon="9.895674940517889"><ele>266.6</ele><time>2026-04-12T08:39:54.999Z</time></trkpt><trkpt lat="44.83910183693862" lon="9.895688700395963"><ele>266.0</ele><time>2026-04-12T08:39:55.999Z</time></trkpt><trkpt lat="44.83919764029681" lon="9.895725961817876"><ele>266.0</ele><time>2026-04-12T08:39:56.999Z</time></trkpt><trkpt lat="44.83929068174704" lon="9.895786640546385"><ele>266.0</ele><time>2026-04-12T08:39:57.999Z</time></trkpt><trkpt lat="44.83937989342955" lon="9.895851443088299"><ele>266.0</ele><time>2026-04-12T08:39:58.999Z</time></trkpt><trkpt lat="44.83946656817577" lon="9.895923675811893"><ele>266.0</ele><time>2026-04-12T08:39:59.999Z</time></trkpt><trkpt lat="44.839553993770025" lon="9.895992820462965"><ele>266.0</ele><time>2026-04-12T08:40:00.999Z</time></trkpt><trkpt lat="44.839640959140546" lon="9.896060271330809"><ele>266.6</ele><time>2026-04-12T08:40:01.999Z</time></trkpt><trkpt lat="44.83973313098853" lon="9.896109516218218"><ele>267.20000000000005</ele><time>2026-04-12T08:40:02.999Z</time></trkpt><trkpt lat="44.83983439745396" lon="9.896140154432333"><ele>267.79999999999995</ele><time>2026-04-12T08:40:03.999Z</time></trkpt><trkpt lat="44.83993513693624" lon="9.896141960691567"><ele>268.4</ele><time>2026-04-12T08:40:04.999Z</time></trkpt><trkpt lat="44.84003337348852" lon="9.89612638291034"><ele>269.0</ele><time>2026-04-12T08:40:05.999Z</time></trkpt><trkpt lat="44.840128405492244" lon="9.896116786871643"><ele>268.0</ele><time>2026-04-12T08:40:06.999Z</time></trkpt><trkpt lat="44.84022716704656" lon="9.89611910334543"><ele>267.0</ele><time>2026-04-12T08:40:07.999Z</time></trkpt><trkpt lat="44.84032472461188" lon="9.896133050601437"><ele>266.0</ele><time>2026-04-12T08:40:08.999Z</time></trkpt><trkpt lat="44.84042328150738" lon="9.89615189078244"><ele>265.0</ele><time>2026-04-12T08:40:09.999Z</time></trkpt><trkpt lat="44.84052582865853" lon="9.896167489589518"><ele>264.0</ele><time>2026-04-12T08:40:10.999Z</time></trkpt><trkpt lat="44.840626862863" lon="9.896187546601187"><ele>264.0</ele><time>2026-04-12T08:40:11.999Z</time></trkpt><trkpt lat="44.840720321694704" lon="9.896219314112699"><ele>264.0</ele><time>2026-04-12T08:40:12.999Z</time></trkpt><trkpt lat="44.84079947653496" lon="9.89626474975411"><ele>264.0</ele><time>2026-04-12T08:40:13.999Z</time></trkpt><trkpt lat="44.84086224145352" lon="9.896343524496114"><ele>264.0</ele><time>2026-04-12T08:40:14.999Z</time></trkpt><trkpt lat="44.84088826458296" lon="9.896456180822407"><ele>264.0</ele><time>2026-04-12T08:40:15.999Z</time></trkpt><trkpt lat="44.840883434519675" lon="9.896574909554541"><ele>264.0</ele><time>2026-04-12T08:40:16.999Z</time></trkpt><trkpt lat="44.840868085677926" lon="9.896683658751755"><ele>263.8333333333333</ele><time>2026-04-12T08:40:17.999Z</time></trkpt><trkpt lat="44.84085598501103" lon="9.896791466485366"><ele>263.6666666666667</ele><time>2026-04-12T08:40:18.999Z</time></trkpt><trkpt lat="44.84084486628605" lon="9.89689906835244"><ele>263.5</ele><time>2026-04-12T08:40:19.999Z</time></trkpt><trkpt lat="44.840832549717206" lon="9.897008079193812"><ele>263.33333333333337</ele><time>2026-04-12T08:40:20.999Z</time></trkpt><trkpt lat="44.84082479216098" lon="9.897113813224971"><ele>263.1666666666667</ele><time>2026-04-12T08:40:21.999Z</time></trkpt><trkpt lat="44.8408177979109" lon="9.897221191965519"><ele>263.0</ele><time>2026-04-12T08:40:22.999Z</time></trkpt><trkpt lat="44.84081251082315" lon="9.897327699416445"><ele>263.0</ele><time>2026-04-12T08:40:23.999Z</time></trkpt><trkpt lat="44.84081042913448" lon="9.897436546785507"><ele>263.0</ele><time>2026-04-12T08:40:24.999Z</time></trkpt><trkpt lat="44.84080930315732" lon="9.897544576104794"><ele>263.0</ele><time>2026-04-12T08:40:25.999Z</time></trkpt><trkpt lat="44.8408101534701" lon="9.897653111650255"><ele>263.0</ele><time>2026-04-12T08:40:26.999Z</time></trkpt><trkpt lat="44.840815272403646" lon="9.897760899996795"><ele>263.0</ele><time>2026-04-12T08:40:27.999Z</time></trkpt><trkpt lat="44.84082429302492" lon="9.897868372011757"><ele>263.0</ele><time>2026-04-12T08:40:28.999Z</time></trkpt><trkpt lat="44.84083197487898" lon="9.89797531167116"><ele>262.85714285714283</ele><time>2026-04-12T08:40:29.999Z</time></trkpt><trkpt lat="44.84084133877252" lon="9.898080862032927"><ele>262.71428571428567</ele><time>2026-04-12T08:40:30.999Z</time></trkpt><trkpt lat="44.84085279773274" lon="9.898183412774744"><ele>262.57142857142856</ele><time>2026-04-12T08:40:31.999Z</time></trkpt><trkpt lat="44.84086592730826" lon="9.898283267706201"><ele>262.42857142857144</ele><time>2026-04-12T08:40:32.999Z</time></trkpt><trkpt lat="44.8408778673089" lon="9.898377952990291"><ele>262.28571428571433</ele><time>2026-04-12T08:40:33.999Z</time></trkpt><trkpt lat="44.840890677797844" lon="9.898473681722379"><ele>262.14285714285717</ele><time>2026-04-12T08:40:34.999Z</time></trkpt><trkpt lat="44.840906689087724" lon="9.898568479904508"><ele>262.0</ele><time>2026-04-12T08:40:35.999Z</time></trkpt><trkpt lat="44.840923376660214" lon="9.898663037089483"><ele>261.42857142857144</ele><time>2026-04-12T08:40:36.999Z</time></trkpt><trkpt lat="44.84094620737973" lon="9.898754276720332"><ele>260.8571428571429</ele><time>2026-04-12T08:40:37.999Z</time></trkpt><trkpt lat="44.84097610561767" lon="9.898844003331332"><ele>260.2857142857143</ele><time>2026-04-12T08:40:38.999Z</time></trkpt><trkpt lat="44.84101660152807" lon="9.898929275199512"><ele>259.7142857142857</ele><time>2026-04-12T08:40:39.999Z</time></trkpt><trkpt lat="44.841060796640434" lon="9.899012559629758"><ele>259.1428571428571</ele><time>2026-04-12T08:40:40.999Z</time></trkpt><trkpt lat="44.84110280475397" lon="9.89909861598726"><ele>258.57142857142856</ele><time>2026-04-12T08:40:41.999Z</time></trkpt><trkpt lat="44.84114199491516" lon="9.899186394932789"><ele>258.0</ele><time>2026-04-12T08:40:42.999Z</time></trkpt><trkpt lat="44.84117846811679" lon="9.899275778449233"><ele>257.99999999999994</ele><time>2026-04-12T08:40:43.998Z</time></trkpt><trkpt lat="44.841210973459404" lon="9.89936794381124"><ele>258.0</ele><time>2026-04-12T08:40:44.998Z</time></trkpt><trkpt lat="44.84124059408393" lon="9.899464136821239"><ele>258.0</ele><time>2026-04-12T08:40:45.998Z</time></trkpt><trkpt lat="44.84126818831297" lon="9.899560675112493"><ele>258.0</ele><time>2026-04-12T08:40:46.998Z</time></trkpt><trkpt lat="44.841295457769675" lon="9.899656297167667"><ele>258.0</ele><time>2026-04-12T08:40:47.998Z</time></trkpt><trkpt lat="44.84132294917881" lon="9.899749027277366"><ele>257.99999999999994</ele><time>2026-04-12T08:40:48.998Z</time></trkpt><trkpt lat="44.84135289968631" lon="9.899841158009048"><ele>258.0</ele><time>2026-04-12T08:40:49.998Z</time></trkpt><trkpt lat="44.8413750910621" lon="9.899933687787586"><ele>258.0</ele><time>2026-04-12T08:40:50.998Z</time></trkpt><trkpt lat="44.84139870818996" lon="9.900028755133745"><ele>258.0</ele><time>2026-04-12T08:40:51.998Z</time></trkpt><trkpt lat="44.841420114580586" lon="9.900122205408453"><ele>258.0</ele><time>2026-04-12T08:40:52.998Z</time></trkpt><trkpt lat="44.84144250612819" lon="9.900214681317673"><ele>258.0</ele><time>2026-04-12T08:40:53.998Z</time></trkpt><trkpt lat="44.84146136189733" lon="9.900300922376099"><ele>258.0</ele><time>2026-04-12T08:40:54.998Z</time></trkpt><trkpt lat="44.84148085498965" lon="9.900385775550388"><ele>258.0</ele><time>2026-04-12T08:40:55.998Z</time></trkpt><trkpt lat="44.84152116482114" lon="9.90053935375715"><ele>259.1666666666667</ele><time>2026-04-12T08:40:57.998Z</time></trkpt><trkpt lat="44.84155924717973" lon="9.900673855712542"><ele>260.3333333333333</ele><time>2026-04-12T08:40:59.998Z</time></trkpt><trkpt lat="44.841580662930696" lon="9.900802900255966"><ele>261.5</ele><time>2026-04-12T08:41:01.998Z</time></trkpt><trkpt lat="44.84159921291363" lon="9.90091710981692"><ele>262.66666666666663</ele><time>2026-04-12T08:41:03.998Z</time></trkpt><trkpt lat="44.841595597403376" lon="9.901031236635877"><ele>263.8333333333333</ele><time>2026-04-12T08:41:05.998Z</time></trkpt><trkpt lat="44.84157869313082" lon="9.901146325024548"><ele>265.0</ele><time>2026-04-12T08:41:07.998Z</time></trkpt><trkpt lat="44.84154680997403" lon="9.901262659830639"><ele>265.2</ele><time>2026-04-12T08:41:09.998Z</time></trkpt><trkpt lat="44.84150591165259" lon="9.901386008777978"><ele>265.4</ele><time>2026-04-12T08:41:11.998Z</time></trkpt><trkpt lat="44.841468544110384" lon="9.90151047762998"><ele>265.6</ele><time>2026-04-12T08:41:13.998Z</time></trkpt><trkpt lat="44.84147077760627" lon="9.901658202350728"><ele>265.8</ele><time>2026-04-12T08:41:15.998Z</time></trkpt><trkpt lat="44.84152788304433" lon="9.901788909983331"><ele>266.0</ele><time>2026-04-12T08:41:17.998Z</time></trkpt><trkpt lat="44.84160257324488" lon="9.90188380084658"><ele>266.0</ele><time>2026-04-12T08:41:19.998Z</time></trkpt><trkpt lat="44.84169746384846" lon="9.901960515266365"><ele>266.0</ele><time>2026-04-12T08:41:21.998Z</time></trkpt><trkpt lat="44.841791676761744" lon="9.902047540711477"><ele>266.0</ele><time>2026-04-12T08:41:23.998Z</time></trkpt><trkpt lat="44.84189533306905" lon="9.902137551930728"><ele>266.0</ele><time>2026-04-12T08:41:25.998Z</time></trkpt><trkpt lat="44.842002055987315" lon="9.902225892346715"><ele>267.0</ele><time>2026-04-12T08:41:27.998Z</time></trkpt><trkpt lat="44.842108027013296" lon="9.902311377966443"><ele>268.0</ele><time>2026-04-12T08:41:29.998Z</time></trkpt><trkpt lat="44.84221195688642" lon="9.90240390147102"><ele>269.0</ele><time>2026-04-12T08:41:31.998Z</time></trkpt><trkpt lat="44.84231650848255" lon="9.90248985821459"><ele>270.0</ele><time>2026-04-12T08:41:33.998Z</time></trkpt><trkpt lat="44.842392068690216" lon="9.902616559271303"><ele>270.0</ele><time>2026-04-12T08:41:36Z</time></trkpt><trkpt lat="44.84244340720569" lon="9.902763880934556"><ele>270.0</ele><time>2026-04-12T08:41:38Z</time></trkpt><trkpt lat="44.84249718354646" lon="9.90291691356288"><ele>270.0</ele><time>2026-04-12T08:41:40Z</time></trkpt><trkpt lat="44.84254975981929" lon="9.903070674714975"><ele>270.0</ele><time>2026-04-12T08:41:42Z</time></trkpt><trkpt lat="44.842615872599545" lon="9.90322197233612"><ele>268.0</ele><time>2026-04-12T08:41:44Z</time></trkpt><trkpt lat="44.84267766878322" lon="9.903368906048133"><ele>266.0</ele><time>2026-04-12T08:41:46Z</time></trkpt><trkpt lat="44.84271030747266" lon="9.903466422060507"><ele>264.0</ele><time>2026-04-12T08:41:47Z</time></trkpt><trkpt lat="44.842751593578534" lon="9.903556409610793"><ele>262.0</ele><time>2026-04-12T08:41:48Z</time></trkpt><trkpt lat="44.842804427975835" lon="9.903641408402414"><ele>260.0</ele><time>2026-04-12T08:41:49Z</time></trkpt><trkpt lat="44.8428427295447" lon="9.903757110770975"><ele>258.0</ele><time>2026-04-12T08:41:50Z</time></trkpt><trkpt lat="44.842883064202084" lon="9.90386012151652"><ele>258.0</ele><time>2026-04-12T08:41:51Z</time></trkpt><trkpt lat="44.84290961836324" lon="9.90396201762911"><ele>258.0</ele><time>2026-04-12T08:41:52Z</time></trkpt><trkpt lat="44.84290534446231" lon="9.904070289281652"><ele>258.0</ele><time>2026-04-12T08:41:53Z</time></trkpt><trkpt lat="44.84284905437408" lon="9.904170861544669"><ele>258.0</ele><time>2026-04-12T08:41:53.999Z</time></trkpt><trkpt lat="44.84280805389157" lon="9.90428025275756"><ele>258.0</ele><time>2026-04-12T08:41:54.999Z</time></trkpt><trkpt lat="44.84276096079575" lon="9.904381410242312"><ele>258.0</ele><time>2026-04-12T08:41:55.999Z</time></trkpt><trkpt lat="44.842727503396866" lon="9.904473950939847"><ele>258.0</ele><time>2026-04-12T08:41:56.999Z</time></trkpt><trkpt lat="44.842721010149866" lon="9.904570921153512"><ele>258.0</ele><time>2026-04-12T08:41:57.999Z</time></trkpt><trkpt lat="44.84273983839312" lon="9.904676523380822"><ele>258.0</ele><time>2026-04-12T08:41:58.999Z</time></trkpt><trkpt lat="44.84279241255429" lon="9.90476749270202"><ele>258.0</ele><time>2026-04-12T08:41:59.999Z</time></trkpt><trkpt lat="44.842870255285234" lon="9.90483440111635"><ele>258.0</ele><time>2026-04-12T08:42:00.999Z</time></trkpt><trkpt lat="44.842952483623364" lon="9.904892059771202"><ele>258.0</ele><time>2026-04-12T08:42:01.999Z</time></trkpt><trkpt lat="44.843029006042954" lon="9.904955061276898"><ele>258.0</ele><time>2026-04-12T08:42:02.999Z</time></trkpt><trkpt lat="44.8431029569953" lon="9.905023720481374"><ele>258.0</ele><time>2026-04-12T08:42:03.999Z</time></trkpt><trkpt lat="44.84318139733169" lon="9.90508890741598"><ele>258.0</ele><time>2026-04-12T08:42:04.999Z</time></trkpt><trkpt lat="44.843254867002685" lon="9.905156753565869"><ele>258.0</ele><time>2026-04-12T08:42:05.999Z</time></trkpt><trkpt lat="44.843330709139956" lon="9.905224429328822"><ele>258.0</ele><time>2026-04-12T08:42:06.999Z</time></trkpt><trkpt lat="44.84340609667751" lon="9.905290987014368"><ele>258.0</ele><time>2026-04-12T08:42:07.999Z</time></trkpt><trkpt lat="44.843473823811784" lon="9.905363183136224"><ele>256.5</ele><time>2026-04-12T08:42:08.999Z</time></trkpt><trkpt lat="44.84354275962755" lon="9.90542896587354"><ele>255.0</ele><time>2026-04-12T08:42:09.999Z</time></trkpt><trkpt lat="44.84361060005366" lon="9.905489663748826"><ele>253.5</ele><time>2026-04-12T08:42:10.999Z</time></trkpt><trkpt lat="44.84367383546859" lon="9.905554060647306"><ele>252.0</ele><time>2026-04-12T08:42:11.999Z</time></trkpt><trkpt lat="44.84374716454307" lon="9.90561398800459"><ele>250.5</ele><time>2026-04-12T08:42:12.999Z</time></trkpt><trkpt lat="44.84382063224601" lon="9.905679251697526"><ele>249.0</ele><time>2026-04-12T08:42:13.999Z</time></trkpt><trkpt lat="44.843890648434794" lon="9.90573821028974"><ele>249.0</ele><time>2026-04-12T08:42:14.999Z</time></trkpt><trkpt lat="44.843956782152695" lon="9.905787225938145"><ele>249.0</ele><time>2026-04-12T08:42:15.999Z</time></trkpt><trkpt lat="44.84401853563873" lon="9.905833001101392"><ele>249.0</ele><time>2026-04-12T08:42:16.999Z</time></trkpt><trkpt lat="44.84407621292389" lon="9.905879405596796"><ele>249.0</ele><time>2026-04-12T08:42:17.999Z</time></trkpt><trkpt lat="44.844131401923605" lon="9.905935333254241"><ele>249.0</ele><time>2026-04-12T08:42:18.999Z</time></trkpt><trkpt lat="44.84417620074458" lon="9.905999610655694"><ele>249.0</ele><time>2026-04-12T08:42:19.999Z</time></trkpt><trkpt lat="44.84424439518039" lon="9.90613645897738"><ele>249.66666666666666</ele><time>2026-04-12T08:42:21.999Z</time></trkpt><trkpt lat="44.844324147150765" lon="9.906242951616909"><ele>250.33333333333331</ele><time>2026-04-12T08:42:23.999Z</time></trkpt><trkpt lat="44.84437821575764" lon="9.906289807818178"><ele>251.0</ele><time>2026-04-12T08:42:25.999Z</time></trkpt><trkpt lat="44.84442188541174" lon="9.906354354726746"><ele>251.66666666666666</ele><time>2026-04-12T08:42:52.998Z</time></trkpt><trkpt lat="44.84449474107268" lon="9.906391629348441"><ele>252.33333333333331</ele><time>2026-04-12T08:42:56.998Z</time></trkpt><trkpt lat="44.84457297716115" lon="9.906419491447044"><ele>253.0</ele><time>2026-04-12T08:42:59.998Z</time></trkpt><trkpt lat="44.844656164281616" lon="9.90646669222516"><ele>253.00000000000003</ele><time>2026-04-12T08:43:02.998Z</time></trkpt><trkpt lat="44.84471558151786" lon="9.906506496198775"><ele>253.0</ele><time>2026-04-12T08:43:04.998Z</time></trkpt><trkpt lat="44.84477535469496" lon="9.906542345641832"><ele>253.00000000000003</ele><time>2026-04-12T08:43:06.998Z</time></trkpt><trkpt lat="44.84484484514575" lon="9.906569554937304"><ele>253.00000000000003</ele><time>2026-04-12T08:43:08.998Z</time></trkpt><trkpt lat="44.84491458794431" lon="9.906591172333297"><ele>253.0</ele><time>2026-04-12T08:43:10.998Z</time></trkpt><trkpt lat="44.844986861499876" lon="9.90661880765898"><ele>253.00000000000003</ele><time>2026-04-12T08:43:12.998Z</time></trkpt><trkpt lat="44.84504838575608" lon="9.906660801101838"><ele>253.00000000000003</ele><time>2026-04-12T08:43:14.998Z</time></trkpt><trkpt lat="44.84511759842922" lon="9.906710817175174"><ele>252.8571428571429</ele><time>2026-04-12T08:43:17.998Z</time></trkpt><trkpt lat="44.845192055779215" lon="9.906741657871219"><ele>252.71428571428572</ele><time>2026-04-12T08:43:20.998Z</time></trkpt><trkpt lat="44.84525963426474" lon="9.906769689676624"><ele>252.57142857142858</ele><time>2026-04-12T08:43:22.998Z</time></trkpt><trkpt lat="44.845326978575486" lon="9.906795164456089"><ele>252.42857142857144</ele><time>2026-04-12T08:43:25.998Z</time></trkpt><trkpt lat="44.84539047812598" lon="9.906804642812864"><ele>252.28571428571428</ele><time>2026-04-12T08:43:27.998Z</time></trkpt><trkpt lat="44.84547990045907" lon="9.90684580362231"><ele>252.14285714285714</ele><time>2026-04-12T08:43:30.998Z</time></trkpt><trkpt lat="44.84554253808816" lon="9.906870329550314"><ele>252.0</ele><time>2026-04-12T08:43:33.998Z</time></trkpt><trkpt lat="44.84560170211241" lon="9.90696843921138"><ele>252.8</ele><time>2026-04-12T08:43:36.998Z</time></trkpt><trkpt lat="44.84573217341636" lon="9.907097490637371"><ele>253.6</ele><time>2026-04-12T08:43:37.998Z</time></trkpt><trkpt lat="44.845743476316336" lon="9.907200086899918"><ele>254.40000000000003</ele><time>2026-04-12T08:43:39.997Z</time></trkpt><trkpt lat="44.84575186442621" lon="9.907336990407563"><ele>255.20000000000002</ele><time>2026-04-12T08:43:43Z</time></trkpt><trkpt lat="44.84575410513258" lon="9.907440354579792"><ele>256.0</ele><time>2026-04-12T08:43:45Z</time></trkpt><trkpt lat="44.84576270173959" lon="9.907536402570937"><ele>256.57142857142856</ele><time>2026-04-12T08:43:47Z</time></trkpt><trkpt lat="44.84577092960289" lon="9.907635293408568"><ele>257.1428571428571</ele><time>2026-04-12T08:43:49Z</time></trkpt><trkpt lat="44.84578735721934" lon="9.907729803434655"><ele>257.7142857142857</ele><time>2026-04-12T08:43:51Z</time></trkpt><trkpt lat="44.84580545316908" lon="9.907826159862926"><ele>258.2857142857143</ele><time>2026-04-12T08:43:53Z</time></trkpt><trkpt lat="44.84581906712466" lon="9.90792911402955"><ele>258.8571428571429</ele><time>2026-04-12T08:43:55Z</time></trkpt><trkpt lat="44.8458450744805" lon="9.908056430697071"><ele>259.42857142857144</ele><time>2026-04-12T08:43:57.999Z</time></trkpt><trkpt lat="44.845861094674746" lon="9.908144274259461"><ele>260.0</ele><time>2026-04-12T08:44:00.999Z</time></trkpt><trkpt lat="44.8458791088309" lon="9.908241150398098"><ele>260.0</ele><time>2026-04-12T08:44:02.999Z</time></trkpt><trkpt lat="44.84589559586069" lon="9.908336876361002"><ele>260.0</ele><time>2026-04-12T08:44:05.999Z</time></trkpt><trkpt lat="44.845917796060135" lon="9.908434336088824"><ele>260.0</ele><time>2026-04-12T08:44:07.999Z</time></trkpt><trkpt lat="44.845919505110395" lon="9.908541829060765"><ele>260.0</ele><time>2026-04-12T08:44:09.999Z</time></trkpt><trkpt lat="44.845911394342785" lon="9.908661824486089"><ele>260.0</ele><time>2026-04-12T08:44:11.999Z</time></trkpt><trkpt lat="44.84593849950685" lon="9.908832663888374"><ele>260.0</ele><time>2026-04-12T08:44:12.999Z</time></trkpt><trkpt lat="44.84594605049735" lon="9.908963359107986"><ele>259.8</ele><time>2026-04-12T08:44:14.999Z</time></trkpt><trkpt lat="44.845953958009055" lon="9.909113430591217"><ele>259.6</ele><time>2026-04-12T08:44:16.999Z</time></trkpt><trkpt lat="44.84597829684993" lon="9.909266526408375"><ele>259.4</ele><time>2026-04-12T08:44:18.999Z</time></trkpt><trkpt lat="44.846046856560484" lon="9.90941795644421"><ele>259.2</ele><time>2026-04-12T08:44:20.999Z</time></trkpt><trkpt lat="44.8460743633259" lon="9.909502562108992"><ele>259.0</ele><time>2026-04-12T08:44:21.999Z</time></trkpt><trkpt lat="44.84609815631079" lon="9.909594225725254"><ele>257.2857142857143</ele><time>2026-04-12T08:44:22.999Z</time></trkpt><trkpt lat="44.846113726469696" lon="9.909686555341858"><ele>255.57142857142856</ele><time>2026-04-12T08:44:23.999Z</time></trkpt><trkpt lat="44.846128009365955" lon="9.909782123395688"><ele>253.85714285714286</ele><time>2026-04-12T08:44:24.999Z</time></trkpt><trkpt lat="44.84614122258303" lon="9.909876660252406"><ele>252.14285714285714</ele><time>2026-04-12T08:44:25.999Z</time></trkpt><trkpt lat="44.84615501080269" lon="9.90997178766926"><ele>250.42857142857142</ele><time>2026-04-12T08:44:26.999Z</time></trkpt><trkpt lat="44.84616601270524" lon="9.910070453189052"><ele>248.71428571428572</ele><time>2026-04-12T08:44:27.999Z</time></trkpt><trkpt lat="44.84617664213068" lon="9.910170348578704"><ele>247.0</ele><time>2026-04-12T08:44:28.999Z</time></trkpt><trkpt lat="44.84619548315332" lon="9.910271927413234"><ele>246.99999999999997</ele><time>2026-04-12T08:44:29.999Z</time></trkpt><trkpt lat="44.846223312495006" lon="9.910368065179258"><ele>247.0</ele><time>2026-04-12T08:44:30.999Z</time></trkpt><trkpt lat="44.84626079092993" lon="9.910464279702637"><ele>247.0</ele><time>2026-04-12T08:44:31.999Z</time></trkpt><trkpt lat="44.8462965341097" lon="9.91056140676455"><ele>247.0</ele><time>2026-04-12T08:44:32.999Z</time></trkpt><trkpt lat="44.84633701743223" lon="9.910661674466429"><ele>246.99999999999997</ele><time>2026-04-12T08:44:33.999Z</time></trkpt><trkpt lat="44.84637801021524" lon="9.910757916163028"><ele>247.0</ele><time>2026-04-12T08:44:34.999Z</time></trkpt><trkpt lat="44.846420285294535" lon="9.91085172668295"><ele>247.49999999999997</ele><time>2026-04-12T08:44:35.999Z</time></trkpt><trkpt lat="44.846459049253504" lon="9.910946876438194"><ele>248.0</ele><time>2026-04-12T08:44:36.999Z</time></trkpt><trkpt lat="44.84650073201729" lon="9.911039875428298"><ele>248.5</ele><time>2026-04-12T08:44:37.999Z</time></trkpt><trkpt lat="44.84655254011772" lon="9.911109904979766"><ele>249.0</ele><time>2026-04-12T08:44:38.999Z</time></trkpt><trkpt lat="44.846595685632145" lon="9.91119846052106"><ele>249.49999999999997</ele><time>2026-04-12T08:44:39.999Z</time></trkpt><trkpt lat="44.846643208682714" lon="9.9112854159615"><ele>250.0</ele><time>2026-04-12T08:44:40.999Z</time></trkpt><trkpt lat="44.8466930682668" lon="9.911373843789669"><ele>249.99999999999997</ele><time>2026-04-12T08:44:41.999Z</time></trkpt><trkpt lat="44.846748084440364" lon="9.91144931481777"><ele>250.0</ele><time>2026-04-12T08:44:42.999Z</time></trkpt><trkpt lat="44.84680738903087" lon="9.911523738851287"><ele>250.0</ele><time>2026-04-12T08:44:43.999Z</time></trkpt><trkpt lat="44.84687684616289" lon="9.911584916232917"><ele>250.0</ele><time>2026-04-12T08:44:44.999Z</time></trkpt><trkpt lat="44.846950902408636" lon="9.911633338219982"><ele>249.99999999999997</ele><time>2026-04-12T08:44:45.999Z</time></trkpt><trkpt lat="44.84702257553213" lon="9.911691702165744"><ele>250.0</ele><time>2026-04-12T08:44:46.999Z</time></trkpt><trkpt lat="44.847098369226025" lon="9.911753352024945"><ele>249.4</ele><time>2026-04-12T08:44:47.999Z</time></trkpt><trkpt lat="44.84717796857486" lon="9.911814862967132"><ele>248.8</ele><time>2026-04-12T08:44:48.999Z</time></trkpt><trkpt lat="44.84725476293378" lon="9.911881172120275"><ele>248.2</ele><time>2026-04-12T08:44:49.999Z</time></trkpt><trkpt lat="44.847330217133" lon="9.911950196284787"><ele>247.6</ele><time>2026-04-12T08:44:50.998Z</time></trkpt><trkpt lat="44.84741020644785" lon="9.912017929883532"><ele>247.0</ele><time>2026-04-12T08:44:51.998Z</time></trkpt><trkpt lat="44.847485453779385" lon="9.912084870147394"><ele>247.0</ele><time>2026-04-12T08:44:52.998Z</time></trkpt><trkpt lat="44.84755711262564" lon="9.912162220466252"><ele>247.0</ele><time>2026-04-12T08:44:53.998Z</time></trkpt><trkpt lat="44.847644201467716" lon="9.912227063674205"><ele>247.0</ele><time>2026-04-12T08:44:54.998Z</time></trkpt><trkpt lat="44.847729817317145" lon="9.912300161892478"><ele>247.0</ele><time>2026-04-12T08:44:55.998Z</time></trkpt><trkpt lat="44.84781765128007" lon="9.912368658953794"><ele>247.0</ele><time>2026-04-12T08:44:56.998Z</time></trkpt><trkpt lat="44.84790691373975" lon="9.9124313555577"><ele>245.2</ele><time>2026-04-12T08:44:57.998Z</time></trkpt><trkpt lat="44.847998973201605" lon="9.91248886448633"><ele>243.39999999999998</ele><time>2026-04-12T08:44:58.998Z</time></trkpt><trkpt lat="44.84808979918038" lon="9.912541170406953"><ele>241.60000000000002</ele><time>2026-04-12T08:44:59.998Z</time></trkpt><trkpt lat="44.848180573579285" lon="9.91258655739049"><ele>239.8</ele><time>2026-04-12T08:45:00.998Z</time></trkpt><trkpt lat="44.848270076251566" lon="9.912632266685685"><ele>238.0</ele><time>2026-04-12T08:45:01.998Z</time></trkpt><trkpt lat="44.848354916656156" lon="9.912679142066919"><ele>238.16666666666666</ele><time>2026-04-12T08:45:02.998Z</time></trkpt><trkpt lat="44.848440148236136" lon="9.912722050067229"><ele>238.33333333333331</ele><time>2026-04-12T08:45:03.998Z</time></trkpt><trkpt lat="44.84852423679234" lon="9.912759449096384"><ele>238.5</ele><time>2026-04-12T08:45:04.998Z</time></trkpt><trkpt lat="44.84861037642108" lon="9.912796467379554"><ele>238.66666666666669</ele><time>2026-04-12T08:45:05.998Z</time></trkpt><trkpt lat="44.84869551932428" lon="9.912834371805681"><ele>238.83333333333334</ele><time>2026-04-12T08:45:06.998Z</time></trkpt><trkpt lat="44.848777930162775" lon="9.912870566924141"><ele>239.0</ele><time>2026-04-12T08:45:07.998Z</time></trkpt><trkpt lat="44.84885655486271" lon="9.912912727430301"><ele>239.00000000000003</ele><time>2026-04-12T08:45:08.998Z</time></trkpt><trkpt lat="44.848935352371846" lon="9.912956846413461"><ele>239.0</ele><time>2026-04-12T08:45:09.998Z</time></trkpt><trkpt lat="44.84900938770961" lon="9.913000952881438"><ele>239.0</ele><time>2026-04-12T08:45:10.998Z</time></trkpt><trkpt lat="44.8490800637577" lon="9.913045547333946"><ele>239.0</ele><time>2026-04-12T08:45:11.998Z</time></trkpt><trkpt lat="44.84914365869822" lon="9.913101484211781"><ele>239.00000000000003</ele><time>2026-04-12T08:45:12.998Z</time></trkpt><trkpt lat="44.84920162937091" lon="9.913164631769574"><ele>239.0</ele><time>2026-04-12T08:45:13.998Z</time></trkpt><trkpt lat="44.84925092653535" lon="9.913236904928736"><ele>238.83333333333334</ele><time>2026-04-12T08:45:14.998Z</time></trkpt><trkpt lat="44.849293274510885" lon="9.913312585667066"><ele>238.66666666666669</ele><time>2026-04-12T08:45:15.998Z</time></trkpt><trkpt lat="44.84933312085877" lon="9.913390054508863"><ele>238.5</ele><time>2026-04-12T08:45:16.998Z</time></trkpt><trkpt lat="44.84937342246805" lon="9.91346671833521"><ele>238.33333333333331</ele><time>2026-04-12T08:45:17.998Z</time></trkpt><trkpt lat="44.849413345443196" lon="9.913543955475202"><ele>238.16666666666666</ele><time>2026-04-12T08:45:18.998Z</time></trkpt><trkpt lat="44.849450383002974" lon="9.913617899322912"><ele>238.0</ele><time>2026-04-12T08:45:19.998Z</time></trkpt><trkpt lat="44.84952741838257" lon="9.913762166374118"><ele>238.0</ele><time>2026-04-12T08:45:21.998Z</time></trkpt><trkpt lat="44.849568406336545" lon="9.913835772980363"><ele>238.0</ele><time>2026-04-12T08:45:22.998Z</time></trkpt><trkpt lat="44.849609449271284" lon="9.913910552123244"><ele>238.0</ele><time>2026-04-12T08:45:23.998Z</time></trkpt><trkpt lat="44.84965066188241" lon="9.913981834424598"><ele>238.0</ele><time>2026-04-12T08:45:24.998Z</time></trkpt><trkpt lat="44.849688861489625" lon="9.91405497427437"><ele>238.0</ele><time>2026-04-12T08:45:25.998Z</time></trkpt><trkpt lat="44.84972812327766" lon="9.914127273426942"><ele>238.0</ele><time>2026-04-12T08:45:26.998Z</time></trkpt><trkpt lat="44.84976504266925" lon="9.914199504817894"><ele>238.0</ele><time>2026-04-12T08:45:27.998Z</time></trkpt><trkpt lat="44.84984316806993" lon="9.91433312395955"><ele>237.5</ele><time>2026-04-12T08:45:29.998Z</time></trkpt><trkpt lat="44.84992060505058" lon="9.914461850654025"><ele>237.0</ele><time>2026-04-12T08:45:31.998Z</time></trkpt><trkpt lat="44.85000897980887" lon="9.91457715546411"><ele>236.5</ele><time>2026-04-12T08:45:33.998Z</time></trkpt><trkpt lat="44.850093320516095" lon="9.914699231596522"><ele>236.0</ele><time>2026-04-12T08:45:35.998Z</time></trkpt><trkpt lat="44.85016796348233" lon="9.91482352415547"><ele>236.0</ele><time>2026-04-12T08:45:37.998Z</time></trkpt><trkpt lat="44.85024394115832" lon="9.914945225736686"><ele>236.00000000000003</ele><time>2026-04-12T08:45:39.998Z</time></trkpt><trkpt lat="44.85032834751455" lon="9.91506458332322"><ele>236.00000000000003</ele><time>2026-04-12T08:45:41.998Z</time></trkpt><trkpt lat="44.85041003690665" lon="9.915193558473085"><ele>236.0</ele><time>2026-04-12T08:45:43.997Z</time></trkpt><trkpt lat="44.8504540428366" lon="9.91525721473133"><ele>236.0</ele><time>2026-04-12T08:45:44.997Z</time></trkpt><trkpt lat="44.850501285313285" lon="9.915320843801211"><ele>236.42857142857142</ele><time>2026-04-12T08:45:45.997Z</time></trkpt><trkpt lat="44.85054746153183" lon="9.915386965132129"><ele>236.8571428571429</ele><time>2026-04-12T08:45:47Z</time></trkpt><trkpt lat="44.85059621308913" lon="9.915457020665723"><ele>237.2857142857143</ele><time>2026-04-12T08:45:48Z</time></trkpt><trkpt lat="44.85064023286633" lon="9.915525998048022"><ele>237.71428571428572</ele><time>2026-04-12T08:45:49Z</time></trkpt><trkpt lat="44.85068721353259" lon="9.915597497352044"><ele>238.14285714285717</ele><time>2026-04-12T08:45:50Z</time></trkpt><trkpt lat="44.85073552054594" lon="9.915669516013875"><ele>238.5714285714286</ele><time>2026-04-12T08:45:51Z</time></trkpt><trkpt lat="44.850784570486326" lon="9.91574047033831"><ele>239.00000000000003</ele><time>2026-04-12T08:45:52Z</time></trkpt><trkpt lat="44.85083346783133" lon="9.915816129224993"><ele>239.00000000000003</ele><time>2026-04-12T08:45:53Z</time></trkpt><trkpt lat="44.850882899855264" lon="9.915888233792424"><ele>239.0</ele><time>2026-04-12T08:45:54Z</time></trkpt><trkpt lat="44.85093345624283" lon="9.915961002525696"><ele>239.00000000000003</ele><time>2026-04-12T08:45:55Z</time></trkpt><trkpt lat="44.85098560464755" lon="9.916036037226304"><ele>239.00000000000003</ele><time>2026-04-12T08:45:56Z</time></trkpt><trkpt lat="44.85103554922962" lon="9.916108368761167"><ele>239.0</ele><time>2026-04-12T08:45:57Z</time></trkpt><trkpt lat="44.85108956196064" lon="9.916182852562391"><ele>239.00000000000003</ele><time>2026-04-12T08:45:58Z</time></trkpt><trkpt lat="44.85114462429729" lon="9.91625471439427"><ele>239.00000000000003</ele><time>2026-04-12T08:45:59Z</time></trkpt><trkpt lat="44.85120160411532" lon="9.916332333418547"><ele>238.00000000000003</ele><time>2026-04-12T08:46:00Z</time></trkpt><trkpt lat="44.8512566469511" lon="9.916410453728137"><ele>237.0</ele><time>2026-04-12T08:46:01Z</time></trkpt><trkpt lat="44.851314119341254" lon="9.916491858208401"><ele>236.0</ele><time>2026-04-12T08:46:01.999Z</time></trkpt><trkpt lat="44.85137098299678" lon="9.916571007734682"><ele>235.0</ele><time>2026-04-12T08:46:02.999Z</time></trkpt><trkpt lat="44.8514301268087" lon="9.916654108988237"><ele>234.00000000000003</ele><time>2026-04-12T08:46:03.999Z</time></trkpt><trkpt lat="44.85148748908174" lon="9.91673759629043"><ele>233.0</ele><time>2026-04-12T08:46:04.999Z</time></trkpt><trkpt lat="44.85154404406816" lon="9.916825767275109"><ele>232.66666666666669</ele><time>2026-04-12T08:46:05.999Z</time></trkpt><trkpt lat="44.85160024572621" lon="9.916915230535507"><ele>232.33333333333334</ele><time>2026-04-12T08:46:06.999Z</time></trkpt><trkpt lat="44.85165813546699" lon="9.91699894410768"><ele>232.0</ele><time>2026-04-12T08:46:07.999Z</time></trkpt><trkpt lat="44.85171879077241" lon="9.917089226006887"><ele>231.66666666666669</ele><time>2026-04-12T08:46:08.999Z</time></trkpt><trkpt lat="44.8517774717594" lon="9.91718133428992"><ele>231.33333333333334</ele><time>2026-04-12T08:46:09.999Z</time></trkpt><trkpt lat="44.85183767592597" lon="9.91727048420098"><ele>231.0</ele><time>2026-04-12T08:46:10.999Z</time></trkpt><trkpt lat="44.85189856100218" lon="9.917359627717937"><ele>230.16666666666666</ele><time>2026-04-12T08:46:11.999Z</time></trkpt><trkpt lat="44.85196125672128" lon="9.91744760507026"><ele>229.33333333333331</ele><time>2026-04-12T08:46:12.999Z</time></trkpt><trkpt lat="44.85202419340143" lon="9.91753700604107"><ele>228.5</ele><time>2026-04-12T08:46:13.999Z</time></trkpt><trkpt lat="44.85208876886896" lon="9.917622702383744"><ele>227.66666666666666</ele><time>2026-04-12T08:46:14.999Z</time></trkpt><trkpt lat="44.85214801563006" lon="9.917703218701693"><ele>226.83333333333331</ele><time>2026-04-12T08:46:15.999Z</time></trkpt><trkpt lat="44.85219936178272" lon="9.917785959081385"><ele>226.0</ele><time>2026-04-12T08:46:16.999Z</time></trkpt><trkpt lat="44.85225711349643" lon="9.917865965279642"><ele>225.99999999999997</ele><time>2026-04-12T08:46:17.999Z</time></trkpt><trkpt lat="44.85231665300989" lon="9.917953780901726"><ele>226.0</ele><time>2026-04-12T08:46:18.999Z</time></trkpt><trkpt lat="44.8523776734012" lon="9.918040538797117"><ele>226.0</ele><time>2026-04-12T08:46:19.999Z</time></trkpt><trkpt lat="44.85243047827791" lon="9.918122303317016"><ele>226.0</ele><time>2026-04-12T08:46:20.999Z</time></trkpt><trkpt lat="44.85248183931601" lon="9.918216595400288"><ele>225.99999999999997</ele><time>2026-04-12T08:46:21.999Z</time></trkpt><trkpt lat="44.852521191553905" lon="9.918318664838297"><ele>226.0</ele><time>2026-04-12T08:46:22.999Z</time></trkpt><trkpt lat="44.85253898449264" lon="9.918436878437214"><ele>226.60000000000002</ele><time>2026-04-12T08:46:23.999Z</time></trkpt><trkpt lat="44.8525397399394" lon="9.918554292605176"><ele>227.20000000000002</ele><time>2026-04-12T08:46:24.999Z</time></trkpt><trkpt lat="44.85253748282609" lon="9.918650848039057"><ele>227.79999999999998</ele><time>2026-04-12T08:46:25.999Z</time></trkpt><trkpt lat="44.85253924114067" lon="9.918817399911886"><ele>228.39999999999998</ele><time>2026-04-12T08:46:27.999Z</time></trkpt><trkpt lat="44.852528922116996" lon="9.918975302683295"><ele>229.0</ele><time>2026-04-12T08:46:29.999Z</time></trkpt><trkpt lat="44.852513922110816" lon="9.919123682130326"><ele>228.2</ele><time>2026-04-12T08:46:31.999Z</time></trkpt><trkpt lat="44.852493990479005" lon="9.919280643981445"><ele>227.39999999999998</ele><time>2026-04-12T08:46:33.999Z</time></trkpt><trkpt lat="44.85247856559997" lon="9.919435989895872"><ele>226.6</ele><time>2026-04-12T08:46:35.999Z</time></trkpt><trkpt lat="44.852465609381454" lon="9.919584595549189"><ele>225.8</ele><time>2026-04-12T08:46:37.999Z</time></trkpt><trkpt lat="44.85244871962362" lon="9.91973263915527"><ele>225.0</ele><time>2026-04-12T08:46:39.999Z</time></trkpt><trkpt lat="44.852423710685606" lon="9.919886526143292"><ele>225.0</ele><time>2026-04-12T08:46:41.999Z</time></trkpt><trkpt lat="44.85240438961017" lon="9.920025625350803"><ele>225.0</ele><time>2026-04-12T08:46:43.999Z</time></trkpt><trkpt lat="44.852381678088484" lon="9.920156093646836"><ele>225.0</ele><time>2026-04-12T08:46:45.999Z</time></trkpt><trkpt lat="44.85234577545792" lon="9.920282991172865"><ele>225.0</ele><time>2026-04-12T08:46:47.999Z</time></trkpt><trkpt lat="44.85231835241422" lon="9.920419595233446"><ele>225.0</ele><time>2026-04-12T08:46:49.999Z</time></trkpt><trkpt lat="44.85228678321183" lon="9.920547428247877"><ele>224.6</ele><time>2026-04-12T08:46:51.999Z</time></trkpt><trkpt lat="44.85225240151145" lon="9.920685501784833"><ele>224.2</ele><time>2026-04-12T08:46:53.999Z</time></trkpt><trkpt lat="44.852207090959645" lon="9.920840300928022"><ele>223.8</ele><time>2026-04-12T08:46:55.998Z</time></trkpt><trkpt lat="44.85215628825582" lon="9.921007573103237"><ele>223.4</ele><time>2026-04-12T08:46:57.998Z</time></trkpt><trkpt lat="44.852129255167114" lon="9.92109648878502"><ele>223.0</ele><time>2026-04-12T08:46:58.998Z</time></trkpt><trkpt lat="44.85210161721057" lon="9.921191591198903"><ele>222.16666666666666</ele><time>2026-04-12T08:46:59.998Z</time></trkpt><trkpt lat="44.85207508967235" lon="9.921291407334198"><ele>221.33333333333331</ele><time>2026-04-12T08:47:00.998Z</time></trkpt><trkpt lat="44.85204419605585" lon="9.921398228103934"><ele>220.5</ele><time>2026-04-12T08:47:01.998Z</time></trkpt><trkpt lat="44.85200933876844" lon="9.921507330542209"><ele>219.66666666666669</ele><time>2026-04-12T08:47:02.998Z</time></trkpt><trkpt lat="44.85197422331906" lon="9.921616904304997"><ele>218.83333333333334</ele><time>2026-04-12T08:47:03.998Z</time></trkpt><trkpt lat="44.8519411752849" lon="9.921732932401223"><ele>218.0</ele><time>2026-04-12T08:47:04.998Z</time></trkpt><trkpt lat="44.8519083418701" lon="9.921852552129783"><ele>217.4</ele><time>2026-04-12T08:47:05.998Z</time></trkpt><trkpt lat="44.851879097378315" lon="9.921977279755415"><ele>216.8</ele><time>2026-04-12T08:47:06.998Z</time></trkpt><trkpt lat="44.85185121882935" lon="9.922107610344453"><ele>216.2</ele><time>2026-04-12T08:47:07.998Z</time></trkpt><trkpt lat="44.85181967700983" lon="9.922240897487258"><ele>215.6</ele><time>2026-04-12T08:47:08.998Z</time></trkpt><trkpt lat="44.8517837465283" lon="9.922375706640551"><ele>215.0</ele><time>2026-04-12T08:47:09.998Z</time></trkpt><trkpt lat="44.85174926396453" lon="9.922514718636572"><ele>213.2</ele><time>2026-04-12T08:47:10.998Z</time></trkpt><trkpt lat="44.85171974878826" lon="9.922651959568215"><ele>211.4</ele><time>2026-04-12T08:47:11.998Z</time></trkpt><trkpt lat="44.85169516692214" lon="9.922787705709482"><ele>209.60000000000002</ele><time>2026-04-12T08:47:12.998Z</time></trkpt><trkpt lat="44.851667891344576" lon="9.922920367898797"><ele>207.8</ele><time>2026-04-12T08:47:13.998Z</time></trkpt><trkpt lat="44.85163638950382" lon="9.923056879753245"><ele>206.0</ele><time>2026-04-12T08:47:14.998Z</time></trkpt><trkpt lat="44.851597858083785" lon="9.923192840899919"><ele>206.0</ele><time>2026-04-12T08:47:15.998Z</time></trkpt><trkpt lat="44.85155997926913" lon="9.92333914541504"><ele>206.0</ele><time>2026-04-12T08:47:16.998Z</time></trkpt><trkpt lat="44.851537851022684" lon="9.923483470510204"><ele>206.0</ele><time>2026-04-12T08:47:17.998Z</time></trkpt><trkpt lat="44.85153109813612" lon="9.92363248211726"><ele>206.0</ele><time>2026-04-12T08:47:18.998Z</time></trkpt><trkpt lat="44.85152880878754" lon="9.923769489854694"><ele>206.0</ele><time>2026-04-12T08:47:19.998Z</time></trkpt><trkpt lat="44.8515113443282" lon="9.923900723001946"><ele>204.20000000000002</ele><time>2026-04-12T08:47:20.998Z</time></trkpt><trkpt lat="44.85148546132663" lon="9.924028384098245"><ele>202.4</ele><time>2026-04-12T08:47:21.998Z</time></trkpt><trkpt lat="44.85144557952225" lon="9.924147133553918"><ele>200.6</ele><time>2026-04-12T08:47:22.998Z</time></trkpt><trkpt lat="44.85139580994586" lon="9.924263221977279"><ele>198.8</ele><time>2026-04-12T08:47:23.998Z</time></trkpt><trkpt lat="44.851332134567194" lon="9.924373091687091"><ele>197.0</ele><time>2026-04-12T08:47:24.998Z</time></trkpt><trkpt lat="44.85126620945968" lon="9.924495003766163"><ele>194.25</ele><time>2026-04-12T08:47:25.998Z</time></trkpt><trkpt lat="44.851201786527525" lon="9.924613335642379"><ele>191.5</ele><time>2026-04-12T08:47:26.998Z</time></trkpt><trkpt lat="44.85113911298944" lon="9.924741715663812"><ele>188.75</ele><time>2026-04-12T08:47:27.998Z</time></trkpt><trkpt lat="44.851071258014194" lon="9.924872735903836"><ele>186.0</ele><time>2026-04-12T08:47:28.998Z</time></trkpt><trkpt lat="44.85100218031973" lon="9.92500942066726"><ele>185.75</ele><time>2026-04-12T08:47:29.998Z</time></trkpt><trkpt lat="44.850930879689216" lon="9.925154820701184"><ele>185.5</ele><time>2026-04-12T08:47:30.998Z</time></trkpt><trkpt lat="44.85085679936781" lon="9.925296400874783"><ele>185.25</ele><time>2026-04-12T08:47:31.998Z</time></trkpt><trkpt lat="44.85078322133873" lon="9.925433973512902"><ele>185.0</ele><time>2026-04-12T08:47:32.998Z</time></trkpt><trkpt lat="44.850715264486546" lon="9.92555905888731"><ele>185.0</ele><time>2026-04-12T08:47:33.998Z</time></trkpt><trkpt lat="44.85065463839309" lon="9.925681833090884"><ele>185.0</ele><time>2026-04-12T08:47:34.998Z</time></trkpt><trkpt lat="44.85059282009774" lon="9.925798739513622"><ele>185.0</ele><time>2026-04-12T08:47:35.998Z</time></trkpt><trkpt lat="44.85053798387826" lon="9.925907361510458"><ele>185.0</ele><time>2026-04-12T08:47:36.998Z</time></trkpt><trkpt lat="44.85048681606569" lon="9.926004155853564"><ele>185.0</ele><time>2026-04-12T08:47:37.998Z</time></trkpt><trkpt lat="44.85043504064284" lon="9.926078023496684"><ele>184.2</ele><time>2026-04-12T08:47:38.998Z</time></trkpt><trkpt lat="44.850384188804384" lon="9.926132513635444"><ele>183.4</ele><time>2026-04-12T08:47:39.998Z</time></trkpt><trkpt lat="44.85026484759551" lon="9.926142377561936"><ele>182.60000000000002</ele><time>2026-04-12T08:47:41.998Z</time></trkpt><trkpt lat="44.850143923643614" lon="9.926083634221753"><ele>181.8</ele><time>2026-04-12T08:47:43.998Z</time></trkpt><trkpt lat="44.85007898330394" lon="9.92605273168748"><ele>181.0</ele><time>2026-04-12T08:47:44.998Z</time></trkpt><trkpt lat="44.850015064203234" lon="9.92598824947782"><ele>180.66666666666669</ele><time>2026-04-12T08:47:45.998Z</time></trkpt><trkpt lat="44.84993930833416" lon="9.925942114589636"><ele>180.33333333333334</ele><time>2026-04-12T08:47:46.998Z</time></trkpt><trkpt lat="44.84985387004571" lon="9.925917558896364"><ele>180.0</ele><time>2026-04-12T08:47:47.998Z</time></trkpt><trkpt lat="44.8497733390673" lon="9.925870887513746"><ele>179.66666666666666</ele><time>2026-04-12T08:47:48.997Z</time></trkpt><trkpt lat="44.84969584740251" lon="9.925824591154717"><ele>179.33333333333331</ele><time>2026-04-12T08:47:49.997Z</time></trkpt><trkpt lat="44.84961735191365" lon="9.925805818392853"><ele>179.0</ele><time>2026-04-12T08:47:50.997Z</time></trkpt><trkpt lat="44.84954359661766" lon="9.92582526616071"><ele>179.0</ele><time>2026-04-12T08:47:51.997Z</time></trkpt><trkpt lat="44.84948623497367" lon="9.925889221554634"><ele>179.0</ele><time>2026-04-12T08:47:52.999Z</time></trkpt><trkpt lat="44.84943839785848" lon="9.925967200590033"><ele>179.0</ele><time>2026-04-12T08:47:54Z</time></trkpt><trkpt lat="44.84944349144908" lon="9.926097519394213"><ele>179.0</ele><time>2026-04-12T08:47:54.999Z</time></trkpt><trkpt lat="44.84947422702578" lon="9.926217811288332"><ele>179.0</ele><time>2026-04-12T08:47:55.999Z</time></trkpt><trkpt lat="44.84951015165408" lon="9.926306835078623"><ele>179.0</ele><time>2026-04-12T08:47:57Z</time></trkpt><trkpt lat="44.84956980706201" lon="9.926392630078503"><ele>179.0</ele><time>2026-04-12T08:47:57.999Z</time></trkpt><trkpt lat="44.849615366072484" lon="9.926492353735515"><ele>179.0</ele><time>2026-04-12T08:47:58.999Z</time></trkpt><trkpt lat="44.849662235447724" lon="9.926595704134755"><ele>179.0</ele><time>2026-04-12T08:48:00Z</time></trkpt><trkpt lat="44.84971445453187" lon="9.926699534543713"><ele>179.0</ele><time>2026-04-12T08:48:00.999Z</time></trkpt><trkpt lat="44.84976883770206" lon="9.926806511961534"><ele>179.0</ele><time>2026-04-12T08:48:01.999Z</time></trkpt><trkpt lat="44.84981097923249" lon="9.926914964639245"><ele>179.0</ele><time>2026-04-12T08:48:03Z</time></trkpt><trkpt lat="44.849850346373906" lon="9.927004396046133"><ele>176.66666666666666</ele><time>2026-04-12T08:48:03.999Z</time></trkpt><trkpt lat="44.849876925115794" lon="9.927085174742954"><ele>174.33333333333331</ele><time>2026-04-12T08:48:04.999Z</time></trkpt><trkpt lat="44.84987100539487" lon="9.927253710421416"><ele>172.0</ele><time>2026-04-12T08:48:06.999Z</time></trkpt><trkpt lat="44.84982716936736" lon="9.927325286713721"><ele>169.66666666666666</ele><time>2026-04-12T08:48:07.999Z</time></trkpt><trkpt lat="44.849763089384055" lon="9.927362652042095"><ele>167.33333333333334</ele><time>2026-04-12T08:48:08.999Z</time></trkpt><trkpt lat="44.84968159981589" lon="9.927351076467277"><ele>165.0</ele><time>2026-04-12T08:48:09.999Z</time></trkpt><trkpt lat="44.849604462941" lon="9.927304854525248"><ele>165.0</ele><time>2026-04-12T08:48:10.999Z</time></trkpt><trkpt lat="44.849532728657955" lon="9.927249094821534"><ele>165.0</ele><time>2026-04-12T08:48:11.999Z</time></trkpt><trkpt lat="44.849457679371966" lon="9.927190287550397"><ele>165.0</ele><time>2026-04-12T08:48:12.999Z</time></trkpt><trkpt lat="44.84938246992483" lon="9.92712763577726"><ele>165.0</ele><time>2026-04-12T08:48:13.999Z</time></trkpt><trkpt lat="44.84930147006893" lon="9.927064138267381"><ele>165.0</ele><time>2026-04-12T08:48:14.999Z</time></trkpt><trkpt lat="44.84921813476843" lon="9.927000184179695"><ele>165.0</ele><time>2026-04-12T08:48:15.999Z</time></trkpt><trkpt lat="44.84913254730864" lon="9.926932018597538"><ele>163.4</ele><time>2026-04-12T08:48:16.999Z</time></trkpt><trkpt lat="44.84904614536369" lon="9.926870686516809"><ele>161.8</ele><time>2026-04-12T08:48:17.999Z</time></trkpt><trkpt lat="44.84895782771136" lon="9.926833384335383"><ele>160.2</ele><time>2026-04-12T08:48:18.999Z</time></trkpt><trkpt lat="44.84886437277316" lon="9.92681529238158"><ele>158.6</ele><time>2026-04-12T08:48:19.999Z</time></trkpt><trkpt lat="44.84876544827017" lon="9.926830695612933"><ele>157.0</ele><time>2026-04-12T08:48:20.999Z</time></trkpt><trkpt lat="44.84867105200723" lon="9.926890608427753"><ele>157.0</ele><time>2026-04-12T08:48:21.999Z</time></trkpt><trkpt lat="44.84857996736779" lon="9.92697915410181"><ele>157.0</ele><time>2026-04-12T08:48:22.999Z</time></trkpt><trkpt lat="44.84848244318294" lon="9.927066577248407"><ele>157.0</ele><time>2026-04-12T08:48:23.999Z</time></trkpt><trkpt lat="44.848380499419896" lon="9.92715230226575"><ele>157.0</ele><time>2026-04-12T08:48:24.999Z</time></trkpt><trkpt lat="44.848279345267116" lon="9.92724496022373"><ele>155.25</ele><time>2026-04-12T08:48:25.999Z</time></trkpt><trkpt lat="44.848178524112065" lon="9.927337002833488"><ele>153.5</ele><time>2026-04-12T08:48:26.999Z</time></trkpt><trkpt lat="44.84807814660782" lon="9.927422273311151"><ele>151.75</ele><time>2026-04-12T08:48:27.999Z</time></trkpt><trkpt lat="44.84798411983824" lon="9.927509076172008"><ele>150.0</ele><time>2026-04-12T08:48:28.999Z</time></trkpt><trkpt lat="44.84789143411446" lon="9.927593962356795"><ele>149.6</ele><time>2026-04-12T08:48:29.999Z</time></trkpt><trkpt lat="44.847801238064314" lon="9.92767320370001"><ele>149.2</ele><time>2026-04-12T08:48:30.999Z</time></trkpt><trkpt lat="44.84771149039171" lon="9.927750707642161"><ele>148.8</ele><time>2026-04-12T08:48:31.999Z</time></trkpt><trkpt lat="44.847623935073955" lon="9.9278365513664"><ele>148.4</ele><time>2026-04-12T08:48:32.999Z</time></trkpt><trkpt lat="44.84754610605041" lon="9.927938036918457"><ele>148.0</ele><time>2026-04-12T08:48:33.999Z</time></trkpt><trkpt lat="44.8474764162853" lon="9.928035250477958"><ele>147.33333333333334</ele><time>2026-04-12T08:48:34.999Z</time></trkpt><trkpt lat="44.84741441400022" lon="9.928133054785453"><ele>146.66666666666669</ele><time>2026-04-12T08:48:35.999Z</time></trkpt><trkpt lat="44.84735913467859" lon="9.928229210987746"><ele>146.0</ele><time>2026-04-12T08:48:36.999Z</time></trkpt><trkpt lat="44.84730966268435" lon="9.928322355080434"><ele>145.33333333333334</ele><time>2026-04-12T08:48:37.999Z</time></trkpt><trkpt lat="44.84726179516431" lon="9.928412472695207"><ele>144.66666666666666</ele><time>2026-04-12T08:48:38.999Z</time></trkpt><trkpt lat="44.84721655038382" lon="9.928499194853554"><ele>144.0</ele><time>2026-04-12T08:48:39.999Z</time></trkpt><trkpt lat="44.84717527072811" lon="9.928582664720219"><ele>143.16666666666666</ele><time>2026-04-12T08:48:40.999Z</time></trkpt><trkpt lat="44.8471355064604" lon="9.928654546530193"><ele>142.33333333333334</ele><time>2026-04-12T08:48:41.999Z</time></trkpt><trkpt lat="44.84706886377585" lon="9.928734877270069"><ele>141.5</ele><time>2026-04-12T08:48:43.999Z</time></trkpt><trkpt lat="44.84699818752893" lon="9.92875235244974"><ele>140.66666666666669</ele><time>2026-04-12T08:48:47.999Z</time></trkpt><trkpt lat="44.84699178620454" lon="9.928859784846347"><ele>139.83333333333334</ele><time>2026-04-12T08:48:52.999Z</time></trkpt><trkpt lat="44.84705806502639" lon="9.928925544345026"><ele>139.0</ele><time>2026-04-12T08:49:52.998Z</time></trkpt><trkpt lat="44.84711495338687" lon="9.92901473081977"><ele>139.0</ele><time>2026-04-12T08:49:55.998Z</time></trkpt><trkpt lat="44.84717639951966" lon="9.929094733829302"><ele>139.0</ele><time>2026-04-12T08:49:57.998Z</time></trkpt><trkpt lat="44.84724504430371" lon="9.929197057542586"><ele>139.0</ele><time>2026-04-12T08:50:00Z</time></trkpt><trkpt lat="44.8473264886001" lon="9.929306810276634"><ele>139.0</ele><time>2026-04-12T08:50:02Z</time></trkpt><trkpt lat="44.847408363074834" lon="9.929431729144817"><ele>139.0</ele><time>2026-04-12T08:50:04Z</time></trkpt><trkpt lat="44.84749037639911" lon="9.929563587594444"><ele>139.0</ele><time>2026-04-12T08:50:06Z</time></trkpt><trkpt lat="44.84753503066539" lon="9.929629954741939"><ele>139.0</ele><time>2026-04-12T08:50:07Z</time></trkpt><trkpt lat="44.847581376302" lon="9.929695146025042"><ele>139.0</ele><time>2026-04-12T08:50:08Z</time></trkpt><trkpt lat="44.8476294942877" lon="9.929761050545684"><ele>139.0</ele><time>2026-04-12T08:50:09Z</time></trkpt><trkpt lat="44.84768191486623" lon="9.92982542924257"><ele>139.0</ele><time>2026-04-12T08:50:10Z</time></trkpt><trkpt lat="44.847733699477054" lon="9.929893192863561"><ele>139.0</ele><time>2026-04-12T08:50:11Z</time></trkpt><trkpt lat="44.84778374635644" lon="9.929966664821398"><ele>139.0</ele><time>2026-04-12T08:50:12Z</time></trkpt><trkpt lat="44.84783587098784" lon="9.930040542093343"><ele>138.16666666666669</ele><time>2026-04-12T08:50:13Z</time></trkpt><trkpt lat="44.847887897456545" lon="9.93011624027261"><ele>137.33333333333334</ele><time>2026-04-12T08:50:14Z</time></trkpt><trkpt lat="44.84793979181597" lon="9.930191811464242"><ele>136.5</ele><time>2026-04-12T08:50:15Z</time></trkpt><trkpt lat="44.84799369110819" lon="9.930268435900794"><ele>135.66666666666666</ele><time>2026-04-12T08:50:16Z</time></trkpt><trkpt lat="44.84804722249136" lon="9.93033907047616"><ele>134.83333333333331</ele><time>2026-04-12T08:50:17Z</time></trkpt><trkpt lat="44.84810211705878" lon="9.930420413558334"><ele>134.0</ele><time>2026-04-12T08:50:18Z</time></trkpt><trkpt lat="44.84815712624393" lon="9.930494961426755"><ele>134.0</ele><time>2026-04-12T08:50:19Z</time></trkpt><trkpt lat="44.84821269056546" lon="9.930571961357323"><ele>134.0</ele><time>2026-04-12T08:50:20Z</time></trkpt><trkpt lat="44.84826821052918" lon="9.930648009846589"><ele>134.0</ele><time>2026-04-12T08:50:21Z</time></trkpt><trkpt lat="44.84832397948492" lon="9.930726271073715"><ele>134.0</ele><time>2026-04-12T08:50:22Z</time></trkpt><trkpt lat="44.8483787615074" lon="9.930805077098059"><ele>134.0</ele><time>2026-04-12T08:50:23Z</time></trkpt><trkpt lat="44.84843373144864" lon="9.93088345897858"><ele>134.0</ele><time>2026-04-12T08:50:24Z</time></trkpt><trkpt lat="44.848489025693674" lon="9.930956969695886"><ele>134.5</ele><time>2026-04-12T08:50:25Z</time></trkpt><trkpt lat="44.84854318935495" lon="9.931034925578304"><ele>135.0</ele><time>2026-04-12T08:50:26Z</time></trkpt><trkpt lat="44.848598476492484" lon="9.931113087256543"><ele>135.5</ele><time>2026-04-12T08:50:27Z</time></trkpt><trkpt lat="44.84865399198527" lon="9.9311901755123"><ele>136.0</ele><time>2026-04-12T08:50:28Z</time></trkpt><trkpt lat="44.84870973388924" lon="9.93126914657289"><ele>136.5</ele><time>2026-04-12T08:50:29Z</time></trkpt><trkpt lat="44.84876759441603" lon="9.931349259607975"><ele>137.0</ele><time>2026-04-12T08:50:30Z</time></trkpt><trkpt lat="44.84882503346535" lon="9.931430617733493"><ele>137.0</ele><time>2026-04-12T08:50:31Z</time></trkpt><trkpt lat="44.84888398168605" lon="9.931513401968008"><ele>137.0</ele><time>2026-04-12T08:50:32Z</time></trkpt><trkpt lat="44.848943999431974" lon="9.931598517647622"><ele>137.0</ele><time>2026-04-12T08:50:33Z</time></trkpt><trkpt lat="44.849003748900884" lon="9.931685887908772"><ele>137.0</ele><time>2026-04-12T08:50:34Z</time></trkpt><trkpt lat="44.84906466549073" lon="9.931771951086693"><ele>137.0</ele><time>2026-04-12T08:50:35Z</time></trkpt><trkpt lat="44.84912547302813" lon="9.931853610620701"><ele>137.0</ele><time>2026-04-12T08:50:36Z</time></trkpt><trkpt lat="44.849184883264314" lon="9.93193691647041"><ele>136.66666666666666</ele><time>2026-04-12T08:50:37Z</time></trkpt><trkpt lat="44.849246116848974" lon="9.932022053268872"><ele>136.33333333333331</ele><time>2026-04-12T08:50:38Z</time></trkpt><trkpt lat="44.84930658026069" lon="9.93210391842247"><ele>136.0</ele><time>2026-04-12T08:50:39Z</time></trkpt><trkpt lat="44.84936847769811" lon="9.932188329719772"><ele>135.66666666666666</ele><time>2026-04-12T08:50:40Z</time></trkpt><trkpt lat="44.84943138456678" lon="9.932271688311793"><ele>135.33333333333334</ele><time>2026-04-12T08:50:41Z</time></trkpt><trkpt lat="44.8494923353363" lon="9.932359056890958"><ele>135.0</ele><time>2026-04-12T08:50:42Z</time></trkpt><trkpt lat="44.849555023713926" lon="9.932446067146087"><ele>135.0</ele><time>2026-04-12T08:50:43Z</time></trkpt><trkpt lat="44.84961738292727" lon="9.932535156731662"><ele>135.0</ele><time>2026-04-12T08:50:44Z</time></trkpt><trkpt lat="44.84968245316613" lon="9.932620779252114"><ele>135.0</ele><time>2026-04-12T08:50:45Z</time></trkpt><trkpt lat="44.84974579678597" lon="9.932709912934474"><ele>135.0</ele><time>2026-04-12T08:50:46Z</time></trkpt><trkpt lat="44.84980925404209" lon="9.932802245864742"><ele>135.0</ele><time>2026-04-12T08:50:47Z</time></trkpt><trkpt lat="44.84987265864857" lon="9.93288916415129"><ele>135.0</ele><time>2026-04-12T08:50:48Z</time></trkpt><trkpt lat="44.84993759838445" lon="9.932982462842007"><ele>134.8</ele><time>2026-04-12T08:50:49Z</time></trkpt><trkpt lat="44.850001384109156" lon="9.93307507250239"><ele>134.6</ele><time>2026-04-12T08:50:50Z</time></trkpt><trkpt lat="44.850065746959345" lon="9.93316833952064"><ele>134.4</ele><time>2026-04-12T08:50:51Z</time></trkpt><trkpt lat="44.85013239497308" lon="9.933258367172144"><ele>134.2</ele><time>2026-04-12T08:50:52Z</time></trkpt><trkpt lat="44.850199244954936" lon="9.93334859379873"><ele>134.0</ele><time>2026-04-12T08:50:53Z</time></trkpt><trkpt lat="44.85026586307684" lon="9.933440181748425"><ele>134.0</ele><time>2026-04-12T08:50:54Z</time></trkpt><trkpt lat="44.850332078356786" lon="9.933532130948544"><ele>134.0</ele><time>2026-04-12T08:50:55Z</time></trkpt><trkpt lat="44.85039614422888" lon="9.933621383819865"><ele>134.0</ele><time>2026-04-12T08:50:56Z</time></trkpt><trkpt lat="44.85046121308811" lon="9.933709994374647"><ele>134.0</ele><time>2026-04-12T08:50:57Z</time></trkpt><trkpt lat="44.85052623016667" lon="9.933800276868869"><ele>134.0</ele><time>2026-04-12T08:50:58Z</time></trkpt><trkpt lat="44.85059180303233" lon="9.933888722574801"><ele>134.0</ele><time>2026-04-12T08:50:59Z</time></trkpt><trkpt lat="44.850658648995" lon="9.93397001102232"><ele>134.0</ele><time>2026-04-12T08:51:00Z</time></trkpt><trkpt lat="44.850726229288405" lon="9.9340559528359"><ele>134.0</ele><time>2026-04-12T08:51:01Z</time></trkpt><trkpt lat="44.85079104055209" lon="9.934144120593723"><ele>134.0</ele><time>2026-04-12T08:51:02Z</time></trkpt><trkpt lat="44.850859505646056" lon="9.934227933021475"><ele>134.0</ele><time>2026-04-12T08:51:03Z</time></trkpt><trkpt lat="44.85093006337235" lon="9.934309516969702"><ele>134.0</ele><time>2026-04-12T08:51:04Z</time></trkpt><trkpt lat="44.851002495309366" lon="9.934386160767907"><ele>134.0</ele><time>2026-04-12T08:51:05Z</time></trkpt><trkpt lat="44.851077686829946" lon="9.934458581953946"><ele>134.0</ele><time>2026-04-12T08:51:05.999Z</time></trkpt><trkpt lat="44.8511527517422" lon="9.934533537260997"><ele>134.0</ele><time>2026-04-12T08:51:06.999Z</time></trkpt><trkpt lat="44.85123021370097" lon="9.93460779909249"><ele>134.0</ele><time>2026-04-12T08:51:07.999Z</time></trkpt><trkpt lat="44.85131048210326" lon="9.934675931154247"><ele>134.0</ele><time>2026-04-12T08:51:08.999Z</time></trkpt><trkpt lat="44.851391728708045" lon="9.934742544776356"><ele>134.0</ele><time>2026-04-12T08:51:09.999Z</time></trkpt><trkpt lat="44.85147516694091" lon="9.934805871018648"><ele>134.0</ele><time>2026-04-12T08:51:10.999Z</time></trkpt><trkpt lat="44.85155829661859" lon="9.934870051470273"><ele>134.0</ele><time>2026-04-12T08:51:11.999Z</time></trkpt><trkpt lat="44.85164026841613" lon="9.934937766119559"><ele>134.0</ele><time>2026-04-12T08:51:12.999Z</time></trkpt><trkpt lat="44.85172399575212" lon="9.935004122560196"><ele>133.0</ele><time>2026-04-12T08:51:13.999Z</time></trkpt><trkpt lat="44.851810023917814" lon="9.935066540256026"><ele>132.0</ele><time>2026-04-12T08:51:14.999Z</time></trkpt><trkpt lat="44.85189841941917" lon="9.935130482871749"><ele>131.0</ele><time>2026-04-12T08:51:15.999Z</time></trkpt><trkpt lat="44.85198632967736" lon="9.935198824625154"><ele>130.0</ele><time>2026-04-12T08:51:16.999Z</time></trkpt><trkpt lat="44.85207306017897" lon="9.935270137441696"><ele>129.0</ele><time>2026-04-12T08:51:17.999Z</time></trkpt><trkpt lat="44.852161993649865" lon="9.935341682939574"><ele>129.0</ele><time>2026-04-12T08:51:18.999Z</time></trkpt><trkpt lat="44.85225008044334" lon="9.935422351411297"><ele>129.0</ele><time>2026-04-12T08:51:19.999Z</time></trkpt><trkpt lat="44.852334371205565" lon="9.935507273590284"><ele>129.0</ele><time>2026-04-12T08:51:20.999Z</time></trkpt><trkpt lat="44.85241217796888" lon="9.935602323444321"><ele>129.0</ele><time>2026-04-12T08:51:21.999Z</time></trkpt><trkpt lat="44.852483650330775" lon="9.935710124157756"><ele>129.0</ele><time>2026-04-12T08:51:22.999Z</time></trkpt><trkpt lat="44.852551711576375" lon="9.935823930544764"><ele>128.6</ele><time>2026-04-12T08:51:23.999Z</time></trkpt><trkpt lat="44.85262179469677" lon="9.935934030737851"><ele>128.2</ele><time>2026-04-12T08:51:24.999Z</time></trkpt><trkpt lat="44.85269018960278" lon="9.936047818397194"><ele>127.79999999999998</ele><time>2026-04-12T08:51:25.999Z</time></trkpt><trkpt lat="44.85275840553626" lon="9.93616193459147"><ele>127.39999999999999</ele><time>2026-04-12T08:51:26.999Z</time></trkpt><trkpt lat="44.852827244269044" lon="9.936277065673977"><ele>127.0</ele><time>2026-04-12T08:51:27.999Z</time></trkpt><trkpt lat="44.85289296233475" lon="9.936396656824005"><ele>127.0</ele><time>2026-04-12T08:51:28.999Z</time></trkpt><trkpt lat="44.85295660817307" lon="9.936520008434798"><ele>126.99999999999999</ele><time>2026-04-12T08:51:29.999Z</time></trkpt><trkpt lat="44.853022222894886" lon="9.936643730587333"><ele>126.99999999999999</ele><time>2026-04-12T08:51:30.999Z</time></trkpt><trkpt lat="44.85308695573069" lon="9.936767207456422"><ele>127.0</ele><time>2026-04-12T08:51:31.999Z</time></trkpt><trkpt lat="44.85315063344821" lon="9.936888875641706"><ele>127.0</ele><time>2026-04-12T08:51:32.999Z</time></trkpt><trkpt lat="44.85321475280374" lon="9.937009335804857"><ele>126.8</ele><time>2026-04-12T08:51:33.999Z</time></trkpt><trkpt lat="44.853277992152414" lon="9.937128198316827"><ele>126.6</ele><time>2026-04-12T08:51:34.999Z</time></trkpt><trkpt lat="44.85334088561947" lon="9.937245340773966"><ele>126.39999999999999</ele><time>2026-04-12T08:51:35.999Z</time></trkpt><trkpt lat="44.85340430177441" lon="9.937362235627296"><ele>126.19999999999999</ele><time>2026-04-12T08:51:36.999Z</time></trkpt><trkpt lat="44.85346693819944" lon="9.937477830808444"><ele>126.0</ele><time>2026-04-12T08:51:37.999Z</time></trkpt><trkpt lat="44.85352887374322" lon="9.9375974564914"><ele>125.8</ele><time>2026-04-12T08:51:38.999Z</time></trkpt><trkpt lat="44.85359134906304" lon="9.937717596925593"><ele>125.6</ele><time>2026-04-12T08:51:39.999Z</time></trkpt><trkpt lat="44.85365416402907" lon="9.937835922749677"><ele>125.4</ele><time>2026-04-12T08:51:40.999Z</time></trkpt><trkpt lat="44.85371600131123" lon="9.93795522279354"><ele>125.2</ele><time>2026-04-12T08:51:41.999Z</time></trkpt><trkpt lat="44.853777725207166" lon="9.938073215800921"><ele>125.0</ele><time>2026-04-12T08:51:42.999Z</time></trkpt><trkpt lat="44.853839417784165" lon="9.938189463236595"><ele>125.0</ele><time>2026-04-12T08:51:43.999Z</time></trkpt><trkpt lat="44.85390245086645" lon="9.938302896203052"><ele>125.0</ele><time>2026-04-12T08:51:44.999Z</time></trkpt><trkpt lat="44.85396430741249" lon="9.938417052948633"><ele>125.0</ele><time>2026-04-12T08:51:45.999Z</time></trkpt><trkpt lat="44.85402521341909" lon="9.938533293829433"><ele>125.0</ele><time>2026-04-12T08:51:46.999Z</time></trkpt><trkpt lat="44.85408553634587" lon="9.93864757103198"><ele>125.0</ele><time>2026-04-12T08:51:47.999Z</time></trkpt><trkpt lat="44.85414742241123" lon="9.938761995661054"><ele>124.8</ele><time>2026-04-12T08:51:48.999Z</time></trkpt><trkpt lat="44.854209043355475" lon="9.938877057691302"><ele>124.6</ele><time>2026-04-12T08:51:49.999Z</time></trkpt><trkpt lat="44.854269452840825" lon="9.938991857325428"><ele>124.4</ele><time>2026-04-12T08:51:50.999Z</time></trkpt><trkpt lat="44.8543312638265" lon="9.939106358587178"><ele>124.2</ele><time>2026-04-12T08:51:51.999Z</time></trkpt><trkpt lat="44.854392804641435" lon="9.93921990966242"><ele>124.0</ele><time>2026-04-12T08:51:52.999Z</time></trkpt><trkpt lat="44.85445606597685" lon="9.93933320786644"><ele>124.0</ele><time>2026-04-12T08:51:53.999Z</time></trkpt><trkpt lat="44.85451624508567" lon="9.939446944913492"><ele>124.0</ele><time>2026-04-12T08:51:54.999Z</time></trkpt><trkpt lat="44.85457697082674" lon="9.93956112361607"><ele>124.0</ele><time>2026-04-12T08:51:55.999Z</time></trkpt><trkpt lat="44.854638342725046" lon="9.9396733724657"><ele>124.0</ele><time>2026-04-12T08:51:56.999Z</time></trkpt><trkpt lat="44.854698082068445" lon="9.939784019118395"><ele>124.0</ele><time>2026-04-12T08:51:57.999Z</time></trkpt><trkpt lat="44.85475776437229" lon="9.939894523670384"><ele>124.0</ele><time>2026-04-12T08:51:58.998Z</time></trkpt><trkpt lat="44.85481778580791" lon="9.940005215795068"><ele>124.0</ele><time>2026-04-12T08:51:59.998Z</time></trkpt><trkpt lat="44.85487592650257" lon="9.940116972124237"><ele>124.0</ele><time>2026-04-12T08:52:00.998Z</time></trkpt><trkpt lat="44.854933067421584" lon="9.940229421815053"><ele>124.0</ele><time>2026-04-12T08:52:01.998Z</time></trkpt><trkpt lat="44.85499106534521" lon="9.940339039734884"><ele>124.0</ele><time>2026-04-12T08:52:02.998Z</time></trkpt><trkpt lat="44.85504945461894" lon="9.940445659545546"><ele>123.80000000000001</ele><time>2026-04-12T08:52:03.998Z</time></trkpt><trkpt lat="44.8551079466537" lon="9.940555143127789"><ele>123.60000000000001</ele><time>2026-04-12T08:52:05Z</time></trkpt><trkpt lat="44.85516517933815" lon="9.940663726494353"><ele>123.4</ele><time>2026-04-12T08:52:06.001Z</time></trkpt><trkpt lat="44.85522226810702" lon="9.940770441045272"><ele>123.2</ele><time>2026-04-12T08:52:07Z</time></trkpt><trkpt lat="44.85527896687489" lon="9.940876555054585"><ele>123.0</ele><time>2026-04-12T08:52:08Z</time></trkpt><trkpt lat="44.85533478495476" lon="9.940981212347687"><ele>123.0</ele><time>2026-04-12T08:52:09.001Z</time></trkpt><trkpt lat="44.85538910407441" lon="9.941087421393933"><ele>123.00000000000001</ele><time>2026-04-12T08:52:10Z</time></trkpt><trkpt lat="44.855443970360525" lon="9.941188127452051"><ele>123.00000000000001</ele><time>2026-04-12T08:52:11Z</time></trkpt><trkpt lat="44.855499072920495" lon="9.94129140538954"><ele>123.0</ele><time>2026-04-12T08:52:12Z</time></trkpt><trkpt lat="44.85555423639591" lon="9.941390952769758"><ele>123.0</ele><time>2026-04-12T08:52:13Z</time></trkpt><trkpt lat="44.855608199388136" lon="9.941494543687723"><ele>123.0</ele><time>2026-04-12T08:52:14Z</time></trkpt><trkpt lat="44.85566122256348" lon="9.941596539196704"><ele>123.0</ele><time>2026-04-12T08:52:15Z</time></trkpt><trkpt lat="44.85571706507081" lon="9.941696950954505"><ele>123.0</ele><time>2026-04-12T08:52:16Z</time></trkpt><trkpt lat="44.85577377505979" lon="9.941791974830023"><ele>123.0</ele><time>2026-04-12T08:52:17Z</time></trkpt><trkpt lat="44.85582805127426" lon="9.94188467043091"><ele>123.0</ele><time>2026-04-12T08:52:18Z</time></trkpt><trkpt lat="44.85588534450153" lon="9.94197127467266"><ele>123.0</ele><time>2026-04-12T08:52:19Z</time></trkpt><trkpt lat="44.85594578512473" lon="9.942053882236376"><ele>122.66666666666667</ele><time>2026-04-12T08:52:20Z</time></trkpt><trkpt lat="44.85601236786136" lon="9.9421242010818"><ele>122.33333333333334</ele><time>2026-04-12T08:52:21Z</time></trkpt><trkpt lat="44.85608224954942" lon="9.942183831032997"><ele>122.0</ele><time>2026-04-12T08:52:22Z</time></trkpt><trkpt lat="44.85615716898164" lon="9.942227623208606"><ele>121.66666666666667</ele><time>2026-04-12T08:52:23Z</time></trkpt><trkpt lat="44.85623152921866" lon="9.942265356257513"><ele>121.33333333333334</ele><time>2026-04-12T08:52:24Z</time></trkpt><trkpt lat="44.856308392690714" lon="9.942292667171158"><ele>121.0</ele><time>2026-04-12T08:52:25Z</time></trkpt><trkpt lat="44.85638393699005" lon="9.942319079580255"><ele>121.00000000000001</ele><time>2026-04-12T08:52:26Z</time></trkpt><trkpt lat="44.856458664838854" lon="9.942346441652521"><ele>121.0</ele><time>2026-04-12T08:52:27Z</time></trkpt><trkpt lat="44.85653137773464" lon="9.942373184279774"><ele>121.0</ele><time>2026-04-12T08:52:28Z</time></trkpt><trkpt lat="44.856599744069406" lon="9.942398949479244"><ele>121.0</ele><time>2026-04-12T08:52:29Z</time></trkpt><trkpt lat="44.856712638344625" lon="9.942437452233591"><ele>121.00000000000001</ele><time>2026-04-12T08:52:31Z</time></trkpt><trkpt lat="44.856791245531404" lon="9.94242838966171"><ele>121.0</ele><time>2026-04-12T08:52:33Z</time></trkpt><trkpt lat="44.856807152509035" lon="9.94224259322023"><ele>121.00000000000001</ele><time>2026-04-12T08:52:37Z</time></trkpt><trkpt lat="44.85677395640543" lon="9.942164835276984"><ele>121.0</ele><time>2026-04-12T08:52:39Z</time></trkpt><trkpt lat="44.856723791930406" lon="9.942110841888653"><ele>121.0</ele><time>2026-04-12T08:52:41Z</time></trkpt><trkpt lat="44.85667139762825" lon="9.94200177541367"><ele>121.0</ele><time>2026-04-12T08:52:44Z</time></trkpt><trkpt lat="44.85664042901259" lon="9.941923898329883"><ele>121.00000000000001</ele><time>2026-04-12T08:52:46Z</time></trkpt><trkpt lat="44.85661038015886" lon="9.941805699682885"><ele>121.0</ele><time>2026-04-12T08:52:49Z</time></trkpt><trkpt lat="44.856602124622405" lon="9.941683017362049"><ele>122.50000000000001</ele><time>2026-04-12T08:52:52Z</time></trkpt><trkpt lat="44.85661956793976" lon="9.94155931359021"><ele>124.0</ele><time>2026-04-12T08:52:55Z</time></trkpt><trkpt lat="44.85668108780456" lon="9.941476363812164"><ele>125.5</ele><time>2026-04-12T08:52:58Z</time></trkpt><trkpt lat="44.85675400676338" lon="9.941413107198658"><ele>127.0</ele><time>2026-04-12T08:53:01Z</time></trkpt><trkpt lat="44.85682088067956" lon="9.94134670877872"><ele>128.5</ele><time>2026-04-12T08:53:04Z</time></trkpt><trkpt lat="44.8568887357271" lon="9.941280034499561"><ele>130.0</ele><time>2026-04-12T08:53:07Z</time></trkpt><trkpt lat="44.856956968653975" lon="9.941214033957905"><ele>130.5</ele><time>2026-04-12T08:53:09.999Z</time></trkpt><trkpt lat="44.85701609503364" lon="9.941132263025565"><ele>131.0</ele><time>2026-04-12T08:53:12.999Z</time></trkpt><trkpt lat="44.85704963084323" lon="9.94103984684896"><ele>131.5</ele><time>2026-04-12T08:53:15.999Z</time></trkpt><trkpt lat="44.857058588254894" lon="9.940921286048848"><ele>132.0</ele><time>2026-04-12T08:53:18.999Z</time></trkpt><trkpt lat="44.85703662922956" lon="9.940835129688425"><ele>132.5</ele><time>2026-04-12T08:53:20.999Z</time></trkpt><trkpt lat="44.8569965784825" lon="9.940764724140154"><ele>133.0</ele><time>2026-04-12T08:53:22.999Z</time></trkpt><trkpt lat="44.856927712903214" lon="9.940683373392957"><ele>134.0</ele><time>2026-04-12T08:53:25.999Z</time></trkpt><trkpt lat="44.85687302395526" lon="9.940635141033292"><ele>135.0</ele><time>2026-04-12T08:53:27.999Z</time></trkpt><trkpt lat="44.856816946663024" lon="9.940590136388447"><ele>136.0</ele><time>2026-04-12T08:53:29.999Z</time></trkpt><trkpt lat="44.85673689659188" lon="9.940521961116666"><ele>137.0</ele><time>2026-04-12T08:53:32.999Z</time></trkpt><trkpt lat="44.856657295827276" lon="9.940459506261941"><ele>138.0</ele><time>2026-04-12T08:53:35.999Z</time></trkpt><trkpt lat="44.85657341715971" lon="9.940410493023464"><ele>139.0</ele><time>2026-04-12T08:53:38.999Z</time></trkpt><trkpt lat="44.856494121203745" lon="9.940360656753674"><ele>139.0</ele><time>2026-04-12T08:53:41.999Z</time></trkpt><trkpt lat="44.8564154235508" lon="9.940296081478474"><ele>139.0</ele><time>2026-04-12T08:53:44.999Z</time></trkpt><trkpt lat="44.85634371751652" lon="9.940214791535265"><ele>139.0</ele><time>2026-04-12T08:53:47.999Z</time></trkpt><trkpt lat="44.85628278719501" lon="9.940131181396843"><ele>139.0</ele><time>2026-04-12T08:53:50.999Z</time></trkpt><trkpt lat="44.85623556051316" lon="9.94002832123508"><ele>139.0</ele><time>2026-04-12T08:53:53.999Z</time></trkpt><trkpt lat="44.856206147055836" lon="9.939916197466431"><ele>139.0</ele><time>2026-04-12T08:53:56.999Z</time></trkpt><trkpt lat="44.85619057386559" lon="9.939800478348637"><ele>140.0</ele><time>2026-04-12T08:53:59.999Z</time></trkpt><trkpt lat="44.856185958233695" lon="9.939682751597232"><ele>141.0</ele><time>2026-04-12T08:54:02.998Z</time></trkpt><trkpt lat="44.8561902379634" lon="9.939569130305856"><ele>142.0</ele><time>2026-04-12T08:54:05.998Z</time></trkpt><trkpt lat="44.856215407045624" lon="9.939464562550546"><ele>143.0</ele><time>2026-04-12T08:54:08.998Z</time></trkpt><trkpt lat="44.85624595349773" lon="9.939359350062324"><ele>144.0</ele><time>2026-04-12T08:54:12Z</time></trkpt><trkpt lat="44.85628048747048" lon="9.939253118809221"><ele>145.0</ele><time>2026-04-12T08:54:15Z</time></trkpt><trkpt lat="44.85632069056531" lon="9.939145936069785"><ele>146.0</ele><time>2026-04-12T08:54:18Z</time></trkpt><trkpt lat="44.856360935764116" lon="9.939037450348348"><ele>147.0</ele><time>2026-04-12T08:54:21Z</time></trkpt><trkpt lat="44.85639601398485" lon="9.93892951170133"><ele>148.0</ele><time>2026-04-12T08:54:24Z</time></trkpt><trkpt lat="44.85643753625754" lon="9.938823382946714"><ele>149.0</ele><time>2026-04-12T08:54:27Z</time></trkpt><trkpt lat="44.85648562261038" lon="9.938723624966375"><ele>150.0</ele><time>2026-04-12T08:54:30Z</time></trkpt><trkpt lat="44.856550913522845" lon="9.938640886200194"><ele>151.0</ele><time>2026-04-12T08:54:33Z</time></trkpt><trkpt lat="44.856625602664735" lon="9.93857849229881"><ele>151.0</ele><time>2026-04-12T08:54:36Z</time></trkpt><trkpt lat="44.856705655822466" lon="9.93854390636548"><ele>151.0</ele><time>2026-04-12T08:54:39Z</time></trkpt><trkpt lat="44.85679110435284" lon="9.938532889939555"><ele>151.0</ele><time>2026-04-12T08:54:42Z</time></trkpt><trkpt lat="44.85687733679361" lon="9.938529531828587"><ele>151.0</ele><time>2026-04-12T08:54:45Z</time></trkpt><trkpt lat="44.85704687621876" lon="9.938529875044805"><ele>151.0</ele><time>2026-04-12T08:54:51Z</time></trkpt><trkpt lat="44.857134157710476" lon="9.938535411395334"><ele>152.25</ele><time>2026-04-12T08:54:54Z</time></trkpt><trkpt lat="44.857339628734984" lon="9.938531506875062"><ele>153.5</ele><time>2026-04-12T08:55:01Z</time></trkpt><trkpt lat="44.85742870311547" lon="9.938527265302445"><ele>154.75</ele><time>2026-04-12T08:55:04Z</time></trkpt><trkpt lat="44.857518945228136" lon="9.938516653888009"><ele>156.0</ele><time>2026-04-12T08:55:07Z</time></trkpt><trkpt lat="44.85761176979854" lon="9.938506971283187"><ele>156.33333333333334</ele><time>2026-04-12T08:55:10Z</time></trkpt><trkpt lat="44.857674814464886" lon="9.938500449621577"><ele>156.66666666666666</ele><time>2026-04-12T08:55:12Z</time></trkpt><trkpt lat="44.85776876178563" lon="9.938492678828025"><ele>157.0</ele><time>2026-04-12T08:55:14.999Z</time></trkpt><trkpt lat="44.857862224777826" lon="9.938475635049596"><ele>157.33333333333331</ele><time>2026-04-12T08:55:17.999Z</time></trkpt><trkpt lat="44.857925313114116" lon="9.938460819861525"><ele>157.66666666666666</ele><time>2026-04-12T08:55:19.999Z</time></trkpt><trkpt lat="44.857988056482306" lon="9.938440532576124"><ele>158.0</ele><time>2026-04-12T08:55:21.999Z</time></trkpt><trkpt lat="44.85807411741244" lon="9.93837386540552"><ele>159.57142857142858</ele><time>2026-04-12T08:55:24.999Z</time></trkpt><trkpt lat="44.858122010179606" lon="9.938303629416847"><ele>161.14285714285714</ele><time>2026-04-12T08:55:26.999Z</time></trkpt><trkpt lat="44.85816352510777" lon="9.938229990291648"><ele>162.71428571428572</ele><time>2026-04-12T08:55:28.999Z</time></trkpt><trkpt lat="44.85820203359668" lon="9.938154730998804"><ele>164.28571428571428</ele><time>2026-04-12T08:55:30.999Z</time></trkpt><trkpt lat="44.85824032947272" lon="9.938078522293083"><ele>165.85714285714286</ele><time>2026-04-12T08:55:32.999Z</time></trkpt><trkpt lat="44.85828017624926" lon="9.938004062082149"><ele>167.42857142857144</ele><time>2026-04-12T08:55:34.999Z</time></trkpt><trkpt lat="44.85831947106588" lon="9.937930214800957"><ele>169.0</ele><time>2026-04-12T08:55:36.999Z</time></trkpt><trkpt lat="44.85836166156658" lon="9.93784916918049"><ele>169.0</ele><time>2026-04-12T08:55:38.999Z</time></trkpt><trkpt lat="44.85840544975996" lon="9.937766570788535"><ele>169.0</ele><time>2026-04-12T08:55:40.999Z</time></trkpt><trkpt lat="44.85844811507529" lon="9.93768243943923"><ele>169.0</ele><time>2026-04-12T08:55:42.999Z</time></trkpt><trkpt lat="44.85849082969691" lon="9.937594165049168"><ele>169.0</ele><time>2026-04-12T08:55:44.999Z</time></trkpt><trkpt lat="44.85853454750895" lon="9.9375050989788"><ele>169.0</ele><time>2026-04-12T08:55:46.999Z</time></trkpt><trkpt lat="44.85857870546397" lon="9.937414597278146"><ele>169.0</ele><time>2026-04-12T08:55:48.999Z</time></trkpt><trkpt lat="44.858623544535845" lon="9.937326487299583"><ele>169.33333333333334</ele><time>2026-04-12T08:55:50.999Z</time></trkpt><trkpt lat="44.85867276999237" lon="9.9372384364869"><ele>169.66666666666669</ele><time>2026-04-12T08:55:52.999Z</time></trkpt><trkpt lat="44.858721731550304" lon="9.93714887548673"><ele>170.0</ele><time>2026-04-12T08:55:54.999Z</time></trkpt><trkpt lat="44.858770418936096" lon="9.937058225540664"><ele>170.33333333333334</ele><time>2026-04-12T08:55:56.999Z</time></trkpt><trkpt lat="44.858818138266805" lon="9.936966351547207"><ele>170.66666666666666</ele><time>2026-04-12T08:55:58.999Z</time></trkpt><trkpt lat="44.85886924687592" lon="9.936878778621098"><ele>171.0</ele><time>2026-04-12T08:56:00.999Z</time></trkpt><trkpt lat="44.858917130945606" lon="9.936784504748887"><ele>171.0</ele><time>2026-04-12T08:56:02.999Z</time></trkpt><trkpt lat="44.858949431955345" lon="9.93667776618819"><ele>171.0</ele><time>2026-04-12T08:56:04.999Z</time></trkpt><trkpt lat="44.85895330282853" lon="9.936563577102635"><ele>171.0</ele><time>2026-04-12T08:56:06.998Z</time></trkpt><trkpt lat="44.858925055259334" lon="9.936452409735901"><ele>171.0</ele><time>2026-04-12T08:56:08.998Z</time></trkpt><trkpt lat="44.8588874634364" lon="9.936346755500468"><ele>171.0</ele><time>2026-04-12T08:56:10.998Z</time></trkpt><trkpt lat="44.858845930025815" lon="9.93624128749554"><ele>171.0</ele><time>2026-04-12T08:56:12.998Z</time></trkpt><trkpt lat="44.85880582472685" lon="9.936139626542266"><ele>171.0</ele><time>2026-04-12T08:56:14.998Z</time></trkpt><trkpt lat="44.8587613329443" lon="9.936037187992305"><ele>171.0</ele><time>2026-04-12T08:56:17Z</time></trkpt><trkpt lat="44.858715601660805" lon="9.935929847553888"><ele>171.0</ele><time>2026-04-12T08:56:19Z</time></trkpt><trkpt lat="44.85866854269184" lon="9.93582213571046"><ele>171.0</ele><time>2026-04-12T08:56:21Z</time></trkpt><trkpt lat="44.85862048831431" lon="9.935715589156988"><ele>171.0</ele><time>2026-04-12T08:56:23Z</time></trkpt><trkpt lat="44.85857177059947" lon="9.935598284842602"><ele>171.0</ele><time>2026-04-12T08:56:25Z</time></trkpt><trkpt lat="44.85852163898223" lon="9.935480281036423"><ele>171.20000000000002</ele><time>2026-04-12T08:56:27Z</time></trkpt><trkpt lat="44.85846629373792" lon="9.935358410461182"><ele>171.4</ele><time>2026-04-12T08:56:29Z</time></trkpt><trkpt lat="44.8584171656592" lon="9.93523838778825"><ele>171.6</ele><time>2026-04-12T08:56:31Z</time></trkpt><trkpt lat="44.85836369215725" lon="9.935111503602288"><ele>171.8</ele><time>2026-04-12T08:56:33Z</time></trkpt><trkpt lat="44.85830827988048" lon="9.93498845927384"><ele>172.0</ele><time>2026-04-12T08:56:35Z</time></trkpt><trkpt lat="44.85825556539695" lon="9.934865378092454"><ele>172.6</ele><time>2026-04-12T08:56:37Z</time></trkpt><trkpt lat="44.8582015618247" lon="9.934743348747181"><ele>173.2</ele><time>2026-04-12T08:56:39Z</time></trkpt><trkpt lat="44.85814525007293" lon="9.934624132050697"><ele>173.8</ele><time>2026-04-12T08:56:41Z</time></trkpt><trkpt lat="44.858090173412684" lon="9.934504598407704"><ele>174.4</ele><time>2026-04-12T08:56:43Z</time></trkpt><trkpt lat="44.858036270687066" lon="9.934384109753157"><ele>175.0</ele><time>2026-04-12T08:56:45Z</time></trkpt><trkpt lat="44.85798348713566" lon="9.934266744889745"><ele>174.6</ele><time>2026-04-12T08:56:47Z</time></trkpt><trkpt lat="44.85792945611637" lon="9.934144746877642"><ele>174.2</ele><time>2026-04-12T08:56:49Z</time></trkpt><trkpt lat="44.85787458311095" lon="9.934021250589856"><ele>173.8</ele><time>2026-04-12T08:56:51Z</time></trkpt><trkpt lat="44.85781782437711" lon="9.933895264735163"><ele>173.4</ele><time>2026-04-12T08:56:53Z</time></trkpt><trkpt lat="44.85776510041726" lon="9.933771173211035"><ele>173.0</ele><time>2026-04-12T08:56:55Z</time></trkpt><trkpt lat="44.85770767935276" lon="9.933646434783512"><ele>173.0</ele><time>2026-04-12T08:56:57Z</time></trkpt><trkpt lat="44.85765420952551" lon="9.933521700625395"><ele>173.0</ele><time>2026-04-12T08:56:59Z</time></trkpt><trkpt lat="44.857600498509385" lon="9.933397998846818"><ele>173.0</ele><time>2026-04-12T08:57:01Z</time></trkpt><trkpt lat="44.85754448372737" lon="9.933272661477357"><ele>173.0</ele><time>2026-04-12T08:57:03Z</time></trkpt><trkpt lat="44.85749081515867" lon="9.933151800826511"><ele>173.0</ele><time>2026-04-12T08:57:05Z</time></trkpt><trkpt lat="44.857436967047015" lon="9.933028159038592"><ele>174.0</ele><time>2026-04-12T08:57:07Z</time></trkpt><trkpt lat="44.857384486316704" lon="9.932902841028067"><ele>175.0</ele><time>2026-04-12T08:57:09Z</time></trkpt><trkpt lat="44.85732714044501" lon="9.93277950225074"><ele>176.0</ele><time>2026-04-12T08:57:11Z</time></trkpt><trkpt lat="44.85727276985161" lon="9.932655175829007"><ele>177.0</ele><time>2026-04-12T08:57:13Z</time></trkpt><trkpt lat="44.85722090691433" lon="9.93252844100119"><ele>178.0</ele><time>2026-04-12T08:57:15Z</time></trkpt><trkpt lat="44.85716905824406" lon="9.932403342419816"><ele>178.0</ele><time>2026-04-12T08:57:17Z</time></trkpt><trkpt lat="44.85712148123172" lon="9.932277154616047"><ele>178.0</ele><time>2026-04-12T08:57:19Z</time></trkpt><trkpt lat="44.85707767741033" lon="9.932141690394273"><ele>178.0</ele><time>2026-04-12T08:57:20.999Z</time></trkpt><trkpt lat="44.857042579387006" lon="9.932007407998283"><ele>178.0</ele><time>2026-04-12T08:57:22.999Z</time></trkpt><trkpt lat="44.857026016626115" lon="9.93186646511053"><ele>178.0</ele><time>2026-04-12T08:57:24.999Z</time></trkpt><trkpt lat="44.857047858455594" lon="9.93172117463953"><ele>178.8</ele><time>2026-04-12T08:57:26.999Z</time></trkpt><trkpt lat="44.85710507237625" lon="9.931595593520031"><ele>179.60000000000002</ele><time>2026-04-12T08:57:28.999Z</time></trkpt><trkpt lat="44.85717586402089" lon="9.931477981332327"><ele>180.39999999999998</ele><time>2026-04-12T08:57:30.999Z</time></trkpt><trkpt lat="44.85725385940477" lon="9.93137251186616"><ele>181.2</ele><time>2026-04-12T08:57:32.999Z</time></trkpt><trkpt lat="44.857336848044284" lon="9.93127324512495"><ele>182.0</ele><time>2026-04-12T08:57:34.999Z</time></trkpt><trkpt lat="44.85741525138274" lon="9.931175347603034"><ele>182.0</ele><time>2026-04-12T08:57:36.999Z</time></trkpt><trkpt lat="44.85750134851399" lon="9.931072739466549"><ele>182.0</ele><time>2026-04-12T08:57:38.999Z</time></trkpt><trkpt lat="44.85757443968659" lon="9.930963758852176"><ele>182.0</ele><time>2026-04-12T08:57:40.999Z</time></trkpt><trkpt lat="44.857642549223364" lon="9.93084007453724"><ele>182.0</ele><time>2026-04-12T08:57:42.999Z</time></trkpt><trkpt lat="44.85770567261506" lon="9.930716167396742"><ele>182.0</ele><time>2026-04-12T08:57:44.999Z</time></trkpt><trkpt lat="44.85777264156697" lon="9.930579967628999"><ele>182.0</ele><time>2026-04-12T08:57:46.999Z</time></trkpt><trkpt lat="44.857844393318295" lon="9.930442270544582"><ele>182.0</ele><time>2026-04-12T08:57:48.999Z</time></trkpt><trkpt lat="44.85792249471765" lon="9.930297449646153"><ele>182.0</ele><time>2026-04-12T08:57:50.999Z</time></trkpt><trkpt lat="44.857961162643804" lon="9.930219332059693"><ele>182.0</ele><time>2026-04-12T08:57:51.999Z</time></trkpt><trkpt lat="44.85800377670188" lon="9.930137957194118"><ele>182.0</ele><time>2026-04-12T08:57:52.999Z</time></trkpt><trkpt lat="44.85804659496653" lon="9.930062534629748"><ele>182.57142857142858</ele><time>2026-04-12T08:57:53.999Z</time></trkpt><trkpt lat="44.85809103897618" lon="9.929980527810013"><ele>183.14285714285714</ele><time>2026-04-12T08:57:54.999Z</time></trkpt><trkpt lat="44.858133046262" lon="9.929904915528383"><ele>183.71428571428572</ele><time>2026-04-12T08:57:55.999Z</time></trkpt><trkpt lat="44.85817593393131" lon="9.92982329555125"><ele>184.28571428571428</ele><time>2026-04-12T08:57:56.999Z</time></trkpt><trkpt lat="44.858213370655776" lon="9.929745131438501"><ele>184.85714285714286</ele><time>2026-04-12T08:57:57.999Z</time></trkpt><trkpt lat="44.85825498690716" lon="9.929664572038662"><ele>185.42857142857144</ele><time>2026-04-12T08:57:58.999Z</time></trkpt><trkpt lat="44.858295094959615" lon="9.929580746012014"><ele>186.0</ele><time>2026-04-12T08:57:59.999Z</time></trkpt><trkpt lat="44.85833819058698" lon="9.929501648530447"><ele>186.0</ele><time>2026-04-12T08:58:00.999Z</time></trkpt><trkpt lat="44.858383880163004" lon="9.929417433697505"><ele>186.0</ele><time>2026-04-12T08:58:01.999Z</time></trkpt><trkpt lat="44.85842538243628" lon="9.929336747956379"><ele>186.0</ele><time>2026-04-12T08:58:02.999Z</time></trkpt><trkpt lat="44.858472936529765" lon="9.929247382791289"><ele>186.0</ele><time>2026-04-12T08:58:03.999Z</time></trkpt><trkpt lat="44.858515563212585" lon="9.929162850502651"><ele>186.0</ele><time>2026-04-12T08:58:04.999Z</time></trkpt><trkpt lat="44.85856196440966" lon="9.929077133858533"><ele>186.0</ele><time>2026-04-12T08:58:05.999Z</time></trkpt><trkpt lat="44.858606814779954" lon="9.92898871319034"><ele>185.5</ele><time>2026-04-12T08:58:06.999Z</time></trkpt><trkpt lat="44.858652942973244" lon="9.928899857017205"><ele>185.0</ele><time>2026-04-12T08:58:07.999Z</time></trkpt><trkpt lat="44.85870344508177" lon="9.92881303505639"><ele>184.5</ele><time>2026-04-12T08:58:08.999Z</time></trkpt><trkpt lat="44.85875264851501" lon="9.928723320798339"><ele>184.0</ele><time>2026-04-12T08:58:09.999Z</time></trkpt><trkpt lat="44.85880143367706" lon="9.928632489168743"><ele>183.5</ele><time>2026-04-12T08:58:10.999Z</time></trkpt><trkpt lat="44.85885314973996" lon="9.9285410142224"><ele>183.0</ele><time>2026-04-12T08:58:11.999Z</time></trkpt><trkpt lat="44.858902745091996" lon="9.928445188070485"><ele>183.0</ele><time>2026-04-12T08:58:12.998Z</time></trkpt><trkpt lat="44.85896181987747" lon="9.928361848109471"><ele>183.0</ele><time>2026-04-12T08:58:13.998Z</time></trkpt><trkpt lat="44.8590177216868" lon="9.928269942169093"><ele>183.0</ele><time>2026-04-12T08:58:14.998Z</time></trkpt><trkpt lat="44.85908110662873" lon="9.9281871202044"><ele>183.0</ele><time>2026-04-12T08:58:15.998Z</time></trkpt><trkpt lat="44.859156551460615" lon="9.928110488796262"><ele>183.0</ele><time>2026-04-12T08:58:16.998Z</time></trkpt><trkpt lat="44.85923642415008" lon="9.928038612739947"><ele>183.0</ele><time>2026-04-12T08:58:17.998Z</time></trkpt><trkpt lat="44.85931808437655" lon="9.927960214499482"><ele>183.0</ele><time>2026-04-12T08:58:18.998Z</time></trkpt><trkpt lat="44.859399815441456" lon="9.927875859770484"><ele>183.0</ele><time>2026-04-12T08:58:19.998Z</time></trkpt><trkpt lat="44.85948098540124" lon="9.927784639781862"><ele>183.0</ele><time>2026-04-12T08:58:20.998Z</time></trkpt><trkpt lat="44.8595593319914" lon="9.92768118226303"><ele>183.0</ele><time>2026-04-12T08:58:21.998Z</time></trkpt><trkpt lat="44.859633005819404" lon="9.927565052884544"><ele>183.0</ele><time>2026-04-12T08:58:23Z</time></trkpt><trkpt lat="44.85970005970829" lon="9.92743529009513"><ele>182.25</ele><time>2026-04-12T08:58:24Z</time></trkpt><trkpt lat="44.85976369250277" lon="9.927297234200688"><ele>181.5</ele><time>2026-04-12T08:58:25Z</time></trkpt><trkpt lat="44.859821744525945" lon="9.927146872109953"><ele>180.75</ele><time>2026-04-12T08:58:26Z</time></trkpt><trkpt lat="44.85986572631655" lon="9.926985601592383"><ele>180.0</ele><time>2026-04-12T08:58:27Z</time></trkpt><trkpt lat="44.85989242865117" lon="9.92681564973785"><ele>179.0</ele><time>2026-04-12T08:58:28Z</time></trkpt><trkpt lat="44.85990564317359" lon="9.92663818370274"><ele>178.0</ele><time>2026-04-12T08:58:29Z</time></trkpt><trkpt lat="44.85992029298669" lon="9.926469969411203"><ele>177.0</ele><time>2026-04-12T08:58:30Z</time></trkpt><trkpt lat="44.859947292701456" lon="9.926316128065636"><ele>176.0</ele><time>2026-04-12T08:58:31Z</time></trkpt><trkpt lat="44.85996939254719" lon="9.926178719829137"><ele>176.0</ele><time>2026-04-12T08:58:32Z</time></trkpt><trkpt lat="44.86000102901939" lon="9.926045472477613"><ele>176.0</ele><time>2026-04-12T08:58:33Z</time></trkpt><trkpt lat="44.860039468668454" lon="9.925933564054189"><ele>176.0</ele><time>2026-04-12T08:58:34Z</time></trkpt><trkpt lat="44.860085216575754" lon="9.925829644442853"><ele>176.0</ele><time>2026-04-12T08:58:35Z</time></trkpt><trkpt lat="44.860147330930154" lon="9.92574649297553"><ele>176.0</ele><time>2026-04-12T08:58:36Z</time></trkpt><trkpt lat="44.86022202722851" lon="9.925692797484786"><ele>176.0</ele><time>2026-04-12T08:58:37Z</time></trkpt><trkpt lat="44.86030306234529" lon="9.92567079253321"><ele>176.33333333333331</ele><time>2026-04-12T08:58:38Z</time></trkpt><trkpt lat="44.86038647864096" lon="9.925668950280777"><ele>176.66666666666666</ele><time>2026-04-12T08:58:39Z</time></trkpt><trkpt lat="44.86046499576273" lon="9.925677480420925"><ele>177.0</ele><time>2026-04-12T08:58:40Z</time></trkpt><trkpt lat="44.86054010857443" lon="9.92569636472601"><ele>177.33333333333334</ele><time>2026-04-12T08:58:41Z</time></trkpt><trkpt lat="44.860616825506135" lon="9.925719487662061"><ele>177.66666666666669</ele><time>2026-04-12T08:58:42Z</time></trkpt><trkpt lat="44.86069128888556" lon="9.925738556638487"><ele>178.0</ele><time>2026-04-12T08:58:43Z</time></trkpt><trkpt lat="44.86076616389182" lon="9.925759234591682"><ele>178.0</ele><time>2026-04-12T08:58:44Z</time></trkpt><trkpt lat="44.86084379196533" lon="9.925777847094018"><ele>178.0</ele><time>2026-04-12T08:58:45Z</time></trkpt><trkpt lat="44.86092391659844" lon="9.925802512227792"><ele>178.0</ele><time>2026-04-12T08:58:46Z</time></trkpt><trkpt lat="44.861003790588676" lon="9.925828598066229"><ele>178.0</ele><time>2026-04-12T08:58:47Z</time></trkpt><trkpt lat="44.861082990106475" lon="9.925852942075776"><ele>178.0</ele><time>2026-04-12T08:58:48Z</time></trkpt><trkpt lat="44.86116187400603" lon="9.925878530599638"><ele>178.0</ele><time>2026-04-12T08:58:49Z</time></trkpt><trkpt lat="44.8612414702815" lon="9.925900621428266"><ele>177.83333333333334</ele><time>2026-04-12T08:58:50Z</time></trkpt><trkpt lat="44.86132137002165" lon="9.925919939025944"><ele>177.66666666666669</ele><time>2026-04-12T08:58:51Z</time></trkpt><trkpt lat="44.861397425171894" lon="9.925940305104533"><ele>177.5</ele><time>2026-04-12T08:58:52Z</time></trkpt><trkpt lat="44.861475688163765" lon="9.92595379279747"><ele>177.33333333333334</ele><time>2026-04-12T08:58:53Z</time></trkpt><trkpt lat="44.8615561877211" lon="9.925945742495797"><ele>177.16666666666666</ele><time>2026-04-12T08:58:54Z</time></trkpt><trkpt lat="44.86163835700389" lon="9.925919677475312"><ele>177.0</ele><time>2026-04-12T08:58:55Z</time></trkpt><trkpt lat="44.86171952929294" lon="9.925881832532156"><ele>176.2</ele><time>2026-04-12T08:58:56Z</time></trkpt><trkpt lat="44.86180365079754" lon="9.925837249782994"><ele>175.39999999999998</ele><time>2026-04-12T08:58:57Z</time></trkpt><trkpt lat="44.86189378887047" lon="9.925812907956992"><ele>174.60000000000002</ele><time>2026-04-12T08:58:58Z</time></trkpt><trkpt lat="44.861990891603824" lon="9.925822606314533"><ele>173.8</ele><time>2026-04-12T08:58:59Z</time></trkpt><trkpt lat="44.86208520646366" lon="9.925855425348345"><ele>173.0</ele><time>2026-04-12T08:59:00Z</time></trkpt><trkpt lat="44.86217832329273" lon="9.925907747019233"><ele>173.0</ele><time>2026-04-12T08:59:01Z</time></trkpt><trkpt lat="44.86226825286307" lon="9.925968325221765"><ele>173.0</ele><time>2026-04-12T08:59:02Z</time></trkpt><trkpt lat="44.86235922367518" lon="9.926023020933517"><ele>173.0</ele><time>2026-04-12T08:59:03Z</time></trkpt><trkpt lat="44.862450574068575" lon="9.926074572349284"><ele>173.0</ele><time>2026-04-12T08:59:04Z</time></trkpt><trkpt lat="44.86254149899238" lon="9.926125911610614"><ele>173.0</ele><time>2026-04-12T08:59:05Z</time></trkpt><trkpt lat="44.86263099195738" lon="9.926182138792365"><ele>172.4</ele><time>2026-04-12T08:59:06Z</time></trkpt><trkpt lat="44.862699690906325" lon="9.92627946554885"><ele>171.8</ele><time>2026-04-12T08:59:07Z</time></trkpt><trkpt lat="44.86276010100101" lon="9.926386791503173"><ele>171.2</ele><time>2026-04-12T08:59:08Z</time></trkpt><trkpt lat="44.86281757545718" lon="9.926503078389329"><ele>170.6</ele><time>2026-04-12T08:59:09Z</time></trkpt><trkpt lat="44.86286946435999" lon="9.926609293947065"><ele>170.0</ele><time>2026-04-12T08:59:10Z</time></trkpt><trkpt lat="44.862928802877725" lon="9.926699580571626"><ele>170.0</ele><time>2026-04-12T08:59:11Z</time></trkpt><trkpt lat="44.863010858788826" lon="9.926757912316965"><ele>170.0</ele><time>2026-04-12T08:59:12Z</time></trkpt><trkpt lat="44.86310239230251" lon="9.926759843927302"><ele>170.0</ele><time>2026-04-12T08:59:13Z</time></trkpt><trkpt lat="44.863187660426654" lon="9.926712942315692"><ele>170.0</ele><time>2026-04-12T08:59:14Z</time></trkpt><trkpt lat="44.86326903580741" lon="9.926660527850144"><ele>170.0</ele><time>2026-04-12T08:59:15Z</time></trkpt><trkpt lat="44.86334920945154" lon="9.926600878348378"><ele>170.0</ele><time>2026-04-12T08:59:16Z</time></trkpt><trkpt lat="44.863430132199575" lon="9.926548640094385"><ele>170.0</ele><time>2026-04-12T08:59:17Z</time></trkpt><trkpt lat="44.863513503392056" lon="9.9264957091138"><ele>170.0</ele><time>2026-04-12T08:59:18Z</time></trkpt><trkpt lat="44.86359550237859" lon="9.926438230363559"><ele>170.0</ele><time>2026-04-12T08:59:19Z</time></trkpt><trkpt lat="44.86367683335829" lon="9.926383960834329"><ele>170.0</ele><time>2026-04-12T08:59:20Z</time></trkpt><trkpt lat="44.86375861476837" lon="9.92633009566886"><ele>168.8</ele><time>2026-04-12T08:59:21Z</time></trkpt><trkpt lat="44.8638399968622" lon="9.9262776949315"><ele>167.6</ele><time>2026-04-12T08:59:22Z</time></trkpt><trkpt lat="44.863922392936125" lon="9.926224528437784"><ele>166.39999999999998</ele><time>2026-04-12T08:59:23Z</time></trkpt><trkpt lat="44.86400414999046" lon="9.926169318339756"><ele>165.2</ele><time>2026-04-12T08:59:23.999Z</time></trkpt><trkpt lat="44.86408587695723" lon="9.926114138464198"><ele>164.0</ele><time>2026-04-12T08:59:24.999Z</time></trkpt><trkpt lat="44.86416746105882" lon="9.926061137834242"><ele>164.0</ele><time>2026-04-12T08:59:25.999Z</time></trkpt><trkpt lat="44.864251291547944" lon="9.926014342324736"><ele>164.0</ele><time>2026-04-12T08:59:26.999Z</time></trkpt><trkpt lat="44.864335913660746" lon="9.925974090915252"><ele>164.0</ele><time>2026-04-12T08:59:27.999Z</time></trkpt><trkpt lat="44.86442359665637" lon="9.925943877905112"><ele>164.0</ele><time>2026-04-12T08:59:28.999Z</time></trkpt><trkpt lat="44.864514032345696" lon="9.925923497650167"><ele>164.0</ele><time>2026-04-12T08:59:29.999Z</time></trkpt><trkpt lat="44.864607899653784" lon="9.925911320405767"><ele>164.2</ele><time>2026-04-12T08:59:30.999Z</time></trkpt><trkpt lat="44.86470393812667" lon="9.925897178694585"><ele>164.39999999999998</ele><time>2026-04-12T08:59:31.999Z</time></trkpt><trkpt lat="44.86480382546988" lon="9.925881454632979"><ele>164.6</ele><time>2026-04-12T08:59:32.999Z</time></trkpt><trkpt lat="44.86490766961277" lon="9.92586705125018"><ele>164.8</ele><time>2026-04-12T08:59:33.999Z</time></trkpt><trkpt lat="44.86501527814575" lon="9.925848866262555"><ele>165.0</ele><time>2026-04-12T08:59:34.999Z</time></trkpt><trkpt lat="44.865123888079786" lon="9.925827258390337"><ele>164.2</ele><time>2026-04-12T08:59:35.999Z</time></trkpt><trkpt lat="44.86523594262472" lon="9.925818393366695"><ele>163.4</ele><time>2026-04-12T08:59:36.999Z</time></trkpt><trkpt lat="44.8653487036312" lon="9.925808304967044"><ele>162.60000000000002</ele><time>2026-04-12T08:59:37.999Z</time></trkpt><trkpt lat="44.865456304722045" lon="9.925791658396681"><ele>161.8</ele><time>2026-04-12T08:59:38.999Z</time></trkpt><trkpt lat="44.86555885359466" lon="9.925799927485366"><ele>161.0</ele><time>2026-04-12T08:59:39.999Z</time></trkpt><trkpt lat="44.86564961962584" lon="9.925844627284626"><ele>159.4</ele><time>2026-04-12T08:59:40.999Z</time></trkpt><trkpt lat="44.865724135411035" lon="9.925927287996084"><ele>157.8</ele><time>2026-04-12T08:59:41.999Z</time></trkpt><trkpt lat="44.86578655159965" lon="9.926036372588282"><ele>156.20000000000002</ele><time>2026-04-12T08:59:42.999Z</time></trkpt><trkpt lat="44.86585299320684" lon="9.926146714728915"><ele>154.60000000000002</ele><time>2026-04-12T08:59:43.999Z</time></trkpt><trkpt lat="44.865929991932354" lon="9.926244598577895"><ele>153.0</ele><time>2026-04-12T08:59:44.999Z</time></trkpt><trkpt lat="44.86602222520674" lon="9.926313993074059"><ele>152.0</ele><time>2026-04-12T08:59:45.999Z</time></trkpt><trkpt lat="44.866123136398095" lon="9.926345819289425"><ele>151.0</ele><time>2026-04-12T08:59:46.999Z</time></trkpt><trkpt lat="44.866231504613715" lon="9.926340534850567"><ele>150.0</ele><time>2026-04-12T08:59:47.999Z</time></trkpt><trkpt lat="44.866341720532915" lon="9.926319254500898"><ele>149.0</ele><time>2026-04-12T08:59:48.999Z</time></trkpt><trkpt lat="44.86645092827153" lon="9.926299491801707"><ele>148.0</ele><time>2026-04-12T08:59:49.999Z</time></trkpt><trkpt lat="44.866558089230494" lon="9.926283261055534"><ele>148.0</ele><time>2026-04-12T08:59:50.999Z</time></trkpt><trkpt lat="44.866653978935744" lon="9.926269451430045"><ele>148.0</ele><time>2026-04-12T08:59:51.999Z</time></trkpt><trkpt lat="44.86673938552011" lon="9.926251458052558"><ele>148.0</ele><time>2026-04-12T08:59:52.999Z</time></trkpt><trkpt lat="44.86681525797882" lon="9.926208818995233"><ele>148.0</ele><time>2026-04-12T08:59:53.999Z</time></trkpt><trkpt lat="44.866872096422505" lon="9.92613045750387"><ele>148.0</ele><time>2026-04-12T08:59:54.999Z</time></trkpt><trkpt lat="44.866899767634564" lon="9.926020860767775"><ele>148.0</ele><time>2026-04-12T08:59:55.999Z</time></trkpt><trkpt lat="44.86690562075068" lon="9.925890511235979"><ele>148.8</ele><time>2026-04-12T08:59:56.999Z</time></trkpt><trkpt lat="44.86686638018198" lon="9.925764597270417"><ele>149.60000000000002</ele><time>2026-04-12T08:59:57.999Z</time></trkpt><trkpt lat="44.866795824250616" lon="9.925659819010724"><ele>150.39999999999998</ele><time>2026-04-12T08:59:58.999Z</time></trkpt><trkpt lat="44.86673254948234" lon="9.925558713580454"><ele>151.2</ele><time>2026-04-12T08:59:59.999Z</time></trkpt><trkpt lat="44.86666691268855" lon="9.925458818178468"><ele>152.0</ele><time>2026-04-12T09:00:00.999Z</time></trkpt><trkpt lat="44.86659827594446" lon="9.92536336459025"><ele>152.0</ele><time>2026-04-12T09:00:01.999Z</time></trkpt><trkpt lat="44.866533082131426" lon="9.925264652752713"><ele>152.0</ele><time>2026-04-12T09:00:02.999Z</time></trkpt><trkpt lat="44.8664768679882" lon="9.925165047405258"><ele>152.0</ele><time>2026-04-12T09:00:03.999Z</time></trkpt><trkpt lat="44.866449916104024" lon="9.925052677832479"><ele>152.0</ele><time>2026-04-12T09:00:04.999Z</time></trkpt><trkpt lat="44.86642227201616" lon="9.924937937801838"><ele>152.0</ele><time>2026-04-12T09:00:05.999Z</time></trkpt><trkpt lat="44.86642738136922" lon="9.92482820429211"><ele>152.0</ele><time>2026-04-12T09:00:06.999Z</time></trkpt><trkpt lat="44.8664622490437" lon="9.924738138113053"><ele>150.33333333333331</ele><time>2026-04-12T09:00:07.999Z</time></trkpt><trkpt lat="44.86649546707606" lon="9.92465078098753"><ele>148.66666666666666</ele><time>2026-04-12T09:00:08.999Z</time></trkpt><trkpt lat="44.8666076311877" lon="9.924643869961383"><ele>147.0</ele><time>2026-04-12T09:00:09.999Z</time></trkpt><trkpt lat="44.86669329894611" lon="9.924644745423713"><ele>145.33333333333334</ele><time>2026-04-12T09:00:10.999Z</time></trkpt><trkpt lat="44.866781063269435" lon="9.924652029510627"><ele>143.66666666666669</ele><time>2026-04-12T09:00:11.999Z</time></trkpt><trkpt lat="44.866870545577854" lon="9.924660342419587"><ele>142.0</ele><time>2026-04-12T09:00:12.999Z</time></trkpt><trkpt lat="44.86696337391115" lon="9.924665353829466"><ele>140.4</ele><time>2026-04-12T09:00:13.999Z</time></trkpt><trkpt lat="44.86705576323973" lon="9.924659290366723"><ele>138.79999999999998</ele><time>2026-04-12T09:00:14.999Z</time></trkpt><trkpt lat="44.86714933810273" lon="9.924647911051972"><ele>137.2</ele><time>2026-04-12T09:00:15.999Z</time></trkpt><trkpt lat="44.86724092774658" lon="9.92461414524708"><ele>135.6</ele><time>2026-04-12T09:00:16.998Z</time></trkpt><trkpt lat="44.867321393069666" lon="9.924539689281323"><ele>134.0</ele><time>2026-04-12T09:00:17.998Z</time></trkpt><trkpt lat="44.86738597795363" lon="9.924440860748165"><ele>134.0</ele><time>2026-04-12T09:00:18.998Z</time></trkpt><trkpt lat="44.86743415153351" lon="9.924329657848734"><ele>134.0</ele><time>2026-04-12T09:00:19.998Z</time></trkpt><trkpt lat="44.86747561668173" lon="9.9242131391645"><ele>134.0</ele><time>2026-04-12T09:00:20.998Z</time></trkpt><trkpt lat="44.86753165103662" lon="9.924111223805728"><ele>134.0</ele><time>2026-04-12T09:00:21.998Z</time></trkpt><trkpt lat="44.86761055693908" lon="9.924039112291867"><ele>134.0</ele><time>2026-04-12T09:00:22.998Z</time></trkpt><trkpt lat="44.86770020682567" lon="9.924011411556803"><ele>135.16666666666666</ele><time>2026-04-12T09:00:23.998Z</time></trkpt><trkpt lat="44.86779118030864" lon="9.924019727286346"><ele>136.33333333333331</ele><time>2026-04-12T09:00:24.998Z</time></trkpt><trkpt lat="44.867876913292434" lon="9.924051350496947"><ele>137.5</ele><time>2026-04-12T09:00:25.998Z</time></trkpt><trkpt lat="44.86795794736441" lon="9.924079725181853"><ele>138.66666666666666</ele><time>2026-04-12T09:00:26.998Z</time></trkpt><trkpt lat="44.86803849483077" lon="9.924109095182816"><ele>139.83333333333334</ele><time>2026-04-12T09:00:27.998Z</time></trkpt><trkpt lat="44.86811652274109" lon="9.92413284980051"><ele>141.0</ele><time>2026-04-12T09:00:29Z</time></trkpt><trkpt lat="44.8681907587377" lon="9.92415576058957"><ele>141.0</ele><time>2026-04-12T09:00:30Z</time></trkpt><trkpt lat="44.86826460243583" lon="9.924181312589162"><ele>141.0</ele><time>2026-04-12T09:00:31Z</time></trkpt><trkpt lat="44.86833992604389" lon="9.924201903888518"><ele>141.0</ele><time>2026-04-12T09:00:32Z</time></trkpt><trkpt lat="44.86841857973938" lon="9.924216452562852"><ele>141.0</ele><time>2026-04-12T09:00:33Z</time></trkpt><trkpt lat="44.86849546891043" lon="9.924241692239908"><ele>141.0</ele><time>2026-04-12T09:00:34Z</time></trkpt><trkpt lat="44.868566958779795" lon="9.924278421187989"><ele>141.0</ele><time>2026-04-12T09:00:35Z</time></trkpt><trkpt lat="44.86864317794544" lon="9.924311027334099"><ele>140.66666666666666</ele><time>2026-04-12T09:00:36Z</time></trkpt><trkpt lat="44.868719859040205" lon="9.92431038961515"><ele>140.33333333333334</ele><time>2026-04-12T09:00:37Z</time></trkpt><trkpt lat="44.86879323669588" lon="9.924273866088548"><ele>140.0</ele><time>2026-04-12T09:00:38Z</time></trkpt><trkpt lat="44.8688428748234" lon="9.924183508271136"><ele>139.66666666666669</ele><time>2026-04-12T09:00:39Z</time></trkpt><trkpt lat="44.86886418633763" lon="9.924065386922452"><ele>139.33333333333334</ele><time>2026-04-12T09:00:40Z</time></trkpt><trkpt lat="44.868857430110445" lon="9.923955135041716"><ele>139.0</ele><time>2026-04-12T09:00:41Z</time></trkpt><trkpt lat="44.86884606186714" lon="9.923852447685757"><ele>140.14285714285714</ele><time>2026-04-12T09:00:42Z</time></trkpt><trkpt lat="44.86884200224911" lon="9.923752364628019"><ele>141.28571428571428</ele><time>2026-04-12T09:00:43Z</time></trkpt><trkpt lat="44.86883887822152" lon="9.923653810975244"><ele>142.42857142857144</ele><time>2026-04-12T09:00:44Z</time></trkpt><trkpt lat="44.86884064231221" lon="9.923557314715325"><ele>143.57142857142856</ele><time>2026-04-12T09:00:45Z</time></trkpt><trkpt lat="44.86884693924386" lon="9.92346310429231"><ele>144.71428571428572</ele><time>2026-04-12T09:00:46Z</time></trkpt><trkpt lat="44.86886513172069" lon="9.923368530490897"><ele>145.85714285714286</ele><time>2026-04-12T09:00:47Z</time></trkpt><trkpt lat="44.868891807945104" lon="9.923284276522041"><ele>147.0</ele><time>2026-04-12T09:00:48Z</time></trkpt><trkpt lat="44.868934519722956" lon="9.923199071941594"><ele>147.28571428571428</ele><time>2026-04-12T09:00:49Z</time></trkpt><trkpt lat="44.86897876318649" lon="9.92312276305075"><ele>147.57142857142856</ele><time>2026-04-12T09:00:50Z</time></trkpt><trkpt lat="44.86902457813154" lon="9.923045716571531"><ele>147.85714285714286</ele><time>2026-04-12T09:00:51Z</time></trkpt><trkpt lat="44.86907503841528" lon="9.922971433611938"><ele>148.14285714285714</ele><time>2026-04-12T09:00:52Z</time></trkpt><trkpt lat="44.869130935889196" lon="9.922903214725197"><ele>148.42857142857142</ele><time>2026-04-12T09:00:53Z</time></trkpt><trkpt lat="44.86918403826991" lon="9.92283034227345"><ele>148.71428571428572</ele><time>2026-04-12T09:00:54Z</time></trkpt><trkpt lat="44.86923453868624" lon="9.922759670587958"><ele>149.0</ele><time>2026-04-12T09:00:55Z</time></trkpt><trkpt lat="44.869285634805095" lon="9.922691562601981"><ele>149.16666666666666</ele><time>2026-04-12T09:00:56Z</time></trkpt><trkpt lat="44.86933578498557" lon="9.92262514863481"><ele>149.33333333333331</ele><time>2026-04-12T09:00:57Z</time></trkpt><trkpt lat="44.86938437294092" lon="9.9225621919519"><ele>149.5</ele><time>2026-04-12T09:00:58Z</time></trkpt><trkpt lat="44.86943385128348" lon="9.922499782073006"><ele>149.66666666666666</ele><time>2026-04-12T09:00:59Z</time></trkpt><trkpt lat="44.869484474188944" lon="9.922444649290588"><ele>149.83333333333334</ele><time>2026-04-12T09:01:00Z</time></trkpt><trkpt lat="44.86957572632008" lon="9.922332787034087"><ele>150.0</ele><time>2026-04-12T09:01:02Z</time></trkpt><trkpt lat="44.869674526257896" lon="9.922232075621364"><ele>149.0</ele><time>2026-04-12T09:01:04Z</time></trkpt><trkpt lat="44.86977942377202" lon="9.922148330197091"><ele>148.0</ele><time>2026-04-12T09:01:06Z</time></trkpt><trkpt lat="44.86989387082043" lon="9.922079818184049"><ele>147.0</ele><time>2026-04-12T09:01:08Z</time></trkpt><trkpt lat="44.87001313818981" lon="9.922022498084894"><ele>146.0</ele><time>2026-04-12T09:01:10Z</time></trkpt><trkpt lat="44.87007572765002" lon="9.921988368785504"><ele>145.0</ele><time>2026-04-12T09:01:11Z</time></trkpt><trkpt lat="44.87020081937312" lon="9.92192167619378"><ele>145.14285714285714</ele><time>2026-04-12T09:01:13Z</time></trkpt><trkpt lat="44.87026457429244" lon="9.921887495473124"><ele>145.2857142857143</ele><time>2026-04-12T09:01:14Z</time></trkpt><trkpt lat="44.87033033794551" lon="9.921847401829048"><ele>145.42857142857144</ele><time>2026-04-12T09:01:15Z</time></trkpt><trkpt lat="44.87039658814804" lon="9.921808717007778"><ele>145.57142857142858</ele><time>2026-04-12T09:01:16Z</time></trkpt><trkpt lat="44.87046636151013" lon="9.921771176037195"><ele>145.71428571428572</ele><time>2026-04-12T09:01:17Z</time></trkpt><trkpt lat="44.870537059906326" lon="9.921733142003784"><ele>145.85714285714286</ele><time>2026-04-12T09:01:18Z</time></trkpt><trkpt lat="44.870609363017024" lon="9.921695542939698"><ele>146.0</ele><time>2026-04-12T09:01:19Z</time></trkpt><trkpt lat="44.87068413143329" lon="9.921659659043565"><ele>146.0</ele><time>2026-04-12T09:01:20Z</time></trkpt><trkpt lat="44.87075601310858" lon="9.92162408588997"><ele>146.0</ele><time>2026-04-12T09:01:21Z</time></trkpt><trkpt lat="44.87082940950501" lon="9.921588302448347"><ele>146.0</ele><time>2026-04-12T09:01:22Z</time></trkpt><trkpt lat="44.87090272012721" lon="9.921553132533413"><ele>146.0</ele><time>2026-04-12T09:01:23Z</time></trkpt><trkpt lat="44.870974960824604" lon="9.921521996766165"><ele>146.0</ele><time>2026-04-12T09:01:24Z</time></trkpt><trkpt lat="44.871048698951476" lon="9.92150576597812"><ele>146.0</ele><time>2026-04-12T09:01:25Z</time></trkpt><trkpt lat="44.87112430526908" lon="9.921511929375505"><ele>145.85714285714286</ele><time>2026-04-12T09:01:26Z</time></trkpt><trkpt lat="44.87120107847388" lon="9.921510567243768"><ele>145.71428571428572</ele><time>2026-04-12T09:01:26.999Z</time></trkpt><trkpt lat="44.87126366459692" lon="9.921604292371148"><ele>145.57142857142858</ele><time>2026-04-12T09:01:27.999Z</time></trkpt><trkpt lat="44.87132136476963" lon="9.921670751156247"><ele>145.42857142857144</ele><time>2026-04-12T09:01:28.999Z</time></trkpt><trkpt lat="44.871372299914746" lon="9.921738746381903"><ele>145.2857142857143</ele><time>2026-04-12T09:01:29.999Z</time></trkpt><trkpt lat="44.87141745621824" lon="9.921812067484792"><ele>145.14285714285714</ele><time>2026-04-12T09:01:30.999Z</time></trkpt><trkpt lat="44.87146381476696" lon="9.921879359354328"><ele>145.0</ele><time>2026-04-12T09:01:31.999Z</time></trkpt><trkpt lat="44.87150892185444" lon="9.921942245372774"><ele>145.5</ele><time>2026-04-12T09:01:32.999Z</time></trkpt><trkpt lat="44.87159940200146" lon="9.922058654623672"><ele>146.0</ele><time>2026-04-12T09:01:34.999Z</time></trkpt><trkpt lat="44.8716892062033" lon="9.922167643356278"><ele>146.5</ele><time>2026-04-12T09:01:36.999Z</time></trkpt><trkpt lat="44.87176532556755" lon="9.922276015359774"><ele>147.0</ele><time>2026-04-12T09:01:38.999Z</time></trkpt><trkpt lat="44.87184246508743" lon="9.922375950168894"><ele>147.0</ele><time>2026-04-12T09:01:40.999Z</time></trkpt><trkpt lat="44.87191375869236" lon="9.922484566977035"><ele>147.0</ele><time>2026-04-12T09:01:42.999Z</time></trkpt><trkpt lat="44.87198481280662" lon="9.922596550002902"><ele>147.0</ele><time>2026-04-12T09:01:44.999Z</time></trkpt><trkpt lat="44.87205141389986" lon="9.922708032831379"><ele>147.0</ele><time>2026-04-12T09:01:46.999Z</time></trkpt><trkpt lat="44.87211626730608" lon="9.922809028480819"><ele>147.0</ele><time>2026-04-12T09:01:48.999Z</time></trkpt><trkpt lat="44.872170929807645" lon="9.92291264106043"><ele>147.5</ele><time>2026-04-12T09:01:50.999Z</time></trkpt><trkpt lat="44.872240562994776" lon="9.923038369806156"><ele>148.0</ele><time>2026-04-12T09:01:53.999Z</time></trkpt><trkpt lat="44.8722908067225" lon="9.923142531689404"><ele>148.5</ele><time>2026-04-12T09:01:55.999Z</time></trkpt><trkpt lat="44.87240077950437" lon="9.923332104410663"><ele>149.0</ele><time>2026-04-12T09:01:58.999Z</time></trkpt><trkpt lat="44.87246793220856" lon="9.923444193873364"><ele>149.4</ele><time>2026-04-12T09:02:00.999Z</time></trkpt><trkpt lat="44.872544777842236" lon="9.923555128148962"><ele>149.8</ele><time>2026-04-12T09:02:02.999Z</time></trkpt><trkpt lat="44.87262358932404" lon="9.923667258245853"><ele>150.2</ele><time>2026-04-12T09:02:04.999Z</time></trkpt><trkpt lat="44.87270551340381" lon="9.923781068485216"><ele>150.6</ele><time>2026-04-12T09:02:06.999Z</time></trkpt><trkpt lat="44.872748919275665" lon="9.923847077214532"><ele>151.0</ele><time>2026-04-12T09:02:07.999Z</time></trkpt><trkpt lat="44.87283036116895" lon="9.923976703731784"><ele>150.0</ele><time>2026-04-12T09:02:09.999Z</time></trkpt><trkpt lat="44.872894119799426" lon="9.924129595379142"><ele>149.0</ele><time>2026-04-12T09:02:11.999Z</time></trkpt><trkpt lat="44.87294869936823" lon="9.924285792266378"><ele>148.0</ele><time>2026-04-12T09:02:13.999Z</time></trkpt><trkpt lat="44.87297361606997" lon="9.924398444801737"><ele>147.0</ele><time>2026-04-12T09:02:14.999Z</time></trkpt><trkpt lat="44.87301530839614" lon="9.924566393998893"><ele>146.79999999999998</ele><time>2026-04-12T09:02:16.999Z</time></trkpt><trkpt lat="44.87305660057109" lon="9.924729813013206"><ele>146.6</ele><time>2026-04-12T09:02:18.999Z</time></trkpt><trkpt lat="44.87309980636694" lon="9.924902757959238"><ele>146.39999999999998</ele><time>2026-04-12T09:02:20.998Z</time></trkpt><trkpt lat="44.87312905967398" lon="9.924984304084616"><ele>146.2</ele><time>2026-04-12T09:02:21.998Z</time></trkpt><trkpt lat="44.8731597473704" lon="9.925070786742992"><ele>146.0</ele><time>2026-04-12T09:02:22.998Z</time></trkpt><trkpt lat="44.87318820531089" lon="9.925163768543207"><ele>145.71428571428572</ele><time>2026-04-12T09:02:23.998Z</time></trkpt><trkpt lat="44.87321956356931" lon="9.925251911772097"><ele>145.42857142857144</ele><time>2026-04-12T09:02:24.998Z</time></trkpt><trkpt lat="44.87324873690619" lon="9.925341589886912"><ele>145.14285714285717</ele><time>2026-04-12T09:02:25.998Z</time></trkpt><trkpt lat="44.8732781027599" lon="9.925430681113001"><ele>144.85714285714286</ele><time>2026-04-12T09:02:26.998Z</time></trkpt><trkpt lat="44.873309570960636" lon="9.925515994187402"><ele>144.57142857142858</ele><time>2026-04-12T09:02:27.998Z</time></trkpt><trkpt lat="44.873344403624486" lon="9.925609377756398"><ele>144.2857142857143</ele><time>2026-04-12T09:02:28.998Z</time></trkpt><trkpt lat="44.87337444188318" lon="9.925707888329427"><ele>144.0</ele><time>2026-04-12T09:02:29.998Z</time></trkpt><trkpt lat="44.87341137600666" lon="9.925794006584304"><ele>143.5</ele><time>2026-04-12T09:02:30.998Z</time></trkpt><trkpt lat="44.873441517104496" lon="9.92588216252211"><ele>143.0</ele><time>2026-04-12T09:02:31.998Z</time></trkpt><trkpt lat="44.87347689696124" lon="9.925973042826174"><ele>142.5</ele><time>2026-04-12T09:02:32.998Z</time></trkpt><trkpt lat="44.87351378598374" lon="9.926066761803538"><ele>142.0</ele><time>2026-04-12T09:02:34Z</time></trkpt><trkpt lat="44.87354727358105" lon="9.926160344812766"><ele>141.5</ele><time>2026-04-12T09:02:35Z</time></trkpt><trkpt lat="44.873582673364325" lon="9.926257718133686"><ele>141.0</ele><time>2026-04-12T09:02:36Z</time></trkpt><trkpt lat="44.8736218040974" lon="9.926354418958459"><ele>140.83333333333334</ele><time>2026-04-12T09:02:37Z</time></trkpt><trkpt lat="44.87365941922657" lon="9.926447199713904"><ele>140.66666666666666</ele><time>2026-04-12T09:02:38Z</time></trkpt><trkpt lat="44.873694798016686" lon="9.926541896219025"><ele>140.5</ele><time>2026-04-12T09:02:39Z</time></trkpt><trkpt lat="44.87373057419299" lon="9.92663439323453"><ele>140.33333333333331</ele><time>2026-04-12T09:02:40Z</time></trkpt><trkpt lat="44.873772995264936" lon="9.92672320261376"><ele>140.16666666666666</ele><time>2026-04-12T09:02:41Z</time></trkpt><trkpt lat="44.87381706382218" lon="9.926807899504816"><ele>140.0</ele><time>2026-04-12T09:02:42Z</time></trkpt><trkpt lat="44.873862932945535" lon="9.926890356481188"><ele>139.66666666666666</ele><time>2026-04-12T09:02:43Z</time></trkpt><trkpt lat="44.873920244959024" lon="9.926967088720414"><ele>139.33333333333331</ele><time>2026-04-12T09:02:44Z</time></trkpt><trkpt lat="44.87399011731135" lon="9.927030340788463"><ele>139.0</ele><time>2026-04-12T09:02:45Z</time></trkpt><trkpt lat="44.8740722405643" lon="9.92707960425157"><ele>138.66666666666666</ele><time>2026-04-12T09:02:46Z</time></trkpt><trkpt lat="44.874162931813046" lon="9.927110630364307"><ele>138.33333333333334</ele><time>2026-04-12T09:02:47Z</time></trkpt><trkpt lat="44.87425660159462" lon="9.92712461284032"><ele>138.0</ele><time>2026-04-12T09:02:48Z</time></trkpt><trkpt lat="44.87435451613987" lon="9.927115383970879"><ele>137.6</ele><time>2026-04-12T09:02:49Z</time></trkpt><trkpt lat="44.874453697547615" lon="9.927076314269081"><ele>137.20000000000002</ele><time>2026-04-12T09:02:50Z</time></trkpt><trkpt lat="44.87454721392719" lon="9.927023401891686"><ele>136.8</ele><time>2026-04-12T09:02:51Z</time></trkpt><trkpt lat="44.87463560127797" lon="9.92697331378662"><ele>136.4</ele><time>2026-04-12T09:02:52Z</time></trkpt><trkpt lat="44.87472270106787" lon="9.926927508883875"><ele>136.0</ele><time>2026-04-12T09:02:53Z</time></trkpt><trkpt lat="44.87481029483271" lon="9.926872520041359"><ele>136.0</ele><time>2026-04-12T09:02:54Z</time></trkpt><trkpt lat="44.874896207598475" lon="9.92682119189575"><ele>136.0</ele><time>2026-04-12T09:02:55Z</time></trkpt><trkpt lat="44.87497923899878" lon="9.926773995442968"><ele>136.0</ele><time>2026-04-12T09:02:56Z</time></trkpt><trkpt lat="44.87506023455579" lon="9.926726270683213"><ele>136.0</ele><time>2026-04-12T09:02:57Z</time></trkpt><trkpt lat="44.87513687037345" lon="9.926678569000357"><ele>136.0</ele><time>2026-04-12T09:02:58Z</time></trkpt><trkpt lat="44.87521087521519" lon="9.926634707900353"><ele>136.0</ele><time>2026-04-12T09:02:59Z</time></trkpt><trkpt lat="44.875277633238404" lon="9.9265852595626"><ele>136.14285714285714</ele><time>2026-04-12T09:03:00Z</time></trkpt><trkpt lat="44.87534728915866" lon="9.926540978226024"><ele>136.28571428571428</ele><time>2026-04-12T09:03:01Z</time></trkpt><trkpt lat="44.87541377778785" lon="9.92649356112944"><ele>136.42857142857144</ele><time>2026-04-12T09:03:02Z</time></trkpt><trkpt lat="44.875479842806214" lon="9.926448704160626"><ele>136.57142857142856</ele><time>2026-04-12T09:03:03Z</time></trkpt><trkpt lat="44.875551450598735" lon="9.926414240564947"><ele>136.71428571428572</ele><time>2026-04-12T09:03:04Z</time></trkpt><trkpt lat="44.875619913184934" lon="9.9263786888811"><ele>136.85714285714286</ele><time>2026-04-12T09:03:05Z</time></trkpt><trkpt lat="44.875687099419125" lon="9.926336343705055"><ele>137.0</ele><time>2026-04-12T09:03:06Z</time></trkpt><trkpt lat="44.87575435448355" lon="9.926291643048334"><ele>137.0</ele><time>2026-04-12T09:03:07Z</time></trkpt><trkpt lat="44.87582304581005" lon="9.926253190084822"><ele>137.0</ele><time>2026-04-12T09:03:08Z</time></trkpt><trkpt lat="44.87589327118587" lon="9.926223319874396"><ele>137.0</ele><time>2026-04-12T09:03:09Z</time></trkpt><trkpt lat="44.8759662330921" lon="9.926212150350027"><ele>137.0</ele><time>2026-04-12T09:03:10Z</time></trkpt><trkpt lat="44.876031709841975" lon="9.9262371651377"><ele>137.0</ele><time>2026-04-12T09:03:11Z</time></trkpt><trkpt lat="44.876094327470746" lon="9.92630018722937"><ele>137.0</ele><time>2026-04-12T09:03:12Z</time></trkpt><trkpt lat="44.87614457664401" lon="9.926397089663048"><ele>135.4</ele><time>2026-04-12T09:03:13Z</time></trkpt><trkpt lat="44.87618411278113" lon="9.926503611267671"><ele>133.79999999999998</ele><time>2026-04-12T09:03:14Z</time></trkpt><trkpt lat="44.87621244130482" lon="9.92660036775811"><ele>132.2</ele><time>2026-04-12T09:03:15Z</time></trkpt><trkpt lat="44.87623695480848" lon="9.926686499927687"><ele>130.6</ele><time>2026-04-12T09:03:16Z</time></trkpt><trkpt lat="44.8762968668826" lon="9.92683142139754"><ele>129.0</ele><time>2026-04-12T09:03:18Z</time></trkpt><trkpt lat="44.87640383472355" lon="9.926790559743171"><ele>128.8</ele><time>2026-04-12T09:03:20Z</time></trkpt><trkpt lat="44.8764445727848" lon="9.926695731363635"><ele>128.60000000000002</ele><time>2026-04-12T09:03:21Z</time></trkpt><trkpt lat="44.876426631211395" lon="9.92654625342416"><ele>128.4</ele><time>2026-04-12T09:03:22Z</time></trkpt><trkpt lat="44.87638661848799" lon="9.926421730740788"><ele>128.20000000000002</ele><time>2026-04-12T09:03:23Z</time></trkpt><trkpt lat="44.87635257839327" lon="9.926308716358136"><ele>128.0</ele><time>2026-04-12T09:03:24Z</time></trkpt><trkpt lat="44.87631795734224" lon="9.926193773191896"><ele>128.0</ele><time>2026-04-12T09:03:25Z</time></trkpt><trkpt lat="44.87628241779738" lon="9.926074483678754"><ele>128.0</ele><time>2026-04-12T09:03:26Z</time></trkpt><trkpt lat="44.87624739783112" lon="9.92595086637707"><ele>128.0</ele><time>2026-04-12T09:03:27Z</time></trkpt><trkpt lat="44.87621640028129" lon="9.925841447991488"><ele>128.0</ele><time>2026-04-12T09:03:28Z</time></trkpt><trkpt lat="44.876193631435214" lon="9.925751342414612"><ele>128.0</ele><time>2026-04-12T09:03:29Z</time></trkpt><trkpt lat="44.876227010797436" lon="9.925587545752649"><ele>127.60000000000001</ele><time>2026-04-12T09:03:30.999Z</time></trkpt><trkpt lat="44.87631999889188" lon="9.925553442743631"><ele>127.20000000000002</ele><time>2026-04-12T09:03:31.999Z</time></trkpt><trkpt lat="44.87640916070442" lon="9.925586565923812"><ele>126.8</ele><time>2026-04-12T09:03:32.999Z</time></trkpt><trkpt lat="44.87652359075398" lon="9.92560866184757"><ele>126.4</ele><time>2026-04-12T09:03:33.999Z</time></trkpt><trkpt lat="44.87663162353747" lon="9.925558298869513"><ele>126.0</ele><time>2026-04-12T09:03:34.999Z</time></trkpt><trkpt lat="44.8767251363167" lon="9.925461183402907"><ele>125.6</ele><time>2026-04-12T09:03:35.999Z</time></trkpt><trkpt lat="44.876810094123705" lon="9.92535144294173"><ele>125.19999999999999</ele><time>2026-04-12T09:03:36.999Z</time></trkpt><trkpt lat="44.87689392425969" lon="9.925250829237157"><ele>124.80000000000001</ele><time>2026-04-12T09:03:37.999Z</time></trkpt><trkpt lat="44.876978631342865" lon="9.925153972271866"><ele>124.4</ele><time>2026-04-12T09:03:38.999Z</time></trkpt><trkpt lat="44.87706211481617" lon="9.925058065855303"><ele>124.0</ele><time>2026-04-12T09:03:39.999Z</time></trkpt><trkpt lat="44.87714529518754" lon="9.924964142013799"><ele>124.0</ele><time>2026-04-12T09:03:40.999Z</time></trkpt><trkpt lat="44.8772310331591" lon="9.924878415735884"><ele>124.0</ele><time>2026-04-12T09:03:41.999Z</time></trkpt><trkpt lat="44.8773120914023" lon="9.924786947026163"><ele>124.0</ele><time>2026-04-12T09:03:42.999Z</time></trkpt><trkpt lat="44.87738747589453" lon="9.924694395958761"><ele>124.0</ele><time>2026-04-12T09:03:43.999Z</time></trkpt><trkpt lat="44.87746797870882" lon="9.924606646310643"><ele>124.0</ele><time>2026-04-12T09:03:44.999Z</time></trkpt><trkpt lat="44.877547740967806" lon="9.924519635557417"><ele>124.6</ele><time>2026-04-12T09:03:45.999Z</time></trkpt><trkpt lat="44.877626970462686" lon="9.924426158347819"><ele>125.2</ele><time>2026-04-12T09:03:46.999Z</time></trkpt><trkpt lat="44.87770707394916" lon="9.924330265644098"><ele>125.79999999999998</ele><time>2026-04-12T09:03:47.999Z</time></trkpt><trkpt lat="44.87778806222004" lon="9.924241768032019"><ele>126.39999999999999</ele><time>2026-04-12T09:03:48.999Z</time></trkpt><trkpt lat="44.87786678076444" lon="9.924151647229406"><ele>127.0</ele><time>2026-04-12T09:03:49.999Z</time></trkpt><trkpt lat="44.8779481065528" lon="9.924063471328045"><ele>127.19999999999999</ele><time>2026-04-12T09:03:50.999Z</time></trkpt><trkpt lat="44.878033454428625" lon="9.92397824399833"><ele>127.39999999999999</ele><time>2026-04-12T09:03:51.999Z</time></trkpt><trkpt lat="44.878118246559666" lon="9.923894329733455"><ele>127.60000000000001</ele><time>2026-04-12T09:03:52.999Z</time></trkpt><trkpt lat="44.87820132398603" lon="9.923804613735738"><ele>127.80000000000001</ele><time>2026-04-12T09:03:53.999Z</time></trkpt><trkpt lat="44.878282487030596" lon="9.923716972696605"><ele>128.0</ele><time>2026-04-12T09:03:54.999Z</time></trkpt><trkpt lat="44.878362724602695" lon="9.923625646513315"><ele>128.20000000000002</ele><time>2026-04-12T09:03:55.999Z</time></trkpt><trkpt lat="44.878443146806916" lon="9.923538017172785"><ele>128.4</ele><time>2026-04-12T09:03:56.999Z</time></trkpt><trkpt lat="44.87852149006587" lon="9.923450394627592"><ele>128.60000000000002</ele><time>2026-04-12T09:03:57.999Z</time></trkpt><trkpt lat="44.87859980976781" lon="9.923363778611604"><ele>128.8</ele><time>2026-04-12T09:03:58.999Z</time></trkpt><trkpt lat="44.87867841200628" lon="9.923279239681781"><ele>129.0</ele><time>2026-04-12T09:03:59.999Z</time></trkpt><trkpt lat="44.87875371633027" lon="9.923196700787488"><ele>129.16666666666666</ele><time>2026-04-12T09:04:00.999Z</time></trkpt><trkpt lat="44.8788267505403" lon="9.923117883513894"><ele>129.33333333333334</ele><time>2026-04-12T09:04:01.999Z</time></trkpt><trkpt lat="44.87889811660335" lon="9.92304704360217"><ele>129.5</ele><time>2026-04-12T09:04:02.999Z</time></trkpt><trkpt lat="44.878967977639284" lon="9.922991880888652"><ele>129.66666666666669</ele><time>2026-04-12T09:04:03.999Z</time></trkpt><trkpt lat="44.87903327569567" lon="9.922942597508595"><ele>129.83333333333334</ele><time>2026-04-12T09:04:04.999Z</time></trkpt><trkpt lat="44.879094883482495" lon="9.922895640292365"><ele>130.0</ele><time>2026-04-12T09:04:05.999Z</time></trkpt><trkpt lat="44.87915297281279" lon="9.922860686030438"><ele>130.0</ele><time>2026-04-12T09:04:06.999Z</time></trkpt><trkpt lat="44.87925984278843" lon="9.922770708835824"><ele>130.0</ele><time>2026-04-12T09:04:08.999Z</time></trkpt><trkpt lat="44.87936676690569" lon="9.922748491314627"><ele>130.0</ele><time>2026-04-12T09:04:10.999Z</time></trkpt><trkpt lat="44.87945637743721" lon="9.922706959176637"><ele>130.0</ele><time>2026-04-12T09:04:12.999Z</time></trkpt><trkpt lat="44.87951578522906" lon="9.922659219334161"><ele>130.0</ele><time>2026-04-12T09:04:14.999Z</time></trkpt><trkpt lat="44.87956402059073" lon="9.922588657800265"><ele>130.0</ele><time>2026-04-12T09:04:19.999Z</time></trkpt><trkpt lat="44.87963756021414" lon="9.922660719920174"><ele>130.0</ele><time>2026-04-12T09:04:34.998Z</time></trkpt><trkpt lat="44.879671494712326" lon="9.922782859392413"><ele>130.0</ele><time>2026-04-12T09:04:37.998Z</time></trkpt><trkpt lat="44.87970236758311" lon="9.922877635420763"><ele>130.0</ele><time>2026-04-12T09:04:40Z</time></trkpt><trkpt lat="44.87973934768448" lon="9.922983093279223"><ele>130.0</ele><time>2026-04-12T09:04:42Z</time></trkpt><trkpt lat="44.87977361701354" lon="9.923097230143556"><ele>130.0</ele><time>2026-04-12T09:04:44Z</time></trkpt><trkpt lat="44.879815835958716" lon="9.923214312850607"><ele>130.0</ele><time>2026-04-12T09:04:46Z</time></trkpt><trkpt lat="44.87986241673109" lon="9.923338976020398"><ele>130.0</ele><time>2026-04-12T09:04:48Z</time></trkpt><trkpt lat="44.87990994290938" lon="9.923482153349767"><ele>130.0</ele><time>2026-04-12T09:04:50Z</time></trkpt><trkpt lat="44.87996445059481" lon="9.923636831652326"><ele>130.0</ele><time>2026-04-12T09:04:52Z</time></trkpt><trkpt lat="44.87999280125692" lon="9.923718676889614"><ele>130.0</ele><time>2026-04-12T09:04:53Z</time></trkpt><trkpt lat="44.88004811902411" lon="9.923877674463467"><ele>130.00000000000003</ele><time>2026-04-12T09:04:55Z</time></trkpt><trkpt lat="44.88007822447001" lon="9.923962978150827"><ele>130.0</ele><time>2026-04-12T09:04:56Z</time></trkpt><trkpt lat="44.88010858659988" lon="9.92404915644898"><ele>130.0</ele><time>2026-04-12T09:04:57Z</time></trkpt><trkpt lat="44.8801406418817" lon="9.924138556549776"><ele>130.0</ele><time>2026-04-12T09:04:58Z</time></trkpt><trkpt lat="44.880170802195394" lon="9.92422887718115"><ele>130.0</ele><time>2026-04-12T09:04:59Z</time></trkpt><trkpt lat="44.880202354324695" lon="9.924322502217379"><ele>130.00000000000003</ele><time>2026-04-12T09:05:00Z</time></trkpt><trkpt lat="44.880235901564944" lon="9.924415990469974"><ele>130.0</ele><time>2026-04-12T09:05:01Z</time></trkpt><trkpt lat="44.88027247641104" lon="9.924509059223743"><ele>129.66666666666669</ele><time>2026-04-12T09:05:02Z</time></trkpt><trkpt lat="44.88030990496014" lon="9.924599022374991"><ele>129.33333333333334</ele><time>2026-04-12T09:05:03Z</time></trkpt><trkpt lat="44.88034894213471" lon="9.924695495491276"><ele>129.0</ele><time>2026-04-12T09:05:04Z</time></trkpt><trkpt lat="44.88038234482716" lon="9.924796572852175"><ele>128.66666666666666</ele><time>2026-04-12T09:05:05Z</time></trkpt><trkpt lat="44.88041312943345" lon="9.924898863004682"><ele>128.33333333333331</ele><time>2026-04-12T09:05:06Z</time></trkpt><trkpt lat="44.88044531009684" lon="9.925006239586278"><ele>128.0</ele><time>2026-04-12T09:05:07Z</time></trkpt><trkpt lat="44.88047960977084" lon="9.925107738843163"><ele>127.83333333333333</ele><time>2026-04-12T09:05:08Z</time></trkpt><trkpt lat="44.88051943769415" lon="9.925212772739972"><ele>127.66666666666666</ele><time>2026-04-12T09:05:09Z</time></trkpt><trkpt lat="44.880557679201004" lon="9.92531556830776"><ele>127.5</ele><time>2026-04-12T09:05:10Z</time></trkpt><trkpt lat="44.88059590285184" lon="9.925424009851662"><ele>127.33333333333334</ele><time>2026-04-12T09:05:11Z</time></trkpt><trkpt lat="44.88063568171711" lon="9.925533302852998"><ele>127.16666666666667</ele><time>2026-04-12T09:05:12Z</time></trkpt><trkpt lat="44.88067255022296" lon="9.925640185492853"><ele>127.0</ele><time>2026-04-12T09:05:13Z</time></trkpt><trkpt lat="44.88071216217252" lon="9.925750118390363"><ele>127.00000000000001</ele><time>2026-04-12T09:05:14Z</time></trkpt><trkpt lat="44.88075240332656" lon="9.925863909831914"><ele>127.0</ele><time>2026-04-12T09:05:15Z</time></trkpt><trkpt lat="44.88079078027071" lon="9.925973450924579"><ele>127.0</ele><time>2026-04-12T09:05:16Z</time></trkpt><trkpt lat="44.88083176116048" lon="9.926086260206073"><ele>127.0</ele><time>2026-04-12T09:05:17Z</time></trkpt><trkpt lat="44.88087118206367" lon="9.926198993489468"><ele>127.00000000000001</ele><time>2026-04-12T09:05:18Z</time></trkpt><trkpt lat="44.8809082942492" lon="9.926313168427566"><ele>127.0</ele><time>2026-04-12T09:05:19Z</time></trkpt><trkpt lat="44.880945186411445" lon="9.926428038246968"><ele>126.66666666666667</ele><time>2026-04-12T09:05:20Z</time></trkpt><trkpt lat="44.88097691555349" lon="9.926542408719584"><ele>126.33333333333334</ele><time>2026-04-12T09:05:21Z</time></trkpt><trkpt lat="44.881004705803235" lon="9.926659514170796"><ele>126.0</ele><time>2026-04-12T09:05:22Z</time></trkpt><trkpt lat="44.881027750707325" lon="9.926779709891091"><ele>125.66666666666666</ele><time>2026-04-12T09:05:23Z</time></trkpt><trkpt lat="44.88105147716346" lon="9.926897023599855"><ele>125.33333333333333</ele><time>2026-04-12T09:05:24Z</time></trkpt><trkpt lat="44.8810731686413" lon="9.92701531068169"><ele>125.0</ele><time>2026-04-12T09:05:25Z</time></trkpt><trkpt lat="44.88109408091827" lon="9.927139046405165"><ele>124.66666666666666</ele><time>2026-04-12T09:05:26Z</time></trkpt><trkpt lat="44.881115143315704" lon="9.927258445605421"><ele>124.33333333333333</ele><time>2026-04-12T09:05:27Z</time></trkpt><trkpt lat="44.88113418764173" lon="9.927382550122298"><ele>124.0</ele><time>2026-04-12T09:05:28Z</time></trkpt><trkpt lat="44.88115206739062" lon="9.927507336404378"><ele>123.66666666666666</ele><time>2026-04-12T09:05:29Z</time></trkpt><trkpt lat="44.88117136678184" lon="9.92762965871135"><ele>123.33333333333333</ele><time>2026-04-12T09:05:30Z</time></trkpt><trkpt lat="44.88118957695292" lon="9.927754872720072"><ele>123.0</ele><time>2026-04-12T09:05:31Z</time></trkpt><trkpt lat="44.881209096956354" lon="9.927879518164668"><ele>122.4</ele><time>2026-04-12T09:05:32Z</time></trkpt><trkpt lat="44.881227283227595" lon="9.92800323960198"><ele>121.80000000000001</ele><time>2026-04-12T09:05:33Z</time></trkpt><trkpt lat="44.88124827921695" lon="9.928128962035554"><ele>121.2</ele><time>2026-04-12T09:05:34Z</time></trkpt><trkpt lat="44.8812707335108" lon="9.928252851199103"><ele>120.6</ele><time>2026-04-12T09:05:34.999Z</time></trkpt><trkpt lat="44.881293334369225" lon="9.928376994188373"><ele>120.0</ele><time>2026-04-12T09:05:35.999Z</time></trkpt><trkpt lat="44.881318101241334" lon="9.928503963055782"><ele>119.8</ele><time>2026-04-12T09:05:36.999Z</time></trkpt><trkpt lat="44.881336092360776" lon="9.928626974029395"><ele>119.6</ele><time>2026-04-12T09:05:37.999Z</time></trkpt><trkpt lat="44.88135104170908" lon="9.92875606905237"><ele>119.4</ele><time>2026-04-12T09:05:38.999Z</time></trkpt><trkpt lat="44.88136106754397" lon="9.928886224795072"><ele>119.2</ele><time>2026-04-12T09:05:39.999Z</time></trkpt><trkpt lat="44.8813678496543" lon="9.929016779233423"><ele>119.0</ele><time>2026-04-12T09:05:40.999Z</time></trkpt><trkpt lat="44.881372905443015" lon="9.929148379685646"><ele>118.80000000000001</ele><time>2026-04-12T09:05:41.999Z</time></trkpt><trkpt lat="44.88137997467011" lon="9.929279611454216"><ele>118.60000000000001</ele><time>2026-04-12T09:05:42.999Z</time></trkpt><trkpt lat="44.881388568323054" lon="9.929408147847774"><ele>118.4</ele><time>2026-04-12T09:05:43.999Z</time></trkpt><trkpt lat="44.8813947727375" lon="9.929541472993145"><ele>118.2</ele><time>2026-04-12T09:05:44.999Z</time></trkpt><trkpt lat="44.881399898115376" lon="9.929672759068602"><ele>118.0</ele><time>2026-04-12T09:05:45.999Z</time></trkpt><trkpt lat="44.88140595469915" lon="9.929805079362996"><ele>118.0</ele><time>2026-04-12T09:05:46.999Z</time></trkpt><trkpt lat="44.88141192545199" lon="9.929939047284806"><ele>118.00000000000001</ele><time>2026-04-12T09:05:47.999Z</time></trkpt><trkpt lat="44.881420378149784" lon="9.930076697534549"><ele>118.00000000000001</ele><time>2026-04-12T09:05:48.999Z</time></trkpt><trkpt lat="44.88143006480913" lon="9.930203070720536"><ele>118.0</ele><time>2026-04-12T09:05:49.999Z</time></trkpt><trkpt lat="44.88144000094205" lon="9.930341899355303"><ele>118.0</ele><time>2026-04-12T09:05:50.999Z</time></trkpt><trkpt lat="44.88145031498222" lon="9.930473386156446"><ele>118.2</ele><time>2026-04-12T09:05:51.999Z</time></trkpt><trkpt lat="44.88145660555875" lon="9.930609367227243"><ele>118.4</ele><time>2026-04-12T09:05:52.999Z</time></trkpt><trkpt lat="44.88146134685577" lon="9.930745003065283"><ele>118.60000000000001</ele><time>2026-04-12T09:05:53.999Z</time></trkpt><trkpt lat="44.881469747025186" lon="9.930879982945953"><ele>118.80000000000001</ele><time>2026-04-12T09:05:54.999Z</time></trkpt><trkpt lat="44.88147696078874" lon="9.931013481307247"><ele>119.0</ele><time>2026-04-12T09:05:55.999Z</time></trkpt><trkpt lat="44.881485228322276" lon="9.931144229284198"><ele>118.2</ele><time>2026-04-12T09:05:56.999Z</time></trkpt><trkpt lat="44.881494551300115" lon="9.931278597371245"><ele>117.4</ele><time>2026-04-12T09:05:57.999Z</time></trkpt><trkpt lat="44.881501673923445" lon="9.931414298065935"><ele>116.6</ele><time>2026-04-12T09:05:58.999Z</time></trkpt><trkpt lat="44.881512660140366" lon="9.931543733725492"><ele>115.8</ele><time>2026-04-12T09:05:59.999Z</time></trkpt><trkpt lat="44.881525148016046" lon="9.931681261412265"><ele>115.0</ele><time>2026-04-12T09:06:00.999Z</time></trkpt><trkpt lat="44.88154125048719" lon="9.931812615289953"><ele>115.0</ele><time>2026-04-12T09:06:01.999Z</time></trkpt><trkpt lat="44.881561917129346" lon="9.931947422378187"><ele>115.0</ele><time>2026-04-12T09:06:02.999Z</time></trkpt><trkpt lat="44.88158683776049" lon="9.932080236693588"><ele>115.0</ele><time>2026-04-12T09:06:03.999Z</time></trkpt><trkpt lat="44.881608802493986" lon="9.93220803356862"><ele>115.0</ele><time>2026-04-12T09:06:04.999Z</time></trkpt><trkpt lat="44.88163318938673" lon="9.93234165824981"><ele>115.0</ele><time>2026-04-12T09:06:05.999Z</time></trkpt><trkpt lat="44.88165690900559" lon="9.932472801499749"><ele>115.0</ele><time>2026-04-12T09:06:06.999Z</time></trkpt><trkpt lat="44.881682676546276" lon="9.932601785184882"><ele>115.0</ele><time>2026-04-12T09:06:07.999Z</time></trkpt><trkpt lat="44.88170832508556" lon="9.93273216775476"><ele>115.0</ele><time>2026-04-12T09:06:08.999Z</time></trkpt><trkpt lat="44.88173259580752" lon="9.93286353971368"><ele>115.0</ele><time>2026-04-12T09:06:09.999Z</time></trkpt><trkpt lat="44.88175605315607" lon="9.932995802600482"><ele>115.0</ele><time>2026-04-12T09:06:10.999Z</time></trkpt><trkpt lat="44.88178109093703" lon="9.933123924061828"><ele>115.2</ele><time>2026-04-12T09:06:11.999Z</time></trkpt><trkpt lat="44.881807007899624" lon="9.933250825630472"><ele>115.4</ele><time>2026-04-12T09:06:12.999Z</time></trkpt><trkpt lat="44.88183178356135" lon="9.933374665069756"><ele>115.6</ele><time>2026-04-12T09:06:13.999Z</time></trkpt><trkpt lat="44.881855459751726" lon="9.933502669193935"><ele>115.8</ele><time>2026-04-12T09:06:14.999Z</time></trkpt><trkpt lat="44.8818798703307" lon="9.93362884721772"><ele>116.0</ele><time>2026-04-12T09:06:15.999Z</time></trkpt><trkpt lat="44.88190486767908" lon="9.933755669793994"><ele>115.6</ele><time>2026-04-12T09:06:16.999Z</time></trkpt><trkpt lat="44.88192758118872" lon="9.933883912005214"><ele>115.19999999999999</ele><time>2026-04-12T09:06:17.999Z</time></trkpt><trkpt lat="44.88195102377403" lon="9.934011526421907"><ele>114.80000000000001</ele><time>2026-04-12T09:06:18.999Z</time></trkpt><trkpt lat="44.8819736111591" lon="9.934136473855776"><ele>114.4</ele><time>2026-04-12T09:06:19.999Z</time></trkpt><trkpt lat="44.88199483166453" lon="9.934265135826085"><ele>114.0</ele><time>2026-04-12T09:06:20.999Z</time></trkpt><trkpt lat="44.88201970058625" lon="9.934392233568046"><ele>113.80000000000001</ele><time>2026-04-12T09:06:21.999Z</time></trkpt><trkpt lat="44.882044394521216" lon="9.934518693166602"><ele>113.60000000000001</ele><time>2026-04-12T09:06:22.999Z</time></trkpt><trkpt lat="44.88206775823032" lon="9.934645858967917"><ele>113.4</ele><time>2026-04-12T09:06:23.999Z</time></trkpt><trkpt lat="44.882087796115364" lon="9.934773027160926"><ele>113.2</ele><time>2026-04-12T09:06:24.999Z</time></trkpt><trkpt lat="44.88211061272914" lon="9.934901307971346"><ele>113.0</ele><time>2026-04-12T09:06:25.999Z</time></trkpt><trkpt lat="44.882134806039154" lon="9.935029381015033"><ele>113.2</ele><time>2026-04-12T09:06:26.999Z</time></trkpt><trkpt lat="44.882160046511906" lon="9.935156331383242"><ele>113.4</ele><time>2026-04-12T09:06:27.998Z</time></trkpt><trkpt lat="44.88218442743001" lon="9.935281417941452"><ele>113.60000000000001</ele><time>2026-04-12T09:06:28.998Z</time></trkpt><trkpt lat="44.882208443025846" lon="9.935411601461924"><ele>113.80000000000001</ele><time>2026-04-12T09:06:29.998Z</time></trkpt><trkpt lat="44.88223162189637" lon="9.935539515948582"><ele>114.0</ele><time>2026-04-12T09:06:30.998Z</time></trkpt><trkpt lat="44.88225513840373" lon="9.935668392582324"><ele>114.0</ele><time>2026-04-12T09:06:31.998Z</time></trkpt><trkpt lat="44.88227993534016" lon="9.93579486554729"><ele>114.0</ele><time>2026-04-12T09:06:32.998Z</time></trkpt><trkpt lat="44.88230342165349" lon="9.935923386782731"><ele>114.0</ele><time>2026-04-12T09:06:33.998Z</time></trkpt><trkpt lat="44.88232390511911" lon="9.93605265616464"><ele>114.0</ele><time>2026-04-12T09:06:34.998Z</time></trkpt><trkpt lat="44.88234761409921" lon="9.936180541587335"><ele>114.0</ele><time>2026-04-12T09:06:35.998Z</time></trkpt><trkpt lat="44.88237198018882" lon="9.93630899426614"><ele>113.6</ele><time>2026-04-12T09:06:36.998Z</time></trkpt><trkpt lat="44.88239530203245" lon="9.936439935398008"><ele>113.2</ele><time>2026-04-12T09:06:37.998Z</time></trkpt><trkpt lat="44.88241926227689" lon="9.936567962824617"><ele>112.79999999999998</ele><time>2026-04-12T09:06:38.998Z</time></trkpt><trkpt lat="44.88244527580044" lon="9.93669628227928"><ele>112.39999999999999</ele><time>2026-04-12T09:06:39.998Z</time></trkpt><trkpt lat="44.88246838553888" lon="9.936825468223404"><ele>112.0</ele><time>2026-04-12T09:06:40.998Z</time></trkpt><trkpt lat="44.88249330008762" lon="9.936954449127814"><ele>111.6</ele><time>2026-04-12T09:06:41.998Z</time></trkpt><trkpt lat="44.88251887289395" lon="9.93708079809844"><ele>111.19999999999999</ele><time>2026-04-12T09:06:42.998Z</time></trkpt><trkpt lat="44.882545891860055" lon="9.93720781754335"><ele>110.8</ele><time>2026-04-12T09:06:43.998Z</time></trkpt><trkpt lat="44.88257347722211" lon="9.93733478690465"><ele>110.4</ele><time>2026-04-12T09:06:44.998Z</time></trkpt><trkpt lat="44.882608151568704" lon="9.937458783548367"><ele>110.0</ele><time>2026-04-12T09:06:46Z</time></trkpt><trkpt lat="44.88264557149941" lon="9.937582958771278"><ele>109.6</ele><time>2026-04-12T09:06:47Z</time></trkpt><trkpt lat="44.88268614889137" lon="9.937704073514428"><ele>109.2</ele><time>2026-04-12T09:06:48Z</time></trkpt><trkpt lat="44.8827287144969" lon="9.937827826866226"><ele>108.80000000000001</ele><time>2026-04-12T09:06:49Z</time></trkpt><trkpt lat="44.88277447349978" lon="9.937948148839864"><ele>108.4</ele><time>2026-04-12T09:06:50Z</time></trkpt><trkpt lat="44.882820519635075" lon="9.938070557802124"><ele>108.0</ele><time>2026-04-12T09:06:51Z</time></trkpt><trkpt lat="44.88286619668645" lon="9.938193750220792"><ele>108.0</ele><time>2026-04-12T09:06:52Z</time></trkpt><trkpt lat="44.882911593170356" lon="9.938317872005921"><ele>108.00000000000001</ele><time>2026-04-12T09:06:53Z</time></trkpt><trkpt lat="44.88295684282042" lon="9.938441154517294"><ele>108.00000000000001</ele><time>2026-04-12T09:06:54Z</time></trkpt><trkpt lat="44.88300330017694" lon="9.938566490689842"><ele>108.0</ele><time>2026-04-12T09:06:55Z</time></trkpt><trkpt lat="44.88304923091372" lon="9.938693689569252"><ele>108.0</ele><time>2026-04-12T09:06:56Z</time></trkpt><trkpt lat="44.883095264257705" lon="9.93882156016793"><ele>107.60000000000001</ele><time>2026-04-12T09:06:57Z</time></trkpt><trkpt lat="44.88314212127256" lon="9.938952429823056"><ele>107.20000000000002</ele><time>2026-04-12T09:06:58Z</time></trkpt><trkpt lat="44.883187577114626" lon="9.93908005373325"><ele>106.8</ele><time>2026-04-12T09:06:59Z</time></trkpt><trkpt lat="44.88323393392095" lon="9.939209483630142"><ele>106.4</ele><time>2026-04-12T09:07:00Z</time></trkpt><trkpt lat="44.88327906327681" lon="9.939338585856806"><ele>106.0</ele><time>2026-04-12T09:07:01Z</time></trkpt><trkpt lat="44.88332580914321" lon="9.939466696256869"><ele>106.0</ele><time>2026-04-12T09:07:02Z</time></trkpt><trkpt lat="44.88337152080807" lon="9.939592817946846"><ele>106.0</ele><time>2026-04-12T09:07:03Z</time></trkpt><trkpt lat="44.88341840328626" lon="9.93971766718266"><ele>106.0</ele><time>2026-04-12T09:07:04Z</time></trkpt><trkpt lat="44.88346365880888" lon="9.939845078816758"><ele>106.0</ele><time>2026-04-12T09:07:05Z</time></trkpt><trkpt lat="44.883509362243174" lon="9.939971343269661"><ele>106.0</ele><time>2026-04-12T09:07:06Z</time></trkpt><trkpt lat="44.883553522769645" lon="9.940095022623597"><ele>105.8</ele><time>2026-04-12T09:07:07Z</time></trkpt><trkpt lat="44.88359885541914" lon="9.940223329392891"><ele>105.6</ele><time>2026-04-12T09:07:08Z</time></trkpt><trkpt lat="44.883643799746814" lon="9.940347765720327"><ele>105.4</ele><time>2026-04-12T09:07:09Z</time></trkpt><trkpt lat="44.88368872812821" lon="9.940471756344742"><ele>105.2</ele><time>2026-04-12T09:07:10Z</time></trkpt><trkpt lat="44.883733804799284" lon="9.940597632773873"><ele>105.0</ele><time>2026-04-12T09:07:11Z</time></trkpt><trkpt lat="44.88377935935352" lon="9.940719037137578"><ele>105.0</ele><time>2026-04-12T09:07:12Z</time></trkpt><trkpt lat="44.88382203836345" lon="9.940843598332334"><ele>105.0</ele><time>2026-04-12T09:07:13Z</time></trkpt><trkpt lat="44.88385906432375" lon="9.94097199035663"><ele>105.0</ele><time>2026-04-12T09:07:14Z</time></trkpt><trkpt lat="44.883893875895936" lon="9.941098660870377"><ele>105.0</ele><time>2026-04-12T09:07:15Z</time></trkpt><trkpt lat="44.88392478401698" lon="9.941226327014906"><ele>105.0</ele><time>2026-04-12T09:07:16Z</time></trkpt><trkpt lat="44.88395358514619" lon="9.941357562353797"><ele>104.4</ele><time>2026-04-12T09:07:17Z</time></trkpt><trkpt lat="44.88397945664629" lon="9.941488974959341"><ele>103.8</ele><time>2026-04-12T09:07:18Z</time></trkpt><trkpt lat="44.88400529829749" lon="9.941620890405805"><ele>103.19999999999999</ele><time>2026-04-12T09:07:19Z</time></trkpt><trkpt lat="44.884030585375434" lon="9.941755954723424"><ele>102.6</ele><time>2026-04-12T09:07:20Z</time></trkpt><trkpt lat="44.88405453782031" lon="9.941889314827792"><ele>102.0</ele><time>2026-04-12T09:07:21Z</time></trkpt><trkpt lat="44.88407762710376" lon="9.942020454991976"><ele>101.8</ele><time>2026-04-12T09:07:22Z</time></trkpt><trkpt lat="44.88409885132513" lon="9.942151847487434"><ele>101.6</ele><time>2026-04-12T09:07:23Z</time></trkpt><trkpt lat="44.88412087364238" lon="9.94228453223979"><ele>101.39999999999999</ele><time>2026-04-12T09:07:24Z</time></trkpt><trkpt lat="44.88414232388889" lon="9.942419270416174"><ele>101.19999999999999</ele><time>2026-04-12T09:07:25Z</time></trkpt><trkpt lat="44.88416105523753" lon="9.942555271858215"><ele>101.0</ele><time>2026-04-12T09:07:26Z</time></trkpt><trkpt lat="44.88417803635184" lon="9.942687875952153"><ele>101.6</ele><time>2026-04-12T09:07:27Z</time></trkpt><trkpt lat="44.88419145893688" lon="9.942821171067559"><ele>102.19999999999999</ele><time>2026-04-12T09:07:28Z</time></trkpt><trkpt lat="44.88420274579696" lon="9.94295557678069"><ele>102.80000000000001</ele><time>2026-04-12T09:07:29Z</time></trkpt><trkpt lat="44.88421531405357" lon="9.94308787752885"><ele>103.4</ele><time>2026-04-12T09:07:30Z</time></trkpt><trkpt lat="44.884228594161804" lon="9.943220412554963"><ele>104.0</ele><time>2026-04-12T09:07:31Z</time></trkpt><trkpt lat="44.88424061026629" lon="9.94335402360535"><ele>104.4</ele><time>2026-04-12T09:07:32Z</time></trkpt><trkpt lat="44.8842526830991" lon="9.943491335076686"><ele>104.80000000000001</ele><time>2026-04-12T09:07:33Z</time></trkpt><trkpt lat="44.884264227853336" lon="9.943624233161206"><ele>105.19999999999999</ele><time>2026-04-12T09:07:34Z</time></trkpt><trkpt lat="44.88427634370796" lon="9.943757950766956"><ele>105.6</ele><time>2026-04-12T09:07:35Z</time></trkpt><trkpt lat="44.8842873679741" lon="9.943894647270742"><ele>106.0</ele><time>2026-04-12T09:07:36Z</time></trkpt><trkpt lat="44.884299327420294" lon="9.944031262251233"><ele>105.19999999999999</ele><time>2026-04-12T09:07:37Z</time></trkpt><trkpt lat="44.88431101168939" lon="9.944165374285816"><ele>104.39999999999999</ele><time>2026-04-12T09:07:37.999Z</time></trkpt><trkpt lat="44.8843208140701" lon="9.944299773315922"><ele>103.6</ele><time>2026-04-12T09:07:38.999Z</time></trkpt><trkpt lat="44.884332579834016" lon="9.94443423437342"><ele>102.8</ele><time>2026-04-12T09:07:39.999Z</time></trkpt><trkpt lat="44.884342727693515" lon="9.944572162012324"><ele>102.0</ele><time>2026-04-12T09:07:40.999Z</time></trkpt><trkpt lat="44.88435612076511" lon="9.944708718680944"><ele>101.8</ele><time>2026-04-12T09:07:41.999Z</time></trkpt><trkpt lat="44.88437123070021" lon="9.944843007424202"><ele>101.6</ele><time>2026-04-12T09:07:42.999Z</time></trkpt><trkpt lat="44.88438439451705" lon="9.944980318392647"><ele>101.39999999999999</ele><time>2026-04-12T09:07:43.999Z</time></trkpt><trkpt lat="44.884397668612806" lon="9.94511763741355"><ele>101.19999999999999</ele><time>2026-04-12T09:07:44.999Z</time></trkpt><trkpt lat="44.88441103105614" lon="9.945253504474755"><ele>101.0</ele><time>2026-04-12T09:07:45.999Z</time></trkpt><trkpt lat="44.88442646992426" lon="9.94539164067861"><ele>100.19999999999999</ele><time>2026-04-12T09:07:46.999Z</time></trkpt><trkpt lat="44.884444986792325" lon="9.945527693994359"><ele>99.39999999999999</ele><time>2026-04-12T09:07:47.999Z</time></trkpt><trkpt lat="44.884466816619835" lon="9.945661838828135"><ele>98.6</ele><time>2026-04-12T09:07:48.999Z</time></trkpt><trkpt lat="44.884491403802755" lon="9.945798370203832"><ele>97.8</ele><time>2026-04-12T09:07:49.999Z</time></trkpt><trkpt lat="44.88451911270232" lon="9.945932850781798"><ele>97.0</ele><time>2026-04-12T09:07:50.999Z</time></trkpt><trkpt lat="44.88454552257578" lon="9.9460638926797"><ele>97.0</ele><time>2026-04-12T09:07:51.999Z</time></trkpt><trkpt lat="44.88457145776269" lon="9.946198213751542"><ele>97.0</ele><time>2026-04-12T09:07:52.999Z</time></trkpt><trkpt lat="44.884599140553604" lon="9.946331213593837"><ele>97.0</ele><time>2026-04-12T09:07:53.999Z</time></trkpt><trkpt lat="44.884627057931695" lon="9.946462697107316"><ele>97.0</ele><time>2026-04-12T09:07:54.999Z</time></trkpt><trkpt lat="44.88465792579072" lon="9.946594224924981"><ele>97.0</ele><time>2026-04-12T09:07:55.999Z</time></trkpt><trkpt lat="44.88468999090231" lon="9.9467244750255"><ele>97.0</ele><time>2026-04-12T09:07:56.999Z</time></trkpt><trkpt lat="44.88472573017789" lon="9.946851268641197"><ele>97.0</ele><time>2026-04-12T09:07:57.999Z</time></trkpt><trkpt lat="44.88476586148114" lon="9.946977207672344"><ele>97.0</ele><time>2026-04-12T09:07:58.999Z</time></trkpt><trkpt lat="44.884808665231255" lon="9.947103275525794"><ele>97.0</ele><time>2026-04-12T09:07:59.999Z</time></trkpt><trkpt lat="44.88485267236148" lon="9.947229213372538"><ele>97.0</ele><time>2026-04-12T09:08:00.999Z</time></trkpt><trkpt lat="44.88489585062418" lon="9.947353677940242"><ele>97.0</ele><time>2026-04-12T09:08:01.999Z</time></trkpt><trkpt lat="44.88493798886254" lon="9.947479546593184"><ele>97.0</ele><time>2026-04-12T09:08:02.999Z</time></trkpt><trkpt lat="44.88498173250021" lon="9.947605468240422"><ele>97.0</ele><time>2026-04-12T09:08:03.999Z</time></trkpt><trkpt lat="44.88502515038841" lon="9.947729122535472"><ele>97.0</ele><time>2026-04-12T09:08:04.999Z</time></trkpt><trkpt lat="44.88506932402744" lon="9.94784934908507"><ele>97.0</ele><time>2026-04-12T09:08:05.999Z</time></trkpt><trkpt lat="44.88511260091891" lon="9.947971583290784"><ele>96.8</ele><time>2026-04-12T09:08:06.999Z</time></trkpt><trkpt lat="44.88515613490005" lon="9.948091876642405"><ele>96.6</ele><time>2026-04-12T09:08:07.999Z</time></trkpt><trkpt lat="44.88519923256362" lon="9.948212057662793"><ele>96.39999999999999</ele><time>2026-04-12T09:08:08.999Z</time></trkpt><trkpt lat="44.88524253431311" lon="9.94833700012278"><ele>96.19999999999999</ele><time>2026-04-12T09:08:09.999Z</time></trkpt><trkpt lat="44.88528520662135" lon="9.948461491701288"><ele>96.0</ele><time>2026-04-12T09:08:10.999Z</time></trkpt><trkpt lat="44.88532896386044" lon="9.948584758989053"><ele>95.8</ele><time>2026-04-12T09:08:11.999Z</time></trkpt><trkpt lat="44.885370505545254" lon="9.948708516917113"><ele>95.6</ele><time>2026-04-12T09:08:12.999Z</time></trkpt><trkpt lat="44.885414571214994" lon="9.948830465780484"><ele>95.4</ele><time>2026-04-12T09:08:13.999Z</time></trkpt><trkpt lat="44.88545687285732" lon="9.948955164620742"><ele>95.2</ele><time>2026-04-12T09:08:14.999Z</time></trkpt><trkpt lat="44.88549890403634" lon="9.949078555750335"><ele>95.0</ele><time>2026-04-12T09:08:15.999Z</time></trkpt><trkpt lat="44.88554224303475" lon="9.949199394461564"><ele>94.6</ele><time>2026-04-12T09:08:16.999Z</time></trkpt><trkpt lat="44.8855854813518" lon="9.94932052981751"><ele>94.2</ele><time>2026-04-12T09:08:17.999Z</time></trkpt><trkpt lat="44.88563041828347" lon="9.94944064760268"><ele>93.80000000000001</ele><time>2026-04-12T09:08:18.999Z</time></trkpt><trkpt lat="44.88567334631252" lon="9.94956203237769"><ele>93.4</ele><time>2026-04-12T09:08:19.999Z</time></trkpt><trkpt lat="44.88571510227164" lon="9.949682935839814"><ele>93.0</ele><time>2026-04-12T09:08:20.999Z</time></trkpt><trkpt lat="44.88575789934796" lon="9.949802536170017"><ele>93.0</ele><time>2026-04-12T09:08:21.999Z</time></trkpt><trkpt lat="44.885801139692646" lon="9.949923839703098"><ele>93.0</ele><time>2026-04-12T09:08:22.999Z</time></trkpt><trkpt lat="44.88584351264911" lon="9.950042280851976"><ele>93.0</ele><time>2026-04-12T09:08:23.999Z</time></trkpt><trkpt lat="44.88588531628487" lon="9.950163229308243"><ele>93.0</ele><time>2026-04-12T09:08:24.999Z</time></trkpt><trkpt lat="44.88592752153714" lon="9.950285698711996"><ele>93.0</ele><time>2026-04-12T09:08:25.999Z</time></trkpt><trkpt lat="44.88597095476744" lon="9.950403402351773"><ele>93.0</ele><time>2026-04-12T09:08:26.999Z</time></trkpt><trkpt lat="44.886012800763275" lon="9.95052406910244"><ele>93.0</ele><time>2026-04-12T09:08:27.999Z</time></trkpt><trkpt lat="44.88605500736238" lon="9.950642381002128"><ele>93.0</ele><time>2026-04-12T09:08:28.999Z</time></trkpt><trkpt lat="44.886096953864936" lon="9.950761668837268"><ele>93.0</ele><time>2026-04-12T09:08:29.999Z</time></trkpt><trkpt lat="44.88613871469925" lon="9.950879090622436"><ele>93.0</ele><time>2026-04-12T09:08:30.998Z</time></trkpt><trkpt lat="44.8861807683003" lon="9.950997156061616"><ele>93.0</ele><time>2026-04-12T09:08:31.998Z</time></trkpt><trkpt lat="44.88621824372462" lon="9.951117098773599"><ele>93.0</ele><time>2026-04-12T09:08:32.998Z</time></trkpt><trkpt lat="44.88624881257549" lon="9.951245688146617"><ele>93.0</ele><time>2026-04-12T09:08:33.998Z</time></trkpt><trkpt lat="44.8862745988367" lon="9.95137425941297"><ele>93.0</ele><time>2026-04-12T09:08:34.998Z</time></trkpt><trkpt lat="44.88629510634537" lon="9.95150412254872"><ele>93.0</ele><time>2026-04-12T09:08:35.998Z</time></trkpt><trkpt lat="44.88631209202512" lon="9.95163450804162"><ele>92.2</ele><time>2026-04-12T09:08:36.998Z</time></trkpt><trkpt lat="44.886327021790095" lon="9.95176668517352"><ele>91.4</ele><time>2026-04-12T09:08:37.998Z</time></trkpt><trkpt lat="44.88634036122187" lon="9.951895043866806"><ele>90.60000000000001</ele><time>2026-04-12T09:08:38.998Z</time></trkpt><trkpt lat="44.88635416809104" lon="9.952027459625377"><ele>89.80000000000001</ele><time>2026-04-12T09:08:39.998Z</time></trkpt><trkpt lat="44.886369776924944" lon="9.952155545224375"><ele>89.0</ele><time>2026-04-12T09:08:40.998Z</time></trkpt><trkpt lat="44.88638108035787" lon="9.952286977313562"><ele>89.0</ele><time>2026-04-12T09:08:41.998Z</time></trkpt><trkpt lat="44.8863922826303" lon="9.952413369999404"><ele>89.0</ele><time>2026-04-12T09:08:42.998Z</time></trkpt><trkpt lat="44.88640459880256" lon="9.952540061835151"><ele>89.0</ele><time>2026-04-12T09:08:43.998Z</time></trkpt><trkpt lat="44.88641661601779" lon="9.952669980253358"><ele>89.0</ele><time>2026-04-12T09:08:44.998Z</time></trkpt><trkpt lat="44.88642902864175" lon="9.952792567260216"><ele>89.0</ele><time>2026-04-12T09:08:45.998Z</time></trkpt><trkpt lat="44.886438526719736" lon="9.952920251854078"><ele>88.83333333333334</ele><time>2026-04-12T09:08:46.998Z</time></trkpt><trkpt lat="44.88644952648721" lon="9.953044448903656"><ele>88.66666666666667</ele><time>2026-04-12T09:08:47.998Z</time></trkpt><trkpt lat="44.886459771094216" lon="9.953166923888082"><ele>88.5</ele><time>2026-04-12T09:08:48.998Z</time></trkpt><trkpt lat="44.88647079418947" lon="9.953288447056707"><ele>88.33333333333333</ele><time>2026-04-12T09:08:49.998Z</time></trkpt><trkpt lat="44.88648265149246" lon="9.953408485907328"><ele>88.16666666666666</ele><time>2026-04-12T09:08:50.998Z</time></trkpt><trkpt lat="44.88649321276088" lon="9.953523573609994"><ele>88.0</ele><time>2026-04-12T09:08:52Z</time></trkpt><trkpt lat="44.88650220381334" lon="9.953636138158924"><ele>88.16666666666666</ele><time>2026-04-12T09:08:53Z</time></trkpt><trkpt lat="44.88651058692034" lon="9.953746737305853"><ele>88.33333333333333</ele><time>2026-04-12T09:08:54Z</time></trkpt><trkpt lat="44.88651637374058" lon="9.953859400392775"><ele>88.5</ele><time>2026-04-12T09:08:55Z</time></trkpt><trkpt lat="44.88652597129411" lon="9.95397348336178"><ele>88.66666666666667</ele><time>2026-04-12T09:08:56Z</time></trkpt><trkpt lat="44.88651068574695" lon="9.954078137469118"><ele>88.83333333333334</ele><time>2026-04-12T09:08:57Z</time></trkpt><trkpt lat="44.886505006803986" lon="9.95417826679467"><ele>89.0</ele><time>2026-04-12T09:08:58Z</time></trkpt><trkpt lat="44.8866146473989" lon="9.954285455042216"><ele>89.0</ele><time>2026-04-12T09:08:59Z</time></trkpt><trkpt lat="44.88666579443784" lon="9.954372392252669"><ele>89.0</ele><time>2026-04-12T09:09:00Z</time></trkpt><trkpt lat="44.886718910273125" lon="9.954456541874753"><ele>89.0</ele><time>2026-04-12T09:09:01Z</time></trkpt><trkpt lat="44.88677709829281" lon="9.954541370857763"><ele>89.0</ele><time>2026-04-12T09:09:02Z</time></trkpt><trkpt lat="44.88683702329313" lon="9.954623273485277"><ele>89.0</ele><time>2026-04-12T09:09:03Z</time></trkpt><trkpt lat="44.88689562826123" lon="9.954710015510361"><ele>89.0</ele><time>2026-04-12T09:09:04Z</time></trkpt><trkpt lat="44.886953152496055" lon="9.954797868662208"><ele>89.0</ele><time>2026-04-12T09:09:05Z</time></trkpt><trkpt lat="44.88701534257008" lon="9.954880563438989"><ele>89.0</ele><time>2026-04-12T09:09:06Z</time></trkpt><trkpt lat="44.88707711989523" lon="9.954964469693476"><ele>89.0</ele><time>2026-04-12T09:09:07Z</time></trkpt><trkpt lat="44.88714017754139" lon="9.955045641668262"><ele>89.0</ele><time>2026-04-12T09:09:08Z</time></trkpt><trkpt lat="44.88720323491033" lon="9.955129712601005"><ele>89.0</ele><time>2026-04-12T09:09:09Z</time></trkpt><trkpt lat="44.88726715217075" lon="9.955214124154317"><ele>89.0</ele><time>2026-04-12T09:09:10Z</time></trkpt><trkpt lat="44.88733299876021" lon="9.95529670205177"><ele>88.83333333333334</ele><time>2026-04-12T09:09:11Z</time></trkpt><trkpt lat="44.88740217795916" lon="9.955377366271877"><ele>88.66666666666667</ele><time>2026-04-12T09:09:12Z</time></trkpt><trkpt lat="44.8874717693826" lon="9.955458019535744"><ele>88.5</ele><time>2026-04-12T09:09:13Z</time></trkpt><trkpt lat="44.887542407859364" lon="9.955536641136764"><ele>88.33333333333333</ele><time>2026-04-12T09:09:14Z</time></trkpt><trkpt lat="44.88761466947017" lon="9.955612893659213"><ele>88.16666666666666</ele><time>2026-04-12T09:09:15Z</time></trkpt><trkpt lat="44.88768802147173" lon="9.955683124829385"><ele>88.0</ele><time>2026-04-12T09:09:16Z</time></trkpt><trkpt lat="44.887765717589964" lon="9.955750818583494"><ele>87.80000000000001</ele><time>2026-04-12T09:09:17Z</time></trkpt><trkpt lat="44.88784482855083" lon="9.9558118476729"><ele>87.6</ele><time>2026-04-12T09:09:18Z</time></trkpt><trkpt lat="44.887925469913924" lon="9.95586872331377"><ele>87.4</ele><time>2026-04-12T09:09:19Z</time></trkpt><trkpt lat="44.888009811206956" lon="9.955920146840707"><ele>87.19999999999999</ele><time>2026-04-12T09:09:20Z</time></trkpt><trkpt lat="44.88809404572691" lon="9.955971605572557"><ele>87.0</ele><time>2026-04-12T09:09:21Z</time></trkpt><trkpt lat="44.88817884141805" lon="9.956020651682893"><ele>87.0</ele><time>2026-04-12T09:09:22Z</time></trkpt><trkpt lat="44.8882621353984" lon="9.956071037268304"><ele>87.0</ele><time>2026-04-12T09:09:23Z</time></trkpt><trkpt lat="44.88834460600582" lon="9.956123335782648"><ele>87.0</ele><time>2026-04-12T09:09:24Z</time></trkpt><trkpt lat="44.88842830650476" lon="9.956172229745894"><ele>87.0</ele><time>2026-04-12T09:09:25Z</time></trkpt><trkpt lat="44.88851024536325" lon="9.956220613526959"><ele>87.0</ele><time>2026-04-12T09:09:26Z</time></trkpt><trkpt lat="44.88859306899229" lon="9.956275593195482"><ele>87.0</ele><time>2026-04-12T09:09:27Z</time></trkpt><trkpt lat="44.8886740944472" lon="9.956327567441813"><ele>87.0</ele><time>2026-04-12T09:09:28Z</time></trkpt><trkpt lat="44.88875511291092" lon="9.95638505295799"><ele>87.0</ele><time>2026-04-12T09:09:29Z</time></trkpt><trkpt lat="44.8888351942743" lon="9.956445022263422"><ele>87.0</ele><time>2026-04-12T09:09:30Z</time></trkpt><trkpt lat="44.88891393152861" lon="9.95650493788363"><ele>87.0</ele><time>2026-04-12T09:09:31Z</time></trkpt><trkpt lat="44.88899118850597" lon="9.956571398007046"><ele>87.0</ele><time>2026-04-12T09:09:32Z</time></trkpt><trkpt lat="44.88906542269891" lon="9.956642102793408"><ele>87.0</ele><time>2026-04-12T09:09:33Z</time></trkpt><trkpt lat="44.889135524989435" lon="9.956716409172609"><ele>87.0</ele><time>2026-04-12T09:09:34Z</time></trkpt><trkpt lat="44.88920554063946" lon="9.956796649950173"><ele>87.0</ele><time>2026-04-12T09:09:35Z</time></trkpt><trkpt lat="44.88926949250471" lon="9.95688411002633"><ele>87.0</ele><time>2026-04-12T09:09:36Z</time></trkpt><trkpt lat="44.88932978753943" lon="9.956976006017818"><ele>87.0</ele><time>2026-04-12T09:09:37Z</time></trkpt><trkpt lat="44.88938520949196" lon="9.957071647929467"><ele>87.0</ele><time>2026-04-12T09:09:38Z</time></trkpt><trkpt lat="44.88943556399897" lon="9.957174111281"><ele>87.0</ele><time>2026-04-12T09:09:39Z</time></trkpt><trkpt lat="44.889483828305266" lon="9.957274293196523"><ele>87.0</ele><time>2026-04-12T09:09:40Z</time></trkpt><trkpt lat="44.88952905921584" lon="9.957380782664927"><ele>87.0</ele><time>2026-04-12T09:09:41Z</time></trkpt><trkpt lat="44.88957296434964" lon="9.957484514970135"><ele>87.0</ele><time>2026-04-12T09:09:42Z</time></trkpt><trkpt lat="44.88961643579424" lon="9.957589760792667"><ele>87.0</ele><time>2026-04-12T09:09:42.999Z</time></trkpt><trkpt lat="44.88965900922965" lon="9.957695082440958"><ele>87.16666666666667</ele><time>2026-04-12T09:09:43.999Z</time></trkpt><trkpt lat="44.88970372692241" lon="9.957796798298308"><ele>87.33333333333333</ele><time>2026-04-12T09:09:44.999Z</time></trkpt><trkpt lat="44.88975234564424" lon="9.957896709420371"><ele>87.5</ele><time>2026-04-12T09:09:45.999Z</time></trkpt><trkpt lat="44.88980228472936" lon="9.957994122927001"><ele>87.66666666666666</ele><time>2026-04-12T09:09:46.999Z</time></trkpt><trkpt lat="44.88985704232282" lon="9.958090128095352"><ele>87.83333333333333</ele><time>2026-04-12T09:09:47.999Z</time></trkpt><trkpt lat="44.88991538502705" lon="9.95818120621468"><ele>88.0</ele><time>2026-04-12T09:09:48.999Z</time></trkpt><trkpt lat="44.88997119289374" lon="9.958273005162608"><ele>88.0</ele><time>2026-04-12T09:09:49.999Z</time></trkpt><trkpt lat="44.89002906666867" lon="9.958361718892883"><ele>88.0</ele><time>2026-04-12T09:09:50.999Z</time></trkpt><trkpt lat="44.8900852075225" lon="9.958455576950703"><ele>88.0</ele><time>2026-04-12T09:09:51.999Z</time></trkpt><trkpt lat="44.89014398869384" lon="9.958546559014483"><ele>88.0</ele><time>2026-04-12T09:09:52.999Z</time></trkpt><trkpt lat="44.89020113081131" lon="9.95863563772718"><ele>88.0</ele><time>2026-04-12T09:09:53.999Z</time></trkpt><trkpt lat="44.890261629674995" lon="9.958727513223106"><ele>88.0</ele><time>2026-04-12T09:09:54.999Z</time></trkpt><trkpt lat="44.89032003182381" lon="9.95881791124612"><ele>87.5</ele><time>2026-04-12T09:09:55.999Z</time></trkpt><trkpt lat="44.8903788866021" lon="9.958911114203884"><ele>87.0</ele><time>2026-04-12T09:09:56.999Z</time></trkpt><trkpt lat="44.89043779619796" lon="9.959003911631164"><ele>86.5</ele><time>2026-04-12T09:09:57.999Z</time></trkpt><trkpt lat="44.89049812716263" lon="9.95909772743048"><ele>86.0</ele><time>2026-04-12T09:09:58.999Z</time></trkpt><trkpt lat="44.890558315158266" lon="9.959190824309227"><ele>85.5</ele><time>2026-04-12T09:09:59.999Z</time></trkpt><trkpt lat="44.890617629115795" lon="9.959283994382455"><ele>85.0</ele><time>2026-04-12T09:10:00.999Z</time></trkpt><trkpt lat="44.89067570314605" lon="9.959379313896285"><ele>84.83333333333333</ele><time>2026-04-12T09:10:01.999Z</time></trkpt><trkpt lat="44.89073482615927" lon="9.959472268200436"><ele>84.66666666666666</ele><time>2026-04-12T09:10:02.999Z</time></trkpt><trkpt lat="44.89079575832587" lon="9.95956584318131"><ele>84.5</ele><time>2026-04-12T09:10:03.999Z</time></trkpt><trkpt lat="44.890855211263016" lon="9.959658773828707"><ele>84.33333333333333</ele><time>2026-04-12T09:10:04.999Z</time></trkpt><trkpt lat="44.890914386455826" lon="9.95975429662536"><ele>84.16666666666667</ele><time>2026-04-12T09:10:05.999Z</time></trkpt><trkpt lat="44.89097342799962" lon="9.959848488412893"><ele>84.0</ele><time>2026-04-12T09:10:06.999Z</time></trkpt><trkpt lat="44.89103277890324" lon="9.959943449314242"><ele>84.0</ele><time>2026-04-12T09:10:07.999Z</time></trkpt><trkpt lat="44.891092068736754" lon="9.960036021474453"><ele>84.0</ele><time>2026-04-12T09:10:08.999Z</time></trkpt><trkpt lat="44.89115173498287" lon="9.960130979502498"><ele>84.0</ele><time>2026-04-12T09:10:09.999Z</time></trkpt><trkpt lat="44.891211085841995" lon="9.960223425422724"><ele>84.0</ele><time>2026-04-12T09:10:10.999Z</time></trkpt><trkpt lat="44.89127081406611" lon="9.960315409925993"><ele>84.0</ele><time>2026-04-12T09:10:11.999Z</time></trkpt><trkpt lat="44.89133095586408" lon="9.960408381665445"><ele>84.0</ele><time>2026-04-12T09:10:12.999Z</time></trkpt><trkpt lat="44.89139045411629" lon="9.960500828621687"><ele>84.0</ele><time>2026-04-12T09:10:13.999Z</time></trkpt><trkpt lat="44.891449749016246" lon="9.960592780434968"><ele>84.0</ele><time>2026-04-12T09:10:14.999Z</time></trkpt><trkpt lat="44.89150706654349" lon="9.960685682025932"><ele>84.0</ele><time>2026-04-12T09:10:15.999Z</time></trkpt><trkpt lat="44.891566497485265" lon="9.9607800274462"><ele>84.0</ele><time>2026-04-12T09:10:16.999Z</time></trkpt><trkpt lat="44.891625536498886" lon="9.960872389617881"><ele>84.0</ele><time>2026-04-12T09:10:17.999Z</time></trkpt><trkpt lat="44.89168638665408" lon="9.960966459380366"><ele>84.0</ele><time>2026-04-12T09:10:18.999Z</time></trkpt><trkpt lat="44.89174477119271" lon="9.961060468408855"><ele>83.83333333333333</ele><time>2026-04-12T09:10:19.999Z</time></trkpt><trkpt lat="44.89180522671085" lon="9.961152852053772"><ele>83.66666666666667</ele><time>2026-04-12T09:10:20.999Z</time></trkpt><trkpt lat="44.89186372872045" lon="9.961247758897438"><ele>83.5</ele><time>2026-04-12T09:10:21.999Z</time></trkpt><trkpt lat="44.891922101705525" lon="9.961341983131787"><ele>83.33333333333334</ele><time>2026-04-12T09:10:22.999Z</time></trkpt><trkpt lat="44.891981648644915" lon="9.961438312640288"><ele>83.16666666666667</ele><time>2026-04-12T09:10:23.999Z</time></trkpt><trkpt lat="44.892042479932094" lon="9.961529073891441"><ele>83.0</ele><time>2026-04-12T09:10:24.999Z</time></trkpt><trkpt lat="44.89210505526451" lon="9.961622856064754"><ele>83.0</ele><time>2026-04-12T09:10:25.999Z</time></trkpt><trkpt lat="44.89216561673022" lon="9.961718554710401"><ele>83.0</ele><time>2026-04-12T09:10:26.999Z</time></trkpt><trkpt lat="44.89222660028225" lon="9.96181107868852"><ele>83.0</ele><time>2026-04-12T09:10:27.999Z</time></trkpt><trkpt lat="44.89228689091853" lon="9.96190863752402"><ele>83.0</ele><time>2026-04-12T09:10:28.999Z</time></trkpt><trkpt lat="44.892348197962846" lon="9.96200305255566"><ele>83.0</ele><time>2026-04-12T09:10:29.999Z</time></trkpt><trkpt lat="44.892407225753956" lon="9.96209712184837"><ele>83.0</ele><time>2026-04-12T09:10:30.999Z</time></trkpt><trkpt lat="44.89246722438406" lon="9.962191682083052"><ele>83.0</ele><time>2026-04-12T09:10:31.999Z</time></trkpt><trkpt lat="44.8925275251126" lon="9.962286580248632"><ele>83.0</ele><time>2026-04-12T09:10:32.999Z</time></trkpt><trkpt lat="44.89258858398357" lon="9.962379375471242"><ele>83.0</ele><time>2026-04-12T09:10:33.999Z</time></trkpt><trkpt lat="44.89264904045429" lon="9.962472469414715"><ele>83.0</ele><time>2026-04-12T09:10:34.999Z</time></trkpt><trkpt lat="44.89270918291851" lon="9.962567844937169"><ele>82.66666666666667</ele><time>2026-04-12T09:10:35.998Z</time></trkpt><trkpt lat="44.89276842258958" lon="9.962661987110645"><ele>82.33333333333334</ele><time>2026-04-12T09:10:36.998Z</time></trkpt><trkpt lat="44.89282768954101" lon="9.962757368875492"><ele>82.0</ele><time>2026-04-12T09:10:37.998Z</time></trkpt><trkpt lat="44.89288580429725" lon="9.962851564415274"><ele>81.66666666666667</ele><time>2026-04-12T09:10:38.998Z</time></trkpt><trkpt lat="44.892944610327696" lon="9.962943967286549"><ele>81.33333333333333</ele><time>2026-04-12T09:10:39.998Z</time></trkpt><trkpt lat="44.89300379327439" lon="9.963039156759178"><ele>81.0</ele><time>2026-04-12T09:10:40.998Z</time></trkpt><trkpt lat="44.89306380592887" lon="9.963129720285863"><ele>81.0</ele><time>2026-04-12T09:10:41.998Z</time></trkpt><trkpt lat="44.89312309737399" lon="9.963221049211143"><ele>81.0</ele><time>2026-04-12T09:10:42.998Z</time></trkpt><trkpt lat="44.89318333548863" lon="9.963310573744138"><ele>81.0</ele><time>2026-04-12T09:10:43.998Z</time></trkpt><trkpt lat="44.89324297004558" lon="9.963401488241876"><ele>81.0</ele><time>2026-04-12T09:10:44.998Z</time></trkpt><trkpt lat="44.893302229406835" lon="9.963492900471982"><ele>81.0</ele><time>2026-04-12T09:10:45.998Z</time></trkpt><trkpt lat="44.89335969832126" lon="9.963585722042554"><ele>81.0</ele><time>2026-04-12T09:10:46.998Z</time></trkpt><trkpt lat="44.893417030714026" lon="9.963677310387684"><ele>81.33333333333333</ele><time>2026-04-12T09:10:47.998Z</time></trkpt><trkpt lat="44.89347634044613" lon="9.963769972629313"><ele>81.66666666666667</ele><time>2026-04-12T09:10:48.998Z</time></trkpt><trkpt lat="44.8935337933572" lon="9.963864905451219"><ele>82.0</ele><time>2026-04-12T09:10:49.998Z</time></trkpt><trkpt lat="44.893589500464714" lon="9.963961937352654"><ele>82.33333333333334</ele><time>2026-04-12T09:10:50.998Z</time></trkpt><trkpt lat="44.89364470129996" lon="9.96406289277509"><ele>82.66666666666667</ele><time>2026-04-12T09:10:51.998Z</time></trkpt><trkpt lat="44.893694631873984" lon="9.964166377944995"><ele>83.0</ele><time>2026-04-12T09:10:52.998Z</time></trkpt><trkpt lat="44.89374692824614" lon="9.964268786744176"><ele>83.0</ele><time>2026-04-12T09:10:53.998Z</time></trkpt><trkpt lat="44.8937976464646" lon="9.964372229859618"><ele>83.0</ele><time>2026-04-12T09:10:54.998Z</time></trkpt><trkpt lat="44.89384912771397" lon="9.96447286265687"><ele>83.0</ele><time>2026-04-12T09:10:55.998Z</time></trkpt><trkpt lat="44.89389964845257" lon="9.964573890543875"><ele>83.0</ele><time>2026-04-12T09:10:57Z</time></trkpt><trkpt lat="44.89394597360353" lon="9.964677388854046"><ele>83.0</ele><time>2026-04-12T09:10:58Z</time></trkpt><trkpt lat="44.8939939429248" lon="9.964778774140811"><ele>83.0</ele><time>2026-04-12T09:10:59Z</time></trkpt><trkpt lat="44.89404077382814" lon="9.964881661686574"><ele>83.0</ele><time>2026-04-12T09:11:00Z</time></trkpt><trkpt lat="44.89408854774175" lon="9.964981883438638"><ele>83.0</ele><time>2026-04-12T09:11:01Z</time></trkpt><trkpt lat="44.89413374887638" lon="9.965083749433417"><ele>83.0</ele><time>2026-04-12T09:11:02Z</time></trkpt><trkpt lat="44.89418197467045" lon="9.96518479591031"><ele>83.0</ele><time>2026-04-12T09:11:03Z</time></trkpt><trkpt lat="44.89423016408492" lon="9.96528867059734"><ele>83.0</ele><time>2026-04-12T09:11:04Z</time></trkpt><trkpt lat="44.89428058153528" lon="9.965391197676318"><ele>83.0</ele><time>2026-04-12T09:11:05Z</time></trkpt><trkpt lat="44.8943225603137" lon="9.96549687447083"><ele>82.66666666666667</ele><time>2026-04-12T09:11:06Z</time></trkpt><trkpt lat="44.894365361276584" lon="9.965602755460713"><ele>82.33333333333334</ele><time>2026-04-12T09:11:07Z</time></trkpt><trkpt lat="44.89441027700061" lon="9.965705159439223"><ele>82.0</ele><time>2026-04-12T09:11:08Z</time></trkpt><trkpt lat="44.894452280362856" lon="9.965806935787244"><ele>81.66666666666667</ele><time>2026-04-12T09:11:09Z</time></trkpt><trkpt lat="44.89449497336447" lon="9.965903742213277"><ele>81.33333333333333</ele><time>2026-04-12T09:11:10Z</time></trkpt><trkpt lat="44.894535955194065" lon="9.96599817898308"><ele>81.0</ele><time>2026-04-12T09:11:11Z</time></trkpt><trkpt lat="44.89457330421937" lon="9.966095388678536"><ele>80.66666666666667</ele><time>2026-04-12T09:11:12Z</time></trkpt><trkpt lat="44.89461274125242" lon="9.966191292301952"><ele>80.33333333333333</ele><time>2026-04-12T09:11:13Z</time></trkpt><trkpt lat="44.89465551848209" lon="9.966276240192888"><ele>80.0</ele><time>2026-04-12T09:11:14Z</time></trkpt><trkpt lat="44.89470332236501" lon="9.966370206032336"><ele>79.66666666666666</ele><time>2026-04-12T09:11:15Z</time></trkpt><trkpt lat="44.8947544326781" lon="9.966462248743872"><ele>79.33333333333333</ele><time>2026-04-12T09:11:16Z</time></trkpt><trkpt lat="44.89480768634274" lon="9.966545946989008"><ele>79.0</ele><time>2026-04-12T09:11:17Z</time></trkpt><trkpt lat="44.894872758873156" lon="9.966626019012184"><ele>79.16666666666666</ele><time>2026-04-12T09:11:18Z</time></trkpt><trkpt lat="44.89493950572908" lon="9.966701187146818"><ele>79.33333333333333</ele><time>2026-04-12T09:11:19Z</time></trkpt><trkpt lat="44.89500638677109" lon="9.96677268084901"><ele>79.5</ele><time>2026-04-12T09:11:20Z</time></trkpt><trkpt lat="44.89507159431046" lon="9.966846202487533"><ele>79.66666666666667</ele><time>2026-04-12T09:11:21Z</time></trkpt><trkpt lat="44.89513819581366" lon="9.966922029198242"><ele>79.83333333333334</ele><time>2026-04-12T09:11:22Z</time></trkpt><trkpt lat="44.89520631541061" lon="9.96699063280064"><ele>80.0</ele><time>2026-04-12T09:11:23Z</time></trkpt><trkpt lat="44.8952755504769" lon="9.967055248274766"><ele>80.0</ele><time>2026-04-12T09:11:24Z</time></trkpt><trkpt lat="44.895349086780826" lon="9.967122605637286"><ele>80.0</ele><time>2026-04-12T09:11:25Z</time></trkpt><trkpt lat="44.895418413255314" lon="9.967188256443041"><ele>80.0</ele><time>2026-04-12T09:11:26Z</time></trkpt><trkpt lat="44.89548459077647" lon="9.967258203720146"><ele>80.0</ele><time>2026-04-12T09:11:27Z</time></trkpt><trkpt lat="44.895552032098394" lon="9.967323985987434"><ele>80.0</ele><time>2026-04-12T09:11:28Z</time></trkpt><trkpt lat="44.895614948127246" lon="9.967386638675357"><ele>80.0</ele><time>2026-04-12T09:11:29Z</time></trkpt><trkpt lat="44.89567853682158" lon="9.96745027079953"><ele>80.0</ele><time>2026-04-12T09:11:30Z</time></trkpt><trkpt lat="44.89573652551831" lon="9.967516164128059"><ele>80.0</ele><time>2026-04-12T09:11:31Z</time></trkpt><trkpt lat="44.89579400978841" lon="9.967578929538552"><ele>80.0</ele><time>2026-04-12T09:11:32Z</time></trkpt><trkpt lat="44.8958478520651" lon="9.967634510010397"><ele>80.0</ele><time>2026-04-12T09:11:33Z</time></trkpt><trkpt lat="44.89590290473309" lon="9.967691250475099"><ele>80.0</ele><time>2026-04-12T09:11:34Z</time></trkpt><trkpt lat="44.895995684272016" lon="9.967793683144095"><ele>80.0</ele><time>2026-04-12T09:11:36Z</time></trkpt><trkpt lat="44.89606830032124" lon="9.967871258631156"><ele>79.6</ele><time>2026-04-12T09:11:38Z</time></trkpt><trkpt lat="44.896113305909346" lon="9.967961201458937"><ele>79.2</ele><time>2026-04-12T09:11:43Z</time></trkpt><trkpt lat="44.89616609451495" lon="9.968022475796483"><ele>78.8</ele><time>2026-04-12T09:11:45.999Z</time></trkpt><trkpt lat="44.896243051027135" lon="9.96801637582436"><ele>78.4</ele><time>2026-04-12T09:11:48.999Z</time></trkpt><trkpt lat="44.896358847523665" lon="9.968013396943087"><ele>78.0</ele><time>2026-04-12T09:11:50.999Z</time></trkpt><trkpt lat="44.89645600866881" lon="9.968090654061905"><ele>78.0</ele><time>2026-04-12T09:11:52.999Z</time></trkpt><trkpt lat="44.89655333756" lon="9.96819680648846"><ele>78.0</ele><time>2026-04-12T09:11:54.999Z</time></trkpt><trkpt lat="44.89660309043863" lon="9.96825439568105"><ele>78.0</ele><time>2026-04-12T09:11:55.999Z</time></trkpt><trkpt lat="44.896656207526235" lon="9.968316868775114"><ele>78.0</ele><time>2026-04-12T09:11:56.999Z</time></trkpt><trkpt lat="44.89671394495858" lon="9.968380623195284"><ele>78.0</ele><time>2026-04-12T09:11:57.999Z</time></trkpt><trkpt lat="44.89677092443253" lon="9.968445971576005"><ele>78.0</ele><time>2026-04-12T09:11:58.999Z</time></trkpt><trkpt lat="44.896827295478644" lon="9.968509191810178"><ele>77.85714285714286</ele><time>2026-04-12T09:11:59.999Z</time></trkpt><trkpt lat="44.896886306524486" lon="9.968567141846837"><ele>77.71428571428571</ele><time>2026-04-12T09:12:00.999Z</time></trkpt><trkpt lat="44.89694417030353" lon="9.968622950954005"><ele>77.57142857142857</ele><time>2026-04-12T09:12:01.999Z</time></trkpt><trkpt lat="44.89700549700942" lon="9.96866916589035"><ele>77.42857142857143</ele><time>2026-04-12T09:12:02.999Z</time></trkpt><trkpt lat="44.89706306512185" lon="9.968725931031948"><ele>77.28571428571428</ele><time>2026-04-12T09:12:03.999Z</time></trkpt><trkpt lat="44.89712230127407" lon="9.968781461973911"><ele>77.14285714285714</ele><time>2026-04-12T09:12:04.999Z</time></trkpt><trkpt lat="44.8971849247828" lon="9.968840211657492"><ele>77.0</ele><time>2026-04-12T09:12:05.999Z</time></trkpt><trkpt lat="44.897249939071166" lon="9.968897884445214"><ele>77.0</ele><time>2026-04-12T09:12:06.999Z</time></trkpt><trkpt lat="44.89731376316705" lon="9.968957409558104"><ele>77.0</ele><time>2026-04-12T09:12:07.999Z</time></trkpt><trkpt lat="44.89737782449625" lon="9.96901852903253"><ele>77.0</ele><time>2026-04-12T09:12:08.999Z</time></trkpt><trkpt lat="44.89744181848483" lon="9.96907913714521"><ele>77.0</ele><time>2026-04-12T09:12:09.999Z</time></trkpt><trkpt lat="44.89750495125664" lon="9.969141394650173"><ele>77.0</ele><time>2026-04-12T09:12:10.999Z</time></trkpt><trkpt lat="44.897568611979175" lon="9.969201916442596"><ele>77.0</ele><time>2026-04-12T09:12:11.999Z</time></trkpt><trkpt lat="44.89763603723805" lon="9.969262295296854"><ele>76.66666666666667</ele><time>2026-04-12T09:12:12.999Z</time></trkpt><trkpt lat="44.89770363243693" lon="9.969322408044727"><ele>76.33333333333334</ele><time>2026-04-12T09:12:13.999Z</time></trkpt><trkpt lat="44.89777063823151" lon="9.969383613455944"><ele>76.0</ele><time>2026-04-12T09:12:14.999Z</time></trkpt><trkpt lat="44.89784053414751" lon="9.969447353359424"><ele>75.66666666666667</ele><time>2026-04-12T09:12:15.999Z</time></trkpt><trkpt lat="44.89790851322935" lon="9.969510302291294"><ele>75.33333333333333</ele><time>2026-04-12T09:12:16.999Z</time></trkpt><trkpt lat="44.89797827444521" lon="9.969573527170645"><ele>75.0</ele><time>2026-04-12T09:12:17.999Z</time></trkpt><trkpt lat="44.89804728655141" lon="9.969636475599962"><ele>75.0</ele><time>2026-04-12T09:12:18.999Z</time></trkpt><trkpt lat="44.898117342876176" lon="9.969701295856684"><ele>75.0</ele><time>2026-04-12T09:12:19.999Z</time></trkpt><trkpt lat="44.89818854838064" lon="9.969766544771202"><ele>75.0</ele><time>2026-04-12T09:12:20.999Z</time></trkpt><trkpt lat="44.89825962609398" lon="9.9698308563154"><ele>75.0</ele><time>2026-04-12T09:12:21.999Z</time></trkpt><trkpt lat="44.89833020682336" lon="9.969896581805974"><ele>75.0</ele><time>2026-04-12T09:12:22.999Z</time></trkpt><trkpt lat="44.89840126578659" lon="9.969963269213553"><ele>75.0</ele><time>2026-04-12T09:12:23.999Z</time></trkpt><trkpt lat="44.898472165731114" lon="9.970028233922998"><ele>74.83333333333333</ele><time>2026-04-12T09:12:24.999Z</time></trkpt><trkpt lat="44.898544082718864" lon="9.970094225632426"><ele>74.66666666666667</ele><time>2026-04-12T09:12:25.999Z</time></trkpt><trkpt lat="44.8986162681936" lon="9.970161405119429"><ele>74.5</ele><time>2026-04-12T09:12:26.999Z</time></trkpt><trkpt lat="44.89868986576388" lon="9.97022960960833"><ele>74.33333333333334</ele><time>2026-04-12T09:12:27.999Z</time></trkpt><trkpt lat="44.89876244947571" lon="9.970297854683047"><ele>74.16666666666667</ele><time>2026-04-12T09:12:28.999Z</time></trkpt><trkpt lat="44.8988351599346" lon="9.970366160480996"><ele>74.0</ele><time>2026-04-12T09:12:29.999Z</time></trkpt><trkpt lat="44.89890959324136" lon="9.970435286776217"><ele>74.0</ele><time>2026-04-12T09:12:30.999Z</time></trkpt><trkpt lat="44.898983353615826" lon="9.970504582346708"><ele>74.0</ele><time>2026-04-12T09:12:31.999Z</time></trkpt><trkpt lat="44.89905733091696" lon="9.970573618351725"><ele>74.0</ele><time>2026-04-12T09:12:32.999Z</time></trkpt><trkpt lat="44.899132135386644" lon="9.970642998462932"><ele>74.0</ele><time>2026-04-12T09:12:33.999Z</time></trkpt><trkpt lat="44.89920534272263" lon="9.970716628967796"><ele>74.0</ele><time>2026-04-12T09:12:34.999Z</time></trkpt><trkpt lat="44.89927886702117" lon="9.970788803976522"><ele>74.0</ele><time>2026-04-12T09:12:35.999Z</time></trkpt><trkpt lat="44.899352131253615" lon="9.97085879221506"><ele>73.66666666666667</ele><time>2026-04-12T09:12:36.999Z</time></trkpt><trkpt lat="44.89942707582192" lon="9.9709276872766"><ele>73.33333333333334</ele><time>2026-04-12T09:12:37.999Z</time></trkpt><trkpt lat="44.899501596012705" lon="9.970999897502445"><ele>73.0</ele><time>2026-04-12T09:12:38.998Z</time></trkpt><trkpt lat="44.899577047490155" lon="9.971069391119167"><ele>72.66666666666667</ele><time>2026-04-12T09:12:39.998Z</time></trkpt><trkpt lat="44.8996523844481" lon="9.97113832777113"><ele>72.33333333333333</ele><time>2026-04-12T09:12:40.998Z</time></trkpt><trkpt lat="44.89972642179339" lon="9.971208666960965"><ele>72.0</ele><time>2026-04-12T09:12:41.998Z</time></trkpt><trkpt lat="44.899800323531686" lon="9.971276045084137"><ele>72.0</ele><time>2026-04-12T09:12:42.998Z</time></trkpt><trkpt lat="44.89987613738492" lon="9.971344110040766"><ele>72.0</ele><time>2026-04-12T09:12:43.998Z</time></trkpt><trkpt lat="44.89995162708975" lon="9.97141375575031"><ele>72.0</ele><time>2026-04-12T09:12:44.998Z</time></trkpt><trkpt lat="44.90002509083113" lon="9.971481579007296"><ele>72.0</ele><time>2026-04-12T09:12:45.998Z</time></trkpt><trkpt lat="44.90009871241163" lon="9.971553468019867"><ele>72.0</ele><time>2026-04-12T09:12:46.998Z</time></trkpt><trkpt lat="44.90017023687884" lon="9.971627612238978"><ele>72.0</ele><time>2026-04-12T09:12:47.998Z</time></trkpt><trkpt lat="44.90023858022276" lon="9.97170540663273"><ele>71.66666666666667</ele><time>2026-04-12T09:12:48.998Z</time></trkpt><trkpt lat="44.90030479744714" lon="9.971788943608153"><ele>71.33333333333333</ele><time>2026-04-12T09:12:49.998Z</time></trkpt><trkpt lat="44.90036324831841" lon="9.971881317486316"><ele>71.0</ele><time>2026-04-12T09:12:50.998Z</time></trkpt><trkpt lat="44.90041887305348" lon="9.97197682431406"><ele>70.66666666666666</ele><time>2026-04-12T09:12:51.998Z</time></trkpt><trkpt lat="44.90047059143427" lon="9.972078436191152"><ele>70.33333333333333</ele><time>2026-04-12T09:12:52.998Z</time></trkpt><trkpt lat="44.900518355291766" lon="9.972182578093912"><ele>70.0</ele><time>2026-04-12T09:12:53.998Z</time></trkpt><trkpt lat="44.9005689877181" lon="9.972282633024712"><ele>70.0</ele><time>2026-04-12T09:12:54.998Z</time></trkpt><trkpt lat="44.90061945001419" lon="9.972383794273565"><ele>70.0</ele><time>2026-04-12T09:12:55.998Z</time></trkpt><trkpt lat="44.90067554794129" lon="9.972484576531304"><ele>70.0</ele><time>2026-04-12T09:12:56.998Z</time></trkpt><trkpt lat="44.90074172705724" lon="9.972576530935116"><ele>70.0</ele><time>2026-04-12T09:12:57.998Z</time></trkpt><trkpt lat="44.90081521122942" lon="9.972664351377771"><ele>70.0</ele><time>2026-04-12T09:12:58.998Z</time></trkpt><trkpt lat="44.900893378386264" lon="9.972750361414043"><ele>69.6</ele><time>2026-04-12T09:12:59.998Z</time></trkpt><trkpt lat="44.90097769988275" lon="9.972828618653118"><ele>69.2</ele><time>2026-04-12T09:13:00.998Z</time></trkpt><trkpt lat="44.901067524249264" lon="9.972901559985276"><ele>68.8</ele><time>2026-04-12T09:13:02Z</time></trkpt><trkpt lat="44.901161087703684" lon="9.972969748848028"><ele>68.4</ele><time>2026-04-12T09:13:03Z</time></trkpt><trkpt lat="44.901259305581384" lon="9.97302979006727"><ele>68.0</ele><time>2026-04-12T09:13:04Z</time></trkpt><trkpt lat="44.901357683034576" lon="9.973088208374294"><ele>68.0</ele><time>2026-04-12T09:13:05Z</time></trkpt><trkpt lat="44.901458838145" lon="9.973151436295723"><ele>68.0</ele><time>2026-04-12T09:13:06Z</time></trkpt><trkpt lat="44.90155848401914" lon="9.973209662937416"><ele>68.0</ele><time>2026-04-12T09:13:07Z</time></trkpt><trkpt lat="44.90165751582097" lon="9.973272536972985"><ele>68.0</ele><time>2026-04-12T09:13:08Z</time></trkpt><trkpt lat="44.90175886077076" lon="9.973339274751131"><ele>68.0</ele><time>2026-04-12T09:13:09Z</time></trkpt><trkpt lat="44.90184634416727" lon="9.973368997745782"><ele>68.2</ele><time>2026-04-12T09:13:10Z</time></trkpt><trkpt lat="44.90194834047257" lon="9.973437503326279"><ele>68.4</ele><time>2026-04-12T09:13:11Z</time></trkpt><trkpt lat="44.90204201966447" lon="9.973472069803435"><ele>68.60000000000001</ele><time>2026-04-12T09:13:12Z</time></trkpt><trkpt lat="44.90213033171184" lon="9.973502536189313"><ele>68.8</ele><time>2026-04-12T09:13:13Z</time></trkpt><trkpt lat="44.902219074422945" lon="9.973533439185806"><ele>69.0</ele><time>2026-04-12T09:13:14Z</time></trkpt><trkpt lat="44.9023008163702" lon="9.973562354579165"><ele>69.0</ele><time>2026-04-12T09:13:15Z</time></trkpt><trkpt lat="44.90238025676383" lon="9.973587982476062"><ele>69.0</ele><time>2026-04-12T09:13:16Z</time></trkpt><trkpt lat="44.90245552952269" lon="9.973612166172641"><ele>69.0</ele><time>2026-04-12T09:13:17Z</time></trkpt><trkpt lat="44.90253150107497" lon="9.973640772487387"><ele>69.0</ele><time>2026-04-12T09:13:18Z</time></trkpt><trkpt lat="44.90260613627097" lon="9.97367603735741"><ele>69.0</ele><time>2026-04-12T09:13:19Z</time></trkpt><trkpt lat="44.90268109405517" lon="9.973723269610979"><ele>69.0</ele><time>2026-04-12T09:13:20Z</time></trkpt><trkpt lat="44.902756242645076" lon="9.97377471061191"><ele>68.66666666666667</ele><time>2026-04-12T09:13:21Z</time></trkpt><trkpt lat="44.90282943175084" lon="9.973831964575568"><ele>68.33333333333333</ele><time>2026-04-12T09:13:22Z</time></trkpt><trkpt lat="44.90290509006369" lon="9.973883215037038"><ele>68.0</ele><time>2026-04-12T09:13:23Z</time></trkpt><trkpt lat="44.90297896201598" lon="9.973935802881016"><ele>67.66666666666666</ele><time>2026-04-12T09:13:24Z</time></trkpt><trkpt lat="44.90305291931734" lon="9.973987195626899"><ele>67.33333333333333</ele><time>2026-04-12T09:13:25Z</time></trkpt><trkpt lat="44.90312899280641" lon="9.974043618244576"><ele>67.0</ele><time>2026-04-12T09:13:26Z</time></trkpt><trkpt lat="44.90320566132282" lon="9.974091593549852"><ele>67.0</ele><time>2026-04-12T09:13:27Z</time></trkpt><trkpt lat="44.90328280339822" lon="9.974141399880432"><ele>67.0</ele><time>2026-04-12T09:13:28Z</time></trkpt><trkpt lat="44.903360119376245" lon="9.974195392332284"><ele>67.0</ele><time>2026-04-12T09:13:29Z</time></trkpt><trkpt lat="44.90343648004566" lon="9.97424995077592"><ele>67.0</ele><time>2026-04-12T09:13:30Z</time></trkpt><trkpt lat="44.90351524439175" lon="9.974303014300228"><ele>67.0</ele><time>2026-04-12T09:13:31Z</time></trkpt><trkpt lat="44.9035922794408" lon="9.974355725416457"><ele>67.0</ele><time>2026-04-12T09:13:32Z</time></trkpt><trkpt lat="44.90366983358476" lon="9.974408502297813"><ele>66.83333333333333</ele><time>2026-04-12T09:13:33Z</time></trkpt><trkpt lat="44.903748057781996" lon="9.974460568600984"><ele>66.66666666666666</ele><time>2026-04-12T09:13:34Z</time></trkpt><trkpt lat="44.90382461149796" lon="9.97451182129153"><ele>66.5</ele><time>2026-04-12T09:13:35Z</time></trkpt><trkpt lat="44.903902060001734" lon="9.974563481539487"><ele>66.33333333333333</ele><time>2026-04-12T09:13:36Z</time></trkpt><trkpt lat="44.90397816992324" lon="9.97461752701192"><ele>66.16666666666667</ele><time>2026-04-12T09:13:37Z</time></trkpt><trkpt lat="44.90405739000199" lon="9.974669042947662"><ele>66.0</ele><time>2026-04-12T09:13:38Z</time></trkpt><trkpt lat="44.90413484004319" lon="9.97471972144913"><ele>66.0</ele><time>2026-04-12T09:13:39Z</time></trkpt><trkpt lat="44.904212741837" lon="9.974771750704148"><ele>66.0</ele><time>2026-04-12T09:13:40Z</time></trkpt><trkpt lat="44.904291221739896" lon="9.974823964405376"><ele>66.0</ele><time>2026-04-12T09:13:41Z</time></trkpt><trkpt lat="44.904369526199005" lon="9.974874425650157"><ele>66.0</ele><time>2026-04-12T09:13:42Z</time></trkpt><trkpt lat="44.904447912732564" lon="9.974925332821325"><ele>66.0</ele><time>2026-04-12T09:13:43Z</time></trkpt><trkpt lat="44.90452572512718" lon="9.974978932058194"><ele>66.0</ele><time>2026-04-12T09:13:44Z</time></trkpt><trkpt lat="44.90460522598347" lon="9.975032048682806"><ele>66.0</ele><time>2026-04-12T09:13:45Z</time></trkpt><trkpt lat="44.90468500848953" lon="9.975085496269513"><ele>66.0</ele><time>2026-04-12T09:13:46Z</time></trkpt><trkpt lat="44.904763684468435" lon="9.975138099200521"><ele>66.0</ele><time>2026-04-12T09:13:47Z</time></trkpt><trkpt lat="44.904842938472086" lon="9.975191760724718"><ele>66.0</ele><time>2026-04-12T09:13:48Z</time></trkpt><trkpt lat="44.904923882904185" lon="9.975242595437505"><ele>66.0</ele><time>2026-04-12T09:13:49Z</time></trkpt><trkpt lat="44.905005752272274" lon="9.975296840232799"><ele>66.0</ele><time>2026-04-12T09:13:49.999Z</time></trkpt><trkpt lat="44.90508472542184" lon="9.975353484572343"><ele>66.0</ele><time>2026-04-12T09:13:50.999Z</time></trkpt><trkpt lat="44.905165843616125" lon="9.975405690039654"><ele>66.0</ele><time>2026-04-12T09:13:51.999Z</time></trkpt><trkpt lat="44.905247280083415" lon="9.975459332507736"><ele>66.0</ele><time>2026-04-12T09:13:52.999Z</time></trkpt><trkpt lat="44.905326925913805" lon="9.975513372521945"><ele>66.0</ele><time>2026-04-12T09:13:53.999Z</time></trkpt><trkpt lat="44.90540755156315" lon="9.975570588548472"><ele>66.0</ele><time>2026-04-12T09:13:54.999Z</time></trkpt><trkpt lat="44.90548852847494" lon="9.9756212552779"><ele>66.0</ele><time>2026-04-12T09:13:55.999Z</time></trkpt><trkpt lat="44.90556838565939" lon="9.975674819664594"><ele>66.0</ele><time>2026-04-12T09:13:56.999Z</time></trkpt><trkpt lat="44.905647691980754" lon="9.975732857328943"><ele>66.0</ele><time>2026-04-12T09:13:57.999Z</time></trkpt><trkpt lat="44.905728459761264" lon="9.97578913547142"><ele>66.0</ele><time>2026-04-12T09:13:58.999Z</time></trkpt><trkpt lat="44.90581013188775" lon="9.975847121100065"><ele>66.0</ele><time>2026-04-12T09:13:59.999Z</time></trkpt><trkpt lat="44.905891369533904" lon="9.97590079970983"><ele>66.0</ele><time>2026-04-12T09:14:00.999Z</time></trkpt><trkpt lat="44.90597309670039" lon="9.975956440510835"><ele>65.5</ele><time>2026-04-12T09:14:01.999Z</time></trkpt><trkpt lat="44.90605319131572" lon="9.976014433151795"><ele>65.0</ele><time>2026-04-12T09:14:02.999Z</time></trkpt><trkpt lat="44.90613356729298" lon="9.976069003300621"><ele>64.5</ele><time>2026-04-12T09:14:03.999Z</time></trkpt><trkpt lat="44.906216513051135" lon="9.976124460820813"><ele>64.0</ele><time>2026-04-12T09:14:04.999Z</time></trkpt><trkpt lat="44.90629830734551" lon="9.976182090215165"><ele>63.5</ele><time>2026-04-12T09:14:05.999Z</time></trkpt><trkpt lat="44.906376957888014" lon="9.9762328778921"><ele>63.0</ele><time>2026-04-12T09:14:06.999Z</time></trkpt><trkpt lat="44.90645832026355" lon="9.976287900915244"><ele>63.0</ele><time>2026-04-12T09:14:07.999Z</time></trkpt><trkpt lat="44.906537488546874" lon="9.976342201739637"><ele>63.0</ele><time>2026-04-12T09:14:08.999Z</time></trkpt><trkpt lat="44.90661722456274" lon="9.976398858990065"><ele>63.0</ele><time>2026-04-12T09:14:09.999Z</time></trkpt><trkpt lat="44.906695698372474" lon="9.976451210347733"><ele>63.0</ele><time>2026-04-12T09:14:10.999Z</time></trkpt><trkpt lat="44.90677749764318" lon="9.976506386006157"><ele>63.0</ele><time>2026-04-12T09:14:11.999Z</time></trkpt><trkpt lat="44.90685626601822" lon="9.976557932547749"><ele>63.0</ele><time>2026-04-12T09:14:12.999Z</time></trkpt><trkpt lat="44.90693614775865" lon="9.976611382656037"><ele>63.0</ele><time>2026-04-12T09:14:13.999Z</time></trkpt><trkpt lat="44.907013414563515" lon="9.976665938960346"><ele>63.0</ele><time>2026-04-12T09:14:14.999Z</time></trkpt><trkpt lat="44.90709207356285" lon="9.976725942534738"><ele>63.0</ele><time>2026-04-12T09:14:15.999Z</time></trkpt><trkpt lat="44.907169520964146" lon="9.97678457756791"><ele>63.0</ele><time>2026-04-12T09:14:16.999Z</time></trkpt><trkpt lat="44.90725064713432" lon="9.976839013713624"><ele>63.0</ele><time>2026-04-12T09:14:17.999Z</time></trkpt><trkpt lat="44.90732883186555" lon="9.976894560869173"><ele>63.0</ele><time>2026-04-12T09:14:18.999Z</time></trkpt><trkpt lat="44.907410016126484" lon="9.976947881161111"><ele>63.0</ele><time>2026-04-12T09:14:19.999Z</time></trkpt><trkpt lat="44.90749059202296" lon="9.97700091550625"><ele>63.0</ele><time>2026-04-12T09:14:20.999Z</time></trkpt><trkpt lat="44.907568002232814" lon="9.97705554932896"><ele>63.0</ele><time>2026-04-12T09:14:21.999Z</time></trkpt><trkpt lat="44.907650521005806" lon="9.97710531911714"><ele>63.0</ele><time>2026-04-12T09:14:22.999Z</time></trkpt><trkpt lat="44.90772881756229" lon="9.977159610995871"><ele>63.0</ele><time>2026-04-12T09:14:23.999Z</time></trkpt><trkpt lat="44.907808768454274" lon="9.977216726602318"><ele>63.0</ele><time>2026-04-12T09:14:24.999Z</time></trkpt><trkpt lat="44.90788693438093" lon="9.97727184298707"><ele>62.833333333333336</ele><time>2026-04-12T09:14:25.999Z</time></trkpt><trkpt lat="44.90796584134772" lon="9.97732680077223"><ele>62.66666666666667</ele><time>2026-04-12T09:14:26.999Z</time></trkpt><trkpt lat="44.90804499991499" lon="9.977378305343183"><ele>62.5</ele><time>2026-04-12T09:14:27.999Z</time></trkpt><trkpt lat="44.90812406743985" lon="9.97743507330102"><ele>62.333333333333336</ele><time>2026-04-12T09:14:28.999Z</time></trkpt><trkpt lat="44.908202463258974" lon="9.97748953969625"><ele>62.16666666666667</ele><time>2026-04-12T09:14:29.999Z</time></trkpt><trkpt lat="44.9082812557317" lon="9.97754469750042"><ele>62.0</ele><time>2026-04-12T09:14:30.999Z</time></trkpt><trkpt lat="44.90836060722483" lon="9.977599097376267"><ele>61.833333333333336</ele><time>2026-04-12T09:14:31.999Z</time></trkpt><trkpt lat="44.90843876632008" lon="9.977653194664777"><ele>61.66666666666667</ele><time>2026-04-12T09:14:32.999Z</time></trkpt><trkpt lat="44.908519273502804" lon="9.977710298399593"><ele>61.5</ele><time>2026-04-12T09:14:33.999Z</time></trkpt><trkpt lat="44.908598192296886" lon="9.977762861471616"><ele>61.33333333333333</ele><time>2026-04-12T09:14:34.999Z</time></trkpt><trkpt lat="44.908678323681514" lon="9.977817683803393"><ele>61.166666666666664</ele><time>2026-04-12T09:14:35.999Z</time></trkpt><trkpt lat="44.90875806367964" lon="9.977871966103393"><ele>61.0</ele><time>2026-04-12T09:14:36.999Z</time></trkpt><trkpt lat="44.90883817205517" lon="9.977926713329312"><ele>60.99999999999999</ele><time>2026-04-12T09:14:37.999Z</time></trkpt><trkpt lat="44.90891717024382" lon="9.977979692029434"><ele>61.0</ele><time>2026-04-12T09:14:38.999Z</time></trkpt><trkpt lat="44.908994750696266" lon="9.97803703027432"><ele>61.0</ele><time>2026-04-12T09:14:39.999Z</time></trkpt><trkpt lat="44.90907494434696" lon="9.978091288999774"><ele>61.0</ele><time>2026-04-12T09:14:40.999Z</time></trkpt><trkpt lat="44.909154243624705" lon="9.978143478653159"><ele>60.99999999999999</ele><time>2026-04-12T09:14:41.999Z</time></trkpt><trkpt lat="44.90923483343461" lon="9.9781976203324"><ele>61.0</ele><time>2026-04-12T09:14:42.999Z</time></trkpt><trkpt lat="44.909314196438" lon="9.978248987623124"><ele>60.99999999999999</ele><time>2026-04-12T09:14:43.998Z</time></trkpt><trkpt lat="44.909394526541526" lon="9.97830385181084"><ele>61.0</ele><time>2026-04-12T09:14:44.998Z</time></trkpt><trkpt lat="44.90947373070268" lon="9.978357293915229"><ele>61.0</ele><time>2026-04-12T09:14:45.998Z</time></trkpt><trkpt lat="44.90955291455983" lon="9.97841173290223"><ele>61.0</ele><time>2026-04-12T09:14:46.998Z</time></trkpt><trkpt lat="44.909632747208725" lon="9.978465978076152"><ele>60.99999999999999</ele><time>2026-04-12T09:14:47.998Z</time></trkpt><trkpt lat="44.90971340893354" lon="9.978520872137237"><ele>61.0</ele><time>2026-04-12T09:14:48.998Z</time></trkpt><trkpt lat="44.90979302538155" lon="9.978574736773185"><ele>60.99999999999999</ele><time>2026-04-12T09:14:49.998Z</time></trkpt><trkpt lat="44.909873315958926" lon="9.978629407540044"><ele>61.0</ele><time>2026-04-12T09:14:50.998Z</time></trkpt><trkpt lat="44.90995376047412" lon="9.978683641678352"><ele>61.0</ele><time>2026-04-12T09:14:51.998Z</time></trkpt><trkpt lat="44.91003437424093" lon="9.97873906149198"><ele>61.0</ele><time>2026-04-12T09:14:52.998Z</time></trkpt><trkpt lat="44.91011374963055" lon="9.978795503007047"><ele>60.99999999999999</ele><time>2026-04-12T09:14:53.998Z</time></trkpt><trkpt lat="44.910193341946226" lon="9.978852584380398"><ele>61.0</ele><time>2026-04-12T09:14:54.998Z</time></trkpt><trkpt lat="44.91027443307023" lon="9.978906984765429"><ele>60.99999999999999</ele><time>2026-04-12T09:14:55.998Z</time></trkpt><trkpt lat="44.9103538621224" lon="9.978961574498733"><ele>61.0</ele><time>2026-04-12T09:14:56.998Z</time></trkpt><trkpt lat="44.910435377504754" lon="9.979017678890857"><ele>61.0</ele><time>2026-04-12T09:14:57.998Z</time></trkpt><trkpt lat="44.910514482003514" lon="9.979072052972661"><ele>61.0</ele><time>2026-04-12T09:14:58.998Z</time></trkpt><trkpt lat="44.910596213220614" lon="9.979130651515844"><ele>60.99999999999999</ele><time>2026-04-12T09:14:59.998Z</time></trkpt><trkpt lat="44.910676363658" lon="9.979186492900004"><ele>61.0</ele><time>2026-04-12T09:15:00.998Z</time></trkpt><trkpt lat="44.910754597385534" lon="9.979246545109735"><ele>61.199999999999996</ele><time>2026-04-12T09:15:01.998Z</time></trkpt><trkpt lat="44.91083655947506" lon="9.979300775582965"><ele>61.39999999999999</ele><time>2026-04-12T09:15:02.998Z</time></trkpt><trkpt lat="44.91091820018139" lon="9.979353031728225"><ele>61.6</ele><time>2026-04-12T09:15:03.998Z</time></trkpt><trkpt lat="44.9109990309508" lon="9.979410783348127"><ele>61.8</ele><time>2026-04-12T09:15:04.998Z</time></trkpt><trkpt lat="44.91108084258469" lon="9.979466355533754"><ele>62.0</ele><time>2026-04-12T09:15:05.998Z</time></trkpt><trkpt lat="44.911161824647074" lon="9.97952293434022"><ele>62.00000000000001</ele><time>2026-04-12T09:15:06.998Z</time></trkpt><trkpt lat="44.91124059147686" lon="9.97957926916262"><ele>62.0</ele><time>2026-04-12T09:15:08Z</time></trkpt><trkpt lat="44.911320411045004" lon="9.97963712311599"><ele>62.0</ele><time>2026-04-12T09:15:09Z</time></trkpt><trkpt lat="44.91139835863638" lon="9.979693539075134"><ele>62.0</ele><time>2026-04-12T09:15:10Z</time></trkpt><trkpt lat="44.91147823897059" lon="9.97975159325963"><ele>62.00000000000001</ele><time>2026-04-12T09:15:11Z</time></trkpt><trkpt lat="44.911557692687474" lon="9.979809463603436"><ele>62.0</ele><time>2026-04-12T09:15:12Z</time></trkpt><trkpt lat="44.911636531269124" lon="9.979867944757736"><ele>62.00000000000001</ele><time>2026-04-12T09:15:13Z</time></trkpt><trkpt lat="44.91171586615028" lon="9.97992573957253"><ele>62.0</ele><time>2026-04-12T09:15:14Z</time></trkpt><trkpt lat="44.91179528406556" lon="9.979981727203237"><ele>62.0</ele><time>2026-04-12T09:15:15Z</time></trkpt><trkpt lat="44.9118762782621" lon="9.980035641390327"><ele>62.0</ele><time>2026-04-12T09:15:16Z</time></trkpt><trkpt lat="44.91195669445108" lon="9.98008257432439"><ele>62.00000000000001</ele><time>2026-04-12T09:15:17Z</time></trkpt><trkpt lat="44.91204497200226" lon="9.980113316838402"><ele>62.0</ele><time>2026-04-12T09:15:18Z</time></trkpt><trkpt lat="44.912134178199025" lon="9.98010821950985"><ele>61.6</ele><time>2026-04-12T09:15:19Z</time></trkpt><trkpt lat="44.912223309956886" lon="9.98007449140397"><ele>61.2</ele><time>2026-04-12T09:15:20Z</time></trkpt><trkpt lat="44.91229736111834" lon="9.980001235350647"><ele>60.8</ele><time>2026-04-12T09:15:21Z</time></trkpt><trkpt lat="44.91236094049065" lon="9.97991218751496"><ele>60.4</ele><time>2026-04-12T09:15:22Z</time></trkpt><trkpt lat="44.91242105174317" lon="9.979815572360136"><ele>60.0</ele><time>2026-04-12T09:15:23Z</time></trkpt><trkpt lat="44.91248242239629" lon="9.979725718784328"><ele>60.0</ele><time>2026-04-12T09:15:24Z</time></trkpt><trkpt lat="44.91254839664806" lon="9.979636246696957"><ele>60.0</ele><time>2026-04-12T09:15:25Z</time></trkpt><trkpt lat="44.91261222784642" lon="9.979545790068409"><ele>60.0</ele><time>2026-04-12T09:15:26Z</time></trkpt><trkpt lat="44.91267601284538" lon="9.979454481025302"><ele>60.0</ele><time>2026-04-12T09:15:27Z</time></trkpt><trkpt lat="44.91274081266544" lon="9.979364887121841"><ele>60.0</ele><time>2026-04-12T09:15:28Z</time></trkpt><trkpt lat="44.91280453384463" lon="9.979274603263445"><ele>59.6</ele><time>2026-04-12T09:15:29Z</time></trkpt><trkpt lat="44.91286936279992" lon="9.979182295364158"><ele>59.2</ele><time>2026-04-12T09:15:30Z</time></trkpt><trkpt lat="44.912933488338936" lon="9.979091300664958"><ele>58.8</ele><time>2026-04-12T09:15:31Z</time></trkpt><trkpt lat="44.91299776345501" lon="9.979000453855509"><ele>58.4</ele><time>2026-04-12T09:15:32Z</time></trkpt><trkpt lat="44.91306303046019" lon="9.97890917458406"><ele>58.0</ele><time>2026-04-12T09:15:33Z</time></trkpt><trkpt lat="44.9131274478605" lon="9.97881749999496"><ele>58.0</ele><time>2026-04-12T09:15:34Z</time></trkpt><trkpt lat="44.91319215302298" lon="9.978725745982736"><ele>58.0</ele><time>2026-04-12T09:15:35Z</time></trkpt><trkpt lat="44.9132576117281" lon="9.978633101693463"><ele>58.0</ele><time>2026-04-12T09:15:36Z</time></trkpt><trkpt lat="44.913322132638946" lon="9.978541733836437"><ele>58.0</ele><time>2026-04-12T09:15:37Z</time></trkpt><trkpt lat="44.91338790134389" lon="9.97845046887444"><ele>58.0</ele><time>2026-04-12T09:15:38Z</time></trkpt><trkpt lat="44.91345329449449" lon="9.978357204267718"><ele>57.8</ele><time>2026-04-12T09:15:39Z</time></trkpt><trkpt lat="44.91351789356879" lon="9.978263768091026"><ele>57.599999999999994</ele><time>2026-04-12T09:15:40Z</time></trkpt><trkpt lat="44.91358416211781" lon="9.97817118430241"><ele>57.400000000000006</ele><time>2026-04-12T09:15:41Z</time></trkpt><trkpt lat="44.913649343816026" lon="9.978080023367015"><ele>57.2</ele><time>2026-04-12T09:15:42Z</time></trkpt><trkpt lat="44.91371382201907" lon="9.97798799983663"><ele>57.0</ele><time>2026-04-12T09:15:43Z</time></trkpt><trkpt lat="44.913780422105546" lon="9.977895577478376"><ele>57.0</ele><time>2026-04-12T09:15:44Z</time></trkpt><trkpt lat="44.91384525338809" lon="9.977803264532353"><ele>57.0</ele><time>2026-04-12T09:15:45Z</time></trkpt><trkpt lat="44.91390930099673" lon="9.977710471101638"><ele>57.0</ele><time>2026-04-12T09:15:46Z</time></trkpt><trkpt lat="44.913974757610085" lon="9.977617543377443"><ele>57.0</ele><time>2026-04-12T09:15:47Z</time></trkpt><trkpt lat="44.914038774142945" lon="9.97752568285119"><ele>57.0</ele><time>2026-04-12T09:15:48Z</time></trkpt><trkpt lat="44.91410292196539" lon="9.977434287674342"><ele>57.0</ele><time>2026-04-12T09:15:49Z</time></trkpt><trkpt lat="44.9141688137633" lon="9.97734479153822"><ele>57.0</ele><time>2026-04-12T09:15:50Z</time></trkpt><trkpt lat="44.91423429035049" lon="9.977251637708259"><ele>57.0</ele><time>2026-04-12T09:15:51Z</time></trkpt><trkpt lat="44.914298960491905" lon="9.977157141439797"><ele>57.0</ele><time>2026-04-12T09:15:52Z</time></trkpt><trkpt lat="44.9143646242376" lon="9.977065282716262"><ele>57.0</ele><time>2026-04-12T09:15:53Z</time></trkpt><trkpt lat="44.91443026459514" lon="9.976973892634355"><ele>57.0</ele><time>2026-04-12T09:15:54Z</time></trkpt><trkpt lat="44.91449540897136" lon="9.97688050589499"><ele>57.0</ele><time>2026-04-12T09:15:54.999Z</time></trkpt><trkpt lat="44.91455957646204" lon="9.976786031565615"><ele>57.0</ele><time>2026-04-12T09:15:55.999Z</time></trkpt><trkpt lat="44.914623557248895" lon="9.976691724897176"><ele>57.0</ele><time>2026-04-12T09:15:56.999Z</time></trkpt><trkpt lat="44.91468714007035" lon="9.976598588898597"><ele>57.0</ele><time>2026-04-12T09:15:57.999Z</time></trkpt><trkpt lat="44.91475263010651" lon="9.97650550310895"><ele>57.0</ele><time>2026-04-12T09:15:58.999Z</time></trkpt><trkpt lat="44.914818558023406" lon="9.976414571626986"><ele>57.0</ele><time>2026-04-12T09:15:59.999Z</time></trkpt><trkpt lat="44.9148845865139" lon="9.976322365848922"><ele>57.0</ele><time>2026-04-12T09:16:00.999Z</time></trkpt><trkpt lat="44.91495058609934" lon="9.976230737462904"><ele>57.0</ele><time>2026-04-12T09:16:01.999Z</time></trkpt><trkpt lat="44.9150160783383" lon="9.976139400476578"><ele>57.0</ele><time>2026-04-12T09:16:02.999Z</time></trkpt><trkpt lat="44.915081167932385" lon="9.976046480708613"><ele>57.0</ele><time>2026-04-12T09:16:03.999Z</time></trkpt><trkpt lat="44.91514668311685" lon="9.97595587475774"><ele>57.0</ele><time>2026-04-12T09:16:04.999Z</time></trkpt><trkpt lat="44.91521125325208" lon="9.97586460617111"><ele>57.0</ele><time>2026-04-12T09:16:05.999Z</time></trkpt><trkpt lat="44.91527514355834" lon="9.975774046666377"><ele>57.0</ele><time>2026-04-12T09:16:06.999Z</time></trkpt><trkpt lat="44.91534038533554" lon="9.975682947261985"><ele>57.0</ele><time>2026-04-12T09:16:07.999Z</time></trkpt><trkpt lat="44.91540591639004" lon="9.975592241913033"><ele>57.0</ele><time>2026-04-12T09:16:08.999Z</time></trkpt><trkpt lat="44.91547086706535" lon="9.975499945944788"><ele>57.0</ele><time>2026-04-12T09:16:09.999Z</time></trkpt><trkpt lat="44.9155355094758" lon="9.97541044476713"><ele>57.0</ele><time>2026-04-12T09:16:10.999Z</time></trkpt><trkpt lat="44.91559950860498" lon="9.975319151409696"><ele>57.0</ele><time>2026-04-12T09:16:11.999Z</time></trkpt><trkpt lat="44.915664061643106" lon="9.975227220774876"><ele>57.0</ele><time>2026-04-12T09:16:12.999Z</time></trkpt><trkpt lat="44.91572815875477" lon="9.975136681224837"><ele>57.0</ele><time>2026-04-12T09:16:13.999Z</time></trkpt><trkpt lat="44.91579124167294" lon="9.97504261075661"><ele>57.0</ele><time>2026-04-12T09:16:14.999Z</time></trkpt><trkpt lat="44.91584904850169" lon="9.974945714759151"><ele>57.0</ele><time>2026-04-12T09:16:15.999Z</time></trkpt><trkpt lat="44.915906068729335" lon="9.974849273579169"><ele>57.0</ele><time>2026-04-12T09:16:16.999Z</time></trkpt><trkpt lat="44.91596715560982" lon="9.97476225674549"><ele>57.0</ele><time>2026-04-12T09:16:17.999Z</time></trkpt><trkpt lat="44.9160290845421" lon="9.97467624661654"><ele>57.0</ele><time>2026-04-12T09:16:18.999Z</time></trkpt><trkpt lat="44.91608977543583" lon="9.974592950885329"><ele>57.0</ele><time>2026-04-12T09:16:19.999Z</time></trkpt><trkpt lat="44.91614820496139" lon="9.974508139081976"><ele>57.0</ele><time>2026-04-12T09:16:20.999Z</time></trkpt><trkpt lat="44.916206506282315" lon="9.974424559057978"><ele>57.0</ele><time>2026-04-12T09:16:21.999Z</time></trkpt><trkpt lat="44.91626363044823" lon="9.974343983045483"><ele>57.0</ele><time>2026-04-12T09:16:22.999Z</time></trkpt><trkpt lat="44.91632094727466" lon="9.97426337743448"><ele>57.0</ele><time>2026-04-12T09:16:23.999Z</time></trkpt><trkpt lat="44.91637628851176" lon="9.974181918864392"><ele>57.0</ele><time>2026-04-12T09:16:24.999Z</time></trkpt><trkpt lat="44.91643778364455" lon="9.97409662555943"><ele>57.2</ele><time>2026-04-12T09:16:25.999Z</time></trkpt><trkpt lat="44.916497054382475" lon="9.974011448077876"><ele>57.400000000000006</ele><time>2026-04-12T09:16:26.999Z</time></trkpt><trkpt lat="44.916559714507954" lon="9.973925081346373"><ele>57.599999999999994</ele><time>2026-04-12T09:16:27.999Z</time></trkpt><trkpt lat="44.91662618996613" lon="9.973839087402698"><ele>57.8</ele><time>2026-04-12T09:16:28.999Z</time></trkpt><trkpt lat="44.916696354947355" lon="9.973750878896798"><ele>58.0</ele><time>2026-04-12T09:16:29.999Z</time></trkpt><trkpt lat="44.91676680306051" lon="9.973653969756619"><ele>57.8</ele><time>2026-04-12T09:16:30.999Z</time></trkpt><trkpt lat="44.91683543273509" lon="9.973555546732989"><ele>57.599999999999994</ele><time>2026-04-12T09:16:31.999Z</time></trkpt><trkpt lat="44.91690799390708" lon="9.973456448696602"><ele>57.400000000000006</ele><time>2026-04-12T09:16:32.999Z</time></trkpt><trkpt lat="44.91698064540685" lon="9.973358433471551"><ele>57.2</ele><time>2026-04-12T09:16:33.999Z</time></trkpt><trkpt lat="44.91705362349465" lon="9.973257901250589"><ele>57.0</ele><time>2026-04-12T09:16:34.999Z</time></trkpt><trkpt lat="44.91712626991607" lon="9.973159055301336"><ele>57.0</ele><time>2026-04-12T09:16:35.999Z</time></trkpt><trkpt lat="44.91720098641813" lon="9.973065158522097"><ele>57.0</ele><time>2026-04-12T09:16:36.999Z</time></trkpt><trkpt lat="44.917278592191295" lon="9.972974851757922"><ele>57.0</ele><time>2026-04-12T09:16:37.999Z</time></trkpt><trkpt lat="44.91736301965993" lon="9.972900194980475"><ele>57.0</ele><time>2026-04-12T09:16:38.999Z</time></trkpt><trkpt lat="44.91745268706908" lon="9.972838282540536"><ele>57.0</ele><time>2026-04-12T09:16:39.999Z</time></trkpt><trkpt lat="44.917547836820226" lon="9.972791623186986"><ele>56.400000000000006</ele><time>2026-04-12T09:16:40.999Z</time></trkpt><trkpt lat="44.91764513211295" lon="9.972752392765868"><ele>55.800000000000004</ele><time>2026-04-12T09:16:41.999Z</time></trkpt><trkpt lat="44.917744297861056" lon="9.972711516901438"><ele>55.2</ele><time>2026-04-12T09:16:42.999Z</time></trkpt><trkpt lat="44.917842483889544" lon="9.972668090733338"><ele>54.6</ele><time>2026-04-12T09:16:43.999Z</time></trkpt><trkpt lat="44.917940230556916" lon="9.972620948825659"><ele>54.0</ele><time>2026-04-12T09:16:44.999Z</time></trkpt><trkpt lat="44.91803593829701" lon="9.972576845726806"><ele>54.0</ele><time>2026-04-12T09:16:45.999Z</time></trkpt><trkpt lat="44.91813258466577" lon="9.972533741194917"><ele>54.00000000000001</ele><time>2026-04-12T09:16:46.999Z</time></trkpt><trkpt lat="44.9182273300605" lon="9.972489157019089"><ele>54.00000000000001</ele><time>2026-04-12T09:16:47.999Z</time></trkpt><trkpt lat="44.91832049426076" lon="9.972442018464688"><ele>54.0</ele><time>2026-04-12T09:16:48.998Z</time></trkpt><trkpt lat="44.91841378860365" lon="9.972398632612878"><ele>54.0</ele><time>2026-04-12T09:16:49.998Z</time></trkpt><trkpt lat="44.91850591422679" lon="9.972358340154447"><ele>54.800000000000004</ele><time>2026-04-12T09:16:50.998Z</time></trkpt><trkpt lat="44.9185974096783" lon="9.972315478027564"><ele>55.60000000000001</ele><time>2026-04-12T09:16:51.998Z</time></trkpt><trkpt lat="44.91868926397574" lon="9.972272596302775"><ele>56.4</ele><time>2026-04-12T09:16:52.998Z</time></trkpt><trkpt lat="44.91878024097609" lon="9.972233081617382"><ele>57.2</ele><time>2026-04-12T09:16:53.998Z</time></trkpt><trkpt lat="44.91887391851437" lon="9.972196182011594"><ele>58.0</ele><time>2026-04-12T09:16:54.998Z</time></trkpt><trkpt lat="44.918967139782936" lon="9.972155226216305"><ele>58.0</ele><time>2026-04-12T09:16:55.998Z</time></trkpt><trkpt lat="44.919059200327034" lon="9.972118631061365"><ele>58.0</ele><time>2026-04-12T09:16:56.998Z</time></trkpt><trkpt lat="44.91915358803231" lon="9.972081585173553"><ele>58.0</ele><time>2026-04-12T09:16:57.998Z</time></trkpt><trkpt lat="44.91924785421162" lon="9.972048779534706"><ele>58.0</ele><time>2026-04-12T09:16:58.998Z</time></trkpt><trkpt lat="44.919342626857315" lon="9.972012686837086"><ele>58.0</ele><time>2026-04-12T09:16:59.998Z</time></trkpt><trkpt lat="44.919437646813535" lon="9.971980537904065"><ele>58.0</ele><time>2026-04-12T09:17:00.998Z</time></trkpt><trkpt lat="44.9195312011687" lon="9.971946497132615"><ele>58.0</ele><time>2026-04-12T09:17:01.998Z</time></trkpt><trkpt lat="44.91962598980894" lon="9.971913557433048"><ele>58.0</ele><time>2026-04-12T09:17:02.998Z</time></trkpt><trkpt lat="44.91972148641408" lon="9.971882411802605"><ele>58.0</ele><time>2026-04-12T09:17:03.998Z</time></trkpt><trkpt lat="44.91981748455228" lon="9.971849285399331"><ele>58.0</ele><time>2026-04-12T09:17:04.998Z</time></trkpt><trkpt lat="44.919913360980956" lon="9.971817233547934"><ele>58.0</ele><time>2026-04-12T09:17:05.998Z</time></trkpt><trkpt lat="44.9200078644056" lon="9.971786100544875"><ele>58.0</ele><time>2026-04-12T09:17:06.998Z</time></trkpt><trkpt lat="44.92010282758352" lon="9.97175233692471"><ele>58.0</ele><time>2026-04-12T09:17:07.998Z</time></trkpt><trkpt lat="44.920196614414785" lon="9.971718865545267"><ele>58.0</ele><time>2026-04-12T09:17:08.998Z</time></trkpt><trkpt lat="44.920295136537966" lon="9.971688416235601"><ele>58.0</ele><time>2026-04-12T09:17:09.998Z</time></trkpt><trkpt lat="44.92038949333986" lon="9.971655217999482"><ele>57.8</ele><time>2026-04-12T09:17:10.998Z</time></trkpt><trkpt lat="44.92048594597128" lon="9.971618370631752"><ele>57.599999999999994</ele><time>2026-04-12T09:17:11.998Z</time></trkpt><trkpt lat="44.92058265137742" lon="9.97157944192562"><ele>57.400000000000006</ele><time>2026-04-12T09:17:13Z</time></trkpt><trkpt lat="44.92067892945061" lon="9.971536671495294"><ele>57.2</ele><time>2026-04-12T09:17:14Z</time></trkpt><trkpt lat="44.92077516772964" lon="9.971492437112989"><ele>57.0</ele><time>2026-04-12T09:17:15Z</time></trkpt><trkpt lat="44.9208713964502" lon="9.971445701588692"><ele>56.400000000000006</ele><time>2026-04-12T09:17:16Z</time></trkpt><trkpt lat="44.920966682438475" lon="9.971400585096925"><ele>55.800000000000004</ele><time>2026-04-12T09:17:17Z</time></trkpt><trkpt lat="44.92105919123527" lon="9.971352554540106"><ele>55.2</ele><time>2026-04-12T09:17:18Z</time></trkpt><trkpt lat="44.92115248601355" lon="9.97130689680649"><ele>54.6</ele><time>2026-04-12T09:17:19Z</time></trkpt><trkpt lat="44.921245448327326" lon="9.971262577536471"><ele>54.0</ele><time>2026-04-12T09:17:20Z</time></trkpt><trkpt lat="44.92133650314983" lon="9.971214249626733"><ele>54.0</ele><time>2026-04-12T09:17:21Z</time></trkpt><trkpt lat="44.921427601411224" lon="9.971164971594522"><ele>54.00000000000001</ele><time>2026-04-12T09:17:22Z</time></trkpt><trkpt lat="44.92152240575644" lon="9.971117265695089"><ele>54.00000000000001</ele><time>2026-04-12T09:17:23Z</time></trkpt><trkpt lat="44.92162261465561" lon="9.971095311350261"><ele>54.0</ele><time>2026-04-12T09:17:24Z</time></trkpt><trkpt lat="44.921719140403056" lon="9.971094943001926"><ele>54.0</ele><time>2026-04-12T09:17:25Z</time></trkpt><trkpt lat="44.921820755814025" lon="9.971115366385638"><ele>54.0</ele><time>2026-04-12T09:17:26Z</time></trkpt><trkpt lat="44.92192113443073" lon="9.971134823846091"><ele>54.00000000000001</ele><time>2026-04-12T09:17:27Z</time></trkpt><trkpt lat="44.92202266413417" lon="9.971151361088928"><ele>54.00000000000001</ele><time>2026-04-12T09:17:28Z</time></trkpt><trkpt lat="44.92212236834005" lon="9.971166156375098"><ele>54.0</ele><time>2026-04-12T09:17:29Z</time></trkpt><trkpt lat="44.92222242071013" lon="9.97118184761738"><ele>54.0</ele><time>2026-04-12T09:17:30Z</time></trkpt><trkpt lat="44.92232239718236" lon="9.971200462482278"><ele>54.0</ele><time>2026-04-12T09:17:31Z</time></trkpt><trkpt lat="44.92242156802212" lon="9.971218714284008"><ele>54.00000000000001</ele><time>2026-04-12T09:17:32Z</time></trkpt><trkpt lat="44.92252187880638" lon="9.971235374436734"><ele>54.00000000000001</ele><time>2026-04-12T09:17:33Z</time></trkpt><trkpt lat="44.92262081083224" lon="9.97125631551081"><ele>54.0</ele><time>2026-04-12T09:17:34Z</time></trkpt><trkpt lat="44.92272078524619" lon="9.971275429473142"><ele>54.0</ele><time>2026-04-12T09:17:35Z</time></trkpt><trkpt lat="44.92282119883312" lon="9.971293161271428"><ele>54.0</ele><time>2026-04-12T09:17:36Z</time></trkpt><trkpt lat="44.92291997079437" lon="9.971312873212346"><ele>54.00000000000001</ele><time>2026-04-12T09:17:37Z</time></trkpt><trkpt lat="44.92301925890287" lon="9.971330178584923"><ele>54.00000000000001</ele><time>2026-04-12T09:17:38Z</time></trkpt><trkpt lat="44.923117715812865" lon="9.971348521403748"><ele>54.0</ele><time>2026-04-12T09:17:39Z</time></trkpt><trkpt lat="44.92321481805828" lon="9.971369401130117"><ele>54.0</ele><time>2026-04-12T09:17:40Z</time></trkpt><trkpt lat="44.923311337909695" lon="9.971391184639982"><ele>53.800000000000004</ele><time>2026-04-12T09:17:41Z</time></trkpt><trkpt lat="44.92340788643847" lon="9.97141274192445"><ele>53.60000000000001</ele><time>2026-04-12T09:17:42Z</time></trkpt><trkpt lat="44.92350286708" lon="9.971438289303173"><ele>53.4</ele><time>2026-04-12T09:17:43Z</time></trkpt><trkpt lat="44.92359749298039" lon="9.971460454633176"><ele>53.2</ele><time>2026-04-12T09:17:44Z</time></trkpt><trkpt lat="44.92369321335285" lon="9.971479944853938"><ele>53.0</ele><time>2026-04-12T09:17:45Z</time></trkpt><trkpt lat="44.92378952406736" lon="9.971501365042444"><ele>53.0</ele><time>2026-04-12T09:17:46Z</time></trkpt><trkpt lat="44.92388902029545" lon="9.971520948968447"><ele>53.0</ele><time>2026-04-12T09:17:47Z</time></trkpt><trkpt lat="44.923989169442045" lon="9.971542718434788"><ele>53.0</ele><time>2026-04-12T09:17:48Z</time></trkpt><trkpt lat="44.924090583452774" lon="9.971565584176675"><ele>53.0</ele><time>2026-04-12T09:17:49Z</time></trkpt><trkpt lat="44.92419129232433" lon="9.971589935848225"><ele>53.0</ele><time>2026-04-12T09:17:50Z</time></trkpt><trkpt lat="44.924290706249224" lon="9.971615791994632"><ele>53.4</ele><time>2026-04-12T09:17:51Z</time></trkpt><trkpt lat="44.92439020447879" lon="9.971639565143784"><ele>53.8</ele><time>2026-04-12T09:17:52Z</time></trkpt><trkpt lat="44.92449004614399" lon="9.971656897409359"><ele>54.2</ele><time>2026-04-12T09:17:53Z</time></trkpt><trkpt lat="44.924589897495544" lon="9.971672849873366"><ele>54.6</ele><time>2026-04-12T09:17:54Z</time></trkpt><trkpt lat="44.92468996550403" lon="9.971674404477373"><ele>55.0</ele><time>2026-04-12T09:17:55Z</time></trkpt><trkpt lat="44.924788313589154" lon="9.971662395197967"><ele>55.0</ele><time>2026-04-12T09:17:56Z</time></trkpt><trkpt lat="44.924885278972894" lon="9.971642829418226"><ele>55.0</ele><time>2026-04-12T09:17:57Z</time></trkpt><trkpt lat="44.9249769207614" lon="9.971619183466304"><ele>55.0</ele><time>2026-04-12T09:17:58Z</time></trkpt><trkpt lat="44.925070211596264" lon="9.971596313650497"><ele>55.0</ele><time>2026-04-12T09:17:59Z</time></trkpt><trkpt lat="44.925163998612604" lon="9.971576788773664"><ele>55.0</ele><time>2026-04-12T09:17:59.999Z</time></trkpt><trkpt lat="44.92525622770873" lon="9.97155925932739"><ele>55.166666666666664</ele><time>2026-04-12T09:18:00.999Z</time></trkpt><trkpt lat="44.925344110694006" lon="9.971539998666852"><ele>55.33333333333333</ele><time>2026-04-12T09:18:01.999Z</time></trkpt><trkpt lat="44.92542539767421" lon="9.971518929761194"><ele>55.5</ele><time>2026-04-12T09:18:02.999Z</time></trkpt><trkpt lat="44.925497651749524" lon="9.971503598300567"><ele>55.66666666666667</ele><time>2026-04-12T09:18:03.999Z</time></trkpt><trkpt lat="44.92556798208691" lon="9.971480821061167"><ele>55.833333333333336</ele><time>2026-04-12T09:18:04.999Z</time></trkpt><trkpt lat="44.92562790392061" lon="9.97142591931953"><ele>56.0</ele><time>2026-04-12T09:18:05.999Z</time></trkpt><trkpt lat="44.92566966143208" lon="9.971342324770141"><ele>56.00000000000001</ele><time>2026-04-12T09:18:06.999Z</time></trkpt><trkpt lat="44.92567209358365" lon="9.971224556929439"><ele>56.0</ele><time>2026-04-12T09:18:07.999Z</time></trkpt><trkpt lat="44.925653557554526" lon="9.971117395463715"><ele>56.0</ele><time>2026-04-12T09:18:08.999Z</time></trkpt><trkpt lat="44.925629700194634" lon="9.971016626473448"><ele>56.0</ele><time>2026-04-12T09:18:09.999Z</time></trkpt><trkpt lat="44.925603866879484" lon="9.970914890359527"><ele>56.00000000000001</ele><time>2026-04-12T09:18:10.999Z</time></trkpt><trkpt lat="44.9255803536461" lon="9.970812139596381"><ele>56.0</ele><time>2026-04-12T09:18:11.999Z</time></trkpt><trkpt lat="44.92556129334976" lon="9.970708772888047"><ele>55.66666666666667</ele><time>2026-04-12T09:18:12.999Z</time></trkpt><trkpt lat="44.92556693157821" lon="9.97059861222822"><ele>55.333333333333336</ele><time>2026-04-12T09:18:13.999Z</time></trkpt><trkpt lat="44.92560379447006" lon="9.970504684509716"><ele>55.0</ele><time>2026-04-12T09:18:14.999Z</time></trkpt><trkpt lat="44.92566584308234" lon="9.970421073719407"><ele>54.66666666666667</ele><time>2026-04-12T09:18:15.999Z</time></trkpt><trkpt lat="44.92575682592701" lon="9.97042868525174"><ele>54.333333333333336</ele><time>2026-04-12T09:18:16.999Z</time></trkpt><trkpt lat="44.92583911521729" lon="9.970440158769794"><ele>54.0</ele><time>2026-04-12T09:18:17.999Z</time></trkpt><trkpt lat="44.92592258331002" lon="9.970467287594214"><ele>53.5</ele><time>2026-04-12T09:18:18.999Z</time></trkpt><trkpt lat="44.9260066107072" lon="9.97049577606951"><ele>53.0</ele><time>2026-04-12T09:18:19.999Z</time></trkpt><trkpt lat="44.926092912253594" lon="9.970516267403852"><ele>52.5</ele><time>2026-04-12T09:18:20.999Z</time></trkpt><trkpt lat="44.92618101045125" lon="9.970538404876102"><ele>52.0</ele><time>2026-04-12T09:18:21.999Z</time></trkpt><trkpt lat="44.92627017531525" lon="9.970556544290181"><ele>51.5</ele><time>2026-04-12T09:18:22.999Z</time></trkpt><trkpt lat="44.926359994031245" lon="9.970571510961634"><ele>51.0</ele><time>2026-04-12T09:18:23.999Z</time></trkpt><trkpt lat="44.92645222027535" lon="9.970591675704238"><ele>51.0</ele><time>2026-04-12T09:18:24.999Z</time></trkpt><trkpt lat="44.92654508296884" lon="9.97061749053428"><ele>51.0</ele><time>2026-04-12T09:18:25.999Z</time></trkpt><trkpt lat="44.92664329299753" lon="9.970644781251007"><ele>51.0</ele><time>2026-04-12T09:18:26.999Z</time></trkpt><trkpt lat="44.92673958274086" lon="9.970665930712284"><ele>51.0</ele><time>2026-04-12T09:18:27.999Z</time></trkpt><trkpt lat="44.9268390230572" lon="9.970682571875411"><ele>51.0</ele><time>2026-04-12T09:18:28.999Z</time></trkpt><trkpt lat="44.92693720109009" lon="9.970702391245823"><ele>51.0</ele><time>2026-04-12T09:18:29.999Z</time></trkpt><trkpt lat="44.927037465148175" lon="9.97072159277752"><ele>51.0</ele><time>2026-04-12T09:18:30.999Z</time></trkpt><trkpt lat="44.92713866561718" lon="9.970741326789565"><ele>51.0</ele><time>2026-04-12T09:18:31.999Z</time></trkpt><trkpt lat="44.927239911586746" lon="9.970761316251721"><ele>51.0</ele><time>2026-04-12T09:18:32.999Z</time></trkpt><trkpt lat="44.927344953741475" lon="9.970781152693421"><ele>51.0</ele><time>2026-04-12T09:18:33.999Z</time></trkpt><trkpt lat="44.927448990482034" lon="9.970803033522259"><ele>51.0</ele><time>2026-04-12T09:18:34.999Z</time></trkpt><trkpt lat="44.92755377294906" lon="9.970828871993556"><ele>51.0</ele><time>2026-04-12T09:18:35.999Z</time></trkpt><trkpt lat="44.927660235174564" lon="9.97085977939429"><ele>51.0</ele><time>2026-04-12T09:18:36.999Z</time></trkpt><trkpt lat="44.927764140658304" lon="9.970884687411917"><ele>51.0</ele><time>2026-04-12T09:18:37.999Z</time></trkpt><trkpt lat="44.92787241199495" lon="9.970911402127228"><ele>51.0</ele><time>2026-04-12T09:18:38.999Z</time></trkpt><trkpt lat="44.927976404289716" lon="9.970935615815232"><ele>51.0</ele><time>2026-04-12T09:18:39.999Z</time></trkpt><trkpt lat="44.928080073421484" lon="9.970955520043233"><ele>51.0</ele><time>2026-04-12T09:18:40.999Z</time></trkpt><trkpt lat="44.92818105859943" lon="9.970976889182472"><ele>51.0</ele><time>2026-04-12T09:18:41.999Z</time></trkpt><trkpt lat="44.928278638065954" lon="9.971000402735612"><ele>51.0</ele><time>2026-04-12T09:18:42.999Z</time></trkpt><trkpt lat="44.92837489614121" lon="9.971019909389623"><ele>51.0</ele><time>2026-04-12T09:18:43.999Z</time></trkpt><trkpt lat="44.92847334076595" lon="9.971036926597753"><ele>51.0</ele><time>2026-04-12T09:18:44.999Z</time></trkpt><trkpt lat="44.92857290375081" lon="9.971057805473128"><ele>51.0</ele><time>2026-04-12T09:18:45.999Z</time></trkpt><trkpt lat="44.92867424424658" lon="9.971082173425613"><ele>51.0</ele><time>2026-04-12T09:18:46.999Z</time></trkpt><trkpt lat="44.928771424251266" lon="9.971104773929639"><ele>51.0</ele><time>2026-04-12T09:18:47.999Z</time></trkpt><trkpt lat="44.92886688708951" lon="9.971126728745983"><ele>51.0</ele><time>2026-04-12T09:18:48.999Z</time></trkpt><trkpt lat="44.928959041925665" lon="9.971145274472944"><ele>51.0</ele><time>2026-04-12T09:18:49.999Z</time></trkpt><trkpt lat="44.929049961129536" lon="9.97116497185786"><ele>51.0</ele><time>2026-04-12T09:18:50.999Z</time></trkpt><trkpt lat="44.92914284980279" lon="9.971187051792455"><ele>51.0</ele><time>2026-04-12T09:18:51.999Z</time></trkpt><trkpt lat="44.92923618877481" lon="9.971206292130583"><ele>51.0</ele><time>2026-04-12T09:18:52.999Z</time></trkpt><trkpt lat="44.92932902291452" lon="9.971222420983537"><ele>51.0</ele><time>2026-04-12T09:18:53.998Z</time></trkpt><trkpt lat="44.92942035622178" lon="9.971239588251773"><ele>51.0</ele><time>2026-04-12T09:18:54.998Z</time></trkpt><trkpt lat="44.9295117889386" lon="9.971260042202779"><ele>51.0</ele><time>2026-04-12T09:18:55.998Z</time></trkpt><trkpt lat="44.929601254003614" lon="9.971281969681016"><ele>51.0</ele><time>2026-04-12T09:18:56.998Z</time></trkpt><trkpt lat="44.9296949630606" lon="9.97130807763656"><ele>51.0</ele><time>2026-04-12T09:18:57.998Z</time></trkpt><trkpt lat="44.92978427718186" lon="9.971332700336177"><ele>51.0</ele><time>2026-04-12T09:18:58.998Z</time></trkpt><trkpt lat="44.92987350991326" lon="9.971354856934541"><ele>51.0</ele><time>2026-04-12T09:18:59.998Z</time></trkpt><trkpt lat="44.9299639184996" lon="9.971377696884918"><ele>51.0</ele><time>2026-04-12T09:19:00.998Z</time></trkpt><trkpt lat="44.930053733404286" lon="9.971395447773617"><ele>51.0</ele><time>2026-04-12T09:19:01.998Z</time></trkpt><trkpt lat="44.93014499189617" lon="9.971415758615144"><ele>51.0</ele><time>2026-04-12T09:19:02.998Z</time></trkpt><trkpt lat="44.93023470897002" lon="9.971436277637755"><ele>51.0</ele><time>2026-04-12T09:19:03.998Z</time></trkpt><trkpt lat="44.93032300400993" lon="9.971454942704204"><ele>50.833333333333336</ele><time>2026-04-12T09:19:04.998Z</time></trkpt><trkpt lat="44.930411803860885" lon="9.971475309001562"><ele>50.66666666666667</ele><time>2026-04-12T09:19:05.998Z</time></trkpt><trkpt lat="44.93050088887157" lon="9.971492337969865"><ele>50.5</ele><time>2026-04-12T09:19:06.998Z</time></trkpt><trkpt lat="44.930589871887136" lon="9.971507766717156"><ele>50.333333333333336</ele><time>2026-04-12T09:19:07.998Z</time></trkpt><trkpt lat="44.93067698687626" lon="9.971519722080549"><ele>50.16666666666667</ele><time>2026-04-12T09:19:08.998Z</time></trkpt><trkpt lat="44.93076480053423" lon="9.971526712852295"><ele>50.0</ele><time>2026-04-12T09:19:09.998Z</time></trkpt><trkpt lat="44.93085141285362" lon="9.971534723749391"><ele>49.833333333333336</ele><time>2026-04-12T09:19:10.998Z</time></trkpt><trkpt lat="44.93093829475036" lon="9.971544710810775"><ele>49.66666666666667</ele><time>2026-04-12T09:19:11.998Z</time></trkpt><trkpt lat="44.93102570449505" lon="9.971556907520434"><ele>49.5</ele><time>2026-04-12T09:19:12.998Z</time></trkpt><trkpt lat="44.93111085996757" lon="9.971568894879804"><ele>49.33333333333333</ele><time>2026-04-12T09:19:13.998Z</time></trkpt><trkpt lat="44.93119356653212" lon="9.97157986430318"><ele>49.166666666666664</ele><time>2026-04-12T09:19:14.998Z</time></trkpt><trkpt lat="44.9312762341944" lon="9.971595909970748"><ele>49.0</ele><time>2026-04-12T09:19:15.998Z</time></trkpt><trkpt lat="44.931357546949286" lon="9.9716087232948"><ele>48.99999999999999</ele><time>2026-04-12T09:19:16.998Z</time></trkpt><trkpt lat="44.931440087065994" lon="9.971619207435365"><ele>49.0</ele><time>2026-04-12T09:19:18Z</time></trkpt><trkpt lat="44.93151920377345" lon="9.971628829208726"><ele>49.0</ele><time>2026-04-12T09:19:19Z</time></trkpt><trkpt lat="44.931600718702285" lon="9.971637205561823"><ele>49.0</ele><time>2026-04-12T09:19:20Z</time></trkpt><trkpt lat="44.931679607096584" lon="9.971641361200705"><ele>48.99999999999999</ele><time>2026-04-12T09:19:21Z</time></trkpt><trkpt lat="44.93175891284612" lon="9.971652967959733"><ele>49.0</ele><time>2026-04-12T09:19:22Z</time></trkpt><trkpt lat="44.93183668910443" lon="9.971662480084412"><ele>48.99999999999999</ele><time>2026-04-12T09:19:23Z</time></trkpt><trkpt lat="44.93191450510427" lon="9.971672871770586"><ele>49.0</ele><time>2026-04-12T09:19:24Z</time></trkpt><trkpt lat="44.93199178492474" lon="9.971678999420098"><ele>49.0</ele><time>2026-04-12T09:19:25Z</time></trkpt><trkpt lat="44.93206606539023" lon="9.971684006006223"><ele>49.0</ele><time>2026-04-12T09:19:26Z</time></trkpt><trkpt lat="44.93214288398072" lon="9.97169367744908"><ele>48.99999999999999</ele><time>2026-04-12T09:19:27Z</time></trkpt><trkpt lat="44.93221723117892" lon="9.971699865500009"><ele>49.0</ele><time>2026-04-12T09:19:28Z</time></trkpt><trkpt lat="44.93229107018059" lon="9.971707105234046"><ele>49.142857142857146</ele><time>2026-04-12T09:19:29Z</time></trkpt><trkpt lat="44.93236026796592" lon="9.971712992524532"><ele>49.285714285714285</ele><time>2026-04-12T09:19:30Z</time></trkpt><trkpt lat="44.932432553523526" lon="9.971721382253833"><ele>49.42857142857143</ele><time>2026-04-12T09:19:31Z</time></trkpt><trkpt lat="44.932500211095174" lon="9.97172901940356"><ele>49.57142857142857</ele><time>2026-04-12T09:19:32Z</time></trkpt><trkpt lat="44.93257011948576" lon="9.971735713651318"><ele>49.714285714285715</ele><time>2026-04-12T09:19:33Z</time></trkpt><trkpt lat="44.93263659401207" lon="9.971742111341804"><ele>49.85714285714286</ele><time>2026-04-12T09:19:34Z</time></trkpt><trkpt lat="44.93270742636577" lon="9.971750283937268"><ele>50.0</ele><time>2026-04-12T09:19:35Z</time></trkpt><trkpt lat="44.93277320166895" lon="9.971754496831032"><ele>49.57142857142858</ele><time>2026-04-12T09:19:36Z</time></trkpt><trkpt lat="44.93284075882742" lon="9.971763725201637"><ele>49.142857142857146</ele><time>2026-04-12T09:19:37Z</time></trkpt><trkpt lat="44.93290817256406" lon="9.97176935782473"><ele>48.714285714285715</ele><time>2026-04-12T09:19:38Z</time></trkpt><trkpt lat="44.93297541461529" lon="9.971776704197483"><ele>48.28571428571429</ele><time>2026-04-12T09:19:39Z</time></trkpt><trkpt lat="44.93303868395422" lon="9.971782914235193"><ele>47.857142857142854</ele><time>2026-04-12T09:19:40Z</time></trkpt><trkpt lat="44.933103362106074" lon="9.971793738028497"><ele>47.42857142857143</ele><time>2026-04-12T09:19:41Z</time></trkpt><trkpt lat="44.93316693991001" lon="9.971801600969926"><ele>47.0</ele><time>2026-04-12T09:19:42Z</time></trkpt><trkpt lat="44.93328436360105" lon="9.971812457122137"><ele>47.25</ele><time>2026-04-12T09:19:44Z</time></trkpt><trkpt lat="44.933398045639045" lon="9.971821826228549"><ele>47.5</ele><time>2026-04-12T09:19:46Z</time></trkpt><trkpt lat="44.93351652152822" lon="9.971833433753652"><ele>47.75</ele><time>2026-04-12T09:19:48Z</time></trkpt><trkpt lat="44.9336365645258" lon="9.97184244492531"><ele>48.0</ele><time>2026-04-12T09:19:50Z</time></trkpt><trkpt lat="44.9337524141009" lon="9.971858693394658"><ele>48.0</ele><time>2026-04-12T09:19:52Z</time></trkpt><trkpt lat="44.9338619417908" lon="9.971869612294803"><ele>48.0</ele><time>2026-04-12T09:19:54Z</time></trkpt><trkpt lat="44.933974604205154" lon="9.971883393755725"><ele>48.0</ele><time>2026-04-12T09:19:56Z</time></trkpt><trkpt lat="44.93409552280097" lon="9.97189448940318"><ele>48.0</ele><time>2026-04-12T09:19:58Z</time></trkpt><trkpt lat="44.93421762324593" lon="9.971908905791954"><ele>47.833333333333336</ele><time>2026-04-12T09:20:00Z</time></trkpt><trkpt lat="44.93434734827981" lon="9.971897856391918"><ele>47.666666666666664</ele><time>2026-04-12T09:20:02Z</time></trkpt><trkpt lat="44.93441253652741" lon="9.971910973746338"><ele>47.5</ele><time>2026-04-12T09:20:03Z</time></trkpt><trkpt lat="44.93447794294362" lon="9.971924803453524"><ele>47.33333333333333</ele><time>2026-04-12T09:20:03.999Z</time></trkpt><trkpt lat="44.93454621243785" lon="9.971941396226008"><ele>47.166666666666664</ele><time>2026-04-12T09:20:04.999Z</time></trkpt><trkpt lat="44.93461298816471" lon="9.97195786365092"><ele>47.0</ele><time>2026-04-12T09:20:05.999Z</time></trkpt><trkpt lat="44.93467906270193" lon="9.971999640167633"><ele>47.0</ele><time>2026-04-12T09:20:06.999Z</time></trkpt><trkpt lat="44.93475268352289" lon="9.971996999539023"><ele>47.0</ele><time>2026-04-12T09:20:07.999Z</time></trkpt><trkpt lat="44.93481802510062" lon="9.97205046772291"><ele>47.0</ele><time>2026-04-12T09:20:08.999Z</time></trkpt><trkpt lat="44.93488728512632" lon="9.972075368136416"><ele>47.0</ele><time>2026-04-12T09:20:09.999Z</time></trkpt><trkpt lat="44.934958380556324" lon="9.972102966655509"><ele>47.0</ele><time>2026-04-12T09:20:10.999Z</time></trkpt><trkpt lat="44.935035372150594" lon="9.972127123095792"><ele>47.0</ele><time>2026-04-12T09:20:11.999Z</time></trkpt><trkpt lat="44.93510413606242" lon="9.972160926727804"><ele>47.0</ele><time>2026-04-12T09:20:12.999Z</time></trkpt><trkpt lat="44.9351773013596" lon="9.972195887994005"><ele>47.0</ele><time>2026-04-12T09:20:13.999Z</time></trkpt><trkpt lat="44.935249763459325" lon="9.97223414268041"><ele>47.0</ele><time>2026-04-12T09:20:14.999Z</time></trkpt><trkpt lat="44.93532322300235" lon="9.972274835014582"><ele>47.0</ele><time>2026-04-12T09:20:15.999Z</time></trkpt><trkpt lat="44.93539674827704" lon="9.972317227664075"><ele>47.0</ele><time>2026-04-12T09:20:16.999Z</time></trkpt><trkpt lat="44.93547176191346" lon="9.972363397927959"><ele>47.0</ele><time>2026-04-12T09:20:17.999Z</time></trkpt><trkpt lat="44.93554740369571" lon="9.972410532898012"><ele>47.0</ele><time>2026-04-12T09:20:18.999Z</time></trkpt><trkpt lat="44.93562565036543" lon="9.972463679323747"><ele>47.0</ele><time>2026-04-12T09:20:19.999Z</time></trkpt><trkpt lat="44.935705058306866" lon="9.972514139849972"><ele>47.0</ele><time>2026-04-12T09:20:20.999Z</time></trkpt><trkpt lat="44.93578647980305" lon="9.972566172734386"><ele>47.0</ele><time>2026-04-12T09:20:21.999Z</time></trkpt><trkpt lat="44.9358701327195" lon="9.972614261143605"><ele>47.0</ele><time>2026-04-12T09:20:22.999Z</time></trkpt><trkpt lat="44.935952159710105" lon="9.972669498747841"><ele>47.0</ele><time>2026-04-12T09:20:23.999Z</time></trkpt><trkpt lat="44.93603725717383" lon="9.972721049917737"><ele>47.2</ele><time>2026-04-12T09:20:24.999Z</time></trkpt><trkpt lat="44.9361235667947" lon="9.972773352735771"><ele>47.400000000000006</ele><time>2026-04-12T09:20:25.999Z</time></trkpt><trkpt lat="44.93620709744484" lon="9.97283170240521"><ele>47.599999999999994</ele><time>2026-04-12T09:20:26.999Z</time></trkpt><trkpt lat="44.93629627840265" lon="9.972881748011945"><ele>47.8</ele><time>2026-04-12T09:20:27.999Z</time></trkpt><trkpt lat="44.93638171126462" lon="9.972933495378788"><ele>48.0</ele><time>2026-04-12T09:20:28.999Z</time></trkpt><trkpt lat="44.936469073429926" lon="9.972994102216115"><ele>48.0</ele><time>2026-04-12T09:20:29.999Z</time></trkpt><trkpt lat="44.936558256325654" lon="9.973049586522812"><ele>48.0</ele><time>2026-04-12T09:20:30.999Z</time></trkpt><trkpt lat="44.936648026419704" lon="9.973106525871136"><ele>48.0</ele><time>2026-04-12T09:20:31.999Z</time></trkpt><trkpt lat="44.93673815066619" lon="9.973163492335276"><ele>48.0</ele><time>2026-04-12T09:20:32.999Z</time></trkpt><trkpt lat="44.936829906412946" lon="9.97322095286672"><ele>48.0</ele><time>2026-04-12T09:20:33.999Z</time></trkpt><trkpt lat="44.936922515413585" lon="9.973278484408967"><ele>48.0</ele><time>2026-04-12T09:20:34.999Z</time></trkpt><trkpt lat="44.93701559157094" lon="9.973337963531618"><ele>48.0</ele><time>2026-04-12T09:20:35.999Z</time></trkpt><trkpt lat="44.93710571871137" lon="9.973396903195002"><ele>48.0</ele><time>2026-04-12T09:20:36.999Z</time></trkpt><trkpt lat="44.937196077134516" lon="9.973453474057477"><ele>48.0</ele><time>2026-04-12T09:20:37.999Z</time></trkpt><trkpt lat="44.937289807669934" lon="9.97350893836556"><ele>48.0</ele><time>2026-04-12T09:20:38.999Z</time></trkpt><trkpt lat="44.937383027334896" lon="9.973567107334235"><ele>48.0</ele><time>2026-04-12T09:20:39.999Z</time></trkpt><trkpt lat="44.93747599595516" lon="9.973625356242763"><ele>48.0</ele><time>2026-04-12T09:20:40.999Z</time></trkpt><trkpt lat="44.93756912936654" lon="9.97368136497908"><ele>48.0</ele><time>2026-04-12T09:20:41.999Z</time></trkpt><trkpt lat="44.937663486887885" lon="9.973737803397208"><ele>48.0</ele><time>2026-04-12T09:20:42.999Z</time></trkpt><trkpt lat="44.937755274185065" lon="9.973791754378862"><ele>48.0</ele><time>2026-04-12T09:20:43.999Z</time></trkpt><trkpt lat="44.93784868447813" lon="9.973844282872621"><ele>48.0</ele><time>2026-04-12T09:20:44.999Z</time></trkpt><trkpt lat="44.93794261169567" lon="9.973898440440536"><ele>48.0</ele><time>2026-04-12T09:20:45.999Z</time></trkpt><trkpt lat="44.93803721986816" lon="9.973954226325718"><ele>48.0</ele><time>2026-04-12T09:20:46.999Z</time></trkpt><trkpt lat="44.93813007482835" lon="9.974005549167021"><ele>48.0</ele><time>2026-04-12T09:20:47.999Z</time></trkpt><trkpt lat="44.938222251644966" lon="9.974052619249191"><ele>48.0</ele><time>2026-04-12T09:20:48.999Z</time></trkpt><trkpt lat="44.93831615264201" lon="9.974098179785525"><ele>48.0</ele><time>2026-04-12T09:20:49.999Z</time></trkpt><trkpt lat="44.938409724101874" lon="9.974140483274658"><ele>48.0</ele><time>2026-04-12T09:20:50.999Z</time></trkpt><trkpt lat="44.93850584518995" lon="9.974185847944689"><ele>48.0</ele><time>2026-04-12T09:20:51.999Z</time></trkpt><trkpt lat="44.938597876289926" lon="9.974229784957513"><ele>48.0</ele><time>2026-04-12T09:20:52.999Z</time></trkpt><trkpt lat="44.93869095834493" lon="9.974274558286227"><ele>48.0</ele><time>2026-04-12T09:20:53.999Z</time></trkpt><trkpt lat="44.93878206860273" lon="9.974320384366072"><ele>48.0</ele><time>2026-04-12T09:20:54.999Z</time></trkpt><trkpt lat="44.93887158292389" lon="9.974369609823729"><ele>48.0</ele><time>2026-04-12T09:20:55.999Z</time></trkpt><trkpt lat="44.938962852014285" lon="9.974411492214085"><ele>48.0</ele><time>2026-04-12T09:20:56.999Z</time></trkpt><trkpt lat="44.939054744827544" lon="9.974452610756867"><ele>48.0</ele><time>2026-04-12T09:20:57.998Z</time></trkpt><trkpt lat="44.93914617684742" lon="9.974498772205466"><ele>48.0</ele><time>2026-04-12T09:20:58.998Z</time></trkpt><trkpt lat="44.939237784865924" lon="9.974543343500795"><ele>47.8</ele><time>2026-04-12T09:20:59.998Z</time></trkpt><trkpt lat="44.93932719348488" lon="9.974588027421882"><ele>47.599999999999994</ele><time>2026-04-12T09:21:00.998Z</time></trkpt><trkpt lat="44.939418504909035" lon="9.974631106477576"><ele>47.400000000000006</ele><time>2026-04-12T09:21:01.998Z</time></trkpt><trkpt lat="44.93950853890709" lon="9.974673693818184"><ele>47.2</ele><time>2026-04-12T09:21:02.998Z</time></trkpt><trkpt lat="44.939597815918766" lon="9.974717526556478"><ele>47.0</ele><time>2026-04-12T09:21:03.998Z</time></trkpt><trkpt lat="44.939686752739156" lon="9.974763837910263"><ele>47.0</ele><time>2026-04-12T09:21:04.998Z</time></trkpt><trkpt lat="44.939775309909926" lon="9.974804661186324"><ele>47.0</ele><time>2026-04-12T09:21:05.998Z</time></trkpt><trkpt lat="44.939866022724964" lon="9.974843600811363"><ele>47.0</ele><time>2026-04-12T09:21:06.998Z</time></trkpt><trkpt lat="44.93995411066861" lon="9.974888232962305"><ele>47.0</ele><time>2026-04-12T09:21:07.998Z</time></trkpt><trkpt lat="44.94004268232379" lon="9.974934077390824"><ele>47.0</ele><time>2026-04-12T09:21:08.998Z</time></trkpt><trkpt lat="44.94012823023975" lon="9.97498016171899"><ele>47.2</ele><time>2026-04-12T09:21:09.998Z</time></trkpt><trkpt lat="44.94021437488487" lon="9.97502438309446"><ele>47.400000000000006</ele><time>2026-04-12T09:21:10.998Z</time></trkpt><trkpt lat="44.940301280395545" lon="9.97506939669098"><ele>47.599999999999994</ele><time>2026-04-12T09:21:11.998Z</time></trkpt><trkpt lat="44.94038648942436" lon="9.97511342900235"><ele>47.8</ele><time>2026-04-12T09:21:12.998Z</time></trkpt><trkpt lat="44.94047007457205" lon="9.97515324107592"><ele>48.0</ele><time>2026-04-12T09:21:13.998Z</time></trkpt><trkpt lat="44.94055690300296" lon="9.975199242273344"><ele>48.0</ele><time>2026-04-12T09:21:14.998Z</time></trkpt><trkpt lat="44.94064143110546" lon="9.97524421405573"><ele>48.0</ele><time>2026-04-12T09:21:15.998Z</time></trkpt><trkpt lat="44.940726198616055" lon="9.97528793587631"><ele>48.0</ele><time>2026-04-12T09:21:16.998Z</time></trkpt><trkpt lat="44.94080846652358" lon="9.975332065853836"><ele>48.0</ele><time>2026-04-12T09:21:17.998Z</time></trkpt><trkpt lat="44.94089308534863" lon="9.97537298386397"><ele>48.0</ele><time>2026-04-12T09:21:18.998Z</time></trkpt><trkpt lat="44.94097646686868" lon="9.975415510447487"><ele>48.0</ele><time>2026-04-12T09:21:19.998Z</time></trkpt><trkpt lat="44.94105573509377" lon="9.975459377631775"><ele>47.5</ele><time>2026-04-12T09:21:20.998Z</time></trkpt><trkpt lat="44.941132774036774" lon="9.975502252947003"><ele>47.0</ele><time>2026-04-12T09:21:21.998Z</time></trkpt><trkpt lat="44.94120770814981" lon="9.9755427349514"><ele>46.5</ele><time>2026-04-12T09:21:22.998Z</time></trkpt><trkpt lat="44.94128280315938" lon="9.97558042193576"><ele>46.0</ele><time>2026-04-12T09:21:24Z</time></trkpt><trkpt lat="44.94135782702785" lon="9.975618536406449"><ele>45.5</ele><time>2026-04-12T09:21:25Z</time></trkpt><trkpt lat="44.941432686284855" lon="9.97566437357593"><ele>45.0</ele><time>2026-04-12T09:21:26Z</time></trkpt><trkpt lat="44.94150911424868" lon="9.975711638381686"><ele>45.0</ele><time>2026-04-12T09:21:27Z</time></trkpt><trkpt lat="44.94158565564444" lon="9.975753257383214"><ele>45.0</ele><time>2026-04-12T09:21:28Z</time></trkpt><trkpt lat="44.94166376046218" lon="9.975793643950174"><ele>45.0</ele><time>2026-04-12T09:21:29Z</time></trkpt><trkpt lat="44.941739301936565" lon="9.975836302016793"><ele>45.0</ele><time>2026-04-12T09:21:30Z</time></trkpt><trkpt lat="44.941815764980426" lon="9.975875028691988"><ele>45.0</ele><time>2026-04-12T09:21:31Z</time></trkpt><trkpt lat="44.94189254678332" lon="9.97591572299041"><ele>45.0</ele><time>2026-04-12T09:21:32Z</time></trkpt><trkpt lat="44.94196843653681" lon="9.975957576350572"><ele>45.166666666666664</ele><time>2026-04-12T09:21:33Z</time></trkpt><trkpt lat="44.942046088707386" lon="9.975999933737405"><ele>45.333333333333336</ele><time>2026-04-12T09:21:34Z</time></trkpt><trkpt lat="44.9421253389228" lon="9.976040069656346"><ele>45.5</ele><time>2026-04-12T09:21:35Z</time></trkpt><trkpt lat="44.942204265437695" lon="9.976079837172927"><ele>45.66666666666667</ele><time>2026-04-12T09:21:36Z</time></trkpt><trkpt lat="44.94228243893068" lon="9.976119761181556"><ele>45.833333333333336</ele><time>2026-04-12T09:21:37Z</time></trkpt><trkpt lat="44.94236016611446" lon="9.976162733611796"><ele>46.0</ele><time>2026-04-12T09:21:38Z</time></trkpt><trkpt lat="44.942439498704275" lon="9.976205094445369"><ele>46.0</ele><time>2026-04-12T09:21:39Z</time></trkpt><trkpt lat="44.9425195368037" lon="9.97624670876934"><ele>46.0</ele><time>2026-04-12T09:21:40Z</time></trkpt><trkpt lat="44.94259950058017" lon="9.976288206775992"><ele>46.0</ele><time>2026-04-12T09:21:41Z</time></trkpt><trkpt lat="44.94268103832722" lon="9.976328920217648"><ele>46.0</ele><time>2026-04-12T09:21:42Z</time></trkpt><trkpt lat="44.942763211299194" lon="9.976370467144003"><ele>46.0</ele><time>2026-04-12T09:21:43Z</time></trkpt><trkpt lat="44.94284487003044" lon="9.97641593487592"><ele>46.0</ele><time>2026-04-12T09:21:44Z</time></trkpt><trkpt lat="44.942928626544976" lon="9.976461102099824"><ele>46.16666666666667</ele><time>2026-04-12T09:21:45Z</time></trkpt><trkpt lat="44.94301128815739" lon="9.97650546913661"><ele>46.333333333333336</ele><time>2026-04-12T09:21:46Z</time></trkpt><trkpt lat="44.943094991847346" lon="9.976547608522836"><ele>46.5</ele><time>2026-04-12T09:21:47Z</time></trkpt><trkpt lat="44.9431778448062" lon="9.976589823630597"><ele>46.666666666666664</ele><time>2026-04-12T09:21:48Z</time></trkpt><trkpt lat="44.943261027307564" lon="9.9766352725865"><ele>46.83333333333333</ele><time>2026-04-12T09:21:49Z</time></trkpt><trkpt lat="44.943344633224726" lon="9.97667752830252"><ele>47.0</ele><time>2026-04-12T09:21:50Z</time></trkpt><trkpt lat="44.943427332743084" lon="9.976720210803762"><ele>47.6</ele><time>2026-04-12T09:21:51Z</time></trkpt><trkpt lat="44.9435108080077" lon="9.97676423055929"><ele>48.2</ele><time>2026-04-12T09:21:52Z</time></trkpt><trkpt lat="44.94359505215627" lon="9.976807927496308"><ele>48.8</ele><time>2026-04-12T09:21:53Z</time></trkpt><trkpt lat="44.94368000840532" lon="9.976854320276152"><ele>49.4</ele><time>2026-04-12T09:21:54Z</time></trkpt><trkpt lat="44.94376423091066" lon="9.976898444322014"><ele>50.0</ele><time>2026-04-12T09:21:55Z</time></trkpt><trkpt lat="44.94384890939275" lon="9.976940840905419"><ele>50.0</ele><time>2026-04-12T09:21:56Z</time></trkpt><trkpt lat="44.943933310784715" lon="9.976985701251992"><ele>50.0</ele><time>2026-04-12T09:21:57Z</time></trkpt><trkpt lat="44.94401698423293" lon="9.977031476677652"><ele>50.0</ele><time>2026-04-12T09:21:58Z</time></trkpt><trkpt lat="44.94410389930378" lon="9.977076875068116"><ele>50.0</ele><time>2026-04-12T09:21:59Z</time></trkpt><trkpt lat="44.944190468651975" lon="9.977121296080059"><ele>50.0</ele><time>2026-04-12T09:22:00Z</time></trkpt><trkpt lat="44.944276760525234" lon="9.977169873971867"><ele>50.0</ele><time>2026-04-12T09:22:01Z</time></trkpt><trkpt lat="44.94436242521411" lon="9.977216474792698"><ele>50.0</ele><time>2026-04-12T09:22:02Z</time></trkpt><trkpt lat="44.944448036688485" lon="9.977262007126"><ele>50.0</ele><time>2026-04-12T09:22:03Z</time></trkpt><trkpt lat="44.9445339188775" lon="9.97730784401889"><ele>50.0</ele><time>2026-04-12T09:22:04Z</time></trkpt><trkpt lat="44.94462086684328" lon="9.9773518593667"><ele>50.0</ele><time>2026-04-12T09:22:05Z</time></trkpt><trkpt lat="44.94470701155782" lon="9.97739808901562"><ele>50.0</ele><time>2026-04-12T09:22:06Z</time></trkpt><trkpt lat="44.94479377571634" lon="9.977443933979297"><ele>50.0</ele><time>2026-04-12T09:22:07Z</time></trkpt><trkpt lat="44.94487996538313" lon="9.977489933085918"><ele>50.0</ele><time>2026-04-12T09:22:08Z</time></trkpt><trkpt lat="44.944967486023906" lon="9.977534802318575"><ele>50.0</ele><time>2026-04-12T09:22:09Z</time></trkpt><trkpt lat="44.94505425473593" lon="9.977580626415548"><ele>50.0</ele><time>2026-04-12T09:22:09.999Z</time></trkpt><trkpt lat="44.94514345948741" lon="9.977628637606516"><ele>50.0</ele><time>2026-04-12T09:22:10.999Z</time></trkpt><trkpt lat="44.9452322813725" lon="9.977673812308524"><ele>50.0</ele><time>2026-04-12T09:22:11.999Z</time></trkpt><trkpt lat="44.94532011019272" lon="9.977722742296375"><ele>50.0</ele><time>2026-04-12T09:22:12.999Z</time></trkpt><trkpt lat="44.945408698354484" lon="9.977769872718383"><ele>50.0</ele><time>2026-04-12T09:22:13.999Z</time></trkpt><trkpt lat="44.94549766218278" lon="9.97781793985744"><ele>50.0</ele><time>2026-04-12T09:22:14.999Z</time></trkpt><trkpt lat="44.94558640959821" lon="9.977863877967255"><ele>50.0</ele><time>2026-04-12T09:22:15.999Z</time></trkpt><trkpt lat="44.94567601101977" lon="9.977907743924462"><ele>50.0</ele><time>2026-04-12T09:22:16.999Z</time></trkpt><trkpt lat="44.94576208033703" lon="9.977955683710228"><ele>50.0</ele><time>2026-04-12T09:22:17.999Z</time></trkpt><trkpt lat="44.945850045520494" lon="9.97800241726949"><ele>50.0</ele><time>2026-04-12T09:22:18.999Z</time></trkpt><trkpt lat="44.94593812539656" lon="9.978050532845655"><ele>50.0</ele><time>2026-04-12T09:22:19.999Z</time></trkpt><trkpt lat="44.946027264628235" lon="9.978098185171596"><ele>49.6</ele><time>2026-04-12T09:22:20.999Z</time></trkpt><trkpt lat="44.94611702496714" lon="9.978144975113844"><ele>49.2</ele><time>2026-04-12T09:22:21.999Z</time></trkpt><trkpt lat="44.94620772942392" lon="9.978190484719873"><ele>48.8</ele><time>2026-04-12T09:22:22.999Z</time></trkpt><trkpt lat="44.9462976705502" lon="9.978236787144422"><ele>48.4</ele><time>2026-04-12T09:22:23.999Z</time></trkpt><trkpt lat="44.94638635191477" lon="9.978284212963208"><ele>48.0</ele><time>2026-04-12T09:22:24.999Z</time></trkpt><trkpt lat="44.94647434380147" lon="9.978331697995404"><ele>48.0</ele><time>2026-04-12T09:22:25.999Z</time></trkpt><trkpt lat="44.94656382393961" lon="9.978379962185528"><ele>48.0</ele><time>2026-04-12T09:22:26.999Z</time></trkpt><trkpt lat="44.94665170343489" lon="9.97842778491879"><ele>48.0</ele><time>2026-04-12T09:22:27.999Z</time></trkpt><trkpt lat="44.946740240834316" lon="9.978474909152077"><ele>48.0</ele><time>2026-04-12T09:22:28.999Z</time></trkpt><trkpt lat="44.946827819293816" lon="9.978521314979693"><ele>48.0</ele><time>2026-04-12T09:22:29.999Z</time></trkpt><trkpt lat="44.946915126895" lon="9.978567292066574"><ele>48.0</ele><time>2026-04-12T09:22:30.999Z</time></trkpt><trkpt lat="44.94700282734992" lon="9.978613900166636"><ele>48.0</ele><time>2026-04-12T09:22:31.999Z</time></trkpt><trkpt lat="44.94709177217607" lon="9.978662910746111"><ele>48.0</ele><time>2026-04-12T09:22:32.999Z</time></trkpt><trkpt lat="44.94718072981007" lon="9.978709047439459"><ele>48.0</ele><time>2026-04-12T09:22:33.999Z</time></trkpt><trkpt lat="44.94727035327024" lon="9.978757253417612"><ele>48.0</ele><time>2026-04-12T09:22:34.999Z</time></trkpt><trkpt lat="44.9473583413125" lon="9.97880615891119"><ele>48.0</ele><time>2026-04-12T09:22:35.999Z</time></trkpt><trkpt lat="44.947446552139155" lon="9.978854721024103"><ele>48.0</ele><time>2026-04-12T09:22:36.999Z</time></trkpt><trkpt lat="44.94753540046743" lon="9.978903291462895"><ele>48.0</ele><time>2026-04-12T09:22:37.999Z</time></trkpt><trkpt lat="44.94762458319124" lon="9.978951215881866"><ele>48.0</ele><time>2026-04-12T09:22:38.999Z</time></trkpt><trkpt lat="44.94771432474447" lon="9.97899933847628"><ele>48.0</ele><time>2026-04-12T09:22:39.999Z</time></trkpt><trkpt lat="44.94780379710128" lon="9.979046884677652"><ele>48.0</ele><time>2026-04-12T09:22:40.999Z</time></trkpt><trkpt lat="44.94789225621422" lon="9.979095211453712"><ele>48.0</ele><time>2026-04-12T09:22:41.999Z</time></trkpt><trkpt lat="44.94798088362997" lon="9.979145509612831"><ele>48.0</ele><time>2026-04-12T09:22:42.999Z</time></trkpt><trkpt lat="44.94807196077758" lon="9.979191274860435"><ele>48.0</ele><time>2026-04-12T09:22:43.999Z</time></trkpt><trkpt lat="44.94816189700528" lon="9.979237343786663"><ele>48.0</ele><time>2026-04-12T09:22:44.999Z</time></trkpt><trkpt lat="44.948250869891346" lon="9.979284030558889"><ele>47.8</ele><time>2026-04-12T09:22:45.999Z</time></trkpt><trkpt lat="44.94833989568887" lon="9.979331791328717"><ele>47.599999999999994</ele><time>2026-04-12T09:22:46.999Z</time></trkpt><trkpt lat="44.94842848328907" lon="9.979379514592125"><ele>47.400000000000006</ele><time>2026-04-12T09:22:47.999Z</time></trkpt><trkpt lat="44.94851719444403" lon="9.979425097801021"><ele>47.2</ele><time>2026-04-12T09:22:48.999Z</time></trkpt><trkpt lat="44.948606026367614" lon="9.979468254138057"><ele>47.0</ele><time>2026-04-12T09:22:49.999Z</time></trkpt><trkpt lat="44.94869556210148" lon="9.979511790509596"><ele>46.8</ele><time>2026-04-12T09:22:50.999Z</time></trkpt><trkpt lat="44.948787914309094" lon="9.979546076732275"><ele>46.6</ele><time>2026-04-12T09:22:51.999Z</time></trkpt><trkpt lat="44.9488852013464" lon="9.979575253860832"><ele>46.4</ele><time>2026-04-12T09:22:52.999Z</time></trkpt><trkpt lat="44.94898531531981" lon="9.97958687924426"><ele>46.199999999999996</ele><time>2026-04-12T09:22:53.999Z</time></trkpt><trkpt lat="44.9490861437831" lon="9.979584859574954"><ele>46.0</ele><time>2026-04-12T09:22:54.999Z</time></trkpt><trkpt lat="44.9491915711932" lon="9.979586378833323"><ele>45.8</ele><time>2026-04-12T09:22:55.999Z</time></trkpt><trkpt lat="44.94929834314939" lon="9.97959223883089"><ele>45.599999999999994</ele><time>2026-04-12T09:22:56.999Z</time></trkpt><trkpt lat="44.94940302466145" lon="9.979591352219447"><ele>45.4</ele><time>2026-04-12T09:22:57.999Z</time></trkpt><trkpt lat="44.94950793701719" lon="9.979593431133267"><ele>45.2</ele><time>2026-04-12T09:22:58.999Z</time></trkpt><trkpt lat="44.94961165687937" lon="9.979595823619988"><ele>45.0</ele><time>2026-04-12T09:22:59.999Z</time></trkpt><trkpt lat="44.949715781304484" lon="9.979599970942738"><ele>45.0</ele><time>2026-04-12T09:23:00.999Z</time></trkpt><trkpt lat="44.94982024878667" lon="9.979604194886042"><ele>45.0</ele><time>2026-04-12T09:23:01.999Z</time></trkpt><trkpt lat="44.94992355769176" lon="9.979605833288486"><ele>45.0</ele><time>2026-04-12T09:23:02.999Z</time></trkpt><trkpt lat="44.95002510020181" lon="9.979609974974565"><ele>45.0</ele><time>2026-04-12T09:23:03.998Z</time></trkpt><trkpt lat="44.950128519718746" lon="9.97961367273961"><ele>45.0</ele><time>2026-04-12T09:23:04.998Z</time></trkpt><trkpt lat="44.95023136292169" lon="9.979616941910164"><ele>44.8</ele><time>2026-04-12T09:23:05.998Z</time></trkpt><trkpt lat="44.95033223804013" lon="9.97961833202536"><ele>44.6</ele><time>2026-04-12T09:23:06.998Z</time></trkpt><trkpt lat="44.95043465255299" lon="9.979620001462932"><ele>44.400000000000006</ele><time>2026-04-12T09:23:07.998Z</time></trkpt><trkpt lat="44.95053539937229" lon="9.979622649151976"><ele>44.2</ele><time>2026-04-12T09:23:08.998Z</time></trkpt><trkpt lat="44.950636344767034" lon="9.97962297192872"><ele>44.0</ele><time>2026-04-12T09:23:09.998Z</time></trkpt><trkpt lat="44.95073685985784" lon="9.9796225206784"><ele>44.0</ele><time>2026-04-12T09:23:10.998Z</time></trkpt><trkpt lat="44.95083846368415" lon="9.979621750138751"><ele>44.0</ele><time>2026-04-12T09:23:11.998Z</time></trkpt><trkpt lat="44.9509377235242" lon="9.979620359892767"><ele>44.0</ele><time>2026-04-12T09:23:12.998Z</time></trkpt><trkpt lat="44.95104020019142" lon="9.979630491190843"><ele>44.0</ele><time>2026-04-12T09:23:13.998Z</time></trkpt><trkpt lat="44.951140629442754" lon="9.979655147931581"><ele>44.0</ele><time>2026-04-12T09:23:14.998Z</time></trkpt><trkpt lat="44.9512412265925" lon="9.979685470799868"><ele>44.400000000000006</ele><time>2026-04-12T09:23:15.998Z</time></trkpt><trkpt lat="44.95133893999225" lon="9.979729846276806"><ele>44.8</ele><time>2026-04-12T09:23:16.998Z</time></trkpt><trkpt lat="44.951432605905275" lon="9.979790069200268"><ele>45.2</ele><time>2026-04-12T09:23:17.998Z</time></trkpt><trkpt lat="44.951522645308266" lon="9.979854124272903"><ele>45.599999999999994</ele><time>2026-04-12T09:23:18.998Z</time></trkpt><trkpt lat="44.95161034052303" lon="9.979924099408999"><ele>46.0</ele><time>2026-04-12T09:23:19.998Z</time></trkpt><trkpt lat="44.951697849968724" lon="9.979993886346248"><ele>46.199999999999996</ele><time>2026-04-12T09:23:20.998Z</time></trkpt><trkpt lat="44.95178641313408" lon="9.980062596439286"><ele>46.4</ele><time>2026-04-12T09:23:21.998Z</time></trkpt><trkpt lat="44.951875318837956" lon="9.98013061662276"><ele>46.6</ele><time>2026-04-12T09:23:22.998Z</time></trkpt><trkpt lat="44.95196087526279" lon="9.980203887044286"><ele>46.8</ele><time>2026-04-12T09:23:23.998Z</time></trkpt><trkpt lat="44.952046818641065" lon="9.980276134199856"><ele>47.0</ele><time>2026-04-12T09:23:24.998Z</time></trkpt><trkpt lat="44.952134059975315" lon="9.98034300230356"><ele>47.0</ele><time>2026-04-12T09:23:25.998Z</time></trkpt><trkpt lat="44.9522197492495" lon="9.98041105636493"><ele>47.0</ele><time>2026-04-12T09:23:26.998Z</time></trkpt><trkpt lat="44.95230728832907" lon="9.98047877707529"><ele>47.0</ele><time>2026-04-12T09:23:27.998Z</time></trkpt><trkpt lat="44.95239497750111" lon="9.98054346471038"><ele>47.0</ele><time>2026-04-12T09:23:29Z</time></trkpt><trkpt lat="44.95248044248148" lon="9.980610953507531"><ele>47.0</ele><time>2026-04-12T09:23:30Z</time></trkpt><trkpt lat="44.95256718476247" lon="9.980681801226181"><ele>46.8</ele><time>2026-04-12T09:23:31Z</time></trkpt><trkpt lat="44.95265294528499" lon="9.980750133531442"><ele>46.6</ele><time>2026-04-12T09:23:32Z</time></trkpt><trkpt lat="44.95273846598279" lon="9.980817601991262"><ele>46.4</ele><time>2026-04-12T09:23:33Z</time></trkpt><trkpt lat="44.95282500590285" lon="9.980885571213518"><ele>46.199999999999996</ele><time>2026-04-12T09:23:34Z</time></trkpt><trkpt lat="44.952911049993176" lon="9.980952489950859"><ele>46.0</ele><time>2026-04-12T09:23:35Z</time></trkpt><trkpt lat="44.952995638730414" lon="9.981020430657061"><ele>46.0</ele><time>2026-04-12T09:23:36Z</time></trkpt><trkpt lat="44.95308086103558" lon="9.981088884556293"><ele>46.0</ele><time>2026-04-12T09:23:37Z</time></trkpt><trkpt lat="44.953165375430714" lon="9.98115627842858"><ele>46.0</ele><time>2026-04-12T09:23:38Z</time></trkpt><trkpt lat="44.95325002558084" lon="9.981226158017039"><ele>46.0</ele><time>2026-04-12T09:23:39Z</time></trkpt><trkpt lat="44.9533355535442" lon="9.981294144217474"><ele>46.0</ele><time>2026-04-12T09:23:40Z</time></trkpt><trkpt lat="44.953420480751134" lon="9.981362144308955"><ele>46.0</ele><time>2026-04-12T09:23:41Z</time></trkpt><trkpt lat="44.95350582333162" lon="9.981427990018222"><ele>46.0</ele><time>2026-04-12T09:23:42Z</time></trkpt><trkpt lat="44.95358965929167" lon="9.981491296522032"><ele>46.0</ele><time>2026-04-12T09:23:43Z</time></trkpt><trkpt lat="44.95367342412509" lon="9.981552963317574"><ele>46.0</ele><time>2026-04-12T09:23:44Z</time></trkpt><trkpt lat="44.95375684466096" lon="9.981619041751285"><ele>46.0</ele><time>2026-04-12T09:23:45Z</time></trkpt><trkpt lat="44.95384183279151" lon="9.981682344147519"><ele>46.199999999999996</ele><time>2026-04-12T09:23:46Z</time></trkpt><trkpt lat="44.953927078745906" lon="9.981746637952835"><ele>46.4</ele><time>2026-04-12T09:23:47Z</time></trkpt><trkpt lat="44.95401245783158" lon="9.981813818313034"><ele>46.6</ele><time>2026-04-12T09:23:48Z</time></trkpt><trkpt lat="44.95409777369625" lon="9.981878979836285"><ele>46.8</ele><time>2026-04-12T09:23:49Z</time></trkpt><trkpt lat="44.954184349207296" lon="9.981945360872826"><ele>47.0</ele><time>2026-04-12T09:23:50Z</time></trkpt><trkpt lat="44.95427260544748" lon="9.982009346285162"><ele>47.0</ele><time>2026-04-12T09:23:51Z</time></trkpt><trkpt lat="44.95435971660488" lon="9.982074151682026"><ele>47.0</ele><time>2026-04-12T09:23:52Z</time></trkpt><trkpt lat="44.95444770579568" lon="9.98214335932089"><ele>47.0</ele><time>2026-04-12T09:23:53Z</time></trkpt><trkpt lat="44.95453506417863" lon="9.982214245421355"><ele>47.0</ele><time>2026-04-12T09:23:54Z</time></trkpt><trkpt lat="44.954622643127024" lon="9.982286336781915"><ele>47.0</ele><time>2026-04-12T09:23:55Z</time></trkpt><trkpt lat="44.95470678516374" lon="9.982360777614868"><ele>47.0</ele><time>2026-04-12T09:23:56Z</time></trkpt><trkpt lat="44.95479219389528" lon="9.982434458300643"><ele>47.0</ele><time>2026-04-12T09:23:57Z</time></trkpt><trkpt lat="44.95487587355496" lon="9.982506441681707"><ele>47.0</ele><time>2026-04-12T09:23:58Z</time></trkpt><trkpt lat="44.954960578075216" lon="9.982578897660765"><ele>47.0</ele><time>2026-04-12T09:23:59Z</time></trkpt><trkpt lat="44.955044044694205" lon="9.982652599192281"><ele>47.0</ele><time>2026-04-12T09:24:00Z</time></trkpt><trkpt lat="44.95512636162503" lon="9.982724468914954"><ele>46.6</ele><time>2026-04-12T09:24:01Z</time></trkpt><trkpt lat="44.95520974197274" lon="9.98279419660927"><ele>46.2</ele><time>2026-04-12T09:24:02Z</time></trkpt><trkpt lat="44.95529157321322" lon="9.982862021459063"><ele>45.8</ele><time>2026-04-12T09:24:03Z</time></trkpt><trkpt lat="44.955375054522996" lon="9.9829327325467"><ele>45.4</ele><time>2026-04-12T09:24:04Z</time></trkpt><trkpt lat="44.95545881096364" lon="9.983002661673757"><ele>45.0</ele><time>2026-04-12T09:24:05Z</time></trkpt><trkpt lat="44.95554066374223" lon="9.983074140301701"><ele>45.0</ele><time>2026-04-12T09:24:06Z</time></trkpt><trkpt lat="44.95562312411141" lon="9.98314492448193"><ele>45.0</ele><time>2026-04-12T09:24:07Z</time></trkpt><trkpt lat="44.95570504926174" lon="9.983216112973807"><ele>45.0</ele><time>2026-04-12T09:24:08Z</time></trkpt><trkpt lat="44.955787719108194" lon="9.98328777917508"><ele>45.0</ele><time>2026-04-12T09:24:09Z</time></trkpt><trkpt lat="44.95587024199571" lon="9.983356014902785"><ele>45.0</ele><time>2026-04-12T09:24:10Z</time></trkpt><trkpt lat="44.95595225127548" lon="9.983428305330925"><ele>44.8</ele><time>2026-04-12T09:24:11Z</time></trkpt><trkpt lat="44.956036500759005" lon="9.983499465364659"><ele>44.6</ele><time>2026-04-12T09:24:11.999Z</time></trkpt><trkpt lat="44.95612027423576" lon="9.983566151623496"><ele>44.400000000000006</ele><time>2026-04-12T09:24:12.999Z</time></trkpt><trkpt lat="44.95620351296603" lon="9.983634546106932"><ele>44.2</ele><time>2026-04-12T09:24:13.999Z</time></trkpt><trkpt lat="44.956286150653234" lon="9.983703365800068"><ele>44.0</ele><time>2026-04-12T09:24:14.999Z</time></trkpt><trkpt lat="44.956366462564816" lon="9.983782840698863"><ele>44.0</ele><time>2026-04-12T09:24:15.999Z</time></trkpt><trkpt lat="44.95644830608619" lon="9.983852086343315"><ele>44.0</ele><time>2026-04-12T09:24:16.999Z</time></trkpt><trkpt lat="44.95653120929278" lon="9.983919687035065"><ele>44.0</ele><time>2026-04-12T09:24:17.999Z</time></trkpt><trkpt lat="44.9566131825205" lon="9.983986278214747"><ele>44.0</ele><time>2026-04-12T09:24:18.999Z</time></trkpt><trkpt lat="44.95669404526841" lon="9.984049847031896"><ele>44.0</ele><time>2026-04-12T09:24:19.999Z</time></trkpt><trkpt lat="44.956775075171024" lon="9.984115784364011"><ele>44.400000000000006</ele><time>2026-04-12T09:24:20.999Z</time></trkpt><trkpt lat="44.956856616581945" lon="9.984185264010248"><ele>44.8</ele><time>2026-04-12T09:24:21.999Z</time></trkpt><trkpt lat="44.95694396347384" lon="9.984252490956035"><ele>45.2</ele><time>2026-04-12T09:24:22.999Z</time></trkpt><trkpt lat="44.9570308260666" lon="9.984318129480728"><ele>45.599999999999994</ele><time>2026-04-12T09:24:23.999Z</time></trkpt><trkpt lat="44.95711849235654" lon="9.984382671562836"><ele>46.0</ele><time>2026-04-12T09:24:24.999Z</time></trkpt><trkpt lat="44.95720611858374" lon="9.98444771495035"><ele>46.0</ele><time>2026-04-12T09:24:25.999Z</time></trkpt><trkpt lat="44.95729194299113" lon="9.984514751843916"><ele>46.0</ele><time>2026-04-12T09:24:26.999Z</time></trkpt><trkpt lat="44.95737509025425" lon="9.984585087130554"><ele>46.0</ele><time>2026-04-12T09:24:27.999Z</time></trkpt><trkpt lat="44.95745992683909" lon="9.984655080422135"><ele>46.0</ele><time>2026-04-12T09:24:28.999Z</time></trkpt><trkpt lat="44.957545426427934" lon="9.984721111084923"><ele>46.0</ele><time>2026-04-12T09:24:29.999Z</time></trkpt><trkpt lat="44.9576288076148" lon="9.98478803867752"><ele>45.8</ele><time>2026-04-12T09:24:30.999Z</time></trkpt><trkpt lat="44.957714643065664" lon="9.984855585211099"><ele>45.599999999999994</ele><time>2026-04-12T09:24:31.999Z</time></trkpt><trkpt lat="44.95779909999077" lon="9.984923705782629"><ele>45.4</ele><time>2026-04-12T09:24:32.999Z</time></trkpt><trkpt lat="44.95788291870351" lon="9.984990958629808"><ele>45.2</ele><time>2026-04-12T09:24:33.999Z</time></trkpt><trkpt lat="44.95796666666605" lon="9.985058597258677"><ele>45.0</ele><time>2026-04-12T09:24:34.999Z</time></trkpt><trkpt lat="44.95804995665811" lon="9.985126809495824"><ele>45.2</ele><time>2026-04-12T09:24:35.999Z</time></trkpt><trkpt lat="44.95813333777054" lon="9.985193544991237"><ele>45.4</ele><time>2026-04-12T09:24:36.999Z</time></trkpt><trkpt lat="44.9582162326893" lon="9.985260199241242"><ele>45.599999999999994</ele><time>2026-04-12T09:24:37.999Z</time></trkpt><trkpt lat="44.95830042192364" lon="9.985324987962793"><ele>45.8</ele><time>2026-04-12T09:24:38.999Z</time></trkpt><trkpt lat="44.95838659398218" lon="9.98539211601757"><ele>46.0</ele><time>2026-04-12T09:24:39.999Z</time></trkpt><trkpt lat="44.95847081734564" lon="9.985458439917036"><ele>46.0</ele><time>2026-04-12T09:24:40.999Z</time></trkpt><trkpt lat="44.95855641182411" lon="9.985527981187621"><ele>46.0</ele><time>2026-04-12T09:24:41.999Z</time></trkpt><trkpt lat="44.9586427705745" lon="9.985597873646629"><ele>46.0</ele><time>2026-04-12T09:24:42.999Z</time></trkpt><trkpt lat="44.95872729992874" lon="9.985663785846793"><ele>46.0</ele><time>2026-04-12T09:24:43.999Z</time></trkpt><trkpt lat="44.95881176819797" lon="9.985734194260989"><ele>46.0</ele><time>2026-04-12T09:24:44.999Z</time></trkpt><trkpt lat="44.958896627039884" lon="9.985801368075483"><ele>46.0</ele><time>2026-04-12T09:24:45.999Z</time></trkpt><trkpt lat="44.9589806482093" lon="9.985870224751743"><ele>46.0</ele><time>2026-04-12T09:24:46.999Z</time></trkpt><trkpt lat="44.95906489605481" lon="9.98593894699341"><ele>46.0</ele><time>2026-04-12T09:24:47.999Z</time></trkpt><trkpt lat="44.9591475047945" lon="9.986006306567614"><ele>46.0</ele><time>2026-04-12T09:24:48.999Z</time></trkpt><trkpt lat="44.9592308012748" lon="9.986075545001006"><ele>46.0</ele><time>2026-04-12T09:24:49.999Z</time></trkpt><trkpt lat="44.9593167434062" lon="9.986144107108595"><ele>45.8</ele><time>2026-04-12T09:24:50.999Z</time></trkpt><trkpt lat="44.959403061991445" lon="9.986211942604461"><ele>45.599999999999994</ele><time>2026-04-12T09:24:51.999Z</time></trkpt><trkpt lat="44.95948828751792" lon="9.98628331100516"><ele>45.4</ele><time>2026-04-12T09:24:52.999Z</time></trkpt><trkpt lat="44.959574052978034" lon="9.986351731385705"><ele>45.2</ele><time>2026-04-12T09:24:53.999Z</time></trkpt><trkpt lat="44.95965916450554" lon="9.986418617850276"><ele>45.0</ele><time>2026-04-12T09:24:54.999Z</time></trkpt><trkpt lat="44.95974455157377" lon="9.986489217095983"><ele>45.0</ele><time>2026-04-12T09:24:55.999Z</time></trkpt><trkpt lat="44.95983017190378" lon="9.986561744625929"><ele>45.0</ele><time>2026-04-12T09:24:56.999Z</time></trkpt><trkpt lat="44.95991747391641" lon="9.986628520396145"><ele>45.0</ele><time>2026-04-12T09:24:57.999Z</time></trkpt><trkpt lat="44.960003978015" lon="9.986697927469393"><ele>45.0</ele><time>2026-04-12T09:24:58.999Z</time></trkpt><trkpt lat="44.9600888966638" lon="9.98676822603273"><ele>45.0</ele><time>2026-04-12T09:24:59.999Z</time></trkpt><trkpt lat="44.960173898149435" lon="9.986835373113887"><ele>44.6</ele><time>2026-04-12T09:25:00.999Z</time></trkpt><trkpt lat="44.96025930231524" lon="9.986902822731919"><ele>44.2</ele><time>2026-04-12T09:25:01.999Z</time></trkpt><trkpt lat="44.9603425965015" lon="9.986969884773643"><ele>43.8</ele><time>2026-04-12T09:25:02.999Z</time></trkpt><trkpt lat="44.96042566065333" lon="9.987034791920228"><ele>43.4</ele><time>2026-04-12T09:25:03.999Z</time></trkpt><trkpt lat="44.960508286395616" lon="9.987103048295388"><ele>43.0</ele><time>2026-04-12T09:25:04.998Z</time></trkpt><trkpt lat="44.960591523170216" lon="9.987169550924163"><ele>43.0</ele><time>2026-04-12T09:25:05.998Z</time></trkpt><trkpt lat="44.96067479349047" lon="9.987238084364334"><ele>43.0</ele><time>2026-04-12T09:25:06.998Z</time></trkpt><trkpt lat="44.96075744660553" lon="9.98731311803995"><ele>43.0</ele><time>2026-04-12T09:25:07.998Z</time></trkpt><trkpt lat="44.96084038543146" lon="9.987378164507813"><ele>43.0</ele><time>2026-04-12T09:25:08.998Z</time></trkpt><trkpt lat="44.96092264519799" lon="9.987446182196635"><ele>43.0</ele><time>2026-04-12T09:25:09.998Z</time></trkpt><trkpt lat="44.96100550161576" lon="9.987515106694628"><ele>43.4</ele><time>2026-04-12T09:25:10.998Z</time></trkpt><trkpt lat="44.96108814207472" lon="9.987584801919203"><ele>43.8</ele><time>2026-04-12T09:25:11.998Z</time></trkpt><trkpt lat="44.96117123169614" lon="9.987652210154431"><ele>44.2</ele><time>2026-04-12T09:25:12.998Z</time></trkpt><trkpt lat="44.961251777079966" lon="9.987722934906383"><ele>44.6</ele><time>2026-04-12T09:25:13.998Z</time></trkpt><trkpt lat="44.96133420186824" lon="9.987794118196728"><ele>45.0</ele><time>2026-04-12T09:25:14.998Z</time></trkpt><trkpt lat="44.96141787739076" lon="9.987855509020687"><ele>45.0</ele><time>2026-04-12T09:25:15.998Z</time></trkpt><trkpt lat="44.961500399289065" lon="9.987924181863706"><ele>45.0</ele><time>2026-04-12T09:25:16.998Z</time></trkpt><trkpt lat="44.96158333158361" lon="9.987991829152795"><ele>45.0</ele><time>2026-04-12T09:25:17.998Z</time></trkpt><trkpt lat="44.9616649828359" lon="9.988059325635124"><ele>45.0</ele><time>2026-04-12T09:25:18.998Z</time></trkpt><trkpt lat="44.96174911613554" lon="9.988129358399519"><ele>45.0</ele><time>2026-04-12T09:25:19.998Z</time></trkpt><trkpt lat="44.96183072636396" lon="9.988197118825761"><ele>45.0</ele><time>2026-04-12T09:25:20.998Z</time></trkpt><trkpt lat="44.96191283499954" lon="9.98826874312341"><ele>45.0</ele><time>2026-04-12T09:25:21.998Z</time></trkpt><trkpt lat="44.96199620477724" lon="9.98834072058878"><ele>45.0</ele><time>2026-04-12T09:25:22.998Z</time></trkpt><trkpt lat="44.9620790551505" lon="9.988408782386466"><ele>45.0</ele><time>2026-04-12T09:25:23.998Z</time></trkpt><trkpt lat="44.962163027030385" lon="9.988478249674335"><ele>45.0</ele><time>2026-04-12T09:25:24.998Z</time></trkpt><trkpt lat="44.962248166159526" lon="9.988545561663376"><ele>45.0</ele><time>2026-04-12T09:25:25.998Z</time></trkpt><trkpt lat="44.96232964591658" lon="9.98861435867423"><ele>45.0</ele><time>2026-04-12T09:25:26.998Z</time></trkpt><trkpt lat="44.96241157654557" lon="9.988683442480387"><ele>45.0</ele><time>2026-04-12T09:25:27.998Z</time></trkpt><trkpt lat="44.96249438162263" lon="9.988751642961018"><ele>45.0</ele><time>2026-04-12T09:25:28.998Z</time></trkpt><trkpt lat="44.96257841506251" lon="9.98882080292689"><ele>45.0</ele><time>2026-04-12T09:25:29.998Z</time></trkpt><trkpt lat="44.96266208346808" lon="9.988889815841413"><ele>45.0</ele><time>2026-04-12T09:25:30.998Z</time></trkpt><trkpt lat="44.962746428022406" lon="9.988955816670716"><ele>45.0</ele><time>2026-04-12T09:25:31.998Z</time></trkpt><trkpt lat="44.96283123841972" lon="9.989026080608228"><ele>45.0</ele><time>2026-04-12T09:25:32.998Z</time></trkpt><trkpt lat="44.962916044042416" lon="9.98909719995394"><ele>45.0</ele><time>2026-04-12T09:25:33.998Z</time></trkpt><trkpt lat="44.96300096599236" lon="9.989167602574568"><ele>45.0</ele><time>2026-04-12T09:25:35Z</time></trkpt><trkpt lat="44.96308700177468" lon="9.989238325374924"><ele>45.4</ele><time>2026-04-12T09:25:36Z</time></trkpt><trkpt lat="44.963172046230035" lon="9.98930570730557"><ele>45.8</ele><time>2026-04-12T09:25:37Z</time></trkpt><trkpt lat="44.96325621027131" lon="9.989373322988007"><ele>46.2</ele><time>2026-04-12T09:25:38Z</time></trkpt><trkpt lat="44.96334196052815" lon="9.98944213822585"><ele>46.6</ele><time>2026-04-12T09:25:39Z</time></trkpt><trkpt lat="44.96342685842539" lon="9.989509106675122"><ele>47.0</ele><time>2026-04-12T09:25:40Z</time></trkpt><trkpt lat="44.963510284758904" lon="9.989576474409262"><ele>46.2</ele><time>2026-04-12T09:25:41Z</time></trkpt><trkpt lat="44.963594287077704" lon="9.989647256745476"><ele>45.400000000000006</ele><time>2026-04-12T09:25:42Z</time></trkpt><trkpt lat="44.963678176742214" lon="9.989715397487824"><ele>44.599999999999994</ele><time>2026-04-12T09:25:43Z</time></trkpt><trkpt lat="44.96376045204054" lon="9.989781845958367"><ele>43.8</ele><time>2026-04-12T09:25:44Z</time></trkpt><trkpt lat="44.963844840418716" lon="9.989846812374271"><ele>43.0</ele><time>2026-04-12T09:25:45Z</time></trkpt><trkpt lat="44.963927580299504" lon="9.989909597053613"><ele>43.0</ele><time>2026-04-12T09:25:46Z</time></trkpt><trkpt lat="44.964009710848515" lon="9.98997218692843"><ele>43.0</ele><time>2026-04-12T09:25:47Z</time></trkpt><trkpt lat="44.96409094767407" lon="9.99004059074331"><ele>43.0</ele><time>2026-04-12T09:25:48Z</time></trkpt><trkpt lat="44.964169921054086" lon="9.990110874744637"><ele>43.0</ele><time>2026-04-12T09:25:49Z</time></trkpt><trkpt lat="44.96424978788249" lon="9.990183836950521"><ele>43.0</ele><time>2026-04-12T09:25:50Z</time></trkpt><trkpt lat="44.96432894017739" lon="9.990254445656273"><ele>43.333333333333336</ele><time>2026-04-12T09:25:51Z</time></trkpt><trkpt lat="44.96440864489233" lon="9.990317155984307"><ele>43.66666666666667</ele><time>2026-04-12T09:25:52Z</time></trkpt><trkpt lat="44.964490137136444" lon="9.990365086162603"><ele>44.0</ele><time>2026-04-12T09:25:53Z</time></trkpt><trkpt lat="44.96457216533978" lon="9.990390672504065"><ele>44.333333333333336</ele><time>2026-04-12T09:25:54Z</time></trkpt><trkpt lat="44.96465400965577" lon="9.990342313279793"><ele>44.666666666666664</ele><time>2026-04-12T09:25:55Z</time></trkpt><trkpt lat="44.96470105604674" lon="9.990223890989478"><ele>45.0</ele><time>2026-04-12T09:25:56Z</time></trkpt><trkpt lat="44.96473643455049" lon="9.990116625346733"><ele>44.833333333333336</ele><time>2026-04-12T09:25:57Z</time></trkpt><trkpt lat="44.964769806874465" lon="9.990006734806723"><ele>44.666666666666664</ele><time>2026-04-12T09:25:58Z</time></trkpt><trkpt lat="44.96480646208972" lon="9.989900692056988"><ele>44.5</ele><time>2026-04-12T09:25:59Z</time></trkpt><trkpt lat="44.96484514165542" lon="9.989789298102885"><ele>44.33333333333333</ele><time>2026-04-12T09:26:00Z</time></trkpt><trkpt lat="44.964884473752285" lon="9.989679953173454"><ele>44.166666666666664</ele><time>2026-04-12T09:26:01Z</time></trkpt><trkpt lat="44.964925300236914" lon="9.989571996472657"><ele>44.0</ele><time>2026-04-12T09:26:02Z</time></trkpt><trkpt lat="44.96496558734835" lon="9.989464827411716"><ele>44.0</ele><time>2026-04-12T09:26:03Z</time></trkpt><trkpt lat="44.965006765209836" lon="9.989358266032388"><ele>44.0</ele><time>2026-04-12T09:26:04Z</time></trkpt><trkpt lat="44.96504987120926" lon="9.989255402242474"><ele>44.0</ele><time>2026-04-12T09:26:05Z</time></trkpt><trkpt lat="44.96510369235111" lon="9.98916503754012"><ele>44.0</ele><time>2026-04-12T09:26:06Z</time></trkpt><trkpt lat="44.96517018170238" lon="9.98909564798545"><ele>44.0</ele><time>2026-04-12T09:26:07Z</time></trkpt><trkpt lat="44.96525612051874" lon="9.989091664262112"><ele>44.0</ele><time>2026-04-12T09:26:08Z</time></trkpt><trkpt lat="44.965339784408286" lon="9.98906389607807"><ele>44.33333333333333</ele><time>2026-04-12T09:26:09Z</time></trkpt><trkpt lat="44.96542592894797" lon="9.989061073459704"><ele>44.666666666666664</ele><time>2026-04-12T09:26:10Z</time></trkpt><trkpt lat="44.96551101961422" lon="9.989040982599631"><ele>45.0</ele><time>2026-04-12T09:26:11Z</time></trkpt><trkpt lat="44.965596060216825" lon="9.989017078100154"><ele>45.333333333333336</ele><time>2026-04-12T09:26:12Z</time></trkpt><trkpt lat="44.96568335061377" lon="9.988997987972907"><ele>45.66666666666667</ele><time>2026-04-12T09:26:13Z</time></trkpt><trkpt lat="44.96577270827018" lon="9.988974638465631"><ele>46.0</ele><time>2026-04-12T09:26:14Z</time></trkpt><trkpt lat="44.96586213314137" lon="9.988950702562583"><ele>46.0</ele><time>2026-04-12T09:26:15Z</time></trkpt><trkpt lat="44.96595300131735" lon="9.988927306759622"><ele>46.0</ele><time>2026-04-12T09:26:15.999Z</time></trkpt><trkpt lat="44.966044124244604" lon="9.988905164725521"><ele>46.0</ele><time>2026-04-12T09:26:16.999Z</time></trkpt><trkpt lat="44.96613492388706" lon="9.988885804720642"><ele>46.0</ele><time>2026-04-12T09:26:17.999Z</time></trkpt><trkpt lat="44.96622629776543" lon="9.988868026129637"><ele>46.0</ele><time>2026-04-12T09:26:18.999Z</time></trkpt><trkpt lat="44.96631789024928" lon="9.988848555480034"><ele>46.0</ele><time>2026-04-12T09:26:19.999Z</time></trkpt><trkpt lat="44.96640786041916" lon="9.988832272344817"><ele>46.0</ele><time>2026-04-12T09:26:20.999Z</time></trkpt><trkpt lat="44.966498817624995" lon="9.988813676014262"><ele>46.0</ele><time>2026-04-12T09:26:21.999Z</time></trkpt><trkpt lat="44.96658912939186" lon="9.98879296308185"><ele>46.0</ele><time>2026-04-12T09:26:22.999Z</time></trkpt><trkpt lat="44.966679160193614" lon="9.988769578605257"><ele>46.0</ele><time>2026-04-12T09:26:23.999Z</time></trkpt><trkpt lat="44.96676676868364" lon="9.98874374784527"><ele>46.0</ele><time>2026-04-12T09:26:24.999Z</time></trkpt><trkpt lat="44.966857250418265" lon="9.98872185164709"><ele>46.0</ele><time>2026-04-12T09:26:25.999Z</time></trkpt><trkpt lat="44.966947073433694" lon="9.988701383813336"><ele>46.0</ele><time>2026-04-12T09:26:26.999Z</time></trkpt><trkpt lat="44.9670355549181" lon="9.988680776651783"><ele>46.0</ele><time>2026-04-12T09:26:27.999Z</time></trkpt><trkpt lat="44.967124976348146" lon="9.988661163821389"><ele>46.0</ele><time>2026-04-12T09:26:28.999Z</time></trkpt><trkpt lat="44.96721559473398" lon="9.988637532813689"><ele>46.0</ele><time>2026-04-12T09:26:29.999Z</time></trkpt><trkpt lat="44.967308193544554" lon="9.988617512433846"><ele>46.0</ele><time>2026-04-12T09:26:30.999Z</time></trkpt><trkpt lat="44.967398932789514" lon="9.988595726052413"><ele>46.0</ele><time>2026-04-12T09:26:31.999Z</time></trkpt><trkpt lat="44.96749017478673" lon="9.988573097338145"><ele>46.0</ele><time>2026-04-12T09:26:32.999Z</time></trkpt><trkpt lat="44.96757996947291" lon="9.988551883259406"><ele>46.0</ele><time>2026-04-12T09:26:33.999Z</time></trkpt><trkpt lat="44.96766895081897" lon="9.988530825248633"><ele>45.599999999999994</ele><time>2026-04-12T09:26:34.999Z</time></trkpt><trkpt lat="44.967755678791605" lon="9.988510036798633"><ele>45.2</ele><time>2026-04-12T09:26:35.999Z</time></trkpt><trkpt lat="44.967845070996745" lon="9.988488179628314"><ele>44.8</ele><time>2026-04-12T09:26:36.999Z</time></trkpt><trkpt lat="44.96793291390885" lon="9.988464884028684"><ele>44.400000000000006</ele><time>2026-04-12T09:26:37.999Z</time></trkpt><trkpt lat="44.968020617682974" lon="9.988443789436491"><ele>44.0</ele><time>2026-04-12T09:26:38.999Z</time></trkpt><trkpt lat="44.96811266839395" lon="9.988421952759802"><ele>44.0</ele><time>2026-04-12T09:26:39.999Z</time></trkpt><trkpt lat="44.96820278335927" lon="9.98840008647237"><ele>44.0</ele><time>2026-04-12T09:26:40.999Z</time></trkpt><trkpt lat="44.96829167266242" lon="9.988380499461615"><ele>44.0</ele><time>2026-04-12T09:26:41.999Z</time></trkpt><trkpt lat="44.96838407621652" lon="9.98836076870557"><ele>44.0</ele><time>2026-04-12T09:26:42.999Z</time></trkpt><trkpt lat="44.96847356064969" lon="9.988334553921069"><ele>44.0</ele><time>2026-04-12T09:26:43.999Z</time></trkpt><trkpt lat="44.968565017297536" lon="9.988313747833944"><ele>44.400000000000006</ele><time>2026-04-12T09:26:44.999Z</time></trkpt><trkpt lat="44.968654881616665" lon="9.988292342008402"><ele>44.8</ele><time>2026-04-12T09:26:45.999Z</time></trkpt><trkpt lat="44.968743547568145" lon="9.988272786877188"><ele>45.2</ele><time>2026-04-12T09:26:46.999Z</time></trkpt><trkpt lat="44.96883519452898" lon="9.98824934663885"><ele>45.599999999999994</ele><time>2026-04-12T09:26:47.999Z</time></trkpt><trkpt lat="44.96892605284448" lon="9.988226523636637"><ele>46.0</ele><time>2026-04-12T09:26:48.999Z</time></trkpt><trkpt lat="44.96901770383354" lon="9.988200275162177"><ele>46.0</ele><time>2026-04-12T09:26:49.999Z</time></trkpt><trkpt lat="44.96911206572566" lon="9.988177282404907"><ele>46.0</ele><time>2026-04-12T09:26:50.999Z</time></trkpt><trkpt lat="44.9692044125558" lon="9.988152747834118"><ele>46.0</ele><time>2026-04-12T09:26:51.999Z</time></trkpt><trkpt lat="44.96929642979938" lon="9.98812987510779"><ele>46.0</ele><time>2026-04-12T09:26:52.999Z</time></trkpt><trkpt lat="44.96938698911154" lon="9.98810779241441"><ele>46.0</ele><time>2026-04-12T09:26:53.999Z</time></trkpt><trkpt lat="44.96947969353202" lon="9.988083951966027"><ele>46.0</ele><time>2026-04-12T09:26:54.999Z</time></trkpt><trkpt lat="44.969571944466225" lon="9.988063038848603"><ele>46.0</ele><time>2026-04-12T09:26:55.999Z</time></trkpt><trkpt lat="44.96966539178994" lon="9.98805418891842"><ele>46.0</ele><time>2026-04-12T09:26:56.999Z</time></trkpt><trkpt lat="44.96976211441767" lon="9.988054966258925"><ele>46.0</ele><time>2026-04-12T09:26:57.999Z</time></trkpt><trkpt lat="44.9698581711676" lon="9.988069171779568"><ele>46.0</ele><time>2026-04-12T09:26:58.999Z</time></trkpt><trkpt lat="44.969955575610456" lon="9.988088882484552"><ele>45.599999999999994</ele><time>2026-04-12T09:26:59.999Z</time></trkpt><trkpt lat="44.970048572895124" lon="9.988112821502934"><ele>45.2</ele><time>2026-04-12T09:27:00.999Z</time></trkpt><trkpt lat="44.970144020359136" lon="9.988141765297662"><ele>44.8</ele><time>2026-04-12T09:27:01.999Z</time></trkpt><trkpt lat="44.970235584574404" lon="9.988169279233949"><ele>44.400000000000006</ele><time>2026-04-12T09:27:02.999Z</time></trkpt><trkpt lat="44.970328277737266" lon="9.988197965726584"><ele>44.0</ele><time>2026-04-12T09:27:03.999Z</time></trkpt><trkpt lat="44.97041975924486" lon="9.988226134034587"><ele>44.0</ele><time>2026-04-12T09:27:04.999Z</time></trkpt><trkpt lat="44.9705120784712" lon="9.988258442149203"><ele>44.0</ele><time>2026-04-12T09:27:05.999Z</time></trkpt><trkpt lat="44.970601907143255" lon="9.988293797942015"><ele>44.0</ele><time>2026-04-12T09:27:06.999Z</time></trkpt><trkpt lat="44.970691131834656" lon="9.988337974938103"><ele>44.0</ele><time>2026-04-12T09:27:07.999Z</time></trkpt><trkpt lat="44.97077619762261" lon="9.988399322353208"><ele>44.0</ele><time>2026-04-12T09:27:08.998Z</time></trkpt><trkpt lat="44.970856951904864" lon="9.988473313717146"><ele>44.0</ele><time>2026-04-12T09:27:09.998Z</time></trkpt><trkpt lat="44.97093373453062" lon="9.988550728487631"><ele>44.0</ele><time>2026-04-12T09:27:10.998Z</time></trkpt><trkpt lat="44.971011242150034" lon="9.988629558441854"><ele>44.0</ele><time>2026-04-12T09:27:11.998Z</time></trkpt><trkpt lat="44.97109123908454" lon="9.988697843462498"><ele>44.0</ele><time>2026-04-12T09:27:12.998Z</time></trkpt><trkpt lat="44.971171525994414" lon="9.988761300392651"><ele>44.0</ele><time>2026-04-12T09:27:13.998Z</time></trkpt><trkpt lat="44.971250936100304" lon="9.98883142739608"><ele>44.0</ele><time>2026-04-12T09:27:14.998Z</time></trkpt><trkpt lat="44.97132742108598" lon="9.98890085463714"><ele>44.0</ele><time>2026-04-12T09:27:15.998Z</time></trkpt><trkpt lat="44.97140832361009" lon="9.988971975178151"><ele>44.0</ele><time>2026-04-12T09:27:16.998Z</time></trkpt><trkpt lat="44.97148677257905" lon="9.989042074333362"><ele>44.0</ele><time>2026-04-12T09:27:17.998Z</time></trkpt><trkpt lat="44.971565806991" lon="9.989115261820388"><ele>44.0</ele><time>2026-04-12T09:27:18.998Z</time></trkpt><trkpt lat="44.97164128230416" lon="9.989190229334753"><ele>44.2</ele><time>2026-04-12T09:27:19.998Z</time></trkpt><trkpt lat="44.97172069407602" lon="9.989263100970312"><ele>44.400000000000006</ele><time>2026-04-12T09:27:20.998Z</time></trkpt><trkpt lat="44.97179933681608" lon="9.989329499256025"><ele>44.6</ele><time>2026-04-12T09:27:21.998Z</time></trkpt><trkpt lat="44.97187578908716" lon="9.989398737888278"><ele>44.8</ele><time>2026-04-12T09:27:22.998Z</time></trkpt><trkpt lat="44.97195515744543" lon="9.989469625171253"><ele>45.0</ele><time>2026-04-12T09:27:23.998Z</time></trkpt><trkpt lat="44.972033360397155" lon="9.989539120106722"><ele>45.0</ele><time>2026-04-12T09:27:24.998Z</time></trkpt><trkpt lat="44.97211241560521" lon="9.989610066396024"><ele>45.0</ele><time>2026-04-12T09:27:25.998Z</time></trkpt><trkpt lat="44.972191283925866" lon="9.989679926294832"><ele>45.0</ele><time>2026-04-12T09:27:26.998Z</time></trkpt><trkpt lat="44.972269272472914" lon="9.989748670678782"><ele>45.0</ele><time>2026-04-12T09:27:27.998Z</time></trkpt><trkpt lat="44.97234893920428" lon="9.989815415016972"><ele>45.0</ele><time>2026-04-12T09:27:28.998Z</time></trkpt><trkpt lat="44.97242822156095" lon="9.989877713710948"><ele>45.0</ele><time>2026-04-12T09:27:29.998Z</time></trkpt><trkpt lat="44.97250942270005" lon="9.989944074762887"><ele>45.0</ele><time>2026-04-12T09:27:30.998Z</time></trkpt><trkpt lat="44.972591661833654" lon="9.990010349457307"><ele>45.0</ele><time>2026-04-12T09:27:31.998Z</time></trkpt><trkpt lat="44.9726747721818" lon="9.990077119634876"><ele>45.0</ele><time>2026-04-12T09:27:32.998Z</time></trkpt><trkpt lat="44.97275937130892" lon="9.990139696865892"><ele>45.0</ele><time>2026-04-12T09:27:33.998Z</time></trkpt><trkpt lat="44.972848421181666" lon="9.990190369635588"><ele>44.4</ele><time>2026-04-12T09:27:34.998Z</time></trkpt><trkpt lat="44.97293983150641" lon="9.990241934228889"><ele>43.8</ele><time>2026-04-12T09:27:35.998Z</time></trkpt><trkpt lat="44.973032062269745" lon="9.9902890092213"><ele>43.2</ele><time>2026-04-12T09:27:36.998Z</time></trkpt><trkpt lat="44.973125623970446" lon="9.990334119257426"><ele>42.6</ele><time>2026-04-12T09:27:37.998Z</time></trkpt><trkpt lat="44.97321642492145" lon="9.990378924227583"><ele>42.0</ele><time>2026-04-12T09:27:38.998Z</time></trkpt><trkpt lat="44.97330659023275" lon="9.990423220373593"><ele>41.8</ele><time>2026-04-12T09:27:39.998Z</time></trkpt><trkpt lat="44.973397399970345" lon="9.990466737289097"><ele>41.6</ele><time>2026-04-12T09:27:41Z</time></trkpt><trkpt lat="44.97348882287135" lon="9.990512016534442"><ele>41.4</ele><time>2026-04-12T09:27:42Z</time></trkpt><trkpt lat="44.97358087390803" lon="9.990557425497709"><ele>41.199999999999996</ele><time>2026-04-12T09:27:43Z</time></trkpt><trkpt lat="44.97367225042193" lon="9.99060268070489"><ele>41.0</ele><time>2026-04-12T09:27:44Z</time></trkpt><trkpt lat="44.97376190215264" lon="9.990647994398376"><ele>41.0</ele><time>2026-04-12T09:27:45Z</time></trkpt><trkpt lat="44.97385275771571" lon="9.99069385844951"><ele>41.0</ele><time>2026-04-12T09:27:46Z</time></trkpt><trkpt lat="44.97394257807386" lon="9.99073854447234"><ele>41.0</ele><time>2026-04-12T09:27:47Z</time></trkpt><trkpt lat="44.974032123719006" lon="9.990785345280926"><ele>41.0</ele><time>2026-04-12T09:27:48Z</time></trkpt><trkpt lat="44.97412204041572" lon="9.99083269772574"><ele>41.0</ele><time>2026-04-12T09:27:49Z</time></trkpt><trkpt lat="44.97421078438444" lon="9.990875809939592"><ele>41.199999999999996</ele><time>2026-04-12T09:27:50Z</time></trkpt><trkpt lat="44.97429917009669" lon="9.990924263127479"><ele>41.4</ele><time>2026-04-12T09:27:51Z</time></trkpt><trkpt lat="44.97438748554505" lon="9.990971391379988"><ele>41.6</ele><time>2026-04-12T09:27:52Z</time></trkpt><trkpt lat="44.97447573924572" lon="9.991022365429826"><ele>41.8</ele><time>2026-04-12T09:27:53Z</time></trkpt><trkpt lat="44.974564271432016" lon="9.99107613847749"><ele>42.0</ele><time>2026-04-12T09:27:54Z</time></trkpt><trkpt lat="44.974653345439236" lon="9.991124244329988"><ele>42.0</ele><time>2026-04-12T09:27:55Z</time></trkpt><trkpt lat="44.97474192943271" lon="9.991176871684187"><ele>42.0</ele><time>2026-04-12T09:27:56Z</time></trkpt><trkpt lat="44.97482736008755" lon="9.991234244084563"><ele>42.0</ele><time>2026-04-12T09:27:57Z</time></trkpt><trkpt lat="44.97491005993009" lon="9.99129089277023"><ele>42.0</ele><time>2026-04-12T09:27:58Z</time></trkpt><trkpt lat="44.97499417025919" lon="9.991351936573833"><ele>42.0</ele><time>2026-04-12T09:27:59Z</time></trkpt><trkpt lat="44.97507831742706" lon="9.99140847316736"><ele>42.0</ele><time>2026-04-12T09:28:00Z</time></trkpt><trkpt lat="44.9751656754525" lon="9.991457438591123"><ele>42.0</ele><time>2026-04-12T09:28:01Z</time></trkpt><trkpt lat="44.975250874339714" lon="9.991512245051476"><ele>42.0</ele><time>2026-04-12T09:28:02Z</time></trkpt><trkpt lat="44.975335109681446" lon="9.991567671157027"><ele>42.0</ele><time>2026-04-12T09:28:03Z</time></trkpt><trkpt lat="44.975420273610894" lon="9.991624562892735"><ele>42.0</ele><time>2026-04-12T09:28:04Z</time></trkpt><trkpt lat="44.975505415734865" lon="9.991676083143767"><ele>41.8</ele><time>2026-04-12T09:28:05Z</time></trkpt><trkpt lat="44.97559064423481" lon="9.991732481670212"><ele>41.6</ele><time>2026-04-12T09:28:06Z</time></trkpt><trkpt lat="44.97567435403041" lon="9.991787082965649"><ele>41.4</ele><time>2026-04-12T09:28:07Z</time></trkpt><trkpt lat="44.97576185260145" lon="9.991845869678585"><ele>41.199999999999996</ele><time>2026-04-12T09:28:08Z</time></trkpt><trkpt lat="44.9758490223407" lon="9.991901432220532"><ele>41.0</ele><time>2026-04-12T09:28:09Z</time></trkpt><trkpt lat="44.975935528384134" lon="9.991959259237618"><ele>41.599999999999994</ele><time>2026-04-12T09:28:10Z</time></trkpt><trkpt lat="44.9760227308425" lon="9.992015893960694"><ele>42.2</ele><time>2026-04-12T09:28:11Z</time></trkpt><trkpt lat="44.97610894236309" lon="9.99207008070119"><ele>42.8</ele><time>2026-04-12T09:28:12Z</time></trkpt><trkpt lat="44.97619727474899" lon="9.992124464852406"><ele>43.400000000000006</ele><time>2026-04-12T09:28:13Z</time></trkpt><trkpt lat="44.97628370645657" lon="9.992176294537016"><ele>44.0</ele><time>2026-04-12T09:28:14Z</time></trkpt><trkpt lat="44.976370227404004" lon="9.992225777426913"><ele>44.0</ele><time>2026-04-12T09:28:15Z</time></trkpt><trkpt lat="44.976456651984904" lon="9.992280237156535"><ele>44.0</ele><time>2026-04-12T09:28:16Z</time></trkpt><trkpt lat="44.9765456390143" lon="9.992326292962591"><ele>44.0</ele><time>2026-04-12T09:28:17Z</time></trkpt><trkpt lat="44.97663686991924" lon="9.99236964489742"><ele>44.0</ele><time>2026-04-12T09:28:18Z</time></trkpt><trkpt lat="44.97672533218574" lon="9.992415483855504"><ele>44.0</ele><time>2026-04-12T09:28:19Z</time></trkpt><trkpt lat="44.976812351359584" lon="9.992458757763174"><ele>44.0</ele><time>2026-04-12T09:28:19.999Z</time></trkpt><trkpt lat="44.976897413247734" lon="9.992503700511035"><ele>44.0</ele><time>2026-04-12T09:28:20.999Z</time></trkpt><trkpt lat="44.97698148947538" lon="9.99254195485073"><ele>44.0</ele><time>2026-04-12T09:28:21.999Z</time></trkpt><trkpt lat="44.97706198782219" lon="9.992580911223676"><ele>44.0</ele><time>2026-04-12T09:28:22.999Z</time></trkpt><trkpt lat="44.97714038953472" lon="9.992617798211057"><ele>44.0</ele><time>2026-04-12T09:28:23.999Z</time></trkpt><trkpt lat="44.977219789283765" lon="9.992655878668467"><ele>44.0</ele><time>2026-04-12T09:28:24.999Z</time></trkpt><trkpt lat="44.97730372428409" lon="9.99269266691161"><ele>43.800000000000004</ele><time>2026-04-12T09:28:25.999Z</time></trkpt><trkpt lat="44.97738966338671" lon="9.992730204907328"><ele>43.6</ele><time>2026-04-12T09:28:26.999Z</time></trkpt><trkpt lat="44.977476087092974" lon="9.992768360268075"><ele>43.4</ele><time>2026-04-12T09:28:27.999Z</time></trkpt><trkpt lat="44.97756464572543" lon="9.9928069132033"><ele>43.2</ele><time>2026-04-12T09:28:28.999Z</time></trkpt><trkpt lat="44.97765186270963" lon="9.992843181045025"><ele>43.0</ele><time>2026-04-12T09:28:29.999Z</time></trkpt><trkpt lat="44.97773380774018" lon="9.99287753821903"><ele>42.8</ele><time>2026-04-12T09:28:30.999Z</time></trkpt><trkpt lat="44.97782117121953" lon="9.992908754441432"><ele>42.599999999999994</ele><time>2026-04-12T09:28:31.999Z</time></trkpt><trkpt lat="44.97790925307283" lon="9.992935835241282"><ele>42.400000000000006</ele><time>2026-04-12T09:28:32.999Z</time></trkpt><trkpt lat="44.97799553120729" lon="9.99296762780522"><ele>42.2</ele><time>2026-04-12T09:28:33.999Z</time></trkpt><trkpt lat="44.978082456856136" lon="9.993011320087017"><ele>42.0</ele><time>2026-04-12T09:28:34.999Z</time></trkpt><trkpt lat="44.9781665429485" lon="9.99305670996902"><ele>42.0</ele><time>2026-04-12T09:28:35.999Z</time></trkpt><trkpt lat="44.978250628410514" lon="9.993110648087457"><ele>42.0</ele><time>2026-04-12T09:28:36.999Z</time></trkpt><trkpt lat="44.97833364166328" lon="9.993160803175549"><ele>42.0</ele><time>2026-04-12T09:28:37.999Z</time></trkpt><trkpt lat="44.97841942493787" lon="9.99321350375708"><ele>42.0</ele><time>2026-04-12T09:28:38.999Z</time></trkpt><trkpt lat="44.978504033920416" lon="9.99326692006364"><ele>42.0</ele><time>2026-04-12T09:28:39.999Z</time></trkpt><trkpt lat="44.97858758451922" lon="9.993320357637105"><ele>42.2</ele><time>2026-04-12T09:28:40.999Z</time></trkpt><trkpt lat="44.97867308425207" lon="9.993369382950492"><ele>42.400000000000006</ele><time>2026-04-12T09:28:41.999Z</time></trkpt><trkpt lat="44.97875937434162" lon="9.993419680489433"><ele>42.599999999999994</ele><time>2026-04-12T09:28:42.999Z</time></trkpt><trkpt lat="44.97884590591767" lon="9.993465101084883"><ele>42.8</ele><time>2026-04-12T09:28:43.999Z</time></trkpt><trkpt lat="44.978931318417416" lon="9.993517658551278"><ele>43.0</ele><time>2026-04-12T09:28:44.999Z</time></trkpt><trkpt lat="44.979015816339114" lon="9.993572232211964"><ele>43.0</ele><time>2026-04-12T09:28:45.999Z</time></trkpt><trkpt lat="44.97910147210991" lon="9.993620139369195"><ele>43.0</ele><time>2026-04-12T09:28:46.999Z</time></trkpt><trkpt lat="44.979187068728976" lon="9.993673593726385"><ele>43.0</ele><time>2026-04-12T09:28:47.999Z</time></trkpt><trkpt lat="44.97927234456543" lon="9.993722205724433"><ele>43.0</ele><time>2026-04-12T09:28:48.999Z</time></trkpt><trkpt lat="44.97935553307261" lon="9.99377377757513"><ele>43.0</ele><time>2026-04-12T09:28:49.999Z</time></trkpt><trkpt lat="44.97943478609148" lon="9.99382412838689"><ele>43.0</ele><time>2026-04-12T09:28:50.999Z</time></trkpt><trkpt lat="44.9795157039951" lon="9.993873833742246"><ele>43.0</ele><time>2026-04-12T09:28:51.999Z</time></trkpt><trkpt lat="44.9795981248557" lon="9.993920939206834"><ele>43.0</ele><time>2026-04-12T09:28:52.999Z</time></trkpt><trkpt lat="44.97968064637336" lon="9.993962590323942"><ele>43.0</ele><time>2026-04-12T09:28:53.999Z</time></trkpt><trkpt lat="44.97976309445575" lon="9.993993459206585"><ele>43.0</ele><time>2026-04-12T09:28:54.999Z</time></trkpt><trkpt lat="44.9798459234748" lon="9.993990600440178"><ele>43.0</ele><time>2026-04-12T09:28:55.999Z</time></trkpt><trkpt lat="44.97991589837572" lon="9.993907328692396"><ele>43.0</ele><time>2026-04-12T09:28:56.999Z</time></trkpt><trkpt lat="44.97995201680659" lon="9.993787789246856"><ele>43.0</ele><time>2026-04-12T09:28:57.999Z</time></trkpt><trkpt lat="44.97997033864452" lon="9.993660515868969"><ele>43.0</ele><time>2026-04-12T09:28:58.999Z</time></trkpt><trkpt lat="44.97999497636744" lon="9.99353867136552"><ele>43.0</ele><time>2026-04-12T09:28:59.999Z</time></trkpt><trkpt lat="44.980023968404495" lon="9.993420496224902"><ele>43.0</ele><time>2026-04-12T09:29:00.999Z</time></trkpt><trkpt lat="44.98005841294477" lon="9.99330208625433"><ele>43.0</ele><time>2026-04-12T09:29:01.999Z</time></trkpt><trkpt lat="44.98009489740276" lon="9.993181144568984"><ele>43.0</ele><time>2026-04-12T09:29:02.999Z</time></trkpt><trkpt lat="44.980132837985224" lon="9.993060467186767"><ele>43.0</ele><time>2026-04-12T09:29:03.999Z</time></trkpt><trkpt lat="44.980169691371565" lon="9.992945375094202"><ele>43.0</ele><time>2026-04-12T09:29:04.999Z</time></trkpt><trkpt lat="44.980202908336715" lon="9.992830968264414"><ele>43.0</ele><time>2026-04-12T09:29:05.999Z</time></trkpt><trkpt lat="44.98023306003485" lon="9.992718717396377"><ele>43.0</ele><time>2026-04-12T09:29:06.999Z</time></trkpt><trkpt lat="44.98026323573714" lon="9.992607531436416"><ele>43.333333333333336</ele><time>2026-04-12T09:29:07.999Z</time></trkpt><trkpt lat="44.98029585652393" lon="9.992497978118637"><ele>43.66666666666667</ele><time>2026-04-12T09:29:08.999Z</time></trkpt><trkpt lat="44.980327477659394" lon="9.992383494227"><ele>44.0</ele><time>2026-04-12T09:29:09.999Z</time></trkpt><trkpt lat="44.980359372747856" lon="9.99226391750559"><ele>44.333333333333336</ele><time>2026-04-12T09:29:10.999Z</time></trkpt><trkpt lat="44.98039201033496" lon="9.99214373957642"><ele>44.666666666666664</ele><time>2026-04-12T09:29:11.999Z</time></trkpt><trkpt lat="44.98042776960943" lon="9.992021424938278"><ele>45.0</ele><time>2026-04-12T09:29:12.998Z</time></trkpt><trkpt lat="44.98046361368309" lon="9.991902090246423"><ele>45.0</ele><time>2026-04-12T09:29:13.998Z</time></trkpt><trkpt lat="44.98049892851362" lon="9.991781737237835"><ele>45.0</ele><time>2026-04-12T09:29:14.998Z</time></trkpt><trkpt lat="44.980534517781905" lon="9.991662903977154"><ele>45.0</ele><time>2026-04-12T09:29:15.998Z</time></trkpt><trkpt lat="44.98057075691751" lon="9.991545108142825"><ele>45.0</ele><time>2026-04-12T09:29:16.998Z</time></trkpt><trkpt lat="44.980606781928664" lon="9.991425470118166"><ele>45.0</ele><time>2026-04-12T09:29:17.998Z</time></trkpt><trkpt lat="44.980641825548545" lon="9.991306307278967"><ele>44.8</ele><time>2026-04-12T09:29:18.998Z</time></trkpt><trkpt lat="44.98067579783888" lon="9.991187135510549"><ele>44.6</ele><time>2026-04-12T09:29:19.998Z</time></trkpt><trkpt lat="44.98071174108777" lon="9.991068558905228"><ele>44.400000000000006</ele><time>2026-04-12T09:29:20.998Z</time></trkpt><trkpt lat="44.98074572757247" lon="9.990946921853666"><ele>44.2</ele><time>2026-04-12T09:29:21.998Z</time></trkpt><trkpt lat="44.98078010087311" lon="9.990827887002004"><ele>44.0</ele><time>2026-04-12T09:29:22.998Z</time></trkpt><trkpt lat="44.98081551989797" lon="9.990706820077026"><ele>44.0</ele><time>2026-04-12T09:29:23.998Z</time></trkpt><trkpt lat="44.98085047201964" lon="9.9905880326403"><ele>44.0</ele><time>2026-04-12T09:29:24.998Z</time></trkpt><trkpt lat="44.98088700559445" lon="9.99046955382776"><ele>44.0</ele><time>2026-04-12T09:29:25.998Z</time></trkpt><trkpt lat="44.98092195967702" lon="9.990353782439483"><ele>44.0</ele><time>2026-04-12T09:29:26.998Z</time></trkpt><trkpt lat="44.98095589079785" lon="9.990233995623743"><ele>44.0</ele><time>2026-04-12T09:29:27.998Z</time></trkpt><trkpt lat="44.980989200926096" lon="9.990114534732548"><ele>43.83333333333333</ele><time>2026-04-12T09:29:28.998Z</time></trkpt><trkpt lat="44.98102485199034" lon="9.989996366941126"><ele>43.666666666666664</ele><time>2026-04-12T09:29:29.998Z</time></trkpt><trkpt lat="44.981057842196996" lon="9.98987864989288"><ele>43.5</ele><time>2026-04-12T09:29:30.998Z</time></trkpt><trkpt lat="44.98109054162689" lon="9.98976259175384"><ele>43.333333333333336</ele><time>2026-04-12T09:29:31.998Z</time></trkpt><trkpt lat="44.98112516263883" lon="9.989645774530366"><ele>43.16666666666667</ele><time>2026-04-12T09:29:32.998Z</time></trkpt><trkpt lat="44.981161009294894" lon="9.989530215172072"><ele>43.0</ele><time>2026-04-12T09:29:33.998Z</time></trkpt><trkpt lat="44.98119532718235" lon="9.989411825546444"><ele>43.0</ele><time>2026-04-12T09:29:34.998Z</time></trkpt><trkpt lat="44.98123078975089" lon="9.98929404491184"><ele>43.0</ele><time>2026-04-12T09:29:35.998Z</time></trkpt><trkpt lat="44.98126732934313" lon="9.989173463943972"><ele>43.0</ele><time>2026-04-12T09:29:36.998Z</time></trkpt><trkpt lat="44.981304604785144" lon="9.989053576178051"><ele>43.0</ele><time>2026-04-12T09:29:37.998Z</time></trkpt><trkpt lat="44.98134217950315" lon="9.988932038672084"><ele>43.0</ele><time>2026-04-12T09:29:38.998Z</time></trkpt><trkpt lat="44.98137911604164" lon="9.988807724680289"><ele>42.8</ele><time>2026-04-12T09:29:39.998Z</time></trkpt><trkpt lat="44.98141509383533" lon="9.988684612931273"><ele>42.599999999999994</ele><time>2026-04-12T09:29:40.998Z</time></trkpt><trkpt lat="44.98145086689303" lon="9.988557821007241"><ele>42.400000000000006</ele><time>2026-04-12T09:29:41.998Z</time></trkpt><trkpt lat="44.9814875362365" lon="9.988432561553754"><ele>42.2</ele><time>2026-04-12T09:29:42.998Z</time></trkpt><trkpt lat="44.981523390935756" lon="9.988306331887765"><ele>42.0</ele><time>2026-04-12T09:29:43.998Z</time></trkpt><trkpt lat="44.98155717914968" lon="9.988175469652992"><ele>42.400000000000006</ele><time>2026-04-12T09:29:44.998Z</time></trkpt><trkpt lat="44.981610392794614" lon="9.988056680935312"><ele>42.800000000000004</ele><time>2026-04-12T09:29:45.998Z</time></trkpt><trkpt lat="44.98164862913418" lon="9.987928315041538"><ele>43.2</ele><time>2026-04-12T09:29:47Z</time></trkpt><trkpt lat="44.981686525332854" lon="9.987797512987457"><ele>43.6</ele><time>2026-04-12T09:29:48Z</time></trkpt><trkpt lat="44.98172348312954" lon="9.987668222046763"><ele>44.0</ele><time>2026-04-12T09:29:49Z</time></trkpt><trkpt lat="44.981767524146846" lon="9.987545149094416"><ele>44.400000000000006</ele><time>2026-04-12T09:29:50Z</time></trkpt><trkpt lat="44.98181747366365" lon="9.987434860861798"><ele>44.8</ele><time>2026-04-12T09:29:51Z</time></trkpt><trkpt lat="44.981923458683404" lon="9.987419737510113"><ele>45.2</ele><time>2026-04-12T09:29:52Z</time></trkpt><trkpt lat="44.98200882150768" lon="9.98748778645421"><ele>45.599999999999994</ele><time>2026-04-12T09:29:53Z</time></trkpt><trkpt lat="44.982101999956306" lon="9.98753937913807"><ele>46.0</ele><time>2026-04-12T09:29:54Z</time></trkpt><trkpt lat="44.98219252858543" lon="9.987575110582462"><ele>46.0</ele><time>2026-04-12T09:29:55Z</time></trkpt><trkpt lat="44.9822764469964" lon="9.987629606037974"><ele>46.0</ele><time>2026-04-12T09:29:56Z</time></trkpt><trkpt lat="44.98236377768622" lon="9.987672740999868"><ele>46.0</ele><time>2026-04-12T09:29:57Z</time></trkpt><trkpt lat="44.98244803675886" lon="9.987726007308934"><ele>46.0</ele><time>2026-04-12T09:29:58Z</time></trkpt><trkpt lat="44.98253256580355" lon="9.987768843869905"><ele>46.0</ele><time>2026-04-12T09:29:59Z</time></trkpt><trkpt lat="44.98262042877894" lon="9.987774575736553"><ele>46.0</ele><time>2026-04-12T09:30:00Z</time></trkpt><trkpt lat="44.98270568441456" lon="9.987728197635064"><ele>46.0</ele><time>2026-04-12T09:30:01Z</time></trkpt><trkpt lat="44.98276291834811" lon="9.987621244750303"><ele>46.0</ele><time>2026-04-12T09:30:02Z</time></trkpt><trkpt lat="44.98278965722411" lon="9.98749578310673"><ele>46.0</ele><time>2026-04-12T09:30:03Z</time></trkpt><trkpt lat="44.982806021854806" lon="9.9873794380563"><ele>46.0</ele><time>2026-04-12T09:30:04Z</time></trkpt><trkpt lat="44.9828234131851" lon="9.98726473965867"><ele>46.0</ele><time>2026-04-12T09:30:05Z</time></trkpt><trkpt lat="44.98284244381318" lon="9.987150639298562"><ele>46.0</ele><time>2026-04-12T09:30:06Z</time></trkpt><trkpt lat="44.98286451256033" lon="9.98703190101464"><ele>46.0</ele><time>2026-04-12T09:30:07Z</time></trkpt><trkpt lat="44.982883942984564" lon="9.986914062418084"><ele>46.0</ele><time>2026-04-12T09:30:08Z</time></trkpt><trkpt lat="44.98290669263387" lon="9.986790713757046"><ele>46.0</ele><time>2026-04-12T09:30:09Z</time></trkpt><trkpt lat="44.9829271826064" lon="9.986668130975984"><ele>46.0</ele><time>2026-04-12T09:30:10Z</time></trkpt><trkpt lat="44.98294692188445" lon="9.986544592695587"><ele>46.0</ele><time>2026-04-12T09:30:11Z</time></trkpt><trkpt lat="44.982966039927106" lon="9.986425884657887"><ele>45.599999999999994</ele><time>2026-04-12T09:30:12Z</time></trkpt><trkpt lat="44.982989804784886" lon="9.986303107436548"><ele>45.2</ele><time>2026-04-12T09:30:13Z</time></trkpt><trkpt lat="44.98301013121822" lon="9.986179733691936"><ele>44.8</ele><time>2026-04-12T09:30:14Z</time></trkpt><trkpt lat="44.98303379607792" lon="9.986052324360433"><ele>44.400000000000006</ele><time>2026-04-12T09:30:15Z</time></trkpt><trkpt lat="44.98305461358756" lon="9.985927428521528"><ele>44.0</ele><time>2026-04-12T09:30:16Z</time></trkpt><trkpt lat="44.98307640764755" lon="9.985801612847407"><ele>44.0</ele><time>2026-04-12T09:30:17Z</time></trkpt><trkpt lat="44.98309730575489" lon="9.985675608038502"><ele>44.0</ele><time>2026-04-12T09:30:18Z</time></trkpt><trkpt lat="44.98311859532801" lon="9.985547640112117"><ele>44.0</ele><time>2026-04-12T09:30:19Z</time></trkpt><trkpt lat="44.98314052908912" lon="9.985420742068666"><ele>44.0</ele><time>2026-04-12T09:30:20Z</time></trkpt><trkpt lat="44.983162752025954" lon="9.985294308722287"><ele>44.0</ele><time>2026-04-12T09:30:21Z</time></trkpt><trkpt lat="44.983183699324094" lon="9.98516751818932"><ele>44.0</ele><time>2026-04-12T09:30:22Z</time></trkpt><trkpt lat="44.98320336217799" lon="9.985038081079303"><ele>44.0</ele><time>2026-04-12T09:30:23Z</time></trkpt><trkpt lat="44.983222775753084" lon="9.984909164164266"><ele>44.0</ele><time>2026-04-12T09:30:23.999Z</time></trkpt><trkpt lat="44.9832444681796" lon="9.984780992579038"><ele>44.0</ele><time>2026-04-12T09:30:24.999Z</time></trkpt><trkpt lat="44.98326489941671" lon="9.984652893752525"><ele>44.0</ele><time>2026-04-12T09:30:25.999Z</time></trkpt><trkpt lat="44.98328812205554" lon="9.984526143813865"><ele>44.0</ele><time>2026-04-12T09:30:26.999Z</time></trkpt><trkpt lat="44.98331408556266" lon="9.984400425766054"><ele>44.0</ele><time>2026-04-12T09:30:27.999Z</time></trkpt><trkpt lat="44.983336694743336" lon="9.984273506235146"><ele>44.0</ele><time>2026-04-12T09:30:28.999Z</time></trkpt><trkpt lat="44.98335599506718" lon="9.984144807654863"><ele>44.0</ele><time>2026-04-12T09:30:29.999Z</time></trkpt><trkpt lat="44.98337637507694" lon="9.984014449370806"><ele>44.0</ele><time>2026-04-12T09:30:30.999Z</time></trkpt><trkpt lat="44.98339595131465" lon="9.983887183873994"><ele>44.400000000000006</ele><time>2026-04-12T09:30:31.999Z</time></trkpt><trkpt lat="44.98341909929742" lon="9.9837593982385"><ele>44.8</ele><time>2026-04-12T09:30:32.999Z</time></trkpt><trkpt lat="44.983441011362" lon="9.983632293684348"><ele>45.2</ele><time>2026-04-12T09:30:33.999Z</time></trkpt><trkpt lat="44.98346186968672" lon="9.983506303880215"><ele>45.599999999999994</ele><time>2026-04-12T09:30:34.999Z</time></trkpt><trkpt lat="44.983484620994325" lon="9.983377674735571"><ele>46.0</ele><time>2026-04-12T09:30:35.999Z</time></trkpt><trkpt lat="44.98350448049998" lon="9.98325127434009"><ele>46.199999999999996</ele><time>2026-04-12T09:30:36.999Z</time></trkpt><trkpt lat="44.983525571497864" lon="9.983124451596076"><ele>46.4</ele><time>2026-04-12T09:30:37.999Z</time></trkpt><trkpt lat="44.98354850073279" lon="9.982995753433734"><ele>46.6</ele><time>2026-04-12T09:30:38.999Z</time></trkpt><trkpt lat="44.98357176177528" lon="9.982868412043977"><ele>46.8</ele><time>2026-04-12T09:30:39.999Z</time></trkpt><trkpt lat="44.98359406530947" lon="9.982742010830252"><ele>47.0</ele><time>2026-04-12T09:30:40.999Z</time></trkpt><trkpt lat="44.98361579102452" lon="9.98261556776294"><ele>47.400000000000006</ele><time>2026-04-12T09:30:41.999Z</time></trkpt><trkpt lat="44.98363531434483" lon="9.982490740090757"><ele>47.800000000000004</ele><time>2026-04-12T09:30:42.999Z</time></trkpt><trkpt lat="44.98365683150244" lon="9.98236574466902"><ele>48.2</ele><time>2026-04-12T09:30:43.999Z</time></trkpt><trkpt lat="44.983678364523094" lon="9.982236053106858"><ele>48.6</ele><time>2026-04-12T09:30:44.999Z</time></trkpt><trkpt lat="44.9836984214114" lon="9.982110144890543"><ele>49.0</ele><time>2026-04-12T09:30:45.999Z</time></trkpt><trkpt lat="44.98372234572115" lon="9.981982633447029"><ele>49.0</ele><time>2026-04-12T09:30:46.999Z</time></trkpt><trkpt lat="44.983743830575364" lon="9.981854366588216"><ele>49.0</ele><time>2026-04-12T09:30:47.999Z</time></trkpt><trkpt lat="44.983760694264205" lon="9.98172611322051"><ele>49.0</ele><time>2026-04-12T09:30:48.999Z</time></trkpt><trkpt lat="44.98378065263262" lon="9.981601414972813"><ele>49.0</ele><time>2026-04-12T09:30:49.999Z</time></trkpt><trkpt lat="44.983802058843416" lon="9.98147878359962"><ele>49.0</ele><time>2026-04-12T09:30:50.999Z</time></trkpt><trkpt lat="44.9838250440014" lon="9.981358110844367"><ele>48.666666666666664</ele><time>2026-04-12T09:30:51.999Z</time></trkpt><trkpt lat="44.98384881328683" lon="9.981243182868297"><ele>48.33333333333333</ele><time>2026-04-12T09:30:52.999Z</time></trkpt><trkpt lat="44.98387108490813" lon="9.98113118722006"><ele>48.0</ele><time>2026-04-12T09:30:53.999Z</time></trkpt><trkpt lat="44.98389160609196" lon="9.981024969773058"><ele>47.666666666666664</ele><time>2026-04-12T09:30:54.999Z</time></trkpt><trkpt lat="44.983913399388264" lon="9.980924233567242"><ele>47.33333333333333</ele><time>2026-04-12T09:30:55.999Z</time></trkpt><trkpt lat="44.98396785947272" lon="9.980852835920498"><ele>47.0</ele><time>2026-04-12T09:30:56.999Z</time></trkpt><trkpt lat="44.98404220250435" lon="9.98083305694287"><ele>47.0</ele><time>2026-04-12T09:30:57.999Z</time></trkpt><trkpt lat="44.98412083256757" lon="9.980869930992755"><ele>47.0</ele><time>2026-04-12T09:30:58.999Z</time></trkpt><trkpt lat="44.98418757695743" lon="9.980916202387569"><ele>47.0</ele><time>2026-04-12T09:30:59.999Z</time></trkpt><trkpt lat="44.9842565287035" lon="9.980953725844897"><ele>47.0</ele><time>2026-04-12T09:31:00.999Z</time></trkpt><trkpt lat="44.98433007199046" lon="9.980987159459074"><ele>47.0</ele><time>2026-04-12T09:31:01.999Z</time></trkpt><trkpt lat="44.98440233996211" lon="9.98102372808178"><ele>47.0</ele><time>2026-04-12T09:31:02.999Z</time></trkpt><trkpt lat="44.98447604827803" lon="9.981063301734737"><ele>47.0</ele><time>2026-04-12T09:31:03.999Z</time></trkpt><trkpt lat="44.98455008595366" lon="9.981104316092406"><ele>47.0</ele><time>2026-04-12T09:31:04.999Z</time></trkpt><trkpt lat="44.9846254570194" lon="9.981145608500212"><ele>47.0</ele><time>2026-04-12T09:31:05.999Z</time></trkpt><trkpt lat="44.98470109863266" lon="9.981184395829095"><ele>47.0</ele><time>2026-04-12T09:31:06.999Z</time></trkpt><trkpt lat="44.98477969835984" lon="9.981224093575083"><ele>47.0</ele><time>2026-04-12T09:31:07.999Z</time></trkpt><trkpt lat="44.98485815692163" lon="9.981263938004457"><ele>47.0</ele><time>2026-04-12T09:31:08.999Z</time></trkpt><trkpt lat="44.984938763867525" lon="9.981305417447388"><ele>46.666666666666664</ele><time>2026-04-12T09:31:09.999Z</time></trkpt><trkpt lat="44.98502023757596" lon="9.981347927553804"><ele>46.33333333333333</ele><time>2026-04-12T09:31:10.999Z</time></trkpt><trkpt lat="44.98510041788469" lon="9.981392205974254"><ele>46.0</ele><time>2026-04-12T09:31:11.999Z</time></trkpt><trkpt lat="44.9851841664074" lon="9.981434630837803"><ele>45.666666666666664</ele><time>2026-04-12T09:31:12.999Z</time></trkpt><trkpt lat="44.98526686701591" lon="9.981476363089087"><ele>45.333333333333336</ele><time>2026-04-12T09:31:13.999Z</time></trkpt><trkpt lat="44.98535007317781" lon="9.981520010258931"><ele>45.0</ele><time>2026-04-12T09:31:14.999Z</time></trkpt><trkpt lat="44.98543315200345" lon="9.981564425840366"><ele>45.0</ele><time>2026-04-12T09:31:15.998Z</time></trkpt><trkpt lat="44.98551535266864" lon="9.981608239773292"><ele>45.0</ele><time>2026-04-12T09:31:16.998Z</time></trkpt><trkpt lat="44.98559758703672" lon="9.981647780340383"><ele>45.0</ele><time>2026-04-12T09:31:17.998Z</time></trkpt><trkpt lat="44.98567969446901" lon="9.981687319544994"><ele>45.0</ele><time>2026-04-12T09:31:18.998Z</time></trkpt><trkpt lat="44.98576360823902" lon="9.98172964674181"><ele>45.0</ele><time>2026-04-12T09:31:19.998Z</time></trkpt><trkpt lat="44.985845103465" lon="9.981771229487128"><ele>45.0</ele><time>2026-04-12T09:31:20.998Z</time></trkpt><trkpt lat="44.98592702363738" lon="9.981812621842522"><ele>44.833333333333336</ele><time>2026-04-12T09:31:21.998Z</time></trkpt><trkpt lat="44.98600813704267" lon="9.98185872389792"><ele>44.666666666666664</ele><time>2026-04-12T09:31:22.998Z</time></trkpt><trkpt lat="44.98609031978213" lon="9.981900700761058"><ele>44.5</ele><time>2026-04-12T09:31:23.998Z</time></trkpt><trkpt lat="44.986171414520015" lon="9.981944900382494"><ele>44.33333333333333</ele><time>2026-04-12T09:31:24.998Z</time></trkpt><trkpt lat="44.986254243968766" lon="9.981988110588468"><ele>44.166666666666664</ele><time>2026-04-12T09:31:25.998Z</time></trkpt><trkpt lat="44.98633640009193" lon="9.98203295438061"><ele>44.0</ele><time>2026-04-12T09:31:26.998Z</time></trkpt><trkpt lat="44.98641795002362" lon="9.98207726883319"><ele>44.0</ele><time>2026-04-12T09:31:27.998Z</time></trkpt><trkpt lat="44.98650005782582" lon="9.982118949127898"><ele>44.0</ele><time>2026-04-12T09:31:28.998Z</time></trkpt><trkpt lat="44.9865818114207" lon="9.982159797579616"><ele>44.0</ele><time>2026-04-12T09:31:29.998Z</time></trkpt><trkpt lat="44.986664925255035" lon="9.982202894756503"><ele>44.0</ele><time>2026-04-12T09:31:30.998Z</time></trkpt><trkpt lat="44.98674662866167" lon="9.982245914947015"><ele>44.0</ele><time>2026-04-12T09:31:31.998Z</time></trkpt><trkpt lat="44.98683064711648" lon="9.982294489320642"><ele>44.0</ele><time>2026-04-12T09:31:32.998Z</time></trkpt><trkpt lat="44.98691308968347" lon="9.982333893718726"><ele>44.0</ele><time>2026-04-12T09:31:33.998Z</time></trkpt><trkpt lat="44.98699548054138" lon="9.982375948835744"><ele>44.0</ele><time>2026-04-12T09:31:34.998Z</time></trkpt><trkpt lat="44.987079197306535" lon="9.98242050732639"><ele>44.0</ele><time>2026-04-12T09:31:35.998Z</time></trkpt><trkpt lat="44.987160909938666" lon="9.982464701475136"><ele>44.0</ele><time>2026-04-12T09:31:36.998Z</time></trkpt><trkpt lat="44.987244754370145" lon="9.982507960214393"><ele>44.0</ele><time>2026-04-12T09:31:37.998Z</time></trkpt><trkpt lat="44.98732686053804" lon="9.982550429581003"><ele>44.0</ele><time>2026-04-12T09:31:38.998Z</time></trkpt><trkpt lat="44.98740794500253" lon="9.982596715063677"><ele>44.0</ele><time>2026-04-12T09:31:39.998Z</time></trkpt><trkpt lat="44.98748884869288" lon="9.982637790485697"><ele>44.0</ele><time>2026-04-12T09:31:40.998Z</time></trkpt><trkpt lat="44.98757296283983" lon="9.982683557754402"><ele>44.0</ele><time>2026-04-12T09:31:41.998Z</time></trkpt><trkpt lat="44.98765492039793" lon="9.982723225950705"><ele>44.0</ele><time>2026-04-12T09:31:42.998Z</time></trkpt><trkpt lat="44.98773621697433" lon="9.98276633829587"><ele>44.0</ele><time>2026-04-12T09:31:43.998Z</time></trkpt><trkpt lat="44.98782096037625" lon="9.982809002758557"><ele>44.0</ele><time>2026-04-12T09:31:44.998Z</time></trkpt><trkpt lat="44.98789986210416" lon="9.982850065573711"><ele>43.83333333333333</ele><time>2026-04-12T09:31:45.998Z</time></trkpt><trkpt lat="44.98798274001388" lon="9.982892654632677"><ele>43.666666666666664</ele><time>2026-04-12T09:31:46.998Z</time></trkpt><trkpt lat="44.98806396064024" lon="9.98293379483488"><ele>43.5</ele><time>2026-04-12T09:31:47.998Z</time></trkpt><trkpt lat="44.98814622340296" lon="9.982973728654912"><ele>43.333333333333336</ele><time>2026-04-12T09:31:48.998Z</time></trkpt><trkpt lat="44.98822850645588" lon="9.983014762062098"><ele>43.16666666666667</ele><time>2026-04-12T09:31:49.998Z</time></trkpt><trkpt lat="44.98831071954018" lon="9.983059642362962"><ele>43.0</ele><time>2026-04-12T09:31:50.998Z</time></trkpt><trkpt lat="44.98839243527658" lon="9.9831009958122"><ele>43.0</ele><time>2026-04-12T09:31:52Z</time></trkpt><trkpt lat="44.98847693256565" lon="9.983141936982644"><ele>43.0</ele><time>2026-04-12T09:31:53Z</time></trkpt><trkpt lat="44.98855926859528" lon="9.983182539066524"><ele>43.0</ele><time>2026-04-12T09:31:54Z</time></trkpt><trkpt lat="44.98864255441207" lon="9.983227309843336"><ele>43.0</ele><time>2026-04-12T09:31:55Z</time></trkpt><trkpt lat="44.988725897322034" lon="9.98327457049221"><ele>43.0</ele><time>2026-04-12T09:31:56Z</time></trkpt><trkpt lat="44.98880486451072" lon="9.983328513675739"><ele>43.0</ele><time>2026-04-12T09:31:57Z</time></trkpt><trkpt lat="44.98887893856152" lon="9.983387525501252"><ele>43.16666666666667</ele><time>2026-04-12T09:31:58Z</time></trkpt><trkpt lat="44.988955990711915" lon="9.98345265720911"><ele>43.333333333333336</ele><time>2026-04-12T09:31:59Z</time></trkpt><trkpt lat="44.989030115154556" lon="9.983515672210252"><ele>43.5</ele><time>2026-04-12T09:32:00Z</time></trkpt><trkpt lat="44.989099761832094" lon="9.983589134015876"><ele>43.666666666666664</ele><time>2026-04-12T09:32:01Z</time></trkpt><trkpt lat="44.989169988322296" lon="9.98366269623231"><ele>43.83333333333333</ele><time>2026-04-12T09:32:02Z</time></trkpt><trkpt lat="44.989237830187875" lon="9.983738879178576"><ele>44.0</ele><time>2026-04-12T09:32:03Z</time></trkpt><trkpt lat="44.98930519219726" lon="9.98381671127654"><ele>44.0</ele><time>2026-04-12T09:32:04Z</time></trkpt><trkpt lat="44.989371242405625" lon="9.983896371257732"><ele>44.0</ele><time>2026-04-12T09:32:05Z</time></trkpt><trkpt lat="44.989438953475755" lon="9.983972624505904"><ele>44.0</ele><time>2026-04-12T09:32:06Z</time></trkpt><trkpt lat="44.98950552527166" lon="9.984053788768113"><ele>44.0</ele><time>2026-04-12T09:32:07Z</time></trkpt><trkpt lat="44.98957140281953" lon="9.984137873074413"><ele>44.0</ele><time>2026-04-12T09:32:08Z</time></trkpt><trkpt lat="44.98963923221004" lon="9.984216626746393"><ele>44.0</ele><time>2026-04-12T09:32:09Z</time></trkpt><trkpt lat="44.98970755347589" lon="9.984299122176521"><ele>44.0</ele><time>2026-04-12T09:32:10Z</time></trkpt><trkpt lat="44.98977320242262" lon="9.984379658779012"><ele>44.0</ele><time>2026-04-12T09:32:11Z</time></trkpt><trkpt lat="44.989837962732715" lon="9.984459090124409"><ele>44.0</ele><time>2026-04-12T09:32:12Z</time></trkpt><trkpt lat="44.989902181222796" lon="9.984533689749425"><ele>44.0</ele><time>2026-04-12T09:32:13Z</time></trkpt><trkpt lat="44.989963006513406" lon="9.98461066878358"><ele>44.0</ele><time>2026-04-12T09:32:14Z</time></trkpt><trkpt lat="44.99002351917228" lon="9.984685276471582"><ele>44.0</ele><time>2026-04-12T09:32:15Z</time></trkpt><trkpt lat="44.99008099289593" lon="9.984757157218281"><ele>44.0</ele><time>2026-04-12T09:32:16Z</time></trkpt><trkpt lat="44.99013540371882" lon="9.984828776217475"><ele>44.0</ele><time>2026-04-12T09:32:17Z</time></trkpt><trkpt lat="44.99019013807726" lon="9.984890158693958"><ele>44.0</ele><time>2026-04-12T09:32:18Z</time></trkpt><trkpt lat="44.99031630504565" lon="9.985047857439051"><ele>44.0</ele><time>2026-04-12T09:32:20Z</time></trkpt><trkpt lat="44.99038405021892" lon="9.985031196978008"><ele>44.0</ele><time>2026-04-12T09:32:21Z</time></trkpt><trkpt lat="44.99039327026762" lon="9.984722303390827"><ele>44.0</ele><time>2026-04-12T09:32:22Z</time></trkpt><trkpt lat="44.990414392437884" lon="9.9846329873785"><ele>44.0</ele><time>2026-04-12T09:32:23Z</time></trkpt><trkpt lat="44.990448308157035" lon="9.984546231735052"><ele>44.0</ele><time>2026-04-12T09:32:24Z</time></trkpt><trkpt lat="44.990483904073216" lon="9.984461130220474"><ele>44.0</ele><time>2026-04-12T09:32:25Z</time></trkpt><trkpt lat="44.99052537671171" lon="9.98437756323719"><ele>44.0</ele><time>2026-04-12T09:32:26Z</time></trkpt><trkpt lat="44.990564703763724" lon="9.984290979826788"><ele>44.0</ele><time>2026-04-12T09:32:26.999Z</time></trkpt><trkpt lat="44.99060733646772" lon="9.984205417414795"><ele>44.0</ele><time>2026-04-12T09:32:27.999Z</time></trkpt><trkpt lat="44.99064940129137" lon="9.984119377801958"><ele>44.0</ele><time>2026-04-12T09:32:28.999Z</time></trkpt><trkpt lat="44.990692947082124" lon="9.984035137415491"><ele>44.0</ele><time>2026-04-12T09:32:29.999Z</time></trkpt><trkpt lat="44.99073443767248" lon="9.983944137541458"><ele>44.0</ele><time>2026-04-12T09:32:30.999Z</time></trkpt><trkpt lat="44.9907768896334" lon="9.983854063165417"><ele>44.0</ele><time>2026-04-12T09:32:31.999Z</time></trkpt><trkpt lat="44.99081992166958" lon="9.983762877197014"><ele>44.0</ele><time>2026-04-12T09:32:32.999Z</time></trkpt><trkpt lat="44.990859811631985" lon="9.983670594662563"><ele>44.0</ele><time>2026-04-12T09:32:33.999Z</time></trkpt><trkpt lat="44.990901932297156" lon="9.983576020109375"><ele>44.0</ele><time>2026-04-12T09:32:34.999Z</time></trkpt><trkpt lat="44.99094467876538" lon="9.983481473534049"><ele>44.0</ele><time>2026-04-12T09:32:35.999Z</time></trkpt><trkpt lat="44.99098761642009" lon="9.983387107300373"><ele>44.0</ele><time>2026-04-12T09:32:36.999Z</time></trkpt><trkpt lat="44.99103340274415" lon="9.98329098243125"><ele>44.0</ele><time>2026-04-12T09:32:37.999Z</time></trkpt><trkpt lat="44.99107730324844" lon="9.983195609969606"><ele>44.0</ele><time>2026-04-12T09:32:38.999Z</time></trkpt><trkpt lat="44.99112194791497" lon="9.983096714633396"><ele>44.0</ele><time>2026-04-12T09:32:39.999Z</time></trkpt><trkpt lat="44.991167449352524" lon="9.983000301170641"><ele>44.0</ele><time>2026-04-12T09:32:40.999Z</time></trkpt><trkpt lat="44.99121508997534" lon="9.982900422065738"><ele>44.0</ele><time>2026-04-12T09:32:41.999Z</time></trkpt><trkpt lat="44.9912620891788" lon="9.982800246916115"><ele>44.0</ele><time>2026-04-12T09:32:42.999Z</time></trkpt><trkpt lat="44.991308932033164" lon="9.982699532322284"><ele>44.0</ele><time>2026-04-12T09:32:43.999Z</time></trkpt><trkpt lat="44.99135441207768" lon="9.98259846568063"><ele>44.0</ele><time>2026-04-12T09:32:44.999Z</time></trkpt><trkpt lat="44.9914014845346" lon="9.98249448439145"><ele>44.0</ele><time>2026-04-12T09:32:45.999Z</time></trkpt><trkpt lat="44.991449923151535" lon="9.982393040094584"><ele>44.0</ele><time>2026-04-12T09:32:46.999Z</time></trkpt><trkpt lat="44.991499579848586" lon="9.982293626815675"><ele>44.0</ele><time>2026-04-12T09:32:47.999Z</time></trkpt><trkpt lat="44.99154541800531" lon="9.982187276945158"><ele>44.0</ele><time>2026-04-12T09:32:48.999Z</time></trkpt><trkpt lat="44.99159312389836" lon="9.982083668982021"><ele>44.0</ele><time>2026-04-12T09:32:49.999Z</time></trkpt><trkpt lat="44.99164086958251" lon="9.981978917135743"><ele>44.0</ele><time>2026-04-12T09:32:50.999Z</time></trkpt><trkpt lat="44.99168832605797" lon="9.98187740463548"><ele>44.0</ele><time>2026-04-12T09:32:51.999Z</time></trkpt><trkpt lat="44.99173977789005" lon="9.981773448693763"><ele>43.666666666666664</ele><time>2026-04-12T09:32:52.999Z</time></trkpt><trkpt lat="44.99178819534778" lon="9.981669949614556"><ele>43.33333333333333</ele><time>2026-04-12T09:32:53.999Z</time></trkpt><trkpt lat="44.99183895484712" lon="9.981567375384321"><ele>43.0</ele><time>2026-04-12T09:32:54.999Z</time></trkpt><trkpt lat="44.99188632338051" lon="9.981463652990946"><ele>42.666666666666664</ele><time>2026-04-12T09:32:55.999Z</time></trkpt><trkpt lat="44.99193658910635" lon="9.981360151818631"><ele>42.333333333333336</ele><time>2026-04-12T09:32:56.999Z</time></trkpt><trkpt lat="44.991986044105566" lon="9.98125740253127"><ele>42.0</ele><time>2026-04-12T09:32:57.999Z</time></trkpt><trkpt lat="44.99203768876462" lon="9.981152548084976"><ele>42.0</ele><time>2026-04-12T09:32:58.999Z</time></trkpt><trkpt lat="44.99208861408944" lon="9.981047499736944"><ele>42.0</ele><time>2026-04-12T09:32:59.999Z</time></trkpt><trkpt lat="44.992140338148175" lon="9.980942566946458"><ele>42.0</ele><time>2026-04-12T09:33:00.999Z</time></trkpt><trkpt lat="44.99219241796961" lon="9.98083929733301"><ele>42.0</ele><time>2026-04-12T09:33:01.999Z</time></trkpt><trkpt lat="44.99224159588333" lon="9.980730644637669"><ele>42.0</ele><time>2026-04-12T09:33:02.999Z</time></trkpt><trkpt lat="44.992290735391904" lon="9.980623837497834"><ele>42.0</ele><time>2026-04-12T09:33:03.999Z</time></trkpt><trkpt lat="44.9923421502733" lon="9.980520617526004"><ele>42.0</ele><time>2026-04-12T09:33:04.999Z</time></trkpt><trkpt lat="44.992391844045386" lon="9.980414990952166"><ele>42.0</ele><time>2026-04-12T09:33:05.999Z</time></trkpt><trkpt lat="44.99244214817053" lon="9.980308819682286"><ele>42.0</ele><time>2026-04-12T09:33:06.999Z</time></trkpt><trkpt lat="44.99249097685127" lon="9.980203385830595"><ele>42.0</ele><time>2026-04-12T09:33:07.999Z</time></trkpt><trkpt lat="44.99254069377987" lon="9.980099236555226"><ele>42.0</ele><time>2026-04-12T09:33:08.999Z</time></trkpt><trkpt lat="44.992592932121596" lon="9.97999355631387"><ele>42.0</ele><time>2026-04-12T09:33:09.999Z</time></trkpt><trkpt lat="44.992643175645206" lon="9.979889145036648"><ele>42.0</ele><time>2026-04-12T09:33:10.999Z</time></trkpt><trkpt lat="44.99269499345529" lon="9.979782324688484"><ele>42.0</ele><time>2026-04-12T09:33:11.999Z</time></trkpt><trkpt lat="44.99274697728718" lon="9.979678491568066"><ele>42.0</ele><time>2026-04-12T09:33:12.999Z</time></trkpt><trkpt lat="44.992796725938504" lon="9.97957334205393"><ele>42.0</ele><time>2026-04-12T09:33:13.999Z</time></trkpt><trkpt lat="44.99284446340089" lon="9.979462580089175"><ele>42.0</ele><time>2026-04-12T09:33:14.999Z</time></trkpt><trkpt lat="44.992894013186316" lon="9.979357202846504"><ele>42.0</ele><time>2026-04-12T09:33:15.999Z</time></trkpt><trkpt lat="44.992950043605916" lon="9.979252761503439"><ele>42.0</ele><time>2026-04-12T09:33:16.999Z</time></trkpt><trkpt lat="44.99300727341852" lon="9.979147867845885"><ele>42.0</ele><time>2026-04-12T09:33:17.999Z</time></trkpt><trkpt lat="44.99305926239768" lon="9.979040810277223"><ele>42.0</ele><time>2026-04-12T09:33:18.998Z</time></trkpt><trkpt lat="44.993107666507875" lon="9.978934918889314"><ele>42.400000000000006</ele><time>2026-04-12T09:33:19.998Z</time></trkpt><trkpt lat="44.99315385319606" lon="9.978829428919571"><ele>42.800000000000004</ele><time>2026-04-12T09:33:20.998Z</time></trkpt><trkpt lat="44.99320297547413" lon="9.978726769842691"><ele>43.2</ele><time>2026-04-12T09:33:21.998Z</time></trkpt><trkpt lat="44.993267886321895" lon="9.978642829308217"><ele>43.6</ele><time>2026-04-12T09:33:22.998Z</time></trkpt><trkpt lat="44.99335575197556" lon="9.978595610423314"><ele>44.0</ele><time>2026-04-12T09:33:23.998Z</time></trkpt><trkpt lat="44.99345176295007" lon="9.978596510020573"><ele>44.0</ele><time>2026-04-12T09:33:24.998Z</time></trkpt><trkpt lat="44.99354112737331" lon="9.978629038366428"><ele>44.0</ele><time>2026-04-12T09:33:25.998Z</time></trkpt><trkpt lat="44.99362423877548" lon="9.978688529142369"><ele>44.0</ele><time>2026-04-12T09:33:26.998Z</time></trkpt><trkpt lat="44.99370330576304" lon="9.978746397563182"><ele>44.0</ele><time>2026-04-12T09:33:27.998Z</time></trkpt><trkpt lat="44.99378426906201" lon="9.978792699321698"><ele>44.0</ele><time>2026-04-12T09:33:28.998Z</time></trkpt><trkpt lat="44.993867904305276" lon="9.97884338643744"><ele>44.0</ele><time>2026-04-12T09:33:29.998Z</time></trkpt><trkpt lat="44.99395111808439" lon="9.978891234140526"><ele>44.0</ele><time>2026-04-12T09:33:30.998Z</time></trkpt><trkpt lat="44.99403380037383" lon="9.978936296066507"><ele>44.0</ele><time>2026-04-12T09:33:31.998Z</time></trkpt><trkpt lat="44.99411591767862" lon="9.97898379817049"><ele>44.0</ele><time>2026-04-12T09:33:32.998Z</time></trkpt><trkpt lat="44.99419874594089" lon="9.979034408158993"><ele>44.0</ele><time>2026-04-12T09:33:33.998Z</time></trkpt><trkpt lat="44.994282251327306" lon="9.979078366752459"><ele>44.0</ele><time>2026-04-12T09:33:34.998Z</time></trkpt><trkpt lat="44.9943662994671" lon="9.97912426668697"><ele>43.800000000000004</ele><time>2026-04-12T09:33:35.998Z</time></trkpt><trkpt lat="44.994451852024056" lon="9.979168442327365"><ele>43.6</ele><time>2026-04-12T09:33:36.998Z</time></trkpt><trkpt lat="44.994536057601984" lon="9.97921648080177"><ele>43.4</ele><time>2026-04-12T09:33:37.998Z</time></trkpt><trkpt lat="44.99461972132318" lon="9.979261457742094"><ele>43.2</ele><time>2026-04-12T09:33:38.998Z</time></trkpt><trkpt lat="44.99470491691654" lon="9.979307256973078"><ele>43.0</ele><time>2026-04-12T09:33:39.998Z</time></trkpt><trkpt lat="44.994788939602365" lon="9.979353786997347"><ele>43.0</ele><time>2026-04-12T09:33:40.998Z</time></trkpt><trkpt lat="44.994874280244325" lon="9.979398748094642"><ele>43.0</ele><time>2026-04-12T09:33:41.998Z</time></trkpt><trkpt lat="44.99495685980441" lon="9.979441828837862"><ele>43.0</ele><time>2026-04-12T09:33:42.998Z</time></trkpt><trkpt lat="44.9950423255551" lon="9.979487739707023"><ele>43.0</ele><time>2026-04-12T09:33:43.998Z</time></trkpt><trkpt lat="44.995127841039256" lon="9.979530619914168"><ele>43.0</ele><time>2026-04-12T09:33:44.998Z</time></trkpt><trkpt lat="44.99521269105044" lon="9.979571992824761"><ele>42.8</ele><time>2026-04-12T09:33:45.998Z</time></trkpt><trkpt lat="44.99529838102296" lon="9.979614643048318"><ele>42.599999999999994</ele><time>2026-04-12T09:33:46.998Z</time></trkpt><trkpt lat="44.99538378952251" lon="9.979655955466674"><ele>42.400000000000006</ele><time>2026-04-12T09:33:47.998Z</time></trkpt><trkpt lat="44.995468943841935" lon="9.9796949818742"><ele>42.2</ele><time>2026-04-12T09:33:48.998Z</time></trkpt><trkpt lat="44.995555659552984" lon="9.979731997732438"><ele>42.0</ele><time>2026-04-12T09:33:49.998Z</time></trkpt><trkpt lat="44.99564073169321" lon="9.979771961842717"><ele>42.0</ele><time>2026-04-12T09:33:50.998Z</time></trkpt><trkpt lat="44.99572595465605" lon="9.979812078514447"><ele>42.0</ele><time>2026-04-12T09:33:51.998Z</time></trkpt><trkpt lat="44.99581034297352" lon="9.979855606871668"><ele>42.0</ele><time>2026-04-12T09:33:52.998Z</time></trkpt><trkpt lat="44.995895639925465" lon="9.979895561452578"><ele>42.0</ele><time>2026-04-12T09:33:53.998Z</time></trkpt><trkpt lat="44.995981070722095" lon="9.979933511906088"><ele>42.0</ele><time>2026-04-12T09:33:54.998Z</time></trkpt><trkpt lat="44.99606698640828" lon="9.979971390033926"><ele>42.0</ele><time>2026-04-12T09:33:55.998Z</time></trkpt><trkpt lat="44.996152316854335" lon="9.980006087343119"><ele>41.6</ele><time>2026-04-12T09:33:57Z</time></trkpt><trkpt lat="44.99623820902998" lon="9.980045331745666"><ele>41.2</ele><time>2026-04-12T09:33:58Z</time></trkpt><trkpt lat="44.996324274741696" lon="9.980083980349868"><ele>40.8</ele><time>2026-04-12T09:33:59Z</time></trkpt><trkpt lat="44.9964101874542" lon="9.980122612480168"><ele>40.4</ele><time>2026-04-12T09:34:00Z</time></trkpt><trkpt lat="44.99649516669865" lon="9.980162862925114"><ele>40.0</ele><time>2026-04-12T09:34:01Z</time></trkpt><trkpt lat="44.996581955256325" lon="9.980200410030907"><ele>40.0</ele><time>2026-04-12T09:34:02Z</time></trkpt><trkpt lat="44.99666731093709" lon="9.98023520821317"><ele>40.0</ele><time>2026-04-12T09:34:03Z</time></trkpt><trkpt lat="44.99675218981858" lon="9.980272991235621"><ele>40.0</ele><time>2026-04-12T09:34:04Z</time></trkpt><trkpt lat="44.996835944236764" lon="9.980306335802853"><ele>40.0</ele><time>2026-04-12T09:34:05Z</time></trkpt><trkpt lat="44.996920589849246" lon="9.980345038222072"><ele>40.0</ele><time>2026-04-12T09:34:06Z</time></trkpt><trkpt lat="44.99700610843423" lon="9.980382837263626"><ele>40.0</ele><time>2026-04-12T09:34:07Z</time></trkpt><trkpt lat="44.99708933077257" lon="9.980422205894504"><ele>40.0</ele><time>2026-04-12T09:34:08Z</time></trkpt><trkpt lat="44.997174270581624" lon="9.980458343952572"><ele>40.0</ele><time>2026-04-12T09:34:09Z</time></trkpt><trkpt lat="44.997258471319405" lon="9.980496303152046"><ele>40.0</ele><time>2026-04-12T09:34:10Z</time></trkpt><trkpt lat="44.99734307646504" lon="9.98053232513767"><ele>40.0</ele><time>2026-04-12T09:34:11Z</time></trkpt><trkpt lat="44.99742776664545" lon="9.980573003009681"><ele>40.0</ele><time>2026-04-12T09:34:12Z</time></trkpt><trkpt lat="44.997512195659404" lon="9.98061042502834"><ele>40.0</ele><time>2026-04-12T09:34:13Z</time></trkpt><trkpt lat="44.9975961823195" lon="9.980649531625666"><ele>40.0</ele><time>2026-04-12T09:34:14Z</time></trkpt><trkpt lat="44.997680888145986" lon="9.980688469128909"><ele>40.0</ele><time>2026-04-12T09:34:15Z</time></trkpt><trkpt lat="44.99776337884835" lon="9.980727521569234"><ele>40.0</ele><time>2026-04-12T09:34:16Z</time></trkpt><trkpt lat="44.99784697569487" lon="9.98076504398729"><ele>40.0</ele><time>2026-04-12T09:34:17Z</time></trkpt><trkpt lat="44.99793017428266" lon="9.980804818077806"><ele>40.0</ele><time>2026-04-12T09:34:18Z</time></trkpt><trkpt lat="44.99801362005394" lon="9.980846596118074"><ele>40.0</ele><time>2026-04-12T09:34:19Z</time></trkpt><trkpt lat="44.99809706903452" lon="9.98088304012901"><ele>40.16666666666667</ele><time>2026-04-12T09:34:20Z</time></trkpt><trkpt lat="44.9981792004699" lon="9.98092373930638"><ele>40.333333333333336</ele><time>2026-04-12T09:34:21Z</time></trkpt><trkpt lat="44.99826322114883" lon="9.98096136691596"><ele>40.5</ele><time>2026-04-12T09:34:22Z</time></trkpt><trkpt lat="44.9983452388839" lon="9.980997770621013"><ele>40.666666666666664</ele><time>2026-04-12T09:34:23Z</time></trkpt><trkpt lat="44.99842636955187" lon="9.981036386692251"><ele>40.83333333333333</ele><time>2026-04-12T09:34:24Z</time></trkpt><trkpt lat="44.998507172557666" lon="9.981075866931715"><ele>41.0</ele><time>2026-04-12T09:34:25Z</time></trkpt><trkpt lat="44.99859016543815" lon="9.981110330036369"><ele>41.33333333333333</ele><time>2026-04-12T09:34:26Z</time></trkpt><trkpt lat="44.99867151879585" lon="9.981147971520935"><ele>41.666666666666664</ele><time>2026-04-12T09:34:27Z</time></trkpt><trkpt lat="44.998750560294816" lon="9.981187786947011"><ele>42.0</ele><time>2026-04-12T09:34:28Z</time></trkpt><trkpt lat="44.99883158115786" lon="9.981229136965284"><ele>42.333333333333336</ele><time>2026-04-12T09:34:29Z</time></trkpt><trkpt lat="44.9989131449218" lon="9.981265741374232"><ele>42.66666666666667</ele><time>2026-04-12T09:34:30Z</time></trkpt><trkpt lat="44.998992686903726" lon="9.981301851119689"><ele>43.0</ele><time>2026-04-12T09:34:30.999Z</time></trkpt><trkpt lat="44.99906838907977" lon="9.98133739907019"><ele>43.0</ele><time>2026-04-12T09:34:31.999Z</time></trkpt><trkpt lat="44.99914183468613" lon="9.98137360595099"><ele>43.0</ele><time>2026-04-12T09:34:32.999Z</time></trkpt><trkpt lat="44.99921387964136" lon="9.981407084451615"><ele>43.0</ele><time>2026-04-12T09:34:33.999Z</time></trkpt><trkpt lat="44.99928390400546" lon="9.981436923141052"><ele>43.0</ele><time>2026-04-12T09:34:34.999Z</time></trkpt><trkpt lat="44.99935560647405" lon="9.981468639397312"><ele>43.0</ele><time>2026-04-12T09:34:35.999Z</time></trkpt><trkpt lat="44.99942741287506" lon="9.981502592669365"><ele>43.0</ele><time>2026-04-12T09:34:36.999Z</time></trkpt><trkpt lat="44.99949589289055" lon="9.981536099130581"><ele>43.0</ele><time>2026-04-12T09:34:37.999Z</time></trkpt><trkpt lat="44.99956935851286" lon="9.981566074541233"><ele>43.0</ele><time>2026-04-12T09:34:38.999Z</time></trkpt><trkpt lat="44.999639124883984" lon="9.98159708357194"><ele>43.0</ele><time>2026-04-12T09:34:39.999Z</time></trkpt><trkpt lat="44.99971028985524" lon="9.981630667247583"><ele>43.0</ele><time>2026-04-12T09:34:40.999Z</time></trkpt><trkpt lat="44.99978446154507" lon="9.981662024937595"><ele>43.0</ele><time>2026-04-12T09:34:41.999Z</time></trkpt><trkpt lat="44.999859839329126" lon="9.981694898973108"><ele>43.0</ele><time>2026-04-12T09:34:42.999Z</time></trkpt><trkpt lat="44.9999347388682" lon="9.981729117745386"><ele>42.833333333333336</ele><time>2026-04-12T09:34:43.999Z</time></trkpt><trkpt lat="45.000011362671145" lon="9.981755417793321"><ele>42.66666666666667</ele><time>2026-04-12T09:34:44.999Z</time></trkpt><trkpt lat="45.00009105310465" lon="9.98179080113366"><ele>42.5</ele><time>2026-04-12T09:34:45.999Z</time></trkpt><trkpt lat="45.000165947648185" lon="9.981826714474805"><ele>42.333333333333336</ele><time>2026-04-12T09:34:46.999Z</time></trkpt><trkpt lat="45.000243749863344" lon="9.98186489624003"><ele>42.166666666666664</ele><time>2026-04-12T09:34:47.999Z</time></trkpt><trkpt lat="45.000320718365124" lon="9.981903255601877"><ele>42.0</ele><time>2026-04-12T09:34:48.999Z</time></trkpt><trkpt lat="45.000395444316425" lon="9.981939605385652"><ele>42.0</ele><time>2026-04-12T09:34:49.999Z</time></trkpt><trkpt lat="45.00047019346754" lon="9.98197938432471"><ele>42.0</ele><time>2026-04-12T09:34:50.999Z</time></trkpt><trkpt lat="45.000543217736976" lon="9.982018593949427"><ele>42.0</ele><time>2026-04-12T09:34:51.999Z</time></trkpt><trkpt lat="45.000616683901065" lon="9.982056940120295"><ele>42.0</ele><time>2026-04-12T09:34:52.999Z</time></trkpt><trkpt lat="45.000691637459376" lon="9.98209413023337"><ele>42.0</ele><time>2026-04-12T09:34:53.999Z</time></trkpt><trkpt lat="45.00076658919757" lon="9.98213441628692"><ele>42.0</ele><time>2026-04-12T09:34:54.999Z</time></trkpt><trkpt lat="45.00084013642111" lon="9.982177835820751"><ele>42.0</ele><time>2026-04-12T09:34:55.999Z</time></trkpt><trkpt lat="45.00091466844278" lon="9.982221898006735"><ele>42.0</ele><time>2026-04-12T09:34:56.999Z</time></trkpt><trkpt lat="45.00098795362194" lon="9.982266550464029"><ele>42.0</ele><time>2026-04-12T09:34:57.999Z</time></trkpt><trkpt lat="45.001062396882745" lon="9.982314698268269"><ele>42.0</ele><time>2026-04-12T09:34:58.999Z</time></trkpt><trkpt lat="45.00113517469147" lon="9.982361927318124"><ele>42.0</ele><time>2026-04-12T09:34:59.999Z</time></trkpt><trkpt lat="45.00120994331974" lon="9.982409057576158"><ele>42.0</ele><time>2026-04-12T09:35:00.999Z</time></trkpt><trkpt lat="45.00128382347799" lon="9.982450951539365"><ele>42.0</ele><time>2026-04-12T09:35:01.999Z</time></trkpt><trkpt lat="45.00135969797498" lon="9.982494682597205"><ele>42.0</ele><time>2026-04-12T09:35:02.999Z</time></trkpt><trkpt lat="45.00143661744809" lon="9.982539045200527"><ele>42.0</ele><time>2026-04-12T09:35:03.999Z</time></trkpt><trkpt lat="45.00151371206221" lon="9.982588228163635"><ele>42.0</ele><time>2026-04-12T09:35:04.999Z</time></trkpt><trkpt lat="45.00158887674109" lon="9.982637628252697"><ele>42.0</ele><time>2026-04-12T09:35:05.999Z</time></trkpt><trkpt lat="45.001663291427604" lon="9.982682593193248"><ele>42.0</ele><time>2026-04-12T09:35:06.999Z</time></trkpt><trkpt lat="45.00174053962697" lon="9.982727175590412"><ele>42.0</ele><time>2026-04-12T09:35:07.999Z</time></trkpt><trkpt lat="45.00181560862015" lon="9.982770698280582"><ele>42.0</ele><time>2026-04-12T09:35:08.999Z</time></trkpt><trkpt lat="45.00189014180681" lon="9.982822381352166"><ele>42.0</ele><time>2026-04-12T09:35:09.999Z</time></trkpt><trkpt lat="45.00196201197156" lon="9.982869110795765"><ele>42.0</ele><time>2026-04-12T09:35:10.999Z</time></trkpt><trkpt lat="45.002036752672645" lon="9.982911661406941"><ele>42.0</ele><time>2026-04-12T09:35:11.999Z</time></trkpt><trkpt lat="45.00211227774053" lon="9.98295369856971"><ele>42.0</ele><time>2026-04-12T09:35:12.999Z</time></trkpt><trkpt lat="45.00218255977545" lon="9.983005127190651"><ele>42.0</ele><time>2026-04-12T09:35:13.999Z</time></trkpt><trkpt lat="45.00225451281617" lon="9.983054507076004"><ele>42.0</ele><time>2026-04-12T09:35:14.999Z</time></trkpt><trkpt lat="45.00232590742026" lon="9.983109592436197"><ele>42.0</ele><time>2026-04-12T09:35:15.999Z</time></trkpt><trkpt lat="45.00239452365816" lon="9.983177204007042"><ele>42.0</ele><time>2026-04-12T09:35:16.999Z</time></trkpt><trkpt lat="45.00245517148096" lon="9.983257285056139"><ele>42.0</ele><time>2026-04-12T09:35:17.999Z</time></trkpt><trkpt lat="45.00251059575998" lon="9.983347568512578"><ele>42.0</ele><time>2026-04-12T09:35:18.999Z</time></trkpt><trkpt lat="45.00256130265342" lon="9.983439006551315"><ele>41.666666666666664</ele><time>2026-04-12T09:35:19.999Z</time></trkpt><trkpt lat="45.002610806679805" lon="9.983533316398557"><ele>41.333333333333336</ele><time>2026-04-12T09:35:20.999Z</time></trkpt><trkpt lat="45.00266651983914" lon="9.983620275521591"><ele>41.0</ele><time>2026-04-12T09:35:21.999Z</time></trkpt><trkpt lat="45.00273046712632" lon="9.983691791251928"><ele>40.66666666666667</ele><time>2026-04-12T09:35:22.999Z</time></trkpt><trkpt lat="45.00279828559277" lon="9.983756503580556"><ele>40.333333333333336</ele><time>2026-04-12T09:35:23.998Z</time></trkpt><trkpt lat="45.00286745065086" lon="9.983819540514066"><ele>40.0</ele><time>2026-04-12T09:35:24.998Z</time></trkpt><trkpt lat="45.00293983567812" lon="9.983870952834526"><ele>40.0</ele><time>2026-04-12T09:35:25.998Z</time></trkpt><trkpt lat="45.003012445667004" lon="9.983925450139882"><ele>40.0</ele><time>2026-04-12T09:35:26.998Z</time></trkpt><trkpt lat="45.00308371019986" lon="9.983978728450737"><ele>40.0</ele><time>2026-04-12T09:35:27.998Z</time></trkpt><trkpt lat="45.00315782600011" lon="9.984034581606616"><ele>40.0</ele><time>2026-04-12T09:35:28.998Z</time></trkpt><trkpt lat="45.00323120539247" lon="9.984093663420593"><ele>40.0</ele><time>2026-04-12T09:35:29.998Z</time></trkpt><trkpt lat="45.00330642557732" lon="9.984151776822257"><ele>40.0</ele><time>2026-04-12T09:35:30.998Z</time></trkpt><trkpt lat="45.0033790469221" lon="9.984206861647886"><ele>40.16666666666667</ele><time>2026-04-12T09:35:31.998Z</time></trkpt><trkpt lat="45.00344924871714" lon="9.984265303894395"><ele>40.333333333333336</ele><time>2026-04-12T09:35:32.998Z</time></trkpt><trkpt lat="45.00351716145534" lon="9.984326288666344"><ele>40.5</ele><time>2026-04-12T09:35:33.998Z</time></trkpt><trkpt lat="45.00358917917484" lon="9.984387897788356"><ele>40.666666666666664</ele><time>2026-04-12T09:35:34.998Z</time></trkpt><trkpt lat="45.00366171248899" lon="9.984443049620666"><ele>40.83333333333333</ele><time>2026-04-12T09:35:35.998Z</time></trkpt><trkpt lat="45.00373482059096" lon="9.984497973572099"><ele>41.0</ele><time>2026-04-12T09:35:36.998Z</time></trkpt><trkpt lat="45.00380968230229" lon="9.984554367871645"><ele>41.0</ele><time>2026-04-12T09:35:37.998Z</time></trkpt><trkpt lat="45.0038843803288" lon="9.984611364653693"><ele>41.0</ele><time>2026-04-12T09:35:38.998Z</time></trkpt><trkpt lat="45.003958463418996" lon="9.98467475334822"><ele>41.0</ele><time>2026-04-12T09:35:39.998Z</time></trkpt><trkpt lat="45.00403260685801" lon="9.984736620102483"><ele>41.0</ele><time>2026-04-12T09:35:40.998Z</time></trkpt><trkpt lat="45.00410694515674" lon="9.98479808690621"><ele>41.0</ele><time>2026-04-12T09:35:41.998Z</time></trkpt><trkpt lat="45.004179779363774" lon="9.9848569505148"><ele>41.0</ele><time>2026-04-12T09:35:42.998Z</time></trkpt><trkpt lat="45.0042493177759" lon="9.98491699458005"><ele>40.83333333333333</ele><time>2026-04-12T09:35:43.998Z</time></trkpt><trkpt lat="45.004319360456144" lon="9.984968676236587"><ele>40.666666666666664</ele><time>2026-04-12T09:35:44.998Z</time></trkpt><trkpt lat="45.004392433401804" lon="9.985021253730762"><ele>40.5</ele><time>2026-04-12T09:35:45.998Z</time></trkpt><trkpt lat="45.00446491905259" lon="9.985075920355841"><ele>40.333333333333336</ele><time>2026-04-12T09:35:46.998Z</time></trkpt><trkpt lat="45.0045366329311" lon="9.985134942245088"><ele>40.16666666666667</ele><time>2026-04-12T09:35:47.998Z</time></trkpt><trkpt lat="45.00460643758646" lon="9.985193774185591"><ele>40.0</ele><time>2026-04-12T09:35:48.998Z</time></trkpt><trkpt lat="45.00467666262497" lon="9.985253811109722"><ele>40.0</ele><time>2026-04-12T09:35:49.998Z</time></trkpt><trkpt lat="45.004747767418706" lon="9.985309261799255"><ele>40.0</ele><time>2026-04-12T09:35:50.998Z</time></trkpt><trkpt lat="45.004817252931886" lon="9.98536510591403"><ele>40.0</ele><time>2026-04-12T09:35:51.998Z</time></trkpt><trkpt lat="45.00488796061239" lon="9.985418965182518"><ele>40.0</ele><time>2026-04-12T09:35:52.998Z</time></trkpt><trkpt lat="45.0049582786591" lon="9.985473536113131"><ele>40.0</ele><time>2026-04-12T09:35:53.998Z</time></trkpt><trkpt lat="45.005026768787026" lon="9.985528324158425"><ele>40.0</ele><time>2026-04-12T09:35:54.998Z</time></trkpt><trkpt lat="45.005096649499876" lon="9.985584853726415"><ele>40.0</ele><time>2026-04-12T09:35:55.998Z</time></trkpt><trkpt lat="45.005165689857684" lon="9.985638447820461"><ele>40.0</ele><time>2026-04-12T09:35:56.998Z</time></trkpt><trkpt lat="45.00523734638004" lon="9.9856917196371"><ele>40.0</ele><time>2026-04-12T09:35:57.998Z</time></trkpt><trkpt lat="45.00530723639417" lon="9.985748521876095"><ele>40.0</ele><time>2026-04-12T09:35:58.998Z</time></trkpt><trkpt lat="45.005376702032606" lon="9.98580768704311"><ele>40.0</ele><time>2026-04-12T09:35:59.998Z</time></trkpt><trkpt lat="45.00544986638908" lon="9.98586735988614"><ele>40.0</ele><time>2026-04-12T09:36:00.998Z</time></trkpt><trkpt lat="45.00552086281621" lon="9.98592561968028"><ele>40.0</ele><time>2026-04-12T09:36:01.998Z</time></trkpt><trkpt lat="45.00559410529113" lon="9.985984748568445"><ele>40.0</ele><time>2026-04-12T09:36:03Z</time></trkpt><trkpt lat="45.005668707878606" lon="9.986040743131051"><ele>40.0</ele><time>2026-04-12T09:36:04Z</time></trkpt><trkpt lat="45.00574354351005" lon="9.986099537365748"><ele>40.0</ele><time>2026-04-12T09:36:05Z</time></trkpt><trkpt lat="45.00581804810384" lon="9.986159580830172"><ele>40.0</ele><time>2026-04-12T09:36:06Z</time></trkpt><trkpt lat="45.00589106420617" lon="9.986219500272973"><ele>40.0</ele><time>2026-04-12T09:36:07Z</time></trkpt><trkpt lat="45.00596083741046" lon="9.98627671962418"><ele>40.16666666666667</ele><time>2026-04-12T09:36:08Z</time></trkpt><trkpt lat="45.006031242849254" lon="9.986334793251856"><ele>40.333333333333336</ele><time>2026-04-12T09:36:09Z</time></trkpt><trkpt lat="45.00610045109702" lon="9.98639299608687"><ele>40.5</ele><time>2026-04-12T09:36:10Z</time></trkpt><trkpt lat="45.00616715507198" lon="9.98645912543954"><ele>40.666666666666664</ele><time>2026-04-12T09:36:11Z</time></trkpt><trkpt lat="45.006226951493566" lon="9.986531812033496"><ele>40.83333333333333</ele><time>2026-04-12T09:36:12Z</time></trkpt><trkpt lat="45.00628129412016" lon="9.98661141322347"><ele>41.0</ele><time>2026-04-12T09:36:13Z</time></trkpt><trkpt lat="45.00633079443592" lon="9.98669576596207"><ele>41.0</ele><time>2026-04-12T09:36:14Z</time></trkpt><trkpt lat="45.006381651995724" lon="9.986779363983056"><ele>41.0</ele><time>2026-04-12T09:36:15Z</time></trkpt><trkpt lat="45.00643619483128" lon="9.98686272759251"><ele>41.0</ele><time>2026-04-12T09:36:16Z</time></trkpt><trkpt lat="45.006486381214785" lon="9.98695121354792"><ele>41.0</ele><time>2026-04-12T09:36:17Z</time></trkpt><trkpt lat="45.00653982141302" lon="9.98703762345131"><ele>41.0</ele><time>2026-04-12T09:36:18Z</time></trkpt><trkpt lat="45.00659726659787" lon="9.987120979121308"><ele>41.0</ele><time>2026-04-12T09:36:19Z</time></trkpt><trkpt lat="45.006651560310964" lon="9.987206101313557"><ele>41.0</ele><time>2026-04-12T09:36:20Z</time></trkpt><trkpt lat="45.00670571224035" lon="9.98729505739785"><ele>41.0</ele><time>2026-04-12T09:36:21Z</time></trkpt><trkpt lat="45.00675945699396" lon="9.987382419110714"><ele>41.0</ele><time>2026-04-12T09:36:22Z</time></trkpt><trkpt lat="45.006812555359055" lon="9.987467790004501"><ele>41.0</ele><time>2026-04-12T09:36:23Z</time></trkpt><trkpt lat="45.00686649457157" lon="9.987552431665556"><ele>41.0</ele><time>2026-04-12T09:36:24Z</time></trkpt><trkpt lat="45.00691993144799" lon="9.987640401451777"><ele>41.0</ele><time>2026-04-12T09:36:25Z</time></trkpt><trkpt lat="45.00697448441144" lon="9.987726801359738"><ele>41.0</ele><time>2026-04-12T09:36:26Z</time></trkpt><trkpt lat="45.00702901493677" lon="9.987814885286983"><ele>41.0</ele><time>2026-04-12T09:36:27Z</time></trkpt><trkpt lat="45.00708495406816" lon="9.987902063396394"><ele>41.0</ele><time>2026-04-12T09:36:28Z</time></trkpt><trkpt lat="45.007138929682654" lon="9.987986333649197"><ele>41.0</ele><time>2026-04-12T09:36:29Z</time></trkpt><trkpt lat="45.007190290675915" lon="9.988070147162063"><ele>41.0</ele><time>2026-04-12T09:36:30Z</time></trkpt><trkpt lat="45.007240437179014" lon="9.988151989766433"><ele>41.0</ele><time>2026-04-12T09:36:31Z</time></trkpt><trkpt lat="45.00728958062517" lon="9.988235428841794"><ele>41.0</ele><time>2026-04-12T09:36:32Z</time></trkpt><trkpt lat="45.007340252886344" lon="9.988323116668925"><ele>41.0</ele><time>2026-04-12T09:36:33Z</time></trkpt><trkpt lat="45.00738797921799" lon="9.988418149804312"><ele>41.0</ele><time>2026-04-12T09:36:34Z</time></trkpt><trkpt lat="45.007432722138226" lon="9.988518602423827"><ele>41.0</ele><time>2026-04-12T09:36:34.999Z</time></trkpt><trkpt lat="45.007474541018944" lon="9.988620098554469"><ele>41.0</ele><time>2026-04-12T09:36:35.999Z</time></trkpt><trkpt lat="45.00751463374748" lon="9.988725382824777"><ele>41.0</ele><time>2026-04-12T09:36:36.999Z</time></trkpt><trkpt lat="45.007548826051895" lon="9.988831257704437"><ele>41.0</ele><time>2026-04-12T09:36:37.999Z</time></trkpt><trkpt lat="45.007581376121664" lon="9.988938170854922"><ele>41.0</ele><time>2026-04-12T09:36:38.999Z</time></trkpt><trkpt lat="45.007614854442224" lon="9.98904381084005"><ele>41.0</ele><time>2026-04-12T09:36:39.999Z</time></trkpt><trkpt lat="45.00765152749077" lon="9.989146981740715"><ele>41.0</ele><time>2026-04-12T09:36:40.999Z</time></trkpt><trkpt lat="45.00768897358404" lon="9.989246640764948"><ele>41.0</ele><time>2026-04-12T09:36:41.999Z</time></trkpt><trkpt lat="45.00773194362649" lon="9.989342889693715"><ele>41.0</ele><time>2026-04-12T09:36:42.999Z</time></trkpt><trkpt lat="45.00777802809481" lon="9.989435678911946"><ele>41.0</ele><time>2026-04-12T09:36:43.999Z</time></trkpt><trkpt lat="45.00782570004272" lon="9.989526332086418"><ele>41.0</ele><time>2026-04-12T09:36:44.999Z</time></trkpt><trkpt lat="45.00787550355596" lon="9.989615785974602"><ele>41.0</ele><time>2026-04-12T09:36:45.999Z</time></trkpt><trkpt lat="45.00792444816626" lon="9.989704253383907"><ele>41.0</ele><time>2026-04-12T09:36:46.999Z</time></trkpt><trkpt lat="45.00797436939219" lon="9.989789661341263"><ele>41.0</ele><time>2026-04-12T09:36:47.999Z</time></trkpt><trkpt lat="45.00802711844004" lon="9.989874052786524"><ele>41.0</ele><time>2026-04-12T09:36:48.999Z</time></trkpt><trkpt lat="45.008078087249054" lon="9.989957831746592"><ele>40.83333333333333</ele><time>2026-04-12T09:36:49.999Z</time></trkpt><trkpt lat="45.00812958780048" lon="9.9900454615068"><ele>40.666666666666664</ele><time>2026-04-12T09:36:50.999Z</time></trkpt><trkpt lat="45.00818217839313" lon="9.990133216093138"><ele>40.5</ele><time>2026-04-12T09:36:51.999Z</time></trkpt><trkpt lat="45.008235849440034" lon="9.99022375579932"><ele>40.333333333333336</ele><time>2026-04-12T09:36:52.999Z</time></trkpt><trkpt lat="45.008291585964514" lon="9.990316918065265"><ele>40.16666666666667</ele><time>2026-04-12T09:36:53.999Z</time></trkpt><trkpt lat="45.00834760442077" lon="9.990412632289143"><ele>40.0</ele><time>2026-04-12T09:36:54.999Z</time></trkpt><trkpt lat="45.00840480612113" lon="9.990504384233388"><ele>40.0</ele><time>2026-04-12T09:36:55.999Z</time></trkpt><trkpt lat="45.00846091991915" lon="9.990596418362587"><ele>40.0</ele><time>2026-04-12T09:36:56.999Z</time></trkpt><trkpt lat="45.0085157099592" lon="9.990690409276874"><ele>40.0</ele><time>2026-04-12T09:36:57.999Z</time></trkpt><trkpt lat="45.00857280952552" lon="9.990786064230132"><ele>40.0</ele><time>2026-04-12T09:36:58.999Z</time></trkpt><trkpt lat="45.00862853863467" lon="9.990882859208387"><ele>40.0</ele><time>2026-04-12T09:36:59.999Z</time></trkpt><trkpt lat="45.0086834548203" lon="9.990978682537074"><ele>40.0</ele><time>2026-04-12T09:37:00.999Z</time></trkpt><trkpt lat="45.00873728278088" lon="9.991074213031245"><ele>40.0</ele><time>2026-04-12T09:37:01.999Z</time></trkpt><trkpt lat="45.00878982086425" lon="9.991168899536616"><ele>40.0</ele><time>2026-04-12T09:37:02.999Z</time></trkpt><trkpt lat="45.008844435182354" lon="9.991259967640998"><ele>40.0</ele><time>2026-04-12T09:37:03.999Z</time></trkpt><trkpt lat="45.008896485294166" lon="9.991350136929396"><ele>40.0</ele><time>2026-04-12T09:37:04.999Z</time></trkpt><trkpt lat="45.008950016658716" lon="9.991439659443708"><ele>40.0</ele><time>2026-04-12T09:37:05.999Z</time></trkpt><trkpt lat="45.00900172942532" lon="9.991526087000569"><ele>40.0</ele><time>2026-04-12T09:37:06.999Z</time></trkpt><trkpt lat="45.00904982565328" lon="9.991610495890923"><ele>40.0</ele><time>2026-04-12T09:37:07.999Z</time></trkpt><trkpt lat="45.009094421543004" lon="9.991693717913597"><ele>40.0</ele><time>2026-04-12T09:37:08.999Z</time></trkpt><trkpt lat="45.00914089422085" lon="9.991776405057905"><ele>40.0</ele><time>2026-04-12T09:37:09.999Z</time></trkpt><trkpt lat="45.00919406712951" lon="9.99186133710442"><ele>40.0</ele><time>2026-04-12T09:37:10.999Z</time></trkpt><trkpt lat="45.009250285937995" lon="9.991949859884281"><ele>40.0</ele><time>2026-04-12T09:37:11.999Z</time></trkpt><trkpt lat="45.00930689106627" lon="9.992038589985867"><ele>40.0</ele><time>2026-04-12T09:37:12.999Z</time></trkpt><trkpt lat="45.00936452567057" lon="9.992129645246512"><ele>39.833333333333336</ele><time>2026-04-12T09:37:13.999Z</time></trkpt><trkpt lat="45.00942411509051" lon="9.992217423890445"><ele>39.66666666666667</ele><time>2026-04-12T09:37:14.999Z</time></trkpt><trkpt lat="45.0094818105973" lon="9.992309738953411"><ele>39.5</ele><time>2026-04-12T09:37:15.999Z</time></trkpt><trkpt lat="45.00953991237561" lon="9.992403120879205"><ele>39.333333333333336</ele><time>2026-04-12T09:37:16.999Z</time></trkpt><trkpt lat="45.00959748890453" lon="9.992494587441175"><ele>39.166666666666664</ele><time>2026-04-12T09:37:17.999Z</time></trkpt><trkpt lat="45.0096565100366" lon="9.992585389691433"><ele>39.0</ele><time>2026-04-12T09:37:18.999Z</time></trkpt><trkpt lat="45.0097151840635" lon="9.992675556123237"><ele>39.0</ele><time>2026-04-12T09:37:19.999Z</time></trkpt><trkpt lat="45.00977477939507" lon="9.99276684110553"><ele>39.0</ele><time>2026-04-12T09:37:20.999Z</time></trkpt><trkpt lat="45.00983269896373" lon="9.992855747547946"><ele>39.0</ele><time>2026-04-12T09:37:21.999Z</time></trkpt><trkpt lat="45.00989263123099" lon="9.992943712634917"><ele>39.0</ele><time>2026-04-12T09:37:22.999Z</time></trkpt><trkpt lat="45.00995172300849" lon="9.993032214357543"><ele>39.0</ele><time>2026-04-12T09:37:23.999Z</time></trkpt><trkpt lat="45.01001045587718" lon="9.993120700752304"><ele>39.0</ele><time>2026-04-12T09:37:24.999Z</time></trkpt><trkpt lat="45.01007112605708" lon="9.993208147527902"><ele>39.0</ele><time>2026-04-12T09:37:25.999Z</time></trkpt><trkpt lat="45.010131549794174" lon="9.993295860555591"><ele>39.0</ele><time>2026-04-12T09:37:26.998Z</time></trkpt><trkpt lat="45.010190815609114" lon="9.993385824943967"><ele>39.0</ele><time>2026-04-12T09:37:27.998Z</time></trkpt><trkpt lat="45.0102485487691" lon="9.993472266536394"><ele>39.0</ele><time>2026-04-12T09:37:28.998Z</time></trkpt><trkpt lat="45.01030739645667" lon="9.993561641448766"><ele>39.0</ele><time>2026-04-12T09:37:29.998Z</time></trkpt><trkpt lat="45.010365333303774" lon="9.993651287615892"><ele>39.0</ele><time>2026-04-12T09:37:30.998Z</time></trkpt><trkpt lat="45.01042419260009" lon="9.993738932796312"><ele>39.166666666666664</ele><time>2026-04-12T09:37:31.998Z</time></trkpt><trkpt lat="45.01048396192526" lon="9.993825615512803"><ele>39.333333333333336</ele><time>2026-04-12T09:37:32.998Z</time></trkpt><trkpt lat="45.01054310857939" lon="9.99391593436361"><ele>39.5</ele><time>2026-04-12T09:37:33.998Z</time></trkpt><trkpt lat="45.010603628362176" lon="9.994002551854287"><ele>39.66666666666667</ele><time>2026-04-12T09:37:34.998Z</time></trkpt><trkpt lat="45.01066548864955" lon="9.994090463579468"><ele>39.833333333333336</ele><time>2026-04-12T09:37:35.998Z</time></trkpt><trkpt lat="45.0107265235562" lon="9.994176042168013"><ele>40.0</ele><time>2026-04-12T09:37:36.998Z</time></trkpt><trkpt lat="45.010787201989" lon="9.994261025073797"><ele>40.0</ele><time>2026-04-12T09:37:37.998Z</time></trkpt><trkpt lat="45.010849578684216" lon="9.994340745468818"><ele>40.0</ele><time>2026-04-12T09:37:38.998Z</time></trkpt><trkpt lat="45.010912099711774" lon="9.994422621050942"><ele>40.0</ele><time>2026-04-12T09:37:39.998Z</time></trkpt><trkpt lat="45.010973364686166" lon="9.994503352363111"><ele>40.0</ele><time>2026-04-12T09:37:40.998Z</time></trkpt><trkpt lat="45.011034987112815" lon="9.994585590564332"><ele>40.0</ele><time>2026-04-12T09:37:41.998Z</time></trkpt><trkpt lat="45.011098018023425" lon="9.994667403715058"><ele>40.0</ele><time>2026-04-12T09:37:42.998Z</time></trkpt><trkpt lat="45.011161286994515" lon="9.99474657747422"><ele>40.0</ele><time>2026-04-12T09:37:43.998Z</time></trkpt><trkpt lat="45.0112267073991" lon="9.994827926085348"><ele>40.0</ele><time>2026-04-12T09:37:44.998Z</time></trkpt><trkpt lat="45.011290902571965" lon="9.99491132832997"><ele>40.0</ele><time>2026-04-12T09:37:45.998Z</time></trkpt><trkpt lat="45.01135206599947" lon="9.995000906355314"><ele>40.0</ele><time>2026-04-12T09:37:46.998Z</time></trkpt><trkpt lat="45.01141198304218" lon="9.995093743754072"><ele>40.0</ele><time>2026-04-12T09:37:47.998Z</time></trkpt><trkpt lat="45.01147187799629" lon="9.995186589223497"><ele>40.0</ele><time>2026-04-12T09:37:48.998Z</time></trkpt><trkpt lat="45.0115333699887" lon="9.99527928771963"><ele>39.833333333333336</ele><time>2026-04-12T09:37:49.998Z</time></trkpt><trkpt lat="45.011594369088826" lon="9.995372048919647"><ele>39.66666666666667</ele><time>2026-04-12T09:37:50.998Z</time></trkpt><trkpt lat="45.011654605941686" lon="9.995461828179403"><ele>39.5</ele><time>2026-04-12T09:37:51.998Z</time></trkpt><trkpt lat="45.01171373403593" lon="9.99555258869726"><ele>39.333333333333336</ele><time>2026-04-12T09:37:52.998Z</time></trkpt><trkpt lat="45.0117713476879" lon="9.99564136732845"><ele>39.166666666666664</ele><time>2026-04-12T09:37:53.998Z</time></trkpt><trkpt lat="45.011827443283494" lon="9.99572925146376"><ele>39.0</ele><time>2026-04-12T09:37:54.998Z</time></trkpt><trkpt lat="45.01187983185786" lon="9.99581314619727"><ele>39.166666666666664</ele><time>2026-04-12T09:37:55.998Z</time></trkpt><trkpt lat="45.01193311944439" lon="9.995904609174811"><ele>39.333333333333336</ele><time>2026-04-12T09:37:56.998Z</time></trkpt><trkpt lat="45.0119881372763" lon="9.995991150880256"><ele>39.5</ele><time>2026-04-12T09:37:57.998Z</time></trkpt><trkpt lat="45.01204016776401" lon="9.996079872835026"><ele>39.66666666666667</ele><time>2026-04-12T09:37:58.998Z</time></trkpt><trkpt lat="45.01208611650191" lon="9.996165810034773"><ele>39.833333333333336</ele><time>2026-04-12T09:37:59.998Z</time></trkpt><trkpt lat="45.01212585803079" lon="9.996251437508189"><ele>40.0</ele><time>2026-04-12T09:38:00.998Z</time></trkpt><trkpt lat="45.01216199994991" lon="9.996335972812208"><ele>40.0</ele><time>2026-04-12T09:38:01.998Z</time></trkpt><trkpt lat="45.012201379316096" lon="9.996418955496926"><ele>40.0</ele><time>2026-04-12T09:38:02.998Z</time></trkpt><trkpt lat="45.012245504370746" lon="9.996498179145688"><ele>40.0</ele><time>2026-04-12T09:38:03.998Z</time></trkpt><trkpt lat="45.01229215293785" lon="9.9965761237792"><ele>40.0</ele><time>2026-04-12T09:38:04.998Z</time></trkpt><trkpt lat="45.0123379097993" lon="9.99665326107714"><ele>40.0</ele><time>2026-04-12T09:38:05.998Z</time></trkpt><trkpt lat="45.01238026350769" lon="9.996742113434484"><ele>40.0</ele><time>2026-04-12T09:38:06.998Z</time></trkpt><trkpt lat="45.012425575665446" lon="9.996829258287981"><ele>40.0</ele><time>2026-04-12T09:38:07.998Z</time></trkpt><trkpt lat="45.01247980234646" lon="9.996916914933998"><ele>39.833333333333336</ele><time>2026-04-12T09:38:09Z</time></trkpt><trkpt lat="45.01253069470658" lon="9.997006118104743"><ele>39.66666666666667</ele><time>2026-04-12T09:38:10Z</time></trkpt><trkpt lat="45.012587755817954" lon="9.997096385263985"><ele>39.5</ele><time>2026-04-12T09:38:11Z</time></trkpt><trkpt lat="45.01264369519514" lon="9.99718830150859"><ele>39.333333333333336</ele><time>2026-04-12T09:38:12Z</time></trkpt><trkpt lat="45.012700263464325" lon="9.997281854346308"><ele>39.166666666666664</ele><time>2026-04-12T09:38:13Z</time></trkpt><trkpt lat="45.01275610643748" lon="9.997373596113402"><ele>39.0</ele><time>2026-04-12T09:38:14Z</time></trkpt><trkpt lat="45.01281266622888" lon="9.997464570534273"><ele>39.333333333333336</ele><time>2026-04-12T09:38:15Z</time></trkpt><trkpt lat="45.01286572834735" lon="9.997560450944773"><ele>39.666666666666664</ele><time>2026-04-12T09:38:16Z</time></trkpt><trkpt lat="45.012921667616574" lon="9.997653221251788"><ele>40.0</ele><time>2026-04-12T09:38:17Z</time></trkpt><trkpt lat="45.01298118240461" lon="9.997743944870702"><ele>40.33333333333333</ele><time>2026-04-12T09:38:18Z</time></trkpt><trkpt lat="45.01303655422364" lon="9.9978359949922"><ele>40.666666666666664</ele><time>2026-04-12T09:38:19Z</time></trkpt><trkpt lat="45.01309243913717" lon="9.997931796309794"><ele>41.0</ele><time>2026-04-12T09:38:20Z</time></trkpt><trkpt lat="45.01314591326932" lon="9.99802469643478"><ele>41.0</ele><time>2026-04-12T09:38:21Z</time></trkpt><trkpt lat="45.01319975497856" lon="9.99810857054621"><ele>41.0</ele><time>2026-04-12T09:38:22Z</time></trkpt><trkpt lat="45.01325624087302" lon="9.998197507326207"><ele>41.0</ele><time>2026-04-12T09:38:23Z</time></trkpt><trkpt lat="45.01331022022008" lon="9.998283961560833"><ele>41.0</ele><time>2026-04-12T09:38:24Z</time></trkpt><trkpt lat="45.01336371947236" lon="9.998372734327752"><ele>41.0</ele><time>2026-04-12T09:38:25Z</time></trkpt><trkpt lat="45.01341596882724" lon="9.99845828813528"><ele>41.0</ele><time>2026-04-12T09:38:26Z</time></trkpt><trkpt lat="45.01346706647293" lon="9.998541025346457"><ele>40.5</ele><time>2026-04-12T09:38:27Z</time></trkpt><trkpt lat="45.01352032426025" lon="9.998624995942984"><ele>40.0</ele><time>2026-04-12T09:38:28Z</time></trkpt><trkpt lat="45.013573796597306" lon="9.998709945492777"><ele>39.5</ele><time>2026-04-12T09:38:29Z</time></trkpt><trkpt lat="45.013627883509" lon="9.998797151096282"><ele>39.0</ele><time>2026-04-12T09:38:30Z</time></trkpt><trkpt lat="45.01368448983508" lon="9.998881597564447"><ele>38.5</ele><time>2026-04-12T09:38:31Z</time></trkpt><trkpt lat="45.01374057016631" lon="9.99896501713621"><ele>38.0</ele><time>2026-04-12T09:38:32Z</time></trkpt><trkpt lat="45.01379486706071" lon="9.99905413833517"><ele>38.0</ele><time>2026-04-12T09:38:33Z</time></trkpt><trkpt lat="45.013847668075506" lon="9.999143487999827"><ele>38.0</ele><time>2026-04-12T09:38:34Z</time></trkpt><trkpt lat="45.013900489700205" lon="9.99923209253424"><ele>38.0</ele><time>2026-04-12T09:38:35Z</time></trkpt><trkpt lat="45.01395423798139" lon="9.999319528095256"><ele>38.0</ele><time>2026-04-12T09:38:36Z</time></trkpt><trkpt lat="45.01400603541242" lon="9.999404588552812"><ele>38.0</ele><time>2026-04-12T09:38:37Z</time></trkpt><trkpt lat="45.014059239865226" lon="9.999493030925443"><ele>38.0</ele><time>2026-04-12T09:38:38Z</time></trkpt><trkpt lat="45.014111000813486" lon="9.999579415345792"><ele>38.166666666666664</ele><time>2026-04-12T09:38:38.999Z</time></trkpt><trkpt lat="45.01416537567655" lon="9.999665590448608"><ele>38.33333333333333</ele><time>2026-04-12T09:38:39.999Z</time></trkpt><trkpt lat="45.01421979850654" lon="9.999753468643362"><ele>38.5</ele><time>2026-04-12T09:38:40.999Z</time></trkpt><trkpt lat="45.01427617874025" lon="9.999841720728572"><ele>38.666666666666664</ele><time>2026-04-12T09:38:41.999Z</time></trkpt><trkpt lat="45.0143321307174" lon="9.999930841264035"><ele>38.833333333333336</ele><time>2026-04-12T09:38:42.999Z</time></trkpt><trkpt lat="45.01438632437264" lon="10.00001865328139"><ele>39.0</ele><time>2026-04-12T09:38:43.999Z</time></trkpt><trkpt lat="45.01443532962497" lon="10.000115231246145"><ele>39.0</ele><time>2026-04-12T09:38:44.999Z</time></trkpt><trkpt lat="45.01448983181808" lon="10.00020576266566"><ele>39.0</ele><time>2026-04-12T09:38:45.999Z</time></trkpt><trkpt lat="45.014545453872984" lon="10.000292979425078"><ele>39.0</ele><time>2026-04-12T09:38:46.999Z</time></trkpt><trkpt lat="45.01459963495055" lon="10.000379759291599"><ele>39.0</ele><time>2026-04-12T09:38:47.999Z</time></trkpt><trkpt lat="45.014654223669794" lon="10.000465710729758"><ele>39.0</ele><time>2026-04-12T09:38:48.999Z</time></trkpt><trkpt lat="45.01470484510246" lon="10.00055331886176"><ele>39.0</ele><time>2026-04-12T09:38:49.999Z</time></trkpt><trkpt lat="45.01475771705725" lon="10.000643518208996"><ele>39.0</ele><time>2026-04-12T09:38:50.999Z</time></trkpt><trkpt lat="45.0148134765182" lon="10.000730845047924"><ele>39.0</ele><time>2026-04-12T09:38:51.999Z</time></trkpt><trkpt lat="45.01486764130494" lon="10.000816806314539"><ele>39.0</ele><time>2026-04-12T09:38:52.999Z</time></trkpt><trkpt lat="45.014923544793525" lon="10.00090285417934"><ele>39.0</ele><time>2026-04-12T09:38:53.999Z</time></trkpt><trkpt lat="45.01498043749537" lon="10.000985776407326"><ele>39.0</ele><time>2026-04-12T09:38:54.999Z</time></trkpt><trkpt lat="45.01503471368739" lon="10.001065617648095"><ele>39.0</ele><time>2026-04-12T09:38:55.999Z</time></trkpt><trkpt lat="45.01508757044296" lon="10.001149030998663"><ele>38.833333333333336</ele><time>2026-04-12T09:38:56.999Z</time></trkpt><trkpt lat="45.01513956636439" lon="10.001234130298018"><ele>38.666666666666664</ele><time>2026-04-12T09:38:57.999Z</time></trkpt><trkpt lat="45.01518639550095" lon="10.001318373099375"><ele>38.5</ele><time>2026-04-12T09:38:58.999Z</time></trkpt><trkpt lat="45.01523732674315" lon="10.001405310210348"><ele>38.33333333333333</ele><time>2026-04-12T09:38:59.999Z</time></trkpt><trkpt lat="45.015288981356875" lon="10.001489084453551"><ele>38.166666666666664</ele><time>2026-04-12T09:39:00.999Z</time></trkpt><trkpt lat="45.01534217259596" lon="10.001574609048022"><ele>38.0</ele><time>2026-04-12T09:39:01.999Z</time></trkpt><trkpt lat="45.015392439730974" lon="10.001659497139169"><ele>38.5</ele><time>2026-04-12T09:39:02.999Z</time></trkpt><trkpt lat="45.0154427124593" lon="10.001744801390526"><ele>39.0</ele><time>2026-04-12T09:39:03.999Z</time></trkpt><trkpt lat="45.01549251102745" lon="10.001827566220356"><ele>39.5</ele><time>2026-04-12T09:39:04.999Z</time></trkpt><trkpt lat="45.0155378211149" lon="10.001905529840352"><ele>40.0</ele><time>2026-04-12T09:39:05.999Z</time></trkpt><trkpt lat="45.015584935401606" lon="10.001992057562013"><ele>40.5</ele><time>2026-04-12T09:39:06.999Z</time></trkpt><trkpt lat="45.01563597588144" lon="10.002079461810483"><ele>41.0</ele><time>2026-04-12T09:39:07.999Z</time></trkpt><trkpt lat="45.01568934543333" lon="10.002166987703829"><ele>41.0</ele><time>2026-04-12T09:39:08.999Z</time></trkpt><trkpt lat="45.01574062412603" lon="10.0022543211835"><ele>41.0</ele><time>2026-04-12T09:39:09.999Z</time></trkpt><trkpt lat="45.01579383291142" lon="10.00233857697054"><ele>41.0</ele><time>2026-04-12T09:39:10.999Z</time></trkpt><trkpt lat="45.015849046876816" lon="10.002421909380919"><ele>41.0</ele><time>2026-04-12T09:39:11.999Z</time></trkpt><trkpt lat="45.015902667110225" lon="10.002510665409691"><ele>41.0</ele><time>2026-04-12T09:39:12.999Z</time></trkpt><trkpt lat="45.015952294525626" lon="10.002596198261116"><ele>41.0</ele><time>2026-04-12T09:39:13.999Z</time></trkpt><trkpt lat="45.016005360791226" lon="10.002680173089944"><ele>40.5</ele><time>2026-04-12T09:39:14.999Z</time></trkpt><trkpt lat="45.01606044604517" lon="10.002765186013459"><ele>40.0</ele><time>2026-04-12T09:39:15.999Z</time></trkpt><trkpt lat="45.016112513446096" lon="10.002850079055357"><ele>39.5</ele><time>2026-04-12T09:39:16.999Z</time></trkpt><trkpt lat="45.016166335363984" lon="10.002940669537555"><ele>39.0</ele><time>2026-04-12T09:39:17.999Z</time></trkpt><trkpt lat="45.016221223273384" lon="10.003035296256815"><ele>38.5</ele><time>2026-04-12T09:39:18.999Z</time></trkpt><trkpt lat="45.01627744024037" lon="10.003129304256635"><ele>38.0</ele><time>2026-04-12T09:39:19.999Z</time></trkpt><trkpt lat="45.016336161273806" lon="10.003222260097939"><ele>38.0</ele><time>2026-04-12T09:39:20.999Z</time></trkpt><trkpt lat="45.016394904197575" lon="10.003312908051969"><ele>38.0</ele><time>2026-04-12T09:39:21.999Z</time></trkpt><trkpt lat="45.01645177701349" lon="10.003406711132628"><ele>38.0</ele><time>2026-04-12T09:39:22.999Z</time></trkpt><trkpt lat="45.01650949290475" lon="10.003496123868365"><ele>38.0</ele><time>2026-04-12T09:39:23.999Z</time></trkpt><trkpt lat="45.01656574160287" lon="10.003589508012583"><ele>38.0</ele><time>2026-04-12T09:39:24.999Z</time></trkpt><trkpt lat="45.01662468834658" lon="10.003680191565808"><ele>38.0</ele><time>2026-04-12T09:39:25.999Z</time></trkpt><trkpt lat="45.01668338850273" lon="10.003774098986534"><ele>38.0</ele><time>2026-04-12T09:39:26.999Z</time></trkpt><trkpt lat="45.0167421660784" lon="10.003868847754951"><ele>38.0</ele><time>2026-04-12T09:39:27.999Z</time></trkpt><trkpt lat="45.01679773639076" lon="10.003963051035205"><ele>38.0</ele><time>2026-04-12T09:39:28.999Z</time></trkpt><trkpt lat="45.01685208952885" lon="10.004059414398832"><ele>38.0</ele><time>2026-04-12T09:39:29.999Z</time></trkpt><trkpt lat="45.016909687811776" lon="10.004151571811757"><ele>38.0</ele><time>2026-04-12T09:39:30.999Z</time></trkpt><trkpt lat="45.01696789628807" lon="10.004247655729298"><ele>38.0</ele><time>2026-04-12T09:39:31.998Z</time></trkpt><trkpt lat="45.017028384196166" lon="10.004339245521333"><ele>38.0</ele><time>2026-04-12T09:39:32.998Z</time></trkpt><trkpt lat="45.0170872432792" lon="10.004435182658801"><ele>38.0</ele><time>2026-04-12T09:39:33.998Z</time></trkpt><trkpt lat="45.01714506627448" lon="10.004529879070747"><ele>38.0</ele><time>2026-04-12T09:39:34.998Z</time></trkpt><trkpt lat="45.01720112744447" lon="10.00462296624939"><ele>38.0</ele><time>2026-04-12T09:39:35.998Z</time></trkpt><trkpt lat="45.01725703784289" lon="10.004711351416308"><ele>38.0</ele><time>2026-04-12T09:39:36.998Z</time></trkpt><trkpt lat="45.01731017501279" lon="10.004801691643594"><ele>38.0</ele><time>2026-04-12T09:39:37.998Z</time></trkpt><trkpt lat="45.01736362362717" lon="10.004887996644614"><ele>38.0</ele><time>2026-04-12T09:39:38.998Z</time></trkpt><trkpt lat="45.017416564274086" lon="10.004974368781008"><ele>38.0</ele><time>2026-04-12T09:39:39.998Z</time></trkpt><trkpt lat="45.017470076842216" lon="10.005068699540358"><ele>38.0</ele><time>2026-04-12T09:39:40.998Z</time></trkpt><trkpt lat="45.01752691127518" lon="10.005162519521782"><ele>38.0</ele><time>2026-04-12T09:39:41.998Z</time></trkpt><trkpt lat="45.01758360126481" lon="10.005256295286863"><ele>38.0</ele><time>2026-04-12T09:39:42.998Z</time></trkpt><trkpt lat="45.01764027848358" lon="10.00535081259817"><ele>38.0</ele><time>2026-04-12T09:39:43.998Z</time></trkpt><trkpt lat="45.01769651005129" lon="10.005447226579564"><ele>38.166666666666664</ele><time>2026-04-12T09:39:44.998Z</time></trkpt><trkpt lat="45.017754440636985" lon="10.005541286806713"><ele>38.33333333333333</ele><time>2026-04-12T09:39:45.998Z</time></trkpt><trkpt lat="45.01781206664077" lon="10.005637482962172"><ele>38.5</ele><time>2026-04-12T09:39:46.998Z</time></trkpt><trkpt lat="45.017870684592125" lon="10.005732525746232"><ele>38.666666666666664</ele><time>2026-04-12T09:39:47.998Z</time></trkpt><trkpt lat="45.01793048318216" lon="10.005829034577387"><ele>38.833333333333336</ele><time>2026-04-12T09:39:48.998Z</time></trkpt><trkpt lat="45.017988389440035" lon="10.0059241311827"><ele>39.0</ele><time>2026-04-12T09:39:49.998Z</time></trkpt><trkpt lat="45.01804792918721" lon="10.00602079072011"><ele>39.0</ele><time>2026-04-12T09:39:50.998Z</time></trkpt><trkpt lat="45.01810445557403" lon="10.00611691328266"><ele>39.0</ele><time>2026-04-12T09:39:51.998Z</time></trkpt><trkpt lat="45.018161200498774" lon="10.006212597800275"><ele>39.0</ele><time>2026-04-12T09:39:52.998Z</time></trkpt><trkpt lat="45.0182207037388" lon="10.006305299652416"><ele>39.0</ele><time>2026-04-12T09:39:53.998Z</time></trkpt><trkpt lat="45.01828042365438" lon="10.006398618363209"><ele>39.0</ele><time>2026-04-12T09:39:54.998Z</time></trkpt><trkpt lat="45.018338737436316" lon="10.006494510909071"><ele>39.0</ele><time>2026-04-12T09:39:55.998Z</time></trkpt><trkpt lat="45.01839550771872" lon="10.006589577952136"><ele>38.8</ele><time>2026-04-12T09:39:56.998Z</time></trkpt><trkpt lat="45.018453879503994" lon="10.006684790937317"><ele>38.599999999999994</ele><time>2026-04-12T09:39:57.998Z</time></trkpt><trkpt lat="45.01851061157122" lon="10.006780706008213"><ele>38.4</ele><time>2026-04-12T09:39:58.998Z</time></trkpt><trkpt lat="45.01862577231878" lon="10.006975264816925"><ele>38.199999999999996</ele><time>2026-04-12T09:40:00.998Z</time></trkpt><trkpt lat="45.018684189683036" lon="10.007071606362514"><ele>38.0</ele><time>2026-04-12T09:40:01.998Z</time></trkpt><trkpt lat="45.01874261418586" lon="10.007162517586453"><ele>38.0</ele><time>2026-04-12T09:40:02.998Z</time></trkpt><trkpt lat="45.018799186114094" lon="10.007252762483402"><ele>38.0</ele><time>2026-04-12T09:40:03.998Z</time></trkpt><trkpt lat="45.01885567007899" lon="10.007338872702089"><ele>38.0</ele><time>2026-04-12T09:40:04.998Z</time></trkpt><trkpt lat="45.01890967137498" lon="10.007426296374947"><ele>38.0</ele><time>2026-04-12T09:40:05.998Z</time></trkpt><trkpt lat="45.018961886524" lon="10.007512034867936"><ele>38.0</ele><time>2026-04-12T09:40:06.998Z</time></trkpt><trkpt lat="45.01901154378634" lon="10.007598453382963"><ele>38.0</ele><time>2026-04-12T09:40:07.998Z</time></trkpt><trkpt lat="45.01906230364645" lon="10.007680482116092"><ele>38.0</ele><time>2026-04-12T09:40:08.998Z</time></trkpt><trkpt lat="45.01911323845037" lon="10.00776047001385"><ele>38.0</ele><time>2026-04-12T09:40:09.998Z</time></trkpt><trkpt lat="45.01916282049765" lon="10.007839598268474"><ele>38.0</ele><time>2026-04-12T09:40:10.998Z</time></trkpt><trkpt lat="45.01920752609059" lon="10.00792355422595"><ele>38.0</ele><time>2026-04-12T09:40:11.998Z</time></trkpt><trkpt lat="45.01925565795255" lon="10.008008093416548"><ele>38.0</ele><time>2026-04-12T09:40:12.998Z</time></trkpt><trkpt lat="45.01930915643667" lon="10.008089641216824"><ele>38.0</ele><time>2026-04-12T09:40:13.998Z</time></trkpt><trkpt lat="45.01936021252806" lon="10.008170781821121"><ele>38.166666666666664</ele><time>2026-04-12T09:40:15Z</time></trkpt><trkpt lat="45.01940956131017" lon="10.00825335623598"><ele>38.33333333333333</ele><time>2026-04-12T09:40:16Z</time></trkpt><trkpt lat="45.0194592996969" lon="10.008335412570943"><ele>38.5</ele><time>2026-04-12T09:40:17Z</time></trkpt><trkpt lat="45.01950709593674" lon="10.008418565979206"><ele>38.666666666666664</ele><time>2026-04-12T09:40:18Z</time></trkpt><trkpt lat="45.019555426925876" lon="10.008498524219236"><ele>38.833333333333336</ele><time>2026-04-12T09:40:19Z</time></trkpt><trkpt lat="45.01960583149638" lon="10.008576788253693"><ele>39.0</ele><time>2026-04-12T09:40:20Z</time></trkpt><trkpt lat="45.01965495909658" lon="10.008653906455887"><ele>39.0</ele><time>2026-04-12T09:40:21Z</time></trkpt><trkpt lat="45.01970316668566" lon="10.008729238974787"><ele>39.0</ele><time>2026-04-12T09:40:22Z</time></trkpt><trkpt lat="45.0197493483596" lon="10.008803512736698"><ele>39.0</ele><time>2026-04-12T09:40:23Z</time></trkpt><trkpt lat="45.01979189986715" lon="10.008878429615724"><ele>39.0</ele><time>2026-04-12T09:40:24Z</time></trkpt><trkpt lat="45.019863039171995" lon="10.008994726374553"><ele>39.0</ele><time>2026-04-12T09:40:26Z</time></trkpt><trkpt lat="45.01990185470652" lon="10.009067701508892"><ele>39.0</ele><time>2026-04-12T09:40:29Z</time></trkpt><trkpt lat="45.01996942881871" lon="10.009113259083934"><ele>38.666666666666664</ele><time>2026-04-12T09:40:32Z</time></trkpt><trkpt lat="45.02004499830504" lon="10.009044250574687"><ele>38.333333333333336</ele><time>2026-04-12T09:40:34Z</time></trkpt><trkpt lat="45.02011241401939" lon="10.008928087676507"><ele>38.0</ele><time>2026-04-12T09:40:36Z</time></trkpt><trkpt lat="45.02018078510622" lon="10.008794953338555"><ele>37.66666666666667</ele><time>2026-04-12T09:40:38Z</time></trkpt><trkpt lat="45.020219599342155" lon="10.008723850579495"><ele>37.333333333333336</ele><time>2026-04-12T09:40:39Z</time></trkpt><trkpt lat="45.020258614315516" lon="10.008651126449529"><ele>37.0</ele><time>2026-04-12T09:40:40Z</time></trkpt><trkpt lat="45.020297276774315" lon="10.008569912494423"><ele>37.0</ele><time>2026-04-12T09:40:41Z</time></trkpt><trkpt lat="45.02033841025236" lon="10.008489598785141"><ele>37.0</ele><time>2026-04-12T09:40:42Z</time></trkpt><trkpt lat="45.02038031442122" lon="10.008411789015314"><ele>37.0</ele><time>2026-04-12T09:40:42.999Z</time></trkpt><trkpt lat="45.020419960309944" lon="10.008334135224587"><ele>37.0</ele><time>2026-04-12T09:40:43.999Z</time></trkpt><trkpt lat="45.020460836280044" lon="10.0082565826669"><ele>37.0</ele><time>2026-04-12T09:40:44.999Z</time></trkpt><trkpt lat="45.02050268242077" lon="10.00817707720289"><ele>37.0</ele><time>2026-04-12T09:40:45.999Z</time></trkpt><trkpt lat="45.02054533951364" lon="10.008091211177668"><ele>37.0</ele><time>2026-04-12T09:40:46.999Z</time></trkpt><trkpt lat="45.02058799947665" lon="10.008005176105604"><ele>37.16666666666667</ele><time>2026-04-12T09:40:47.999Z</time></trkpt><trkpt lat="45.02063275250891" lon="10.007919535214006"><ele>37.333333333333336</ele><time>2026-04-12T09:40:48.999Z</time></trkpt><trkpt lat="45.02067972243785" lon="10.007830134491027"><ele>37.5</ele><time>2026-04-12T09:40:49.999Z</time></trkpt><trkpt lat="45.02072705912911" lon="10.007739096914065"><ele>37.666666666666664</ele><time>2026-04-12T09:40:50.999Z</time></trkpt><trkpt lat="45.0207708889068" lon="10.007646106988505"><ele>37.83333333333333</ele><time>2026-04-12T09:40:51.999Z</time></trkpt><trkpt lat="45.02081710295325" lon="10.00755299157443"><ele>38.0</ele><time>2026-04-12T09:40:52.999Z</time></trkpt><trkpt lat="45.020865908025634" lon="10.00746155726707"><ele>38.0</ele><time>2026-04-12T09:40:53.999Z</time></trkpt><trkpt lat="45.02091336247255" lon="10.007366170706938"><ele>38.0</ele><time>2026-04-12T09:40:54.999Z</time></trkpt><trkpt lat="45.02096181423843" lon="10.007267920233721"><ele>38.0</ele><time>2026-04-12T09:40:55.999Z</time></trkpt><trkpt lat="45.02100948705656" lon="10.007172694381142"><ele>38.0</ele><time>2026-04-12T09:40:56.999Z</time></trkpt><trkpt lat="45.02105878658457" lon="10.007076004245304"><ele>38.0</ele><time>2026-04-12T09:40:57.999Z</time></trkpt><trkpt lat="45.02110755524005" lon="10.006981186179628"><ele>38.0</ele><time>2026-04-12T09:40:58.999Z</time></trkpt><trkpt lat="45.02115730554036" lon="10.006882682154203"><ele>38.0</ele><time>2026-04-12T09:40:59.999Z</time></trkpt><trkpt lat="45.02120511047956" lon="10.006783895804821"><ele>38.0</ele><time>2026-04-12T09:41:00.999Z</time></trkpt><trkpt lat="45.02125413278983" lon="10.00668499757599"><ele>38.0</ele><time>2026-04-12T09:41:01.999Z</time></trkpt><trkpt lat="45.021305279404466" lon="10.006586202435221"><ele>38.0</ele><time>2026-04-12T09:41:02.999Z</time></trkpt><trkpt lat="45.02135571852603" lon="10.006486333258287"><ele>38.0</ele><time>2026-04-12T09:41:03.999Z</time></trkpt><trkpt lat="45.02140546217963" lon="10.00638567124095"><ele>38.0</ele><time>2026-04-12T09:41:04.999Z</time></trkpt><trkpt lat="45.02145606782537" lon="10.006284268352413"><ele>37.83333333333333</ele><time>2026-04-12T09:41:05.999Z</time></trkpt><trkpt lat="45.021507362217015" lon="10.00618302748117"><ele>37.666666666666664</ele><time>2026-04-12T09:41:06.999Z</time></trkpt><trkpt lat="45.02156164457636" lon="10.00608298927247"><ele>37.5</ele><time>2026-04-12T09:41:07.999Z</time></trkpt><trkpt lat="45.02161276767734" lon="10.005980076723919"><ele>37.333333333333336</ele><time>2026-04-12T09:41:08.999Z</time></trkpt><trkpt lat="45.0216616217719" lon="10.005875702428124"><ele>37.16666666666667</ele><time>2026-04-12T09:41:09.999Z</time></trkpt><trkpt lat="45.02171370068236" lon="10.005775763741745"><ele>37.0</ele><time>2026-04-12T09:41:10.999Z</time></trkpt><trkpt lat="45.02176472082885" lon="10.005673553476624"><ele>37.0</ele><time>2026-04-12T09:41:11.999Z</time></trkpt><trkpt lat="45.02181685604592" lon="10.005574513051783"><ele>37.0</ele><time>2026-04-12T09:41:12.999Z</time></trkpt><trkpt lat="45.021867321269355" lon="10.005473176774817"><ele>37.0</ele><time>2026-04-12T09:41:13.999Z</time></trkpt><trkpt lat="45.02191742016654" lon="10.005373683433794"><ele>37.0</ele><time>2026-04-12T09:41:14.999Z</time></trkpt><trkpt lat="45.021965620048015" lon="10.00527033342129"><ele>37.0</ele><time>2026-04-12T09:41:15.999Z</time></trkpt><trkpt lat="45.02201522934931" lon="10.005168353535199"><ele>37.0</ele><time>2026-04-12T09:41:16.999Z</time></trkpt><trkpt lat="45.02207230249618" lon="10.005070527388135"><ele>36.333333333333336</ele><time>2026-04-12T09:41:17.999Z</time></trkpt><trkpt lat="45.022125458612564" lon="10.004971328346013"><ele>35.66666666666667</ele><time>2026-04-12T09:41:18.999Z</time></trkpt><trkpt lat="45.02217870157966" lon="10.004872349352894"><ele>35.0</ele><time>2026-04-12T09:41:19.999Z</time></trkpt><trkpt lat="45.0222310384039" lon="10.00477346022458"><ele>34.333333333333336</ele><time>2026-04-12T09:41:20.999Z</time></trkpt><trkpt lat="45.022283169242506" lon="10.004671013161218"><ele>33.666666666666664</ele><time>2026-04-12T09:41:21.999Z</time></trkpt><trkpt lat="45.022335251751464" lon="10.004569464415495"><ele>33.0</ele><time>2026-04-12T09:41:22.999Z</time></trkpt><trkpt lat="45.02238634378917" lon="10.004465023982293"><ele>33.0</ele><time>2026-04-12T09:41:23.999Z</time></trkpt><trkpt lat="45.022438662325484" lon="10.00436388730654"><ele>33.0</ele><time>2026-04-12T09:41:24.999Z</time></trkpt><trkpt lat="45.02249250849481" lon="10.004263740601358"><ele>33.0</ele><time>2026-04-12T09:41:25.999Z</time></trkpt><trkpt lat="45.022545708074325" lon="10.004164677918059"><ele>33.0</ele><time>2026-04-12T09:41:26.999Z</time></trkpt><trkpt lat="45.02259850054585" lon="10.004062324994708"><ele>33.0</ele><time>2026-04-12T09:41:27.999Z</time></trkpt><trkpt lat="45.022646782928085" lon="10.00396093322578"><ele>33.0</ele><time>2026-04-12T09:41:28.999Z</time></trkpt><trkpt lat="45.02269735797631" lon="10.003860216782082"><ele>33.166666666666664</ele><time>2026-04-12T09:41:29.999Z</time></trkpt><trkpt lat="45.022749203066645" lon="10.003762385818924"><ele>33.333333333333336</ele><time>2026-04-12T09:41:30.999Z</time></trkpt><trkpt lat="45.02280026633039" lon="10.003663721570023"><ele>33.5</ele><time>2026-04-12T09:41:31.999Z</time></trkpt><trkpt lat="45.022850939723845" lon="10.003565155192778"><ele>33.66666666666667</ele><time>2026-04-12T09:41:32.999Z</time></trkpt><trkpt lat="45.02290385509055" lon="10.003465853311607"><ele>33.833333333333336</ele><time>2026-04-12T09:41:33.999Z</time></trkpt><trkpt lat="45.022955186831624" lon="10.003363718260788"><ele>34.0</ele><time>2026-04-12T09:41:34.998Z</time></trkpt><trkpt lat="45.023006906608195" lon="10.003261166604414"><ele>34.0</ele><time>2026-04-12T09:41:35.998Z</time></trkpt><trkpt lat="45.02305987705762" lon="10.003160447445524"><ele>34.0</ele><time>2026-04-12T09:41:36.998Z</time></trkpt><trkpt lat="45.023112651165945" lon="10.003058127444259"><ele>34.0</ele><time>2026-04-12T09:41:37.998Z</time></trkpt><trkpt lat="45.02316515077061" lon="10.002956772982051"><ele>34.0</ele><time>2026-04-12T09:41:38.998Z</time></trkpt><trkpt lat="45.02321723705439" lon="10.002853511322458"><ele>34.0</ele><time>2026-04-12T09:41:39.998Z</time></trkpt><trkpt lat="45.023269974041646" lon="10.002749975599295"><ele>34.0</ele><time>2026-04-12T09:41:40.998Z</time></trkpt><trkpt lat="45.023325107391784" lon="10.002646565602923"><ele>34.6</ele><time>2026-04-12T09:41:41.998Z</time></trkpt><trkpt lat="45.023379957216775" lon="10.002544170474206"><ele>35.2</ele><time>2026-04-12T09:41:42.998Z</time></trkpt><trkpt lat="45.02343733477103" lon="10.002445667222439"><ele>35.800000000000004</ele><time>2026-04-12T09:41:43.998Z</time></trkpt><trkpt lat="45.023502304501555" lon="10.002354895435355"><ele>36.4</ele><time>2026-04-12T09:41:44.998Z</time></trkpt><trkpt lat="45.02357320639085" lon="10.00227373634035"><ele>37.0</ele><time>2026-04-12T09:41:45.998Z</time></trkpt><trkpt lat="45.023644173857065" lon="10.002196431516422"><ele>37.0</ele><time>2026-04-12T09:41:46.998Z</time></trkpt><trkpt lat="45.023714857710395" lon="10.002116070756557"><ele>37.0</ele><time>2026-04-12T09:41:47.998Z</time></trkpt><trkpt lat="45.02377999611869" lon="10.002033477907004"><ele>37.0</ele><time>2026-04-12T09:41:48.998Z</time></trkpt><trkpt lat="45.02384999016415" lon="10.001953897925064"><ele>37.0</ele><time>2026-04-12T09:41:49.998Z</time></trkpt><trkpt lat="45.02392045937137" lon="10.001876456966933"><ele>37.0</ele><time>2026-04-12T09:41:50.998Z</time></trkpt><trkpt lat="45.023987531990585" lon="10.001794875968832"><ele>37.0</ele><time>2026-04-12T09:41:51.998Z</time></trkpt><trkpt lat="45.02405581715648" lon="10.001717231502829"><ele>37.16666666666667</ele><time>2026-04-12T09:41:52.998Z</time></trkpt><trkpt lat="45.0241199448712" lon="10.001637967461745"><ele>37.333333333333336</ele><time>2026-04-12T09:41:53.998Z</time></trkpt><trkpt lat="45.024184916200646" lon="10.001559127010164"><ele>37.5</ele><time>2026-04-12T09:41:54.998Z</time></trkpt><trkpt lat="45.02424991250536" lon="10.001488461489686"><ele>37.666666666666664</ele><time>2026-04-12T09:41:55.998Z</time></trkpt><trkpt lat="45.024312273752905" lon="10.00141607302853"><ele>37.83333333333333</ele><time>2026-04-12T09:41:56.998Z</time></trkpt><trkpt lat="45.02437367822189" lon="10.001342613183082"><ele>38.0</ele><time>2026-04-12T09:41:57.998Z</time></trkpt><trkpt lat="45.024433738521914" lon="10.001274340185178"><ele>38.33333333333333</ele><time>2026-04-12T09:41:58.998Z</time></trkpt><trkpt lat="45.02449033115376" lon="10.001207155681584"><ele>38.666666666666664</ele><time>2026-04-12T09:41:59.998Z</time></trkpt><trkpt lat="45.02455001720413" lon="10.00114254603318"><ele>39.0</ele><time>2026-04-12T09:42:00.998Z</time></trkpt><trkpt lat="45.024607995992476" lon="10.00107109628393"><ele>39.333333333333336</ele><time>2026-04-12T09:42:01.998Z</time></trkpt><trkpt lat="45.02467160729889" lon="10.00100406519503"><ele>39.66666666666667</ele><time>2026-04-12T09:42:02.998Z</time></trkpt><trkpt lat="45.02473460566542" lon="10.000933995001837"><ele>40.0</ele><time>2026-04-12T09:42:03.998Z</time></trkpt><trkpt lat="45.02479532668168" lon="10.000857613498802"><ele>40.333333333333336</ele><time>2026-04-12T09:42:04.998Z</time></trkpt><trkpt lat="45.02485884708063" lon="10.000779886616874"><ele>40.66666666666667</ele><time>2026-04-12T09:42:05.998Z</time></trkpt><trkpt lat="45.024922658819584" lon="10.000710602000858"><ele>41.0</ele><time>2026-04-12T09:42:06.998Z</time></trkpt><trkpt lat="45.02498709685196" lon="10.00063557998403"><ele>41.333333333333336</ele><time>2026-04-12T09:42:07.998Z</time></trkpt><trkpt lat="45.0250522506942" lon="10.000561274671995"><ele>41.666666666666664</ele><time>2026-04-12T09:42:08.998Z</time></trkpt><trkpt lat="45.02511595326447" lon="10.000484534045803"><ele>42.0</ele><time>2026-04-12T09:42:09.998Z</time></trkpt><trkpt lat="45.02517428358145" lon="10.00041487226974"><ele>42.142857142857146</ele><time>2026-04-12T09:42:10.998Z</time></trkpt><trkpt lat="45.02523385622462" lon="10.000348764909315"><ele>42.285714285714285</ele><time>2026-04-12T09:42:11.998Z</time></trkpt><trkpt lat="45.025290175455225" lon="10.00028398297831"><ele>42.42857142857143</ele><time>2026-04-12T09:42:12.998Z</time></trkpt><trkpt lat="45.02534629683492" lon="10.000221370057236"><ele>42.57142857142857</ele><time>2026-04-12T09:42:13.998Z</time></trkpt><trkpt lat="45.02540436725209" lon="10.00015465276517"><ele>42.714285714285715</ele><time>2026-04-12T09:42:14.998Z</time></trkpt><trkpt lat="45.02545994169304" lon="10.000089795652265"><ele>42.85714285714286</ele><time>2026-04-12T09:42:15.998Z</time></trkpt><trkpt lat="45.025517833844916" lon="10.000024198145427"><ele>43.0</ele><time>2026-04-12T09:42:16.998Z</time></trkpt><trkpt lat="45.02557715584048" lon="9.999954936013344"><ele>43.0</ele><time>2026-04-12T09:42:17.998Z</time></trkpt><trkpt lat="45.02563031502989" lon="9.999874743006911"><ele>43.0</ele><time>2026-04-12T09:42:18.998Z</time></trkpt><trkpt lat="45.02568295012926" lon="9.999788424226667"><ele>43.0</ele><time>2026-04-12T09:42:19.998Z</time></trkpt><trkpt lat="45.02572788183682" lon="9.999686595857568"><ele>43.0</ele><time>2026-04-12T09:42:21Z</time></trkpt><trkpt lat="45.02576402535306" lon="9.999573707613495"><ele>43.0</ele><time>2026-04-12T09:42:22Z</time></trkpt><trkpt lat="45.025807022213925" lon="9.999460802176825"><ele>43.0</ele><time>2026-04-12T09:42:23Z</time></trkpt><trkpt lat="45.02585653257146" lon="9.999353063005993"><ele>43.16666666666667</ele><time>2026-04-12T09:42:24Z</time></trkpt><trkpt lat="45.025905436923594" lon="9.999244464671353"><ele>43.333333333333336</ele><time>2026-04-12T09:42:25Z</time></trkpt><trkpt lat="45.025950991403896" lon="9.999137099636686"><ele>43.5</ele><time>2026-04-12T09:42:26Z</time></trkpt><trkpt lat="45.02599699835724" lon="9.999025810813961"><ele>43.666666666666664</ele><time>2026-04-12T09:42:27Z</time></trkpt><trkpt lat="45.026046788098256" lon="9.99892280131852"><ele>43.83333333333333</ele><time>2026-04-12T09:42:28Z</time></trkpt><trkpt lat="45.026090930259976" lon="9.998815428151664"><ele>44.0</ele><time>2026-04-12T09:42:29Z</time></trkpt><trkpt lat="45.026139408129396" lon="9.998711106387919"><ele>43.800000000000004</ele><time>2026-04-12T09:42:30Z</time></trkpt><trkpt lat="45.02618588380786" lon="9.998603985853896"><ele>43.6</ele><time>2026-04-12T09:42:31Z</time></trkpt><trkpt lat="45.02623203821334" lon="9.99849030373769"><ele>43.4</ele><time>2026-04-12T09:42:32Z</time></trkpt><trkpt lat="45.026280561123386" lon="9.9983823097646"><ele>43.2</ele><time>2026-04-12T09:42:33Z</time></trkpt><trkpt lat="45.02632470921788" lon="9.998268888306754"><ele>43.0</ele><time>2026-04-12T09:42:34Z</time></trkpt><trkpt lat="45.02636924305274" lon="9.998159078178462"><ele>43.0</ele><time>2026-04-12T09:42:35Z</time></trkpt><trkpt lat="45.02641642413501" lon="9.998051332203438"><ele>43.0</ele><time>2026-04-12T09:42:36Z</time></trkpt><trkpt lat="45.02646255572994" lon="9.997944841012556"><ele>43.0</ele><time>2026-04-12T09:42:37Z</time></trkpt><trkpt lat="45.02650774635929" lon="9.997840378264518"><ele>43.0</ele><time>2026-04-12T09:42:38Z</time></trkpt><trkpt lat="45.02655770202375" lon="9.997740118363966"><ele>43.0</ele><time>2026-04-12T09:42:39Z</time></trkpt><trkpt lat="45.02661804170258" lon="9.997655851342124"><ele>43.0</ele><time>2026-04-12T09:42:40Z</time></trkpt><trkpt lat="45.02669468598246" lon="9.997597597677968"><ele>42.66666666666667</ele><time>2026-04-12T09:42:41Z</time></trkpt><trkpt lat="45.02678881555294" lon="9.997598910504525"><ele>42.333333333333336</ele><time>2026-04-12T09:42:42Z</time></trkpt><trkpt lat="45.026870896943656" lon="9.997626499990721"><ele>42.0</ele><time>2026-04-12T09:42:43Z</time></trkpt><trkpt lat="45.02694817266849" lon="9.997682315255425"><ele>41.666666666666664</ele><time>2026-04-12T09:42:44Z</time></trkpt><trkpt lat="45.02702570809861" lon="9.997737574138124"><ele>41.33333333333333</ele><time>2026-04-12T09:42:44.999Z</time></trkpt><trkpt lat="45.02710435137267" lon="9.997795647065024"><ele>41.0</ele><time>2026-04-12T09:42:45.999Z</time></trkpt><trkpt lat="45.02718345350482" lon="9.997851830330267"><ele>41.0</ele><time>2026-04-12T09:42:46.999Z</time></trkpt><trkpt lat="45.02726362049324" lon="9.997905353555655"><ele>41.0</ele><time>2026-04-12T09:42:47.999Z</time></trkpt><trkpt lat="45.027344837609704" lon="9.997960241101511"><ele>41.0</ele><time>2026-04-12T09:42:48.999Z</time></trkpt><trkpt lat="45.02742133635589" lon="9.9980153897199"><ele>41.0</ele><time>2026-04-12T09:42:49.999Z</time></trkpt><trkpt lat="45.027495726484155" lon="9.998072699098715"><ele>41.0</ele><time>2026-04-12T09:42:50.999Z</time></trkpt><trkpt lat="45.027570894339014" lon="9.998129364767415"><ele>41.0</ele><time>2026-04-12T09:42:51.999Z</time></trkpt><trkpt lat="45.02764777206782" lon="9.998185060881315"><ele>41.166666666666664</ele><time>2026-04-12T09:42:52.999Z</time></trkpt><trkpt lat="45.02772422526118" lon="9.998242504795918"><ele>41.33333333333333</ele><time>2026-04-12T09:42:53.999Z</time></trkpt><trkpt lat="45.027800211324454" lon="9.998300826434871"><ele>41.5</ele><time>2026-04-12T09:42:54.999Z</time></trkpt><trkpt lat="45.02787842339338" lon="9.998356132360904"><ele>41.666666666666664</ele><time>2026-04-12T09:42:55.999Z</time></trkpt><trkpt lat="45.02795674849646" lon="9.998407917514184"><ele>41.833333333333336</ele><time>2026-04-12T09:42:56.999Z</time></trkpt><trkpt lat="45.028038474028655" lon="9.998438731079784"><ele>42.0</ele><time>2026-04-12T09:42:57.999Z</time></trkpt><trkpt lat="45.02812054031265" lon="9.998433530681753"><ele>42.0</ele><time>2026-04-12T09:42:58.999Z</time></trkpt><trkpt lat="45.02819602814531" lon="9.998383323015995"><ele>42.0</ele><time>2026-04-12T09:42:59.999Z</time></trkpt><trkpt lat="45.0282560179748" lon="9.99829243178736"><ele>42.0</ele><time>2026-04-12T09:43:00.999Z</time></trkpt><trkpt lat="45.02829873886894" lon="9.998181519688371"><ele>42.0</ele><time>2026-04-12T09:43:01.999Z</time></trkpt><trkpt lat="45.028340706540796" lon="9.998068588025577"><ele>42.0</ele><time>2026-04-12T09:43:02.999Z</time></trkpt><trkpt lat="45.02838149186693" lon="9.997954804126815"><ele>42.0</ele><time>2026-04-12T09:43:03.999Z</time></trkpt><trkpt lat="45.02842137340582" lon="9.997839684255299"><ele>41.8</ele><time>2026-04-12T09:43:04.999Z</time></trkpt><trkpt lat="45.028462379186536" lon="9.997725350323217"><ele>41.6</ele><time>2026-04-12T09:43:05.999Z</time></trkpt><trkpt lat="45.028505297119246" lon="9.997611902608906"><ele>41.4</ele><time>2026-04-12T09:43:06.999Z</time></trkpt><trkpt lat="45.02854786968861" lon="9.997495662399096"><ele>41.199999999999996</ele><time>2026-04-12T09:43:07.999Z</time></trkpt><trkpt lat="45.028589250774786" lon="9.997380663225323"><ele>41.0</ele><time>2026-04-12T09:43:08.999Z</time></trkpt><trkpt lat="45.02863223085272" lon="9.99726579743269"><ele>41.0</ele><time>2026-04-12T09:43:09.999Z</time></trkpt><trkpt lat="45.02867509836591" lon="9.997149121326368"><ele>41.0</ele><time>2026-04-12T09:43:10.999Z</time></trkpt><trkpt lat="45.02871546812712" lon="9.997028277896066"><ele>41.0</ele><time>2026-04-12T09:43:11.999Z</time></trkpt><trkpt lat="45.02875504148284" lon="9.996910091779856"><ele>41.0</ele><time>2026-04-12T09:43:12.999Z</time></trkpt><trkpt lat="45.028797282677004" lon="9.996792288461956"><ele>41.0</ele><time>2026-04-12T09:43:13.999Z</time></trkpt><trkpt lat="45.02884076827162" lon="9.996674020762036"><ele>40.83333333333333</ele><time>2026-04-12T09:43:14.999Z</time></trkpt><trkpt lat="45.028884015675246" lon="9.99655527847802"><ele>40.666666666666664</ele><time>2026-04-12T09:43:15.999Z</time></trkpt><trkpt lat="45.028924274633816" lon="9.996439663065017"><ele>40.5</ele><time>2026-04-12T09:43:16.999Z</time></trkpt><trkpt lat="45.028960348809115" lon="9.99633077564867"><ele>40.333333333333336</ele><time>2026-04-12T09:43:17.999Z</time></trkpt><trkpt lat="45.02899440644753" lon="9.996230055116445"><ele>40.16666666666667</ele><time>2026-04-12T09:43:18.999Z</time></trkpt><trkpt lat="45.029050937166446" lon="9.996149468810845"><ele>40.0</ele><time>2026-04-12T09:43:19.999Z</time></trkpt><trkpt lat="45.02911104841386" lon="9.996097040564745"><ele>39.833333333333336</ele><time>2026-04-12T09:43:20.999Z</time></trkpt><trkpt lat="45.02921731619876" lon="9.996123609260318"><ele>39.66666666666667</ele><time>2026-04-12T09:43:21.999Z</time></trkpt><trkpt lat="45.029298546327574" lon="9.996174640701936"><ele>39.5</ele><time>2026-04-12T09:43:22.999Z</time></trkpt><trkpt lat="45.02937006678521" lon="9.996235840585623"><ele>39.333333333333336</ele><time>2026-04-12T09:43:23.999Z</time></trkpt><trkpt lat="45.02943950685499" lon="9.996303282534083"><ele>39.166666666666664</ele><time>2026-04-12T09:43:24.999Z</time></trkpt><trkpt lat="45.02951315837215" lon="9.996360853103418"><ele>39.0</ele><time>2026-04-12T09:43:25.999Z</time></trkpt><trkpt lat="45.029589629301285" lon="9.996406477907124"><ele>39.0</ele><time>2026-04-12T09:43:26.999Z</time></trkpt><trkpt lat="45.0296659924392" lon="9.99645444265133"><ele>39.0</ele><time>2026-04-12T09:43:27.999Z</time></trkpt><trkpt lat="45.02974086594095" lon="9.996505746540512"><ele>39.0</ele><time>2026-04-12T09:43:28.999Z</time></trkpt><trkpt lat="45.029816475878214" lon="9.996557221251862"><ele>39.0</ele><time>2026-04-12T09:43:29.999Z</time></trkpt><trkpt lat="45.02989373284013" lon="9.996606505394212"><ele>39.0</ele><time>2026-04-12T09:43:30.999Z</time></trkpt><trkpt lat="45.02996987763487" lon="9.99665746656773"><ele>39.0</ele><time>2026-04-12T09:43:31.999Z</time></trkpt><trkpt lat="45.030042321060044" lon="9.99670949516513"><ele>38.5</ele><time>2026-04-12T09:43:32.999Z</time></trkpt><trkpt lat="45.030116407245465" lon="9.996757275499597"><ele>38.0</ele><time>2026-04-12T09:43:33.998Z</time></trkpt><trkpt lat="45.030191282227925" lon="9.996810470284133"><ele>37.5</ele><time>2026-04-12T09:43:34.998Z</time></trkpt><trkpt lat="45.030268195755866" lon="9.996867451605342"><ele>37.0</ele><time>2026-04-12T09:43:35.998Z</time></trkpt><trkpt lat="45.03034654676949" lon="9.996925028737316"><ele>36.5</ele><time>2026-04-12T09:43:36.998Z</time></trkpt><trkpt lat="45.030425175526446" lon="9.996983103680892"><ele>36.0</ele><time>2026-04-12T09:43:37.998Z</time></trkpt><trkpt lat="45.030505790610945" lon="9.997040803527547"><ele>36.0</ele><time>2026-04-12T09:43:38.998Z</time></trkpt><trkpt lat="45.03058688307" lon="9.997101666964708"><ele>36.0</ele><time>2026-04-12T09:43:39.998Z</time></trkpt><trkpt lat="45.030670875529566" lon="9.997158060083285"><ele>36.0</ele><time>2026-04-12T09:43:40.998Z</time></trkpt><trkpt lat="45.03075501592081" lon="9.997215962185805"><ele>36.0</ele><time>2026-04-12T09:43:41.998Z</time></trkpt><trkpt lat="45.03083827959622" lon="9.997271465039884"><ele>36.0</ele><time>2026-04-12T09:43:42.998Z</time></trkpt><trkpt lat="45.03092232601873" lon="9.99733103073173"><ele>36.2</ele><time>2026-04-12T09:43:43.998Z</time></trkpt><trkpt lat="45.031003360341145" lon="9.997387982003849"><ele>36.400000000000006</ele><time>2026-04-12T09:43:44.998Z</time></trkpt><trkpt lat="45.03108668805808" lon="9.997445728182782"><ele>36.6</ele><time>2026-04-12T09:43:45.998Z</time></trkpt><trkpt lat="45.031168984445856" lon="9.997500540907458"><ele>36.800000000000004</ele><time>2026-04-12T09:43:46.998Z</time></trkpt><trkpt lat="45.03125265210294" lon="9.997557078148322"><ele>37.0</ele><time>2026-04-12T09:43:47.998Z</time></trkpt><trkpt lat="45.03133436533139" lon="9.997611463102626"><ele>37.0</ele><time>2026-04-12T09:43:48.998Z</time></trkpt><trkpt lat="45.031414400592915" lon="9.997667858609109"><ele>37.0</ele><time>2026-04-12T09:43:49.998Z</time></trkpt><trkpt lat="45.03149426908325" lon="9.997720770130705"><ele>37.0</ele><time>2026-04-12T09:43:50.998Z</time></trkpt><trkpt lat="45.03157370689141" lon="9.997774203299326"><ele>37.0</ele><time>2026-04-12T09:43:51.998Z</time></trkpt><trkpt lat="45.03165408954497" lon="9.997830597920345"><ele>37.0</ele><time>2026-04-12T09:43:52.998Z</time></trkpt><trkpt lat="45.03173584497098" lon="9.997885417668389"><ele>37.0</ele><time>2026-04-12T09:43:53.998Z</time></trkpt><trkpt lat="45.031820448464885" lon="9.997939396985698"><ele>37.4</ele><time>2026-04-12T09:43:54.998Z</time></trkpt><trkpt lat="45.031903342088384" lon="9.997989142001034"><ele>37.800000000000004</ele><time>2026-04-12T09:43:55.998Z</time></trkpt><trkpt lat="45.03198674120173" lon="9.99804412120324"><ele>38.2</ele><time>2026-04-12T09:43:56.998Z</time></trkpt><trkpt lat="45.03207122474718" lon="9.998097379790886"><ele>38.6</ele><time>2026-04-12T09:43:57.998Z</time></trkpt><trkpt lat="45.032159116695595" lon="9.998144373695627"><ele>39.0</ele><time>2026-04-12T09:43:58.998Z</time></trkpt><trkpt lat="45.03224588668785" lon="9.998197537302252"><ele>39.0</ele><time>2026-04-12T09:43:59.998Z</time></trkpt><trkpt lat="45.0323339023392" lon="9.998245158633075"><ele>39.0</ele><time>2026-04-12T09:44:00.998Z</time></trkpt><trkpt lat="45.03242138025976" lon="9.998291784891816"><ele>39.0</ele><time>2026-04-12T09:44:01.998Z</time></trkpt><trkpt lat="45.03251069613889" lon="9.998338809620327"><ele>39.0</ele><time>2026-04-12T09:44:02.998Z</time></trkpt><trkpt lat="45.03259818954163" lon="9.99838560916953"><ele>39.0</ele><time>2026-04-12T09:44:03.998Z</time></trkpt><trkpt lat="45.03268266147675" lon="9.998438998054224"><ele>38.4</ele><time>2026-04-12T09:44:04.998Z</time></trkpt><trkpt lat="45.03276944837634" lon="9.998483471129171"><ele>37.8</ele><time>2026-04-12T09:44:05.998Z</time></trkpt><trkpt lat="45.03286191534026" lon="9.998523576143574"><ele>37.2</ele><time>2026-04-12T09:44:06.998Z</time></trkpt><trkpt lat="45.032947543071245" lon="9.998560697103542"><ele>36.6</ele><time>2026-04-12T09:44:07.998Z</time></trkpt><trkpt lat="45.0330342129478" lon="9.998600009604095"><ele>36.0</ele><time>2026-04-12T09:44:08.998Z</time></trkpt><trkpt lat="45.033120518365976" lon="9.99863992040967"><ele>36.0</ele><time>2026-04-12T09:44:09.998Z</time></trkpt><trkpt lat="45.03320799070088" lon="9.998677445659167"><ele>36.0</ele><time>2026-04-12T09:44:10.998Z</time></trkpt><trkpt lat="45.03329553917397" lon="9.998715239126398"><ele>36.0</ele><time>2026-04-12T09:44:11.998Z</time></trkpt><trkpt lat="45.033381505939786" lon="9.998753147603617"><ele>36.0</ele><time>2026-04-12T09:44:12.998Z</time></trkpt><trkpt lat="45.033467007894735" lon="9.99879091723989"><ele>36.0</ele><time>2026-04-12T09:44:13.998Z</time></trkpt><trkpt lat="45.033555265339395" lon="9.998827329855928"><ele>36.4</ele><time>2026-04-12T09:44:14.998Z</time></trkpt><trkpt lat="45.033642214391115" lon="9.99886318912837"><ele>36.8</ele><time>2026-04-12T09:44:15.998Z</time></trkpt><trkpt lat="45.03372961779039" lon="9.99890108233179"><ele>37.199999999999996</ele><time>2026-04-12T09:44:16.998Z</time></trkpt><trkpt lat="45.03381827871669" lon="9.998942084669796"><ele>37.6</ele><time>2026-04-12T09:44:17.998Z</time></trkpt><trkpt lat="45.03390642298638" lon="9.998980932319574"><ele>38.0</ele><time>2026-04-12T09:44:18.998Z</time></trkpt><trkpt lat="45.03399555270724" lon="9.99901984575039"><ele>38.0</ele><time>2026-04-12T09:44:19.998Z</time></trkpt><trkpt lat="45.034084311103925" lon="9.999054181359485"><ele>38.0</ele><time>2026-04-12T09:44:20.998Z</time></trkpt><trkpt lat="45.034172926933486" lon="9.999088153400221"><ele>38.0</ele><time>2026-04-12T09:44:21.998Z</time></trkpt><trkpt lat="45.03426124331081" lon="9.999127327214852"><ele>38.0</ele><time>2026-04-12T09:44:22.998Z</time></trkpt><trkpt lat="45.034349368249885" lon="9.999167103966961"><ele>38.0</ele><time>2026-04-12T09:44:23.998Z</time></trkpt><trkpt lat="45.03443632601583" lon="9.999209093275677"><ele>37.4</ele><time>2026-04-12T09:44:24.998Z</time></trkpt><trkpt lat="45.0345238471844" lon="9.999248934825644"><ele>36.8</ele><time>2026-04-12T09:44:25.998Z</time></trkpt><trkpt lat="45.034614167407526" lon="9.999287171423033"><ele>36.2</ele><time>2026-04-12T09:44:27Z</time></trkpt><trkpt lat="45.03470411779308" lon="9.999323541599573"><ele>35.6</ele><time>2026-04-12T09:44:28Z</time></trkpt><trkpt lat="45.0347936003198" lon="9.999358614279698"><ele>35.0</ele><time>2026-04-12T09:44:29Z</time></trkpt><trkpt lat="45.03488167782013" lon="9.999392538354268"><ele>35.0</ele><time>2026-04-12T09:44:30Z</time></trkpt><trkpt lat="45.03496791507417" lon="9.999429376625017"><ele>35.0</ele><time>2026-04-12T09:44:31Z</time></trkpt><trkpt lat="45.03505399395491" lon="9.99946831600104"><ele>35.0</ele><time>2026-04-12T09:44:32Z</time></trkpt><trkpt lat="45.03514037243027" lon="9.999508479704321"><ele>35.0</ele><time>2026-04-12T09:44:33Z</time></trkpt><trkpt lat="45.03522820113891" lon="9.999546249174648"><ele>35.0</ele><time>2026-04-12T09:44:34Z</time></trkpt><trkpt lat="45.03531511126846" lon="9.999582953947142"><ele>35.4</ele><time>2026-04-12T09:44:35Z</time></trkpt><trkpt lat="45.03540034675138" lon="9.999622232480158"><ele>35.8</ele><time>2026-04-12T09:44:36Z</time></trkpt><trkpt lat="45.03548702514146" lon="9.999662549915337"><ele>36.2</ele><time>2026-04-12T09:44:37Z</time></trkpt><trkpt lat="45.03557315623523" lon="9.999700283606998"><ele>36.6</ele><time>2026-04-12T09:44:38Z</time></trkpt><trkpt lat="45.03565909699017" lon="9.999740957848452"><ele>37.0</ele><time>2026-04-12T09:44:39Z</time></trkpt><trkpt lat="45.0357451426571" lon="9.999785362391359"><ele>37.0</ele><time>2026-04-12T09:44:40Z</time></trkpt><trkpt lat="45.03583036848243" lon="9.999830486315743"><ele>37.0</ele><time>2026-04-12T09:44:41Z</time></trkpt><trkpt lat="45.035916154335396" lon="9.999877433966185"><ele>37.0</ele><time>2026-04-12T09:44:42Z</time></trkpt><trkpt lat="45.03600011595547" lon="9.999925470017137"><ele>37.0</ele><time>2026-04-12T09:44:43Z</time></trkpt><trkpt lat="45.03608436571611" lon="9.999972994381274"><ele>37.0</ele><time>2026-04-12T09:44:44Z</time></trkpt><trkpt lat="45.036171260628066" lon="10.000021586044708"><ele>37.0</ele><time>2026-04-12T09:44:45Z</time></trkpt><trkpt lat="45.03625726093303" lon="10.000072204890397"><ele>37.0</ele><time>2026-04-12T09:44:46Z</time></trkpt><trkpt lat="45.03634068711531" lon="10.00012224080734"><ele>37.0</ele><time>2026-04-12T09:44:47Z</time></trkpt><trkpt lat="45.03642067192623" lon="10.000169027318686"><ele>37.0</ele><time>2026-04-12T09:44:48Z</time></trkpt><trkpt lat="45.03650063557716" lon="10.000215386798196"><ele>37.0</ele><time>2026-04-12T09:44:49Z</time></trkpt><trkpt lat="45.03657757811072" lon="10.000258726281317"><ele>37.0</ele><time>2026-04-12T09:44:49.999Z</time></trkpt><trkpt lat="45.03665607576548" lon="10.00030170796925"><ele>36.66666666666667</ele><time>2026-04-12T09:44:50.999Z</time></trkpt><trkpt lat="45.03673573927873" lon="10.000345039844914"><ele>36.333333333333336</ele><time>2026-04-12T09:44:51.999Z</time></trkpt><trkpt lat="45.03681497088238" lon="10.000390218684329"><ele>36.0</ele><time>2026-04-12T09:44:52.999Z</time></trkpt><trkpt lat="45.03689498889281" lon="10.000439290716288"><ele>35.666666666666664</ele><time>2026-04-12T09:44:53.999Z</time></trkpt><trkpt lat="45.03697341747642" lon="10.000487495929486"><ele>35.33333333333333</ele><time>2026-04-12T09:44:54.999Z</time></trkpt><trkpt lat="45.03705284480947" lon="10.00053566154666"><ele>35.0</ele><time>2026-04-12T09:44:55.999Z</time></trkpt><trkpt lat="45.03713272858054" lon="10.000583531985702"><ele>35.0</ele><time>2026-04-12T09:44:56.999Z</time></trkpt><trkpt lat="45.03721254493067" lon="10.000630677653145"><ele>35.0</ele><time>2026-04-12T09:44:57.999Z</time></trkpt><trkpt lat="45.03729522585623" lon="10.00067914669474"><ele>35.0</ele><time>2026-04-12T09:44:58.999Z</time></trkpt><trkpt lat="45.037376664265274" lon="10.000727241640195"><ele>35.0</ele><time>2026-04-12T09:44:59.999Z</time></trkpt><trkpt lat="45.037457738779466" lon="10.000779375752924"><ele>35.0</ele><time>2026-04-12T09:45:00.999Z</time></trkpt><trkpt lat="45.03753919657538" lon="10.000828813311777"><ele>35.0</ele><time>2026-04-12T09:45:01.999Z</time></trkpt><trkpt lat="45.037626275692794" lon="10.000830397864629"><ele>35.6</ele><time>2026-04-12T09:45:02.999Z</time></trkpt><trkpt lat="45.03770841571545" lon="10.000914292358313"><ele>36.2</ele><time>2026-04-12T09:45:03.999Z</time></trkpt><trkpt lat="45.03779165459786" lon="10.000958927213462"><ele>36.8</ele><time>2026-04-12T09:45:04.999Z</time></trkpt><trkpt lat="45.037873364068574" lon="10.001003473047616"><ele>37.4</ele><time>2026-04-12T09:45:05.999Z</time></trkpt><trkpt lat="45.03795523850075" lon="10.00105283529187"><ele>38.0</ele><time>2026-04-12T09:45:06.999Z</time></trkpt><trkpt lat="45.03803592392085" lon="10.00110275966433"><ele>38.0</ele><time>2026-04-12T09:45:07.999Z</time></trkpt><trkpt lat="45.03811786223625" lon="10.001150865966965"><ele>38.0</ele><time>2026-04-12T09:45:08.999Z</time></trkpt><trkpt lat="45.038201970517946" lon="10.001194545653604"><ele>38.0</ele><time>2026-04-12T09:45:09.999Z</time></trkpt><trkpt lat="45.03828487311434" lon="10.001243096216777"><ele>38.0</ele><time>2026-04-12T09:45:10.999Z</time></trkpt><trkpt lat="45.03836717302431" lon="10.001295310333145"><ele>38.0</ele><time>2026-04-12T09:45:11.999Z</time></trkpt><trkpt lat="45.03845189991023" lon="10.001346474688928"><ele>37.8</ele><time>2026-04-12T09:45:12.999Z</time></trkpt><trkpt lat="45.038536879639246" lon="10.00139421260862"><ele>37.599999999999994</ele><time>2026-04-12T09:45:13.999Z</time></trkpt><trkpt lat="45.03862198906928" lon="10.001442658967218"><ele>37.400000000000006</ele><time>2026-04-12T09:45:14.999Z</time></trkpt><trkpt lat="45.03870816975923" lon="10.001494467405813"><ele>37.2</ele><time>2026-04-12T09:45:15.999Z</time></trkpt><trkpt lat="45.03879352093423" lon="10.001545256142697"><ele>37.0</ele><time>2026-04-12T09:45:16.999Z</time></trkpt><trkpt lat="45.03887889256132" lon="10.001597085492152"><ele>37.0</ele><time>2026-04-12T09:45:17.999Z</time></trkpt><trkpt lat="45.03896447663668" lon="10.001645585384404"><ele>37.0</ele><time>2026-04-12T09:45:18.999Z</time></trkpt><trkpt lat="45.0390498066152" lon="10.001693409916234"><ele>37.0</ele><time>2026-04-12T09:45:19.999Z</time></trkpt><trkpt lat="45.03913376989629" lon="10.001741449766781"><ele>37.0</ele><time>2026-04-12T09:45:20.999Z</time></trkpt><trkpt lat="45.03921602005612" lon="10.00179073830112"><ele>37.0</ele><time>2026-04-12T09:45:21.999Z</time></trkpt><trkpt lat="45.03929626118233" lon="10.0018412637914"><ele>37.333333333333336</ele><time>2026-04-12T09:45:22.999Z</time></trkpt><trkpt lat="45.039378178599534" lon="10.001896697923527"><ele>37.66666666666667</ele><time>2026-04-12T09:45:23.999Z</time></trkpt><trkpt lat="45.039459920378675" lon="10.001942752421416"><ele>38.0</ele><time>2026-04-12T09:45:24.999Z</time></trkpt><trkpt lat="45.03954450579924" lon="10.001985463932735"><ele>38.333333333333336</ele><time>2026-04-12T09:45:25.999Z</time></trkpt><trkpt lat="45.039627154759025" lon="10.002034540364951"><ele>38.666666666666664</ele><time>2026-04-12T09:45:26.999Z</time></trkpt><trkpt lat="45.039708401554094" lon="10.002090234204871"><ele>39.0</ele><time>2026-04-12T09:45:27.999Z</time></trkpt><trkpt lat="45.039789818919324" lon="10.00214010585969"><ele>39.0</ele><time>2026-04-12T09:45:28.999Z</time></trkpt><trkpt lat="45.0398730146693" lon="10.002185641608456"><ele>39.0</ele><time>2026-04-12T09:45:29.999Z</time></trkpt><trkpt lat="45.03995844266529" lon="10.002227326220574"><ele>39.0</ele><time>2026-04-12T09:45:30.999Z</time></trkpt><trkpt lat="45.04003862681985" lon="10.00229321364155"><ele>39.0</ele><time>2026-04-12T09:45:31.999Z</time></trkpt><trkpt lat="45.040131167161164" lon="10.00231967421162"><ele>39.0</ele><time>2026-04-12T09:45:32.999Z</time></trkpt><trkpt lat="45.040215996936944" lon="10.002373857309603"><ele>38.6</ele><time>2026-04-12T09:45:33.999Z</time></trkpt><trkpt lat="45.04030020410886" lon="10.002422092811495"><ele>38.2</ele><time>2026-04-12T09:45:34.999Z</time></trkpt><trkpt lat="45.040384959707495" lon="10.002462835933002"><ele>37.800000000000004</ele><time>2026-04-12T09:45:35.999Z</time></trkpt><trkpt lat="45.04046243816768" lon="10.002531905117726"><ele>37.4</ele><time>2026-04-12T09:45:36.999Z</time></trkpt><trkpt lat="45.04054504551127" lon="10.002578738851826"><ele>37.0</ele><time>2026-04-12T09:45:37.999Z</time></trkpt><trkpt lat="45.04062771124229" lon="10.002625603817705"><ele>36.833333333333336</ele><time>2026-04-12T09:45:38.999Z</time></trkpt><trkpt lat="45.04071301109656" lon="10.002673962179008"><ele>36.66666666666667</ele><time>2026-04-12T09:45:39.999Z</time></trkpt><trkpt lat="45.04079604159055" lon="10.002721033895043"><ele>36.5</ele><time>2026-04-12T09:45:40.999Z</time></trkpt><trkpt lat="45.04088024103763" lon="10.002768768237866"><ele>36.333333333333336</ele><time>2026-04-12T09:45:41.999Z</time></trkpt><trkpt lat="45.04096308363229" lon="10.002815733621997"><ele>36.166666666666664</ele><time>2026-04-12T09:45:42.999Z</time></trkpt><trkpt lat="45.04104399866489" lon="10.002861606065409"><ele>36.0</ele><time>2026-04-12T09:45:43.998Z</time></trkpt><trkpt lat="45.04112646690946" lon="10.002908359128199"><ele>36.0</ele><time>2026-04-12T09:45:44.998Z</time></trkpt><trkpt lat="45.04120679090535" lon="10.00295389650751"><ele>36.0</ele><time>2026-04-12T09:45:45.998Z</time></trkpt><trkpt lat="45.04128851786227" lon="10.003000229291118"><ele>36.0</ele><time>2026-04-12T09:45:46.998Z</time></trkpt><trkpt lat="45.04136846494652" lon="10.003045553009073"><ele>36.0</ele><time>2026-04-12T09:45:47.998Z</time></trkpt><trkpt lat="45.041447822790275" lon="10.003090542661807"><ele>36.0</ele><time>2026-04-12T09:45:48.998Z</time></trkpt><trkpt lat="45.04152480763489" lon="10.003134187042098"><ele>36.0</ele><time>2026-04-12T09:45:49.998Z</time></trkpt><trkpt lat="45.04160287061814" lon="10.003177457219719"><ele>36.0</ele><time>2026-04-12T09:45:50.998Z</time></trkpt><trkpt lat="45.04168665170415" lon="10.003198510033837"><ele>36.0</ele><time>2026-04-12T09:45:51.998Z</time></trkpt><trkpt lat="45.041761578367634" lon="10.003244937227825"><ele>36.0</ele><time>2026-04-12T09:45:52.998Z</time></trkpt><trkpt lat="45.04183463931589" lon="10.003292324474804"><ele>36.0</ele><time>2026-04-12T09:45:53.998Z</time></trkpt><trkpt lat="45.04190577551738" lon="10.00333475564979"><ele>36.0</ele><time>2026-04-12T09:45:54.998Z</time></trkpt><trkpt lat="45.04197461943092" lon="10.003371095524452"><ele>36.0</ele><time>2026-04-12T09:45:55.998Z</time></trkpt><trkpt lat="45.042030412403356" lon="10.003413821260274"><ele>36.0</ele><time>2026-04-12T09:45:56.998Z</time></trkpt><trkpt lat="45.04210400533797" lon="10.003436168728028"><ele>36.0</ele><time>2026-04-12T09:45:58.998Z</time></trkpt><trkpt lat="45.04218964809045" lon="10.003197585184505"><ele>36.0</ele><time>2026-04-12T09:45:59.998Z</time></trkpt><trkpt lat="45.04222324102905" lon="10.003103799322275"><ele>36.0</ele><time>2026-04-12T09:46:00.998Z</time></trkpt><trkpt lat="45.04225763841861" lon="10.003007767620609"><ele>36.0</ele><time>2026-04-12T09:46:01.998Z</time></trkpt><trkpt lat="45.04229318086632" lon="10.002907656565874"><ele>36.0</ele><time>2026-04-12T09:46:02.998Z</time></trkpt><trkpt lat="45.04232864665418" lon="10.002805939917977"><ele>36.0</ele><time>2026-04-12T09:46:03.998Z</time></trkpt><trkpt lat="45.042363409685585" lon="10.002706238723611"><ele>36.0</ele><time>2026-04-12T09:46:04.998Z</time></trkpt><trkpt lat="45.04239752881207" lon="10.00260838428181"><ele>36.0</ele><time>2026-04-12T09:46:05.998Z</time></trkpt><trkpt lat="45.04243332430403" lon="10.002505722044871"><ele>36.0</ele><time>2026-04-12T09:46:06.998Z</time></trkpt><trkpt lat="45.042456429970386" lon="10.002388212367563"><ele>36.0</ele><time>2026-04-12T09:46:07.998Z</time></trkpt><trkpt lat="45.04249510826821" lon="10.002279651259089"><ele>35.666666666666664</ele><time>2026-04-12T09:46:08.998Z</time></trkpt><trkpt lat="45.042529767041835" lon="10.002165428293178"><ele>35.333333333333336</ele><time>2026-04-12T09:46:09.998Z</time></trkpt><trkpt lat="45.042567379913336" lon="10.002057550828079"><ele>35.0</ele><time>2026-04-12T09:46:10.998Z</time></trkpt><trkpt lat="45.04260683000613" lon="10.001947101599376"><ele>34.66666666666667</ele><time>2026-04-12T09:46:11.998Z</time></trkpt><trkpt lat="45.04266396066516" lon="10.00184667866536"><ele>34.333333333333336</ele><time>2026-04-12T09:46:12.998Z</time></trkpt><trkpt lat="45.042703914710664" lon="10.001732656933077"><ele>34.0</ele><time>2026-04-12T09:46:13.998Z</time></trkpt><trkpt lat="45.042743862637565" lon="10.001618652576889"><ele>34.0</ele><time>2026-04-12T09:46:14.998Z</time></trkpt><trkpt lat="45.042784036296965" lon="10.00150400403081"><ele>34.0</ele><time>2026-04-12T09:46:15.998Z</time></trkpt><trkpt lat="45.04282472458851" lon="10.001387886901627"><ele>34.0</ele><time>2026-04-12T09:46:16.998Z</time></trkpt><trkpt lat="45.042866180690815" lon="10.001269578426"><ele>34.0</ele><time>2026-04-12T09:46:17.998Z</time></trkpt><trkpt lat="45.04289398457671" lon="10.001139808883769"><ele>34.0</ele><time>2026-04-12T09:46:18.998Z</time></trkpt><trkpt lat="45.04293670177984" lon="10.001020932450219"><ele>34.0</ele><time>2026-04-12T09:46:19.998Z</time></trkpt><trkpt lat="45.04297893980291" lon="10.000901192365365"><ele>34.0</ele><time>2026-04-12T09:46:20.998Z</time></trkpt><trkpt lat="45.043022889647375" lon="10.000780422743977"><ele>34.0</ele><time>2026-04-12T09:46:21.998Z</time></trkpt><trkpt lat="45.04306711159416" lon="10.00065824655052"><ele>34.0</ele><time>2026-04-12T09:46:22.998Z</time></trkpt><trkpt lat="45.04310940819325" lon="10.000535513087017"><ele>34.0</ele><time>2026-04-12T09:46:23.998Z</time></trkpt><trkpt lat="45.04315166611292" lon="10.000411163543252"><ele>34.0</ele><time>2026-04-12T09:46:24.998Z</time></trkpt><trkpt lat="45.043193889166766" lon="10.000286846432445"><ele>34.0</ele><time>2026-04-12T09:46:25.998Z</time></trkpt><trkpt lat="45.04323729944181" lon="10.00016109786537"><ele>34.0</ele><time>2026-04-12T09:46:26.998Z</time></trkpt><trkpt lat="45.043283188966825" lon="10.000035637980119"><ele>34.0</ele><time>2026-04-12T09:46:27.998Z</time></trkpt><trkpt lat="45.043329328055634" lon="9.999909975485258"><ele>34.0</ele><time>2026-04-12T09:46:28.998Z</time></trkpt><trkpt lat="45.043375378696794" lon="9.999780966445488"><ele>34.0</ele><time>2026-04-12T09:46:29.998Z</time></trkpt><trkpt lat="45.04342188052474" lon="9.999651153212465"><ele>34.0</ele><time>2026-04-12T09:46:30.998Z</time></trkpt><trkpt lat="45.04346707893343" lon="9.999521036054137"><ele>34.0</ele><time>2026-04-12T09:46:31.998Z</time></trkpt><trkpt lat="45.043512975790826" lon="9.999389751321848"><ele>34.0</ele><time>2026-04-12T09:46:33Z</time></trkpt><trkpt lat="45.04355870528668" lon="9.999257178500507"><ele>34.0</ele><time>2026-04-12T09:46:34Z</time></trkpt><trkpt lat="45.04360616437009" lon="9.99912335741612"><ele>33.8</ele><time>2026-04-12T09:46:35Z</time></trkpt><trkpt lat="45.04365416064682" lon="9.998991150868786"><ele>33.599999999999994</ele><time>2026-04-12T09:46:36Z</time></trkpt><trkpt lat="45.043701266178786" lon="9.99886074953008"><ele>33.4</ele><time>2026-04-12T09:46:37Z</time></trkpt><trkpt lat="45.043749408090186" lon="9.998727026774866"><ele>33.199999999999996</ele><time>2026-04-12T09:46:38Z</time></trkpt><trkpt lat="45.043808402900694" lon="9.99860220500047"><ele>33.0</ele><time>2026-04-12T09:46:39Z</time></trkpt><trkpt lat="45.04385512601297" lon="9.998470689491068"><ele>33.0</ele><time>2026-04-12T09:46:40Z</time></trkpt><trkpt lat="45.043903898922125" lon="9.998333403997153"><ele>33.0</ele><time>2026-04-12T09:46:41Z</time></trkpt><trkpt lat="45.04395078799163" lon="9.998201421541955"><ele>33.0</ele><time>2026-04-12T09:46:42Z</time></trkpt><trkpt lat="45.04399893637157" lon="9.998065894185316"><ele>33.0</ele><time>2026-04-12T09:46:43Z</time></trkpt><trkpt lat="45.044046207496535" lon="9.997932836149262"><ele>33.0</ele><time>2026-04-12T09:46:44Z</time></trkpt><trkpt lat="45.04409415598498" lon="9.997797871385215"><ele>33.199999999999996</ele><time>2026-04-12T09:46:45Z</time></trkpt><trkpt lat="45.04414070466201" lon="9.997666848678136"><ele>33.4</ele><time>2026-04-12T09:46:46Z</time></trkpt><trkpt lat="45.04418838833621" lon="9.997531917606603"><ele>33.599999999999994</ele><time>2026-04-12T09:46:47Z</time></trkpt><trkpt lat="45.0442366269072" lon="9.997397046057099"><ele>33.8</ele><time>2026-04-12T09:46:48Z</time></trkpt><trkpt lat="45.044284159779124" lon="9.997264147692979"><ele>34.0</ele><time>2026-04-12T09:46:49Z</time></trkpt><trkpt lat="45.04433075592577" lon="9.997133868282718"><ele>34.0</ele><time>2026-04-12T09:46:50Z</time></trkpt><trkpt lat="45.04437638603225" lon="9.997006289931424"><ele>34.0</ele><time>2026-04-12T09:46:51Z</time></trkpt><trkpt lat="45.04442230625388" lon="9.99687790038242"><ele>34.0</ele><time>2026-04-12T09:46:52Z</time></trkpt><trkpt lat="45.044468990202596" lon="9.996746969810477"><ele>34.0</ele><time>2026-04-12T09:46:53Z</time></trkpt><trkpt lat="45.04451408688407" lon="9.996619920615839"><ele>34.0</ele><time>2026-04-12T09:46:54Z</time></trkpt><trkpt lat="45.044559961985456" lon="9.996490678427396"><ele>34.0</ele><time>2026-04-12T09:46:55Z</time></trkpt><trkpt lat="45.04460547862926" lon="9.996362446094142"><ele>34.0</ele><time>2026-04-12T09:46:55.999Z</time></trkpt><trkpt lat="45.044651015677694" lon="9.996234156286677"><ele>34.0</ele><time>2026-04-12T09:46:56.999Z</time></trkpt><trkpt lat="45.04469613180254" lon="9.996107052319253"><ele>34.0</ele><time>2026-04-12T09:46:57.999Z</time></trkpt><trkpt lat="45.04474194269087" lon="9.995977991054822"><ele>34.0</ele><time>2026-04-12T09:46:58.999Z</time></trkpt><trkpt lat="45.04478816375181" lon="9.99584919011576"><ele>34.0</ele><time>2026-04-12T09:46:59.999Z</time></trkpt><trkpt lat="45.0448343564492" lon="9.995720625538661"><ele>34.0</ele><time>2026-04-12T09:47:00.999Z</time></trkpt><trkpt lat="45.04488085080462" lon="9.995591221385649"><ele>34.0</ele><time>2026-04-12T09:47:01.999Z</time></trkpt><trkpt lat="45.0449269666172" lon="9.995462870785094"><ele>34.0</ele><time>2026-04-12T09:47:02.999Z</time></trkpt><trkpt lat="45.0449723152128" lon="9.995336656395079"><ele>34.0</ele><time>2026-04-12T09:47:03.999Z</time></trkpt><trkpt lat="45.04501600473652" lon="9.99521469935958"><ele>34.0</ele><time>2026-04-12T09:47:04.999Z</time></trkpt><trkpt lat="45.0450587580869" lon="9.995095349629144"><ele>34.0</ele><time>2026-04-12T09:47:05.999Z</time></trkpt><trkpt lat="45.04510428488637" lon="9.994968257275744"><ele>34.0</ele><time>2026-04-12T09:47:06.999Z</time></trkpt><trkpt lat="45.045150147570745" lon="9.994840227533484"><ele>34.0</ele><time>2026-04-12T09:47:07.999Z</time></trkpt><trkpt lat="45.045196470653096" lon="9.99471091251074"><ele>34.0</ele><time>2026-04-12T09:47:08.999Z</time></trkpt><trkpt lat="45.04524229241421" lon="9.994582997017227"><ele>34.4</ele><time>2026-04-12T09:47:09.999Z</time></trkpt><trkpt lat="45.04528816915425" lon="9.994454927981568"><ele>34.8</ele><time>2026-04-12T09:47:10.999Z</time></trkpt><trkpt lat="45.045333963063804" lon="9.994327090185802"><ele>35.2</ele><time>2026-04-12T09:47:11.999Z</time></trkpt><trkpt lat="45.04537975023513" lon="9.994195736190385"><ele>35.6</ele><time>2026-04-12T09:47:12.999Z</time></trkpt><trkpt lat="45.04542475208413" lon="9.994064533126458"><ele>36.0</ele><time>2026-04-12T09:47:13.999Z</time></trkpt><trkpt lat="45.045469409868446" lon="9.993934333210174"><ele>36.0</ele><time>2026-04-12T09:47:14.999Z</time></trkpt><trkpt lat="45.04551370064372" lon="9.993805203312728"><ele>36.0</ele><time>2026-04-12T09:47:15.999Z</time></trkpt><trkpt lat="45.045557599924834" lon="9.993677214797703"><ele>36.0</ele><time>2026-04-12T09:47:16.999Z</time></trkpt><trkpt lat="45.04560177102771" lon="9.993548433741655"><ele>36.0</ele><time>2026-04-12T09:47:17.999Z</time></trkpt><trkpt lat="45.045645828676406" lon="9.993419983512874"><ele>36.0</ele><time>2026-04-12T09:47:18.999Z</time></trkpt><trkpt lat="45.045689796047434" lon="9.993291796486545"><ele>35.6</ele><time>2026-04-12T09:47:19.999Z</time></trkpt><trkpt lat="45.04573451770243" lon="9.9931614102865"><ele>35.2</ele><time>2026-04-12T09:47:20.999Z</time></trkpt><trkpt lat="45.045778106976805" lon="9.993034325723594"><ele>34.8</ele><time>2026-04-12T09:47:21.999Z</time></trkpt><trkpt lat="45.04582181910394" lon="9.99290688278812"><ele>34.4</ele><time>2026-04-12T09:47:22.999Z</time></trkpt><trkpt lat="45.04586514861609" lon="9.99278055538646"><ele>34.0</ele><time>2026-04-12T09:47:23.999Z</time></trkpt><trkpt lat="45.04590936472376" lon="9.99265152666982"><ele>34.0</ele><time>2026-04-12T09:47:24.999Z</time></trkpt><trkpt lat="45.04595308149591" lon="9.992523924727616"><ele>34.0</ele><time>2026-04-12T09:47:25.999Z</time></trkpt><trkpt lat="45.04599720398105" lon="9.99239513852283"><ele>34.0</ele><time>2026-04-12T09:47:26.999Z</time></trkpt><trkpt lat="45.04604130001628" lon="9.992266429780036"><ele>34.0</ele><time>2026-04-12T09:47:27.999Z</time></trkpt><trkpt lat="45.04608607323336" lon="9.992135743945003"><ele>34.0</ele><time>2026-04-12T09:47:28.999Z</time></trkpt><trkpt lat="45.04613037530465" lon="9.99200643376959"><ele>34.2</ele><time>2026-04-12T09:47:29.999Z</time></trkpt><trkpt lat="45.046160435205906" lon="9.991866202708895"><ele>34.4</ele><time>2026-04-12T09:47:30.999Z</time></trkpt><trkpt lat="45.04622025323141" lon="9.991744094799607"><ele>34.6</ele><time>2026-04-12T09:47:31.999Z</time></trkpt><trkpt lat="45.04626304601459" lon="9.99161919002613"><ele>34.8</ele><time>2026-04-12T09:47:32.999Z</time></trkpt><trkpt lat="45.046307615235094" lon="9.991489099570549"><ele>35.0</ele><time>2026-04-12T09:47:33.999Z</time></trkpt><trkpt lat="45.046351663245545" lon="9.991360530906523"><ele>35.2</ele><time>2026-04-12T09:47:34.999Z</time></trkpt><trkpt lat="45.04639539579573" lon="9.99123288308916"><ele>35.4</ele><time>2026-04-12T09:47:35.999Z</time></trkpt><trkpt lat="45.046437854879215" lon="9.991108951677232"><ele>35.6</ele><time>2026-04-12T09:47:36.999Z</time></trkpt><trkpt lat="45.04646717896163" lon="9.990973631167332"><ele>35.8</ele><time>2026-04-12T09:47:37.999Z</time></trkpt><trkpt lat="45.04651292323864" lon="9.990848741863058"><ele>36.0</ele><time>2026-04-12T09:47:38.999Z</time></trkpt><trkpt lat="45.04655434076346" lon="9.990722619904561"><ele>36.0</ele><time>2026-04-12T09:47:39.999Z</time></trkpt><trkpt lat="45.046595979676056" lon="9.990597235802797"><ele>36.0</ele><time>2026-04-12T09:47:40.999Z</time></trkpt><trkpt lat="45.04663885000497" lon="9.99047131508087"><ele>36.0</ele><time>2026-04-12T09:47:41.999Z</time></trkpt><trkpt lat="45.04668303224311" lon="9.99034835894146"><ele>36.0</ele><time>2026-04-12T09:47:42.999Z</time></trkpt><trkpt lat="45.04672857692356" lon="9.990227421962425"><ele>36.0</ele><time>2026-04-12T09:47:43.999Z</time></trkpt><trkpt lat="45.04676768156868" lon="9.990104283702125"><ele>36.166666666666664</ele><time>2026-04-12T09:47:44.999Z</time></trkpt><trkpt lat="45.04680815994508" lon="9.989985941920096"><ele>36.333333333333336</ele><time>2026-04-12T09:47:45.999Z</time></trkpt><trkpt lat="45.046850413749155" lon="9.989870222543741"><ele>36.5</ele><time>2026-04-12T09:47:46.999Z</time></trkpt><trkpt lat="45.04689210702562" lon="9.989756999216153"><ele>36.66666666666667</ele><time>2026-04-12T09:47:47.999Z</time></trkpt><trkpt lat="45.04693345357646" lon="9.98964535453552"><ele>36.833333333333336</ele><time>2026-04-12T09:47:48.998Z</time></trkpt><trkpt lat="45.04697172574024" lon="9.989537818364523"><ele>37.0</ele><time>2026-04-12T09:47:49.998Z</time></trkpt><trkpt lat="45.047008829178175" lon="9.989431890940356"><ele>37.0</ele><time>2026-04-12T09:47:50.998Z</time></trkpt><trkpt lat="45.047043919226795" lon="9.989328592733866"><ele>37.0</ele><time>2026-04-12T09:47:51.998Z</time></trkpt><trkpt lat="45.047079825169334" lon="9.989220098962074"><ele>37.0</ele><time>2026-04-12T09:47:52.998Z</time></trkpt><trkpt lat="45.04711505196041" lon="9.989107330593882"><ele>37.0</ele><time>2026-04-12T09:47:53.998Z</time></trkpt><trkpt lat="45.047151402219605" lon="9.98899167753147"><ele>37.0</ele><time>2026-04-12T09:47:54.998Z</time></trkpt><trkpt lat="45.04720449952833" lon="9.988882845811089"><ele>37.0</ele><time>2026-04-12T09:47:55.998Z</time></trkpt><trkpt lat="45.04724519510471" lon="9.988763978466505"><ele>36.6</ele><time>2026-04-12T09:47:56.998Z</time></trkpt><trkpt lat="45.047286455016454" lon="9.98864346230225"><ele>36.2</ele><time>2026-04-12T09:47:57.998Z</time></trkpt><trkpt lat="45.04730770626748" lon="9.988509707145306"><ele>35.8</ele><time>2026-04-12T09:47:58.998Z</time></trkpt><trkpt lat="45.04734822192915" lon="9.988387997262977"><ele>35.4</ele><time>2026-04-12T09:47:59.998Z</time></trkpt><trkpt lat="45.04739025313678" lon="9.988267295654731"><ele>35.0</ele><time>2026-04-12T09:48:00.998Z</time></trkpt><trkpt lat="45.04743181139536" lon="9.988147711930846"><ele>34.8</ele><time>2026-04-12T09:48:01.998Z</time></trkpt><trkpt lat="45.0474721189201" lon="9.988028069423807"><ele>34.6</ele><time>2026-04-12T09:48:02.998Z</time></trkpt><trkpt lat="45.047509698530206" lon="9.987909268049917"><ele>34.4</ele><time>2026-04-12T09:48:03.998Z</time></trkpt><trkpt lat="45.0475503712598" lon="9.987787898975832"><ele>34.2</ele><time>2026-04-12T09:48:04.998Z</time></trkpt><trkpt lat="45.04758898752024" lon="9.987673002721529"><ele>34.0</ele><time>2026-04-12T09:48:05.998Z</time></trkpt><trkpt lat="45.047627513516495" lon="9.987557780379497"><ele>34.5</ele><time>2026-04-12T09:48:06.998Z</time></trkpt><trkpt lat="45.04766947176933" lon="9.987451835704954"><ele>35.0</ele><time>2026-04-12T09:48:07.998Z</time></trkpt><trkpt lat="45.04772704135245" lon="9.987359574557408"><ele>35.5</ele><time>2026-04-12T09:48:08.998Z</time></trkpt><trkpt lat="45.04779311819412" lon="9.987291981732378"><ele>36.0</ele><time>2026-04-12T09:48:09.998Z</time></trkpt><trkpt lat="45.04788432645416" lon="9.98726943311917"><ele>36.5</ele><time>2026-04-12T09:48:10.998Z</time></trkpt><trkpt lat="45.04797164513735" lon="9.987286947971777"><ele>37.0</ele><time>2026-04-12T09:48:11.998Z</time></trkpt><trkpt lat="45.048063632325835" lon="9.987315491233876"><ele>37.0</ele><time>2026-04-12T09:48:12.998Z</time></trkpt><trkpt lat="45.04814919771026" lon="9.987336424831485"><ele>37.0</ele><time>2026-04-12T09:48:13.998Z</time></trkpt><trkpt lat="45.048235788764984" lon="9.98735161089191"><ele>37.0</ele><time>2026-04-12T09:48:14.998Z</time></trkpt><trkpt lat="45.048324705454526" lon="9.987364934544216"><ele>37.0</ele><time>2026-04-12T09:48:15.998Z</time></trkpt><trkpt lat="45.04841464930214" lon="9.98738089576755"><ele>37.0</ele><time>2026-04-12T09:48:16.998Z</time></trkpt><trkpt lat="45.048503728000924" lon="9.98739670312614"><ele>37.0</ele><time>2026-04-12T09:48:17.998Z</time></trkpt><trkpt lat="45.04859451971057" lon="9.987407527292438"><ele>37.0</ele><time>2026-04-12T09:48:18.998Z</time></trkpt><trkpt lat="45.04868490183639" lon="9.987419784819464"><ele>37.0</ele><time>2026-04-12T09:48:19.998Z</time></trkpt><trkpt lat="45.04877664634364" lon="9.987433521064158"><ele>37.0</ele><time>2026-04-12T09:48:20.998Z</time></trkpt><trkpt lat="45.04887259391349" lon="9.987446549478348"><ele>37.0</ele><time>2026-04-12T09:48:21.998Z</time></trkpt><trkpt lat="45.04897024114942" lon="9.987459179689376"><ele>37.0</ele><time>2026-04-12T09:48:22.998Z</time></trkpt><trkpt lat="45.04906795080652" lon="9.987473475931388"><ele>36.6</ele><time>2026-04-12T09:48:23.998Z</time></trkpt><trkpt lat="45.04916661667683" lon="9.987487772606652"><ele>36.2</ele><time>2026-04-12T09:48:24.998Z</time></trkpt><trkpt lat="45.04926475208184" lon="9.987504240789933"><ele>35.8</ele><time>2026-04-12T09:48:25.998Z</time></trkpt><trkpt lat="45.049362721194626" lon="9.987519370655058"><ele>35.4</ele><time>2026-04-12T09:48:26.998Z</time></trkpt><trkpt lat="45.04946079306365" lon="9.98753635658544"><ele>35.0</ele><time>2026-04-12T09:48:27.998Z</time></trkpt><trkpt lat="45.049557848770824" lon="9.987553499350245"><ele>35.0</ele><time>2026-04-12T09:48:28.998Z</time></trkpt><trkpt lat="45.049654387126786" lon="9.987572545373604"><ele>35.0</ele><time>2026-04-12T09:48:29.998Z</time></trkpt><trkpt lat="45.04975141919429" lon="9.98759115710587"><ele>35.0</ele><time>2026-04-12T09:48:30.998Z</time></trkpt><trkpt lat="45.049847380616015" lon="9.987604908960861"><ele>35.0</ele><time>2026-04-12T09:48:31.998Z</time></trkpt><trkpt lat="45.049940813961705" lon="9.987618430382513"><ele>35.0</ele><time>2026-04-12T09:48:32.998Z</time></trkpt><trkpt lat="45.05003221241113" lon="9.987638558572103"><ele>34.83333333333333</ele><time>2026-04-12T09:48:33.998Z</time></trkpt><trkpt lat="45.05012234479553" lon="9.987661722808134"><ele>34.666666666666664</ele><time>2026-04-12T09:48:34.998Z</time></trkpt><trkpt lat="45.05020921622978" lon="9.987679671231106"><ele>34.5</ele><time>2026-04-12T09:48:35.998Z</time></trkpt><trkpt lat="45.050295681325714" lon="9.987694009581196"><ele>34.333333333333336</ele><time>2026-04-12T09:48:36.998Z</time></trkpt><trkpt lat="45.05038404617543" lon="9.987712977363733"><ele>34.16666666666667</ele><time>2026-04-12T09:48:37.998Z</time></trkpt><trkpt lat="45.05047404090744" lon="9.987732765112918"><ele>34.0</ele><time>2026-04-12T09:48:39Z</time></trkpt><trkpt lat="45.05056310264889" lon="9.98775278499986"><ele>34.0</ele><time>2026-04-12T09:48:40Z</time></trkpt><trkpt lat="45.050651186771375" lon="9.987765093613337"><ele>34.0</ele><time>2026-04-12T09:48:41Z</time></trkpt><trkpt lat="45.05073883625734" lon="9.987780538457342"><ele>34.0</ele><time>2026-04-12T09:48:42Z</time></trkpt><trkpt lat="45.05082634309157" lon="9.9877918296839"><ele>34.0</ele><time>2026-04-12T09:48:43Z</time></trkpt><trkpt lat="45.050915041326675" lon="9.98780855933644"><ele>34.0</ele><time>2026-04-12T09:48:44Z</time></trkpt><trkpt lat="45.05100418179793" lon="9.987824760360732"><ele>34.0</ele><time>2026-04-12T09:48:45Z</time></trkpt><trkpt lat="45.05109406135514" lon="9.98783982278294"><ele>34.2</ele><time>2026-04-12T09:48:46Z</time></trkpt><trkpt lat="45.05118400756674" lon="9.987852783039907"><ele>34.4</ele><time>2026-04-12T09:48:47Z</time></trkpt><trkpt lat="45.051274521587764" lon="9.987870965263198"><ele>34.6</ele><time>2026-04-12T09:48:48Z</time></trkpt><trkpt lat="45.05136375546001" lon="9.987885499164177"><ele>34.8</ele><time>2026-04-12T09:48:49Z</time></trkpt><trkpt lat="45.05145369145005" lon="9.98789705858121"><ele>35.0</ele><time>2026-04-12T09:48:50Z</time></trkpt><trkpt lat="45.0515417854856" lon="9.987913472535489"><ele>35.2</ele><time>2026-04-12T09:48:51Z</time></trkpt><trkpt lat="45.05162918931586" lon="9.987930515156792"><ele>35.4</ele><time>2026-04-12T09:48:52Z</time></trkpt><trkpt lat="45.05171933011442" lon="9.987945659205128"><ele>35.6</ele><time>2026-04-12T09:48:53Z</time></trkpt><trkpt lat="45.05180945803961" lon="9.98795978434898"><ele>35.8</ele><time>2026-04-12T09:48:54Z</time></trkpt><trkpt lat="45.0518993797988" lon="9.987976802819091"><ele>36.0</ele><time>2026-04-12T09:48:55Z</time></trkpt><trkpt lat="45.05198868020178" lon="9.98799204562845"><ele>36.0</ele><time>2026-04-12T09:48:56Z</time></trkpt><trkpt lat="45.05207945223779" lon="9.98800502862834"><ele>36.0</ele><time>2026-04-12T09:48:57Z</time></trkpt><trkpt lat="45.052168964069224" lon="9.9880130464049"><ele>36.0</ele><time>2026-04-12T09:48:58Z</time></trkpt><trkpt lat="45.05225487050572" lon="9.988024653056481"><ele>36.0</ele><time>2026-04-12T09:48:59Z</time></trkpt><trkpt lat="45.05234184350828" lon="9.988044796654254"><ele>36.0</ele><time>2026-04-12T09:48:59.999Z</time></trkpt><trkpt lat="45.0524323164639" lon="9.988066980404644"><ele>36.0</ele><time>2026-04-12T09:49:00.999Z</time></trkpt><trkpt lat="45.05252200140893" lon="9.988085518519476"><ele>36.0</ele><time>2026-04-12T09:49:01.999Z</time></trkpt><trkpt lat="45.052614254736596" lon="9.9880989028688"><ele>36.0</ele><time>2026-04-12T09:49:02.999Z</time></trkpt><trkpt lat="45.05270550233618" lon="9.988111841884551"><ele>36.0</ele><time>2026-04-12T09:49:03.999Z</time></trkpt><trkpt lat="45.052797977882456" lon="9.988129517655246"><ele>36.0</ele><time>2026-04-12T09:49:04.999Z</time></trkpt><trkpt lat="45.05288950643599" lon="9.98814532319354"><ele>36.0</ele><time>2026-04-12T09:49:05.999Z</time></trkpt><trkpt lat="45.052979505563954" lon="9.988157688107144"><ele>36.0</ele><time>2026-04-12T09:49:06.999Z</time></trkpt><trkpt lat="45.05306715443405" lon="9.988173409673225"><ele>36.0</ele><time>2026-04-12T09:49:07.999Z</time></trkpt><trkpt lat="45.05315458065761" lon="9.988190457402801"><ele>36.0</ele><time>2026-04-12T09:49:08.999Z</time></trkpt><trkpt lat="45.05324530035223" lon="9.988205138914703"><ele>36.0</ele><time>2026-04-12T09:49:09.999Z</time></trkpt><trkpt lat="45.05333437972597" lon="9.988219579208375"><ele>36.0</ele><time>2026-04-12T09:49:10.999Z</time></trkpt><trkpt lat="45.05342508123001" lon="9.988233983383214"><ele>36.0</ele><time>2026-04-12T09:49:11.999Z</time></trkpt><trkpt lat="45.05351108562847" lon="9.988246634929546"><ele>36.166666666666664</ele><time>2026-04-12T09:49:12.999Z</time></trkpt><trkpt lat="45.053595218720695" lon="9.988260381301982"><ele>36.333333333333336</ele><time>2026-04-12T09:49:13.999Z</time></trkpt><trkpt lat="45.05367483018711" lon="9.988274369950378"><ele>36.5</ele><time>2026-04-12T09:49:14.999Z</time></trkpt><trkpt lat="45.05375357227557" lon="9.98829136630663"><ele>36.66666666666667</ele><time>2026-04-12T09:49:15.999Z</time></trkpt><trkpt lat="45.053830358195796" lon="9.988311492917163"><ele>36.833333333333336</ele><time>2026-04-12T09:49:16.999Z</time></trkpt><trkpt lat="45.05390457568655" lon="9.988334092656062"><ele>37.0</ele><time>2026-04-12T09:49:17.999Z</time></trkpt><trkpt lat="45.05397652726654" lon="9.988368720694634"><ele>37.0</ele><time>2026-04-12T09:49:18.999Z</time></trkpt><trkpt lat="45.054034228185984" lon="9.9884282875304"><ele>37.0</ele><time>2026-04-12T09:49:19.999Z</time></trkpt><trkpt lat="45.05408146714312" lon="9.988505024192076"><ele>37.0</ele><time>2026-04-12T09:49:20.999Z</time></trkpt><trkpt lat="45.054127185336796" lon="9.988574092736943"><ele>37.0</ele><time>2026-04-12T09:49:21.999Z</time></trkpt><trkpt lat="45.05417475106961" lon="9.988652963248379"><ele>37.0</ele><time>2026-04-12T09:49:22.999Z</time></trkpt><trkpt lat="45.0542225177505" lon="9.98872994351453"><ele>37.0</ele><time>2026-04-12T09:49:23.999Z</time></trkpt><trkpt lat="45.054272143031945" lon="9.988808686688262"><ele>37.0</ele><time>2026-04-12T09:49:24.999Z</time></trkpt><trkpt lat="45.05432257583354" lon="9.988890708961902"><ele>37.0</ele><time>2026-04-12T09:49:25.999Z</time></trkpt><trkpt lat="45.05437515197293" lon="9.988976438115332"><ele>37.0</ele><time>2026-04-12T09:49:26.999Z</time></trkpt><trkpt lat="45.05443184605714" lon="9.989066858995436"><ele>37.0</ele><time>2026-04-12T09:49:27.999Z</time></trkpt><trkpt lat="45.05448908976371" lon="9.989157027548405"><ele>37.0</ele><time>2026-04-12T09:49:28.999Z</time></trkpt><trkpt lat="45.05454518634361" lon="9.989249325822854"><ele>37.0</ele><time>2026-04-12T09:49:29.999Z</time></trkpt><trkpt lat="45.0546064911238" lon="9.989343328072174"><ele>37.0</ele><time>2026-04-12T09:49:30.999Z</time></trkpt><trkpt lat="45.05466598638426" lon="9.989434387955319"><ele>37.0</ele><time>2026-04-12T09:49:31.999Z</time></trkpt><trkpt lat="45.0547197790544" lon="9.98952781460542"><ele>37.0</ele><time>2026-04-12T09:49:32.999Z</time></trkpt><trkpt lat="45.05477651464091" lon="9.989621837316385"><ele>37.0</ele><time>2026-04-12T09:49:33.999Z</time></trkpt><trkpt lat="45.054835916422306" lon="9.98971748840092"><ele>37.0</ele><time>2026-04-12T09:49:34.999Z</time></trkpt><trkpt lat="45.054896102239" lon="9.989811216236093"><ele>37.0</ele><time>2026-04-12T09:49:35.999Z</time></trkpt><trkpt lat="45.054955642827025" lon="9.989903316919106"><ele>37.0</ele><time>2026-04-12T09:49:36.999Z</time></trkpt><trkpt lat="45.05501597538126" lon="9.989996071047505"><ele>37.0</ele><time>2026-04-12T09:49:37.999Z</time></trkpt><trkpt lat="45.05507627672947" lon="9.99008881781648"><ele>37.0</ele><time>2026-04-12T09:49:38.999Z</time></trkpt><trkpt lat="45.0551437773687" lon="9.990177689293796"><ele>37.0</ele><time>2026-04-12T09:49:39.999Z</time></trkpt><trkpt lat="45.055219766508415" lon="9.990253594957107"><ele>37.0</ele><time>2026-04-12T09:49:40.999Z</time></trkpt><trkpt lat="45.05530608458399" lon="9.990313992171151"><ele>37.0</ele><time>2026-04-12T09:49:41.999Z</time></trkpt><trkpt lat="45.055396112704734" lon="9.99035618657905"><ele>37.0</ele><time>2026-04-12T09:49:42.999Z</time></trkpt><trkpt lat="45.055484350922654" lon="9.990390860398092"><ele>37.0</ele><time>2026-04-12T09:49:43.999Z</time></trkpt><trkpt lat="45.05557247135491" lon="9.990416248982037"><ele>37.0</ele><time>2026-04-12T09:49:44.999Z</time></trkpt><trkpt lat="45.055667585833405" lon="9.990430287613075"><ele>37.0</ele><time>2026-04-12T09:49:45.999Z</time></trkpt><trkpt lat="45.05576339159437" lon="9.990414895282095"><ele>37.0</ele><time>2026-04-12T09:49:46.999Z</time></trkpt><trkpt lat="45.05585733314972" lon="9.990391370339195"><ele>37.0</ele><time>2026-04-12T09:49:47.999Z</time></trkpt><trkpt lat="45.05595234128936" lon="9.99035778457927"><ele>37.0</ele><time>2026-04-12T09:49:48.999Z</time></trkpt><trkpt lat="45.056046663019394" lon="9.990328055262271"><ele>37.0</ele><time>2026-04-12T09:49:49.999Z</time></trkpt><trkpt lat="45.05614499676877" lon="9.990298071662224"><ele>37.0</ele><time>2026-04-12T09:49:50.999Z</time></trkpt><trkpt lat="45.05623960265815" lon="9.990265273818553"><ele>37.0</ele><time>2026-04-12T09:49:51.999Z</time></trkpt><trkpt lat="45.05633293881784" lon="9.990238083418783"><ele>37.0</ele><time>2026-04-12T09:49:52.998Z</time></trkpt><trkpt lat="45.05643050752763" lon="9.990223008190869"><ele>37.0</ele><time>2026-04-12T09:49:53.998Z</time></trkpt><trkpt lat="45.05653161094437" lon="9.990222917787671"><ele>37.0</ele><time>2026-04-12T09:49:54.998Z</time></trkpt><trkpt lat="45.05663117617135" lon="9.990248424949918"><ele>37.0</ele><time>2026-04-12T09:49:55.998Z</time></trkpt><trkpt lat="45.05672658935598" lon="9.990297910612801"><ele>37.0</ele><time>2026-04-12T09:49:56.998Z</time></trkpt><trkpt lat="45.05681730254375" lon="9.990364712110926"><ele>37.2</ele><time>2026-04-12T09:49:57.998Z</time></trkpt><trkpt lat="45.05690625989411" lon="9.990427618859101"><ele>37.400000000000006</ele><time>2026-04-12T09:49:58.998Z</time></trkpt><trkpt lat="45.056996034399056" lon="9.990485931535492"><ele>37.599999999999994</ele><time>2026-04-12T09:49:59.998Z</time></trkpt><trkpt lat="45.05708367305504" lon="9.990542819576381"><ele>37.8</ele><time>2026-04-12T09:50:00.998Z</time></trkpt><trkpt lat="45.05717235321525" lon="9.990604266386542"><ele>38.0</ele><time>2026-04-12T09:50:01.998Z</time></trkpt><trkpt lat="45.057259950268715" lon="9.99066674702538"><ele>38.0</ele><time>2026-04-12T09:50:02.998Z</time></trkpt><trkpt lat="45.05734787316195" lon="9.99072537490485"><ele>38.0</ele><time>2026-04-12T09:50:03.998Z</time></trkpt><trkpt lat="45.05743333956117" lon="9.990783062379952"><ele>38.0</ele><time>2026-04-12T09:50:04.998Z</time></trkpt><trkpt lat="45.057519237606726" lon="9.99084387826193"><ele>38.0</ele><time>2026-04-12T09:50:05.998Z</time></trkpt><trkpt lat="45.0576063593748" lon="9.990903231948796"><ele>38.0</ele><time>2026-04-12T09:50:06.998Z</time></trkpt><trkpt lat="45.05769311580796" lon="9.990964657836878"><ele>37.6</ele><time>2026-04-12T09:50:07.998Z</time></trkpt><trkpt lat="45.057779214520444" lon="9.99102745293342"><ele>37.199999999999996</ele><time>2026-04-12T09:50:08.998Z</time></trkpt><trkpt lat="45.057858589971076" lon="9.991095363459802"><ele>36.8</ele><time>2026-04-12T09:50:09.998Z</time></trkpt><trkpt lat="45.05793896710578" lon="9.991166343384814"><ele>36.4</ele><time>2026-04-12T09:50:10.998Z</time></trkpt><trkpt lat="45.05801509132953" lon="9.991247077190009"><ele>36.0</ele><time>2026-04-12T09:50:11.998Z</time></trkpt><trkpt lat="45.05808669719078" lon="9.991335329774879"><ele>36.0</ele><time>2026-04-12T09:50:12.998Z</time></trkpt><trkpt lat="45.05815289026773" lon="9.991427649106452"><ele>36.0</ele><time>2026-04-12T09:50:13.998Z</time></trkpt><trkpt lat="45.058218464592066" lon="9.991526131816736"><ele>36.0</ele><time>2026-04-12T09:50:14.998Z</time></trkpt><trkpt lat="45.05827857912737" lon="9.991623549466672"><ele>36.0</ele><time>2026-04-12T09:50:15.998Z</time></trkpt><trkpt lat="45.05833544321515" lon="9.99172320581227"><ele>36.0</ele><time>2026-04-12T09:50:16.998Z</time></trkpt><trkpt lat="45.05839020774225" lon="9.991823927612428"><ele>35.833333333333336</ele><time>2026-04-12T09:50:17.998Z</time></trkpt><trkpt lat="45.05844603892389" lon="9.991922906711197"><ele>35.666666666666664</ele><time>2026-04-12T09:50:18.998Z</time></trkpt><trkpt lat="45.05850339022238" lon="9.992023133903334"><ele>35.5</ele><time>2026-04-12T09:50:19.998Z</time></trkpt><trkpt lat="45.05856273194843" lon="9.992115783246557"><ele>35.33333333333333</ele><time>2026-04-12T09:50:20.998Z</time></trkpt><trkpt lat="45.05862209365693" lon="9.992207097786459"><ele>35.166666666666664</ele><time>2026-04-12T09:50:21.998Z</time></trkpt><trkpt lat="45.05868453926906" lon="9.99229872950387"><ele>35.0</ele><time>2026-04-12T09:50:22.998Z</time></trkpt><trkpt lat="45.05874916993405" lon="9.992387175625176"><ele>35.0</ele><time>2026-04-12T09:50:23.998Z</time></trkpt><trkpt lat="45.05881774314872" lon="9.99247001284833"><ele>35.0</ele><time>2026-04-12T09:50:24.998Z</time></trkpt><trkpt lat="45.05888633814002" lon="9.99255493038988"><ele>35.0</ele><time>2026-04-12T09:50:25.998Z</time></trkpt><trkpt lat="45.05895650191899" lon="9.992637963711076"><ele>35.0</ele><time>2026-04-12T09:50:26.998Z</time></trkpt><trkpt lat="45.05902981252906" lon="9.992718154025878"><ele>35.0</ele><time>2026-04-12T09:50:27.998Z</time></trkpt><trkpt lat="45.05910553867495" lon="9.992797349222197"><ele>34.8</ele><time>2026-04-12T09:50:28.998Z</time></trkpt><trkpt lat="45.059180404356105" lon="9.992871809080656"><ele>34.6</ele><time>2026-04-12T09:50:29.998Z</time></trkpt><trkpt lat="45.059258174571355" lon="9.992944613721265"><ele>34.4</ele><time>2026-04-12T09:50:30.998Z</time></trkpt><trkpt lat="45.059333638387955" lon="9.99301784821714"><ele>34.2</ele><time>2026-04-12T09:50:31.998Z</time></trkpt><trkpt lat="45.05940896848253" lon="9.993093209788281"><ele>34.0</ele><time>2026-04-12T09:50:32.998Z</time></trkpt><trkpt lat="45.05948566144119" lon="9.993162002774204"><ele>34.0</ele><time>2026-04-12T09:50:33.998Z</time></trkpt><trkpt lat="45.05956476560931" lon="9.993230376716342"><ele>34.0</ele><time>2026-04-12T09:50:34.998Z</time></trkpt><trkpt lat="45.05964186792834" lon="9.993298777920161"><ele>34.0</ele><time>2026-04-12T09:50:35.998Z</time></trkpt><trkpt lat="45.05971876659938" lon="9.993367865250475"><ele>34.0</ele><time>2026-04-12T09:50:36.998Z</time></trkpt><trkpt lat="45.059796231552234" lon="9.993436639011653"><ele>34.0</ele><time>2026-04-12T09:50:37.998Z</time></trkpt><trkpt lat="45.05987331611461" lon="9.99350734381638"><ele>34.0</ele><time>2026-04-12T09:50:38.998Z</time></trkpt><trkpt lat="45.05995043491604" lon="9.993578376995194"><ele>34.0</ele><time>2026-04-12T09:50:39.998Z</time></trkpt><trkpt lat="45.06002865832851" lon="9.993650196422232"><ele>34.0</ele><time>2026-04-12T09:50:40.998Z</time></trkpt><trkpt lat="45.060105651224575" lon="9.993720739094169"><ele>34.0</ele><time>2026-04-12T09:50:41.998Z</time></trkpt><trkpt lat="45.060180577414975" lon="9.993791172811337"><ele>34.0</ele><time>2026-04-12T09:50:42.998Z</time></trkpt><trkpt lat="45.06025784473013" lon="9.99386055639046"><ele>34.0</ele><time>2026-04-12T09:50:43.998Z</time></trkpt><trkpt lat="45.06033634034995" lon="9.993924851253437"><ele>34.0</ele><time>2026-04-12T09:50:45Z</time></trkpt><trkpt lat="45.06041684785863" lon="9.993987704324148"><ele>34.0</ele><time>2026-04-12T09:50:46Z</time></trkpt><trkpt lat="45.06049779512237" lon="9.994045215815078"><ele>34.0</ele><time>2026-04-12T09:50:47Z</time></trkpt><trkpt lat="45.06057986817328" lon="9.99410317940594"><ele>34.0</ele><time>2026-04-12T09:50:48Z</time></trkpt><trkpt lat="45.06066420323772" lon="9.994152608376822"><ele>33.8</ele><time>2026-04-12T09:50:49Z</time></trkpt><trkpt lat="45.06074983326165" lon="9.994199666976696"><ele>33.599999999999994</ele><time>2026-04-12T09:50:50Z</time></trkpt><trkpt lat="45.06083483970927" lon="9.994241886373256"><ele>33.4</ele><time>2026-04-12T09:50:51Z</time></trkpt><trkpt lat="45.06092151832356" lon="9.994281992705792"><ele>33.199999999999996</ele><time>2026-04-12T09:50:52Z</time></trkpt><trkpt lat="45.061009030180664" lon="9.994322510170155"><ele>33.0</ele><time>2026-04-12T09:50:53Z</time></trkpt><trkpt lat="45.06109769493885" lon="9.994363604098153"><ele>33.8</ele><time>2026-04-12T09:50:54Z</time></trkpt><trkpt lat="45.06118676259758" lon="9.994402379445283"><ele>34.599999999999994</ele><time>2026-04-12T09:50:55Z</time></trkpt><trkpt lat="45.06127668318047" lon="9.994440943292242"><ele>35.400000000000006</ele><time>2026-04-12T09:50:56Z</time></trkpt><trkpt lat="45.06136797673429" lon="9.994483150833274"><ele>36.2</ele><time>2026-04-12T09:50:57Z</time></trkpt><trkpt lat="45.06145908520786" lon="9.994525389738726"><ele>37.0</ele><time>2026-04-12T09:50:58Z</time></trkpt><trkpt lat="45.06155044540622" lon="9.99456975289067"><ele>36.6</ele><time>2026-04-12T09:50:59Z</time></trkpt><trkpt lat="45.061640172290765" lon="9.994618485506624"><ele>36.2</ele><time>2026-04-12T09:51:00Z</time></trkpt><trkpt lat="45.06172926292878" lon="9.994663262692258"><ele>35.8</ele><time>2026-04-12T09:51:01Z</time></trkpt><trkpt lat="45.06182018556605" lon="9.994706018519034"><ele>35.4</ele><time>2026-04-12T09:51:02Z</time></trkpt><trkpt lat="45.061912083796365" lon="9.994747494228381"><ele>35.0</ele><time>2026-04-12T09:51:03Z</time></trkpt><trkpt lat="45.06200251108956" lon="9.99479158375711"><ele>35.0</ele><time>2026-04-12T09:51:04Z</time></trkpt><trkpt lat="45.062093974340954" lon="9.994840879133681"><ele>35.0</ele><time>2026-04-12T09:51:04.999Z</time></trkpt><trkpt lat="45.06218308410842" lon="9.994894709233048"><ele>35.0</ele><time>2026-04-12T09:51:05.999Z</time></trkpt><trkpt lat="45.062268980966664" lon="9.994953081767191"><ele>35.0</ele><time>2026-04-12T09:51:06.999Z</time></trkpt><trkpt lat="45.06235223237448" lon="9.995010102320611"><ele>35.0</ele><time>2026-04-12T09:51:07.999Z</time></trkpt><trkpt lat="45.06243419524933" lon="9.995066922199824"><ele>35.2</ele><time>2026-04-12T09:51:08.999Z</time></trkpt><trkpt lat="45.06251384688193" lon="9.995122117826122"><ele>35.4</ele><time>2026-04-12T09:51:09.999Z</time></trkpt><trkpt lat="45.06259525881567" lon="9.995177176967605"><ele>35.6</ele><time>2026-04-12T09:51:10.999Z</time></trkpt><trkpt lat="45.06267782804593" lon="9.995232973277227"><ele>35.8</ele><time>2026-04-12T09:51:11.999Z</time></trkpt><trkpt lat="45.06276112962798" lon="9.995288031350476"><ele>36.0</ele><time>2026-04-12T09:51:12.999Z</time></trkpt><trkpt lat="45.062844516915426" lon="9.99533944800261"><ele>36.0</ele><time>2026-04-12T09:51:13.999Z</time></trkpt><trkpt lat="45.06293070584287" lon="9.99538755737869"><ele>36.0</ele><time>2026-04-12T09:51:14.999Z</time></trkpt><trkpt lat="45.06301696864656" lon="9.99543296471386"><ele>36.0</ele><time>2026-04-12T09:51:15.999Z</time></trkpt><trkpt lat="45.063106649604975" lon="9.995481634991405"><ele>36.0</ele><time>2026-04-12T09:51:16.999Z</time></trkpt><trkpt lat="45.06318886027876" lon="9.995532965436672"><ele>36.0</ele><time>2026-04-12T09:51:17.999Z</time></trkpt><trkpt lat="45.06327313270193" lon="9.995602990826955"><ele>36.0</ele><time>2026-04-12T09:51:18.999Z</time></trkpt><trkpt lat="45.06334324295874" lon="9.995684797639617"><ele>36.0</ele><time>2026-04-12T09:51:19.999Z</time></trkpt><trkpt lat="45.06340743746921" lon="9.995779514716933"><ele>36.0</ele><time>2026-04-12T09:51:20.999Z</time></trkpt><trkpt lat="45.06347095647069" lon="9.995870667060132"><ele>36.0</ele><time>2026-04-12T09:51:21.999Z</time></trkpt><trkpt lat="45.06353426400222" lon="9.995954613841585"><ele>36.0</ele><time>2026-04-12T09:51:22.999Z</time></trkpt><trkpt lat="45.06359807617892" lon="9.996037182222437"><ele>36.0</ele><time>2026-04-12T09:51:23.999Z</time></trkpt><trkpt lat="45.06366458317941" lon="9.996118383244754"><ele>36.0</ele><time>2026-04-12T09:51:24.999Z</time></trkpt><trkpt lat="45.063735878589945" lon="9.996196214103644"><ele>36.0</ele><time>2026-04-12T09:51:25.999Z</time></trkpt><trkpt lat="45.06380986649227" lon="9.996267972634152"><ele>36.0</ele><time>2026-04-12T09:51:26.999Z</time></trkpt><trkpt lat="45.06389148244369" lon="9.996314862356096"><ele>36.0</ele><time>2026-04-12T09:51:27.999Z</time></trkpt><trkpt lat="45.06398029568502" lon="9.996321136203948"><ele>36.0</ele><time>2026-04-12T09:51:28.999Z</time></trkpt><trkpt lat="45.06406038357908" lon="9.996317104219195"><ele>36.0</ele><time>2026-04-12T09:51:29.999Z</time></trkpt><trkpt lat="45.064126018042735" lon="9.996185159621923"><ele>35.8</ele><time>2026-04-12T09:51:30.999Z</time></trkpt><trkpt lat="45.064173979472706" lon="9.996075003511352"><ele>35.6</ele><time>2026-04-12T09:51:31.999Z</time></trkpt><trkpt lat="45.064217111366794" lon="9.995960622617043"><ele>35.4</ele><time>2026-04-12T09:51:32.999Z</time></trkpt><trkpt lat="45.064258278032575" lon="9.995848226736776"><ele>35.2</ele><time>2026-04-12T09:51:33.999Z</time></trkpt><trkpt lat="45.06430592152087" lon="9.995733830208268"><ele>35.0</ele><time>2026-04-12T09:51:34.999Z</time></trkpt><trkpt lat="45.064354101269736" lon="9.99561833418398"><ele>35.0</ele><time>2026-04-12T09:51:35.999Z</time></trkpt><trkpt lat="45.06440524466937" lon="9.995503318711032"><ele>35.0</ele><time>2026-04-12T09:51:36.999Z</time></trkpt><trkpt lat="45.06445538905806" lon="9.995383610003062"><ele>35.0</ele><time>2026-04-12T09:51:37.999Z</time></trkpt><trkpt lat="45.064506809932205" lon="9.99527097914692"><ele>35.0</ele><time>2026-04-12T09:51:38.999Z</time></trkpt><trkpt lat="45.064559456327004" lon="9.995160318222922"><ele>35.0</ele><time>2026-04-12T09:51:39.999Z</time></trkpt><trkpt lat="45.06461059998088" lon="9.995047900622847"><ele>35.0</ele><time>2026-04-12T09:51:40.999Z</time></trkpt><trkpt lat="45.064660572000236" lon="9.994937189068342"><ele>35.0</ele><time>2026-04-12T09:51:41.999Z</time></trkpt><trkpt lat="45.06470942172712" lon="9.994828275930505"><ele>35.0</ele><time>2026-04-12T09:51:42.999Z</time></trkpt><trkpt lat="45.064756064603486" lon="9.994716891926394"><ele>35.0</ele><time>2026-04-12T09:51:43.999Z</time></trkpt><trkpt lat="45.064801275214556" lon="9.994604684719587"><ele>35.0</ele><time>2026-04-12T09:51:44.999Z</time></trkpt><trkpt lat="45.064847480929515" lon="9.994490757054699"><ele>35.0</ele><time>2026-04-12T09:51:45.999Z</time></trkpt><trkpt lat="45.064892802675544" lon="9.994375882378804"><ele>35.0</ele><time>2026-04-12T09:51:46.999Z</time></trkpt><trkpt lat="45.06493731974281" lon="9.994260124467456"><ele>35.0</ele><time>2026-04-12T09:51:47.999Z</time></trkpt><trkpt lat="45.06497766124878" lon="9.994139432112274"><ele>35.0</ele><time>2026-04-12T09:51:48.999Z</time></trkpt><trkpt lat="45.065021507078164" lon="9.99401612795314"><ele>35.0</ele><time>2026-04-12T09:51:49.999Z</time></trkpt><trkpt lat="45.065065405878784" lon="9.993895800594876"><ele>35.0</ele><time>2026-04-12T09:51:50.999Z</time></trkpt><trkpt lat="45.06510882878461" lon="9.9937723789172"><ele>35.0</ele><time>2026-04-12T09:51:51.999Z</time></trkpt><trkpt lat="45.0651515054013" lon="9.993645212515087"><ele>35.0</ele><time>2026-04-12T09:51:52.999Z</time></trkpt><trkpt lat="45.06518911267995" lon="9.99351256871515"><ele>35.0</ele><time>2026-04-12T09:51:53.999Z</time></trkpt><trkpt lat="45.065226017846086" lon="9.993378905631905"><ele>35.0</ele><time>2026-04-12T09:51:54.999Z</time></trkpt><trkpt lat="45.06526058810863" lon="9.993246762685581"><ele>35.0</ele><time>2026-04-12T09:51:55.999Z</time></trkpt><trkpt lat="45.0652946795386" lon="9.993111141870743"><ele>35.0</ele><time>2026-04-12T09:51:56.998Z</time></trkpt><trkpt lat="45.0653284888664" lon="9.992981752145795"><ele>35.0</ele><time>2026-04-12T09:51:57.998Z</time></trkpt><trkpt lat="45.065363793333894" lon="9.992851769335019"><ele>35.0</ele><time>2026-04-12T09:51:58.998Z</time></trkpt><trkpt lat="45.06539578034102" lon="9.992719738631864"><ele>35.0</ele><time>2026-04-12T09:51:59.998Z</time></trkpt><trkpt lat="45.065426715571114" lon="9.992585303312277"><ele>35.2</ele><time>2026-04-12T09:52:00.998Z</time></trkpt><trkpt lat="45.065458664340355" lon="9.992453088478484"><ele>35.4</ele><time>2026-04-12T09:52:01.998Z</time></trkpt><trkpt lat="45.065487718921545" lon="9.992320498724762"><ele>35.6</ele><time>2026-04-12T09:52:02.998Z</time></trkpt><trkpt lat="45.065515234825874" lon="9.992190322088636"><ele>35.8</ele><time>2026-04-12T09:52:03.998Z</time></trkpt><trkpt lat="45.0655485472797" lon="9.992062349106465"><ele>36.0</ele><time>2026-04-12T09:52:04.998Z</time></trkpt><trkpt lat="45.06558234131995" lon="9.991934742181956"><ele>36.0</ele><time>2026-04-12T09:52:05.998Z</time></trkpt><trkpt lat="45.06561557357657" lon="9.991809580743826"><ele>36.0</ele><time>2026-04-12T09:52:06.998Z</time></trkpt><trkpt lat="45.06564878485011" lon="9.99168495724983"><ele>36.0</ele><time>2026-04-12T09:52:07.998Z</time></trkpt><trkpt lat="45.065681482588566" lon="9.991558814476724"><ele>36.0</ele><time>2026-04-12T09:52:08.998Z</time></trkpt><trkpt lat="45.06571646058301" lon="9.991430251812679"><ele>36.0</ele><time>2026-04-12T09:52:09.998Z</time></trkpt><trkpt lat="45.065757739556375" lon="9.991304357336977"><ele>35.6</ele><time>2026-04-12T09:52:10.998Z</time></trkpt><trkpt lat="45.06580949609046" lon="9.991188469533963"><ele>35.2</ele><time>2026-04-12T09:52:11.998Z</time></trkpt><trkpt lat="45.06588032943983" lon="9.991094376996104"><ele>34.8</ele><time>2026-04-12T09:52:12.998Z</time></trkpt><trkpt lat="45.065967058722954" lon="9.991024310426125"><ele>34.4</ele><time>2026-04-12T09:52:13.998Z</time></trkpt><trkpt lat="45.066060666271724" lon="9.990973411927074"><ele>34.0</ele><time>2026-04-12T09:52:14.998Z</time></trkpt><trkpt lat="45.06614139871541" lon="9.990908836722364"><ele>34.0</ele><time>2026-04-12T09:52:15.998Z</time></trkpt><trkpt lat="45.06622457573767" lon="9.990845382871546"><ele>34.0</ele><time>2026-04-12T09:52:16.998Z</time></trkpt><trkpt lat="45.06630994188185" lon="9.990781707202482"><ele>34.0</ele><time>2026-04-12T09:52:17.998Z</time></trkpt><trkpt lat="45.06639521386037" lon="9.990723584035416"><ele>34.0</ele><time>2026-04-12T09:52:18.998Z</time></trkpt><trkpt lat="45.06648190441605" lon="9.990670665346524"><ele>34.0</ele><time>2026-04-12T09:52:19.998Z</time></trkpt><trkpt lat="45.06657387584778" lon="9.990641550941374"><ele>34.6</ele><time>2026-04-12T09:52:20.998Z</time></trkpt><trkpt lat="45.066669302436715" lon="9.990643658983178"><ele>35.2</ele><time>2026-04-12T09:52:21.998Z</time></trkpt><trkpt lat="45.06676255268883" lon="9.99066979261979"><ele>35.800000000000004</ele><time>2026-04-12T09:52:22.998Z</time></trkpt><trkpt lat="45.06685243561711" lon="9.990712082422988"><ele>36.4</ele><time>2026-04-12T09:52:23.998Z</time></trkpt><trkpt lat="45.06694027282726" lon="9.990756117363098"><ele>37.0</ele><time>2026-04-12T09:52:24.998Z</time></trkpt><trkpt lat="45.067026667022255" lon="9.990796649618204"><ele>37.0</ele><time>2026-04-12T09:52:25.998Z</time></trkpt><trkpt lat="45.06711454125232" lon="9.990831277283927"><ele>37.0</ele><time>2026-04-12T09:52:26.998Z</time></trkpt><trkpt lat="45.06720627152237" lon="9.99085252357845"><ele>37.0</ele><time>2026-04-12T09:52:27.998Z</time></trkpt><trkpt lat="45.06729853423447" lon="9.99086521312692"><ele>37.0</ele><time>2026-04-12T09:52:28.998Z</time></trkpt><trkpt lat="45.06738967106415" lon="9.990871236467004"><ele>37.0</ele><time>2026-04-12T09:52:29.998Z</time></trkpt><trkpt lat="45.067479999529965" lon="9.990866830877328"><ele>37.0</ele><time>2026-04-12T09:52:30.998Z</time></trkpt><trkpt lat="45.06757103066095" lon="9.99084441147808"><ele>37.0</ele><time>2026-04-12T09:52:31.998Z</time></trkpt><trkpt lat="45.067660930788755" lon="9.990820581696623"><ele>37.0</ele><time>2026-04-12T09:52:32.998Z</time></trkpt><trkpt lat="45.067753319609935" lon="9.990806626872534"><ele>37.0</ele><time>2026-04-12T09:52:33.998Z</time></trkpt><trkpt lat="45.06784342522789" lon="9.990809555149808"><ele>37.0</ele><time>2026-04-12T09:52:34.998Z</time></trkpt><trkpt lat="45.06792932278048" lon="9.990845989656881"><ele>37.0</ele><time>2026-04-12T09:52:35.998Z</time></trkpt><trkpt lat="45.068016835047594" lon="9.990903601377688"><ele>37.0</ele><time>2026-04-12T09:52:36.998Z</time></trkpt><trkpt lat="45.06809659887292" lon="9.99097419514066"><ele>37.0</ele><time>2026-04-12T09:52:37.998Z</time></trkpt><trkpt lat="45.068169332765585" lon="9.991059540127894"><ele>37.0</ele><time>2026-04-12T09:52:38.998Z</time></trkpt><trkpt lat="45.0682397909568" lon="9.991146139168643"><ele>37.0</ele><time>2026-04-12T09:52:39.998Z</time></trkpt><trkpt lat="45.06831131241027" lon="9.991232840338084"><ele>37.2</ele><time>2026-04-12T09:52:40.998Z</time></trkpt><trkpt lat="45.06838094115738" lon="9.99131872456289"><ele>37.400000000000006</ele><time>2026-04-12T09:52:41.998Z</time></trkpt><trkpt lat="45.068452717900776" lon="9.991402897975368"><ele>37.599999999999994</ele><time>2026-04-12T09:52:42.998Z</time></trkpt><trkpt lat="45.068524146807434" lon="9.99148315536706"><ele>37.8</ele><time>2026-04-12T09:52:43.998Z</time></trkpt><trkpt lat="45.068598259694745" lon="9.991561801610969"><ele>38.0</ele><time>2026-04-12T09:52:44.998Z</time></trkpt><trkpt lat="45.06867315990501" lon="9.991637558619836"><ele>38.0</ele><time>2026-04-12T09:52:45.998Z</time></trkpt><trkpt lat="45.068745557042256" lon="9.991714076208785"><ele>38.0</ele><time>2026-04-12T09:52:46.998Z</time></trkpt><trkpt lat="45.068816685155255" lon="9.991798090542082"><ele>38.0</ele><time>2026-04-12T09:52:47.998Z</time></trkpt><trkpt lat="45.06889075013401" lon="9.991878821076384"><ele>38.0</ele><time>2026-04-12T09:52:48.998Z</time></trkpt><trkpt lat="45.06896630694069" lon="9.991956522176297"><ele>38.0</ele><time>2026-04-12T09:52:49.997Z</time></trkpt><trkpt lat="45.06903877334154" lon="9.992034373871837"><ele>38.0</ele><time>2026-04-12T09:52:51Z</time></trkpt><trkpt lat="45.06911283425099" lon="9.992114410224165"><ele>38.0</ele><time>2026-04-12T09:52:52Z</time></trkpt><trkpt lat="45.069185527391596" lon="9.99219508605358"><ele>38.0</ele><time>2026-04-12T09:52:53Z</time></trkpt><trkpt lat="45.06925714083882" lon="9.992274933324719"><ele>38.0</ele><time>2026-04-12T09:52:54Z</time></trkpt><trkpt lat="45.06933110474779" lon="9.992355948968237"><ele>38.0</ele><time>2026-04-12T09:52:55Z</time></trkpt><trkpt lat="45.06940654399469" lon="9.992434420599514"><ele>37.8</ele><time>2026-04-12T09:52:56Z</time></trkpt><trkpt lat="45.069477335394254" lon="9.992516197893591"><ele>37.599999999999994</ele><time>2026-04-12T09:52:57Z</time></trkpt><trkpt lat="45.06954854121469" lon="9.992599199687428"><ele>37.400000000000006</ele><time>2026-04-12T09:52:58Z</time></trkpt><trkpt lat="45.069623302032205" lon="9.99268309267835"><ele>37.2</ele><time>2026-04-12T09:52:59Z</time></trkpt><trkpt lat="45.06969748183025" lon="9.99276041448291"><ele>37.0</ele><time>2026-04-12T09:53:00Z</time></trkpt><trkpt lat="45.069771957316874" lon="9.992841717019987"><ele>37.0</ele><time>2026-04-12T09:53:01Z</time></trkpt><trkpt lat="45.06984581293388" lon="9.99291987442842"><ele>37.0</ele><time>2026-04-12T09:53:02Z</time></trkpt><trkpt lat="45.069921701427624" lon="9.992997043022447"><ele>37.0</ele><time>2026-04-12T09:53:03Z</time></trkpt><trkpt lat="45.06999504071647" lon="9.993074653642253"><ele>37.0</ele><time>2026-04-12T09:53:04Z</time></trkpt><trkpt lat="45.07006849297808" lon="9.993152458356818"><ele>37.0</ele><time>2026-04-12T09:53:05Z</time></trkpt><trkpt lat="45.07014196916973" lon="9.993231210338609"><ele>37.4</ele><time>2026-04-12T09:53:06Z</time></trkpt><trkpt lat="45.07021120371127" lon="9.993314977362846"><ele>37.800000000000004</ele><time>2026-04-12T09:53:07Z</time></trkpt><trkpt lat="45.07028376182331" lon="9.993391463508166"><ele>38.2</ele><time>2026-04-12T09:53:08Z</time></trkpt><trkpt lat="45.070358536400015" lon="9.993462801370347"><ele>38.6</ele><time>2026-04-12T09:53:08.999Z</time></trkpt><trkpt lat="45.07044237049997" lon="9.993514780621194"><ele>39.0</ele><time>2026-04-12T09:53:09.999Z</time></trkpt><trkpt lat="45.07053522671344" lon="9.993522961748656"><ele>39.0</ele><time>2026-04-12T09:53:10.999Z</time></trkpt><trkpt lat="45.07062532766641" lon="9.993506245403958"><ele>39.0</ele><time>2026-04-12T09:53:11.999Z</time></trkpt><trkpt lat="45.07070958680714" lon="9.993486178928322"><ele>39.0</ele><time>2026-04-12T09:53:12.999Z</time></trkpt><trkpt lat="45.070797121240936" lon="9.993446950934626"><ele>39.0</ele><time>2026-04-12T09:53:13.999Z</time></trkpt><trkpt lat="45.07088397788571" lon="9.993444822417686"><ele>39.0</ele><time>2026-04-12T09:53:14.999Z</time></trkpt><trkpt lat="45.07097554892669" lon="9.993455437421053"><ele>39.0</ele><time>2026-04-12T09:53:15.999Z</time></trkpt><trkpt lat="45.07106216666276" lon="9.993483227495396"><ele>38.8</ele><time>2026-04-12T09:53:16.999Z</time></trkpt><trkpt lat="45.071154658948394" lon="9.993497775099394"><ele>38.599999999999994</ele><time>2026-04-12T09:53:17.999Z</time></trkpt><trkpt lat="45.07124937001385" lon="9.993511370158235"><ele>38.4</ele><time>2026-04-12T09:53:18.999Z</time></trkpt><trkpt lat="45.071343960875" lon="9.993525653616127"><ele>38.199999999999996</ele><time>2026-04-12T09:53:19.999Z</time></trkpt><trkpt lat="45.071439674614396" lon="9.993539807295464"><ele>38.0</ele><time>2026-04-12T09:53:20.999Z</time></trkpt><trkpt lat="45.07153348189435" lon="9.993554911063175"><ele>37.8</ele><time>2026-04-12T09:53:21.999Z</time></trkpt><trkpt lat="45.07162655388736" lon="9.99357878350319"><ele>37.599999999999994</ele><time>2026-04-12T09:53:22.999Z</time></trkpt><trkpt lat="45.0717181246052" lon="9.993599698333032"><ele>37.400000000000006</ele><time>2026-04-12T09:53:23.999Z</time></trkpt><trkpt lat="45.07181324746397" lon="9.99361131490598"><ele>37.2</ele><time>2026-04-12T09:53:24.999Z</time></trkpt><trkpt lat="45.07190650994807" lon="9.993596113548222"><ele>37.0</ele><time>2026-04-12T09:53:25.999Z</time></trkpt><trkpt lat="45.07199844342926" lon="9.993559576792713"><ele>37.0</ele><time>2026-04-12T09:53:26.999Z</time></trkpt><trkpt lat="45.07208501256466" lon="9.993497599770867"><ele>37.0</ele><time>2026-04-12T09:53:27.999Z</time></trkpt><trkpt lat="45.07216138184908" lon="9.993410339354034"><ele>37.0</ele><time>2026-04-12T09:53:28.999Z</time></trkpt><trkpt lat="45.07222666572111" lon="9.99330781528019"><ele>37.0</ele><time>2026-04-12T09:53:29.999Z</time></trkpt><trkpt lat="45.07229313864397" lon="9.993210220256843"><ele>37.0</ele><time>2026-04-12T09:53:30.999Z</time></trkpt><trkpt lat="45.072364448967555" lon="9.993118483182966"><ele>36.800000000000004</ele><time>2026-04-12T09:53:31.999Z</time></trkpt><trkpt lat="45.07244619864322" lon="9.993042764420759"><ele>36.6</ele><time>2026-04-12T09:53:32.999Z</time></trkpt><trkpt lat="45.07253599572919" lon="9.992993899188942"><ele>36.400000000000006</ele><time>2026-04-12T09:53:33.999Z</time></trkpt><trkpt lat="45.0726333084958" lon="9.992967177641757"><ele>36.2</ele><time>2026-04-12T09:53:34.999Z</time></trkpt><trkpt lat="45.07272973106642" lon="9.99295845188977"><ele>36.0</ele><time>2026-04-12T09:53:35.999Z</time></trkpt><trkpt lat="45.07282772215208" lon="9.992961393644054"><ele>36.0</ele><time>2026-04-12T09:53:36.999Z</time></trkpt><trkpt lat="45.07292351171369" lon="9.992956369629782"><ele>36.0</ele><time>2026-04-12T09:53:37.999Z</time></trkpt><trkpt lat="45.0730150417567" lon="9.992941837093591"><ele>36.0</ele><time>2026-04-12T09:53:38.999Z</time></trkpt><trkpt lat="45.073105360515804" lon="9.992928923035922"><ele>36.0</ele><time>2026-04-12T09:53:39.999Z</time></trkpt><trkpt lat="45.073198672262194" lon="9.992918091452763"><ele>36.0</ele><time>2026-04-12T09:53:40.999Z</time></trkpt><trkpt lat="45.07329053689988" lon="9.9929056100371"><ele>36.2</ele><time>2026-04-12T09:53:41.999Z</time></trkpt><trkpt lat="45.073382274693586" lon="9.992895093987638"><ele>36.400000000000006</ele><time>2026-04-12T09:53:42.999Z</time></trkpt><trkpt lat="45.073475662965876" lon="9.992884740157608"><ele>36.6</ele><time>2026-04-12T09:53:43.999Z</time></trkpt><trkpt lat="45.073567640171696" lon="9.992867322645855"><ele>36.800000000000004</ele><time>2026-04-12T09:53:44.999Z</time></trkpt><trkpt lat="45.07365763535749" lon="9.992834797557421"><ele>37.0</ele><time>2026-04-12T09:53:45.999Z</time></trkpt><trkpt lat="45.07374457285774" lon="9.992783153105805"><ele>37.0</ele><time>2026-04-12T09:53:46.999Z</time></trkpt><trkpt lat="45.07382795999297" lon="9.992716158487452"><ele>37.0</ele><time>2026-04-12T09:53:47.999Z</time></trkpt><trkpt lat="45.073907629411615" lon="9.992647016715129"><ele>37.0</ele><time>2026-04-12T09:53:48.999Z</time></trkpt><trkpt lat="45.07399034104443" lon="9.992581625339065"><ele>37.0</ele><time>2026-04-12T09:53:49.999Z</time></trkpt><trkpt lat="45.07407410003273" lon="9.992515845511253"><ele>37.0</ele><time>2026-04-12T09:53:50.999Z</time></trkpt><trkpt lat="45.074158905331316" lon="9.992457357089389"><ele>37.4</ele><time>2026-04-12T09:53:51.999Z</time></trkpt><trkpt lat="45.07424208515174" lon="9.992395489240712"><ele>37.800000000000004</ele><time>2026-04-12T09:53:52.999Z</time></trkpt><trkpt lat="45.07432700917178" lon="9.992332887975573"><ele>38.2</ele><time>2026-04-12T09:53:53.999Z</time></trkpt><trkpt lat="45.07441028607337" lon="9.992267083262517"><ele>38.6</ele><time>2026-04-12T09:53:54.999Z</time></trkpt><trkpt lat="45.07449611127354" lon="9.99220765762115"><ele>39.0</ele><time>2026-04-12T09:53:55.999Z</time></trkpt><trkpt lat="45.07457848678611" lon="9.99214630871512"><ele>39.0</ele><time>2026-04-12T09:53:56.999Z</time></trkpt><trkpt lat="45.074659228330624" lon="9.992079996808258"><ele>39.0</ele><time>2026-04-12T09:53:57.999Z</time></trkpt><trkpt lat="45.07474045874459" lon="9.992017160036482"><ele>39.0</ele><time>2026-04-12T09:53:58.999Z</time></trkpt><trkpt lat="45.074822211172666" lon="9.991950884299499"><ele>39.0</ele><time>2026-04-12T09:53:59.999Z</time></trkpt><trkpt lat="45.0749029146457" lon="9.991886259011157"><ele>39.0</ele><time>2026-04-12T09:54:00.998Z</time></trkpt><trkpt lat="45.07498557979852" lon="9.99182702164312"><ele>38.8</ele><time>2026-04-12T09:54:01.998Z</time></trkpt><trkpt lat="45.07506906824294" lon="9.991771700799955"><ele>38.599999999999994</ele><time>2026-04-12T09:54:02.998Z</time></trkpt><trkpt lat="45.07515594851085" lon="9.991727135040504"><ele>38.4</ele><time>2026-04-12T09:54:03.998Z</time></trkpt><trkpt lat="45.07524638916931" lon="9.991705971404228"><ele>38.199999999999996</ele><time>2026-04-12T09:54:04.998Z</time></trkpt><trkpt lat="45.075340205907196" lon="9.991723916161773"><ele>38.0</ele><time>2026-04-12T09:54:05.998Z</time></trkpt><trkpt lat="45.07543192027178" lon="9.991765179389782"><ele>38.0</ele><time>2026-04-12T09:54:06.998Z</time></trkpt><trkpt lat="45.07552208895983" lon="9.99178074340407"><ele>38.0</ele><time>2026-04-12T09:54:07.998Z</time></trkpt><trkpt lat="45.07561633167871" lon="9.991797749075817"><ele>38.0</ele><time>2026-04-12T09:54:08.998Z</time></trkpt><trkpt lat="45.075707917967996" lon="9.991796024895796"><ele>38.0</ele><time>2026-04-12T09:54:09.998Z</time></trkpt><trkpt lat="45.0757971907713" lon="9.99178831237526"><ele>38.0</ele><time>2026-04-12T09:54:10.998Z</time></trkpt><trkpt lat="45.07588732834472" lon="9.991776746328545"><ele>38.0</ele><time>2026-04-12T09:54:11.998Z</time></trkpt><trkpt lat="45.075977269842646" lon="9.991763297174908"><ele>38.0</ele><time>2026-04-12T09:54:12.998Z</time></trkpt><trkpt lat="45.07606588207181" lon="9.991751873689534"><ele>38.0</ele><time>2026-04-12T09:54:13.998Z</time></trkpt><trkpt lat="45.07614845791812" lon="9.991730658859328"><ele>38.0</ele><time>2026-04-12T09:54:14.998Z</time></trkpt><trkpt lat="45.076216382328006" lon="9.99165268885422"><ele>38.0</ele><time>2026-04-12T09:54:15.998Z</time></trkpt><trkpt lat="45.07625089364271" lon="9.991530345404762"><ele>38.0</ele><time>2026-04-12T09:54:16.998Z</time></trkpt><trkpt lat="45.07626374482545" lon="9.991391641783189"><ele>38.0</ele><time>2026-04-12T09:54:17.998Z</time></trkpt><trkpt lat="45.07627582925632" lon="9.991256104236294"><ele>38.0</ele><time>2026-04-12T09:54:18.998Z</time></trkpt><trkpt lat="45.07632841923003" lon="9.991143094326937"><ele>38.0</ele><time>2026-04-12T09:54:19.998Z</time></trkpt><trkpt lat="45.07637474646711" lon="9.991032256249783"><ele>38.0</ele><time>2026-04-12T09:54:20.998Z</time></trkpt><trkpt lat="45.076427893756666" lon="9.990923040653032"><ele>38.0</ele><time>2026-04-12T09:54:21.998Z</time></trkpt><trkpt lat="45.07648220139428" lon="9.990816544987725"><ele>37.8</ele><time>2026-04-12T09:54:22.998Z</time></trkpt><trkpt lat="45.07653484734248" lon="9.99070477011445"><ele>37.599999999999994</ele><time>2026-04-12T09:54:23.998Z</time></trkpt><trkpt lat="45.076575420512135" lon="9.990583229126175"><ele>37.400000000000006</ele><time>2026-04-12T09:54:24.998Z</time></trkpt><trkpt lat="45.07660501649003" lon="9.990452957467655"><ele>37.2</ele><time>2026-04-12T09:54:25.998Z</time></trkpt><trkpt lat="45.076625434882494" lon="9.990322326614388"><ele>37.0</ele><time>2026-04-12T09:54:26.998Z</time></trkpt><trkpt lat="45.0766377509502" lon="9.990188482521168"><ele>37.0</ele><time>2026-04-12T09:54:27.998Z</time></trkpt><trkpt lat="45.07664836562411" lon="9.990058952346963"><ele>37.0</ele><time>2026-04-12T09:54:28.998Z</time></trkpt><trkpt lat="45.07665826229633" lon="9.989930713353877"><ele>37.0</ele><time>2026-04-12T09:54:29.998Z</time></trkpt><trkpt lat="45.07666847412072" lon="9.989796700031757"><ele>37.0</ele><time>2026-04-12T09:54:30.998Z</time></trkpt><trkpt lat="45.07667807110389" lon="9.989663423515237"><ele>37.0</ele><time>2026-04-12T09:54:31.998Z</time></trkpt><trkpt lat="45.07668685526553" lon="9.989522323718933"><ele>37.0</ele><time>2026-04-12T09:54:32.998Z</time></trkpt><trkpt lat="45.076665655044394" lon="9.989382980000675"><ele>37.0</ele><time>2026-04-12T09:54:33.998Z</time></trkpt><trkpt lat="45.07667517944981" lon="9.989245704846887"><ele>37.0</ele><time>2026-04-12T09:54:34.998Z</time></trkpt><trkpt lat="45.07669983740041" lon="9.989116663113629"><ele>37.0</ele><time>2026-04-12T09:54:35.998Z</time></trkpt><trkpt lat="45.07675671697084" lon="9.98901294822926"><ele>37.0</ele><time>2026-04-12T09:54:36.998Z</time></trkpt><trkpt lat="45.07685602048017" lon="9.98896274433203"><ele>36.800000000000004</ele><time>2026-04-12T09:54:37.998Z</time></trkpt><trkpt lat="45.07696598651373" lon="9.98895966231574"><ele>36.6</ele><time>2026-04-12T09:54:38.998Z</time></trkpt><trkpt lat="45.07706580620196" lon="9.988977612797786"><ele>36.400000000000006</ele><time>2026-04-12T09:54:39.998Z</time></trkpt><trkpt lat="45.077163517574235" lon="9.988995090860099"><ele>36.2</ele><time>2026-04-12T09:54:40.998Z</time></trkpt><trkpt lat="45.0772601145251" lon="9.988999199195728"><ele>36.0</ele><time>2026-04-12T09:54:41.998Z</time></trkpt><trkpt lat="45.07735749403518" lon="9.98899424582742"><ele>36.0</ele><time>2026-04-12T09:54:42.998Z</time></trkpt><trkpt lat="45.077453012947345" lon="9.988983843665812"><ele>36.0</ele><time>2026-04-12T09:54:43.998Z</time></trkpt><trkpt lat="45.07755116170436" lon="9.988978705529755"><ele>36.0</ele><time>2026-04-12T09:54:44.998Z</time></trkpt><trkpt lat="45.07764821980185" lon="9.988976366534501"><ele>36.0</ele><time>2026-04-12T09:54:45.998Z</time></trkpt><trkpt lat="45.07774609150559" lon="9.988974495275825"><ele>36.0</ele><time>2026-04-12T09:54:46.998Z</time></trkpt><trkpt lat="45.07784596814469" lon="9.988977200851574"><ele>36.0</ele><time>2026-04-12T09:54:47.998Z</time></trkpt><trkpt lat="45.077944071015" lon="9.988979473424244"><ele>36.0</ele><time>2026-04-12T09:54:48.998Z</time></trkpt><trkpt lat="45.07804377280436" lon="9.988978737356948"><ele>36.0</ele><time>2026-04-12T09:54:49.998Z</time></trkpt><trkpt lat="45.078142694672955" lon="9.988977302520857"><ele>36.0</ele><time>2026-04-12T09:54:50.998Z</time></trkpt><trkpt lat="45.07824178536091" lon="9.98897253026366"><ele>36.0</ele><time>2026-04-12T09:54:51.998Z</time></trkpt><trkpt lat="45.078341596252955" lon="9.988961559551301"><ele>36.2</ele><time>2026-04-12T09:54:52.998Z</time></trkpt><trkpt lat="45.07844223455838" lon="9.988946927733569"><ele>36.400000000000006</ele><time>2026-04-12T09:54:53.997Z</time></trkpt><trkpt lat="45.07853986458645" lon="9.988927296288228"><ele>36.6</ele><time>2026-04-12T09:54:54.997Z</time></trkpt><trkpt lat="45.07863731689997" lon="9.988905438646421"><ele>36.800000000000004</ele><time>2026-04-12T09:54:55.997Z</time></trkpt><trkpt lat="45.078734595179306" lon="9.988884678025842"><ele>37.0</ele><time>2026-04-12T09:54:57Z</time></trkpt><trkpt lat="45.078832148677215" lon="9.988865099069915"><ele>37.0</ele><time>2026-04-12T09:54:58Z</time></trkpt><trkpt lat="45.07892846608169" lon="9.988845928335063"><ele>37.0</ele><time>2026-04-12T09:54:59Z</time></trkpt><trkpt lat="45.07902414690048" lon="9.988824852621198"><ele>37.0</ele><time>2026-04-12T09:55:00Z</time></trkpt><trkpt lat="45.07911678076432" lon="9.988802083204217"><ele>37.0</ele><time>2026-04-12T09:55:01Z</time></trkpt><trkpt lat="45.079209248074896" lon="9.988779488398462"><ele>37.0</ele><time>2026-04-12T09:55:02Z</time></trkpt><trkpt lat="45.079304287811446" lon="9.988751987539771"><ele>37.2</ele><time>2026-04-12T09:55:03Z</time></trkpt><trkpt lat="45.07939822503242" lon="9.988722411098186"><ele>37.400000000000006</ele><time>2026-04-12T09:55:04Z</time></trkpt><trkpt lat="45.0794915240559" lon="9.988683309022814"><ele>37.599999999999994</ele><time>2026-04-12T09:55:05Z</time></trkpt><trkpt lat="45.079585362144456" lon="9.988647071070785"><ele>37.8</ele><time>2026-04-12T09:55:06Z</time></trkpt><trkpt lat="45.07967966977491" lon="9.98861309584572"><ele>38.0</ele><time>2026-04-12T09:55:07Z</time></trkpt><trkpt lat="45.07977232955299" lon="9.988576878635014"><ele>38.0</ele><time>2026-04-12T09:55:08Z</time></trkpt><trkpt lat="45.079862272512074" lon="9.98853892387807"><ele>38.0</ele><time>2026-04-12T09:55:09Z</time></trkpt><trkpt lat="45.07995201697465" lon="9.98850206774667"><ele>38.0</ele><time>2026-04-12T09:55:10Z</time></trkpt><trkpt lat="45.08004062111981" lon="9.988461054420975"><ele>38.0</ele><time>2026-04-12T09:55:11Z</time></trkpt><trkpt lat="45.08013000758589" lon="9.988423741373731"><ele>38.0</ele><time>2026-04-12T09:55:12Z</time></trkpt><trkpt lat="45.08022094022738" lon="9.98838772981911"><ele>38.0</ele><time>2026-04-12T09:55:12.999Z</time></trkpt><trkpt lat="45.080311014790766" lon="9.988353320594847"><ele>38.0</ele><time>2026-04-12T09:55:13.999Z</time></trkpt><trkpt lat="45.08040030133242" lon="9.988326353492228"><ele>38.0</ele><time>2026-04-12T09:55:14.999Z</time></trkpt><trkpt lat="45.08049405310144" lon="9.988304267921922"><ele>38.0</ele><time>2026-04-12T09:55:15.999Z</time></trkpt><trkpt lat="45.08058579793916" lon="9.988297447916013"><ele>38.0</ele><time>2026-04-12T09:55:16.999Z</time></trkpt><trkpt lat="45.08067698439341" lon="9.988311501473703"><ele>37.6</ele><time>2026-04-12T09:55:17.999Z</time></trkpt><trkpt lat="45.08076638955927" lon="9.988342546676563"><ele>37.199999999999996</ele><time>2026-04-12T09:55:18.999Z</time></trkpt><trkpt lat="45.08085292486555" lon="9.988386748575888"><ele>36.8</ele><time>2026-04-12T09:55:19.999Z</time></trkpt><trkpt lat="45.080937068827794" lon="9.988423706712593"><ele>36.4</ele><time>2026-04-12T09:55:20.999Z</time></trkpt><trkpt lat="45.08102199277543" lon="9.988397007587357"><ele>36.0</ele><time>2026-04-12T09:55:21.999Z</time></trkpt><trkpt lat="45.08109193189708" lon="9.988299365185497"><ele>36.0</ele><time>2026-04-12T09:55:22.999Z</time></trkpt><trkpt lat="45.08114277052013" lon="9.988180717534357"><ele>36.0</ele><time>2026-04-12T09:55:23.999Z</time></trkpt><trkpt lat="45.08119594849202" lon="9.988066867906143"><ele>36.0</ele><time>2026-04-12T09:55:24.999Z</time></trkpt><trkpt lat="45.08126288495831" lon="9.987974482630122"><ele>36.0</ele><time>2026-04-12T09:55:25.999Z</time></trkpt><trkpt lat="45.08134937997103" lon="9.987909633565216"><ele>36.0</ele><time>2026-04-12T09:55:26.999Z</time></trkpt><trkpt lat="45.08144080221806" lon="9.98786455217345"><ele>36.0</ele><time>2026-04-12T09:55:27.999Z</time></trkpt><trkpt lat="45.081536163235015" lon="9.987831957452778"><ele>36.0</ele><time>2026-04-12T09:55:28.999Z</time></trkpt><trkpt lat="45.08163103989074" lon="9.987799871390314"><ele>36.0</ele><time>2026-04-12T09:55:29.999Z</time></trkpt><trkpt lat="45.08172396304821" lon="9.987763899702543"><ele>36.0</ele><time>2026-04-12T09:55:30.999Z</time></trkpt><trkpt lat="45.08181352311974" lon="9.987725322865904"><ele>36.0</ele><time>2026-04-12T09:55:31.999Z</time></trkpt><trkpt lat="45.081900001327" lon="9.98768339678742"><ele>36.2</ele><time>2026-04-12T09:55:32.999Z</time></trkpt><trkpt lat="45.08198668306674" lon="9.987642666673128"><ele>36.400000000000006</ele><time>2026-04-12T09:55:33.999Z</time></trkpt><trkpt lat="45.08207951570472" lon="9.987603097984401"><ele>36.6</ele><time>2026-04-12T09:55:34.999Z</time></trkpt><trkpt lat="45.08217558756561" lon="9.987562775928266"><ele>36.800000000000004</ele><time>2026-04-12T09:55:35.999Z</time></trkpt><trkpt lat="45.082270644591176" lon="9.987524548387107"><ele>37.0</ele><time>2026-04-12T09:55:36.999Z</time></trkpt><trkpt lat="45.08236906064214" lon="9.987486241638976"><ele>36.6</ele><time>2026-04-12T09:55:37.999Z</time></trkpt><trkpt lat="45.08246495569056" lon="9.987450033160448"><ele>36.2</ele><time>2026-04-12T09:55:38.999Z</time></trkpt><trkpt lat="45.08256204669962" lon="9.98741666998111"><ele>35.8</ele><time>2026-04-12T09:55:39.999Z</time></trkpt><trkpt lat="45.082659582847306" lon="9.987379166312802"><ele>35.4</ele><time>2026-04-12T09:55:40.999Z</time></trkpt><trkpt lat="45.0827539144244" lon="9.987336591768912"><ele>35.0</ele><time>2026-04-12T09:55:41.999Z</time></trkpt><trkpt lat="45.08284548308041" lon="9.987294234773133"><ele>35.0</ele><time>2026-04-12T09:55:42.999Z</time></trkpt><trkpt lat="45.08293654882765" lon="9.987250329431259"><ele>35.0</ele><time>2026-04-12T09:55:43.999Z</time></trkpt><trkpt lat="45.08302888831528" lon="9.987202260316291"><ele>35.0</ele><time>2026-04-12T09:55:44.999Z</time></trkpt><trkpt lat="45.083121793020126" lon="9.987147783339033"><ele>35.0</ele><time>2026-04-12T09:55:45.999Z</time></trkpt><trkpt lat="45.08321313607001" lon="9.987087783489631"><ele>35.0</ele><time>2026-04-12T09:55:46.999Z</time></trkpt><trkpt lat="45.08330245864828" lon="9.987022785359242"><ele>35.4</ele><time>2026-04-12T09:55:47.999Z</time></trkpt><trkpt lat="45.08338968638999" lon="9.986957668146724"><ele>35.8</ele><time>2026-04-12T09:55:48.999Z</time></trkpt><trkpt lat="45.08347636432572" lon="9.986892637881331"><ele>36.2</ele><time>2026-04-12T09:55:49.999Z</time></trkpt><trkpt lat="45.083566715593726" lon="9.986837331989879"><ele>36.6</ele><time>2026-04-12T09:55:50.999Z</time></trkpt><trkpt lat="45.08365430611342" lon="9.986767525063417"><ele>37.0</ele><time>2026-04-12T09:55:51.999Z</time></trkpt><trkpt lat="45.08374015125156" lon="9.986698984252003"><ele>37.4</ele><time>2026-04-12T09:55:52.999Z</time></trkpt><trkpt lat="45.08383769586509" lon="9.986649226232673"><ele>37.800000000000004</ele><time>2026-04-12T09:55:53.999Z</time></trkpt><trkpt lat="45.083928235576366" lon="9.98660442550271"><ele>38.2</ele><time>2026-04-12T09:55:54.999Z</time></trkpt><trkpt lat="45.084022622265756" lon="9.986567429824781"><ele>38.6</ele><time>2026-04-12T09:55:55.999Z</time></trkpt><trkpt lat="45.0841210518039" lon="9.98653965134086"><ele>39.0</ele><time>2026-04-12T09:55:56.999Z</time></trkpt><trkpt lat="45.08421841458708" lon="9.986519537406966"><ele>38.2</ele><time>2026-04-12T09:55:57.999Z</time></trkpt><trkpt lat="45.08431591490569" lon="9.986511200685959"><ele>37.4</ele><time>2026-04-12T09:55:58.999Z</time></trkpt><trkpt lat="45.08441407435045" lon="9.986515432868934"><ele>36.6</ele><time>2026-04-12T09:55:59.999Z</time></trkpt><trkpt lat="45.084512208350986" lon="9.986533161572725"><ele>35.8</ele><time>2026-04-12T09:56:00.999Z</time></trkpt><trkpt lat="45.084609924008745" lon="9.986554104517754"><ele>35.0</ele><time>2026-04-12T09:56:01.999Z</time></trkpt><trkpt lat="45.08470511838273" lon="9.98658653700874"><ele>35.0</ele><time>2026-04-12T09:56:02.999Z</time></trkpt><trkpt lat="45.084798421707994" lon="9.986627631476663"><ele>35.0</ele><time>2026-04-12T09:56:03.999Z</time></trkpt><trkpt lat="45.084890841309424" lon="9.98667726047673"><ele>35.0</ele><time>2026-04-12T09:56:04.999Z</time></trkpt><trkpt lat="45.084981654440256" lon="9.986731480564197"><ele>35.0</ele><time>2026-04-12T09:56:05.998Z</time></trkpt><trkpt lat="45.0850665466742" lon="9.986805756384443"><ele>35.0</ele><time>2026-04-12T09:56:06.998Z</time></trkpt><trkpt lat="45.085149706228506" lon="9.986881566560376"><ele>35.0</ele><time>2026-04-12T09:56:07.998Z</time></trkpt><trkpt lat="45.08522687450683" lon="9.986968411439515"><ele>35.0</ele><time>2026-04-12T09:56:08.998Z</time></trkpt><trkpt lat="45.08530289775714" lon="9.987058154286718"><ele>35.0</ele><time>2026-04-12T09:56:09.998Z</time></trkpt><trkpt lat="45.085377868850394" lon="9.987148558902701"><ele>35.0</ele><time>2026-04-12T09:56:10.998Z</time></trkpt><trkpt lat="45.08545164711071" lon="9.98723821299249"><ele>35.0</ele><time>2026-04-12T09:56:11.998Z</time></trkpt><trkpt lat="45.08552858922113" lon="9.987325838305322"><ele>35.0</ele><time>2026-04-12T09:56:12.998Z</time></trkpt><trkpt lat="45.08560427039187" lon="9.987413436296952"><ele>35.0</ele><time>2026-04-12T09:56:13.998Z</time></trkpt><trkpt lat="45.0856798864238" lon="9.987504075984154"><ele>35.0</ele><time>2026-04-12T09:56:14.998Z</time></trkpt><trkpt lat="45.08575620337957" lon="9.98759560534892"><ele>35.0</ele><time>2026-04-12T09:56:15.998Z</time></trkpt><trkpt lat="45.0858323284132" lon="9.98768600527478"><ele>35.0</ele><time>2026-04-12T09:56:16.998Z</time></trkpt><trkpt lat="45.08590767570261" lon="9.987777471995498"><ele>35.0</ele><time>2026-04-12T09:56:17.998Z</time></trkpt><trkpt lat="45.085983959130225" lon="9.987869916133093"><ele>35.0</ele><time>2026-04-12T09:56:18.998Z</time></trkpt><trkpt lat="45.08605965925406" lon="9.987961637138731"><ele>35.0</ele><time>2026-04-12T09:56:19.998Z</time></trkpt><trkpt lat="45.086134354079945" lon="9.98805237723534"><ele>35.0</ele><time>2026-04-12T09:56:20.998Z</time></trkpt><trkpt lat="45.08620959272378" lon="9.988147318201275"><ele>35.0</ele><time>2026-04-12T09:56:21.998Z</time></trkpt><trkpt lat="45.086284703067605" lon="9.988241318145331"><ele>35.0</ele><time>2026-04-12T09:56:22.998Z</time></trkpt><trkpt lat="45.08635880342134" lon="9.988330782679142"><ele>35.0</ele><time>2026-04-12T09:56:23.998Z</time></trkpt><trkpt lat="45.086436333699375" lon="9.988421050986409"><ele>35.0</ele><time>2026-04-12T09:56:24.998Z</time></trkpt><trkpt lat="45.086512818180424" lon="9.988511157291276"><ele>35.0</ele><time>2026-04-12T09:56:25.998Z</time></trkpt><trkpt lat="45.08658906035303" lon="9.988599541052947"><ele>35.0</ele><time>2026-04-12T09:56:26.998Z</time></trkpt><trkpt lat="45.08666550796315" lon="9.988689961969932"><ele>35.2</ele><time>2026-04-12T09:56:27.998Z</time></trkpt><trkpt lat="45.086741169298335" lon="9.988779753969729"><ele>35.4</ele><time>2026-04-12T09:56:28.998Z</time></trkpt><trkpt lat="45.08681559876242" lon="9.988869882409933"><ele>35.6</ele><time>2026-04-12T09:56:29.998Z</time></trkpt><trkpt lat="45.08688974269657" lon="9.988956756260055"><ele>35.8</ele><time>2026-04-12T09:56:30.998Z</time></trkpt><trkpt lat="45.08696283600723" lon="9.989045213141546"><ele>36.0</ele><time>2026-04-12T09:56:31.998Z</time></trkpt><trkpt lat="45.087038434449084" lon="9.98914173041238"><ele>35.8</ele><time>2026-04-12T09:56:32.998Z</time></trkpt><trkpt lat="45.087113091401946" lon="9.98923419254042"><ele>35.6</ele><time>2026-04-12T09:56:33.998Z</time></trkpt><trkpt lat="45.08719064580829" lon="9.989326329373997"><ele>35.4</ele><time>2026-04-12T09:56:34.998Z</time></trkpt><trkpt lat="45.08726493880524" lon="9.989414107878629"><ele>35.2</ele><time>2026-04-12T09:56:35.998Z</time></trkpt><trkpt lat="45.087338978340476" lon="9.98950109857532"><ele>35.0</ele><time>2026-04-12T09:56:36.998Z</time></trkpt><trkpt lat="45.08741407130536" lon="9.989588506773767"><ele>35.0</ele><time>2026-04-12T09:56:37.998Z</time></trkpt><trkpt lat="45.08748761458356" lon="9.989677319795591"><ele>35.0</ele><time>2026-04-12T09:56:38.998Z</time></trkpt><trkpt lat="45.08755920204086" lon="9.989768531718227"><ele>35.0</ele><time>2026-04-12T09:56:39.998Z</time></trkpt><trkpt lat="45.08763192001741" lon="9.989858715615263"><ele>35.0</ele><time>2026-04-12T09:56:40.998Z</time></trkpt><trkpt lat="45.08770542802286" lon="9.98994835330679"><ele>35.0</ele><time>2026-04-12T09:56:41.998Z</time></trkpt><trkpt lat="45.087779424211995" lon="9.990036133790912"><ele>35.0</ele><time>2026-04-12T09:56:42.998Z</time></trkpt><trkpt lat="45.08785364998911" lon="9.990122473945686"><ele>35.0</ele><time>2026-04-12T09:56:43.998Z</time></trkpt><trkpt lat="45.0879261262119" lon="9.990212359319312"><ele>35.0</ele><time>2026-04-12T09:56:44.998Z</time></trkpt><trkpt lat="45.08799572566225" lon="9.990303320146406"><ele>35.0</ele><time>2026-04-12T09:56:45.998Z</time></trkpt><trkpt lat="45.08806439336307" lon="9.990386399954279"><ele>35.0</ele><time>2026-04-12T09:56:46.998Z</time></trkpt><trkpt lat="45.088130699126715" lon="9.99047081087135"><ele>35.0</ele><time>2026-04-12T09:56:47.998Z</time></trkpt><trkpt lat="45.088195020925674" lon="9.990551488274383"><ele>35.0</ele><time>2026-04-12T09:56:48.998Z</time></trkpt><trkpt lat="45.08825823213501" lon="9.990627821015305"><ele>35.0</ele><time>2026-04-12T09:56:49.998Z</time></trkpt><trkpt lat="45.08831625034496" lon="9.99069965680266"><ele>35.0</ele><time>2026-04-12T09:56:50.998Z</time></trkpt><trkpt lat="45.08837169182818" lon="9.99076925460643"><ele>35.0</ele><time>2026-04-12T09:56:51.998Z</time></trkpt><trkpt lat="45.08843108081866" lon="9.990833207555495"><ele>35.0</ele><time>2026-04-12T09:56:52.998Z</time></trkpt><trkpt lat="45.08849486530744" lon="9.990893653693531"><ele>35.42857142857143</ele><time>2026-04-12T09:56:53.998Z</time></trkpt><trkpt lat="45.08855519989" lon="9.990956583828927"><ele>35.85714285714286</ele><time>2026-04-12T09:56:54.998Z</time></trkpt><trkpt lat="45.08861642876061" lon="9.991015209533558"><ele>36.285714285714285</ele><time>2026-04-12T09:56:55.998Z</time></trkpt><trkpt lat="45.08867939657861" lon="9.991068042815687"><ele>36.714285714285715</ele><time>2026-04-12T09:56:56.998Z</time></trkpt><trkpt lat="45.08874429618645" lon="9.991113410344665"><ele>37.142857142857146</ele><time>2026-04-12T09:56:57.998Z</time></trkpt><trkpt lat="45.088809983543825" lon="9.991154708001218"><ele>37.57142857142857</ele><time>2026-04-12T09:56:58.997Z</time></trkpt><trkpt lat="45.088879671996075" lon="9.991187574563513"><ele>38.0</ele><time>2026-04-12T09:56:59.997Z</time></trkpt><trkpt lat="45.088951379199784" lon="9.991214651745585"><ele>38.0</ele><time>2026-04-12T09:57:00.997Z</time></trkpt><trkpt lat="45.089024098082895" lon="9.99123814416036"><ele>38.0</ele><time>2026-04-12T09:57:01.997Z</time></trkpt><trkpt lat="45.08909534664742" lon="9.991265613162263"><ele>38.0</ele><time>2026-04-12T09:57:03Z</time></trkpt><trkpt lat="45.089168878805076" lon="9.991293851755765"><ele>38.0</ele><time>2026-04-12T09:57:04Z</time></trkpt><trkpt lat="45.08924512159609" lon="9.99132329923971"><ele>38.0</ele><time>2026-04-12T09:57:05Z</time></trkpt><trkpt lat="45.08932160756376" lon="9.991359948543018"><ele>38.0</ele><time>2026-04-12T09:57:06Z</time></trkpt><trkpt lat="45.08939932918605" lon="9.991394423489302"><ele>38.0</ele><time>2026-04-12T09:57:07Z</time></trkpt><trkpt lat="45.08947607329791" lon="9.991422352489"><ele>38.0</ele><time>2026-04-12T09:57:08Z</time></trkpt><trkpt lat="45.0895529406026" lon="9.991452777491258"><ele>38.0</ele><time>2026-04-12T09:57:09Z</time></trkpt><trkpt lat="45.08962894068131" lon="9.991481025794121"><ele>38.0</ele><time>2026-04-12T09:57:10Z</time></trkpt><trkpt lat="45.08970331088974" lon="9.991506933932845"><ele>38.0</ele><time>2026-04-12T09:57:11Z</time></trkpt><trkpt lat="45.08977585497559" lon="9.991528133636939"><ele>38.0</ele><time>2026-04-12T09:57:12Z</time></trkpt><trkpt lat="45.08984208711477" lon="9.991556097443546"><ele>38.0</ele><time>2026-04-12T09:57:13Z</time></trkpt><trkpt lat="45.08989887474554" lon="9.991595259137958"><ele>38.0</ele><time>2026-04-12T09:57:14Z</time></trkpt><trkpt lat="45.08997380105068" lon="9.991687964011303"><ele>38.0</ele><time>2026-04-12T09:57:16Z</time></trkpt><trkpt lat="45.09002946413675" lon="9.991799473456222"><ele>38.0</ele><time>2026-04-12T09:57:17.999Z</time></trkpt><trkpt lat="45.09011815504456" lon="9.991889857948408"><ele>38.0</ele><time>2026-04-12T09:57:19.999Z</time></trkpt><trkpt lat="45.09024248868198" lon="9.991858799704636"><ele>38.14285714285714</ele><time>2026-04-12T09:57:21.999Z</time></trkpt><trkpt lat="45.090301158969446" lon="9.991817987704101"><ele>38.28571428571429</ele><time>2026-04-12T09:57:22.999Z</time></trkpt><trkpt lat="45.09035694998869" lon="9.991768901073737"><ele>38.42857142857143</ele><time>2026-04-12T09:57:23.999Z</time></trkpt><trkpt lat="45.09041739283236" lon="9.991727084177674"><ele>38.57142857142857</ele><time>2026-04-12T09:57:24.999Z</time></trkpt><trkpt lat="45.0904843233793" lon="9.9917044465618"><ele>38.71428571428571</ele><time>2026-04-12T09:57:25.999Z</time></trkpt><trkpt lat="45.09055639626654" lon="9.99170902048096"><ele>38.85714285714286</ele><time>2026-04-12T09:57:26.999Z</time></trkpt><trkpt lat="45.09062751537313" lon="9.991719870168057"><ele>39.0</ele><time>2026-04-12T09:57:27.999Z</time></trkpt><trkpt lat="45.09070146978145" lon="9.991733313928332"><ele>38.666666666666664</ele><time>2026-04-12T09:57:28.999Z</time></trkpt><trkpt lat="45.09077369063646" lon="9.991748725008925"><ele>38.333333333333336</ele><time>2026-04-12T09:57:29.999Z</time></trkpt><trkpt lat="45.090848141741525" lon="9.99175967377524"><ele>38.0</ele><time>2026-04-12T09:57:30.999Z</time></trkpt><trkpt lat="45.09092514014413" lon="9.991775987065536"><ele>37.66666666666667</ele><time>2026-04-12T09:57:31.999Z</time></trkpt><trkpt lat="45.09100025561151" lon="9.991783244236805"><ele>37.333333333333336</ele><time>2026-04-12T09:57:32.999Z</time></trkpt><trkpt lat="45.091076795246074" lon="9.991805964574505"><ele>37.0</ele><time>2026-04-12T09:57:33.999Z</time></trkpt><trkpt lat="45.09115597321683" lon="9.99182111727347"><ele>37.0</ele><time>2026-04-12T09:57:34.999Z</time></trkpt><trkpt lat="45.09123611167109" lon="9.991838842267734"><ele>37.0</ele><time>2026-04-12T09:57:35.999Z</time></trkpt><trkpt lat="45.091317651033144" lon="9.99185901079969"><ele>37.0</ele><time>2026-04-12T09:57:36.999Z</time></trkpt><trkpt lat="45.091399487657895" lon="9.991879243495562"><ele>37.0</ele><time>2026-04-12T09:57:37.999Z</time></trkpt><trkpt lat="45.091482035601096" lon="9.991897784786572"><ele>37.0</ele><time>2026-04-12T09:57:38.999Z</time></trkpt><trkpt lat="45.09156296721322" lon="9.991917293795826"><ele>37.0</ele><time>2026-04-12T09:57:39.999Z</time></trkpt><trkpt lat="45.09164470733778" lon="9.991937291367194"><ele>37.16666666666667</ele><time>2026-04-12T09:57:40.999Z</time></trkpt><trkpt lat="45.09172593526841" lon="9.991956318390024"><ele>37.333333333333336</ele><time>2026-04-12T09:57:41.999Z</time></trkpt><trkpt lat="45.09181041572215" lon="9.99197346736559"><ele>37.5</ele><time>2026-04-12T09:57:42.999Z</time></trkpt><trkpt lat="45.09189623743697" lon="9.99199188147213"><ele>37.666666666666664</ele><time>2026-04-12T09:57:43.999Z</time></trkpt><trkpt lat="45.091984507477164" lon="9.992012785245034"><ele>37.83333333333333</ele><time>2026-04-12T09:57:44.999Z</time></trkpt><trkpt lat="45.0920724944189" lon="9.992029992443335"><ele>38.0</ele><time>2026-04-12T09:57:45.999Z</time></trkpt><trkpt lat="45.092160184471155" lon="9.992042212717147"><ele>38.0</ele><time>2026-04-12T09:57:46.999Z</time></trkpt><trkpt lat="45.09224932252692" lon="9.992048009079758"><ele>38.0</ele><time>2026-04-12T09:57:47.999Z</time></trkpt><trkpt lat="45.092338254776784" lon="9.992044121031528"><ele>38.0</ele><time>2026-04-12T09:57:48.999Z</time></trkpt><trkpt lat="45.09242484951757" lon="9.992036306401465"><ele>38.0</ele><time>2026-04-12T09:57:49.999Z</time></trkpt><trkpt lat="45.092512925388604" lon="9.992023796250818"><ele>38.0</ele><time>2026-04-12T09:57:50.999Z</time></trkpt><trkpt lat="45.0926030331925" lon="9.992003499654214"><ele>38.0</ele><time>2026-04-12T09:57:51.999Z</time></trkpt><trkpt lat="45.09268989356529" lon="9.991984491485912"><ele>37.83333333333333</ele><time>2026-04-12T09:57:52.999Z</time></trkpt><trkpt lat="45.092776128174904" lon="9.991962788276535"><ele>37.666666666666664</ele><time>2026-04-12T09:57:53.999Z</time></trkpt><trkpt lat="45.09286372295771" lon="9.991932313697955"><ele>37.5</ele><time>2026-04-12T09:57:54.999Z</time></trkpt><trkpt lat="45.09294896086795" lon="9.991894205602454"><ele>37.333333333333336</ele><time>2026-04-12T09:57:55.999Z</time></trkpt><trkpt lat="45.09303333317992" lon="9.991856969064683"><ele>37.16666666666667</ele><time>2026-04-12T09:57:56.999Z</time></trkpt><trkpt lat="45.093117472299575" lon="9.991814248481552"><ele>37.0</ele><time>2026-04-12T09:57:57.999Z</time></trkpt><trkpt lat="45.09319886326713" lon="9.991766313700257"><ele>37.16666666666667</ele><time>2026-04-12T09:57:58.999Z</time></trkpt><trkpt lat="45.09327908159614" lon="9.99171269576678"><ele>37.333333333333336</ele><time>2026-04-12T09:57:59.999Z</time></trkpt><trkpt lat="45.09335778573386" lon="9.991653314626934"><ele>37.5</ele><time>2026-04-12T09:58:00.999Z</time></trkpt><trkpt lat="45.09343506555459" lon="9.991586487890405"><ele>37.666666666666664</ele><time>2026-04-12T09:58:01.999Z</time></trkpt><trkpt lat="45.09351026583263" lon="9.991518644765899"><ele>37.83333333333333</ele><time>2026-04-12T09:58:02.999Z</time></trkpt><trkpt lat="45.09358690087876" lon="9.991453964240602"><ele>38.0</ele><time>2026-04-12T09:58:03.999Z</time></trkpt><trkpt lat="45.09366284329376" lon="9.991389312268804"><ele>38.0</ele><time>2026-04-12T09:58:04.999Z</time></trkpt><trkpt lat="45.09374155487313" lon="9.991326828707457"><ele>38.0</ele><time>2026-04-12T09:58:05.999Z</time></trkpt><trkpt lat="45.093815759216035" lon="9.991261281541135"><ele>38.0</ele><time>2026-04-12T09:58:06.999Z</time></trkpt><trkpt lat="45.09389149046926" lon="9.991192768541895"><ele>38.0</ele><time>2026-04-12T09:58:07.999Z</time></trkpt><trkpt lat="45.09397037273453" lon="9.991123932430282"><ele>38.0</ele><time>2026-04-12T09:58:08.999Z</time></trkpt><trkpt lat="45.09405045850022" lon="9.991061549019577"><ele>37.8</ele><time>2026-04-12T09:58:09.998Z</time></trkpt><trkpt lat="45.094132335989045" lon="9.990998875303976"><ele>37.599999999999994</ele><time>2026-04-12T09:58:10.998Z</time></trkpt><trkpt lat="45.094215185740474" lon="9.990942624371154"><ele>37.400000000000006</ele><time>2026-04-12T09:58:11.998Z</time></trkpt><trkpt lat="45.09430150088112" lon="9.990897190078321"><ele>37.2</ele><time>2026-04-12T09:58:12.998Z</time></trkpt><trkpt lat="45.09439337271198" lon="9.990869761581726"><ele>37.0</ele><time>2026-04-12T09:58:13.998Z</time></trkpt><trkpt lat="45.09448678488187" lon="9.99085351598815"><ele>37.0</ele><time>2026-04-12T09:58:14.998Z</time></trkpt><trkpt lat="45.094577248322345" lon="9.990850325804997"><ele>37.0</ele><time>2026-04-12T09:58:15.998Z</time></trkpt><trkpt lat="45.09466743904258" lon="9.990851937394117"><ele>37.0</ele><time>2026-04-12T09:58:16.998Z</time></trkpt><trkpt lat="45.09475832289231" lon="9.990855683470526"><ele>37.0</ele><time>2026-04-12T09:58:17.998Z</time></trkpt><trkpt lat="45.094846633756184" lon="9.990847390963806"><ele>37.0</ele><time>2026-04-12T09:58:18.998Z</time></trkpt><trkpt lat="45.09493531791112" lon="9.99082872757658"><ele>37.6</ele><time>2026-04-12T09:58:19.998Z</time></trkpt><trkpt lat="45.0950245301053" lon="9.990803110236792"><ele>38.2</ele><time>2026-04-12T09:58:20.998Z</time></trkpt><trkpt lat="45.095113042806645" lon="9.990770796524474"><ele>38.8</ele><time>2026-04-12T09:58:21.998Z</time></trkpt><trkpt lat="45.095201096965866" lon="9.990736438065955"><ele>39.4</ele><time>2026-04-12T09:58:22.998Z</time></trkpt><trkpt lat="45.09528846572949" lon="9.990705768277529"><ele>40.0</ele><time>2026-04-12T09:58:23.998Z</time></trkpt><trkpt lat="45.095376480216416" lon="9.99066848987704"><ele>40.0</ele><time>2026-04-12T09:58:24.998Z</time></trkpt><trkpt lat="45.095466148842924" lon="9.9906352787815"><ele>40.0</ele><time>2026-04-12T09:58:25.998Z</time></trkpt><trkpt lat="45.09555565625605" lon="9.990600247892138"><ele>40.0</ele><time>2026-04-12T09:58:26.998Z</time></trkpt><trkpt lat="45.09564470235334" lon="9.990564639312238"><ele>40.0</ele><time>2026-04-12T09:58:27.998Z</time></trkpt><trkpt lat="45.095735455990415" lon="9.9905376794329"><ele>40.0</ele><time>2026-04-12T09:58:28.998Z</time></trkpt><trkpt lat="45.09582629375813" lon="9.990510247918397"><ele>39.8</ele><time>2026-04-12T09:58:29.998Z</time></trkpt><trkpt lat="45.095916633787965" lon="9.990479154639363"><ele>39.6</ele><time>2026-04-12T09:58:30.998Z</time></trkpt><trkpt lat="45.09600628343798" lon="9.990454449475683"><ele>39.4</ele><time>2026-04-12T09:58:31.998Z</time></trkpt><trkpt lat="45.09609789302784" lon="9.990433458572207"><ele>39.2</ele><time>2026-04-12T09:58:32.998Z</time></trkpt><trkpt lat="45.096188538811" lon="9.99041842541471"><ele>39.0</ele><time>2026-04-12T09:58:33.998Z</time></trkpt><trkpt lat="45.09627832233855" lon="9.99041512705379"><ele>39.0</ele><time>2026-04-12T09:58:34.998Z</time></trkpt><trkpt lat="45.09637197984675" lon="9.990409224072874"><ele>39.0</ele><time>2026-04-12T09:58:35.998Z</time></trkpt><trkpt lat="45.096466095352085" lon="9.990401878325322"><ele>39.0</ele><time>2026-04-12T09:58:36.998Z</time></trkpt><trkpt lat="45.09656089245201" lon="9.990377865580593"><ele>39.0</ele><time>2026-04-12T09:58:37.998Z</time></trkpt><trkpt lat="45.09665282023972" lon="9.990344773519904"><ele>39.0</ele><time>2026-04-12T09:58:38.998Z</time></trkpt><trkpt lat="45.09674382563754" lon="9.99031899289294"><ele>38.666666666666664</ele><time>2026-04-12T09:58:39.999Z</time></trkpt><trkpt lat="45.096829958560846" lon="9.990291007282813"><ele>38.333333333333336</ele><time>2026-04-12T09:58:40.999Z</time></trkpt><trkpt lat="45.09691782343666" lon="9.990264009004676"><ele>38.0</ele><time>2026-04-12T09:58:41.999Z</time></trkpt><trkpt lat="45.09700405922142" lon="9.990237815103828"><ele>37.66666666666667</ele><time>2026-04-12T09:58:42.999Z</time></trkpt><trkpt lat="45.09709111357889" lon="9.99021495659716"><ele>37.333333333333336</ele><time>2026-04-12T09:58:43.999Z</time></trkpt><trkpt lat="45.09717990339188" lon="9.99018334685594"><ele>37.0</ele><time>2026-04-12T09:58:44.999Z</time></trkpt><trkpt lat="45.09726991672684" lon="9.990150593470265"><ele>37.0</ele><time>2026-04-12T09:58:45.999Z</time></trkpt><trkpt lat="45.09736052198927" lon="9.990112691401478"><ele>37.0</ele><time>2026-04-12T09:58:46.999Z</time></trkpt><trkpt lat="45.0974494108665" lon="9.990077381064845"><ele>37.0</ele><time>2026-04-12T09:58:47.999Z</time></trkpt><trkpt lat="45.09754060721908" lon="9.990038209006293"><ele>37.0</ele><time>2026-04-12T09:58:48.999Z</time></trkpt><trkpt lat="45.09762795501939" lon="9.990002225455695"><ele>37.0</ele><time>2026-04-12T09:58:49.999Z</time></trkpt><trkpt lat="45.09771808912291" lon="9.989961008397978"><ele>37.2</ele><time>2026-04-12T09:58:50.999Z</time></trkpt><trkpt lat="45.097807010284676" lon="9.98992192773378"><ele>37.400000000000006</ele><time>2026-04-12T09:58:51.999Z</time></trkpt><trkpt lat="45.097893555098764" lon="9.989882627349237"><ele>37.599999999999994</ele><time>2026-04-12T09:58:52.999Z</time></trkpt><trkpt lat="45.097981435309336" lon="9.989850887087394"><ele>37.8</ele><time>2026-04-12T09:58:53.999Z</time></trkpt><trkpt lat="45.098068812757035" lon="9.989817685108118"><ele>38.0</ele><time>2026-04-12T09:58:54.999Z</time></trkpt><trkpt lat="45.098161542931074" lon="9.98978544084015"><ele>38.199999999999996</ele><time>2026-04-12T09:58:55.999Z</time></trkpt><trkpt lat="45.09825413774463" lon="9.989770685164736"><ele>38.4</ele><time>2026-04-12T09:58:56.999Z</time></trkpt><trkpt lat="45.09834969081011" lon="9.98976831144228"><ele>38.599999999999994</ele><time>2026-04-12T09:58:57.999Z</time></trkpt><trkpt lat="45.09844634746203" lon="9.989777502977601"><ele>38.8</ele><time>2026-04-12T09:58:58.999Z</time></trkpt><trkpt lat="45.09854195285175" lon="9.98978882506593"><ele>39.0</ele><time>2026-04-12T09:58:59.999Z</time></trkpt><trkpt lat="45.09863565941846" lon="9.989798837907143"><ele>39.0</ele><time>2026-04-12T09:59:00.999Z</time></trkpt><trkpt lat="45.098725023154614" lon="9.98980987993874"><ele>39.0</ele><time>2026-04-12T09:59:01.998Z</time></trkpt><trkpt lat="45.09881208188873" lon="9.989817968604733"><ele>39.0</ele><time>2026-04-12T09:59:02.998Z</time></trkpt><trkpt lat="45.09889672847172" lon="9.98982436546194"><ele>39.0</ele><time>2026-04-12T09:59:03.998Z</time></trkpt><trkpt lat="45.098977838051375" lon="9.989831600184502"><ele>39.0</ele><time>2026-04-12T09:59:04.998Z</time></trkpt><trkpt lat="45.09905630912205" lon="9.989845175958145"><ele>39.0</ele><time>2026-04-12T09:59:05.998Z</time></trkpt><trkpt lat="45.09913249444863" lon="9.989873552684898"><ele>39.0</ele><time>2026-04-12T09:59:06.998Z</time></trkpt><trkpt lat="45.099203105621946" lon="9.98991574475361"><ele>39.0</ele><time>2026-04-12T09:59:07.998Z</time></trkpt><trkpt lat="45.09927348573747" lon="9.989930993083668"><ele>39.0</ele><time>2026-04-12T09:59:09Z</time></trkpt><trkpt lat="45.099340905325455" lon="9.989905828159873"><ele>39.0</ele><time>2026-04-12T09:59:10Z</time></trkpt><trkpt lat="45.09940335308598" lon="9.989869356258806"><ele>39.0</ele><time>2026-04-12T09:59:11Z</time></trkpt><trkpt lat="45.09952028929796" lon="9.98984033070889"><ele>39.0</ele><time>2026-04-12T09:59:13Z</time></trkpt><trkpt lat="45.099646484355326" lon="9.989867342919498"><ele>39.0</ele><time>2026-04-12T09:59:15Z</time></trkpt><trkpt lat="45.099714742902805" lon="9.989879989820373"><ele>39.0</ele><time>2026-04-12T09:59:16Z</time></trkpt><trkpt lat="45.09978375899586" lon="9.98989676251884"><ele>39.0</ele><time>2026-04-12T09:59:17Z</time></trkpt><trkpt lat="45.09985124846718" lon="9.989918101086031"><ele>39.0</ele><time>2026-04-12T09:59:18Z</time></trkpt><trkpt lat="45.099923683575184" lon="9.98993803588055"><ele>39.0</ele><time>2026-04-12T09:59:19Z</time></trkpt><trkpt lat="45.09999750234646" lon="9.98995922172135"><ele>39.0</ele><time>2026-04-12T09:59:20Z</time></trkpt><trkpt lat="45.10007191816015" lon="9.989979200058283"><ele>39.0</ele><time>2026-04-12T09:59:21Z</time></trkpt><trkpt lat="45.100149992275284" lon="9.990002399200886"><ele>38.833333333333336</ele><time>2026-04-12T09:59:22Z</time></trkpt><trkpt lat="45.10022600634249" lon="9.990027894973297"><ele>38.666666666666664</ele><time>2026-04-12T09:59:23Z</time></trkpt><trkpt lat="45.10030167135183" lon="9.990060702280548"><ele>38.5</ele><time>2026-04-12T09:59:24Z</time></trkpt><trkpt lat="45.10037929819839" lon="9.990098018018594"><ele>38.33333333333333</ele><time>2026-04-12T09:59:25Z</time></trkpt><trkpt lat="45.100458140579626" lon="9.990131468296157"><ele>38.166666666666664</ele><time>2026-04-12T09:59:26Z</time></trkpt><trkpt lat="45.10054150088477" lon="9.990161503856577"><ele>38.0</ele><time>2026-04-12T09:59:27Z</time></trkpt><trkpt lat="45.100621179015285" lon="9.990199519313363"><ele>38.0</ele><time>2026-04-12T09:59:28Z</time></trkpt><trkpt lat="45.100699411730524" lon="9.990234946502085"><ele>38.0</ele><time>2026-04-12T09:59:29Z</time></trkpt><trkpt lat="45.10078310286962" lon="9.990264418720761"><ele>38.0</ele><time>2026-04-12T09:59:30Z</time></trkpt><trkpt lat="45.10086451485861" lon="9.99030261251832"><ele>38.0</ele><time>2026-04-12T09:59:31Z</time></trkpt><trkpt lat="45.10094300797003" lon="9.99034234606946"><ele>38.0</ele><time>2026-04-12T09:59:32Z</time></trkpt><trkpt lat="45.10102010848082" lon="9.99038295501516"><ele>38.0</ele><time>2026-04-12T09:59:33Z</time></trkpt><trkpt lat="45.101098172548234" lon="9.990425934105867"><ele>38.0</ele><time>2026-04-12T09:59:34Z</time></trkpt><trkpt lat="45.10117601441383" lon="9.990471346960499"><ele>38.0</ele><time>2026-04-12T09:59:35Z</time></trkpt><trkpt lat="45.101252903673696" lon="9.990518695761065"><ele>38.0</ele><time>2026-04-12T09:59:36Z</time></trkpt><trkpt lat="45.10132889676051" lon="9.99056565502327"><ele>38.0</ele><time>2026-04-12T09:59:37Z</time></trkpt><trkpt lat="45.10140430768881" lon="9.990611118033152"><ele>38.0</ele><time>2026-04-12T09:59:38Z</time></trkpt><trkpt lat="45.10148051722943" lon="9.990658873397276"><ele>38.0</ele><time>2026-04-12T09:59:39Z</time></trkpt><trkpt lat="45.10155629172664" lon="9.990705277292609"><ele>38.0</ele><time>2026-04-12T09:59:40Z</time></trkpt><trkpt lat="45.10162909863447" lon="9.990758878276504"><ele>38.0</ele><time>2026-04-12T09:59:41Z</time></trkpt><trkpt lat="45.10169976215403" lon="9.990820589242407"><ele>38.0</ele><time>2026-04-12T09:59:42Z</time></trkpt><trkpt lat="45.10176474247584" lon="9.99088934540671"><ele>38.0</ele><time>2026-04-12T09:59:43Z</time></trkpt><trkpt lat="45.10182996872112" lon="9.990959310064534"><ele>38.0</ele><time>2026-04-12T09:59:44Z</time></trkpt><trkpt lat="45.10189082555051" lon="9.991035763236836"><ele>38.0</ele><time>2026-04-12T09:59:45Z</time></trkpt><trkpt lat="45.10195151891518" lon="9.991117370442634"><ele>37.666666666666664</ele><time>2026-04-12T09:59:46Z</time></trkpt><trkpt lat="45.10201165888012" lon="9.991200424585648"><ele>37.33333333333333</ele><time>2026-04-12T09:59:47Z</time></trkpt><trkpt lat="45.10206835149003" lon="9.991290047642153"><ele>37.0</ele><time>2026-04-12T09:59:48Z</time></trkpt><trkpt lat="45.102123715506345" lon="9.991378167315714"><ele>36.666666666666664</ele><time>2026-04-12T09:59:49Z</time></trkpt><trkpt lat="45.10217671014961" lon="9.991471781166707"><ele>36.333333333333336</ele><time>2026-04-12T09:59:50Z</time></trkpt><trkpt lat="45.10222694806687" lon="9.991565781440434"><ele>36.0</ele><time>2026-04-12T09:59:51Z</time></trkpt><trkpt lat="45.10227548793732" lon="9.99166274076569"><ele>36.0</ele><time>2026-04-12T09:59:52Z</time></trkpt><trkpt lat="45.10232579244912" lon="9.991755164049371"><ele>36.0</ele><time>2026-04-12T09:59:53Z</time></trkpt><trkpt lat="45.10237411080965" lon="9.991846958852397"><ele>36.0</ele><time>2026-04-12T09:59:54Z</time></trkpt><trkpt lat="45.10242178136534" lon="9.991936722508122"><ele>36.0</ele><time>2026-04-12T09:59:55Z</time></trkpt><trkpt lat="45.102470220676715" lon="9.992025418823815"><ele>36.0</ele><time>2026-04-12T09:59:56Z</time></trkpt><trkpt lat="45.102522914784885" lon="9.992105206969276"><ele>36.0</ele><time>2026-04-12T09:59:57Z</time></trkpt><trkpt lat="45.10258031220006" lon="9.992177842986834"><ele>36.28571428571429</ele><time>2026-04-12T09:59:58Z</time></trkpt><trkpt lat="45.102640611420874" lon="9.99224326333976"><ele>36.57142857142857</ele><time>2026-04-12T09:59:59Z</time></trkpt><trkpt lat="45.1027005500892" lon="9.992306806909212"><ele>36.85714285714286</ele><time>2026-04-12T10:00:00Z</time></trkpt><trkpt lat="45.10275751192809" lon="9.992372388997731"><ele>37.142857142857146</ele><time>2026-04-12T10:00:01Z</time></trkpt><trkpt lat="45.10281461022855" lon="9.99243738395197"><ele>37.42857142857143</ele><time>2026-04-12T10:00:02Z</time></trkpt><trkpt lat="45.102869497644775" lon="9.992499949629778"><ele>37.714285714285715</ele><time>2026-04-12T10:00:03Z</time></trkpt><trkpt lat="45.102922551404205" lon="9.992555776279804"><ele>38.0</ele><time>2026-04-12T10:00:04Z</time></trkpt><trkpt lat="45.102974189483845" lon="9.992617488054407"><ele>38.0</ele><time>2026-04-12T10:00:05Z</time></trkpt><trkpt lat="45.10307666524158" lon="9.992727784857813"><ele>38.0</ele><time>2026-04-12T10:00:07Z</time></trkpt><trkpt lat="45.10313924098483" lon="9.992765704537776"><ele>38.0</ele><time>2026-04-12T10:00:08Z</time></trkpt><trkpt lat="45.10318219348979" lon="9.992846729585056"><ele>38.0</ele><time>2026-04-12T10:00:09Z</time></trkpt><trkpt lat="45.10323604544419" lon="9.992905590523565"><ele>38.0</ele><time>2026-04-12T10:00:10Z</time></trkpt><trkpt lat="45.1032979455085" lon="9.992959125763086"><ele>38.0</ele><time>2026-04-12T10:00:11Z</time></trkpt><trkpt lat="45.10336443763999" lon="9.993003100249345"><ele>38.0</ele><time>2026-04-12T10:00:12Z</time></trkpt><trkpt lat="45.103431764010324" lon="9.993040165379739"><ele>38.0</ele><time>2026-04-12T10:00:13Z</time></trkpt><trkpt lat="45.103497421636526" lon="9.993096010176323"><ele>38.0</ele><time>2026-04-12T10:00:14Z</time></trkpt><trkpt lat="45.10355741964378" lon="9.993156144238554"><ele>38.0</ele><time>2026-04-12T10:00:14.999Z</time></trkpt><trkpt lat="45.10361427435411" lon="9.993214828677957"><ele>38.0</ele><time>2026-04-12T10:00:15.999Z</time></trkpt><trkpt lat="45.10367169089007" lon="9.99327650572921"><ele>38.0</ele><time>2026-04-12T10:00:16.999Z</time></trkpt><trkpt lat="45.10373194090946" lon="9.993334789185699"><ele>38.0</ele><time>2026-04-12T10:00:17.999Z</time></trkpt><trkpt lat="45.10379575979775" lon="9.993391205093458"><ele>38.0</ele><time>2026-04-12T10:00:18.999Z</time></trkpt><trkpt lat="45.10385815435337" lon="9.993451419706126"><ele>38.0</ele><time>2026-04-12T10:00:19.999Z</time></trkpt><trkpt lat="45.10391958130423" lon="9.993514069764258"><ele>38.0</ele><time>2026-04-12T10:00:20.999Z</time></trkpt><trkpt lat="45.103979768406425" lon="9.99358121566514"><ele>38.0</ele><time>2026-04-12T10:00:21.999Z</time></trkpt><trkpt lat="45.10404084232522" lon="9.993644646004256"><ele>38.0</ele><time>2026-04-12T10:00:22.999Z</time></trkpt><trkpt lat="45.10410215491398" lon="9.99370629799707"><ele>38.0</ele><time>2026-04-12T10:00:23.999Z</time></trkpt><trkpt lat="45.10416137086543" lon="9.99376574930323"><ele>38.166666666666664</ele><time>2026-04-12T10:00:24.999Z</time></trkpt><trkpt lat="45.104218862160565" lon="9.993822503596284"><ele>38.33333333333333</ele><time>2026-04-12T10:00:25.999Z</time></trkpt><trkpt lat="45.1042823887368" lon="9.9938645936651"><ele>38.5</ele><time>2026-04-12T10:00:26.999Z</time></trkpt><trkpt lat="45.10435487551088" lon="9.993867927011289"><ele>38.666666666666664</ele><time>2026-04-12T10:00:27.999Z</time></trkpt><trkpt lat="45.10442647433208" lon="9.993809303555683"><ele>38.833333333333336</ele><time>2026-04-12T10:00:28.999Z</time></trkpt><trkpt lat="45.104480146115925" lon="9.993718700254009"><ele>39.0</ele><time>2026-04-12T10:00:29.999Z</time></trkpt><trkpt lat="45.104513241861" lon="9.993618398985948"><ele>39.0</ele><time>2026-04-12T10:00:30.999Z</time></trkpt><trkpt lat="45.104544806347334" lon="9.993514948067954"><ele>39.0</ele><time>2026-04-12T10:00:31.999Z</time></trkpt><trkpt lat="45.104577955290694" lon="9.99341349184556"><ele>39.0</ele><time>2026-04-12T10:00:32.999Z</time></trkpt><trkpt lat="45.10461508973945" lon="9.99331237198073"><ele>39.0</ele><time>2026-04-12T10:00:33.999Z</time></trkpt><trkpt lat="45.10469304147117" lon="9.993242545354457"><ele>39.0</ele><time>2026-04-12T10:00:34.999Z</time></trkpt><trkpt lat="45.10473337698999" lon="9.993143948882151"><ele>39.0</ele><time>2026-04-12T10:00:35.999Z</time></trkpt><trkpt lat="45.104774000167815" lon="9.993045145321005"><ele>39.0</ele><time>2026-04-12T10:00:36.999Z</time></trkpt><trkpt lat="45.104815478203996" lon="9.992944262643695"><ele>39.0</ele><time>2026-04-12T10:00:37.999Z</time></trkpt><trkpt lat="45.10485598764953" lon="9.992845735603131"><ele>39.0</ele><time>2026-04-12T10:00:38.999Z</time></trkpt><trkpt lat="45.104897334973884" lon="9.992745170925785"><ele>39.0</ele><time>2026-04-12T10:00:39.999Z</time></trkpt><trkpt lat="45.10493822841811" lon="9.99264570994435"><ele>39.0</ele><time>2026-04-12T10:00:40.999Z</time></trkpt><trkpt lat="45.104979378099266" lon="9.992548887757101"><ele>39.0</ele><time>2026-04-12T10:00:41.999Z</time></trkpt><trkpt lat="45.10501365383554" lon="9.992445400216903"><ele>39.0</ele><time>2026-04-12T10:00:42.999Z</time></trkpt><trkpt lat="45.105059786344654" lon="9.992349822288194"><ele>39.0</ele><time>2026-04-12T10:00:43.999Z</time></trkpt><trkpt lat="45.10510338891906" lon="9.992254628287679"><ele>39.0</ele><time>2026-04-12T10:00:44.999Z</time></trkpt><trkpt lat="45.105142834319075" lon="9.992158409925082"><ele>39.0</ele><time>2026-04-12T10:00:45.999Z</time></trkpt><trkpt lat="45.10518333828068" lon="9.992067315181682"><ele>39.0</ele><time>2026-04-12T10:00:46.999Z</time></trkpt><trkpt lat="45.105225481019716" lon="9.9919814801984"><ele>39.0</ele><time>2026-04-12T10:00:47.999Z</time></trkpt><trkpt lat="45.105263998967665" lon="9.991893839897333"><ele>39.0</ele><time>2026-04-12T10:00:48.999Z</time></trkpt><trkpt lat="45.105302511632225" lon="9.991809810837188"><ele>39.0</ele><time>2026-04-12T10:00:49.999Z</time></trkpt><trkpt lat="45.10533841711187" lon="9.991726436091431"><ele>39.0</ele><time>2026-04-12T10:00:50.999Z</time></trkpt><trkpt lat="45.10537768040925" lon="9.991645973687957"><ele>39.0</ele><time>2026-04-12T10:00:51.999Z</time></trkpt><trkpt lat="45.10541883348299" lon="9.991575578862703"><ele>39.0</ele><time>2026-04-12T10:00:52.999Z</time></trkpt><trkpt lat="45.10545879510104" lon="9.991504391061786"><ele>39.0</ele><time>2026-04-12T10:00:53.999Z</time></trkpt><trkpt lat="45.10549886952106" lon="9.991433956441531"><ele>39.0</ele><time>2026-04-12T10:00:54.999Z</time></trkpt><trkpt lat="45.10559154397053" lon="9.991318777905054"><ele>39.0</ele><time>2026-04-12T10:00:56.999Z</time></trkpt><trkpt lat="45.105709463590905" lon="9.991278112887482"><ele>39.0</ele><time>2026-04-12T10:00:58.999Z</time></trkpt><trkpt lat="45.10579204767075" lon="9.991470180323674"><ele>39.0</ele><time>2026-04-12T10:01:00.999Z</time></trkpt><trkpt lat="45.10583937593655" lon="9.991545704341426"><ele>39.0</ele><time>2026-04-12T10:01:01.999Z</time></trkpt><trkpt lat="45.10587954549237" lon="9.991614828917651"><ele>39.0</ele><time>2026-04-12T10:01:02.999Z</time></trkpt><trkpt lat="45.1059356256416" lon="9.991682656752596"><ele>39.0</ele><time>2026-04-12T10:01:03.999Z</time></trkpt><trkpt lat="45.105993581310855" lon="9.991755527787964"><ele>39.0</ele><time>2026-04-12T10:01:04.999Z</time></trkpt><trkpt lat="45.10605342771011" lon="9.991839653510743"><ele>39.0</ele><time>2026-04-12T10:01:05.999Z</time></trkpt><trkpt lat="45.1061218257536" lon="9.991923304715113"><ele>39.0</ele><time>2026-04-12T10:01:06.998Z</time></trkpt><trkpt lat="45.10617630438219" lon="9.992008788208176"><ele>39.0</ele><time>2026-04-12T10:01:07.998Z</time></trkpt><trkpt lat="45.106250221323386" lon="9.992061879831923"><ele>39.0</ele><time>2026-04-12T10:01:08.998Z</time></trkpt><trkpt lat="45.10631221196943" lon="9.992130844986946"><ele>39.0</ele><time>2026-04-12T10:01:09.998Z</time></trkpt><trkpt lat="45.106361888943816" lon="9.992219002622981"><ele>39.0</ele><time>2026-04-12T10:01:10.998Z</time></trkpt><trkpt lat="45.10641973958897" lon="9.992282628192669"><ele>39.0</ele><time>2026-04-12T10:01:11.998Z</time></trkpt><trkpt lat="45.10648110822367" lon="9.992342843444714"><ele>39.0</ele><time>2026-04-12T10:01:12.998Z</time></trkpt><trkpt lat="45.10654342434752" lon="9.992400094988842"><ele>39.0</ele><time>2026-04-12T10:01:13.998Z</time></trkpt><trkpt lat="45.10660406889246" lon="9.992464892776738"><ele>39.0</ele><time>2026-04-12T10:01:15Z</time></trkpt><trkpt lat="45.10666542976787" lon="9.992531848492142"><ele>39.0</ele><time>2026-04-12T10:01:16Z</time></trkpt><trkpt lat="45.10673049222699" lon="9.992585776494908"><ele>39.0</ele><time>2026-04-12T10:01:17Z</time></trkpt><trkpt lat="45.106798153739135" lon="9.992640842358881"><ele>39.0</ele><time>2026-04-12T10:01:18Z</time></trkpt><trkpt lat="45.10686193619797" lon="9.992693793298336"><ele>39.0</ele><time>2026-04-12T10:01:19Z</time></trkpt><trkpt lat="45.106927531695206" lon="9.992757556380358"><ele>39.0</ele><time>2026-04-12T10:01:20Z</time></trkpt><trkpt lat="45.106988693133204" lon="9.992819341264694"><ele>39.0</ele><time>2026-04-12T10:01:21Z</time></trkpt><trkpt lat="45.107043612096135" lon="9.992878607073028"><ele>39.0</ele><time>2026-04-12T10:01:22Z</time></trkpt><trkpt lat="45.10709708353441" lon="9.992934991629213"><ele>39.0</ele><time>2026-04-12T10:01:23Z</time></trkpt><trkpt lat="45.10716294827273" lon="9.992951910631792"><ele>39.0</ele><time>2026-04-12T10:01:24Z</time></trkpt><trkpt lat="45.10719911735862" lon="9.993027707454948"><ele>39.0</ele><time>2026-04-12T10:01:25Z</time></trkpt><trkpt lat="45.107317352332686" lon="9.993068803335246"><ele>39.0</ele><time>2026-04-12T10:01:27Z</time></trkpt><trkpt lat="45.10738693380629" lon="9.993052680123045"><ele>39.0</ele><time>2026-04-12T10:01:28Z</time></trkpt><trkpt lat="45.10745747059043" lon="9.993026700025663"><ele>39.0</ele><time>2026-04-12T10:01:29Z</time></trkpt><trkpt lat="45.10752685850107" lon="9.99300674720582"><ele>39.0</ele><time>2026-04-12T10:01:30Z</time></trkpt><trkpt lat="45.1075957125112" lon="9.992984400705147"><ele>39.0</ele><time>2026-04-12T10:01:31Z</time></trkpt><trkpt lat="45.10766606870047" lon="9.992956350250807"><ele>39.0</ele><time>2026-04-12T10:01:32Z</time></trkpt><trkpt lat="45.107738264816106" lon="9.992925851154371"><ele>39.0</ele><time>2026-04-12T10:01:33Z</time></trkpt><trkpt lat="45.107811363584155" lon="9.992897202859382"><ele>39.0</ele><time>2026-04-12T10:01:34Z</time></trkpt><trkpt lat="45.107885963576926" lon="9.992872179958436"><ele>39.0</ele><time>2026-04-12T10:01:35Z</time></trkpt><trkpt lat="45.10796033441414" lon="9.992847791369917"><ele>39.0</ele><time>2026-04-12T10:01:36Z</time></trkpt><trkpt lat="45.10803505985949" lon="9.992821144686276"><ele>39.0</ele><time>2026-04-12T10:01:37Z</time></trkpt><trkpt lat="45.108109619822" lon="9.992799076076908"><ele>39.0</ele><time>2026-04-12T10:01:38Z</time></trkpt><trkpt lat="45.1081837088908" lon="9.992769937443352"><ele>39.0</ele><time>2026-04-12T10:01:39Z</time></trkpt><trkpt lat="45.10825411585007" lon="9.992746374283564"><ele>39.0</ele><time>2026-04-12T10:01:40Z</time></trkpt><trkpt lat="45.10832252723229" lon="9.992721131825403"><ele>39.0</ele><time>2026-04-12T10:01:41Z</time></trkpt><trkpt lat="45.108393218076884" lon="9.992697926732774"><ele>39.0</ele><time>2026-04-12T10:01:42Z</time></trkpt><trkpt lat="45.108461900894774" lon="9.992679455051656"><ele>38.714285714285715</ele><time>2026-04-12T10:01:43Z</time></trkpt><trkpt lat="45.10853149104015" lon="9.992660956844606"><ele>38.42857142857142</ele><time>2026-04-12T10:01:44Z</time></trkpt><trkpt lat="45.10860436623618" lon="9.992637273979428"><ele>38.14285714285714</ele><time>2026-04-12T10:01:45Z</time></trkpt><trkpt lat="45.108676106153865" lon="9.992619339391927"><ele>37.85714285714286</ele><time>2026-04-12T10:01:46Z</time></trkpt><trkpt lat="45.1087526576936" lon="9.992595224994826"><ele>37.57142857142857</ele><time>2026-04-12T10:01:47Z</time></trkpt><trkpt lat="45.108825621997624" lon="9.992572989725435"><ele>37.285714285714285</ele><time>2026-04-12T10:01:48Z</time></trkpt><trkpt lat="45.10890020006096" lon="9.992548655479121"><ele>37.0</ele><time>2026-04-12T10:01:49Z</time></trkpt><trkpt lat="45.1089715084711" lon="9.992521430262524"><ele>36.85714285714286</ele><time>2026-04-12T10:01:50Z</time></trkpt><trkpt lat="45.10903888207749" lon="9.992487826227238"><ele>36.714285714285715</ele><time>2026-04-12T10:01:51Z</time></trkpt><trkpt lat="45.10910779940442" lon="9.992449465299238"><ele>36.57142857142857</ele><time>2026-04-12T10:01:52Z</time></trkpt><trkpt lat="45.1091746631961" lon="9.992407712636597"><ele>36.42857142857143</ele><time>2026-04-12T10:01:53Z</time></trkpt><trkpt lat="45.10923662086649" lon="9.992359932766501"><ele>36.285714285714285</ele><time>2026-04-12T10:01:54Z</time></trkpt><trkpt lat="45.109293756866634" lon="9.992298488365197"><ele>36.142857142857146</ele><time>2026-04-12T10:01:55Z</time></trkpt><trkpt lat="45.10934638742148" lon="9.992231814611046"><ele>36.0</ele><time>2026-04-12T10:01:56Z</time></trkpt><trkpt lat="45.10939259335466" lon="9.992166839092459"><ele>36.0</ele><time>2026-04-12T10:01:57Z</time></trkpt><trkpt lat="45.10947877067948" lon="9.992078102452028"><ele>36.0</ele><time>2026-04-12T10:01:59Z</time></trkpt><trkpt lat="45.10955844309888" lon="9.99202743928625"><ele>36.0</ele><time>2026-04-12T10:02:01Z</time></trkpt><trkpt lat="45.10964171265002" lon="9.99216367412463"><ele>36.0</ele><time>2026-04-12T10:02:02Z</time></trkpt><trkpt lat="45.109689949533596" lon="9.992240787803855"><ele>36.0</ele><time>2026-04-12T10:02:03Z</time></trkpt><trkpt lat="45.10974791609819" lon="9.992304678234099"><ele>36.0</ele><time>2026-04-12T10:02:04Z</time></trkpt><trkpt lat="45.10980789949477" lon="9.992373591371996"><ele>36.0</ele><time>2026-04-12T10:02:05Z</time></trkpt><trkpt lat="45.1098685689673" lon="9.992441576343683"><ele>36.0</ele><time>2026-04-12T10:02:06Z</time></trkpt><trkpt lat="45.10993113615648" lon="9.992509055590835"><ele>36.0</ele><time>2026-04-12T10:02:07Z</time></trkpt><trkpt lat="45.10999168499252" lon="9.992578203023633"><ele>36.0</ele><time>2026-04-12T10:02:08Z</time></trkpt><trkpt lat="45.110051698261266" lon="9.992646368511393"><ele>36.0</ele><time>2026-04-12T10:02:09Z</time></trkpt><trkpt lat="45.11010974777974" lon="9.99270906655751"><ele>36.166666666666664</ele><time>2026-04-12T10:02:10Z</time></trkpt><trkpt lat="45.11017956709194" lon="9.992762806212724"><ele>36.333333333333336</ele><time>2026-04-12T10:02:11Z</time></trkpt><trkpt lat="45.110250067449776" lon="9.992832124863705"><ele>36.5</ele><time>2026-04-12T10:02:12Z</time></trkpt><trkpt lat="45.11032053006194" lon="9.992910708441292"><ele>36.66666666666667</ele><time>2026-04-12T10:02:13Z</time></trkpt><trkpt lat="45.11039245460731" lon="9.992990753096091"><ele>36.833333333333336</ele><time>2026-04-12T10:02:14Z</time></trkpt><trkpt lat="45.11046529196852" lon="9.993071868695571"><ele>37.0</ele><time>2026-04-12T10:02:15Z</time></trkpt><trkpt lat="45.11053903509093" lon="9.993153039292201"><ele>37.0</ele><time>2026-04-12T10:02:16Z</time></trkpt><trkpt lat="45.110614130276396" lon="9.993228650402486"><ele>37.0</ele><time>2026-04-12T10:02:17Z</time></trkpt><trkpt lat="45.11069001558453" lon="9.99330917239127"><ele>37.0</ele><time>2026-04-12T10:02:17.999Z</time></trkpt><trkpt lat="45.11076632110991" lon="9.993390892309602"><ele>37.0</ele><time>2026-04-12T10:02:18.999Z</time></trkpt><trkpt lat="45.1108437292152" lon="9.993474840089934"><ele>37.0</ele><time>2026-04-12T10:02:19.999Z</time></trkpt><trkpt lat="45.1109216687354" lon="9.993562824284153"><ele>37.0</ele><time>2026-04-12T10:02:20.999Z</time></trkpt><trkpt lat="45.1109993034515" lon="9.993649034085221"><ele>37.0</ele><time>2026-04-12T10:02:21.999Z</time></trkpt><trkpt lat="45.11107638228694" lon="9.993736200851684"><ele>37.0</ele><time>2026-04-12T10:02:22.999Z</time></trkpt><trkpt lat="45.11115459573027" lon="9.993824161952915"><ele>37.0</ele><time>2026-04-12T10:02:23.999Z</time></trkpt><trkpt lat="45.111234858628" lon="9.993912326279654"><ele>37.0</ele><time>2026-04-12T10:02:24.999Z</time></trkpt><trkpt lat="45.11131314494804" lon="9.994001355938174"><ele>37.0</ele><time>2026-04-12T10:02:25.999Z</time></trkpt><trkpt lat="45.11139447936224" lon="9.994089213686275"><ele>37.0</ele><time>2026-04-12T10:02:26.999Z</time></trkpt><trkpt lat="45.111473939842085" lon="9.994178331263456"><ele>37.0</ele><time>2026-04-12T10:02:27.999Z</time></trkpt><trkpt lat="45.11155565056481" lon="9.994264719306663"><ele>37.0</ele><time>2026-04-12T10:02:28.999Z</time></trkpt><trkpt lat="45.11164135623472" lon="9.994346242174393"><ele>37.0</ele><time>2026-04-12T10:02:29.999Z</time></trkpt><trkpt lat="45.11172625466293" lon="9.994430577645426"><ele>37.4</ele><time>2026-04-12T10:02:30.999Z</time></trkpt><trkpt lat="45.11181354072062" lon="9.994510925719258"><ele>37.800000000000004</ele><time>2026-04-12T10:02:31.999Z</time></trkpt><trkpt lat="45.11190513945695" lon="9.994588220148662"><ele>38.2</ele><time>2026-04-12T10:02:32.999Z</time></trkpt><trkpt lat="45.111997549733374" lon="9.994656276102576"><ele>38.6</ele><time>2026-04-12T10:02:33.999Z</time></trkpt><trkpt lat="45.112098856780065" lon="9.994707642973465"><ele>39.0</ele><time>2026-04-12T10:02:34.999Z</time></trkpt><trkpt lat="45.112205634794776" lon="9.994737174846195"><ele>39.0</ele><time>2026-04-12T10:02:35.999Z</time></trkpt><trkpt lat="45.11231267650276" lon="9.994744812666523"><ele>39.0</ele><time>2026-04-12T10:02:36.999Z</time></trkpt><trkpt lat="45.11242269340527" lon="9.994730259714588"><ele>39.0</ele><time>2026-04-12T10:02:37.999Z</time></trkpt><trkpt lat="45.11252861793132" lon="9.99468961681674"><ele>39.0</ele><time>2026-04-12T10:02:38.999Z</time></trkpt><trkpt lat="45.1126283895859" lon="9.994633431298512"><ele>39.0</ele><time>2026-04-12T10:02:39.999Z</time></trkpt><trkpt lat="45.11272159627439" lon="9.994569052108362"><ele>39.2</ele><time>2026-04-12T10:02:40.999Z</time></trkpt><trkpt lat="45.11281245917713" lon="9.994504600869579"><ele>39.4</ele><time>2026-04-12T10:02:41.999Z</time></trkpt><trkpt lat="45.11290269533356" lon="9.994446650799938"><ele>39.6</ele><time>2026-04-12T10:02:42.999Z</time></trkpt><trkpt lat="45.11299474298092" lon="9.994397915049573"><ele>39.8</ele><time>2026-04-12T10:02:43.999Z</time></trkpt><trkpt lat="45.1130853635881" lon="9.994348009029887"><ele>40.0</ele><time>2026-04-12T10:02:44.999Z</time></trkpt><trkpt lat="45.113174603076246" lon="9.994292915827092"><ele>40.0</ele><time>2026-04-12T10:02:45.999Z</time></trkpt><trkpt lat="45.113263958968055" lon="9.994236607628089"><ele>40.0</ele><time>2026-04-12T10:02:46.999Z</time></trkpt><trkpt lat="45.11335415526026" lon="9.994182290643593"><ele>40.0</ele><time>2026-04-12T10:02:47.999Z</time></trkpt><trkpt lat="45.113441804529735" lon="9.994125251973859"><ele>40.0</ele><time>2026-04-12T10:02:48.999Z</time></trkpt><trkpt lat="45.11352959306545" lon="9.994066842355748"><ele>40.0</ele><time>2026-04-12T10:02:49.999Z</time></trkpt><trkpt lat="45.11361818303503" lon="9.994013306552898"><ele>39.8</ele><time>2026-04-12T10:02:50.999Z</time></trkpt><trkpt lat="45.113708904088604" lon="9.993963837156977"><ele>39.6</ele><time>2026-04-12T10:02:51.999Z</time></trkpt><trkpt lat="45.113798214941966" lon="9.993909751231397"><ele>39.4</ele><time>2026-04-12T10:02:52.999Z</time></trkpt><trkpt lat="45.11388653881468" lon="9.99385824501371"><ele>39.2</ele><time>2026-04-12T10:02:53.999Z</time></trkpt><trkpt lat="45.1139723082493" lon="9.993805687913397"><ele>39.0</ele><time>2026-04-12T10:02:54.999Z</time></trkpt><trkpt lat="45.11405775852075" lon="9.993756721550671"><ele>39.0</ele><time>2026-04-12T10:02:55.999Z</time></trkpt><trkpt lat="45.11414379450573" lon="9.993707137300587"><ele>39.0</ele><time>2026-04-12T10:02:56.999Z</time></trkpt><trkpt lat="45.114233625355574" lon="9.993652110973787"><ele>39.0</ele><time>2026-04-12T10:02:57.999Z</time></trkpt><trkpt lat="45.11432306552199" lon="9.99360027157716"><ele>39.0</ele><time>2026-04-12T10:02:58.999Z</time></trkpt><trkpt lat="45.11441255195809" lon="9.993547353593376"><ele>39.0</ele><time>2026-04-12T10:02:59.999Z</time></trkpt><trkpt lat="45.11450229390422" lon="9.993491089955594"><ele>39.0</ele><time>2026-04-12T10:03:00.999Z</time></trkpt><trkpt lat="45.11459271694314" lon="9.993436176557292"><ele>39.0</ele><time>2026-04-12T10:03:01.999Z</time></trkpt><trkpt lat="45.114684104868985" lon="9.993383942044353"><ele>39.0</ele><time>2026-04-12T10:03:02.999Z</time></trkpt><trkpt lat="45.1147753003725" lon="9.993331261129452"><ele>39.0</ele><time>2026-04-12T10:03:03.999Z</time></trkpt><trkpt lat="45.11486170223065" lon="9.99327730398359"><ele>39.0</ele><time>2026-04-12T10:03:04.999Z</time></trkpt><trkpt lat="45.11495133323443" lon="9.993220820587846"><ele>39.2</ele><time>2026-04-12T10:03:05.999Z</time></trkpt><trkpt lat="45.11503996831714" lon="9.993167127820083"><ele>39.4</ele><time>2026-04-12T10:03:06.999Z</time></trkpt><trkpt lat="45.115127168561116" lon="9.99311208369128"><ele>39.6</ele><time>2026-04-12T10:03:07.999Z</time></trkpt><trkpt lat="45.11521397541657" lon="9.993058913344338"><ele>39.8</ele><time>2026-04-12T10:03:08.999Z</time></trkpt><trkpt lat="45.115301735392514" lon="9.993002559681639"><ele>40.0</ele><time>2026-04-12T10:03:09.998Z</time></trkpt><trkpt lat="45.11538827307434" lon="9.992950299539345"><ele>40.0</ele><time>2026-04-12T10:03:10.998Z</time></trkpt><trkpt lat="45.115475410037114" lon="9.992902142467596"><ele>40.0</ele><time>2026-04-12T10:03:11.998Z</time></trkpt><trkpt lat="45.11556018523603" lon="9.992856555517392"><ele>40.0</ele><time>2026-04-12T10:03:12.998Z</time></trkpt><trkpt lat="45.11564436012005" lon="9.992802108779246"><ele>40.0</ele><time>2026-04-12T10:03:13.998Z</time></trkpt><trkpt lat="45.115731700768386" lon="9.992749852466279"><ele>40.0</ele><time>2026-04-12T10:03:14.998Z</time></trkpt><trkpt lat="45.11581949469571" lon="9.992700393554408"><ele>39.8</ele><time>2026-04-12T10:03:15.998Z</time></trkpt><trkpt lat="45.11590534882826" lon="9.99265297321745"><ele>39.6</ele><time>2026-04-12T10:03:16.998Z</time></trkpt><trkpt lat="45.11598869165596" lon="9.992602851268767"><ele>39.4</ele><time>2026-04-12T10:03:17.998Z</time></trkpt><trkpt lat="45.11607196115111" lon="9.992551651246766"><ele>39.2</ele><time>2026-04-12T10:03:18.998Z</time></trkpt><trkpt lat="45.11615521934654" lon="9.992494842596736"><ele>39.0</ele><time>2026-04-12T10:03:20Z</time></trkpt><trkpt lat="45.11623945218613" lon="9.992443867624274"><ele>39.0</ele><time>2026-04-12T10:03:21Z</time></trkpt><trkpt lat="45.11632784082952" lon="9.992396415640885"><ele>39.0</ele><time>2026-04-12T10:03:22Z</time></trkpt><trkpt lat="45.11641497107593" lon="9.992350032481994"><ele>39.0</ele><time>2026-04-12T10:03:23Z</time></trkpt><trkpt lat="45.11650158646005" lon="9.992298768024895"><ele>39.0</ele><time>2026-04-12T10:03:24Z</time></trkpt><trkpt lat="45.116590958364114" lon="9.992243331251048"><ele>39.0</ele><time>2026-04-12T10:03:25Z</time></trkpt><trkpt lat="45.11667937647359" lon="9.992187673811603"><ele>39.0</ele><time>2026-04-12T10:03:26Z</time></trkpt><trkpt lat="45.11676925124592" lon="9.99213213464611"><ele>39.0</ele><time>2026-04-12T10:03:27Z</time></trkpt><trkpt lat="45.11685792885591" lon="9.992080798621458"><ele>39.0</ele><time>2026-04-12T10:03:28Z</time></trkpt><trkpt lat="45.1169474857283" lon="9.992028558877596"><ele>39.0</ele><time>2026-04-12T10:03:29Z</time></trkpt><trkpt lat="45.117033436612815" lon="9.991975993834313"><ele>39.0</ele><time>2026-04-12T10:03:30Z</time></trkpt><trkpt lat="45.117120760424136" lon="9.991925027527914"><ele>39.0</ele><time>2026-04-12T10:03:31Z</time></trkpt><trkpt lat="45.117206405120434" lon="9.991875402238662"><ele>39.0</ele><time>2026-04-12T10:03:32Z</time></trkpt><trkpt lat="45.1172917715169" lon="9.991824203729834"><ele>39.0</ele><time>2026-04-12T10:03:33Z</time></trkpt><trkpt lat="45.11737786889955" lon="9.991772995175173"><ele>39.0</ele><time>2026-04-12T10:03:34Z</time></trkpt><trkpt lat="45.11746059745912" lon="9.991720967947973"><ele>39.0</ele><time>2026-04-12T10:03:35Z</time></trkpt><trkpt lat="45.117544453966" lon="9.991668700650276"><ele>39.0</ele><time>2026-04-12T10:03:36Z</time></trkpt><trkpt lat="45.11762983871586" lon="9.991620495512633"><ele>39.0</ele><time>2026-04-12T10:03:37Z</time></trkpt><trkpt lat="45.11771722819589" lon="9.991568809285605"><ele>39.0</ele><time>2026-04-12T10:03:38Z</time></trkpt><trkpt lat="45.11780402409655" lon="9.991517897869954"><ele>39.0</ele><time>2026-04-12T10:03:39Z</time></trkpt><trkpt lat="45.11788970496877" lon="9.991462417625474"><ele>39.0</ele><time>2026-04-12T10:03:40Z</time></trkpt><trkpt lat="45.11797614043454" lon="9.9914077873139"><ele>39.0</ele><time>2026-04-12T10:03:41Z</time></trkpt><trkpt lat="45.11806419107441" lon="9.991354035984841"><ele>39.0</ele><time>2026-04-12T10:03:42Z</time></trkpt><trkpt lat="45.11815225075107" lon="9.99130185775513"><ele>39.0</ele><time>2026-04-12T10:03:43Z</time></trkpt><trkpt lat="45.118236642686036" lon="9.99124651747338"><ele>39.0</ele><time>2026-04-12T10:03:44Z</time></trkpt><trkpt lat="45.118323652711744" lon="9.991192134627163"><ele>39.0</ele><time>2026-04-12T10:03:45Z</time></trkpt><trkpt lat="45.11841005284602" lon="9.991140962143145"><ele>38.0</ele><time>2026-04-12T10:03:46Z</time></trkpt><trkpt lat="45.11849765328241" lon="9.991091809579776"><ele>37.0</ele><time>2026-04-12T10:03:47Z</time></trkpt><trkpt lat="45.118582803494355" lon="9.991042500924543"><ele>36.0</ele><time>2026-04-12T10:03:48Z</time></trkpt><trkpt lat="45.11866702392734" lon="9.990991625280964"><ele>35.0</ele><time>2026-04-12T10:03:49Z</time></trkpt><trkpt lat="45.11874935832515" lon="9.99093951760952"><ele>34.0</ele><time>2026-04-12T10:03:50Z</time></trkpt><trkpt lat="45.1188284892987" lon="9.990886714493827"><ele>34.4</ele><time>2026-04-12T10:03:51Z</time></trkpt><trkpt lat="45.11890846780151" lon="9.990836330002443"><ele>34.8</ele><time>2026-04-12T10:03:52Z</time></trkpt><trkpt lat="45.11899178639849" lon="9.990787394848326"><ele>35.2</ele><time>2026-04-12T10:03:53Z</time></trkpt><trkpt lat="45.11907594601815" lon="9.99073657222091"><ele>35.6</ele><time>2026-04-12T10:03:54Z</time></trkpt><trkpt lat="45.11915943976882" lon="9.990685493656363"><ele>36.0</ele><time>2026-04-12T10:03:55Z</time></trkpt><trkpt lat="45.11924246216976" lon="9.990636737153878"><ele>36.0</ele><time>2026-04-12T10:03:56Z</time></trkpt><trkpt lat="45.11932355099845" lon="9.990588061617572"><ele>36.0</ele><time>2026-04-12T10:03:57Z</time></trkpt><trkpt lat="45.1194004824596" lon="9.990538390327362"><ele>36.0</ele><time>2026-04-12T10:03:58Z</time></trkpt><trkpt lat="45.119478051916346" lon="9.990491174917663"><ele>36.0</ele><time>2026-04-12T10:03:59Z</time></trkpt><trkpt lat="45.11955275684278" lon="9.990445364085847"><ele>36.0</ele><time>2026-04-12T10:04:00Z</time></trkpt><trkpt lat="45.119626144576145" lon="9.990401036027903"><ele>36.0</ele><time>2026-04-12T10:04:01Z</time></trkpt><trkpt lat="45.11969949887013" lon="9.990357997146628"><ele>36.0</ele><time>2026-04-12T10:04:02Z</time></trkpt><trkpt lat="45.119771633915406" lon="9.9903192373131"><ele>36.0</ele><time>2026-04-12T10:04:03Z</time></trkpt><trkpt lat="45.11984229562667" lon="9.990276104029594"><ele>36.0</ele><time>2026-04-12T10:04:04Z</time></trkpt><trkpt lat="45.119912561177756" lon="9.990232845112125"><ele>36.0</ele><time>2026-04-12T10:04:05Z</time></trkpt><trkpt lat="45.1199823044321" lon="9.990189858529959"><ele>36.0</ele><time>2026-04-12T10:04:06Z</time></trkpt><trkpt lat="45.12005223493778" lon="9.99014807639616"><ele>36.0</ele><time>2026-04-12T10:04:07Z</time></trkpt><trkpt lat="45.12011835261666" lon="9.990107430012074"><ele>36.5</ele><time>2026-04-12T10:04:08Z</time></trkpt><trkpt lat="45.120183071707196" lon="9.990069056609823"><ele>37.0</ele><time>2026-04-12T10:04:09Z</time></trkpt><trkpt lat="45.120246053940114" lon="9.990029885558924"><ele>37.5</ele><time>2026-04-12T10:04:10Z</time></trkpt><trkpt lat="45.120308434209555" lon="9.989993607835801"><ele>38.0</ele><time>2026-04-12T10:04:11Z</time></trkpt><trkpt lat="45.12041957789474" lon="9.989916834473826"><ele>38.5</ele><time>2026-04-12T10:04:13Z</time></trkpt><trkpt lat="45.1205219903508" lon="9.989854837123826"><ele>39.0</ele><time>2026-04-12T10:04:15Z</time></trkpt><trkpt lat="45.12061416573108" lon="9.989802686954732"><ele>39.0</ele><time>2026-04-12T10:04:17Z</time></trkpt><trkpt lat="45.12069977407233" lon="9.989752590980471"><ele>39.0</ele><time>2026-04-12T10:04:19Z</time></trkpt><trkpt lat="45.120781208621565" lon="9.989709727809446"><ele>39.0</ele><time>2026-04-12T10:04:21Z</time></trkpt><trkpt lat="45.12085614685949" lon="9.989669712148865"><ele>39.0</ele><time>2026-04-12T10:04:22.999Z</time></trkpt><trkpt lat="45.12092111964717" lon="9.989652305763776"><ele>39.0</ele><time>2026-04-12T10:04:24.999Z</time></trkpt><trkpt lat="45.12098185013303" lon="9.989622919451108"><ele>39.0</ele><time>2026-04-12T10:04:26.999Z</time></trkpt><trkpt lat="45.12106330700132" lon="9.989574648895191"><ele>38.25</ele><time>2026-04-12T10:04:28.999Z</time></trkpt><trkpt lat="45.121163502329814" lon="9.98953303669525"><ele>37.5</ele><time>2026-04-12T10:04:30.999Z</time></trkpt><trkpt lat="45.121262988626874" lon="9.989466390307053"><ele>36.75</ele><time>2026-04-12T10:04:32.999Z</time></trkpt><trkpt lat="45.12137242137256" lon="9.989398280424869"><ele>36.0</ele><time>2026-04-12T10:04:34.999Z</time></trkpt><trkpt lat="45.12148404013371" lon="9.989329522876854"><ele>36.2</ele><time>2026-04-12T10:04:36.999Z</time></trkpt><trkpt lat="45.12159371545603" lon="9.989282248737668"><ele>36.400000000000006</ele><time>2026-04-12T10:04:38.999Z</time></trkpt><trkpt lat="45.12169911839515" lon="9.98926943448757"><ele>36.6</ele><time>2026-04-12T10:04:40.999Z</time></trkpt><trkpt lat="45.12181163028395" lon="9.989279520792902"><ele>36.800000000000004</ele><time>2026-04-12T10:04:42.999Z</time></trkpt><trkpt lat="45.12192359757646" lon="9.989309783858971"><ele>37.0</ele><time>2026-04-12T10:04:44.999Z</time></trkpt><trkpt lat="45.122024941705284" lon="9.989368161531607"><ele>37.0</ele><time>2026-04-12T10:04:46.999Z</time></trkpt><trkpt lat="45.12211987090067" lon="9.989420970435448"><ele>37.0</ele><time>2026-04-12T10:04:48.999Z</time></trkpt><trkpt lat="45.12220413728636" lon="9.989481204847667"><ele>37.0</ele><time>2026-04-12T10:04:50.999Z</time></trkpt><trkpt lat="45.12228950456171" lon="9.989563427704311"><ele>37.0</ele><time>2026-04-12T10:04:52.999Z</time></trkpt><trkpt lat="45.122383260908926" lon="9.989657030295493"><ele>37.0</ele><time>2026-04-12T10:04:54.999Z</time></trkpt><trkpt lat="45.122486570345735" lon="9.989747656894965"><ele>37.142857142857146</ele><time>2026-04-12T10:04:56.999Z</time></trkpt><trkpt lat="45.122542423486365" lon="9.989793830302009"><ele>37.285714285714285</ele><time>2026-04-12T10:04:57.999Z</time></trkpt><trkpt lat="45.12259885709872" lon="9.989844854891915"><ele>37.42857142857143</ele><time>2026-04-12T10:04:58.999Z</time></trkpt><trkpt lat="45.12265743454723" lon="9.989897043373894"><ele>37.57142857142857</ele><time>2026-04-12T10:04:59.999Z</time></trkpt><trkpt lat="45.1227181423046" lon="9.989950720630345"><ele>37.714285714285715</ele><time>2026-04-12T10:05:00.999Z</time></trkpt><trkpt lat="45.12278003324038" lon="9.990001812949641"><ele>37.857142857142854</ele><time>2026-04-12T10:05:01.999Z</time></trkpt><trkpt lat="45.122844617254806" lon="9.990055935682037"><ele>38.0</ele><time>2026-04-12T10:05:02.999Z</time></trkpt><trkpt lat="45.12290945969636" lon="9.9901133029762"><ele>38.0</ele><time>2026-04-12T10:05:03.999Z</time></trkpt><trkpt lat="45.12297459397505" lon="9.990170119063933"><ele>38.0</ele><time>2026-04-12T10:05:04.999Z</time></trkpt><trkpt lat="45.12304077417638" lon="9.990227695536628"><ele>38.0</ele><time>2026-04-12T10:05:05.999Z</time></trkpt><trkpt lat="45.12310688543475" lon="9.990284497834649"><ele>38.0</ele><time>2026-04-12T10:05:06.999Z</time></trkpt><trkpt lat="45.123172930422314" lon="9.990340895680648"><ele>38.0</ele><time>2026-04-12T10:05:07.999Z</time></trkpt><trkpt lat="45.12323819442331" lon="9.990398082045202"><ele>38.0</ele><time>2026-04-12T10:05:08.999Z</time></trkpt><trkpt lat="45.12330399819689" lon="9.99045357927683"><ele>38.33333333333333</ele><time>2026-04-12T10:05:09.999Z</time></trkpt><trkpt lat="45.12337072828159" lon="9.990511027066175"><ele>38.666666666666664</ele><time>2026-04-12T10:05:10.999Z</time></trkpt><trkpt lat="45.12343706377707" lon="9.990569414995694"><ele>39.0</ele><time>2026-04-12T10:05:11.999Z</time></trkpt><trkpt lat="45.123503925627816" lon="9.99062740204411"><ele>39.333333333333336</ele><time>2026-04-12T10:05:12.999Z</time></trkpt><trkpt lat="45.123571797735046" lon="9.990685252195286"><ele>39.66666666666667</ele><time>2026-04-12T10:05:13.998Z</time></trkpt><trkpt lat="45.12363879292286" lon="9.990742907031501"><ele>40.0</ele><time>2026-04-12T10:05:14.998Z</time></trkpt><trkpt lat="45.12370554904616" lon="9.990801174097165"><ele>39.833333333333336</ele><time>2026-04-12T10:05:15.998Z</time></trkpt><trkpt lat="45.1237715554963" lon="9.990861511462983"><ele>39.66666666666667</ele><time>2026-04-12T10:05:16.998Z</time></trkpt><trkpt lat="45.12383706162974" lon="9.99092054511538"><ele>39.5</ele><time>2026-04-12T10:05:17.998Z</time></trkpt><trkpt lat="45.123903639802904" lon="9.990979467413322"><ele>39.333333333333336</ele><time>2026-04-12T10:05:18.998Z</time></trkpt><trkpt lat="45.123969408032536" lon="9.991037910694361"><ele>39.166666666666664</ele><time>2026-04-12T10:05:19.998Z</time></trkpt><trkpt lat="45.12403529472329" lon="9.991094828031933"><ele>39.0</ele><time>2026-04-12T10:05:20.998Z</time></trkpt><trkpt lat="45.124100353594784" lon="9.991150920761376"><ele>39.0</ele><time>2026-04-12T10:05:21.998Z</time></trkpt><trkpt lat="45.12416486442738" lon="9.99120908208891"><ele>39.0</ele><time>2026-04-12T10:05:22.998Z</time></trkpt><trkpt lat="45.124230321396176" lon="9.991263717717091"><ele>39.0</ele><time>2026-04-12T10:05:23.998Z</time></trkpt><trkpt lat="45.124291957167166" lon="9.991322099142058"><ele>39.0</ele><time>2026-04-12T10:05:24.998Z</time></trkpt><trkpt lat="45.12435374001627" lon="9.991382065224473"><ele>39.0</ele><time>2026-04-12T10:05:26Z</time></trkpt><trkpt lat="45.12441617201817" lon="9.9914352012467"><ele>39.0</ele><time>2026-04-12T10:05:27Z</time></trkpt><trkpt lat="45.124478454290774" lon="9.991485437500247"><ele>39.0</ele><time>2026-04-12T10:05:28Z</time></trkpt><trkpt lat="45.124536863364824" lon="9.991536391270841"><ele>39.0</ele><time>2026-04-12T10:05:29Z</time></trkpt><trkpt lat="45.12459592650777" lon="9.991585559880175"><ele>39.0</ele><time>2026-04-12T10:05:30Z</time></trkpt><trkpt lat="45.12465125047197" lon="9.991635417248762"><ele>39.0</ele><time>2026-04-12T10:05:31Z</time></trkpt><trkpt lat="45.12470806821678" lon="9.99168509255298"><ele>39.0</ele><time>2026-04-12T10:05:32Z</time></trkpt><trkpt lat="45.12476653802397" lon="9.991734360154515"><ele>39.0</ele><time>2026-04-12T10:05:33Z</time></trkpt><trkpt lat="45.12482556376969" lon="9.991783368218137"><ele>39.0</ele><time>2026-04-12T10:05:34Z</time></trkpt><trkpt lat="45.124885110790665" lon="9.991835922398073"><ele>39.0</ele><time>2026-04-12T10:05:35Z</time></trkpt><trkpt lat="45.124944607838074" lon="9.991889882477214"><ele>39.285714285714285</ele><time>2026-04-12T10:05:36Z</time></trkpt><trkpt lat="45.12500659282734" lon="9.991940933549074"><ele>39.57142857142857</ele><time>2026-04-12T10:05:37Z</time></trkpt><trkpt lat="45.12506831524483" lon="9.991992958330673"><ele>39.857142857142854</ele><time>2026-04-12T10:05:38Z</time></trkpt><trkpt lat="45.12513027347524" lon="9.992043184670639"><ele>40.14285714285714</ele><time>2026-04-12T10:05:39Z</time></trkpt><trkpt lat="45.12519124017894" lon="9.992097127953025"><ele>40.42857142857143</ele><time>2026-04-12T10:05:40Z</time></trkpt><trkpt lat="45.12525376256969" lon="9.99215077149571"><ele>40.71428571428571</ele><time>2026-04-12T10:05:41Z</time></trkpt><trkpt lat="45.12531497563131" lon="9.992203361884277"><ele>41.0</ele><time>2026-04-12T10:05:42Z</time></trkpt><trkpt lat="45.12537682303967" lon="9.992256860207544"><ele>40.99999999999999</ele><time>2026-04-12T10:05:43Z</time></trkpt><trkpt lat="45.125438463831024" lon="9.992308841077492"><ele>41.0</ele><time>2026-04-12T10:05:44Z</time></trkpt><trkpt lat="45.12549971379591" lon="9.992362613569655"><ele>41.0</ele><time>2026-04-12T10:05:45Z</time></trkpt><trkpt lat="45.125560287663134" lon="9.992417265713328"><ele>41.0</ele><time>2026-04-12T10:05:46Z</time></trkpt><trkpt lat="45.125621185402714" lon="9.992472137198863"><ele>41.0</ele><time>2026-04-12T10:05:47Z</time></trkpt><trkpt lat="45.12568271251112" lon="9.992522888253408"><ele>40.99999999999999</ele><time>2026-04-12T10:05:48Z</time></trkpt><trkpt lat="45.12574339271247" lon="9.99257323780833"><ele>41.0</ele><time>2026-04-12T10:05:49Z</time></trkpt><trkpt lat="45.12580155223281" lon="9.992625867298436"><ele>40.666666666666664</ele><time>2026-04-12T10:05:50Z</time></trkpt><trkpt lat="45.12585849502272" lon="9.99267640840157"><ele>40.33333333333333</ele><time>2026-04-12T10:05:51Z</time></trkpt><trkpt lat="45.12591382636212" lon="9.992722672059756"><ele>40.0</ele><time>2026-04-12T10:05:52Z</time></trkpt><trkpt lat="45.126018851030985" lon="9.992816453985258"><ele>39.666666666666664</ele><time>2026-04-12T10:05:54Z</time></trkpt><trkpt lat="45.12607511695705" lon="9.99286220478019"><ele>39.333333333333336</ele><time>2026-04-12T10:05:55Z</time></trkpt><trkpt lat="45.12613294727618" lon="9.992909785576025"><ele>39.0</ele><time>2026-04-12T10:05:56Z</time></trkpt><trkpt lat="45.126190532368405" lon="9.992959861231956"><ele>39.0</ele><time>2026-04-12T10:05:57Z</time></trkpt><trkpt lat="45.12624731232123" lon="9.993008696478974"><ele>39.0</ele><time>2026-04-12T10:05:58Z</time></trkpt><trkpt lat="45.126305868327464" lon="9.993059390425207"><ele>39.0</ele><time>2026-04-12T10:05:59Z</time></trkpt><trkpt lat="45.12636475536808" lon="9.99310915176503"><ele>39.0</ele><time>2026-04-12T10:06:00Z</time></trkpt><trkpt lat="45.1264258677756" lon="9.993155410740878"><ele>39.0</ele><time>2026-04-12T10:06:01Z</time></trkpt><trkpt lat="45.12648676794331" lon="9.993201841146577"><ele>39.0</ele><time>2026-04-12T10:06:02Z</time></trkpt><trkpt lat="45.12654470780162" lon="9.993253541232853"><ele>39.0</ele><time>2026-04-12T10:06:03Z</time></trkpt><trkpt lat="45.12660143436052" lon="9.99330407443707"><ele>38.666666666666664</ele><time>2026-04-12T10:06:04Z</time></trkpt><trkpt lat="45.12665678493619" lon="9.993354494229152"><ele>38.333333333333336</ele><time>2026-04-12T10:06:05Z</time></trkpt><trkpt lat="45.12671050911739" lon="9.993401585513851"><ele>38.0</ele><time>2026-04-12T10:06:06Z</time></trkpt><trkpt lat="45.12678490381277" lon="9.993470682735643"><ele>37.66666666666667</ele><time>2026-04-12T10:06:08Z</time></trkpt><trkpt lat="45.12685716485713" lon="9.993531442625523"><ele>37.333333333333336</ele><time>2026-04-12T10:06:10Z</time></trkpt><trkpt lat="45.12693805120355" lon="9.993597067475026"><ele>37.0</ele><time>2026-04-12T10:06:12Z</time></trkpt><trkpt lat="45.127026540307455" lon="9.993670117275354"><ele>37.0</ele><time>2026-04-12T10:06:14Z</time></trkpt><trkpt lat="45.12712405515634" lon="9.993748328713927"><ele>37.0</ele><time>2026-04-12T10:06:16Z</time></trkpt><trkpt lat="45.12722638977519" lon="9.993834925020087"><ele>37.0</ele><time>2026-04-12T10:06:18Z</time></trkpt><trkpt lat="45.12733383752736" lon="9.993926316738348"><ele>37.0</ele><time>2026-04-12T10:06:20Z</time></trkpt><trkpt lat="45.12738928107325" lon="9.993973487991473"><ele>37.0</ele><time>2026-04-12T10:06:21Z</time></trkpt><trkpt lat="45.127443659719184" lon="9.994020537620521"><ele>35.714285714285715</ele><time>2026-04-12T10:06:22Z</time></trkpt><trkpt lat="45.12750162137007" lon="9.994069878000731"><ele>34.42857142857143</ele><time>2026-04-12T10:06:23Z</time></trkpt><trkpt lat="45.12755822547766" lon="9.994122242630866"><ele>33.14285714285714</ele><time>2026-04-12T10:06:24Z</time></trkpt><trkpt lat="45.12761856435835" lon="9.994174143018626"><ele>31.857142857142858</ele><time>2026-04-12T10:06:25Z</time></trkpt><trkpt lat="45.12767821397976" lon="9.994226418281055"><ele>30.57142857142857</ele><time>2026-04-12T10:06:25.999Z</time></trkpt><trkpt lat="45.12773694088543" lon="9.994277922693632"><ele>29.285714285714285</ele><time>2026-04-12T10:06:26.999Z</time></trkpt><trkpt lat="45.127797852534044" lon="9.994329555965596"><ele>28.0</ele><time>2026-04-12T10:06:27.999Z</time></trkpt><trkpt lat="45.12785907480005" lon="9.994379209124501"><ele>28.0</ele><time>2026-04-12T10:06:28.999Z</time></trkpt><trkpt lat="45.127920254768036" lon="9.994431415674542"><ele>28.0</ele><time>2026-04-12T10:06:29.999Z</time></trkpt><trkpt lat="45.12798206532727" lon="9.994483140802448"><ele>28.0</ele><time>2026-04-12T10:06:30.999Z</time></trkpt><trkpt lat="45.12804341057134" lon="9.994532937216844"><ele>28.0</ele><time>2026-04-12T10:06:31.999Z</time></trkpt><trkpt lat="45.12810455328631" lon="9.994583967542729"><ele>28.0</ele><time>2026-04-12T10:06:32.999Z</time></trkpt><trkpt lat="45.128164303249704" lon="9.994636068538071"><ele>28.0</ele><time>2026-04-12T10:06:33.999Z</time></trkpt><trkpt lat="45.128224825040675" lon="9.994686560682947"><ele>28.0</ele><time>2026-04-12T10:06:34.999Z</time></trkpt><trkpt lat="45.12828476280736" lon="9.994739813811096"><ele>28.0</ele><time>2026-04-12T10:06:35.999Z</time></trkpt><trkpt lat="45.128342235228715" lon="9.99479506344696"><ele>28.0</ele><time>2026-04-12T10:06:36.999Z</time></trkpt><trkpt lat="45.128399233412544" lon="9.994849727778726"><ele>28.0</ele><time>2026-04-12T10:06:37.999Z</time></trkpt><trkpt lat="45.128456188413274" lon="9.994900307411985"><ele>28.0</ele><time>2026-04-12T10:06:38.999Z</time></trkpt><trkpt lat="45.12851485771261" lon="9.994948999602002"><ele>28.0</ele><time>2026-04-12T10:06:39.999Z</time></trkpt><trkpt lat="45.12857556622176" lon="9.994996130522987"><ele>28.0</ele><time>2026-04-12T10:06:40.999Z</time></trkpt><trkpt lat="45.12863351969654" lon="9.995047850845546"><ele>28.0</ele><time>2026-04-12T10:06:41.999Z</time></trkpt><trkpt lat="45.12869203891311" lon="9.995096097417724"><ele>28.714285714285715</ele><time>2026-04-12T10:06:42.999Z</time></trkpt><trkpt lat="45.12874997044041" lon="9.995146745741504"><ele>29.42857142857143</ele><time>2026-04-12T10:06:43.999Z</time></trkpt><trkpt lat="45.12880838546047" lon="9.995194507698228"><ele>30.142857142857142</ele><time>2026-04-12T10:06:44.999Z</time></trkpt><trkpt lat="45.1288654303292" lon="9.995244697108092"><ele>30.857142857142858</ele><time>2026-04-12T10:06:45.999Z</time></trkpt><trkpt lat="45.128922682668325" lon="9.995293822090765"><ele>31.571428571428573</ele><time>2026-04-12T10:06:46.999Z</time></trkpt><trkpt lat="45.12897812923655" lon="9.995340974605101"><ele>32.285714285714285</ele><time>2026-04-12T10:06:47.999Z</time></trkpt><trkpt lat="45.1290348639886" lon="9.995388872273288"><ele>33.0</ele><time>2026-04-12T10:06:48.999Z</time></trkpt><trkpt lat="45.129091221196575" lon="9.995436715144464"><ele>33.285714285714285</ele><time>2026-04-12T10:06:49.999Z</time></trkpt><trkpt lat="45.12914643238001" lon="9.99548479785483"><ele>33.57142857142857</ele><time>2026-04-12T10:06:50.999Z</time></trkpt><trkpt lat="45.12920399314117" lon="9.995532873178384"><ele>33.85714285714286</ele><time>2026-04-12T10:06:51.999Z</time></trkpt><trkpt lat="45.12926287933033" lon="9.995578973492465"><ele>34.14285714285714</ele><time>2026-04-12T10:06:52.999Z</time></trkpt><trkpt lat="45.12932012200105" lon="9.995630005608641"><ele>34.42857142857143</ele><time>2026-04-12T10:06:53.999Z</time></trkpt><trkpt lat="45.12937608876628" lon="9.995681621228346"><ele>34.714285714285715</ele><time>2026-04-12T10:06:54.999Z</time></trkpt><trkpt lat="45.12943288701236" lon="9.995731441886303"><ele>35.0</ele><time>2026-04-12T10:06:55.999Z</time></trkpt><trkpt lat="45.12948921295295" lon="9.995779378040933"><ele>35.0</ele><time>2026-04-12T10:06:56.999Z</time></trkpt><trkpt lat="45.129546191155185" lon="9.995827009303472"><ele>35.0</ele><time>2026-04-12T10:06:57.999Z</time></trkpt><trkpt lat="45.12960258508326" lon="9.99587480072214"><ele>35.0</ele><time>2026-04-12T10:06:58.999Z</time></trkpt><trkpt lat="45.12965918780003" lon="9.9959179341417"><ele>35.0</ele><time>2026-04-12T10:06:59.999Z</time></trkpt><trkpt lat="45.129763718697" lon="9.99600767503194"><ele>35.0</ele><time>2026-04-12T10:07:01.999Z</time></trkpt><trkpt lat="45.12984808707118" lon="9.996145489739831"><ele>35.0</ele><time>2026-04-12T10:07:03.999Z</time></trkpt><trkpt lat="45.12988220044937" lon="9.996229949576794"><ele>35.42857142857143</ele><time>2026-04-12T10:07:04.999Z</time></trkpt><trkpt lat="45.12991742373401" lon="9.996315551069666"><ele>35.85714285714286</ele><time>2026-04-12T10:07:05.999Z</time></trkpt><trkpt lat="45.12994756686107" lon="9.996405092371777"><ele>36.285714285714285</ele><time>2026-04-12T10:07:06.999Z</time></trkpt><trkpt lat="45.1299713568756" lon="9.996500464136007"><ele>36.714285714285715</ele><time>2026-04-12T10:07:07.999Z</time></trkpt><trkpt lat="45.12998524645622" lon="9.996600529820517"><ele>37.142857142857146</ele><time>2026-04-12T10:07:08.999Z</time></trkpt><trkpt lat="45.12999542089331" lon="9.996702469731092"><ele>37.57142857142857</ele><time>2026-04-12T10:07:09.999Z</time></trkpt><trkpt lat="45.13000358111571" lon="9.996805605349916"><ele>38.0</ele><time>2026-04-12T10:07:10.999Z</time></trkpt><trkpt lat="45.13001538648672" lon="9.996908627195001"><ele>38.285714285714285</ele><time>2026-04-12T10:07:11.999Z</time></trkpt><trkpt lat="45.130029708012025" lon="9.997011328778056"><ele>38.57142857142858</ele><time>2026-04-12T10:07:12.999Z</time></trkpt><trkpt lat="45.130045831476906" lon="9.997116133490298"><ele>38.85714285714286</ele><time>2026-04-12T10:07:13.999Z</time></trkpt><trkpt lat="45.13006081921601" lon="9.997218901902519"><ele>39.14285714285714</ele><time>2026-04-12T10:07:14.999Z</time></trkpt><trkpt lat="45.130074026002866" lon="9.997320772609259"><ele>39.42857142857143</ele><time>2026-04-12T10:07:15.999Z</time></trkpt><trkpt lat="45.13008942355392" lon="9.997425882327436"><ele>39.714285714285715</ele><time>2026-04-12T10:07:16.999Z</time></trkpt><trkpt lat="45.130101690921556" lon="9.997532457844216"><ele>40.0</ele><time>2026-04-12T10:07:17.998Z</time></trkpt><trkpt lat="45.130113449150066" lon="9.997641125539786"><ele>40.0</ele><time>2026-04-12T10:07:18.998Z</time></trkpt><trkpt lat="45.13012496488074" lon="9.99774882069122"><ele>40.0</ele><time>2026-04-12T10:07:19.998Z</time></trkpt><trkpt lat="45.13013552619019" lon="9.997856363993508"><ele>40.0</ele><time>2026-04-12T10:07:20.998Z</time></trkpt><trkpt lat="45.130145071574816" lon="9.997960277730845"><ele>40.0</ele><time>2026-04-12T10:07:21.998Z</time></trkpt><trkpt lat="45.13015665684804" lon="9.998063739542342"><ele>40.0</ele><time>2026-04-12T10:07:22.998Z</time></trkpt><trkpt lat="45.13016893512578" lon="9.998163106432152"><ele>40.0</ele><time>2026-04-12T10:07:23.998Z</time></trkpt><trkpt lat="45.130180519161286" lon="9.998259967604366"><ele>40.0</ele><time>2026-04-12T10:07:24.998Z</time></trkpt><trkpt lat="45.13018798467108" lon="9.998358178245315"><ele>40.14285714285714</ele><time>2026-04-12T10:07:25.998Z</time></trkpt><trkpt lat="45.13019814737714" lon="9.998457591989446"><ele>40.285714285714285</ele><time>2026-04-12T10:07:26.998Z</time></trkpt><trkpt lat="45.13021090518184" lon="9.9985528020352"><ele>40.42857142857143</ele><time>2026-04-12T10:07:27.998Z</time></trkpt><trkpt lat="45.13022368977065" lon="9.998652348687902"><ele>40.57142857142857</ele><time>2026-04-12T10:07:28.998Z</time></trkpt><trkpt lat="45.13023451541336" lon="9.99875510028101"><ele>40.714285714285715</ele><time>2026-04-12T10:07:29.998Z</time></trkpt><trkpt lat="45.13024419904308" lon="9.998861781014122"><ele>40.857142857142854</ele><time>2026-04-12T10:07:30.998Z</time></trkpt><trkpt lat="45.13025689883873" lon="9.998971906649752"><ele>41.0</ele><time>2026-04-12T10:07:32Z</time></trkpt><trkpt lat="45.13026987527903" lon="9.999076923033831"><ele>40.99999999999999</ele><time>2026-04-12T10:07:33Z</time></trkpt><trkpt lat="45.13028115962619" lon="9.999181793934486"><ele>41.0</ele><time>2026-04-12T10:07:34Z</time></trkpt><trkpt lat="45.13029212214726" lon="9.999284406861019"><ele>41.0</ele><time>2026-04-12T10:07:35Z</time></trkpt><trkpt lat="45.13030540501657" lon="9.999383582165633"><ele>41.0</ele><time>2026-04-12T10:07:36Z</time></trkpt><trkpt lat="45.130316190833256" lon="9.999484743289742"><ele>41.0</ele><time>2026-04-12T10:07:37Z</time></trkpt><trkpt lat="45.130325677578846" lon="9.999585878773402"><ele>40.99999999999999</ele><time>2026-04-12T10:07:38Z</time></trkpt><trkpt lat="45.13033599987931" lon="9.99968135106731"><ele>41.0</ele><time>2026-04-12T10:07:39Z</time></trkpt><trkpt lat="45.130345354614775" lon="9.999774112606318"><ele>41.0</ele><time>2026-04-12T10:07:40Z</time></trkpt><trkpt lat="45.130355309266314" lon="9.999864028625865"><ele>41.0</ele><time>2026-04-12T10:07:41Z</time></trkpt><trkpt lat="45.13037699279818" lon="10.000033636955378"><ele>41.0</ele><time>2026-04-12T10:07:43Z</time></trkpt><trkpt lat="45.130394857279306" lon="10.000201970801927"><ele>41.0</ele><time>2026-04-12T10:07:45Z</time></trkpt><trkpt lat="45.13040824162135" lon="10.000364982088154"><ele>41.0</ele><time>2026-04-12T10:07:47Z</time></trkpt><trkpt lat="45.130443129402366" lon="10.000536036858968"><ele>41.0</ele><time>2026-04-12T10:07:49Z</time></trkpt><trkpt lat="45.130420548027665" lon="10.00070157072324"><ele>41.0</ele><time>2026-04-12T10:07:51Z</time></trkpt><trkpt lat="45.13038366347133" lon="10.000847796587687"><ele>41.0</ele><time>2026-04-12T10:07:53Z</time></trkpt><trkpt lat="45.13034292125627" lon="10.000982195038265"><ele>41.0</ele><time>2026-04-12T10:07:55Z</time></trkpt><trkpt lat="45.130305403680616" lon="10.001105956170978"><ele>41.0</ele><time>2026-04-12T10:07:57Z</time></trkpt><trkpt lat="45.1302465223272" lon="10.001224382584114"><ele>40.8</ele><time>2026-04-12T10:07:59Z</time></trkpt><trkpt lat="45.13021068265273" lon="10.001312467038609"><ele>40.599999999999994</ele><time>2026-04-12T10:08:01Z</time></trkpt><trkpt lat="45.13004531813878" lon="10.001349141291493"><ele>40.4</ele><time>2026-04-12T10:08:04Z</time></trkpt><trkpt lat="45.130018972614856" lon="10.001445535868852"><ele>40.2</ele><time>2026-04-12T10:08:09Z</time></trkpt><trkpt lat="45.130012398444464" lon="10.001549730518397"><ele>40.0</ele><time>2026-04-12T10:10:16Z</time></trkpt><trkpt lat="45.130002962366284" lon="10.001650781359574"><ele>40.0</ele><time>2026-04-12T10:10:21Z</time></trkpt><trkpt lat="45.129976684367115" lon="10.00175100813656"><ele>40.0</ele><time>2026-04-12T10:10:24Z</time></trkpt><trkpt lat="45.12994312685423" lon="10.001829455933159"><ele>40.0</ele><time>2026-04-12T10:10:26Z</time></trkpt><trkpt lat="45.129907163017876" lon="10.001928702851417"><ele>40.0</ele><time>2026-04-12T10:10:28Z</time></trkpt><trkpt lat="45.12985697594942" lon="10.002033346723536"><ele>40.0</ele><time>2026-04-12T10:10:30Z</time></trkpt><trkpt lat="45.12980960085438" lon="10.002157611695347"><ele>40.0</ele><time>2026-04-12T10:10:32Z</time></trkpt><trkpt lat="45.12975828195469" lon="10.002285751754854"><ele>39.4</ele><time>2026-04-12T10:10:33.999Z</time></trkpt><trkpt lat="45.12970879680317" lon="10.002418595127278"><ele>38.8</ele><time>2026-04-12T10:10:35.999Z</time></trkpt><trkpt lat="45.129659276636026" lon="10.002540482271527"><ele>38.2</ele><time>2026-04-12T10:10:37.999Z</time></trkpt><trkpt lat="45.129605206391865" lon="10.002669011730271"><ele>37.6</ele><time>2026-04-12T10:10:39.999Z</time></trkpt><trkpt lat="45.12954879871893" lon="10.00281343203216"><ele>37.0</ele><time>2026-04-12T10:10:41.999Z</time></trkpt><trkpt lat="45.12948761522568" lon="10.002954711185756"><ele>37.0</ele><time>2026-04-12T10:10:43.999Z</time></trkpt><trkpt lat="45.12942286649147" lon="10.00309904523566"><ele>37.0</ele><time>2026-04-12T10:10:45.999Z</time></trkpt><trkpt lat="45.12936481533765" lon="10.00324519803814"><ele>37.0</ele><time>2026-04-12T10:10:47.999Z</time></trkpt><trkpt lat="45.12930732520476" lon="10.003386575985562"><ele>37.0</ele><time>2026-04-12T10:10:49.999Z</time></trkpt><trkpt lat="45.1292483703395" lon="10.003532969312651"><ele>36.5</ele><time>2026-04-12T10:10:51.999Z</time></trkpt><trkpt lat="45.12919238151057" lon="10.003683888939426"><ele>36.0</ele><time>2026-04-12T10:10:53.999Z</time></trkpt><trkpt lat="45.129135364374086" lon="10.003827930964245"><ele>35.5</ele><time>2026-04-12T10:10:55.999Z</time></trkpt><trkpt lat="45.12907727156709" lon="10.00397453711993"><ele>35.0</ele><time>2026-04-12T10:10:57.999Z</time></trkpt><trkpt lat="45.12901764890482" lon="10.004121354196013"><ele>34.5</ele><time>2026-04-12T10:10:59.999Z</time></trkpt><trkpt lat="45.12895534894037" lon="10.004268015447044"><ele>34.0</ele><time>2026-04-12T10:11:01.999Z</time></trkpt><trkpt lat="45.12889609886194" lon="10.004418205009822"><ele>33.5</ele><time>2026-04-12T10:11:03.999Z</time></trkpt><trkpt lat="45.12883602759852" lon="10.004567270312354"><ele>33.0</ele><time>2026-04-12T10:11:05.999Z</time></trkpt><trkpt lat="45.12877701917819" lon="10.004720118807336"><ele>33.0</ele><time>2026-04-12T10:11:07.999Z</time></trkpt><trkpt lat="45.12871856231107" lon="10.004872475506941"><ele>33.0</ele><time>2026-04-12T10:11:09.999Z</time></trkpt><trkpt lat="45.12866130248226" lon="10.005026571179597"><ele>33.0</ele><time>2026-04-12T10:11:11.999Z</time></trkpt><trkpt lat="45.12860566462097" lon="10.005181174389092"><ele>33.0</ele><time>2026-04-12T10:11:13.999Z</time></trkpt><trkpt lat="45.12855228953914" lon="10.00533838989155"><ele>33.25</ele><time>2026-04-12T10:11:15.999Z</time></trkpt><trkpt lat="45.12849559789306" lon="10.005497955916665"><ele>33.5</ele><time>2026-04-12T10:11:17.999Z</time></trkpt><trkpt lat="45.12844073227267" lon="10.005655940316617"><ele>33.75</ele><time>2026-04-12T10:11:19.999Z</time></trkpt><trkpt lat="45.128386772951174" lon="10.005814238477534"><ele>34.0</ele><time>2026-04-12T10:11:21.999Z</time></trkpt><trkpt lat="45.128334905247534" lon="10.005970403199631"><ele>34.333333333333336</ele><time>2026-04-12T10:11:23.999Z</time></trkpt><trkpt lat="45.12828312642284" lon="10.006131651097494"><ele>34.66666666666667</ele><time>2026-04-12T10:11:25.998Z</time></trkpt><trkpt lat="45.128255128150656" lon="10.006213177993313"><ele>35.0</ele><time>2026-04-12T10:11:26.998Z</time></trkpt><trkpt lat="45.12822647227596" lon="10.00629606518868"><ele>35.333333333333336</ele><time>2026-04-12T10:11:27.998Z</time></trkpt><trkpt lat="45.128197624870424" lon="10.006381272104475"><ele>35.666666666666664</ele><time>2026-04-12T10:11:28.998Z</time></trkpt><trkpt lat="45.12816894387662" lon="10.006466369170738"><ele>36.0</ele><time>2026-04-12T10:11:29.998Z</time></trkpt><trkpt lat="45.128142205964146" lon="10.006550900627282"><ele>36.00000000000001</ele><time>2026-04-12T10:11:30.998Z</time></trkpt><trkpt lat="45.12811159178693" lon="10.00663802506458"><ele>36.0</ele><time>2026-04-12T10:11:31.998Z</time></trkpt><trkpt lat="45.12808039664252" lon="10.006728744800188"><ele>36.0</ele><time>2026-04-12T10:11:32.998Z</time></trkpt><trkpt lat="45.12804916076544" lon="10.006819132219668"><ele>36.0</ele><time>2026-04-12T10:11:33.998Z</time></trkpt><trkpt lat="45.128017314551315" lon="10.006909071524678"><ele>36.0</ele><time>2026-04-12T10:11:34.998Z</time></trkpt><trkpt lat="45.1279860751472" lon="10.007001914329425"><ele>36.00000000000001</ele><time>2026-04-12T10:11:35.998Z</time></trkpt><trkpt lat="45.12795385303669" lon="10.007092056949942"><ele>36.0</ele><time>2026-04-12T10:11:36.998Z</time></trkpt><trkpt lat="45.12792179967499" lon="10.007181108002698"><ele>36.00000000000001</ele><time>2026-04-12T10:11:37.998Z</time></trkpt><trkpt lat="45.12789090992517" lon="10.007273561410045"><ele>36.0</ele><time>2026-04-12T10:11:38.998Z</time></trkpt><trkpt lat="45.12785957218848" lon="10.00736089756535"><ele>36.0</ele><time>2026-04-12T10:11:39.998Z</time></trkpt><trkpt lat="45.12782772685725" lon="10.007453331338093"><ele>36.0</ele><time>2026-04-12T10:11:40.998Z</time></trkpt><trkpt lat="45.127797280588425" lon="10.00754441151897"><ele>36.0</ele><time>2026-04-12T10:11:41.998Z</time></trkpt><trkpt lat="45.12776593125299" lon="10.00763667309275"><ele>36.00000000000001</ele><time>2026-04-12T10:11:43Z</time></trkpt><trkpt lat="45.127734427526505" lon="10.007730714644078"><ele>36.0</ele><time>2026-04-12T10:11:44Z</time></trkpt><trkpt lat="45.127702541503524" lon="10.007823590972395"><ele>36.00000000000001</ele><time>2026-04-12T10:11:45Z</time></trkpt><trkpt lat="45.12766979504076" lon="10.007917363891618"><ele>36.0</ele><time>2026-04-12T10:11:46Z</time></trkpt><trkpt lat="45.127635758587076" lon="10.008011560795147"><ele>36.0</ele><time>2026-04-12T10:11:47Z</time></trkpt><trkpt lat="45.12760160667424" lon="10.008105193881697"><ele>36.0</ele><time>2026-04-12T10:11:48Z</time></trkpt><trkpt lat="45.12756968992379" lon="10.00820010603909"><ele>36.0</ele><time>2026-04-12T10:11:49Z</time></trkpt><trkpt lat="45.12753840658031" lon="10.008295299938302"><ele>36.00000000000001</ele><time>2026-04-12T10:11:50Z</time></trkpt><trkpt lat="45.12750606975636" lon="10.008387584732535"><ele>36.0</ele><time>2026-04-12T10:11:51Z</time></trkpt><trkpt lat="45.12747386004961" lon="10.00848355351096"><ele>36.00000000000001</ele><time>2026-04-12T10:11:52Z</time></trkpt><trkpt lat="45.12744332534792" lon="10.008576651964923"><ele>36.0</ele><time>2026-04-12T10:11:53Z</time></trkpt><trkpt lat="45.1274081739778" lon="10.0086678218043"><ele>36.0</ele><time>2026-04-12T10:11:54Z</time></trkpt><trkpt lat="45.12738076732704" lon="10.008760400684132"><ele>36.0</ele><time>2026-04-12T10:11:55Z</time></trkpt><trkpt lat="45.12734904060022" lon="10.008848400964192"><ele>36.0</ele><time>2026-04-12T10:11:56Z</time></trkpt><trkpt lat="45.127321790491564" lon="10.008937365077507"><ele>36.00000000000001</ele><time>2026-04-12T10:11:57Z</time></trkpt><trkpt lat="45.1272944497321" lon="10.009023142993698"><ele>36.0</ele><time>2026-04-12T10:11:58Z</time></trkpt><trkpt lat="45.127268209807326" lon="10.009104384219178"><ele>36.25</ele><time>2026-04-12T10:11:59Z</time></trkpt><trkpt lat="45.12721618466723" lon="10.009254485601593"><ele>36.5</ele><time>2026-04-12T10:12:01Z</time></trkpt><trkpt lat="45.12718496626531" lon="10.009382756448005"><ele>36.75</ele><time>2026-04-12T10:12:03Z</time></trkpt><trkpt lat="45.12712563208642" lon="10.00950045082873"><ele>37.0</ele><time>2026-04-12T10:12:05Z</time></trkpt><trkpt lat="45.12696095108484" lon="10.009431876514272"><ele>37.0</ele><time>2026-04-12T10:12:07Z</time></trkpt><trkpt lat="45.1268682034041" lon="10.009330532915325"><ele>37.0</ele><time>2026-04-12T10:12:09Z</time></trkpt><trkpt lat="45.126769114154506" lon="10.009223334804295"><ele>37.0</ele><time>2026-04-12T10:12:11Z</time></trkpt><trkpt lat="45.12667046903724" lon="10.00911687510849"><ele>37.0</ele><time>2026-04-12T10:12:13Z</time></trkpt><trkpt lat="45.12661566380142" lon="10.009057808813479"><ele>37.0</ele><time>2026-04-12T10:12:14Z</time></trkpt><trkpt lat="45.12655890078753" lon="10.008996632522967"><ele>37.333333333333336</ele><time>2026-04-12T10:12:15Z</time></trkpt><trkpt lat="45.12654963757017" lon="10.008846014501465"><ele>37.66666666666667</ele><time>2026-04-12T10:12:16Z</time></trkpt><trkpt lat="45.12649624483332" lon="10.008769276964426"><ele>38.0</ele><time>2026-04-12T10:12:17Z</time></trkpt><trkpt lat="45.12644229584799" lon="10.00868988714255"><ele>38.333333333333336</ele><time>2026-04-12T10:12:18Z</time></trkpt><trkpt lat="45.12638473388519" lon="10.008618336118163"><ele>38.666666666666664</ele><time>2026-04-12T10:12:19Z</time></trkpt><trkpt lat="45.126324029517555" lon="10.008556068952073"><ele>39.0</ele><time>2026-04-12T10:12:20Z</time></trkpt><trkpt lat="45.126266009528244" lon="10.00849624092584"><ele>39.0</ele><time>2026-04-12T10:12:21Z</time></trkpt><trkpt lat="45.12620803194848" lon="10.008437654432088"><ele>39.0</ele><time>2026-04-12T10:12:22Z</time></trkpt><trkpt lat="45.126153152896705" lon="10.008380991733613"><ele>39.0</ele><time>2026-04-12T10:12:23Z</time></trkpt><trkpt lat="45.12609852615692" lon="10.008327426043627"><ele>39.0</ele><time>2026-04-12T10:12:24Z</time></trkpt><trkpt lat="45.12604412749173" lon="10.008278557302855"><ele>39.0</ele><time>2026-04-12T10:12:25Z</time></trkpt><trkpt lat="45.125944875439785" lon="10.008173006289345"><ele>39.0</ele><time>2026-04-12T10:12:27Z</time></trkpt><trkpt lat="45.12584816120336" lon="10.00807677642937"><ele>38.333333333333336</ele><time>2026-04-12T10:12:29Z</time></trkpt><trkpt lat="45.1256928336005" lon="10.008079763508979"><ele>37.666666666666664</ele><time>2026-04-12T10:12:31Z</time></trkpt><trkpt lat="45.125640180925764" lon="10.008024362329577"><ele>37.0</ele><time>2026-04-12T10:12:32Z</time></trkpt><trkpt lat="45.12558588346623" lon="10.00796724978366"><ele>36.33333333333333</ele><time>2026-04-12T10:12:33Z</time></trkpt><trkpt lat="45.12553266836425" lon="10.007911275742845"><ele>35.666666666666664</ele><time>2026-04-12T10:12:34Z</time></trkpt><trkpt lat="45.12547997964201" lon="10.007855855360157"><ele>35.0</ele><time>2026-04-12T10:12:35Z</time></trkpt><trkpt lat="45.125428431086526" lon="10.007801634238113"><ele>35.0</ele><time>2026-04-12T10:12:36Z</time></trkpt><trkpt lat="45.12533067054658" lon="10.007698805288465"><ele>35.0</ele><time>2026-04-12T10:12:37.999Z</time></trkpt><trkpt lat="45.125240419139864" lon="10.007603874774066"><ele>35.0</ele><time>2026-04-12T10:12:39.999Z</time></trkpt><trkpt lat="45.12516422582568" lon="10.00752408301804"><ele>35.0</ele><time>2026-04-12T10:12:41.999Z</time></trkpt><trkpt lat="45.12509429120826" lon="10.007451077360392"><ele>35.0</ele><time>2026-04-12T10:12:43.999Z</time></trkpt><trkpt lat="45.12501605634203" lon="10.007369406957757"><ele>34.6</ele><time>2026-04-12T10:12:46.999Z</time></trkpt><trkpt lat="45.12496405363759" lon="10.007315120657003"><ele>34.2</ele><time>2026-04-12T10:12:47.999Z</time></trkpt><trkpt lat="45.124867097082756" lon="10.007213034736344"><ele>33.8</ele><time>2026-04-12T10:12:49.999Z</time></trkpt><trkpt lat="45.124778023036384" lon="10.00711901054166"><ele>33.4</ele><time>2026-04-12T10:12:51.999Z</time></trkpt><trkpt lat="45.12469397461028" lon="10.007030291211766"><ele>33.0</ele><time>2026-04-12T10:12:53.999Z</time></trkpt><trkpt lat="45.12464119799532" lon="10.00697458169802"><ele>33.666666666666664</ele><time>2026-04-12T10:12:55.999Z</time></trkpt><trkpt lat="45.12457855197474" lon="10.007026825664637"><ele>34.333333333333336</ele><time>2026-04-12T10:12:58.999Z</time></trkpt><trkpt lat="45.124541634141536" lon="10.007149157903594"><ele>35.0</ele><time>2026-04-12T10:13:00.999Z</time></trkpt><trkpt lat="45.12449834532876" lon="10.007293181118612"><ele>35.66666666666667</ele><time>2026-04-12T10:13:02.999Z</time></trkpt><trkpt lat="45.124473441787" lon="10.007375180490351"><ele>36.333333333333336</ele><time>2026-04-12T10:13:03.999Z</time></trkpt><trkpt lat="45.12444404072306" lon="10.007460182608934"><ele>37.0</ele><time>2026-04-12T10:13:04.999Z</time></trkpt><trkpt lat="45.124388937141546" lon="10.007625935627146"><ele>37.0</ele><time>2026-04-12T10:13:06.999Z</time></trkpt><trkpt lat="45.12435943837651" lon="10.007716126470633"><ele>37.0</ele><time>2026-04-12T10:13:07.999Z</time></trkpt><trkpt lat="45.12433115187508" lon="10.00780571892752"><ele>37.0</ele><time>2026-04-12T10:13:08.999Z</time></trkpt><trkpt lat="45.12430126436631" lon="10.007892208563902"><ele>37.0</ele><time>2026-04-12T10:13:09.999Z</time></trkpt><trkpt lat="45.124272492901014" lon="10.007976700417444"><ele>37.0</ele><time>2026-04-12T10:13:10.999Z</time></trkpt><trkpt lat="45.12424022494699" lon="10.00806618200273"><ele>37.0</ele><time>2026-04-12T10:13:11.999Z</time></trkpt><trkpt lat="45.124209725643034" lon="10.008156157373486"><ele>37.0</ele><time>2026-04-12T10:13:12.999Z</time></trkpt><trkpt lat="45.12418155121164" lon="10.008240150921367"><ele>36.66666666666667</ele><time>2026-04-12T10:13:13.999Z</time></trkpt><trkpt lat="45.12414511267364" lon="10.008341709417403"><ele>36.333333333333336</ele><time>2026-04-12T10:13:14.999Z</time></trkpt><trkpt lat="45.12411439021243" lon="10.008433227108474"><ele>36.0</ele><time>2026-04-12T10:13:15.999Z</time></trkpt><trkpt lat="45.12408144644722" lon="10.008527860881284"><ele>35.666666666666664</ele><time>2026-04-12T10:13:16.999Z</time></trkpt><trkpt lat="45.12404687186673" lon="10.00862492285746"><ele>35.33333333333333</ele><time>2026-04-12T10:13:17.999Z</time></trkpt><trkpt lat="45.12401561329647" lon="10.008719712662487"><ele>35.0</ele><time>2026-04-12T10:13:18.999Z</time></trkpt><trkpt lat="45.123984733747406" lon="10.008817555530792"><ele>35.0</ele><time>2026-04-12T10:13:19.999Z</time></trkpt><trkpt lat="45.12395752402523" lon="10.008914596243793"><ele>35.0</ele><time>2026-04-12T10:13:20.999Z</time></trkpt><trkpt lat="45.12392507079734" lon="10.009011287867033"><ele>35.0</ele><time>2026-04-12T10:13:21.999Z</time></trkpt><trkpt lat="45.123894068243" lon="10.009105294913114"><ele>35.0</ele><time>2026-04-12T10:13:22.999Z</time></trkpt><trkpt lat="45.123864289091564" lon="10.009199849983554"><ele>35.0</ele><time>2026-04-12T10:13:23.999Z</time></trkpt><trkpt lat="45.123831869989225" lon="10.009291190627616"><ele>35.0</ele><time>2026-04-12T10:13:24.999Z</time></trkpt><trkpt lat="45.12379642554188" lon="10.009380997059266"><ele>35.0</ele><time>2026-04-12T10:13:25.999Z</time></trkpt><trkpt lat="45.12376005356716" lon="10.009468119799033"><ele>35.0</ele><time>2026-04-12T10:13:26.999Z</time></trkpt><trkpt lat="45.12372743212808" lon="10.009562501746535"><ele>35.0</ele><time>2026-04-12T10:13:27.999Z</time></trkpt><trkpt lat="45.12369508186661" lon="10.009656113151852"><ele>35.0</ele><time>2026-04-12T10:13:28.999Z</time></trkpt><trkpt lat="45.123663724505256" lon="10.009750553307885"><ele>35.0</ele><time>2026-04-12T10:13:29.999Z</time></trkpt><trkpt lat="45.12363247025623" lon="10.009844897148845"><ele>35.0</ele><time>2026-04-12T10:13:30.998Z</time></trkpt><trkpt lat="45.12360176885584" lon="10.009938698564907"><ele>35.0</ele><time>2026-04-12T10:13:31.998Z</time></trkpt><trkpt lat="45.12357007807918" lon="10.010030869783003"><ele>35.0</ele><time>2026-04-12T10:13:32.998Z</time></trkpt><trkpt lat="45.123538793586576" lon="10.010122478747022"><ele>34.857142857142854</ele><time>2026-04-12T10:13:33.998Z</time></trkpt><trkpt lat="45.12350797148185" lon="10.010216028215275"><ele>34.714285714285715</ele><time>2026-04-12T10:13:34.998Z</time></trkpt><trkpt lat="45.123476348577015" lon="10.010309859734168"><ele>34.57142857142857</ele><time>2026-04-12T10:13:35.998Z</time></trkpt><trkpt lat="45.12344302615421" lon="10.010402697788772"><ele>34.42857142857143</ele><time>2026-04-12T10:13:36.998Z</time></trkpt><trkpt lat="45.12341087039412" lon="10.010496971590937"><ele>34.285714285714285</ele><time>2026-04-12T10:13:37.998Z</time></trkpt><trkpt lat="45.12337793327047" lon="10.010589374807745"><ele>34.14285714285714</ele><time>2026-04-12T10:13:38.998Z</time></trkpt><trkpt lat="45.12334623490225" lon="10.010680684774607"><ele>34.0</ele><time>2026-04-12T10:13:39.998Z</time></trkpt><trkpt lat="45.123318054929186" lon="10.010776606798922"><ele>33.99999999999999</ele><time>2026-04-12T10:13:40.998Z</time></trkpt><trkpt lat="45.123288467271514" lon="10.010872128193187"><ele>34.0</ele><time>2026-04-12T10:13:41.998Z</time></trkpt><trkpt lat="45.1232575350583" lon="10.010966429526736"><ele>34.0</ele><time>2026-04-12T10:13:42.998Z</time></trkpt><trkpt lat="45.12322844346648" lon="10.011060020048847"><ele>34.0</ele><time>2026-04-12T10:13:43.998Z</time></trkpt><trkpt lat="45.12319732011465" lon="10.01115391579602"><ele>34.0</ele><time>2026-04-12T10:13:44.998Z</time></trkpt><trkpt lat="45.123168035165904" lon="10.011247278592391"><ele>33.99999999999999</ele><time>2026-04-12T10:13:45.998Z</time></trkpt><trkpt lat="45.12313714909691" lon="10.011343590622342"><ele>34.0</ele><time>2026-04-12T10:13:46.998Z</time></trkpt><trkpt lat="45.12310583907575" lon="10.01143901764981"><ele>33.99999999999999</ele><time>2026-04-12T10:13:47.998Z</time></trkpt><trkpt lat="45.12307463970198" lon="10.011534169731034"><ele>34.0</ele><time>2026-04-12T10:13:49Z</time></trkpt><trkpt lat="45.1230423277303" lon="10.011629817092377"><ele>34.0</ele><time>2026-04-12T10:13:50Z</time></trkpt><trkpt lat="45.12301189953912" lon="10.011728469822376"><ele>34.0</ele><time>2026-04-12T10:13:51Z</time></trkpt><trkpt lat="45.1229790538272" lon="10.011823525868618"><ele>34.0</ele><time>2026-04-12T10:13:52Z</time></trkpt><trkpt lat="45.12294782571723" lon="10.01191690053249"><ele>33.99999999999999</ele><time>2026-04-12T10:13:53Z</time></trkpt><trkpt lat="45.12291512683054" lon="10.012010985088503"><ele>34.0</ele><time>2026-04-12T10:13:54Z</time></trkpt><trkpt lat="45.122882784111766" lon="10.012106111829667"><ele>33.99999999999999</ele><time>2026-04-12T10:13:55Z</time></trkpt><trkpt lat="45.122850118940825" lon="10.012201928891876"><ele>34.0</ele><time>2026-04-12T10:13:56Z</time></trkpt><trkpt lat="45.122816580895254" lon="10.012296763628244"><ele>34.0</ele><time>2026-04-12T10:13:57Z</time></trkpt><trkpt lat="45.12278374567581" lon="10.012391681216913"><ele>34.0</ele><time>2026-04-12T10:13:58Z</time></trkpt><trkpt lat="45.12275116826784" lon="10.012486892008106"><ele>34.0</ele><time>2026-04-12T10:13:59Z</time></trkpt><trkpt lat="45.1227183516511" lon="10.012579870140973"><ele>33.99999999999999</ele><time>2026-04-12T10:14:00Z</time></trkpt><trkpt lat="45.1226831771934" lon="10.012672962752506"><ele>34.0</ele><time>2026-04-12T10:14:01Z</time></trkpt><trkpt lat="45.122644802225366" lon="10.01276643493074"><ele>33.66666666666667</ele><time>2026-04-12T10:14:02Z</time></trkpt><trkpt lat="45.12260481483675" lon="10.012857478681305"><ele>33.333333333333336</ele><time>2026-04-12T10:14:03Z</time></trkpt><trkpt lat="45.12256283525814" lon="10.012948344328452"><ele>33.0</ele><time>2026-04-12T10:14:04Z</time></trkpt><trkpt lat="45.122521318461914" lon="10.013039195376859"><ele>32.666666666666664</ele><time>2026-04-12T10:14:05Z</time></trkpt><trkpt lat="45.12247832845881" lon="10.013127509614332"><ele>32.33333333333333</ele><time>2026-04-12T10:14:06Z</time></trkpt><trkpt lat="45.122429207127546" lon="10.013211781466936"><ele>32.0</ele><time>2026-04-12T10:14:07Z</time></trkpt><trkpt lat="45.12238029249713" lon="10.013293546807523"><ele>31.999999999999996</ele><time>2026-04-12T10:14:08Z</time></trkpt><trkpt lat="45.12232933653882" lon="10.013377259656613"><ele>32.0</ele><time>2026-04-12T10:14:09Z</time></trkpt><trkpt lat="45.12227954871497" lon="10.013461953404024"><ele>32.0</ele><time>2026-04-12T10:14:10Z</time></trkpt><trkpt lat="45.122227805993425" lon="10.0135432901927"><ele>32.0</ele><time>2026-04-12T10:14:11Z</time></trkpt><trkpt lat="45.12217738995244" lon="10.013625487223301"><ele>31.999999999999996</ele><time>2026-04-12T10:14:12Z</time></trkpt><trkpt lat="45.12212713874924" lon="10.01370386992304"><ele>32.0</ele><time>2026-04-12T10:14:13Z</time></trkpt><trkpt lat="45.12207708848228" lon="10.013783865139212"><ele>31.999999999999996</ele><time>2026-04-12T10:14:14Z</time></trkpt><trkpt lat="45.122026843225065" lon="10.013865711780431"><ele>32.0</ele><time>2026-04-12T10:14:15Z</time></trkpt><trkpt lat="45.121975839048325" lon="10.013948358088262"><ele>32.0</ele><time>2026-04-12T10:14:16Z</time></trkpt><trkpt lat="45.12192482191567" lon="10.014031238645142"><ele>32.0</ele><time>2026-04-12T10:14:17Z</time></trkpt><trkpt lat="45.1218737309849" lon="10.01411397259369"><ele>31.999999999999996</ele><time>2026-04-12T10:14:18Z</time></trkpt><trkpt lat="45.12182259895145" lon="10.014196308540697"><ele>32.0</ele><time>2026-04-12T10:14:19Z</time></trkpt><trkpt lat="45.12177020947307" lon="10.014276430300058"><ele>32.33333333333333</ele><time>2026-04-12T10:14:20Z</time></trkpt><trkpt lat="45.121718628876" lon="10.014359589160124"><ele>32.666666666666664</ele><time>2026-04-12T10:14:21Z</time></trkpt><trkpt lat="45.12166822973678" lon="10.01444497128736"><ele>33.0</ele><time>2026-04-12T10:14:22Z</time></trkpt><trkpt lat="45.12161953513408" lon="10.01452966487642"><ele>33.333333333333336</ele><time>2026-04-12T10:14:23Z</time></trkpt><trkpt lat="45.12156733743778" lon="10.014612709749564"><ele>33.66666666666667</ele><time>2026-04-12T10:14:24Z</time></trkpt><trkpt lat="45.121515142702926" lon="10.014693506424967"><ele>34.0</ele><time>2026-04-12T10:14:25Z</time></trkpt><trkpt lat="45.121461530698475" lon="10.01477730675892"><ele>34.0</ele><time>2026-04-12T10:14:26Z</time></trkpt><trkpt lat="45.121411998577834" lon="10.014862085724458"><ele>34.0</ele><time>2026-04-12T10:14:27Z</time></trkpt><trkpt lat="45.121361311278214" lon="10.01494848325835"><ele>34.0</ele><time>2026-04-12T10:14:28Z</time></trkpt><trkpt lat="45.121312133248765" lon="10.015035240404988"><ele>34.0</ele><time>2026-04-12T10:14:29Z</time></trkpt><trkpt lat="45.12126382247653" lon="10.015123429518075"><ele>34.0</ele><time>2026-04-12T10:14:30Z</time></trkpt><trkpt lat="45.12121539054192" lon="10.01521343379057"><ele>34.0</ele><time>2026-04-12T10:14:31Z</time></trkpt><trkpt lat="45.1211641052194" lon="10.015298088637442"><ele>33.833333333333336</ele><time>2026-04-12T10:14:32Z</time></trkpt><trkpt lat="45.12111545418327" lon="10.015386239271635"><ele>33.66666666666667</ele><time>2026-04-12T10:14:33Z</time></trkpt><trkpt lat="45.12106901490285" lon="10.015473151571731"><ele>33.5</ele><time>2026-04-12T10:14:34Z</time></trkpt><trkpt lat="45.12101996204746" lon="10.015560998104156"><ele>33.333333333333336</ele><time>2026-04-12T10:14:35Z</time></trkpt><trkpt lat="45.120971964050725" lon="10.015649315733551"><ele>33.166666666666664</ele><time>2026-04-12T10:14:36Z</time></trkpt><trkpt lat="45.12092492639306" lon="10.015734143005359"><ele>33.0</ele><time>2026-04-12T10:14:37Z</time></trkpt><trkpt lat="45.12087597742202" lon="10.015821269026747"><ele>33.0</ele><time>2026-04-12T10:14:38Z</time></trkpt><trkpt lat="45.120829306038225" lon="10.01590706238746"><ele>33.0</ele><time>2026-04-12T10:14:39Z</time></trkpt><trkpt lat="45.12078340145915" lon="10.01599258834953"><ele>33.0</ele><time>2026-04-12T10:14:40Z</time></trkpt><trkpt lat="45.12073774480187" lon="10.016078998152686"><ele>33.0</ele><time>2026-04-12T10:14:41Z</time></trkpt><trkpt lat="45.12069153094613" lon="10.016167567374211"><ele>33.0</ele><time>2026-04-12T10:14:42Z</time></trkpt><trkpt lat="45.12064626630904" lon="10.01625563951808"><ele>33.0</ele><time>2026-04-12T10:14:42.999Z</time></trkpt><trkpt lat="45.120602758949794" lon="10.01634406139004"><ele>32.833333333333336</ele><time>2026-04-12T10:14:43.999Z</time></trkpt><trkpt lat="45.12056098840854" lon="10.016435810696796"><ele>32.666666666666664</ele><time>2026-04-12T10:14:44.999Z</time></trkpt><trkpt lat="45.120519756836" lon="10.016530655017068"><ele>32.5</ele><time>2026-04-12T10:14:45.999Z</time></trkpt><trkpt lat="45.12047949755174" lon="10.01662448919542"><ele>32.33333333333333</ele><time>2026-04-12T10:14:46.999Z</time></trkpt><trkpt lat="45.12044185387878" lon="10.016718504967203"><ele>32.166666666666664</ele><time>2026-04-12T10:14:47.999Z</time></trkpt><trkpt lat="45.12040108059771" lon="10.016812603421512"><ele>32.0</ele><time>2026-04-12T10:14:48.999Z</time></trkpt><trkpt lat="45.12035962344252" lon="10.016905476387903"><ele>32.33333333333333</ele><time>2026-04-12T10:14:49.999Z</time></trkpt><trkpt lat="45.12032052951791" lon="10.017000286591013"><ele>32.666666666666664</ele><time>2026-04-12T10:14:50.999Z</time></trkpt><trkpt lat="45.120282061438424" lon="10.017094887551446"><ele>33.0</ele><time>2026-04-12T10:14:51.999Z</time></trkpt><trkpt lat="45.120240391046984" lon="10.017188334748239"><ele>33.333333333333336</ele><time>2026-04-12T10:14:52.999Z</time></trkpt><trkpt lat="45.12020042305917" lon="10.017282116368849"><ele>33.66666666666667</ele><time>2026-04-12T10:14:53.999Z</time></trkpt><trkpt lat="45.120159366526785" lon="10.017375953678354"><ele>34.0</ele><time>2026-04-12T10:14:54.999Z</time></trkpt><trkpt lat="45.120118259530216" lon="10.017469629483145"><ele>34.0</ele><time>2026-04-12T10:14:55.999Z</time></trkpt><trkpt lat="45.12007704797736" lon="10.017562649954183"><ele>34.0</ele><time>2026-04-12T10:14:56.999Z</time></trkpt><trkpt lat="45.12003764432621" lon="10.017656315755309"><ele>34.0</ele><time>2026-04-12T10:14:57.999Z</time></trkpt><trkpt lat="45.11999857310293" lon="10.017748979397023"><ele>34.0</ele><time>2026-04-12T10:14:58.999Z</time></trkpt><trkpt lat="45.1199594774061" lon="10.017844169954579"><ele>34.0</ele><time>2026-04-12T10:14:59.999Z</time></trkpt><trkpt lat="45.11992142173303" lon="10.01793704650492"><ele>34.0</ele><time>2026-04-12T10:15:00.999Z</time></trkpt><trkpt lat="45.11988247092205" lon="10.018029991011144"><ele>34.0</ele><time>2026-04-12T10:15:01.999Z</time></trkpt><trkpt lat="45.11984310309996" lon="10.018121751140809"><ele>34.0</ele><time>2026-04-12T10:15:02.999Z</time></trkpt><trkpt lat="45.11980349033061" lon="10.018216062345598"><ele>34.0</ele><time>2026-04-12T10:15:03.999Z</time></trkpt><trkpt lat="45.119762944700746" lon="10.018310209213857"><ele>34.0</ele><time>2026-04-12T10:15:04.999Z</time></trkpt><trkpt lat="45.119722899000735" lon="10.0184057770848"><ele>34.0</ele><time>2026-04-12T10:15:05.999Z</time></trkpt><trkpt lat="45.11968328659104" lon="10.018500260213557"><ele>34.0</ele><time>2026-04-12T10:15:06.999Z</time></trkpt><trkpt lat="45.11964274052002" lon="10.018594406829918"><ele>33.833333333333336</ele><time>2026-04-12T10:15:07.999Z</time></trkpt><trkpt lat="45.119601155424625" lon="10.018688829674279"><ele>33.66666666666667</ele><time>2026-04-12T10:15:08.999Z</time></trkpt><trkpt lat="45.11956099709956" lon="10.018783210341953"><ele>33.5</ele><time>2026-04-12T10:15:09.999Z</time></trkpt><trkpt lat="45.11951881936058" lon="10.018879260037002"><ele>33.333333333333336</ele><time>2026-04-12T10:15:10.999Z</time></trkpt><trkpt lat="45.11947849895805" lon="10.018976050587515"><ele>33.166666666666664</ele><time>2026-04-12T10:15:11.999Z</time></trkpt><trkpt lat="45.119436357222376" lon="10.019069078934093"><ele>33.0</ele><time>2026-04-12T10:15:12.999Z</time></trkpt><trkpt lat="45.119394355614574" lon="10.019164538521352"><ele>33.0</ele><time>2026-04-12T10:15:13.999Z</time></trkpt><trkpt lat="45.119353618333534" lon="10.019258958733111"><ele>33.0</ele><time>2026-04-12T10:15:14.999Z</time></trkpt><trkpt lat="45.119313508247835" lon="10.01935422450697"><ele>33.0</ele><time>2026-04-12T10:15:15.999Z</time></trkpt><trkpt lat="45.11927186126488" lon="10.019447955411872"><ele>33.0</ele><time>2026-04-12T10:15:16.999Z</time></trkpt><trkpt lat="45.119222224929075" lon="10.019535713410018"><ele>33.0</ele><time>2026-04-12T10:15:17.999Z</time></trkpt><trkpt lat="45.11917359308321" lon="10.019624235185661"><ele>33.0</ele><time>2026-04-12T10:15:18.999Z</time></trkpt><trkpt lat="45.1191230388698" lon="10.01971099016553"><ele>33.0</ele><time>2026-04-12T10:15:19.999Z</time></trkpt><trkpt lat="45.11906963414945" lon="10.019795125649168"><ele>33.0</ele><time>2026-04-12T10:15:20.999Z</time></trkpt><trkpt lat="45.11901615624008" lon="10.019876403791118"><ele>33.0</ele><time>2026-04-12T10:15:21.999Z</time></trkpt><trkpt lat="45.118961309610796" lon="10.019957325129761"><ele>33.0</ele><time>2026-04-12T10:15:22.999Z</time></trkpt><trkpt lat="45.11891148618105" lon="10.020040572433967"><ele>33.0</ele><time>2026-04-12T10:15:23.999Z</time></trkpt><trkpt lat="45.118851122614906" lon="10.020120782270405"><ele>33.0</ele><time>2026-04-12T10:15:24.999Z</time></trkpt><trkpt lat="45.118797537200145" lon="10.020201872979468"><ele>33.0</ele><time>2026-04-12T10:15:25.999Z</time></trkpt><trkpt lat="45.11874097804903" lon="10.020282394889605"><ele>33.0</ele><time>2026-04-12T10:15:26.999Z</time></trkpt><trkpt lat="45.11868660274955" lon="10.02036302197095"><ele>33.0</ele><time>2026-04-12T10:15:27.999Z</time></trkpt><trkpt lat="45.11863237455155" lon="10.020444582670509"><ele>33.0</ele><time>2026-04-12T10:15:28.999Z</time></trkpt><trkpt lat="45.11857764800776" lon="10.02052675121185"><ele>33.0</ele><time>2026-04-12T10:15:29.999Z</time></trkpt><trkpt lat="45.11852340113172" lon="10.020606579244138"><ele>33.0</ele><time>2026-04-12T10:15:30.999Z</time></trkpt><trkpt lat="45.118469296492364" lon="10.02068726196786"><ele>33.0</ele><time>2026-04-12T10:15:31.999Z</time></trkpt><trkpt lat="45.11841487836011" lon="10.020770504491624"><ele>33.0</ele><time>2026-04-12T10:15:32.999Z</time></trkpt><trkpt lat="45.11836027847899" lon="10.020849405751669"><ele>33.0</ele><time>2026-04-12T10:15:33.999Z</time></trkpt><trkpt lat="45.11830350473719" lon="10.020928668329775"><ele>33.0</ele><time>2026-04-12T10:15:34.998Z</time></trkpt><trkpt lat="45.11824858026955" lon="10.021005511508704"><ele>33.0</ele><time>2026-04-12T10:15:35.998Z</time></trkpt><trkpt lat="45.118187798062415" lon="10.021083687797223"><ele>33.0</ele><time>2026-04-12T10:15:36.998Z</time></trkpt><trkpt lat="45.118131908377386" lon="10.021156472960953"><ele>32.833333333333336</ele><time>2026-04-12T10:15:37.998Z</time></trkpt><trkpt lat="45.11806812210766" lon="10.021230872928893"><ele>32.666666666666664</ele><time>2026-04-12T10:15:38.998Z</time></trkpt><trkpt lat="45.11800803503933" lon="10.021298652888545"><ele>32.5</ele><time>2026-04-12T10:15:39.998Z</time></trkpt><trkpt lat="45.117942642319335" lon="10.021364006306047"><ele>32.33333333333333</ele><time>2026-04-12T10:15:40.998Z</time></trkpt><trkpt lat="45.11787911720318" lon="10.021428878257584"><ele>32.166666666666664</ele><time>2026-04-12T10:15:41.998Z</time></trkpt><trkpt lat="45.117815621226285" lon="10.021497789612432"><ele>32.0</ele><time>2026-04-12T10:15:42.998Z</time></trkpt><trkpt lat="45.11775667959832" lon="10.021571381878779"><ele>31.999999999999996</ele><time>2026-04-12T10:15:43.998Z</time></trkpt><trkpt lat="45.11769557857719" lon="10.021646047442234"><ele>32.0</ele><time>2026-04-12T10:15:44.998Z</time></trkpt><trkpt lat="45.11763524600861" lon="10.021716986275251"><ele>32.0</ele><time>2026-04-12T10:15:45.998Z</time></trkpt><trkpt lat="45.11757108821355" lon="10.021787479543251"><ele>32.0</ele><time>2026-04-12T10:15:46.998Z</time></trkpt><trkpt lat="45.11751123687867" lon="10.021858609841296"><ele>31.999999999999996</ele><time>2026-04-12T10:15:47.998Z</time></trkpt><trkpt lat="45.117448982933844" lon="10.021930248096476"><ele>32.0</ele><time>2026-04-12T10:15:48.998Z</time></trkpt><trkpt lat="45.117390199151814" lon="10.022004096777213"><ele>31.999999999999996</ele><time>2026-04-12T10:15:49.998Z</time></trkpt><trkpt lat="45.11733036179594" lon="10.02207894951938"><ele>32.0</ele><time>2026-04-12T10:15:50.998Z</time></trkpt><trkpt lat="45.11727138823906" lon="10.022152310218512"><ele>32.0</ele><time>2026-04-12T10:15:51.998Z</time></trkpt><trkpt lat="45.117210529152885" lon="10.02222425059102"><ele>32.0</ele><time>2026-04-12T10:15:52.998Z</time></trkpt><trkpt lat="45.11715076495759" lon="10.02229615587576"><ele>31.999999999999996</ele><time>2026-04-12T10:15:53.998Z</time></trkpt><trkpt lat="45.11708858518581" lon="10.022365694112729"><ele>32.0</ele><time>2026-04-12T10:15:55Z</time></trkpt><trkpt lat="45.11702711977659" lon="10.022438917812952"><ele>32.166666666666664</ele><time>2026-04-12T10:15:56Z</time></trkpt><trkpt lat="45.1169680224413" lon="10.022512761320932"><ele>32.33333333333333</ele><time>2026-04-12T10:15:57Z</time></trkpt><trkpt lat="45.11690986977062" lon="10.022588923008174"><ele>32.5</ele><time>2026-04-12T10:15:58Z</time></trkpt><trkpt lat="45.116854010080374" lon="10.022669274530543"><ele>32.666666666666664</ele><time>2026-04-12T10:15:59Z</time></trkpt><trkpt lat="45.116803980060325" lon="10.022755812444792"><ele>32.833333333333336</ele><time>2026-04-12T10:16:00Z</time></trkpt><trkpt lat="45.116755481462164" lon="10.022846706852809"><ele>33.0</ele><time>2026-04-12T10:16:01Z</time></trkpt><trkpt lat="45.11670892578943" lon="10.022937317538112"><ele>33.0</ele><time>2026-04-12T10:16:02Z</time></trkpt><trkpt lat="45.11666054394675" lon="10.02302356359597"><ele>33.0</ele><time>2026-04-12T10:16:03Z</time></trkpt><trkpt lat="45.11661175106772" lon="10.023111058551292"><ele>33.0</ele><time>2026-04-12T10:16:04Z</time></trkpt><trkpt lat="45.11656348884568" lon="10.02319851335332"><ele>33.0</ele><time>2026-04-12T10:16:05Z</time></trkpt><trkpt lat="45.11651591578321" lon="10.023287575762815"><ele>33.0</ele><time>2026-04-12T10:16:06Z</time></trkpt><trkpt lat="45.116468536992286" lon="10.023373959986982"><ele>33.0</ele><time>2026-04-12T10:16:07Z</time></trkpt><trkpt lat="45.116423694569505" lon="10.023465853465831"><ele>32.833333333333336</ele><time>2026-04-12T10:16:08Z</time></trkpt><trkpt lat="45.11638004461521" lon="10.023557568133876"><ele>32.666666666666664</ele><time>2026-04-12T10:16:09Z</time></trkpt><trkpt lat="45.11633993367428" lon="10.023653407685893"><ele>32.5</ele><time>2026-04-12T10:16:10Z</time></trkpt><trkpt lat="45.116301237086226" lon="10.02374804799369"><ele>32.33333333333333</ele><time>2026-04-12T10:16:11Z</time></trkpt><trkpt lat="45.11626453888562" lon="10.02384574617888"><ele>32.166666666666664</ele><time>2026-04-12T10:16:12Z</time></trkpt><trkpt lat="45.11622646241673" lon="10.02394423687898"><ele>32.0</ele><time>2026-04-12T10:16:13Z</time></trkpt><trkpt lat="45.11619232835459" lon="10.024042078629755"><ele>31.999999999999996</ele><time>2026-04-12T10:16:14Z</time></trkpt><trkpt lat="45.116157613413925" lon="10.024138759786382"><ele>32.0</ele><time>2026-04-12T10:16:15Z</time></trkpt><trkpt lat="45.116122034246416" lon="10.024236669416721"><ele>32.0</ele><time>2026-04-12T10:16:16Z</time></trkpt><trkpt lat="45.116084710444596" lon="10.024332000358008"><ele>32.0</ele><time>2026-04-12T10:16:17Z</time></trkpt><trkpt lat="45.11605131932473" lon="10.024428572664384"><ele>31.999999999999996</ele><time>2026-04-12T10:16:18Z</time></trkpt><trkpt lat="45.11601755098141" lon="10.024526835201176"><ele>32.0</ele><time>2026-04-12T10:16:19Z</time></trkpt><trkpt lat="45.11598591369339" lon="10.024624885742043"><ele>31.999999999999996</ele><time>2026-04-12T10:16:20Z</time></trkpt><trkpt lat="45.115933694473675" lon="10.024712601724522"><ele>32.0</ele><time>2026-04-12T10:16:21Z</time></trkpt><trkpt lat="45.11589527965231" lon="10.024805940072676"><ele>32.0</ele><time>2026-04-12T10:16:22Z</time></trkpt><trkpt lat="45.11585254856291" lon="10.024898354016266"><ele>32.0</ele><time>2026-04-12T10:16:23Z</time></trkpt><trkpt lat="45.115808725620425" lon="10.024991759143974"><ele>31.999999999999996</ele><time>2026-04-12T10:16:24Z</time></trkpt><trkpt lat="45.11573838550655" lon="10.025050687527742"><ele>32.0</ele><time>2026-04-12T10:16:25Z</time></trkpt><trkpt lat="45.11566584613532" lon="10.025103012263328"><ele>31.833333333333332</ele><time>2026-04-12T10:16:26Z</time></trkpt><trkpt lat="45.11559128134492" lon="10.025148414025427"><ele>31.666666666666664</ele><time>2026-04-12T10:16:27Z</time></trkpt><trkpt lat="45.115514511837006" lon="10.025182147082363"><ele>31.5</ele><time>2026-04-12T10:16:28Z</time></trkpt><trkpt lat="45.11543900839185" lon="10.025214856020732"><ele>31.333333333333336</ele><time>2026-04-12T10:16:29Z</time></trkpt><trkpt lat="45.11536533512166" lon="10.025254124596062"><ele>31.166666666666668</ele><time>2026-04-12T10:16:30Z</time></trkpt><trkpt lat="45.11528540669816" lon="10.025282776647293"><ele>31.0</ele><time>2026-04-12T10:16:31Z</time></trkpt><trkpt lat="45.1152117504058" lon="10.025313923249586"><ele>31.000000000000004</ele><time>2026-04-12T10:16:32Z</time></trkpt><trkpt lat="45.11513394434475" lon="10.025344978272715"><ele>31.0</ele><time>2026-04-12T10:16:33Z</time></trkpt><trkpt lat="45.11505660119025" lon="10.02536582526979"><ele>31.0</ele><time>2026-04-12T10:16:34Z</time></trkpt><trkpt lat="45.11497825842532" lon="10.025390413208633"><ele>31.0</ele><time>2026-04-12T10:16:35Z</time></trkpt><trkpt lat="45.1148983365189" lon="10.025417382929847"><ele>31.000000000000004</ele><time>2026-04-12T10:16:36Z</time></trkpt><trkpt lat="45.114823009574785" lon="10.02544444100695"><ele>31.0</ele><time>2026-04-12T10:16:37Z</time></trkpt><trkpt lat="45.11474622651728" lon="10.025475691018324"><ele>31.000000000000004</ele><time>2026-04-12T10:16:38Z</time></trkpt><trkpt lat="45.114669971035276" lon="10.025502713130155"><ele>31.0</ele><time>2026-04-12T10:16:39Z</time></trkpt><trkpt lat="45.114590599460634" lon="10.02552646408389"><ele>31.0</ele><time>2026-04-12T10:16:40Z</time></trkpt><trkpt lat="45.114514215890004" lon="10.025551142257546"><ele>31.0</ele><time>2026-04-12T10:16:41Z</time></trkpt><trkpt lat="45.11443614152201" lon="10.025573781600967"><ele>31.000000000000004</ele><time>2026-04-12T10:16:42Z</time></trkpt><trkpt lat="45.11436268232814" lon="10.025624127634343"><ele>31.0</ele><time>2026-04-12T10:16:43Z</time></trkpt><trkpt lat="45.11428484033322" lon="10.025648608652133"><ele>31.000000000000004</ele><time>2026-04-12T10:16:44Z</time></trkpt><trkpt lat="45.114205763480534" lon="10.025655159059385"><ele>31.0</ele><time>2026-04-12T10:16:45Z</time></trkpt><trkpt lat="45.1141294638622" lon="10.025683567297385"><ele>31.0</ele><time>2026-04-12T10:16:46Z</time></trkpt><trkpt lat="45.11405287111866" lon="10.025709062705424"><ele>31.0</ele><time>2026-04-12T10:16:46.999Z</time></trkpt><trkpt lat="45.113975336086476" lon="10.025730362225383"><ele>31.000000000000004</ele><time>2026-04-12T10:16:47.999Z</time></trkpt><trkpt lat="45.11389873758596" lon="10.025755657585675"><ele>31.0</ele><time>2026-04-12T10:16:48.999Z</time></trkpt><trkpt lat="45.113822110490574" lon="10.025783584607666"><ele>31.333333333333336</ele><time>2026-04-12T10:16:49.999Z</time></trkpt><trkpt lat="45.11374575008352" lon="10.025809598089786"><ele>31.666666666666668</ele><time>2026-04-12T10:16:50.999Z</time></trkpt><trkpt lat="45.113671529422476" lon="10.025835053039415"><ele>32.0</ele><time>2026-04-12T10:16:51.999Z</time></trkpt><trkpt lat="45.113598602273186" lon="10.025861684518324"><ele>32.333333333333336</ele><time>2026-04-12T10:16:52.999Z</time></trkpt><trkpt lat="45.113524290964726" lon="10.025885246176118"><ele>32.666666666666664</ele><time>2026-04-12T10:16:53.999Z</time></trkpt><trkpt lat="45.11344658932135" lon="10.025907674450192"><ele>33.0</ele><time>2026-04-12T10:16:54.999Z</time></trkpt><trkpt lat="45.11336409362884" lon="10.025930943346042"><ele>33.0</ele><time>2026-04-12T10:16:55.999Z</time></trkpt><trkpt lat="45.11328489924422" lon="10.025959578491824"><ele>33.0</ele><time>2026-04-12T10:16:56.999Z</time></trkpt><trkpt lat="45.113205479994235" lon="10.025985803178914"><ele>33.0</ele><time>2026-04-12T10:16:57.999Z</time></trkpt><trkpt lat="45.11312764850771" lon="10.026010915643765"><ele>33.0</ele><time>2026-04-12T10:16:58.999Z</time></trkpt><trkpt lat="45.11305053235138" lon="10.02603904198038"><ele>33.0</ele><time>2026-04-12T10:16:59.999Z</time></trkpt><trkpt lat="45.11297199111187" lon="10.026064343282028"><ele>33.0</ele><time>2026-04-12T10:17:00.999Z</time></trkpt><trkpt lat="45.11289351553962" lon="10.026094041795366"><ele>32.833333333333336</ele><time>2026-04-12T10:17:01.999Z</time></trkpt><trkpt lat="45.11281632703085" lon="10.026122105051375"><ele>32.666666666666664</ele><time>2026-04-12T10:17:02.999Z</time></trkpt><trkpt lat="45.11273851536392" lon="10.02614911004825"><ele>32.5</ele><time>2026-04-12T10:17:03.999Z</time></trkpt><trkpt lat="45.11266172951151" lon="10.026178762942891"><ele>32.33333333333333</ele><time>2026-04-12T10:17:04.999Z</time></trkpt><trkpt lat="45.11258631988081" lon="10.02621106738348"><ele>32.166666666666664</ele><time>2026-04-12T10:17:05.999Z</time></trkpt><trkpt lat="45.11250868832402" lon="10.026251932494354"><ele>32.0</ele><time>2026-04-12T10:17:06.999Z</time></trkpt><trkpt lat="45.11243503660865" lon="10.026295228016107"><ele>31.999999999999996</ele><time>2026-04-12T10:17:07.999Z</time></trkpt><trkpt lat="45.11235943608759" lon="10.026338353964459"><ele>32.0</ele><time>2026-04-12T10:17:08.999Z</time></trkpt><trkpt lat="45.1122839808704" lon="10.026379275455907"><ele>32.0</ele><time>2026-04-12T10:17:09.999Z</time></trkpt><trkpt lat="45.112210121892026" lon="10.026421429654166"><ele>32.0</ele><time>2026-04-12T10:17:10.999Z</time></trkpt><trkpt lat="45.112135856230665" lon="10.026463886485937"><ele>31.999999999999996</ele><time>2026-04-12T10:17:11.999Z</time></trkpt><trkpt lat="45.1120601652861" lon="10.02650539923211"><ele>32.0</ele><time>2026-04-12T10:17:12.999Z</time></trkpt><trkpt lat="45.111985596249504" lon="10.02654729772897"><ele>31.999999999999996</ele><time>2026-04-12T10:17:13.999Z</time></trkpt><trkpt lat="45.11191044423376" lon="10.026586612341571"><ele>32.0</ele><time>2026-04-12T10:17:14.999Z</time></trkpt><trkpt lat="45.111837480782754" lon="10.026628021329865"><ele>32.0</ele><time>2026-04-12T10:17:15.999Z</time></trkpt><trkpt lat="45.11176181810789" lon="10.026668057965557"><ele>32.0</ele><time>2026-04-12T10:17:16.999Z</time></trkpt><trkpt lat="45.11168557094464" lon="10.026708707689615"><ele>31.999999999999996</ele><time>2026-04-12T10:17:17.999Z</time></trkpt><trkpt lat="45.111613011272254" lon="10.026750977997077"><ele>32.0</ele><time>2026-04-12T10:17:18.999Z</time></trkpt><trkpt lat="45.11153798464249" lon="10.026792255075161"><ele>32.5</ele><time>2026-04-12T10:17:19.999Z</time></trkpt><trkpt lat="45.111465386637974" lon="10.02683462207618"><ele>33.0</ele><time>2026-04-12T10:17:20.999Z</time></trkpt><trkpt lat="45.11139146978955" lon="10.0268773502139"><ele>33.5</ele><time>2026-04-12T10:17:21.999Z</time></trkpt><trkpt lat="45.11131854236504" lon="10.026915925613391"><ele>34.0</ele><time>2026-04-12T10:17:22.999Z</time></trkpt><trkpt lat="45.11124437717908" lon="10.026956291967963"><ele>34.5</ele><time>2026-04-12T10:17:23.999Z</time></trkpt><trkpt lat="45.11116980238523" lon="10.026995713124753"><ele>35.0</ele><time>2026-04-12T10:17:24.999Z</time></trkpt><trkpt lat="45.11109525696599" lon="10.027034727967418"><ele>35.0</ele><time>2026-04-12T10:17:25.999Z</time></trkpt><trkpt lat="45.11102245108565" lon="10.027076602811023"><ele>35.0</ele><time>2026-04-12T10:17:26.999Z</time></trkpt><trkpt lat="45.11094826724254" lon="10.027119614779854"><ele>35.0</ele><time>2026-04-12T10:17:27.999Z</time></trkpt><trkpt lat="45.11087475870855" lon="10.027160542016903"><ele>35.0</ele><time>2026-04-12T10:17:28.999Z</time></trkpt><trkpt lat="45.110793799114546" lon="10.027179212136982"><ele>35.0</ele><time>2026-04-12T10:17:29.999Z</time></trkpt><trkpt lat="45.11072071744331" lon="10.027213248718587"><ele>35.0</ele><time>2026-04-12T10:17:30.999Z</time></trkpt><trkpt lat="45.110648127055974" lon="10.027269027605003"><ele>34.666666666666664</ele><time>2026-04-12T10:17:31.999Z</time></trkpt><trkpt lat="45.110572018879395" lon="10.027296601925828"><ele>34.33333333333333</ele><time>2026-04-12T10:17:32.999Z</time></trkpt><trkpt lat="45.11049339821369" lon="10.027317617125226"><ele>34.0</ele><time>2026-04-12T10:17:33.999Z</time></trkpt><trkpt lat="45.11041580176128" lon="10.02734310952327"><ele>33.666666666666664</ele><time>2026-04-12T10:17:34.999Z</time></trkpt><trkpt lat="45.11033660755608" lon="10.027366986236187"><ele>33.333333333333336</ele><time>2026-04-12T10:17:35.999Z</time></trkpt><trkpt lat="45.11026129720193" lon="10.027395932379191"><ele>33.0</ele><time>2026-04-12T10:17:36.999Z</time></trkpt><trkpt lat="45.11018159597769" lon="10.027423307973512"><ele>33.0</ele><time>2026-04-12T10:17:37.999Z</time></trkpt><trkpt lat="45.11010538589129" lon="10.027449512640255"><ele>33.0</ele><time>2026-04-12T10:17:38.999Z</time></trkpt><trkpt lat="45.11002848941088" lon="10.02747927924986"><ele>33.0</ele><time>2026-04-12T10:17:39.998Z</time></trkpt><trkpt lat="45.10995081083063" lon="10.027507396613107"><ele>33.0</ele><time>2026-04-12T10:17:40.998Z</time></trkpt><trkpt lat="45.10987448678586" lon="10.027536563498968"><ele>33.0</ele><time>2026-04-12T10:17:41.998Z</time></trkpt><trkpt lat="45.10979667797848" lon="10.027562965027245"><ele>33.0</ele><time>2026-04-12T10:17:42.998Z</time></trkpt><trkpt lat="45.1097182186407" lon="10.027589835930472"><ele>32.833333333333336</ele><time>2026-04-12T10:17:43.998Z</time></trkpt><trkpt lat="45.109640536567575" lon="10.027617007368491"><ele>32.666666666666664</ele><time>2026-04-12T10:17:44.998Z</time></trkpt><trkpt lat="45.10956204992903" lon="10.027644200499715"><ele>32.5</ele><time>2026-04-12T10:17:45.998Z</time></trkpt><trkpt lat="45.10948369652632" lon="10.027670879707296"><ele>32.33333333333333</ele><time>2026-04-12T10:17:46.998Z</time></trkpt><trkpt lat="45.10940557249264" lon="10.02769906439255"><ele>32.166666666666664</ele><time>2026-04-12T10:17:47.998Z</time></trkpt><trkpt lat="45.10932833990454" lon="10.027726763647493"><ele>32.0</ele><time>2026-04-12T10:17:48.998Z</time></trkpt><trkpt lat="45.10925096031856" lon="10.027752759885415"><ele>31.999999999999996</ele><time>2026-04-12T10:17:49.998Z</time></trkpt><trkpt lat="45.10917288131049" lon="10.02777317309395"><ele>32.0</ele><time>2026-04-12T10:17:50.998Z</time></trkpt><trkpt lat="45.10909323173027" lon="10.027791070098736"><ele>32.0</ele><time>2026-04-12T10:17:51.998Z</time></trkpt><trkpt lat="45.1090158057791" lon="10.027811973021988"><ele>32.0</ele><time>2026-04-12T10:17:52.998Z</time></trkpt><trkpt lat="45.1089355797718" lon="10.027831082788225"><ele>31.999999999999996</ele><time>2026-04-12T10:17:53.998Z</time></trkpt><trkpt lat="45.10885861099789" lon="10.027859023566863"><ele>32.0</ele><time>2026-04-12T10:17:54.998Z</time></trkpt><trkpt lat="45.108780421407864" lon="10.027883351655298"><ele>32.166666666666664</ele><time>2026-04-12T10:17:55.998Z</time></trkpt><trkpt lat="45.10870329155184" lon="10.027914068520214"><ele>32.33333333333333</ele><time>2026-04-12T10:17:56.998Z</time></trkpt><trkpt lat="45.10862549328624" lon="10.02794015061403"><ele>32.5</ele><time>2026-04-12T10:17:57.998Z</time></trkpt><trkpt lat="45.1085462008067" lon="10.027960744592898"><ele>32.666666666666664</ele><time>2026-04-12T10:17:58.998Z</time></trkpt><trkpt lat="45.10846769613576" lon="10.02797923466493"><ele>32.833333333333336</ele><time>2026-04-12T10:17:59.998Z</time></trkpt><trkpt lat="45.10838824625071" lon="10.027997421051097"><ele>33.0</ele><time>2026-04-12T10:18:01Z</time></trkpt><trkpt lat="45.10830665041501" lon="10.027999749969588"><ele>32.833333333333336</ele><time>2026-04-12T10:18:02Z</time></trkpt><trkpt lat="45.10822700733846" lon="10.028004705556238"><ele>32.666666666666664</ele><time>2026-04-12T10:18:03Z</time></trkpt><trkpt lat="45.10814542704206" lon="10.028002091360744"><ele>32.5</ele><time>2026-04-12T10:18:04Z</time></trkpt><trkpt lat="45.1080651172361" lon="10.0279991472793"><ele>32.33333333333333</ele><time>2026-04-12T10:18:05Z</time></trkpt><trkpt lat="45.10798307060994" lon="10.027994730978396"><ele>32.166666666666664</ele><time>2026-04-12T10:18:06Z</time></trkpt><trkpt lat="45.10790124748395" lon="10.027991152401084"><ele>32.0</ele><time>2026-04-12T10:18:07Z</time></trkpt><trkpt lat="45.10781953051708" lon="10.027986240446724"><ele>31.999999999999996</ele><time>2026-04-12T10:18:08Z</time></trkpt><trkpt lat="45.107738194059316" lon="10.02798263081489"><ele>32.0</ele><time>2026-04-12T10:18:09Z</time></trkpt><trkpt lat="45.10765584726854" lon="10.027982914642058"><ele>32.0</ele><time>2026-04-12T10:18:10Z</time></trkpt><trkpt lat="45.107574991649216" lon="10.027977528643213"><ele>32.0</ele><time>2026-04-12T10:18:11Z</time></trkpt><trkpt lat="45.10748924835914" lon="10.02797080152952"><ele>31.999999999999996</ele><time>2026-04-12T10:18:12Z</time></trkpt><trkpt lat="45.10740884405612" lon="10.0279690422227"><ele>32.0</ele><time>2026-04-12T10:18:13Z</time></trkpt><trkpt lat="45.10732658524808" lon="10.027965425865634"><ele>32.5</ele><time>2026-04-12T10:18:14Z</time></trkpt><trkpt lat="45.10724544475359" lon="10.027961256333677"><ele>33.0</ele><time>2026-04-12T10:18:15Z</time></trkpt><trkpt lat="45.10716507295667" lon="10.027956611525914"><ele>33.5</ele><time>2026-04-12T10:18:16Z</time></trkpt><trkpt lat="45.1070835938023" lon="10.027952183033532"><ele>34.0</ele><time>2026-04-12T10:18:17Z</time></trkpt><trkpt lat="45.10700359832248" lon="10.02794761279608"><ele>34.5</ele><time>2026-04-12T10:18:18Z</time></trkpt><trkpt lat="45.106923340190896" lon="10.027945596534384"><ele>35.0</ele><time>2026-04-12T10:18:19Z</time></trkpt><trkpt lat="45.106841389198756" lon="10.027941459156661"><ele>35.0</ele><time>2026-04-12T10:18:20Z</time></trkpt><trkpt lat="45.10676066674646" lon="10.02793749832277"><ele>35.0</ele><time>2026-04-12T10:18:21Z</time></trkpt><trkpt lat="45.10668097531434" lon="10.027940145392686"><ele>35.0</ele><time>2026-04-12T10:18:22Z</time></trkpt><trkpt lat="45.106599459287054" lon="10.027940015315808"><ele>35.0</ele><time>2026-04-12T10:18:23Z</time></trkpt><trkpt lat="45.10651890029382" lon="10.027937650685821"><ele>35.0</ele><time>2026-04-12T10:18:24Z</time></trkpt><trkpt lat="45.10643728599818" lon="10.027936381961004"><ele>35.0</ele><time>2026-04-12T10:18:25Z</time></trkpt><trkpt lat="45.10635508298695" lon="10.027937242545116"><ele>34.666666666666664</ele><time>2026-04-12T10:18:26Z</time></trkpt><trkpt lat="45.10627441883797" lon="10.027939338095537"><ele>34.33333333333333</ele><time>2026-04-12T10:18:27Z</time></trkpt><trkpt lat="45.10619326803433" lon="10.0279422962902"><ele>34.0</ele><time>2026-04-12T10:18:28Z</time></trkpt><trkpt lat="45.1061115456071" lon="10.027939146367753"><ele>33.666666666666664</ele><time>2026-04-12T10:18:29Z</time></trkpt><trkpt lat="45.106029815219124" lon="10.027942006238272"><ele>33.333333333333336</ele><time>2026-04-12T10:18:30Z</time></trkpt><trkpt lat="45.1059514670069" lon="10.027952574767138"><ele>33.0</ele><time>2026-04-12T10:18:31Z</time></trkpt><trkpt lat="45.105870535348515" lon="10.027973147831107"><ele>33.0</ele><time>2026-04-12T10:18:32Z</time></trkpt><trkpt lat="45.10579545826116" lon="10.02800575474201"><ele>33.0</ele><time>2026-04-12T10:18:33Z</time></trkpt><trkpt lat="45.10571891370917" lon="10.028042578401886"><ele>33.0</ele><time>2026-04-12T10:18:34Z</time></trkpt><trkpt lat="45.105644256580995" lon="10.02808255718081"><ele>33.0</ele><time>2026-04-12T10:18:35Z</time></trkpt><trkpt lat="45.10557102145828" lon="10.028126523199841"><ele>33.0</ele><time>2026-04-12T10:18:36Z</time></trkpt><trkpt lat="45.10549634668229" lon="10.028167593328117"><ele>33.0</ele><time>2026-04-12T10:18:37Z</time></trkpt><trkpt lat="45.10542253715725" lon="10.028208802745743"><ele>32.666666666666664</ele><time>2026-04-12T10:18:38Z</time></trkpt><trkpt lat="45.10535097545346" lon="10.028250141896885"><ele>32.333333333333336</ele><time>2026-04-12T10:18:39Z</time></trkpt><trkpt lat="45.105277019668264" lon="10.02829139814983"><ele>32.0</ele><time>2026-04-12T10:18:40Z</time></trkpt><trkpt lat="45.10520370753165" lon="10.028333756192247"><ele>31.666666666666668</ele><time>2026-04-12T10:18:41Z</time></trkpt><trkpt lat="45.10512881479021" lon="10.02837451509024"><ele>31.333333333333336</ele><time>2026-04-12T10:18:42Z</time></trkpt><trkpt lat="45.105055262756885" lon="10.028417645103136"><ele>31.0</ele><time>2026-04-12T10:18:43Z</time></trkpt><trkpt lat="45.104984064174545" lon="10.02846598898235"><ele>31.666666666666668</ele><time>2026-04-12T10:18:44Z</time></trkpt><trkpt lat="45.10491344341078" lon="10.028516296639166"><ele>32.333333333333336</ele><time>2026-04-12T10:18:45Z</time></trkpt><trkpt lat="45.10484700944297" lon="10.028573020844311"><ele>33.0</ele><time>2026-04-12T10:18:46Z</time></trkpt><trkpt lat="45.10477766032369" lon="10.028627810139765"><ele>33.666666666666664</ele><time>2026-04-12T10:18:47Z</time></trkpt><trkpt lat="45.10471152801849" lon="10.028685305124926"><ele>34.33333333333333</ele><time>2026-04-12T10:18:48Z</time></trkpt><trkpt lat="45.10464319924915" lon="10.028739920148697"><ele>35.0</ele><time>2026-04-12T10:18:49Z</time></trkpt><trkpt lat="45.10457788958401" lon="10.028796779023514"><ele>35.285714285714285</ele><time>2026-04-12T10:18:50Z</time></trkpt><trkpt lat="45.104515459129004" lon="10.028852187365976"><ele>35.57142857142857</ele><time>2026-04-12T10:18:51Z</time></trkpt><trkpt lat="45.104454623289016" lon="10.028909902152748"><ele>35.85714285714286</ele><time>2026-04-12T10:18:51.999Z</time></trkpt><trkpt lat="45.10440236542777" lon="10.028977448500273"><ele>36.14285714285714</ele><time>2026-04-12T10:18:52.999Z</time></trkpt><trkpt lat="45.10436680340964" lon="10.02906059356678"><ele>36.42857142857143</ele><time>2026-04-12T10:18:53.999Z</time></trkpt><trkpt lat="45.10434240328232" lon="10.029153650942959"><ele>36.714285714285715</ele><time>2026-04-12T10:18:54.999Z</time></trkpt><trkpt lat="45.10431821527023" lon="10.029250657603791"><ele>37.0</ele><time>2026-04-12T10:18:55.999Z</time></trkpt><trkpt lat="45.10429683531919" lon="10.029353418315358"><ele>37.16666666666667</ele><time>2026-04-12T10:18:56.999Z</time></trkpt><trkpt lat="45.10425031652924" lon="10.029452713207847"><ele>37.333333333333336</ele><time>2026-04-12T10:18:57.999Z</time></trkpt><trkpt lat="45.10423478793833" lon="10.029565185484286"><ele>37.5</ele><time>2026-04-12T10:18:58.999Z</time></trkpt><trkpt lat="45.104230403253474" lon="10.029685710659198"><ele>37.666666666666664</ele><time>2026-04-12T10:18:59.999Z</time></trkpt><trkpt lat="45.10423425349739" lon="10.02980024990193"><ele>37.83333333333333</ele><time>2026-04-12T10:19:00.999Z</time></trkpt><trkpt lat="45.10423711699185" lon="10.029916238646962"><ele>38.0</ele><time>2026-04-12T10:19:01.999Z</time></trkpt><trkpt lat="45.10423738080397" lon="10.030028199303311"><ele>38.0</ele><time>2026-04-12T10:19:02.999Z</time></trkpt><trkpt lat="45.10422203269222" lon="10.0301365760866"><ele>38.0</ele><time>2026-04-12T10:19:03.999Z</time></trkpt><trkpt lat="45.1041834735725" lon="10.030226023065952"><ele>38.0</ele><time>2026-04-12T10:19:04.999Z</time></trkpt><trkpt lat="45.10412981667877" lon="10.030298800326216"><ele>38.0</ele><time>2026-04-12T10:19:05.999Z</time></trkpt><trkpt lat="45.10407404002004" lon="10.030367093478459"><ele>38.0</ele><time>2026-04-12T10:19:06.999Z</time></trkpt><trkpt lat="45.104033225293804" lon="10.030441341370766"><ele>38.0</ele><time>2026-04-12T10:19:07.999Z</time></trkpt><trkpt lat="45.10397198138682" lon="10.030500739266017"><ele>38.0</ele><time>2026-04-12T10:19:08.999Z</time></trkpt><trkpt lat="45.10389511361929" lon="10.030542981765416"><ele>38.33333333333333</ele><time>2026-04-12T10:19:09.999Z</time></trkpt><trkpt lat="45.103834536259654" lon="10.030591988782442"><ele>38.666666666666664</ele><time>2026-04-12T10:19:10.999Z</time></trkpt><trkpt lat="45.10377858950443" lon="10.030636962187787"><ele>39.0</ele><time>2026-04-12T10:19:11.999Z</time></trkpt><trkpt lat="45.103653511021896" lon="10.030737062197293"><ele>39.333333333333336</ele><time>2026-04-12T10:19:13.999Z</time></trkpt><trkpt lat="45.1035989070473" lon="10.030787927384397"><ele>39.66666666666667</ele><time>2026-04-12T10:19:14.999Z</time></trkpt><trkpt lat="45.10354769700936" lon="10.030850203901688"><ele>40.0</ele><time>2026-04-12T10:19:15.999Z</time></trkpt><trkpt lat="45.10346702819346" lon="10.030977954444955"><ele>39.2</ele><time>2026-04-12T10:19:17.999Z</time></trkpt><trkpt lat="45.103427013591684" lon="10.031047376318234"><ele>38.4</ele><time>2026-04-12T10:19:18.999Z</time></trkpt><trkpt lat="45.10335119259663" lon="10.031181639100895"><ele>37.6</ele><time>2026-04-12T10:19:20.999Z</time></trkpt><trkpt lat="45.103279751798894" lon="10.031308145519702"><ele>36.8</ele><time>2026-04-12T10:19:22.999Z</time></trkpt><trkpt lat="45.10322054276743" lon="10.031445892502477"><ele>36.0</ele><time>2026-04-12T10:19:24.999Z</time></trkpt><trkpt lat="45.10314719379585" lon="10.031568027177357"><ele>35.6</ele><time>2026-04-12T10:19:26.999Z</time></trkpt><trkpt lat="45.10306609056548" lon="10.031695031810909"><ele>35.2</ele><time>2026-04-12T10:19:28.999Z</time></trkpt><trkpt lat="45.102987276483184" lon="10.031831960749916"><ele>34.8</ele><time>2026-04-12T10:19:30.999Z</time></trkpt><trkpt lat="45.102945401930256" lon="10.031906695511376"><ele>34.4</ele><time>2026-04-12T10:19:31.999Z</time></trkpt><trkpt lat="45.10286793098459" lon="10.032053808377416"><ele>34.0</ele><time>2026-04-12T10:19:33.999Z</time></trkpt><trkpt lat="45.10282536236987" lon="10.032122924616766"><ele>34.0</ele><time>2026-04-12T10:19:34.999Z</time></trkpt><trkpt lat="45.102781378872066" lon="10.032194314007178"><ele>34.0</ele><time>2026-04-12T10:19:35.999Z</time></trkpt><trkpt lat="45.102701489520456" lon="10.03231553446133"><ele>34.0</ele><time>2026-04-12T10:19:37.999Z</time></trkpt><trkpt lat="45.10265512635194" lon="10.032389835211013"><ele>34.0</ele><time>2026-04-12T10:19:38.999Z</time></trkpt><trkpt lat="45.10260367459009" lon="10.03247099347791"><ele>34.0</ele><time>2026-04-12T10:19:39.999Z</time></trkpt><trkpt lat="45.102543459696435" lon="10.032568035472167"><ele>34.0</ele><time>2026-04-12T10:19:40.999Z</time></trkpt><trkpt lat="45.10248853256412" lon="10.032649102378132"><ele>33.99999999999999</ele><time>2026-04-12T10:19:41.999Z</time></trkpt><trkpt lat="45.10244095613067" lon="10.032723294813003"><ele>34.0</ele><time>2026-04-12T10:19:42.999Z</time></trkpt><trkpt lat="45.10239000072904" lon="10.032798668923746"><ele>34.0</ele><time>2026-04-12T10:19:43.998Z</time></trkpt><trkpt lat="45.10234113352527" lon="10.032872059717954"><ele>34.0</ele><time>2026-04-12T10:19:44.998Z</time></trkpt><trkpt lat="45.10228886523482" lon="10.032942467627015"><ele>34.0</ele><time>2026-04-12T10:19:45.998Z</time></trkpt><trkpt lat="45.102231936899926" lon="10.033010337609491"><ele>33.99999999999999</ele><time>2026-04-12T10:19:46.998Z</time></trkpt><trkpt lat="45.102172681950385" lon="10.033070871623694"><ele>34.0</ele><time>2026-04-12T10:19:47.998Z</time></trkpt><trkpt lat="45.10210968613191" lon="10.033124075072989"><ele>33.99999999999999</ele><time>2026-04-12T10:19:48.998Z</time></trkpt><trkpt lat="45.10204453108191" lon="10.033174004557779"><ele>34.0</ele><time>2026-04-12T10:19:49.998Z</time></trkpt><trkpt lat="45.10197790219987" lon="10.033218327545452"><ele>34.0</ele><time>2026-04-12T10:19:50.998Z</time></trkpt><trkpt lat="45.10191000494789" lon="10.033258876020591"><ele>34.0</ele><time>2026-04-12T10:19:51.998Z</time></trkpt><trkpt lat="45.10184169625879" lon="10.033302140624006"><ele>34.0</ele><time>2026-04-12T10:19:52.998Z</time></trkpt><trkpt lat="45.101773246623324" lon="10.033343007691746"><ele>33.99999999999999</ele><time>2026-04-12T10:19:53.998Z</time></trkpt><trkpt lat="45.10170261638153" lon="10.033383750510872"><ele>34.0</ele><time>2026-04-12T10:19:54.998Z</time></trkpt><trkpt lat="45.10162693112941" lon="10.03340115822313"><ele>33.833333333333336</ele><time>2026-04-12T10:19:55.998Z</time></trkpt><trkpt lat="45.10155667034693" lon="10.033443535353136"><ele>33.66666666666667</ele><time>2026-04-12T10:19:56.998Z</time></trkpt><trkpt lat="45.101495183695384" lon="10.03350925169896"><ele>33.5</ele><time>2026-04-12T10:19:57.998Z</time></trkpt><trkpt lat="45.10141824553065" lon="10.033526751557652"><ele>33.333333333333336</ele><time>2026-04-12T10:19:58.998Z</time></trkpt><trkpt lat="45.10134942833181" lon="10.033569063404222"><ele>33.166666666666664</ele><time>2026-04-12T10:19:59.998Z</time></trkpt><trkpt lat="45.10128033098185" lon="10.033611901880855"><ele>33.0</ele><time>2026-04-12T10:20:00.998Z</time></trkpt><trkpt lat="45.10121817784339" lon="10.033675617859139"><ele>33.0</ele><time>2026-04-12T10:20:01.998Z</time></trkpt><trkpt lat="45.10114381817523" lon="10.033696536082749"><ele>33.0</ele><time>2026-04-12T10:20:02.998Z</time></trkpt><trkpt lat="45.101074792166756" lon="10.033739330331823"><ele>33.0</ele><time>2026-04-12T10:20:03.998Z</time></trkpt><trkpt lat="45.10100489583278" lon="10.03378247155614"><ele>33.0</ele><time>2026-04-12T10:20:04.998Z</time></trkpt><trkpt lat="45.10093409827132" lon="10.033825894660621"><ele>33.0</ele><time>2026-04-12T10:20:06Z</time></trkpt><trkpt lat="45.10086382849202" lon="10.033869101372359"><ele>33.0</ele><time>2026-04-12T10:20:07Z</time></trkpt><trkpt lat="45.10079558029601" lon="10.033911856461728"><ele>33.0</ele><time>2026-04-12T10:20:08Z</time></trkpt><trkpt lat="45.10072715884364" lon="10.033954720094423"><ele>33.0</ele><time>2026-04-12T10:20:09Z</time></trkpt><trkpt lat="45.10065826694989" lon="10.033997878447142"><ele>33.0</ele><time>2026-04-12T10:20:10Z</time></trkpt><trkpt lat="45.10058889684206" lon="10.034041336385727"><ele>33.0</ele><time>2026-04-12T10:20:11Z</time></trkpt><trkpt lat="45.1005209465519" lon="10.034083904847071"><ele>33.0</ele><time>2026-04-12T10:20:12Z</time></trkpt><trkpt lat="45.10045101318102" lon="10.034127715669388"><ele>33.0</ele><time>2026-04-12T10:20:13Z</time></trkpt><trkpt lat="45.100382250143646" lon="10.034170793269526"><ele>33.166666666666664</ele><time>2026-04-12T10:20:14Z</time></trkpt><trkpt lat="45.10031340826019" lon="10.034213920282225"><ele>33.333333333333336</ele><time>2026-04-12T10:20:15Z</time></trkpt><trkpt lat="45.10024569991869" lon="10.034256531573575"><ele>33.5</ele><time>2026-04-12T10:20:16Z</time></trkpt><trkpt lat="45.10017652629613" lon="10.034301008358575"><ele>33.66666666666667</ele><time>2026-04-12T10:20:17Z</time></trkpt><trkpt lat="45.100105880014766" lon="10.034346432008524"><ele>33.833333333333336</ele><time>2026-04-12T10:20:18Z</time></trkpt><trkpt lat="45.100035482865245" lon="10.034391695507624"><ele>34.0</ele><time>2026-04-12T10:20:19Z</time></trkpt><trkpt lat="45.09996541020019" lon="10.034436558795964"><ele>33.5</ele><time>2026-04-12T10:20:20Z</time></trkpt><trkpt lat="45.099901497485625" lon="10.034500719635416"><ele>33.0</ele><time>2026-04-12T10:20:21Z</time></trkpt><trkpt lat="45.09982667232029" lon="10.034532531541076"><ele>32.5</ele><time>2026-04-12T10:20:22Z</time></trkpt><trkpt lat="45.09975283817013" lon="10.03456298997564"><ele>32.0</ele><time>2026-04-12T10:20:23Z</time></trkpt><trkpt lat="45.099679373091824" lon="10.034590502652033"><ele>31.500000000000004</ele><time>2026-04-12T10:20:24Z</time></trkpt><trkpt lat="45.099599700705674" lon="10.034583864628251"><ele>31.0</ele><time>2026-04-12T10:20:25Z</time></trkpt><trkpt lat="45.09952228442861" lon="10.034615651005844"><ele>31.000000000000004</ele><time>2026-04-12T10:20:26Z</time></trkpt><trkpt lat="45.099444394103614" lon="10.034622860536448"><ele>31.0</ele><time>2026-04-12T10:20:27Z</time></trkpt><trkpt lat="45.09936505347516" lon="10.034632886046667"><ele>31.0</ele><time>2026-04-12T10:20:28Z</time></trkpt><trkpt lat="45.099284457396905" lon="10.034623094649202"><ele>31.0</ele><time>2026-04-12T10:20:29Z</time></trkpt><trkpt lat="45.099204948068724" lon="10.034634503519774"><ele>31.000000000000004</ele><time>2026-04-12T10:20:30Z</time></trkpt><trkpt lat="45.09912720024318" lon="10.03466910816084"><ele>31.0</ele><time>2026-04-12T10:20:31Z</time></trkpt><trkpt lat="45.09904747941495" lon="10.034679419173946"><ele>31.333333333333336</ele><time>2026-04-12T10:20:32Z</time></trkpt><trkpt lat="45.09896996561725" lon="10.034691697446709"><ele>31.666666666666668</ele><time>2026-04-12T10:20:33Z</time></trkpt><trkpt lat="45.098890249307324" lon="10.034706592574755"><ele>32.0</ele><time>2026-04-12T10:20:34Z</time></trkpt><trkpt lat="45.09881207118545" lon="10.034718381017708"><ele>32.333333333333336</ele><time>2026-04-12T10:20:35Z</time></trkpt><trkpt lat="45.09873391845015" lon="10.034729901328063"><ele>32.666666666666664</ele><time>2026-04-12T10:20:36Z</time></trkpt><trkpt lat="45.09865497481413" lon="10.034742430084046"><ele>33.0</ele><time>2026-04-12T10:20:37Z</time></trkpt><trkpt lat="45.0985760196877" lon="10.034753942833067"><ele>33.0</ele><time>2026-04-12T10:20:38Z</time></trkpt><trkpt lat="45.0984993748857" lon="10.034728962234473"><ele>33.0</ele><time>2026-04-12T10:20:39Z</time></trkpt><trkpt lat="45.09842054614044" lon="10.034770858607748"><ele>33.0</ele><time>2026-04-12T10:20:40Z</time></trkpt><trkpt lat="45.098340249019664" lon="10.034783551467646"><ele>33.0</ele><time>2026-04-12T10:20:41Z</time></trkpt><trkpt lat="45.098263711144526" lon="10.034793882295322"><ele>33.0</ele><time>2026-04-12T10:20:42Z</time></trkpt><trkpt lat="45.09818486914094" lon="10.034804012420327"><ele>33.0</ele><time>2026-04-12T10:20:43Z</time></trkpt><trkpt lat="45.098107046712805" lon="10.034786921076003"><ele>33.42857142857143</ele><time>2026-04-12T10:20:44Z</time></trkpt><trkpt lat="45.09802807852043" lon="10.034791586745438"><ele>33.85714285714286</ele><time>2026-04-12T10:20:45Z</time></trkpt><trkpt lat="45.09795260956217" lon="10.03479734037146"><ele>34.28571428571429</ele><time>2026-04-12T10:20:46Z</time></trkpt><trkpt lat="45.09788037905272" lon="10.034808452756268"><ele>34.714285714285715</ele><time>2026-04-12T10:20:47Z</time></trkpt><trkpt lat="45.09781012252511" lon="10.034824001604768"><ele>35.142857142857146</ele><time>2026-04-12T10:20:48Z</time></trkpt><trkpt lat="45.09774212758753" lon="10.03483937919734"><ele>35.57142857142858</ele><time>2026-04-12T10:20:49Z</time></trkpt><trkpt lat="45.09767738939177" lon="10.034869245577791"><ele>36.0</ele><time>2026-04-12T10:20:50Z</time></trkpt><trkpt lat="45.097610415389724" lon="10.034880988272498"><ele>36.0</ele><time>2026-04-12T10:20:51Z</time></trkpt><trkpt lat="45.0975460293665" lon="10.034895929950808"><ele>36.0</ele><time>2026-04-12T10:20:52Z</time></trkpt><trkpt lat="45.097422849837265" lon="10.034904159740966"><ele>36.0</ele><time>2026-04-12T10:20:54Z</time></trkpt><trkpt lat="45.09730436794185" lon="10.034909478086172"><ele>36.0</ele><time>2026-04-12T10:20:55.999Z</time></trkpt><trkpt lat="45.097194864369506" lon="10.034936295546705"><ele>36.0</ele><time>2026-04-12T10:20:57.999Z</time></trkpt><trkpt lat="45.09708924537617" lon="10.034953713618355"><ele>35.8</ele><time>2026-04-12T10:20:59.999Z</time></trkpt><trkpt lat="45.09701200212679" lon="10.034979898985922"><ele>35.6</ele><time>2026-04-12T10:21:01.999Z</time></trkpt><trkpt lat="45.09705043519261" lon="10.03517818844259"><ele>35.4</ele><time>2026-04-12T10:21:03.999Z</time></trkpt><trkpt lat="45.09710439755553" lon="10.035280055587512"><ele>35.2</ele><time>2026-04-12T10:21:05.999Z</time></trkpt><trkpt lat="45.09715720761008" lon="10.035413519884187"><ele>35.0</ele><time>2026-04-12T10:21:07.999Z</time></trkpt><trkpt lat="45.09722381725686" lon="10.035552672464588"><ele>35.0</ele><time>2026-04-12T10:21:09.999Z</time></trkpt><trkpt lat="45.09724561773164" lon="10.035637179125906"><ele>35.0</ele><time>2026-04-12T10:21:10.999Z</time></trkpt><trkpt lat="45.097280840334854" lon="10.035715346664652"><ele>35.0</ele><time>2026-04-12T10:21:11.999Z</time></trkpt><trkpt lat="45.097334330419734" lon="10.035780449678187"><ele>35.0</ele><time>2026-04-12T10:21:12.999Z</time></trkpt><trkpt lat="45.09737687998289" lon="10.035856854301798"><ele>35.0</ele><time>2026-04-12T10:21:13.999Z</time></trkpt><trkpt lat="45.09742402448669" lon="10.035927680707863"><ele>35.0</ele><time>2026-04-12T10:21:14.999Z</time></trkpt><trkpt lat="45.09747156387484" lon="10.03600276770483"><ele>35.0</ele><time>2026-04-12T10:21:15.999Z</time></trkpt><trkpt lat="45.09751721430985" lon="10.036072618500048"><ele>35.42857142857143</ele><time>2026-04-12T10:21:16.999Z</time></trkpt><trkpt lat="45.097563863348995" lon="10.036140711087988"><ele>35.85714285714286</ele><time>2026-04-12T10:21:17.999Z</time></trkpt><trkpt lat="45.0976184624275" lon="10.036212609518122"><ele>36.285714285714285</ele><time>2026-04-12T10:21:18.999Z</time></trkpt><trkpt lat="45.09767203281605" lon="10.036282800512621"><ele>36.714285714285715</ele><time>2026-04-12T10:21:19.999Z</time></trkpt><trkpt lat="45.09773071230489" lon="10.036347827033344"><ele>37.142857142857146</ele><time>2026-04-12T10:21:20.999Z</time></trkpt><trkpt lat="45.09777846099943" lon="10.036429639464165"><ele>37.57142857142857</ele><time>2026-04-12T10:21:21.999Z</time></trkpt><trkpt lat="45.097840635718235" lon="10.036487101861367"><ele>38.0</ele><time>2026-04-12T10:21:22.999Z</time></trkpt><trkpt lat="45.097914966666025" lon="10.036517493028159"><ele>38.0</ele><time>2026-04-12T10:21:23.999Z</time></trkpt><trkpt lat="45.09798282419783" lon="10.036563630114703"><ele>38.0</ele><time>2026-04-12T10:21:24.999Z</time></trkpt><trkpt lat="45.09805195580619" lon="10.036606209049536"><ele>38.0</ele><time>2026-04-12T10:21:25.999Z</time></trkpt><trkpt lat="45.09812201721896" lon="10.036647636055363"><ele>38.0</ele><time>2026-04-12T10:21:26.999Z</time></trkpt><trkpt lat="45.09819128259829" lon="10.036696195775715"><ele>38.0</ele><time>2026-04-12T10:21:27.999Z</time></trkpt><trkpt lat="45.098259632604275" lon="10.036751680616835"><ele>38.0</ele><time>2026-04-12T10:21:28.999Z</time></trkpt><trkpt lat="45.09832617223978" lon="10.03681355983766"><ele>37.33333333333333</ele><time>2026-04-12T10:21:29.999Z</time></trkpt><trkpt lat="45.09839342335313" lon="10.036876249155792"><ele>36.666666666666664</ele><time>2026-04-12T10:21:30.999Z</time></trkpt><trkpt lat="45.098457384459046" lon="10.036943999657561"><ele>36.0</ele><time>2026-04-12T10:21:31.999Z</time></trkpt><trkpt lat="45.09852159231523" lon="10.037013624339089"><ele>35.333333333333336</ele><time>2026-04-12T10:21:32.999Z</time></trkpt><trkpt lat="45.09858265564098" lon="10.037085474456058"><ele>34.66666666666667</ele><time>2026-04-12T10:21:33.999Z</time></trkpt><trkpt lat="45.09863891968283" lon="10.037161696112388"><ele>34.0</ele><time>2026-04-12T10:21:34.999Z</time></trkpt><trkpt lat="45.09869662770723" lon="10.037236732191733"><ele>34.0</ele><time>2026-04-12T10:21:35.999Z</time></trkpt><trkpt lat="45.098755329340754" lon="10.037308511594794"><ele>34.0</ele><time>2026-04-12T10:21:36.999Z</time></trkpt><trkpt lat="45.09881166162347" lon="10.037381688554081"><ele>34.0</ele><time>2026-04-12T10:21:37.999Z</time></trkpt><trkpt lat="45.09886949893149" lon="10.037452279931623"><ele>34.0</ele><time>2026-04-12T10:21:38.999Z</time></trkpt><trkpt lat="45.0989265372753" lon="10.037521896546426"><ele>34.0</ele><time>2026-04-12T10:21:39.999Z</time></trkpt><trkpt lat="45.09898399284008" lon="10.037594728558707"><ele>34.0</ele><time>2026-04-12T10:21:40.999Z</time></trkpt><trkpt lat="45.09904503599746" lon="10.037657373534714"><ele>34.285714285714285</ele><time>2026-04-12T10:21:41.999Z</time></trkpt><trkpt lat="45.0991058374486" lon="10.037724900730538"><ele>34.57142857142857</ele><time>2026-04-12T10:21:42.999Z</time></trkpt><trkpt lat="45.099165332709894" lon="10.037786796741562"><ele>34.85714285714286</ele><time>2026-04-12T10:21:43.999Z</time></trkpt><trkpt lat="45.09922756958826" lon="10.037848417053175"><ele>35.14285714285714</ele><time>2026-04-12T10:21:44.999Z</time></trkpt><trkpt lat="45.09929036439937" lon="10.037906687279314"><ele>35.42857142857143</ele><time>2026-04-12T10:21:45.999Z</time></trkpt><trkpt lat="45.09935239212413" lon="10.03796556966996"><ele>35.714285714285715</ele><time>2026-04-12T10:21:46.999Z</time></trkpt><trkpt lat="45.099414396198554" lon="10.038018417187201"><ele>36.0</ele><time>2026-04-12T10:21:47.999Z</time></trkpt><trkpt lat="45.09948082605016" lon="10.038074128959178"><ele>36.0</ele><time>2026-04-12T10:21:48.998Z</time></trkpt><trkpt lat="45.099545699489504" lon="10.03812639305606"><ele>36.0</ele><time>2026-04-12T10:21:49.998Z</time></trkpt><trkpt lat="45.09961221500646" lon="10.0381824226044"><ele>36.0</ele><time>2026-04-12T10:21:50.998Z</time></trkpt><trkpt lat="45.099678041686666" lon="10.038235194413756"><ele>36.0</ele><time>2026-04-12T10:21:51.998Z</time></trkpt><trkpt lat="45.09974699071977" lon="10.038286244732662"><ele>36.0</ele><time>2026-04-12T10:21:52.998Z</time></trkpt><trkpt lat="45.09981112558514" lon="10.038343036801372"><ele>36.0</ele><time>2026-04-12T10:21:53.998Z</time></trkpt><trkpt lat="45.09987532939324" lon="10.038403507233909"><ele>36.28571428571429</ele><time>2026-04-12T10:21:54.998Z</time></trkpt><trkpt lat="45.09993980174534" lon="10.03845914247824"><ele>36.57142857142857</ele><time>2026-04-12T10:21:55.998Z</time></trkpt><trkpt lat="45.10000330918843" lon="10.038516037469064"><ele>36.85714285714286</ele><time>2026-04-12T10:21:56.998Z</time></trkpt><trkpt lat="45.10006745249555" lon="10.038573387366288"><ele>37.142857142857146</ele><time>2026-04-12T10:21:57.998Z</time></trkpt><trkpt lat="45.100131740056355" lon="10.038622287257168"><ele>37.42857142857143</ele><time>2026-04-12T10:21:58.998Z</time></trkpt><trkpt lat="45.10019368864812" lon="10.038671912137659"><ele>37.714285714285715</ele><time>2026-04-12T10:21:59.998Z</time></trkpt><trkpt lat="45.10025448729175" lon="10.03872115784231"><ele>38.0</ele><time>2026-04-12T10:22:00.998Z</time></trkpt><trkpt lat="45.100316165325694" lon="10.03876542167211"><ele>38.0</ele><time>2026-04-12T10:22:01.998Z</time></trkpt><trkpt lat="45.1003798015748" lon="10.038815691254637"><ele>38.0</ele><time>2026-04-12T10:22:02.998Z</time></trkpt><trkpt lat="45.10044942592872" lon="10.03886165095773"><ele>38.0</ele><time>2026-04-12T10:22:03.998Z</time></trkpt><trkpt lat="45.100521362939624" lon="10.038909184866231"><ele>38.0</ele><time>2026-04-12T10:22:04.998Z</time></trkpt><trkpt lat="45.100594145321686" lon="10.038951430628337"><ele>38.0</ele><time>2026-04-12T10:22:05.998Z</time></trkpt><trkpt lat="45.1006666337846" lon="10.038993332247152"><ele>38.0</ele><time>2026-04-12T10:22:06.998Z</time></trkpt><trkpt lat="45.100737582155624" lon="10.039036237344918"><ele>37.83333333333333</ele><time>2026-04-12T10:22:07.998Z</time></trkpt><trkpt lat="45.100807621959675" lon="10.039081837873182"><ele>37.666666666666664</ele><time>2026-04-12T10:22:08.998Z</time></trkpt><trkpt lat="45.10087792617648" lon="10.039122148832915"><ele>37.5</ele><time>2026-04-12T10:22:09.998Z</time></trkpt><trkpt lat="45.10094870384826" lon="10.039162994555822"><ele>37.333333333333336</ele><time>2026-04-12T10:22:10.998Z</time></trkpt><trkpt lat="45.101019079946575" lon="10.039199919668908"><ele>37.16666666666667</ele><time>2026-04-12T10:22:12Z</time></trkpt><trkpt lat="45.10108670167037" lon="10.039245516922596"><ele>37.0</ele><time>2026-04-12T10:22:13Z</time></trkpt><trkpt lat="45.101158975471236" lon="10.039291984245711"><ele>37.0</ele><time>2026-04-12T10:22:14Z</time></trkpt><trkpt lat="45.101228404055924" lon="10.039338560106474"><ele>37.0</ele><time>2026-04-12T10:22:15Z</time></trkpt><trkpt lat="45.10129919790198" lon="10.039380908519043"><ele>37.0</ele><time>2026-04-12T10:22:16Z</time></trkpt><trkpt lat="45.101371035968086" lon="10.039423882511928"><ele>37.0</ele><time>2026-04-12T10:22:17Z</time></trkpt><trkpt lat="45.101440372297105" lon="10.039468015653737"><ele>37.0</ele><time>2026-04-12T10:22:18Z</time></trkpt><trkpt lat="45.10151168145494" lon="10.039509064881024"><ele>37.0</ele><time>2026-04-12T10:22:19Z</time></trkpt><trkpt lat="45.1015806306244" lon="10.039550302791968"><ele>36.833333333333336</ele><time>2026-04-12T10:22:20Z</time></trkpt><trkpt lat="45.10164936866075" lon="10.039595942973477"><ele>36.66666666666667</ele><time>2026-04-12T10:22:21Z</time></trkpt><trkpt lat="45.10172005296893" lon="10.039634101515905"><ele>36.5</ele><time>2026-04-12T10:22:22Z</time></trkpt><trkpt lat="45.10178874753897" lon="10.03967662122267"><ele>36.333333333333336</ele><time>2026-04-12T10:22:23Z</time></trkpt><trkpt lat="45.10185674281809" lon="10.039715983107273"><ele>36.166666666666664</ele><time>2026-04-12T10:22:24Z</time></trkpt><trkpt lat="45.10192563965786" lon="10.039760200583018"><ele>36.0</ele><time>2026-04-12T10:22:25Z</time></trkpt><trkpt lat="45.10199614769538" lon="10.039797483202552"><ele>36.0</ele><time>2026-04-12T10:22:26Z</time></trkpt><trkpt lat="45.102066210741796" lon="10.03983383177723"><ele>36.0</ele><time>2026-04-12T10:22:27Z</time></trkpt><trkpt lat="45.10213679645234" lon="10.039869102627012"><ele>36.0</ele><time>2026-04-12T10:22:28Z</time></trkpt><trkpt lat="45.10220898225371" lon="10.039901087274282"><ele>36.0</ele><time>2026-04-12T10:22:29Z</time></trkpt><trkpt lat="45.102282381446166" lon="10.039932511317538"><ele>36.0</ele><time>2026-04-12T10:22:30Z</time></trkpt><trkpt lat="45.10235307190666" lon="10.039966489503527"><ele>36.0</ele><time>2026-04-12T10:22:31Z</time></trkpt><trkpt lat="45.10242390300882" lon="10.040003859261367"><ele>35.833333333333336</ele><time>2026-04-12T10:22:32Z</time></trkpt><trkpt lat="45.10249302354666" lon="10.040036401762764"><ele>35.666666666666664</ele><time>2026-04-12T10:22:33Z</time></trkpt><trkpt lat="45.10256501267594" lon="10.040065739653208"><ele>35.5</ele><time>2026-04-12T10:22:34Z</time></trkpt><trkpt lat="45.10263725818607" lon="10.04009749813868"><ele>35.33333333333333</ele><time>2026-04-12T10:22:35Z</time></trkpt><trkpt lat="45.1027096564595" lon="10.040130904084975"><ele>35.166666666666664</ele><time>2026-04-12T10:22:36Z</time></trkpt><trkpt lat="45.10278065316111" lon="10.04016282843126"><ele>35.0</ele><time>2026-04-12T10:22:37Z</time></trkpt><trkpt lat="45.1028512125271" lon="10.04020091291269"><ele>35.0</ele><time>2026-04-12T10:22:38Z</time></trkpt><trkpt lat="45.10292218483552" lon="10.04023061116011"><ele>35.0</ele><time>2026-04-12T10:22:39Z</time></trkpt><trkpt lat="45.102996363567044" lon="10.040259859449945"><ele>35.0</ele><time>2026-04-12T10:22:40Z</time></trkpt><trkpt lat="45.10306915960591" lon="10.04029138173632"><ele>35.0</ele><time>2026-04-12T10:22:41Z</time></trkpt><trkpt lat="45.103142279389594" lon="10.04032209622682"><ele>35.0</ele><time>2026-04-12T10:22:42Z</time></trkpt><trkpt lat="45.10321713088095" lon="10.04035258496411"><ele>35.0</ele><time>2026-04-12T10:22:43Z</time></trkpt><trkpt lat="45.10329147954432" lon="10.040377711696252"><ele>35.33333333333333</ele><time>2026-04-12T10:22:44Z</time></trkpt><trkpt lat="45.10336749281919" lon="10.040402073718223"><ele>35.666666666666664</ele><time>2026-04-12T10:22:45Z</time></trkpt><trkpt lat="45.1034447628813" lon="10.040428280803296"><ele>36.0</ele><time>2026-04-12T10:22:46Z</time></trkpt><trkpt lat="45.10352007843318" lon="10.040449973640033"><ele>36.333333333333336</ele><time>2026-04-12T10:22:47Z</time></trkpt><trkpt lat="45.10359528523137" lon="10.040469913897637"><ele>36.66666666666667</ele><time>2026-04-12T10:22:48Z</time></trkpt><trkpt lat="45.10367272002126" lon="10.040491108895818"><ele>37.0</ele><time>2026-04-12T10:22:49Z</time></trkpt><trkpt lat="45.10374650298326" lon="10.040509795297625"><ele>37.0</ele><time>2026-04-12T10:22:50Z</time></trkpt><trkpt lat="45.10382024672391" lon="10.04052805517631"><ele>37.0</ele><time>2026-04-12T10:22:51Z</time></trkpt><trkpt lat="45.10388908910215" lon="10.04055853467809"><ele>37.0</ele><time>2026-04-12T10:22:52Z</time></trkpt><trkpt lat="45.1039613050534" lon="10.040590111908177"><ele>37.0</ele><time>2026-04-12T10:22:53Z</time></trkpt><trkpt lat="45.10403498933709" lon="10.040617955826526"><ele>37.0</ele><time>2026-04-12T10:22:54Z</time></trkpt><trkpt lat="45.104108754402425" lon="10.040639833926166"><ele>37.0</ele><time>2026-04-12T10:22:55Z</time></trkpt><trkpt lat="45.104182023467324" lon="10.040665845790592"><ele>37.333333333333336</ele><time>2026-04-12T10:22:56Z</time></trkpt><trkpt lat="45.1042493631766" lon="10.040689181284229"><ele>37.66666666666667</ele><time>2026-04-12T10:22:57Z</time></trkpt><trkpt lat="45.10431407678686" lon="10.040717606616374"><ele>38.0</ele><time>2026-04-12T10:22:58Z</time></trkpt><trkpt lat="45.104377775734775" lon="10.04074237993763"><ele>38.333333333333336</ele><time>2026-04-12T10:22:58.999Z</time></trkpt><trkpt lat="45.104440978937646" lon="10.040763297277921"><ele>38.666666666666664</ele><time>2026-04-12T10:22:59.999Z</time></trkpt><trkpt lat="45.10455861510195" lon="10.040800951928606"><ele>39.0</ele><time>2026-04-12T10:23:01.999Z</time></trkpt><trkpt lat="45.104669320878884" lon="10.040835251681617"><ele>39.0</ele><time>2026-04-12T10:23:03.999Z</time></trkpt><trkpt lat="45.104780070738244" lon="10.040873799563844"><ele>39.0</ele><time>2026-04-12T10:23:05.999Z</time></trkpt><trkpt lat="45.10488382856807" lon="10.04091222886027"><ele>39.0</ele><time>2026-04-12T10:23:07.999Z</time></trkpt><trkpt lat="45.10498627853592" lon="10.040964088632009"><ele>39.0</ele><time>2026-04-12T10:23:09.999Z</time></trkpt><trkpt lat="45.10508374978948" lon="10.041020709510432"><ele>39.0</ele><time>2026-04-12T10:23:11.999Z</time></trkpt><trkpt lat="45.10514292567393" lon="10.041127366756102"><ele>38.8</ele><time>2026-04-12T10:23:13.999Z</time></trkpt><trkpt lat="45.10511540746063" lon="10.041252022268536"><ele>38.599999999999994</ele><time>2026-04-12T10:23:15.999Z</time></trkpt><trkpt lat="45.10505081902156" lon="10.041345435819622"><ele>38.4</ele><time>2026-04-12T10:23:17.999Z</time></trkpt><trkpt lat="45.104996161701564" lon="10.041436213921102"><ele>38.199999999999996</ele><time>2026-04-12T10:23:19.999Z</time></trkpt><trkpt lat="45.10493490266015" lon="10.041529289019921"><ele>38.0</ele><time>2026-04-12T10:23:21.999Z</time></trkpt><trkpt lat="45.10485836129343" lon="10.041659407124763"><ele>37.83333333333333</ele><time>2026-04-12T10:23:23.999Z</time></trkpt><trkpt lat="45.10481734779859" lon="10.041731073625375"><ele>37.666666666666664</ele><time>2026-04-12T10:23:24.999Z</time></trkpt><trkpt lat="45.104774119273415" lon="10.041802430169632"><ele>37.5</ele><time>2026-04-12T10:23:25.999Z</time></trkpt><trkpt lat="45.10473360543795" lon="10.041871764223881"><ele>37.333333333333336</ele><time>2026-04-12T10:23:26.999Z</time></trkpt><trkpt lat="45.10465282753483" lon="10.041991427898132"><ele>37.16666666666667</ele><time>2026-04-12T10:23:28.999Z</time></trkpt><trkpt lat="45.104573195140986" lon="10.042113400456879"><ele>37.0</ele><time>2026-04-12T10:23:30.999Z</time></trkpt><trkpt lat="45.10448834245186" lon="10.042241313395985"><ele>37.0</ele><time>2026-04-12T10:23:32.999Z</time></trkpt><trkpt lat="45.10440495724842" lon="10.042376394892575"><ele>37.0</ele><time>2026-04-12T10:23:34.999Z</time></trkpt><trkpt lat="45.10436134765639" lon="10.042441824827732"><ele>37.0</ele><time>2026-04-12T10:23:35.999Z</time></trkpt><trkpt lat="45.10427987240776" lon="10.04257356867578"><ele>37.0</ele><time>2026-04-12T10:23:37.999Z</time></trkpt><trkpt lat="45.10420623394013" lon="10.042704224465629"><ele>37.0</ele><time>2026-04-12T10:23:39.999Z</time></trkpt><trkpt lat="45.10414049200821" lon="10.042838626437664"><ele>36.800000000000004</ele><time>2026-04-12T10:23:41.999Z</time></trkpt><trkpt lat="45.104073379123406" lon="10.04296073121611"><ele>36.6</ele><time>2026-04-12T10:23:43.999Z</time></trkpt><trkpt lat="45.10400445399323" lon="10.043075465028545"><ele>36.400000000000006</ele><time>2026-04-12T10:23:45.999Z</time></trkpt><trkpt lat="45.10393636401561" lon="10.043181398637048"><ele>36.2</ele><time>2026-04-12T10:23:47.999Z</time></trkpt><trkpt lat="45.103891779118136" lon="10.043309061415533"><ele>36.0</ele><time>2026-04-12T10:23:49.999Z</time></trkpt><trkpt lat="45.10390399154059" lon="10.043473467248113"><ele>36.0</ele><time>2026-04-12T10:23:51.998Z</time></trkpt><trkpt lat="45.1039640146589" lon="10.043623988017941"><ele>36.0</ele><time>2026-04-12T10:23:53.998Z</time></trkpt><trkpt lat="45.10399465670027" lon="10.043704616586574"><ele>36.0</ele><time>2026-04-12T10:23:54.998Z</time></trkpt><trkpt lat="45.10402771950302" lon="10.043784592021707"><ele>36.0</ele><time>2026-04-12T10:23:55.998Z</time></trkpt><trkpt lat="45.10405918266307" lon="10.043870364942451"><ele>36.0</ele><time>2026-04-12T10:23:56.998Z</time></trkpt><trkpt lat="45.104087407659776" lon="10.043953053632729"><ele>36.0</ele><time>2026-04-12T10:23:57.998Z</time></trkpt><trkpt lat="45.104115890355196" lon="10.044040456558683"><ele>36.00000000000001</ele><time>2026-04-12T10:23:58.998Z</time></trkpt><trkpt lat="45.10414483296855" lon="10.04413096982974"><ele>36.0</ele><time>2026-04-12T10:23:59.998Z</time></trkpt><trkpt lat="45.104174264764666" lon="10.044222935488943"><ele>36.0</ele><time>2026-04-12T10:24:00.998Z</time></trkpt><trkpt lat="45.10419928773305" lon="10.04431779739787"><ele>36.0</ele><time>2026-04-12T10:24:01.998Z</time></trkpt><trkpt lat="45.104222223250325" lon="10.044414763955887"><ele>36.0</ele><time>2026-04-12T10:24:02.998Z</time></trkpt><trkpt lat="45.10424490546168" lon="10.044513392761452"><ele>36.00000000000001</ele><time>2026-04-12T10:24:03.998Z</time></trkpt><trkpt lat="45.10426788959144" lon="10.044613062894562"><ele>36.0</ele><time>2026-04-12T10:24:04.998Z</time></trkpt><trkpt lat="45.10429092398269" lon="10.044712368799104"><ele>36.00000000000001</ele><time>2026-04-12T10:24:05.998Z</time></trkpt><trkpt lat="45.10431309128511" lon="10.044811343540623"><ele>36.0</ele><time>2026-04-12T10:24:06.998Z</time></trkpt><trkpt lat="45.10433560585074" lon="10.044911256081479"><ele>36.0</ele><time>2026-04-12T10:24:07.998Z</time></trkpt><trkpt lat="45.104356680598976" lon="10.0450104129279"><ele>36.0</ele><time>2026-04-12T10:24:08.998Z</time></trkpt><trkpt lat="45.104379270893496" lon="10.04511049114071"><ele>36.0</ele><time>2026-04-12T10:24:09.998Z</time></trkpt><trkpt lat="45.10440062280392" lon="10.045212656319226"><ele>36.00000000000001</ele><time>2026-04-12T10:24:10.998Z</time></trkpt><trkpt lat="45.10442372678582" lon="10.04531356559448"><ele>36.0</ele><time>2026-04-12T10:24:11.998Z</time></trkpt><trkpt lat="45.10444672285229" lon="10.045414956257309"><ele>35.833333333333336</ele><time>2026-04-12T10:24:12.998Z</time></trkpt><trkpt lat="45.10447230253832" lon="10.04551589114763"><ele>35.666666666666664</ele><time>2026-04-12T10:24:13.998Z</time></trkpt><trkpt lat="45.10449482925935" lon="10.045617865784862"><ele>35.5</ele><time>2026-04-12T10:24:14.998Z</time></trkpt><trkpt lat="45.1045164713839" lon="10.0457205751402"><ele>35.33333333333333</ele><time>2026-04-12T10:24:15.998Z</time></trkpt><trkpt lat="45.104537493391625" lon="10.04582439954258"><ele>35.166666666666664</ele><time>2026-04-12T10:24:16.998Z</time></trkpt><trkpt lat="45.104561270032875" lon="10.045925187705677"><ele>35.0</ele><time>2026-04-12T10:24:18Z</time></trkpt><trkpt lat="45.10458484801508" lon="10.046025196336052"><ele>34.714285714285715</ele><time>2026-04-12T10:24:19Z</time></trkpt><trkpt lat="45.10460527021369" lon="10.04612621935157"><ele>34.42857142857143</ele><time>2026-04-12T10:24:20Z</time></trkpt><trkpt lat="45.104625808006716" lon="10.046225386344537"><ele>34.14285714285714</ele><time>2026-04-12T10:24:21Z</time></trkpt><trkpt lat="45.10464910223361" lon="10.046324010399328"><ele>33.85714285714286</ele><time>2026-04-12T10:24:22Z</time></trkpt><trkpt lat="45.10467237266117" lon="10.04642330735699"><ele>33.57142857142857</ele><time>2026-04-12T10:24:23Z</time></trkpt><trkpt lat="45.10469287479788" lon="10.046522378111089"><ele>33.285714285714285</ele><time>2026-04-12T10:24:24Z</time></trkpt><trkpt lat="45.10471570198102" lon="10.046621446633083"><ele>33.0</ele><time>2026-04-12T10:24:25Z</time></trkpt><trkpt lat="45.104738509327184" lon="10.046718025783914"><ele>33.0</ele><time>2026-04-12T10:24:26Z</time></trkpt><trkpt lat="45.10476230015484" lon="10.046816240727676"><ele>33.0</ele><time>2026-04-12T10:24:27Z</time></trkpt><trkpt lat="45.10478591476142" lon="10.046915114145575"><ele>33.0</ele><time>2026-04-12T10:24:28Z</time></trkpt><trkpt lat="45.104806867373746" lon="10.047013517660066"><ele>33.0</ele><time>2026-04-12T10:24:29Z</time></trkpt><trkpt lat="45.10482696034826" lon="10.047115813436196"><ele>33.0</ele><time>2026-04-12T10:24:30Z</time></trkpt><trkpt lat="45.10484998630033" lon="10.0472173824425"><ele>33.0</ele><time>2026-04-12T10:24:31Z</time></trkpt><trkpt lat="45.1048719482003" lon="10.047317682383145"><ele>33.0</ele><time>2026-04-12T10:24:32Z</time></trkpt><trkpt lat="45.1048954487057" lon="10.047418873829196"><ele>33.333333333333336</ele><time>2026-04-12T10:24:33Z</time></trkpt><trkpt lat="45.10491947930568" lon="10.047517030005851"><ele>33.666666666666664</ele><time>2026-04-12T10:24:34Z</time></trkpt><trkpt lat="45.104945902103296" lon="10.04761759213035"><ele>34.0</ele><time>2026-04-12T10:24:35Z</time></trkpt><trkpt lat="45.10497203581029" lon="10.04771738932989"><ele>34.33333333333333</ele><time>2026-04-12T10:24:36Z</time></trkpt><trkpt lat="45.104997818563085" lon="10.047823114146041"><ele>34.666666666666664</ele><time>2026-04-12T10:24:37Z</time></trkpt><trkpt lat="45.10502029096748" lon="10.047925982623505"><ele>35.0</ele><time>2026-04-12T10:24:38Z</time></trkpt><trkpt lat="45.10503891586225" lon="10.048033463033764"><ele>35.0</ele><time>2026-04-12T10:24:39Z</time></trkpt><trkpt lat="45.10505084935557" lon="10.048139939862866"><ele>35.0</ele><time>2026-04-12T10:24:40Z</time></trkpt><trkpt lat="45.1050603400778" lon="10.048248055729129"><ele>35.0</ele><time>2026-04-12T10:24:41Z</time></trkpt><trkpt lat="45.105070852338415" lon="10.048353956578927"><ele>35.0</ele><time>2026-04-12T10:24:42Z</time></trkpt><trkpt lat="45.10508277765632" lon="10.048461552516045"><ele>35.0</ele><time>2026-04-12T10:24:43Z</time></trkpt><trkpt lat="45.10509534783071" lon="10.048563555194576"><ele>35.0</ele><time>2026-04-12T10:24:44Z</time></trkpt><trkpt lat="45.10510773105959" lon="10.04866916325622"><ele>35.0</ele><time>2026-04-12T10:24:45Z</time></trkpt><trkpt lat="45.10511812141321" lon="10.048771026236848"><ele>35.0</ele><time>2026-04-12T10:24:46Z</time></trkpt><trkpt lat="45.105129089951426" lon="10.048874534011782"><ele>35.0</ele><time>2026-04-12T10:24:47Z</time></trkpt><trkpt lat="45.10514050009464" lon="10.048976883921755"><ele>35.0</ele><time>2026-04-12T10:24:48Z</time></trkpt><trkpt lat="45.10514803020513" lon="10.049077598878956"><ele>35.0</ele><time>2026-04-12T10:24:49Z</time></trkpt><trkpt lat="45.10515473217763" lon="10.04918199219707"><ele>35.0</ele><time>2026-04-12T10:24:50Z</time></trkpt><trkpt lat="45.10515989763787" lon="10.049285275664396"><ele>35.0</ele><time>2026-04-12T10:24:51Z</time></trkpt><trkpt lat="45.105163763987136" lon="10.049386865437826"><ele>34.857142857142854</ele><time>2026-04-12T10:24:52Z</time></trkpt><trkpt lat="45.105165453710946" lon="10.049490142877172"><ele>34.714285714285715</ele><time>2026-04-12T10:24:53Z</time></trkpt><trkpt lat="45.105168254497805" lon="10.049592647591385"><ele>34.57142857142857</ele><time>2026-04-12T10:24:54Z</time></trkpt><trkpt lat="45.10517050603022" lon="10.04969616498664"><ele>34.42857142857143</ele><time>2026-04-12T10:24:55Z</time></trkpt><trkpt lat="45.10517225454513" lon="10.049795616569156"><ele>34.285714285714285</ele><time>2026-04-12T10:24:56Z</time></trkpt><trkpt lat="45.10517563099043" lon="10.049892248072958"><ele>34.14285714285714</ele><time>2026-04-12T10:24:57Z</time></trkpt><trkpt lat="45.10517724761577" lon="10.049984438117658"><ele>34.0</ele><time>2026-04-12T10:24:58Z</time></trkpt><trkpt lat="45.105177644713024" lon="10.050158681399418"><ele>34.0</ele><time>2026-04-12T10:25:00Z</time></trkpt><trkpt lat="45.10517786414443" lon="10.050322177118707"><ele>34.0</ele><time>2026-04-12T10:25:02Z</time></trkpt><trkpt lat="45.10518168312676" lon="10.050487265370043"><ele>34.0</ele><time>2026-04-12T10:25:03.999Z</time></trkpt><trkpt lat="45.10518132577084" lon="10.050654569938342"><ele>34.0</ele><time>2026-04-12T10:25:05.999Z</time></trkpt><trkpt lat="45.10518204455624" lon="10.050825610969634"><ele>33.75</ele><time>2026-04-12T10:25:07.999Z</time></trkpt><trkpt lat="45.10518522720882" lon="10.050993407472156"><ele>33.5</ele><time>2026-04-12T10:25:09.999Z</time></trkpt><trkpt lat="45.105190515496325" lon="10.051151585073654"><ele>33.25</ele><time>2026-04-12T10:25:11.999Z</time></trkpt><trkpt lat="45.10517770817903" lon="10.051305079709621"><ele>33.0</ele><time>2026-04-12T10:25:13.999Z</time></trkpt><trkpt lat="45.10510767756076" lon="10.051430651646621"><ele>33.0</ele><time>2026-04-12T10:25:15.999Z</time></trkpt><trkpt lat="45.10504406105821" lon="10.05144740878554"><ele>33.0</ele><time>2026-04-12T10:25:16.999Z</time></trkpt><trkpt lat="45.10497913737583" lon="10.051445079632558"><ele>33.0</ele><time>2026-04-12T10:25:17.999Z</time></trkpt><trkpt lat="45.10491225335555" lon="10.051436463110049"><ele>33.0</ele><time>2026-04-12T10:25:18.999Z</time></trkpt><trkpt lat="45.10484843194926" lon="10.051430868374112"><ele>33.0</ele><time>2026-04-12T10:25:19.999Z</time></trkpt><trkpt lat="45.104780910377116" lon="10.051429111512787"><ele>33.0</ele><time>2026-04-12T10:25:20.999Z</time></trkpt><trkpt lat="45.10471248210795" lon="10.051431704571486"><ele>33.0</ele><time>2026-04-12T10:25:21.999Z</time></trkpt><trkpt lat="45.10464519043808" lon="10.051434430240082"><ele>33.0</ele><time>2026-04-12T10:25:22.999Z</time></trkpt><trkpt lat="45.104578121271224" lon="10.051429702510205"><ele>33.0</ele><time>2026-04-12T10:25:23.999Z</time></trkpt><trkpt lat="45.1045092468119" lon="10.051415228220515"><ele>33.0</ele><time>2026-04-12T10:25:24.999Z</time></trkpt><trkpt lat="45.10444134020722" lon="10.051401126096307"><ele>33.0</ele><time>2026-04-12T10:25:25.999Z</time></trkpt><trkpt lat="45.10437541928241" lon="10.051390202281008"><ele>33.0</ele><time>2026-04-12T10:25:26.999Z</time></trkpt><trkpt lat="45.1043091551199" lon="10.051377300509"><ele>33.0</ele><time>2026-04-12T10:25:27.999Z</time></trkpt><trkpt lat="45.10424194063204" lon="10.051366176989506"><ele>33.0</ele><time>2026-04-12T10:25:28.999Z</time></trkpt><trkpt lat="45.10417323365342" lon="10.051352014190753"><ele>33.0</ele><time>2026-04-12T10:25:29.999Z</time></trkpt><trkpt lat="45.10410586283748" lon="10.051337537910559"><ele>33.0</ele><time>2026-04-12T10:25:30.999Z</time></trkpt><trkpt lat="45.10403816269263" lon="10.051321037981138"><ele>33.0</ele><time>2026-04-12T10:25:31.999Z</time></trkpt><trkpt lat="45.103970544876724" lon="10.05130953869716"><ele>33.0</ele><time>2026-04-12T10:25:32.999Z</time></trkpt><trkpt lat="45.10390205986955" lon="10.051300002506354"><ele>33.0</ele><time>2026-04-12T10:25:33.999Z</time></trkpt><trkpt lat="45.10383324866711" lon="10.051287833374632"><ele>33.0</ele><time>2026-04-12T10:25:34.999Z</time></trkpt><trkpt lat="45.10376199238536" lon="10.051273798734044"><ele>33.0</ele><time>2026-04-12T10:25:35.999Z</time></trkpt><trkpt lat="45.103693314555755" lon="10.0512552064011"><ele>33.14285714285714</ele><time>2026-04-12T10:25:36.999Z</time></trkpt><trkpt lat="45.1036262670918" lon="10.051242953750782"><ele>33.285714285714285</ele><time>2026-04-12T10:25:37.999Z</time></trkpt><trkpt lat="45.10355921448777" lon="10.051231304339778"><ele>33.42857142857143</ele><time>2026-04-12T10:25:38.999Z</time></trkpt><trkpt lat="45.103492375100316" lon="10.051217226341668"><ele>33.57142857142857</ele><time>2026-04-12T10:25:39.999Z</time></trkpt><trkpt lat="45.10342577025174" lon="10.051202096558276"><ele>33.714285714285715</ele><time>2026-04-12T10:25:40.999Z</time></trkpt><trkpt lat="45.103357979400094" lon="10.05119006358778"><ele>33.857142857142854</ele><time>2026-04-12T10:25:41.999Z</time></trkpt><trkpt lat="45.10329061480129" lon="10.051183697070256"><ele>34.0</ele><time>2026-04-12T10:25:42.999Z</time></trkpt><trkpt lat="45.10322238382898" lon="10.051173626222115"><ele>34.14285714285714</ele><time>2026-04-12T10:25:43.999Z</time></trkpt><trkpt lat="45.10315510164114" lon="10.051160381157759"><ele>34.285714285714285</ele><time>2026-04-12T10:25:44.999Z</time></trkpt><trkpt lat="45.1030864082632" lon="10.051146767717205"><ele>34.42857142857143</ele><time>2026-04-12T10:25:45.999Z</time></trkpt><trkpt lat="45.10301831406522" lon="10.05113747071487"><ele>34.57142857142857</ele><time>2026-04-12T10:25:46.999Z</time></trkpt><trkpt lat="45.102949730502914" lon="10.051124171431852"><ele>34.714285714285715</ele><time>2026-04-12T10:25:47.999Z</time></trkpt><trkpt lat="45.10288050507321" lon="10.051112113522716"><ele>34.857142857142854</ele><time>2026-04-12T10:25:48.999Z</time></trkpt><trkpt lat="45.10281205462811" lon="10.051100749569864"><ele>35.0</ele><time>2026-04-12T10:25:49.999Z</time></trkpt><trkpt lat="45.10274369016308" lon="10.051089670126522"><ele>35.0</ele><time>2026-04-12T10:25:50.999Z</time></trkpt><trkpt lat="45.1026733836308" lon="10.051082552922823"><ele>35.0</ele><time>2026-04-12T10:25:51.999Z</time></trkpt><trkpt lat="45.1026059555351" lon="10.051075415309963"><ele>35.0</ele><time>2026-04-12T10:25:52.999Z</time></trkpt><trkpt lat="45.1025386102512" lon="10.051065556019761"><ele>35.0</ele><time>2026-04-12T10:25:53.999Z</time></trkpt><trkpt lat="45.102471650169406" lon="10.051059282608437"><ele>35.0</ele><time>2026-04-12T10:25:54.999Z</time></trkpt><trkpt lat="45.10240440389462" lon="10.051053519254284"><ele>35.0</ele><time>2026-04-12T10:25:55.998Z</time></trkpt><trkpt lat="45.102336198625295" lon="10.051050562337476"><ele>35.0</ele><time>2026-04-12T10:25:56.998Z</time></trkpt><trkpt lat="45.1022698710588" lon="10.051041671973488"><ele>35.285714285714285</ele><time>2026-04-12T10:25:57.998Z</time></trkpt><trkpt lat="45.102204103072765" lon="10.05103602039363"><ele>35.57142857142857</ele><time>2026-04-12T10:25:58.998Z</time></trkpt><trkpt lat="45.10213500658893" lon="10.051028690128723"><ele>35.85714285714286</ele><time>2026-04-12T10:25:59.998Z</time></trkpt><trkpt lat="45.10206660527206" lon="10.051022013864811"><ele>36.14285714285714</ele><time>2026-04-12T10:26:00.998Z</time></trkpt><trkpt lat="45.10199673649562" lon="10.05101351972987"><ele>36.42857142857143</ele><time>2026-04-12T10:26:01.998Z</time></trkpt><trkpt lat="45.10192833417898" lon="10.05100541086647"><ele>36.714285714285715</ele><time>2026-04-12T10:26:02.998Z</time></trkpt><trkpt lat="45.101858711226654" lon="10.05099085546532"><ele>37.0</ele><time>2026-04-12T10:26:03.998Z</time></trkpt><trkpt lat="45.101791608271334" lon="10.050979062371201"><ele>37.0</ele><time>2026-04-12T10:26:04.998Z</time></trkpt><trkpt lat="45.10172582030106" lon="10.05096553633876"><ele>37.0</ele><time>2026-04-12T10:26:05.998Z</time></trkpt><trkpt lat="45.101661655108224" lon="10.050969991707799"><ele>37.0</ele><time>2026-04-12T10:26:06.998Z</time></trkpt><trkpt lat="45.10156215564066" lon="10.051079913000622"><ele>37.0</ele><time>2026-04-12T10:26:08.998Z</time></trkpt><trkpt lat="45.101539513433146" lon="10.051171229389766"><ele>37.0</ele><time>2026-04-12T10:26:09.998Z</time></trkpt><trkpt lat="45.10153397854254" lon="10.051270477317253"><ele>37.0</ele><time>2026-04-12T10:26:10.998Z</time></trkpt><trkpt lat="45.101530427890545" lon="10.051362151169377"><ele>37.0</ele><time>2026-04-12T10:26:11.998Z</time></trkpt><trkpt lat="45.10152198729703" lon="10.05145513634633"><ele>37.0</ele><time>2026-04-12T10:26:12.998Z</time></trkpt><trkpt lat="45.1015148497278" lon="10.051549799869562"><ele>37.0</ele><time>2026-04-12T10:26:13.998Z</time></trkpt><trkpt lat="45.10150743823519" lon="10.051644972768472"><ele>37.0</ele><time>2026-04-12T10:26:14.998Z</time></trkpt><trkpt lat="45.10150080465196" lon="10.051741825969813"><ele>37.0</ele><time>2026-04-12T10:26:15.998Z</time></trkpt><trkpt lat="45.10149212444639" lon="10.051839542236982"><ele>37.0</ele><time>2026-04-12T10:26:16.998Z</time></trkpt><trkpt lat="45.10148444074981" lon="10.051937164095134"><ele>37.0</ele><time>2026-04-12T10:26:17.998Z</time></trkpt><trkpt lat="45.10147841699047" lon="10.052035078863396"><ele>36.85714285714286</ele><time>2026-04-12T10:26:18.998Z</time></trkpt><trkpt lat="45.10146747656177" lon="10.052132196452169"><ele>36.714285714285715</ele><time>2026-04-12T10:26:19.998Z</time></trkpt><trkpt lat="45.101459182065625" lon="10.052227628314858"><ele>36.57142857142857</ele><time>2026-04-12T10:26:20.998Z</time></trkpt><trkpt lat="45.10144864485249" lon="10.052326083503292"><ele>36.42857142857143</ele><time>2026-04-12T10:26:21.998Z</time></trkpt><trkpt lat="45.101442227733436" lon="10.052423972933239"><ele>36.285714285714285</ele><time>2026-04-12T10:26:22.998Z</time></trkpt><trkpt lat="45.101435793941164" lon="10.052522268902917"><ele>36.142857142857146</ele><time>2026-04-12T10:26:24Z</time></trkpt><trkpt lat="45.10142602602003" lon="10.05261938155488"><ele>36.0</ele><time>2026-04-12T10:26:25Z</time></trkpt><trkpt lat="45.10141767583224" lon="10.052715258585064"><ele>35.85714285714286</ele><time>2026-04-12T10:26:26Z</time></trkpt><trkpt lat="45.10140813896603" lon="10.05281392211822"><ele>35.714285714285715</ele><time>2026-04-12T10:26:27Z</time></trkpt><trkpt lat="45.10139701795684" lon="10.052910355708965"><ele>35.57142857142857</ele><time>2026-04-12T10:26:28Z</time></trkpt><trkpt lat="45.101388671757924" lon="10.053007119783844"><ele>35.42857142857143</ele><time>2026-04-12T10:26:29Z</time></trkpt><trkpt lat="45.1013804967272" lon="10.053104044239138"><ele>35.285714285714285</ele><time>2026-04-12T10:26:30Z</time></trkpt><trkpt lat="45.10136951880546" lon="10.053200707133614"><ele>35.142857142857146</ele><time>2026-04-12T10:26:31Z</time></trkpt><trkpt lat="45.10136226993716" lon="10.05329762627959"><ele>35.0</ele><time>2026-04-12T10:26:32Z</time></trkpt><trkpt lat="45.10135542378137" lon="10.053396689519456"><ele>35.0</ele><time>2026-04-12T10:26:33Z</time></trkpt><trkpt lat="45.10135207506049" lon="10.05349407893421"><ele>35.0</ele><time>2026-04-12T10:26:34Z</time></trkpt><trkpt lat="45.10135035512068" lon="10.053590326157885"><ele>35.0</ele><time>2026-04-12T10:26:35Z</time></trkpt><trkpt lat="45.101345880057785" lon="10.053690189511597"><ele>35.0</ele><time>2026-04-12T10:26:36Z</time></trkpt><trkpt lat="45.101341485720326" lon="10.053788209233682"><ele>35.0</ele><time>2026-04-12T10:26:37Z</time></trkpt><trkpt lat="45.10133809842522" lon="10.053887122791279"><ele>35.0</ele><time>2026-04-12T10:26:38Z</time></trkpt><trkpt lat="45.10133581095536" lon="10.053984882212053"><ele>35.0</ele><time>2026-04-12T10:26:39Z</time></trkpt><trkpt lat="45.1013393386586" lon="10.05408077576372"><ele>35.0</ele><time>2026-04-12T10:26:40Z</time></trkpt><trkpt lat="45.10134512138909" lon="10.054176873743543"><ele>35.0</ele><time>2026-04-12T10:26:41Z</time></trkpt><trkpt lat="45.10135640050529" lon="10.054274755121282"><ele>35.0</ele><time>2026-04-12T10:26:42Z</time></trkpt><trkpt lat="45.101378572306515" lon="10.054365075967501"><ele>35.0</ele><time>2026-04-12T10:26:43Z</time></trkpt><trkpt lat="45.10141024394576" lon="10.054452503012461"><ele>35.0</ele><time>2026-04-12T10:26:44Z</time></trkpt><trkpt lat="45.10144281329499" lon="10.054537508893828"><ele>35.0</ele><time>2026-04-12T10:26:45Z</time></trkpt><trkpt lat="45.10146978000044" lon="10.05462719268484"><ele>35.0</ele><time>2026-04-12T10:26:46Z</time></trkpt><trkpt lat="45.10149533603644" lon="10.054716368907174"><ele>35.0</ele><time>2026-04-12T10:26:47Z</time></trkpt><trkpt lat="45.10152304599951" lon="10.054805713912138"><ele>35.0</ele><time>2026-04-12T10:26:48Z</time></trkpt><trkpt lat="45.101551503020836" lon="10.054891437281993"><ele>35.0</ele><time>2026-04-12T10:26:49Z</time></trkpt><trkpt lat="45.10157600091526" lon="10.054977973666952"><ele>35.0</ele><time>2026-04-12T10:26:50Z</time></trkpt><trkpt lat="45.10160073838628" lon="10.055066081852553"><ele>35.0</ele><time>2026-04-12T10:26:51Z</time></trkpt><trkpt lat="45.10162746888899" lon="10.055152441506863"><ele>35.0</ele><time>2026-04-12T10:26:52Z</time></trkpt><trkpt lat="45.10165536719646" lon="10.055238942421688"><ele>35.0</ele><time>2026-04-12T10:26:53Z</time></trkpt><trkpt lat="45.101684112911016" lon="10.055323698362526"><ele>34.857142857142854</ele><time>2026-04-12T10:26:54Z</time></trkpt><trkpt lat="45.10171221565232" lon="10.055409693484474"><ele>34.714285714285715</ele><time>2026-04-12T10:26:55Z</time></trkpt><trkpt lat="45.101741824763316" lon="10.055494969652907"><ele>34.57142857142857</ele><time>2026-04-12T10:26:56Z</time></trkpt><trkpt lat="45.10176986066474" lon="10.055582204140762"><ele>34.42857142857143</ele><time>2026-04-12T10:26:57Z</time></trkpt><trkpt lat="45.10179721859645" lon="10.05566873814477"><ele>34.285714285714285</ele><time>2026-04-12T10:26:58Z</time></trkpt><trkpt lat="45.1018266409351" lon="10.055752100703126"><ele>34.14285714285714</ele><time>2026-04-12T10:26:59Z</time></trkpt><trkpt lat="45.10185494177491" lon="10.055839171635593"><ele>34.0</ele><time>2026-04-12T10:27:00Z</time></trkpt><trkpt lat="45.10188320208562" lon="10.055924683548376"><ele>34.333333333333336</ele><time>2026-04-12T10:27:01Z</time></trkpt><trkpt lat="45.10191049121527" lon="10.056007864261204"><ele>34.66666666666667</ele><time>2026-04-12T10:27:02Z</time></trkpt><trkpt lat="45.10193794535604" lon="10.056091312666444"><ele>35.0</ele><time>2026-04-12T10:27:03Z</time></trkpt><trkpt lat="45.10196299575182" lon="10.056180904017094"><ele>35.333333333333336</ele><time>2026-04-12T10:27:04Z</time></trkpt><trkpt lat="45.101992631902576" lon="10.05625984321395"><ele>35.666666666666664</ele><time>2026-04-12T10:27:05Z</time></trkpt><trkpt lat="45.10205282838537" lon="10.056334487370314"><ele>36.0</ele><time>2026-04-12T10:27:06Z</time></trkpt><trkpt lat="45.10208188840574" lon="10.056514085112392"><ele>36.00000000000001</ele><time>2026-04-12T10:27:07.999Z</time></trkpt><trkpt lat="45.102116907339784" lon="10.056596284731516"><ele>36.0</ele><time>2026-04-12T10:27:08.999Z</time></trkpt><trkpt lat="45.10214866115515" lon="10.056678465621951"><ele>36.0</ele><time>2026-04-12T10:27:09.999Z</time></trkpt><trkpt lat="45.102176431577156" lon="10.056763215584123"><ele>36.0</ele><time>2026-04-12T10:27:10.999Z</time></trkpt><trkpt lat="45.10220921438512" lon="10.056848307213297"><ele>36.0</ele><time>2026-04-12T10:27:11.999Z</time></trkpt><trkpt lat="45.10223412281481" lon="10.056934967704784"><ele>36.00000000000001</ele><time>2026-04-12T10:27:12.999Z</time></trkpt><trkpt lat="45.10226261243603" lon="10.057022158634293"><ele>36.0</ele><time>2026-04-12T10:27:13.999Z</time></trkpt><trkpt lat="45.10228803910144" lon="10.057108367680808"><ele>36.333333333333336</ele><time>2026-04-12T10:27:14.999Z</time></trkpt><trkpt lat="45.102316177257265" lon="10.057194327334571"><ele>36.666666666666664</ele><time>2026-04-12T10:27:15.999Z</time></trkpt><trkpt lat="45.102342809600145" lon="10.05727920647983"><ele>37.0</ele><time>2026-04-12T10:27:16.999Z</time></trkpt><trkpt lat="45.102367124306475" lon="10.057364045142714"><ele>37.33333333333333</ele><time>2026-04-12T10:27:17.999Z</time></trkpt><trkpt lat="45.10242121283353" lon="10.057514037106712"><ele>37.666666666666664</ele><time>2026-04-12T10:27:19.999Z</time></trkpt><trkpt lat="45.10246595736856" lon="10.05766279486906"><ele>38.0</ele><time>2026-04-12T10:27:21.999Z</time></trkpt><trkpt lat="45.102506129568255" lon="10.057815548710616"><ele>37.8</ele><time>2026-04-12T10:27:23.999Z</time></trkpt><trkpt lat="45.10255276751445" lon="10.057977241716625"><ele>37.599999999999994</ele><time>2026-04-12T10:27:25.999Z</time></trkpt><trkpt lat="45.10259378458167" lon="10.058147152414136"><ele>37.400000000000006</ele><time>2026-04-12T10:27:27.999Z</time></trkpt><trkpt lat="45.10263387144414" lon="10.058316962785419"><ele>37.2</ele><time>2026-04-12T10:27:29.999Z</time></trkpt><trkpt lat="45.10265146476404" lon="10.058405545639967"><ele>37.0</ele><time>2026-04-12T10:27:30.999Z</time></trkpt><trkpt lat="45.102664672372384" lon="10.058494369985151"><ele>37.0</ele><time>2026-04-12T10:27:31.999Z</time></trkpt><trkpt lat="45.10267871103687" lon="10.058583707477588"><ele>37.0</ele><time>2026-04-12T10:27:32.999Z</time></trkpt><trkpt lat="45.102691756016455" lon="10.058672790031137"><ele>37.0</ele><time>2026-04-12T10:27:33.999Z</time></trkpt><trkpt lat="45.102707598457066" lon="10.05876247999194"><ele>37.0</ele><time>2026-04-12T10:27:34.999Z</time></trkpt><trkpt lat="45.10272277074363" lon="10.05884999963131"><ele>37.0</ele><time>2026-04-12T10:27:35.999Z</time></trkpt><trkpt lat="45.10274095436816" lon="10.05893796484647"><ele>37.0</ele><time>2026-04-12T10:27:36.999Z</time></trkpt><trkpt lat="45.1027729091291" lon="10.059020006739889"><ele>37.0</ele><time>2026-04-12T10:27:37.999Z</time></trkpt><trkpt lat="45.102823410036976" lon="10.059082726909574"><ele>36.85714285714286</ele><time>2026-04-12T10:27:38.999Z</time></trkpt><trkpt lat="45.10288520977509" lon="10.059126219563904"><ele>36.714285714285715</ele><time>2026-04-12T10:27:39.999Z</time></trkpt><trkpt lat="45.10295311430608" lon="10.059141442229944"><ele>36.57142857142857</ele><time>2026-04-12T10:27:40.999Z</time></trkpt><trkpt lat="45.103027365734675" lon="10.0591510572395"><ele>36.42857142857143</ele><time>2026-04-12T10:27:41.999Z</time></trkpt><trkpt lat="45.10309475626548" lon="10.059170989884235"><ele>36.285714285714285</ele><time>2026-04-12T10:27:42.999Z</time></trkpt><trkpt lat="45.103161115979724" lon="10.059212378962819"><ele>36.142857142857146</ele><time>2026-04-12T10:27:43.999Z</time></trkpt><trkpt lat="45.10321335172504" lon="10.059283035842821"><ele>36.0</ele><time>2026-04-12T10:27:44.999Z</time></trkpt><trkpt lat="45.10325215334016" lon="10.059370007340432"><ele>35.85714285714286</ele><time>2026-04-12T10:27:45.999Z</time></trkpt><trkpt lat="45.103280421621456" lon="10.059462300384665"><ele>35.714285714285715</ele><time>2026-04-12T10:27:46.999Z</time></trkpt><trkpt lat="45.103293449241804" lon="10.059561365807344"><ele>35.57142857142857</ele><time>2026-04-12T10:27:47.999Z</time></trkpt><trkpt lat="45.10329338274558" lon="10.059660143187072"><ele>35.42857142857143</ele><time>2026-04-12T10:27:48.999Z</time></trkpt><trkpt lat="45.1032913106772" lon="10.059754595975319"><ele>35.285714285714285</ele><time>2026-04-12T10:27:49.999Z</time></trkpt><trkpt lat="45.10329025917484" lon="10.05985310048995"><ele>35.142857142857146</ele><time>2026-04-12T10:27:50.999Z</time></trkpt><trkpt lat="45.103286674708514" lon="10.059951831150073"><ele>35.0</ele><time>2026-04-12T10:27:51.999Z</time></trkpt><trkpt lat="45.1032871205236" lon="10.060049935120087"><ele>34.857142857142854</ele><time>2026-04-12T10:27:52.999Z</time></trkpt><trkpt lat="45.10328410792552" lon="10.060145418637378"><ele>34.714285714285715</ele><time>2026-04-12T10:27:53.999Z</time></trkpt><trkpt lat="45.103283494579095" lon="10.060238917558733"><ele>34.57142857142857</ele><time>2026-04-12T10:27:54.999Z</time></trkpt><trkpt lat="45.10327883065948" lon="10.060337231787395"><ele>34.42857142857143</ele><time>2026-04-12T10:27:55.999Z</time></trkpt><trkpt lat="45.10327859750707" lon="10.060433350478313"><ele>34.285714285714285</ele><time>2026-04-12T10:27:56.999Z</time></trkpt><trkpt lat="45.103275878941865" lon="10.06053060909374"><ele>34.14285714285714</ele><time>2026-04-12T10:27:57.999Z</time></trkpt><trkpt lat="45.10326911996768" lon="10.060626115409194"><ele>34.0</ele><time>2026-04-12T10:27:58.999Z</time></trkpt><trkpt lat="45.10326353804742" lon="10.060725167853638"><ele>34.285714285714285</ele><time>2026-04-12T10:27:59.999Z</time></trkpt><trkpt lat="45.10326015781515" lon="10.060821008713036"><ele>34.57142857142857</ele><time>2026-04-12T10:28:00.998Z</time></trkpt><trkpt lat="45.103257033632985" lon="10.0609188024341"><ele>34.85714285714286</ele><time>2026-04-12T10:28:01.998Z</time></trkpt><trkpt lat="45.10325431288354" lon="10.061014500097047"><ele>35.14285714285714</ele><time>2026-04-12T10:28:02.998Z</time></trkpt><trkpt lat="45.10325495534912" lon="10.061110637128381"><ele>35.42857142857143</ele><time>2026-04-12T10:28:03.998Z</time></trkpt><trkpt lat="45.10325116037901" lon="10.061209509856957"><ele>35.714285714285715</ele><time>2026-04-12T10:28:04.998Z</time></trkpt><trkpt lat="45.10324958694427" lon="10.061305091613377"><ele>36.0</ele><time>2026-04-12T10:28:05.998Z</time></trkpt><trkpt lat="45.10324514864866" lon="10.061405038648097"><ele>36.00000000000001</ele><time>2026-04-12T10:28:06.998Z</time></trkpt><trkpt lat="45.1032447079324" lon="10.061499101110586"><ele>36.0</ele><time>2026-04-12T10:28:07.998Z</time></trkpt><trkpt lat="45.10324281662065" lon="10.061598050172838"><ele>36.0</ele><time>2026-04-12T10:28:08.998Z</time></trkpt><trkpt lat="45.10324087305504" lon="10.061697023719221"><ele>36.0</ele><time>2026-04-12T10:28:09.998Z</time></trkpt><trkpt lat="45.10324004940264" lon="10.06179470563675"><ele>36.0</ele><time>2026-04-12T10:28:10.998Z</time></trkpt><trkpt lat="45.10323940052445" lon="10.061893299831276"><ele>36.00000000000001</ele><time>2026-04-12T10:28:11.998Z</time></trkpt><trkpt lat="45.103237037647375" lon="10.061990846499107"><ele>36.0</ele><time>2026-04-12T10:28:12.998Z</time></trkpt><trkpt lat="45.10323069167359" lon="10.062087345645564"><ele>36.142857142857146</ele><time>2026-04-12T10:28:13.998Z</time></trkpt><trkpt lat="45.103219255536644" lon="10.062186575417858"><ele>36.285714285714285</ele><time>2026-04-12T10:28:14.998Z</time></trkpt><trkpt lat="45.1032115722357" lon="10.062284372131495"><ele>36.42857142857143</ele><time>2026-04-12T10:28:15.998Z</time></trkpt><trkpt lat="45.103205653978996" lon="10.062380637723152"><ele>36.57142857142857</ele><time>2026-04-12T10:28:16.998Z</time></trkpt><trkpt lat="45.1031993469217" lon="10.062475500291177"><ele>36.714285714285715</ele><time>2026-04-12T10:28:17.998Z</time></trkpt><trkpt lat="45.10319825834639" lon="10.062567567277496"><ele>36.85714285714286</ele><time>2026-04-12T10:28:18.998Z</time></trkpt><trkpt lat="45.10321016167235" lon="10.062657117472476"><ele>37.0</ele><time>2026-04-12T10:28:19.998Z</time></trkpt><trkpt lat="45.1032553463318" lon="10.062732679852006"><ele>36.5</ele><time>2026-04-12T10:28:20.998Z</time></trkpt><trkpt lat="45.10332592215561" lon="10.062772286410462"><ele>36.0</ele><time>2026-04-12T10:28:21.998Z</time></trkpt><trkpt lat="45.103404791863206" lon="10.062751169880162"><ele>35.5</ele><time>2026-04-12T10:28:22.998Z</time></trkpt><trkpt lat="45.103475589080084" lon="10.062695568227964"><ele>35.0</ele><time>2026-04-12T10:28:23.998Z</time></trkpt><trkpt lat="45.10353949577928" lon="10.062646854000823"><ele>34.5</ele><time>2026-04-12T10:28:24.998Z</time></trkpt><trkpt lat="45.103612227911725" lon="10.06262763345827"><ele>34.0</ele><time>2026-04-12T10:28:25.998Z</time></trkpt><trkpt lat="45.10367934335022" lon="10.062589380668127"><ele>34.0</ele><time>2026-04-12T10:28:26.998Z</time></trkpt><trkpt lat="45.10374821170124" lon="10.062550213452962"><ele>34.0</ele><time>2026-04-12T10:28:27.998Z</time></trkpt><trkpt lat="45.103818665317306" lon="10.062510144848655"><ele>34.0</ele><time>2026-04-12T10:28:29Z</time></trkpt><trkpt lat="45.10388739480252" lon="10.062471056879831"><ele>34.0</ele><time>2026-04-12T10:28:30Z</time></trkpt><trkpt lat="45.10395697386686" lon="10.062430924687947"><ele>34.0</ele><time>2026-04-12T10:28:31Z</time></trkpt><trkpt lat="45.10402216955157" lon="10.062368680955439"><ele>34.0</ele><time>2026-04-12T10:28:32Z</time></trkpt><trkpt lat="45.10409499785713" lon="10.062327640478935"><ele>33.66666666666667</ele><time>2026-04-12T10:28:33Z</time></trkpt><trkpt lat="45.104171672353516" lon="10.062306544616053"><ele>33.333333333333336</ele><time>2026-04-12T10:28:34Z</time></trkpt><trkpt lat="45.104237008755184" lon="10.062244043491724"><ele>33.0</ele><time>2026-04-12T10:28:35Z</time></trkpt><trkpt lat="45.10431351499855" lon="10.062224371604048"><ele>32.666666666666664</ele><time>2026-04-12T10:28:36Z</time></trkpt><trkpt lat="45.104385184596005" lon="10.062182851747421"><ele>32.33333333333333</ele><time>2026-04-12T10:28:37Z</time></trkpt><trkpt lat="45.1044561605956" lon="10.062142843809637"><ele>32.0</ele><time>2026-04-12T10:28:38Z</time></trkpt><trkpt lat="45.10452782201303" lon="10.062102579168533"><ele>31.999999999999996</ele><time>2026-04-12T10:28:39Z</time></trkpt><trkpt lat="45.104596240697944" lon="10.062041329002776"><ele>32.0</ele><time>2026-04-12T10:28:40Z</time></trkpt><trkpt lat="45.10467175313207" lon="10.062012236296694"><ele>32.0</ele><time>2026-04-12T10:28:41Z</time></trkpt><trkpt lat="45.10474924352963" lon="10.061991382527468"><ele>32.0</ele><time>2026-04-12T10:28:42Z</time></trkpt><trkpt lat="45.10482767197125" lon="10.061982556613847"><ele>31.999999999999996</ele><time>2026-04-12T10:28:43Z</time></trkpt><trkpt lat="45.10491047257461" lon="10.061988638587337"><ele>32.0</ele><time>2026-04-12T10:28:44Z</time></trkpt><trkpt lat="45.10499187894809" lon="10.062011431643064"><ele>31.999999999999996</ele><time>2026-04-12T10:28:45Z</time></trkpt><trkpt lat="45.10507189706431" lon="10.06204965221345"><ele>32.0</ele><time>2026-04-12T10:28:46Z</time></trkpt><trkpt lat="45.10514585157047" lon="10.062096143575506"><ele>32.0</ele><time>2026-04-12T10:28:47Z</time></trkpt><trkpt lat="45.105217490363714" lon="10.062151487140369"><ele>32.0</ele><time>2026-04-12T10:28:48Z</time></trkpt><trkpt lat="45.105283036239356" lon="10.06220749567305"><ele>31.999999999999996</ele><time>2026-04-12T10:28:49Z</time></trkpt><trkpt lat="45.10534665493276" lon="10.062266475373061"><ele>32.0</ele><time>2026-04-12T10:28:50Z</time></trkpt><trkpt lat="45.10540418806911" lon="10.062332470894555"><ele>31.999999999999996</ele><time>2026-04-12T10:28:51Z</time></trkpt><trkpt lat="45.10545494132098" lon="10.062400537420542"><ele>32.0</ele><time>2026-04-12T10:28:52Z</time></trkpt><trkpt lat="45.105502376267374" lon="10.062469881107132"><ele>32.0</ele><time>2026-04-12T10:28:53Z</time></trkpt><trkpt lat="45.10554551963424" lon="10.06253895645499"><ele>32.0</ele><time>2026-04-12T10:28:54Z</time></trkpt><trkpt lat="45.105587503329254" lon="10.062610052755227"><ele>31.999999999999996</ele><time>2026-04-12T10:28:55Z</time></trkpt><trkpt lat="45.105630759884065" lon="10.062681610347447"><ele>32.0</ele><time>2026-04-12T10:28:56Z</time></trkpt><trkpt lat="45.10571496167528" lon="10.06281703625106"><ele>32.33333333333333</ele><time>2026-04-12T10:28:58Z</time></trkpt><trkpt lat="45.1057574180248" lon="10.062883414214866"><ele>32.666666666666664</ele><time>2026-04-12T10:28:59Z</time></trkpt><trkpt lat="45.10579915991063" lon="10.062950980271102"><ele>33.0</ele><time>2026-04-12T10:29:00Z</time></trkpt><trkpt lat="45.10588146753688" lon="10.063083782727688"><ele>33.333333333333336</ele><time>2026-04-12T10:29:02Z</time></trkpt><trkpt lat="45.10592213735893" lon="10.063158274049336"><ele>33.66666666666667</ele><time>2026-04-12T10:29:03Z</time></trkpt><trkpt lat="45.1059667077807" lon="10.063223431178791"><ele>34.0</ele><time>2026-04-12T10:29:04Z</time></trkpt><trkpt lat="45.10605334232174" lon="10.063353204929767"><ele>34.14285714285714</ele><time>2026-04-12T10:29:06Z</time></trkpt><trkpt lat="45.10609641647202" lon="10.063422636115545"><ele>34.285714285714285</ele><time>2026-04-12T10:29:07Z</time></trkpt><trkpt lat="45.10614021648493" lon="10.063492188023238"><ele>34.42857142857143</ele><time>2026-04-12T10:29:08Z</time></trkpt><trkpt lat="45.106184646887165" lon="10.063561499874114"><ele>34.57142857142857</ele><time>2026-04-12T10:29:09Z</time></trkpt><trkpt lat="45.10622737592537" lon="10.063634364636947"><ele>34.714285714285715</ele><time>2026-04-12T10:29:10Z</time></trkpt><trkpt lat="45.10627305613957" lon="10.063703574215314"><ele>34.857142857142854</ele><time>2026-04-12T10:29:10.999Z</time></trkpt><trkpt lat="45.10632141986461" lon="10.06377265168223"><ele>35.0</ele><time>2026-04-12T10:29:11.999Z</time></trkpt><trkpt lat="45.1063666378641" lon="10.063846410408825"><ele>35.0</ele><time>2026-04-12T10:29:12.999Z</time></trkpt><trkpt lat="45.10641134664892" lon="10.06392160814194"><ele>35.0</ele><time>2026-04-12T10:29:13.999Z</time></trkpt><trkpt lat="45.10645671498091" lon="10.063996547974513"><ele>35.0</ele><time>2026-04-12T10:29:14.999Z</time></trkpt><trkpt lat="45.106502350643005" lon="10.064070399150896"><ele>35.0</ele><time>2026-04-12T10:29:15.999Z</time></trkpt><trkpt lat="45.10654779200842" lon="10.064142380191255"><ele>35.0</ele><time>2026-04-12T10:29:16.999Z</time></trkpt><trkpt lat="45.10659236444029" lon="10.064214588632506"><ele>35.0</ele><time>2026-04-12T10:29:17.999Z</time></trkpt><trkpt lat="45.10663565137865" lon="10.064285817833428"><ele>35.0</ele><time>2026-04-12T10:29:18.999Z</time></trkpt><trkpt lat="45.10667989914084" lon="10.064355050738518"><ele>34.666666666666664</ele><time>2026-04-12T10:29:19.999Z</time></trkpt><trkpt lat="45.1067234910621" lon="10.064421994795772"><ele>34.33333333333333</ele><time>2026-04-12T10:29:20.999Z</time></trkpt><trkpt lat="45.1068043563354" lon="10.064555981850907"><ele>34.0</ele><time>2026-04-12T10:29:22.999Z</time></trkpt><trkpt lat="45.106886737146105" lon="10.064691046414978"><ele>33.666666666666664</ele><time>2026-04-12T10:29:24.999Z</time></trkpt><trkpt lat="45.106931423083616" lon="10.064757015342765"><ele>33.333333333333336</ele><time>2026-04-12T10:29:25.999Z</time></trkpt><trkpt lat="45.106975521533926" lon="10.064821594688441"><ele>33.0</ele><time>2026-04-12T10:29:26.999Z</time></trkpt><trkpt lat="45.10701800359111" lon="10.064891385754503"><ele>32.857142857142854</ele><time>2026-04-12T10:29:27.999Z</time></trkpt><trkpt lat="45.10705950121306" lon="10.064961202496406"><ele>32.714285714285715</ele><time>2026-04-12T10:29:28.999Z</time></trkpt><trkpt lat="45.107104375772" lon="10.065029672196161"><ele>32.57142857142857</ele><time>2026-04-12T10:29:29.999Z</time></trkpt><trkpt lat="45.10714729929692" lon="10.065101253185592"><ele>32.42857142857143</ele><time>2026-04-12T10:29:30.999Z</time></trkpt><trkpt lat="45.10719163642104" lon="10.065172783402767"><ele>32.285714285714285</ele><time>2026-04-12T10:29:31.999Z</time></trkpt><trkpt lat="45.10723801378556" lon="10.065244518615915"><ele>32.14285714285714</ele><time>2026-04-12T10:29:32.999Z</time></trkpt><trkpt lat="45.107281318223315" lon="10.065319350034217"><ele>32.0</ele><time>2026-04-12T10:29:33.999Z</time></trkpt><trkpt lat="45.10732625362576" lon="10.06539553408024"><ele>32.0</ele><time>2026-04-12T10:29:34.999Z</time></trkpt><trkpt lat="45.107374000256875" lon="10.06547179575801"><ele>31.999999999999996</ele><time>2026-04-12T10:29:35.999Z</time></trkpt><trkpt lat="45.107420941953684" lon="10.06554848110557"><ele>32.0</ele><time>2026-04-12T10:29:36.999Z</time></trkpt><trkpt lat="45.10746819573809" lon="10.065620117570326"><ele>32.0</ele><time>2026-04-12T10:29:37.999Z</time></trkpt><trkpt lat="45.10751518931239" lon="10.065694587712386"><ele>31.999999999999996</ele><time>2026-04-12T10:29:38.999Z</time></trkpt><trkpt lat="45.107561597318316" lon="10.065768079244792"><ele>32.0</ele><time>2026-04-12T10:29:39.999Z</time></trkpt><trkpt lat="45.10760523945266" lon="10.065841524649125"><ele>32.0</ele><time>2026-04-12T10:29:40.999Z</time></trkpt><trkpt lat="45.10764884924535" lon="10.065914806692867"><ele>32.14285714285714</ele><time>2026-04-12T10:29:41.999Z</time></trkpt><trkpt lat="45.10769605759421" lon="10.06598699176055"><ele>32.285714285714285</ele><time>2026-04-12T10:29:42.999Z</time></trkpt><trkpt lat="45.10774124411034" lon="10.066060983199291"><ele>32.42857142857143</ele><time>2026-04-12T10:29:43.999Z</time></trkpt><trkpt lat="45.107787211742234" lon="10.066133240687039"><ele>32.57142857142857</ele><time>2026-04-12T10:29:44.999Z</time></trkpt><trkpt lat="45.10783079490581" lon="10.066212582514513"><ele>32.714285714285715</ele><time>2026-04-12T10:29:45.999Z</time></trkpt><trkpt lat="45.10787618484095" lon="10.066287120704542"><ele>32.857142857142854</ele><time>2026-04-12T10:29:46.999Z</time></trkpt><trkpt lat="45.10792616993449" lon="10.066359218020558"><ele>33.0</ele><time>2026-04-12T10:29:47.999Z</time></trkpt><trkpt lat="45.10797127413143" lon="10.066433371919734"><ele>33.0</ele><time>2026-04-12T10:29:48.999Z</time></trkpt><trkpt lat="45.10801549667274" lon="10.066512076149923"><ele>33.0</ele><time>2026-04-12T10:29:49.999Z</time></trkpt><trkpt lat="45.10805884683789" lon="10.06659461745508"><ele>33.0</ele><time>2026-04-12T10:29:50.999Z</time></trkpt><trkpt lat="45.108103134987836" lon="10.066669789563473"><ele>33.0</ele><time>2026-04-12T10:29:51.999Z</time></trkpt><trkpt lat="45.10814804781384" lon="10.06674869507942"><ele>33.0</ele><time>2026-04-12T10:29:52.999Z</time></trkpt><trkpt lat="45.10819326763238" lon="10.066824062254183"><ele>33.0</ele><time>2026-04-12T10:29:53.999Z</time></trkpt><trkpt lat="45.10823987291501" lon="10.066902321387893"><ele>33.0</ele><time>2026-04-12T10:29:54.999Z</time></trkpt><trkpt lat="45.10828578455416" lon="10.066978013844992"><ele>33.0</ele><time>2026-04-12T10:29:55.999Z</time></trkpt><trkpt lat="45.108332626282476" lon="10.067053620048597"><ele>33.0</ele><time>2026-04-12T10:29:56.999Z</time></trkpt><trkpt lat="45.10837877733521" lon="10.067127105486614"><ele>33.0</ele><time>2026-04-12T10:29:57.999Z</time></trkpt><trkpt lat="45.108424418921615" lon="10.067202024301833"><ele>33.0</ele><time>2026-04-12T10:29:58.999Z</time></trkpt><trkpt lat="45.108471051295375" lon="10.067277153022811"><ele>33.0</ele><time>2026-04-12T10:29:59.999Z</time></trkpt><trkpt lat="45.108517406491266" lon="10.067350496841806"><ele>33.0</ele><time>2026-04-12T10:30:00.999Z</time></trkpt><trkpt lat="45.10856396614405" lon="10.067428434582887"><ele>33.0</ele><time>2026-04-12T10:30:01.999Z</time></trkpt><trkpt lat="45.10860933187836" lon="10.067504023555648"><ele>33.14285714285714</ele><time>2026-04-12T10:30:02.998Z</time></trkpt><trkpt lat="45.108654011104136" lon="10.067581140733639"><ele>33.285714285714285</ele><time>2026-04-12T10:30:03.998Z</time></trkpt><trkpt lat="45.10869871376816" lon="10.067655332887371"><ele>33.42857142857143</ele><time>2026-04-12T10:30:04.998Z</time></trkpt><trkpt lat="45.108744400270254" lon="10.067729891425094"><ele>33.57142857142857</ele><time>2026-04-12T10:30:05.998Z</time></trkpt><trkpt lat="45.10879175895796" lon="10.067804499714589"><ele>33.714285714285715</ele><time>2026-04-12T10:30:06.998Z</time></trkpt><trkpt lat="45.10883729595306" lon="10.067879450997067"><ele>33.857142857142854</ele><time>2026-04-12T10:30:07.998Z</time></trkpt><trkpt lat="45.108883189758345" lon="10.067957087993344"><ele>34.0</ele><time>2026-04-12T10:30:08.998Z</time></trkpt><trkpt lat="45.108928596210184" lon="10.068033987100968"><ele>33.99999999999999</ele><time>2026-04-12T10:30:09.998Z</time></trkpt><trkpt lat="45.10897486532809" lon="10.068113277879185"><ele>34.0</ele><time>2026-04-12T10:30:10.998Z</time></trkpt><trkpt lat="45.10902121573077" lon="10.068189159730121"><ele>34.0</ele><time>2026-04-12T10:30:11.998Z</time></trkpt><trkpt lat="45.10906917769682" lon="10.068266291143447"><ele>34.0</ele><time>2026-04-12T10:30:12.998Z</time></trkpt><trkpt lat="45.1091150685871" lon="10.068344571561198"><ele>34.0</ele><time>2026-04-12T10:30:13.998Z</time></trkpt><trkpt lat="45.10916214323929" lon="10.068421580762363"><ele>33.99999999999999</ele><time>2026-04-12T10:30:14.998Z</time></trkpt><trkpt lat="45.10920911605752" lon="10.068500889767465"><ele>34.0</ele><time>2026-04-12T10:30:15.998Z</time></trkpt><trkpt lat="45.1092552805644" lon="10.068577696843741"><ele>33.857142857142854</ele><time>2026-04-12T10:30:16.998Z</time></trkpt><trkpt lat="45.109299791302455" lon="10.068656968281529"><ele>33.714285714285715</ele><time>2026-04-12T10:30:17.998Z</time></trkpt><trkpt lat="45.10934606462899" lon="10.068736381908474"><ele>33.57142857142857</ele><time>2026-04-12T10:30:18.998Z</time></trkpt><trkpt lat="45.1093924609397" lon="10.068813881832245"><ele>33.42857142857143</ele><time>2026-04-12T10:30:19.998Z</time></trkpt><trkpt lat="45.10944036473062" lon="10.068894469153669"><ele>33.285714285714285</ele><time>2026-04-12T10:30:20.998Z</time></trkpt><trkpt lat="45.10948887402055" lon="10.068973965320113"><ele>33.14285714285714</ele><time>2026-04-12T10:30:21.998Z</time></trkpt><trkpt lat="45.10953692056298" lon="10.069053623091138"><ele>33.0</ele><time>2026-04-12T10:30:22.998Z</time></trkpt><trkpt lat="45.10958137409639" lon="10.069133167154854"><ele>33.0</ele><time>2026-04-12T10:30:23.998Z</time></trkpt><trkpt lat="45.10961963379774" lon="10.069220275096509"><ele>33.0</ele><time>2026-04-12T10:30:24.998Z</time></trkpt><trkpt lat="45.10965333605282" lon="10.069311133205833"><ele>33.0</ele><time>2026-04-12T10:30:25.998Z</time></trkpt><trkpt lat="45.10968439548276" lon="10.069404794368774"><ele>33.0</ele><time>2026-04-12T10:30:26.998Z</time></trkpt><trkpt lat="45.10971672860404" lon="10.069496171567614"><ele>33.0</ele><time>2026-04-12T10:30:27.998Z</time></trkpt><trkpt lat="45.10974919025504" lon="10.069588160791794"><ele>33.0</ele><time>2026-04-12T10:30:28.998Z</time></trkpt><trkpt lat="45.10977950572372" lon="10.069679072459273"><ele>33.0</ele><time>2026-04-12T10:30:29.998Z</time></trkpt><trkpt lat="45.1098090610643" lon="10.069770203785591"><ele>33.0</ele><time>2026-04-12T10:30:30.998Z</time></trkpt><trkpt lat="45.109841066100586" lon="10.069858556173644"><ele>33.0</ele><time>2026-04-12T10:30:31.998Z</time></trkpt><trkpt lat="45.109872391752106" lon="10.069949002678545"><ele>33.0</ele><time>2026-04-12T10:30:32.998Z</time></trkpt><trkpt lat="45.10990204658799" lon="10.070035584020182"><ele>33.0</ele><time>2026-04-12T10:30:34Z</time></trkpt><trkpt lat="45.10992863164288" lon="10.070122352991849"><ele>33.0</ele><time>2026-04-12T10:30:35Z</time></trkpt><trkpt lat="45.10995767503056" lon="10.070203393039037"><ele>33.0</ele><time>2026-04-12T10:30:36Z</time></trkpt><trkpt lat="45.10998693977714" lon="10.070287258919384"><ele>33.0</ele><time>2026-04-12T10:30:37Z</time></trkpt><trkpt lat="45.11005074046576" lon="10.070428660773931"><ele>33.8</ele><time>2026-04-12T10:30:39Z</time></trkpt><trkpt lat="45.11012937028625" lon="10.070539709805761"><ele>34.599999999999994</ele><time>2026-04-12T10:30:41Z</time></trkpt><trkpt lat="45.11021169078064" lon="10.070627892487057"><ele>35.400000000000006</ele><time>2026-04-12T10:30:43Z</time></trkpt><trkpt lat="45.11030065592485" lon="10.07069645250488"><ele>36.2</ele><time>2026-04-12T10:30:45Z</time></trkpt><trkpt lat="45.110394471121246" lon="10.07076677506143"><ele>37.0</ele><time>2026-04-12T10:30:47Z</time></trkpt><trkpt lat="45.11049681383551" lon="10.070830036075732"><ele>38.16666666666667</ele><time>2026-04-12T10:30:49Z</time></trkpt><trkpt lat="45.1105938318559" lon="10.070889293428127"><ele>39.333333333333336</ele><time>2026-04-12T10:30:51Z</time></trkpt><trkpt lat="45.110674460372984" lon="10.070958474844524"><ele>40.5</ele><time>2026-04-12T10:30:53Z</time></trkpt><trkpt lat="45.110725950469956" lon="10.071025781812315"><ele>41.666666666666664</ele><time>2026-04-12T10:30:56Z</time></trkpt><trkpt lat="45.110684492233176" lon="10.071111873470104"><ele>42.83333333333333</ele><time>2026-04-12T10:30:57Z</time></trkpt><trkpt lat="45.11063510411459" lon="10.07121403620592"><ele>44.0</ele><time>2026-04-12T10:30:59Z</time></trkpt><trkpt lat="45.110593265429344" lon="10.071325925735067"><ele>44.0</ele><time>2026-04-12T10:31:01Z</time></trkpt><trkpt lat="45.11055768477471" lon="10.071436384868509"><ele>44.0</ele><time>2026-04-12T10:31:03Z</time></trkpt><trkpt lat="45.11051089678782" lon="10.071560154719329"><ele>44.0</ele><time>2026-04-12T10:31:05Z</time></trkpt><trkpt lat="45.11046695355028" lon="10.071686573976734"><ele>44.0</ele><time>2026-04-12T10:31:07Z</time></trkpt><trkpt lat="45.11041445693507" lon="10.071817714328121"><ele>44.0</ele><time>2026-04-12T10:31:09Z</time></trkpt><trkpt lat="45.110368064943216" lon="10.071954897932402"><ele>43.400000000000006</ele><time>2026-04-12T10:31:11Z</time></trkpt><trkpt lat="45.11032505631512" lon="10.072085455540229"><ele>42.8</ele><time>2026-04-12T10:31:13Z</time></trkpt><trkpt lat="45.11027336900152" lon="10.07222613843611"><ele>42.2</ele><time>2026-04-12T10:31:14.999Z</time></trkpt><trkpt lat="45.11021172211578" lon="10.07236948476446"><ele>41.599999999999994</ele><time>2026-04-12T10:31:16.999Z</time></trkpt><trkpt lat="45.110150916222395" lon="10.072504388032538"><ele>41.0</ele><time>2026-04-12T10:31:18.999Z</time></trkpt><trkpt lat="45.110083533939054" lon="10.072642024646646"><ele>41.0</ele><time>2026-04-12T10:31:20.999Z</time></trkpt><trkpt lat="45.11000619432802" lon="10.072773838376259"><ele>41.0</ele><time>2026-04-12T10:31:22.999Z</time></trkpt><trkpt lat="45.10993413140297" lon="10.07290861732445"><ele>41.0</ele><time>2026-04-12T10:31:24.999Z</time></trkpt><trkpt lat="45.109860897989165" lon="10.073041054235194"><ele>41.0</ele><time>2026-04-12T10:31:26.999Z</time></trkpt><trkpt lat="45.109789789001155" lon="10.07317607339728"><ele>41.0</ele><time>2026-04-12T10:31:28.999Z</time></trkpt><trkpt lat="45.10971905730031" lon="10.073310090742048"><ele>41.0</ele><time>2026-04-12T10:31:30.999Z</time></trkpt><trkpt lat="45.10964420519944" lon="10.073441992311372"><ele>41.0</ele><time>2026-04-12T10:31:32.999Z</time></trkpt><trkpt lat="45.109569289421486" lon="10.073574067056102"><ele>41.0</ele><time>2026-04-12T10:31:34.999Z</time></trkpt><trkpt lat="45.109492259704" lon="10.07370796013686"><ele>41.0</ele><time>2026-04-12T10:31:36.999Z</time></trkpt><trkpt lat="45.10942000017913" lon="10.073844211991984"><ele>41.0</ele><time>2026-04-12T10:31:38.999Z</time></trkpt><trkpt lat="45.1093476243522" lon="10.073987361857295"><ele>41.0</ele><time>2026-04-12T10:31:40.999Z</time></trkpt><trkpt lat="45.10927925405112" lon="10.074129796515642"><ele>41.0</ele><time>2026-04-12T10:31:42.999Z</time></trkpt><trkpt lat="45.10924438274391" lon="10.074206446383139"><ele>41.0</ele><time>2026-04-12T10:31:43.999Z</time></trkpt><trkpt lat="45.109206803669395" lon="10.074279642484411"><ele>40.599999999999994</ele><time>2026-04-12T10:31:44.999Z</time></trkpt><trkpt lat="45.109174017204005" lon="10.074357709883547"><ele>40.199999999999996</ele><time>2026-04-12T10:31:45.999Z</time></trkpt><trkpt lat="45.10910756047167" lon="10.074516038835407"><ele>39.8</ele><time>2026-04-12T10:31:47.999Z</time></trkpt><trkpt lat="45.10905743550379" lon="10.074686429691099"><ele>39.4</ele><time>2026-04-12T10:31:49.999Z</time></trkpt><trkpt lat="45.10903667802438" lon="10.074770706447552"><ele>39.0</ele><time>2026-04-12T10:31:50.999Z</time></trkpt><trkpt lat="45.109013227556375" lon="10.074857689557321"><ele>38.714285714285715</ele><time>2026-04-12T10:31:51.999Z</time></trkpt><trkpt lat="45.10898991960067" lon="10.074944997191244"><ele>38.42857142857142</ele><time>2026-04-12T10:31:52.999Z</time></trkpt><trkpt lat="45.10896578758075" lon="10.075030496021341"><ele>38.14285714285714</ele><time>2026-04-12T10:31:53.999Z</time></trkpt><trkpt lat="45.10894035075373" lon="10.075114228544567"><ele>37.85714285714286</ele><time>2026-04-12T10:31:54.999Z</time></trkpt><trkpt lat="45.10891575296775" lon="10.075197134338131"><ele>37.57142857142857</ele><time>2026-04-12T10:31:55.999Z</time></trkpt><trkpt lat="45.10889038360437" lon="10.075281459922136"><ele>37.285714285714285</ele><time>2026-04-12T10:31:56.999Z</time></trkpt><trkpt lat="45.108865179844024" lon="10.07536332795591"><ele>37.0</ele><time>2026-04-12T10:31:57.999Z</time></trkpt><trkpt lat="45.10883713373291" lon="10.07544514479522"><ele>37.0</ele><time>2026-04-12T10:31:58.999Z</time></trkpt><trkpt lat="45.10880560640378" lon="10.075523492034279"><ele>37.0</ele><time>2026-04-12T10:31:59.999Z</time></trkpt><trkpt lat="45.10876974897351" lon="10.075602462220145"><ele>37.0</ele><time>2026-04-12T10:32:00.999Z</time></trkpt><trkpt lat="45.10873008661578" lon="10.075678080025469"><ele>37.0</ele><time>2026-04-12T10:32:01.999Z</time></trkpt><trkpt lat="45.1086877759651" lon="10.075746226313996"><ele>37.0</ele><time>2026-04-12T10:32:02.999Z</time></trkpt><trkpt lat="45.108640881911754" lon="10.075808833732511"><ele>37.0</ele><time>2026-04-12T10:32:03.999Z</time></trkpt><trkpt lat="45.10858829776791" lon="10.075863377729934"><ele>37.0</ele><time>2026-04-12T10:32:04.999Z</time></trkpt><trkpt lat="45.10847861345916" lon="10.075954986058369"><ele>37.142857142857146</ele><time>2026-04-12T10:32:06.999Z</time></trkpt><trkpt lat="45.10842121968751" lon="10.075995000485014"><ele>37.285714285714285</ele><time>2026-04-12T10:32:07.998Z</time></trkpt><trkpt lat="45.108362411070516" lon="10.076031084763859"><ele>37.42857142857143</ele><time>2026-04-12T10:32:08.998Z</time></trkpt><trkpt lat="45.1083026052423" lon="10.07606835110366"><ele>37.57142857142857</ele><time>2026-04-12T10:32:09.998Z</time></trkpt><trkpt lat="45.108241755056284" lon="10.076102012625523"><ele>37.714285714285715</ele><time>2026-04-12T10:32:10.998Z</time></trkpt><trkpt lat="45.1081825298454" lon="10.076137682857397"><ele>37.857142857142854</ele><time>2026-04-12T10:32:11.998Z</time></trkpt><trkpt lat="45.10812374651647" lon="10.076175518165265"><ele>38.0</ele><time>2026-04-12T10:32:12.998Z</time></trkpt><trkpt lat="45.1080647311236" lon="10.076211542815003"><ele>38.0</ele><time>2026-04-12T10:32:13.998Z</time></trkpt><trkpt lat="45.10800769689859" lon="10.076250729126144"><ele>38.0</ele><time>2026-04-12T10:32:14.998Z</time></trkpt><trkpt lat="45.107949552618294" lon="10.076290100510516"><ele>38.0</ele><time>2026-04-12T10:32:15.998Z</time></trkpt><trkpt lat="45.1078942430561" lon="10.076334095083585"><ele>38.0</ele><time>2026-04-12T10:32:16.998Z</time></trkpt><trkpt lat="45.107788699758224" lon="10.076430419230732"><ele>38.0</ele><time>2026-04-12T10:32:18.998Z</time></trkpt><trkpt lat="45.10773884666433" lon="10.076486625891976"><ele>38.0</ele><time>2026-04-12T10:32:19.998Z</time></trkpt><trkpt lat="45.10764755930792" lon="10.076607513719463"><ele>38.199999999999996</ele><time>2026-04-12T10:32:21.998Z</time></trkpt><trkpt lat="45.107602117081505" lon="10.076670458337547"><ele>38.4</ele><time>2026-04-12T10:32:22.998Z</time></trkpt><trkpt lat="45.10755972914825" lon="10.076738242860062"><ele>38.599999999999994</ele><time>2026-04-12T10:32:23.998Z</time></trkpt><trkpt lat="45.10748487895568" lon="10.076880774514576"><ele>38.8</ele><time>2026-04-12T10:32:25.998Z</time></trkpt><trkpt lat="45.107410402204806" lon="10.077018315297558"><ele>39.0</ele><time>2026-04-12T10:32:27.998Z</time></trkpt><trkpt lat="45.10733004832454" lon="10.077145571327534"><ele>39.0</ele><time>2026-04-12T10:32:29.998Z</time></trkpt><trkpt lat="45.107256394032795" lon="10.077262818670809"><ele>39.0</ele><time>2026-04-12T10:32:31.998Z</time></trkpt><trkpt lat="45.107195807893476" lon="10.077380868419011"><ele>39.0</ele><time>2026-04-12T10:32:33.998Z</time></trkpt><trkpt lat="45.107265137353174" lon="10.077515033399349"><ele>39.0</ele><time>2026-04-12T10:32:35.998Z</time></trkpt><trkpt lat="45.107373324653366" lon="10.077546813507292"><ele>39.0</ele><time>2026-04-12T10:32:37.998Z</time></trkpt><trkpt lat="45.1074672707493" lon="10.07760313164485"><ele>39.4</ele><time>2026-04-12T10:32:40Z</time></trkpt><trkpt lat="45.10756649828984" lon="10.077658361597308"><ele>39.8</ele><time>2026-04-12T10:32:42Z</time></trkpt><trkpt lat="45.107671599796774" lon="10.077697151464172"><ele>40.199999999999996</ele><time>2026-04-12T10:32:44Z</time></trkpt><trkpt lat="45.10777829527413" lon="10.077735641833229"><ele>40.599999999999994</ele><time>2026-04-12T10:32:46Z</time></trkpt><trkpt lat="45.10788478916983" lon="10.07776849085203"><ele>41.0</ele><time>2026-04-12T10:32:48Z</time></trkpt><trkpt lat="45.10799388785862" lon="10.077794092809011"><ele>41.0</ele><time>2026-04-12T10:32:50Z</time></trkpt><trkpt lat="45.10810398124005" lon="10.077811769926896"><ele>41.0</ele><time>2026-04-12T10:32:52Z</time></trkpt><trkpt lat="45.108203840008294" lon="10.077840797744832"><ele>41.0</ele><time>2026-04-12T10:32:54Z</time></trkpt><trkpt lat="45.10829863621842" lon="10.07787271481734"><ele>41.0</ele><time>2026-04-12T10:32:56Z</time></trkpt><trkpt lat="45.10839162934263" lon="10.077890339075092"><ele>41.0</ele><time>2026-04-12T10:32:58Z</time></trkpt><trkpt lat="45.10847849202371" lon="10.07790899294072"><ele>41.199999999999996</ele><time>2026-04-12T10:33:00Z</time></trkpt><trkpt lat="45.10856641314854" lon="10.077926533262536"><ele>41.4</ele><time>2026-04-12T10:33:02Z</time></trkpt><trkpt lat="45.108654337328375" lon="10.07793585693483"><ele>41.6</ele><time>2026-04-12T10:33:04Z</time></trkpt><trkpt lat="45.108734338767" lon="10.077917804996702"><ele>41.8</ele><time>2026-04-12T10:33:06Z</time></trkpt><trkpt lat="45.10880049851423" lon="10.077781128453736"><ele>42.0</ele><time>2026-04-12T10:33:09Z</time></trkpt><trkpt lat="45.10881103211325" lon="10.077672580027233"><ele>42.0</ele><time>2026-04-12T10:33:11Z</time></trkpt><trkpt lat="45.10882779094473" lon="10.077567523209526"><ele>42.0</ele><time>2026-04-12T10:33:13Z</time></trkpt><trkpt lat="45.10882849624248" lon="10.077453416199846"><ele>42.0</ele><time>2026-04-12T10:33:15Z</time></trkpt><trkpt lat="45.108858907830076" lon="10.077347265584935"><ele>42.0</ele><time>2026-04-12T10:33:17Z</time></trkpt><trkpt lat="45.10887163454016" lon="10.077243630998638"><ele>42.0</ele><time>2026-04-12T10:33:18.999Z</time></trkpt><trkpt lat="45.108879015859515" lon="10.077143304316944"><ele>42.0</ele><time>2026-04-12T10:33:20.999Z</time></trkpt><trkpt lat="45.10887773324463" lon="10.077034819914134"><ele>41.833333333333336</ele><time>2026-04-12T10:33:22.999Z</time></trkpt><trkpt lat="45.10881491336321" lon="10.076948199996307"><ele>41.666666666666664</ele><time>2026-04-12T10:33:24.999Z</time></trkpt><trkpt lat="45.10877434239509" lon="10.076865571077871"><ele>41.5</ele><time>2026-04-12T10:33:26.999Z</time></trkpt><trkpt lat="45.1087263200016" lon="10.076800120528867"><ele>41.33333333333333</ele><time>2026-04-12T10:33:28.999Z</time></trkpt><trkpt lat="45.10866061103906" lon="10.07673048162978"><ele>41.166666666666664</ele><time>2026-04-12T10:33:31.999Z</time></trkpt><trkpt lat="45.10858638447158" lon="10.076735108467085"><ele>41.0</ele><time>2026-04-12T10:34:08.999Z</time></trkpt><trkpt lat="45.108517444092094" lon="10.07677790687292"><ele>41.0</ele><time>2026-04-12T10:34:11.998Z</time></trkpt><trkpt lat="45.10844380566113" lon="10.076791009458216"><ele>41.0</ele><time>2026-04-12T10:34:14.998Z</time></trkpt><trkpt lat="45.10838371975038" lon="10.076828397818161"><ele>41.0</ele><time>2026-04-12T10:34:17.998Z</time></trkpt><trkpt lat="45.10832938724659" lon="10.076881969070978"><ele>41.0</ele><time>2026-04-12T10:34:21.998Z</time></trkpt></trkseg></trk></gpx>